<?xml version='1.0' encoding='UTF-8'?><gpx version="1.1" creator="JPX - https://github.com/jenetics/jpx" xmlns="http://www.topografix.com/GPX/1/1"><trk><trkseg><trkpt lat="43.49050393712279" lon="-3.7908963524254826"><ele>31.0</ele><time>2026-05-01T09:52:59Z</time></trkpt><trkpt lat="43.490438753538854" lon="-3.7909016723634195"><ele>31.000000000000004</ele><time>2026-05-01T09:53:01Z</time></trkpt><trkpt lat="43.490361433437904" lon="-3.7908904075781806"><ele>31.0</ele><time>2026-05-01T09:53:04Z</time></trkpt><trkpt lat="43.49028556782342" lon="-3.7908654503577064"><ele>31.0</ele><time>2026-05-01T09:53:07Z</time></trkpt><trkpt lat="43.490221026413664" lon="-3.7908356519368165"><ele>31.000000000000004</ele><time>2026-05-01T09:53:10Z</time></trkpt><trkpt lat="43.49027896937622" lon="-3.790798214552109"><ele>31.0</ele><time>2026-05-01T09:53:16Z</time></trkpt><trkpt lat="43.490341006005714" lon="-3.7908608115746056"><ele>31.0</ele><time>2026-05-01T09:53:21Z</time></trkpt><trkpt lat="43.49041167266519" lon="-3.7909196246234966"><ele>31.0</ele><time>2026-05-01T09:53:24Z</time></trkpt><trkpt lat="43.490474571378876" lon="-3.7909354583675787"><ele>31.000000000000004</ele><time>2026-05-01T09:53:27Z</time></trkpt><trkpt lat="43.490545493269394" lon="-3.790847461098047"><ele>31.0</ele><time>2026-05-01T09:54:03Z</time></trkpt><trkpt lat="43.4905333152882" lon="-3.790739368135587"><ele>31.0</ele><time>2026-05-01T09:54:06Z</time></trkpt><trkpt lat="43.490535131259016" lon="-3.7908374254289767"><ele>31.000000000000004</ele><time>2026-05-01T09:54:11Z</time></trkpt><trkpt lat="43.49050100254413" lon="-3.7909165329864534"><ele>31.0</ele><time>2026-05-01T10:07:08Z</time></trkpt><trkpt lat="43.49043216459155" lon="-3.7909327738848906"><ele>31.0</ele><time>2026-05-01T10:07:11Z</time></trkpt><trkpt lat="43.49033696117875" lon="-3.790903202367461"><ele>36.2</ele><time>2026-05-01T10:07:14Z</time></trkpt><trkpt lat="43.49026225257406" lon="-3.7908727576073744"><ele>41.400000000000006</ele><time>2026-05-01T10:07:16Z</time></trkpt><trkpt lat="43.49018357933297" lon="-3.7908642810645192"><ele>46.6</ele><time>2026-05-01T10:07:18Z</time></trkpt><trkpt lat="43.490080823050754" lon="-3.790902729725095"><ele>51.800000000000004</ele><time>2026-05-01T10:07:20Z</time></trkpt><trkpt lat="43.48998861020141" lon="-3.7909747543310197"><ele>57.0</ele><time>2026-05-01T10:07:22Z</time></trkpt><trkpt lat="43.489912232685576" lon="-3.791099427241231"><ele>57.2</ele><time>2026-05-01T10:07:24Z</time></trkpt><trkpt lat="43.4898144958866" lon="-3.7911647398177895"><ele>57.400000000000006</ele><time>2026-05-01T10:07:26Z</time></trkpt><trkpt lat="43.4897117288453" lon="-3.791218532294514"><ele>57.599999999999994</ele><time>2026-05-01T10:07:28Z</time></trkpt><trkpt lat="43.48960296352316" lon="-3.7912662391118657"><ele>57.8</ele><time>2026-05-01T10:07:30Z</time></trkpt><trkpt lat="43.48949111842894" lon="-3.7913085269010938"><ele>58.0</ele><time>2026-05-01T10:07:32Z</time></trkpt><trkpt lat="43.48938342849605" lon="-3.791353933675272"><ele>58.0</ele><time>2026-05-01T10:07:34Z</time></trkpt><trkpt lat="43.48928585801315" lon="-3.7914046454069106"><ele>58.0</ele><time>2026-05-01T10:07:36Z</time></trkpt><trkpt lat="43.489187768742994" lon="-3.7914634631279704"><ele>58.0</ele><time>2026-05-01T10:07:38Z</time></trkpt><trkpt lat="43.48908455508928" lon="-3.7915284955640574"><ele>58.0</ele><time>2026-05-01T10:07:40Z</time></trkpt><trkpt lat="43.48897649423152" lon="-3.791587133390261"><ele>58.0</ele><time>2026-05-01T10:07:42Z</time></trkpt><trkpt lat="43.488916287470246" lon="-3.791615274723802"><ele>58.00000000000001</ele><time>2026-05-01T10:07:43Z</time></trkpt><trkpt lat="43.48885487513467" lon="-3.7916451856944673"><ele>58.0</ele><time>2026-05-01T10:07:44Z</time></trkpt><trkpt lat="43.48879294938698" lon="-3.791663826601851"><ele>58.00000000000001</ele><time>2026-05-01T10:07:45Z</time></trkpt><trkpt lat="43.48873368378509" lon="-3.791703666106449"><ele>58.00000000000001</ele><time>2026-05-01T10:07:46Z</time></trkpt><trkpt lat="43.488666124939485" lon="-3.79171096695432"><ele>58.0</ele><time>2026-05-01T10:07:47Z</time></trkpt><trkpt lat="43.488606609665496" lon="-3.7917445647457044"><ele>58.00000000000001</ele><time>2026-05-01T10:07:48Z</time></trkpt><trkpt lat="43.48849297004988" lon="-3.791800584362683"><ele>58.00000000000001</ele><time>2026-05-01T10:07:50Z</time></trkpt><trkpt lat="43.48843206018946" lon="-3.7918284303542125"><ele>57.83333333333333</ele><time>2026-05-01T10:07:51Z</time></trkpt><trkpt lat="43.48837158282257" lon="-3.791855871872102"><ele>57.666666666666664</ele><time>2026-05-01T10:07:52Z</time></trkpt><trkpt lat="43.48824976080332" lon="-3.791896150059373"><ele>57.5</ele><time>2026-05-01T10:07:54Z</time></trkpt><trkpt lat="43.48818536969123" lon="-3.791915220096975"><ele>57.33333333333333</ele><time>2026-05-01T10:07:55Z</time></trkpt><trkpt lat="43.48812333622251" lon="-3.791944714079587"><ele>57.166666666666664</ele><time>2026-05-01T10:07:56Z</time></trkpt><trkpt lat="43.488050426283195" lon="-3.7919678756681248"><ele>57.0</ele><time>2026-05-01T10:07:57Z</time></trkpt><trkpt lat="43.48798337536088" lon="-3.7919862678466494"><ele>56.0</ele><time>2026-05-01T10:07:58Z</time></trkpt><trkpt lat="43.487916042202635" lon="-3.792003409159056"><ele>54.99999999999999</ele><time>2026-05-01T10:07:59Z</time></trkpt><trkpt lat="43.48784566972283" lon="-3.7920097685312375"><ele>54.0</ele><time>2026-05-01T10:08:00Z</time></trkpt><trkpt lat="43.487771041255414" lon="-3.7920132245146103"><ele>53.0</ele><time>2026-05-01T10:08:01Z</time></trkpt><trkpt lat="43.48770112058086" lon="-3.79195912580546"><ele>52.0</ele><time>2026-05-01T10:08:02Z</time></trkpt><trkpt lat="43.487631720688576" lon="-3.791924708899479"><ele>51.0</ele><time>2026-05-01T10:08:03Z</time></trkpt><trkpt lat="43.48756576875551" lon="-3.7918762832190978"><ele>50.0</ele><time>2026-05-01T10:08:04Z</time></trkpt><trkpt lat="43.48750197538321" lon="-3.7918282094674436"><ele>50.00000000000001</ele><time>2026-05-01T10:08:05Z</time></trkpt><trkpt lat="43.48744063969332" lon="-3.7917793446155703"><ele>50.0</ele><time>2026-05-01T10:08:06Z</time></trkpt><trkpt lat="43.48738063877502" lon="-3.7917308956186204"><ele>50.0</ele><time>2026-05-01T10:08:07Z</time></trkpt><trkpt lat="43.48732709863275" lon="-3.7916723434775452"><ele>50.0</ele><time>2026-05-01T10:08:08Z</time></trkpt><trkpt lat="43.4872883156089" lon="-3.7915982676942526"><ele>50.00000000000001</ele><time>2026-05-01T10:08:09Z</time></trkpt><trkpt lat="43.48724213383379" lon="-3.7914483508640187"><ele>50.0</ele><time>2026-05-01T10:08:11Z</time></trkpt><trkpt lat="43.48722201588683" lon="-3.7912999553446816"><ele>50.0</ele><time>2026-05-01T10:08:13Z</time></trkpt><trkpt lat="43.48721677620054" lon="-3.7911449390762932"><ele>50.0</ele><time>2026-05-01T10:08:15Z</time></trkpt><trkpt lat="43.4872209112575" lon="-3.7909787441059546"><ele>50.0</ele><time>2026-05-01T10:08:17Z</time></trkpt><trkpt lat="43.487221096887964" lon="-3.7908253331742308"><ele>50.0</ele><time>2026-05-01T10:08:19Z</time></trkpt><trkpt lat="43.48721585137261" lon="-3.7906760013804743"><ele>49.833333333333336</ele><time>2026-05-01T10:08:21.001Z</time></trkpt><trkpt lat="43.48718812045497" lon="-3.790520908858398"><ele>49.66666666666667</ele><time>2026-05-01T10:08:23.001Z</time></trkpt><trkpt lat="43.48714865932124" lon="-3.7904512230305074"><ele>49.5</ele><time>2026-05-01T10:08:24.001Z</time></trkpt><trkpt lat="43.4871025522077" lon="-3.790385912350086"><ele>49.33333333333333</ele><time>2026-05-01T10:08:25.001Z</time></trkpt><trkpt lat="43.48705140790118" lon="-3.790327173503955"><ele>49.166666666666664</ele><time>2026-05-01T10:08:26.001Z</time></trkpt><trkpt lat="43.486990559270765" lon="-3.7902813530318267"><ele>49.0</ele><time>2026-05-01T10:08:27.001Z</time></trkpt><trkpt lat="43.48692525592667" lon="-3.7902418175055117"><ele>49.49999999999999</ele><time>2026-05-01T10:08:28.001Z</time></trkpt><trkpt lat="43.48685716218476" lon="-3.7902040230545215"><ele>50.0</ele><time>2026-05-01T10:08:29.001Z</time></trkpt><trkpt lat="43.48679012428165" lon="-3.7901678059769717"><ele>50.5</ele><time>2026-05-01T10:08:30.001Z</time></trkpt><trkpt lat="43.48672156538986" lon="-3.790131327331757"><ele>51.0</ele><time>2026-05-01T10:08:31.001Z</time></trkpt><trkpt lat="43.486647122529234" lon="-3.7901004166182797"><ele>51.49999999999999</ele><time>2026-05-01T10:08:32.001Z</time></trkpt><trkpt lat="43.486570736026955" lon="-3.7900745617326947"><ele>52.0</ele><time>2026-05-01T10:08:33.001Z</time></trkpt><trkpt lat="43.48649301108584" lon="-3.790066991804764"><ele>52.0</ele><time>2026-05-01T10:08:34.001Z</time></trkpt><trkpt lat="43.4864199860738" lon="-3.7900819323607386"><ele>52.0</ele><time>2026-05-01T10:08:35.001Z</time></trkpt><trkpt lat="43.48635049365531" lon="-3.790123999567012"><ele>52.0</ele><time>2026-05-01T10:08:36.001Z</time></trkpt><trkpt lat="43.48628847827829" lon="-3.7901779444610626"><ele>52.0</ele><time>2026-05-01T10:08:37.001Z</time></trkpt><trkpt lat="43.48622928662338" lon="-3.790238215988879"><ele>52.0</ele><time>2026-05-01T10:08:38.001Z</time></trkpt><trkpt lat="43.48618680021403" lon="-3.7903165038738513"><ele>52.0</ele><time>2026-05-01T10:08:39.001Z</time></trkpt><trkpt lat="43.48612969472901" lon="-3.7903612146509906"><ele>52.0</ele><time>2026-05-01T10:08:40.001Z</time></trkpt><trkpt lat="43.486039844410776" lon="-3.790479914605811"><ele>52.0</ele><time>2026-05-01T10:08:42.001Z</time></trkpt><trkpt lat="43.48596000527449" lon="-3.790586092687949"><ele>52.0</ele><time>2026-05-01T10:08:44.001Z</time></trkpt><trkpt lat="43.48589243922096" lon="-3.790688310298813"><ele>52.0</ele><time>2026-05-01T10:08:46.001Z</time></trkpt><trkpt lat="43.485824527379584" lon="-3.79078898734088"><ele>52.0</ele><time>2026-05-01T10:08:48.001Z</time></trkpt><trkpt lat="43.48577456357636" lon="-3.7909198616826743"><ele>52.0</ele><time>2026-05-01T10:08:50.001Z</time></trkpt><trkpt lat="43.48572004026067" lon="-3.791039210102508"><ele>52.14285714285714</ele><time>2026-05-01T10:08:52.001Z</time></trkpt><trkpt lat="43.48566962920761" lon="-3.7911201791687197"><ele>52.28571428571429</ele><time>2026-05-01T10:08:54.001Z</time></trkpt><trkpt lat="43.485641810175785" lon="-3.7912022998786186"><ele>52.42857142857143</ele><time>2026-05-01T10:08:56.001Z</time></trkpt><trkpt lat="43.48560673648565" lon="-3.791276619998909"><ele>52.57142857142857</ele><time>2026-05-01T10:08:58.001Z</time></trkpt><trkpt lat="43.48557362401444" lon="-3.7913716276614897"><ele>52.71428571428571</ele><time>2026-05-01T10:09:57Z</time></trkpt><trkpt lat="43.48552790497524" lon="-3.7914384698483254"><ele>52.85714285714286</ele><time>2026-05-01T10:10:00Z</time></trkpt><trkpt lat="43.48549991171577" lon="-3.791533766271602"><ele>53.0</ele><time>2026-05-01T10:10:02Z</time></trkpt><trkpt lat="43.4854529610371" lon="-3.791646285888004"><ele>51.0</ele><time>2026-05-01T10:10:04Z</time></trkpt><trkpt lat="43.48540684352427" lon="-3.791775341961826"><ele>49.0</ele><time>2026-05-01T10:10:06Z</time></trkpt><trkpt lat="43.48535686305615" lon="-3.791895470269052"><ele>47.0</ele><time>2026-05-01T10:10:08Z</time></trkpt><trkpt lat="43.485302836613776" lon="-3.792026238019033"><ele>45.0</ele><time>2026-05-01T10:10:10Z</time></trkpt><trkpt lat="43.485244808893356" lon="-3.792144240271506"><ele>43.0</ele><time>2026-05-01T10:10:12Z</time></trkpt><trkpt lat="43.48519618559095" lon="-3.792263720054259"><ele>43.0</ele><time>2026-05-01T10:10:14Z</time></trkpt><trkpt lat="43.48515363329315" lon="-3.7923791425437363"><ele>43.0</ele><time>2026-05-01T10:10:16Z</time></trkpt><trkpt lat="43.48510858459825" lon="-3.7924752729538374"><ele>43.0</ele><time>2026-05-01T10:10:18Z</time></trkpt><trkpt lat="43.48506869944846" lon="-3.7925621326814873"><ele>43.0</ele><time>2026-05-01T10:10:20Z</time></trkpt><trkpt lat="43.485019490906026" lon="-3.7926458609621596"><ele>43.0</ele><time>2026-05-01T10:10:22Z</time></trkpt><trkpt lat="43.48495613353779" lon="-3.792709865220603"><ele>43.0</ele><time>2026-05-01T10:10:24Z</time></trkpt><trkpt lat="43.4848798361139" lon="-3.792738063814457"><ele>43.0</ele><time>2026-05-01T10:10:26Z</time></trkpt><trkpt lat="43.48480181860698" lon="-3.7927383982013607"><ele>43.0</ele><time>2026-05-01T10:10:28Z</time></trkpt><trkpt lat="43.484734677532614" lon="-3.7927400965252973"><ele>43.0</ele><time>2026-05-01T10:10:31Z</time></trkpt><trkpt lat="43.484799444947214" lon="-3.792718201236465"><ele>43.0</ele><time>2026-05-01T10:11:37Z</time></trkpt><trkpt lat="43.48489245350075" lon="-3.7927306141822292"><ele>43.0</ele><time>2026-05-01T10:11:39Z</time></trkpt><trkpt lat="43.484991129530144" lon="-3.79272207487915"><ele>43.0</ele><time>2026-05-01T10:11:41Z</time></trkpt><trkpt lat="43.48505437510245" lon="-3.7926712597346595"><ele>42.8</ele><time>2026-05-01T10:11:42Z</time></trkpt><trkpt lat="43.48511382409047" lon="-3.792576096682185"><ele>42.599999999999994</ele><time>2026-05-01T10:11:43Z</time></trkpt><trkpt lat="43.48513587189538" lon="-3.7924224022301987"><ele>42.400000000000006</ele><time>2026-05-01T10:11:44Z</time></trkpt><trkpt lat="43.48516870913381" lon="-3.7923438816049693"><ele>42.2</ele><time>2026-05-01T10:11:45Z</time></trkpt><trkpt lat="43.48519913299802" lon="-3.792259594460714"><ele>42.0</ele><time>2026-05-01T10:11:46Z</time></trkpt><trkpt lat="43.48525980812153" lon="-3.79212816381298"><ele>42.0</ele><time>2026-05-01T10:11:47Z</time></trkpt><trkpt lat="43.485260578990996" lon="-3.7920102726442524"><ele>42.0</ele><time>2026-05-01T10:11:48Z</time></trkpt><trkpt lat="43.48529572047201" lon="-3.7919269924974848"><ele>42.0</ele><time>2026-05-01T10:11:49Z</time></trkpt><trkpt lat="43.48532957383608" lon="-3.7918376256085056"><ele>42.0</ele><time>2026-05-01T10:11:50Z</time></trkpt><trkpt lat="43.485361823879295" lon="-3.7917540794512132"><ele>42.0</ele><time>2026-05-01T10:11:51Z</time></trkpt><trkpt lat="43.485392199521144" lon="-3.7916753329248833"><ele>42.0</ele><time>2026-05-01T10:11:52Z</time></trkpt><trkpt lat="43.48545007968887" lon="-3.791522745166289"><ele>44.2</ele><time>2026-05-01T10:11:54Z</time></trkpt><trkpt lat="43.48550770838996" lon="-3.791394124125217"><ele>46.400000000000006</ele><time>2026-05-01T10:11:56Z</time></trkpt><trkpt lat="43.48555827453575" lon="-3.791281151755997"><ele>48.599999999999994</ele><time>2026-05-01T10:11:58Z</time></trkpt><trkpt lat="43.48554410970613" lon="-3.791382434131639"><ele>50.8</ele><time>2026-05-01T10:12:25Z</time></trkpt><trkpt lat="43.48551201749636" lon="-3.7914790114934984"><ele>53.0</ele><time>2026-05-01T10:12:27Z</time></trkpt><trkpt lat="43.48547024015121" lon="-3.791599402366855"><ele>51.0</ele><time>2026-05-01T10:12:29Z</time></trkpt><trkpt lat="43.48541911089557" lon="-3.7917254961269924"><ele>49.0</ele><time>2026-05-01T10:12:31Z</time></trkpt><trkpt lat="43.48536710312856" lon="-3.7918701305472013"><ele>47.0</ele><time>2026-05-01T10:12:33Z</time></trkpt><trkpt lat="43.48530141343637" lon="-3.7920211522550797"><ele>45.0</ele><time>2026-05-01T10:12:35Z</time></trkpt><trkpt lat="43.485269052924835" lon="-3.7920993699266115"><ele>43.0</ele><time>2026-05-01T10:12:36Z</time></trkpt><trkpt lat="43.48520177183738" lon="-3.7922410036306347"><ele>43.0</ele><time>2026-05-01T10:12:38Z</time></trkpt><trkpt lat="43.485141918857025" lon="-3.792383849355286"><ele>43.0</ele><time>2026-05-01T10:12:40Z</time></trkpt><trkpt lat="43.485083353195755" lon="-3.792512276203181"><ele>43.0</ele><time>2026-05-01T10:12:42Z</time></trkpt><trkpt lat="43.485025115913906" lon="-3.7926333077824386"><ele>43.0</ele><time>2026-05-01T10:12:44Z</time></trkpt><trkpt lat="43.484945786460834" lon="-3.792715455100592"><ele>43.0</ele><time>2026-05-01T10:12:46Z</time></trkpt><trkpt lat="43.48487146893312" lon="-3.792742790603407"><ele>43.0</ele><time>2026-05-01T10:12:48Z</time></trkpt><trkpt lat="43.48478740758579" lon="-3.7927276585492065"><ele>43.0</ele><time>2026-05-01T10:12:50Z</time></trkpt><trkpt lat="43.484696406905876" lon="-3.7926641562579553"><ele>43.0</ele><time>2026-05-01T10:12:52Z</time></trkpt><trkpt lat="43.484583388052215" lon="-3.79251209525847"><ele>43.0</ele><time>2026-05-01T10:12:54Z</time></trkpt><trkpt lat="43.48454258508087" lon="-3.792437369755276"><ele>43.0</ele><time>2026-05-01T10:12:55Z</time></trkpt><trkpt lat="43.484496587946595" lon="-3.7923560796020594"><ele>42.66666666666667</ele><time>2026-05-01T10:12:56Z</time></trkpt><trkpt lat="43.48445263205863" lon="-3.792266218405583"><ele>42.333333333333336</ele><time>2026-05-01T10:12:57Z</time></trkpt><trkpt lat="43.48440975274145" lon="-3.792178149180395"><ele>42.0</ele><time>2026-05-01T10:12:58Z</time></trkpt><trkpt lat="43.48436077363019" lon="-3.7920857122064175"><ele>41.666666666666664</ele><time>2026-05-01T10:12:59Z</time></trkpt><trkpt lat="43.48431507977027" lon="-3.791985186754328"><ele>41.33333333333333</ele><time>2026-05-01T10:13:00Z</time></trkpt><trkpt lat="43.48426507150482" lon="-3.7918877802464"><ele>41.0</ele><time>2026-05-01T10:13:01Z</time></trkpt><trkpt lat="43.484214689091544" lon="-3.791793155900447"><ele>40.166666666666664</ele><time>2026-05-01T10:13:02Z</time></trkpt><trkpt lat="43.484167209542896" lon="-3.7917004299951453"><ele>39.33333333333333</ele><time>2026-05-01T10:13:03Z</time></trkpt><trkpt lat="43.48412159440787" lon="-3.7916045326023617"><ele>38.5</ele><time>2026-05-01T10:13:04.001Z</time></trkpt><trkpt lat="43.48408025306156" lon="-3.7915082289732327"><ele>37.666666666666664</ele><time>2026-05-01T10:13:05.001Z</time></trkpt><trkpt lat="43.484035969982536" lon="-3.791411727587479"><ele>36.833333333333336</ele><time>2026-05-01T10:13:06.001Z</time></trkpt><trkpt lat="43.48398548350497" lon="-3.791314613083527"><ele>36.0</ele><time>2026-05-01T10:13:07.001Z</time></trkpt><trkpt lat="43.48393666061864" lon="-3.791215603542807"><ele>36.0</ele><time>2026-05-01T10:13:08.001Z</time></trkpt><trkpt lat="43.4838917678108" lon="-3.7911181077320664"><ele>36.0</ele><time>2026-05-01T10:13:09.001Z</time></trkpt><trkpt lat="43.483852703148116" lon="-3.7910207012047032"><ele>36.0</ele><time>2026-05-01T10:13:10.001Z</time></trkpt><trkpt lat="43.48383335923305" lon="-3.7909129568377264"><ele>36.0</ele><time>2026-05-01T10:13:11.001Z</time></trkpt><trkpt lat="43.483828659283326" lon="-3.7908081404890615"><ele>36.0</ele><time>2026-05-01T10:13:12.001Z</time></trkpt><trkpt lat="43.48382753632284" lon="-3.7907029327113806"><ele>36.0</ele><time>2026-05-01T10:13:13.001Z</time></trkpt><trkpt lat="43.48383161400864" lon="-3.7905940990086795"><ele>36.166666666666664</ele><time>2026-05-01T10:13:14.001Z</time></trkpt><trkpt lat="43.48384034841395" lon="-3.790492154137666"><ele>36.333333333333336</ele><time>2026-05-01T10:13:15.001Z</time></trkpt><trkpt lat="43.483847945066195" lon="-3.7903848752873013"><ele>36.5</ele><time>2026-05-01T10:13:16.001Z</time></trkpt><trkpt lat="43.48385401903269" lon="-3.790280339375759"><ele>36.66666666666667</ele><time>2026-05-01T10:13:17.001Z</time></trkpt><trkpt lat="43.483855578880025" lon="-3.79017218897998"><ele>36.833333333333336</ele><time>2026-05-01T10:13:18.001Z</time></trkpt><trkpt lat="43.483857904003344" lon="-3.7900642566042206"><ele>37.0</ele><time>2026-05-01T10:13:19Z</time></trkpt><trkpt lat="43.48385774070854" lon="-3.7899548499282085"><ele>37.0</ele><time>2026-05-01T10:13:20Z</time></trkpt><trkpt lat="43.48385106621646" lon="-3.78984524742257"><ele>37.0</ele><time>2026-05-01T10:13:21Z</time></trkpt><trkpt lat="43.48383817729933" lon="-3.7897361833842824"><ele>37.0</ele><time>2026-05-01T10:13:22Z</time></trkpt><trkpt lat="43.48382351850735" lon="-3.7896259629306344"><ele>37.0</ele><time>2026-05-01T10:13:23Z</time></trkpt><trkpt lat="43.4838016348819" lon="-3.7895159927390503"><ele>37.0</ele><time>2026-05-01T10:13:24Z</time></trkpt><trkpt lat="43.48377406321561" lon="-3.7894104167172316"><ele>37.0</ele><time>2026-05-01T10:13:25Z</time></trkpt><trkpt lat="43.483748363830976" lon="-3.7893046414817193"><ele>37.833333333333336</ele><time>2026-05-01T10:13:26Z</time></trkpt><trkpt lat="43.48373099838492" lon="-3.7892015856059498"><ele>38.66666666666667</ele><time>2026-05-01T10:13:27Z</time></trkpt><trkpt lat="43.483713481985475" lon="-3.789097230392741"><ele>39.5</ele><time>2026-05-01T10:13:28Z</time></trkpt><trkpt lat="43.48370269265439" lon="-3.78897995070531"><ele>40.333333333333336</ele><time>2026-05-01T10:13:29Z</time></trkpt><trkpt lat="43.483700694412896" lon="-3.7888647325551856"><ele>41.166666666666664</ele><time>2026-05-01T10:13:30Z</time></trkpt><trkpt lat="43.48369287071667" lon="-3.788748820135867"><ele>42.0</ele><time>2026-05-01T10:13:31Z</time></trkpt><trkpt lat="43.483676915921286" lon="-3.78863330486248"><ele>42.0</ele><time>2026-05-01T10:13:32Z</time></trkpt><trkpt lat="43.48365549374934" lon="-3.7885223025736043"><ele>42.0</ele><time>2026-05-01T10:13:33Z</time></trkpt><trkpt lat="43.4836344334236" lon="-3.788409195119149"><ele>42.0</ele><time>2026-05-01T10:13:34Z</time></trkpt><trkpt lat="43.48361058094812" lon="-3.788299939659371"><ele>42.0</ele><time>2026-05-01T10:13:35Z</time></trkpt><trkpt lat="43.48358608498615" lon="-3.7881868064514523"><ele>42.0</ele><time>2026-05-01T10:13:36Z</time></trkpt><trkpt lat="43.48354742862781" lon="-3.7880782711415417"><ele>42.0</ele><time>2026-05-01T10:13:37Z</time></trkpt><trkpt lat="43.48351232317574" lon="-3.7879771338649713"><ele>41.166666666666664</ele><time>2026-05-01T10:13:38Z</time></trkpt><trkpt lat="43.48345724923282" lon="-3.787888461739369"><ele>40.333333333333336</ele><time>2026-05-01T10:13:39Z</time></trkpt><trkpt lat="43.48339286952468" lon="-3.787817954400443"><ele>39.5</ele><time>2026-05-01T10:13:40Z</time></trkpt><trkpt lat="43.48331977324385" lon="-3.7877654814767916"><ele>38.66666666666667</ele><time>2026-05-01T10:13:41Z</time></trkpt><trkpt lat="43.48323361669158" lon="-3.787738436601271"><ele>37.833333333333336</ele><time>2026-05-01T10:13:42Z</time></trkpt><trkpt lat="43.483145811278014" lon="-3.7877234027261344"><ele>37.0</ele><time>2026-05-01T10:13:43Z</time></trkpt><trkpt lat="43.48305011258083" lon="-3.7877008283050437"><ele>37.0</ele><time>2026-05-01T10:13:44Z</time></trkpt><trkpt lat="43.482955908096045" lon="-3.787686849987457"><ele>37.0</ele><time>2026-05-01T10:13:45Z</time></trkpt><trkpt lat="43.48286169034709" lon="-3.7876658190590273"><ele>37.0</ele><time>2026-05-01T10:13:46Z</time></trkpt><trkpt lat="43.48277059002741" lon="-3.7876580477886668"><ele>37.0</ele><time>2026-05-01T10:13:47Z</time></trkpt><trkpt lat="43.48267708968812" lon="-3.7876615177227597"><ele>37.0</ele><time>2026-05-01T10:13:48Z</time></trkpt><trkpt lat="43.48258638897494" lon="-3.7876739117904146"><ele>36.0</ele><time>2026-05-01T10:13:49Z</time></trkpt><trkpt lat="43.48249423629461" lon="-3.787689885447295"><ele>35.0</ele><time>2026-05-01T10:13:50Z</time></trkpt><trkpt lat="43.48240658654925" lon="-3.7877160066366122"><ele>34.0</ele><time>2026-05-01T10:13:51Z</time></trkpt><trkpt lat="43.48232639562008" lon="-3.7877453687129656"><ele>33.0</ele><time>2026-05-01T10:13:52Z</time></trkpt><trkpt lat="43.48224377466878" lon="-3.787775551790705"><ele>32.0</ele><time>2026-05-01T10:13:53Z</time></trkpt><trkpt lat="43.482158053454306" lon="-3.787809385414899"><ele>31.0</ele><time>2026-05-01T10:13:54Z</time></trkpt><trkpt lat="43.48207591792472" lon="-3.787853587287439"><ele>29.166666666666668</ele><time>2026-05-01T10:13:55Z</time></trkpt><trkpt lat="43.48199626316874" lon="-3.7879054360122923"><ele>27.333333333333336</ele><time>2026-05-01T10:13:56Z</time></trkpt><trkpt lat="43.4819294344419" lon="-3.7879838405837893"><ele>25.5</ele><time>2026-05-01T10:13:57Z</time></trkpt><trkpt lat="43.48187772611698" lon="-3.7880748797395096"><ele>23.666666666666668</ele><time>2026-05-01T10:13:58Z</time></trkpt><trkpt lat="43.48183640095331" lon="-3.7881762617137724"><ele>21.833333333333336</ele><time>2026-05-01T10:13:59Z</time></trkpt><trkpt lat="43.481796684193334" lon="-3.7882737499976944"><ele>20.0</ele><time>2026-05-01T10:14:00Z</time></trkpt><trkpt lat="43.481761746401624" lon="-3.788374986313351"><ele>20.0</ele><time>2026-05-01T10:14:01Z</time></trkpt><trkpt lat="43.48173027884832" lon="-3.788479115171952"><ele>20.0</ele><time>2026-05-01T10:14:02Z</time></trkpt><trkpt lat="43.48169500256302" lon="-3.7885794757062725"><ele>20.0</ele><time>2026-05-01T10:14:03Z</time></trkpt><trkpt lat="43.48164980899118" lon="-3.7886693507814213"><ele>20.0</ele><time>2026-05-01T10:14:04Z</time></trkpt><trkpt lat="43.481597617888006" lon="-3.788745893533841"><ele>20.0</ele><time>2026-05-01T10:14:05Z</time></trkpt><trkpt lat="43.48154199528072" lon="-3.7888182999769384"><ele>20.0</ele><time>2026-05-01T10:14:06Z</time></trkpt><trkpt lat="43.481480141836315" lon="-3.7888802275718456"><ele>20.166666666666668</ele><time>2026-05-01T10:14:07Z</time></trkpt><trkpt lat="43.48140998348342" lon="-3.788940837396508"><ele>20.333333333333336</ele><time>2026-05-01T10:14:08Z</time></trkpt><trkpt lat="43.481338756515306" lon="-3.789005477964354"><ele>20.5</ele><time>2026-05-01T10:14:09Z</time></trkpt><trkpt lat="43.481263477777574" lon="-3.78906897923801"><ele>20.666666666666668</ele><time>2026-05-01T10:14:10Z</time></trkpt><trkpt lat="43.48118549105035" lon="-3.789133814353232"><ele>20.833333333333332</ele><time>2026-05-01T10:14:11Z</time></trkpt><trkpt lat="43.481110792377315" lon="-3.789206618179485"><ele>21.0</ele><time>2026-05-01T10:14:12Z</time></trkpt><trkpt lat="43.48103150499651" lon="-3.78928275711318"><ele>22.200000000000003</ele><time>2026-05-01T10:14:13Z</time></trkpt><trkpt lat="43.48095412971736" lon="-3.7893682941894578"><ele>23.400000000000002</ele><time>2026-05-01T10:14:14Z</time></trkpt><trkpt lat="43.48087566653504" lon="-3.789448183289521"><ele>24.6</ele><time>2026-05-01T10:14:15Z</time></trkpt><trkpt lat="43.48079746264321" lon="-3.7895276877887434"><ele>25.8</ele><time>2026-05-01T10:14:16Z</time></trkpt><trkpt lat="43.4807244798749" lon="-3.7896149813367557"><ele>27.0</ele><time>2026-05-01T10:14:17Z</time></trkpt><trkpt lat="43.48065394940485" lon="-3.7897066289222177"><ele>27.0</ele><time>2026-05-01T10:14:18Z</time></trkpt><trkpt lat="43.480590059734" lon="-3.7897974080959504"><ele>27.0</ele><time>2026-05-01T10:14:19Z</time></trkpt><trkpt lat="43.48052951940832" lon="-3.789876936560171"><ele>27.0</ele><time>2026-05-01T10:14:20Z</time></trkpt><trkpt lat="43.480484497746026" lon="-3.7899787648370324"><ele>27.0</ele><time>2026-05-01T10:14:21Z</time></trkpt><trkpt lat="43.48042988788954" lon="-3.790070918429722"><ele>27.0</ele><time>2026-05-01T10:14:22Z</time></trkpt><trkpt lat="43.48037736152833" lon="-3.790163165158596"><ele>27.0</ele><time>2026-05-01T10:14:23Z</time></trkpt><trkpt lat="43.48032609819856" lon="-3.790255400137173"><ele>25.333333333333332</ele><time>2026-05-01T10:14:24Z</time></trkpt><trkpt lat="43.48027349505186" lon="-3.790349369833676"><ele>23.666666666666668</ele><time>2026-05-01T10:14:25Z</time></trkpt><trkpt lat="43.48022242073245" lon="-3.790440090886846"><ele>22.0</ele><time>2026-05-01T10:14:26Z</time></trkpt><trkpt lat="43.48015828641633" lon="-3.79051690419016"><ele>20.333333333333336</ele><time>2026-05-01T10:14:27Z</time></trkpt><trkpt lat="43.48012169564085" lon="-3.7906190044110053"><ele>18.666666666666668</ele><time>2026-05-01T10:14:28Z</time></trkpt><trkpt lat="43.48006793473746" lon="-3.7907116220369796"><ele>17.0</ele><time>2026-05-01T10:14:29Z</time></trkpt><trkpt lat="43.480012253115156" lon="-3.7908023983242223"><ele>17.0</ele><time>2026-05-01T10:14:30Z</time></trkpt><trkpt lat="43.47995246133283" lon="-3.7908933677783385"><ele>17.0</ele><time>2026-05-01T10:14:31Z</time></trkpt><trkpt lat="43.47989419877763" lon="-3.790982238160724"><ele>17.0</ele><time>2026-05-01T10:14:32Z</time></trkpt><trkpt lat="43.47983323333313" lon="-3.7910679828503375"><ele>17.0</ele><time>2026-05-01T10:14:33Z</time></trkpt><trkpt lat="43.479771381968284" lon="-3.7911498776036225"><ele>17.0</ele><time>2026-05-01T10:14:34Z</time></trkpt><trkpt lat="43.479709817842156" lon="-3.7912289725991033"><ele>17.0</ele><time>2026-05-01T10:14:35Z</time></trkpt><trkpt lat="43.479638572656484" lon="-3.7912890270028967"><ele>16.166666666666668</ele><time>2026-05-01T10:14:36Z</time></trkpt><trkpt lat="43.47957153914784" lon="-3.791349879404895"><ele>15.333333333333334</ele><time>2026-05-01T10:14:37Z</time></trkpt><trkpt lat="43.47951566863838" lon="-3.7914206396824945"><ele>14.5</ele><time>2026-05-01T10:14:38Z</time></trkpt><trkpt lat="43.47946621705866" lon="-3.7914994398957536"><ele>13.666666666666668</ele><time>2026-05-01T10:14:39Z</time></trkpt><trkpt lat="43.47941603791609" lon="-3.791587142229198"><ele>12.833333333333334</ele><time>2026-05-01T10:14:40Z</time></trkpt><trkpt lat="43.47936659363068" lon="-3.7916813842322847"><ele>12.0</ele><time>2026-05-01T10:14:41Z</time></trkpt><trkpt lat="43.47929704101618" lon="-3.791749222369714"><ele>12.0</ele><time>2026-05-01T10:14:42Z</time></trkpt><trkpt lat="43.47922719282321" lon="-3.791826801033861"><ele>12.0</ele><time>2026-05-01T10:14:43Z</time></trkpt><trkpt lat="43.47922772237094" lon="-3.7920079338692"><ele>12.0</ele><time>2026-05-01T10:14:44Z</time></trkpt><trkpt lat="43.479236463832315" lon="-3.792144128661985"><ele>12.0</ele><time>2026-05-01T10:14:45Z</time></trkpt><trkpt lat="43.47921194745965" lon="-3.7922717785062097"><ele>12.0</ele><time>2026-05-01T10:14:46Z</time></trkpt><trkpt lat="43.479203151190376" lon="-3.792398966781557"><ele>13.8</ele><time>2026-05-01T10:14:47Z</time></trkpt><trkpt lat="43.479189212919735" lon="-3.7925284526544565"><ele>15.6</ele><time>2026-05-01T10:14:48Z</time></trkpt><trkpt lat="43.479170565357045" lon="-3.7926528272812394"><ele>17.400000000000002</ele><time>2026-05-01T10:14:49Z</time></trkpt><trkpt lat="43.4791479042983" lon="-3.7927746084951135"><ele>19.2</ele><time>2026-05-01T10:14:50Z</time></trkpt><trkpt lat="43.47912640238346" lon="-3.792898398529855"><ele>21.0</ele><time>2026-05-01T10:14:51Z</time></trkpt><trkpt lat="43.47910671637242" lon="-3.79302654121301"><ele>21.333333333333332</ele><time>2026-05-01T10:14:52Z</time></trkpt><trkpt lat="43.479080704876836" lon="-3.7931408682052745"><ele>21.666666666666668</ele><time>2026-05-01T10:14:53Z</time></trkpt><trkpt lat="43.47905488411392" lon="-3.793257080474992"><ele>22.0</ele><time>2026-05-01T10:14:54Z</time></trkpt><trkpt lat="43.479033004722936" lon="-3.793368973177089"><ele>22.333333333333336</ele><time>2026-05-01T10:14:55Z</time></trkpt><trkpt lat="43.47901035036851" lon="-3.7934705389344408"><ele>22.666666666666668</ele><time>2026-05-01T10:14:56Z</time></trkpt><trkpt lat="43.4790262064846" lon="-3.7935810307805613"><ele>23.0</ele><time>2026-05-01T10:14:57Z</time></trkpt><trkpt lat="43.478988827074616" lon="-3.793672969509407"><ele>23.666666666666668</ele><time>2026-05-01T10:14:58Z</time></trkpt><trkpt lat="43.47894962472098" lon="-3.793751048319841"><ele>24.333333333333336</ele><time>2026-05-01T10:14:59Z</time></trkpt><trkpt lat="43.478931292580484" lon="-3.7938389884623063"><ele>25.0</ele><time>2026-05-01T10:15:00Z</time></trkpt><trkpt lat="43.478856399988416" lon="-3.793952686776978"><ele>25.666666666666668</ele><time>2026-05-01T10:15:02Z</time></trkpt><trkpt lat="43.47879322231776" lon="-3.793968720945582"><ele>26.333333333333332</ele><time>2026-05-01T10:15:03Z</time></trkpt><trkpt lat="43.47872381075541" lon="-3.793974061026016"><ele>27.0</ele><time>2026-05-01T10:15:04Z</time></trkpt><trkpt lat="43.478656087847455" lon="-3.793998757381049"><ele>26.166666666666668</ele><time>2026-05-01T10:15:05Z</time></trkpt><trkpt lat="43.47861118118733" lon="-3.794069588411399"><ele>25.333333333333332</ele><time>2026-05-01T10:15:06Z</time></trkpt><trkpt lat="43.47855033716934" lon="-3.794138115258895"><ele>24.5</ele><time>2026-05-01T10:15:07Z</time></trkpt><trkpt lat="43.478491968987306" lon="-3.7942113261243824"><ele>23.666666666666664</ele><time>2026-05-01T10:15:08Z</time></trkpt><trkpt lat="43.47843151384366" lon="-3.7942947763757564"><ele>22.833333333333332</ele><time>2026-05-01T10:15:09Z</time></trkpt><trkpt lat="43.478357591884496" lon="-3.794366492541034"><ele>22.0</ele><time>2026-05-01T10:15:10.001Z</time></trkpt><trkpt lat="43.4782980733696" lon="-3.7944644105478953"><ele>22.0</ele><time>2026-05-01T10:15:11.001Z</time></trkpt><trkpt lat="43.47823375480026" lon="-3.7945606569159045"><ele>22.0</ele><time>2026-05-01T10:15:12.001Z</time></trkpt><trkpt lat="43.47816642249386" lon="-3.794654351616301"><ele>22.0</ele><time>2026-05-01T10:15:13.001Z</time></trkpt><trkpt lat="43.47809164113936" lon="-3.7947391238053463"><ele>22.0</ele><time>2026-05-01T10:15:14.001Z</time></trkpt><trkpt lat="43.47801366905061" lon="-3.7948202492635903"><ele>22.0</ele><time>2026-05-01T10:15:15.001Z</time></trkpt><trkpt lat="43.477925640308015" lon="-3.794891387483358"><ele>21.0</ele><time>2026-05-01T10:15:16.001Z</time></trkpt><trkpt lat="43.47784059707481" lon="-3.7949575737463292"><ele>20.0</ele><time>2026-05-01T10:15:17.001Z</time></trkpt><trkpt lat="43.477761933933735" lon="-3.7950381535719777"><ele>19.0</ele><time>2026-05-01T10:15:18.001Z</time></trkpt><trkpt lat="43.47767347040729" lon="-3.795092037493013"><ele>18.0</ele><time>2026-05-01T10:15:19.001Z</time></trkpt><trkpt lat="43.47758225361649" lon="-3.795120313175504"><ele>17.0</ele><time>2026-05-01T10:15:20.001Z</time></trkpt><trkpt lat="43.47750038990389" lon="-3.795168468083656"><ele>18.0</ele><time>2026-05-01T10:15:21.001Z</time></trkpt><trkpt lat="43.47742244469336" lon="-3.7952214154679655"><ele>19.0</ele><time>2026-05-01T10:15:22.001Z</time></trkpt><trkpt lat="43.477348742814144" lon="-3.795286717681259"><ele>20.0</ele><time>2026-05-01T10:15:23.001Z</time></trkpt><trkpt lat="43.47728593328416" lon="-3.795376933952246"><ele>21.0</ele><time>2026-05-01T10:15:24.001Z</time></trkpt><trkpt lat="43.47723511371694" lon="-3.7954768143456046"><ele>22.0</ele><time>2026-05-01T10:15:24.999Z</time></trkpt><trkpt lat="43.47718720086728" lon="-3.795580900529529"><ele>23.0</ele><time>2026-05-01T10:15:25.999Z</time></trkpt><trkpt lat="43.47713692340659" lon="-3.7956877389082324"><ele>20.666666666666668</ele><time>2026-05-01T10:15:26.999Z</time></trkpt><trkpt lat="43.477075455535065" lon="-3.795779713841549"><ele>18.333333333333336</ele><time>2026-05-01T10:15:27.999Z</time></trkpt><trkpt lat="43.4770026871614" lon="-3.7958539659134307"><ele>16.0</ele><time>2026-05-01T10:15:28.999Z</time></trkpt><trkpt lat="43.476921166006484" lon="-3.795906152482786"><ele>13.666666666666668</ele><time>2026-05-01T10:15:29.999Z</time></trkpt><trkpt lat="43.47683242322188" lon="-3.795929645021078"><ele>11.333333333333334</ele><time>2026-05-01T10:15:30.999Z</time></trkpt><trkpt lat="43.47674525265258" lon="-3.7959240405135906"><ele>9.0</ele><time>2026-05-01T10:15:31.999Z</time></trkpt><trkpt lat="43.47666120666682" lon="-3.795887791326009"><ele>9.0</ele><time>2026-05-01T10:15:32.999Z</time></trkpt><trkpt lat="43.476586749633306" lon="-3.7958261625381127"><ele>9.0</ele><time>2026-05-01T10:15:33.999Z</time></trkpt><trkpt lat="43.476515621471286" lon="-3.795748561881299"><ele>9.0</ele><time>2026-05-01T10:15:34.999Z</time></trkpt><trkpt lat="43.47645288129765" lon="-3.7956586961913894"><ele>9.0</ele><time>2026-05-01T10:15:35.999Z</time></trkpt><trkpt lat="43.4763965575608" lon="-3.7955626692020057"><ele>9.0</ele><time>2026-05-01T10:15:36.999Z</time></trkpt><trkpt lat="43.476339855600024" lon="-3.7954595122791304"><ele>9.0</ele><time>2026-05-01T10:15:37.999Z</time></trkpt><trkpt lat="43.47628118682992" lon="-3.7953563768834"><ele>9.0</ele><time>2026-05-01T10:15:38.999Z</time></trkpt><trkpt lat="43.47621822949043" lon="-3.7952640808656617"><ele>9.0</ele><time>2026-05-01T10:15:39.999Z</time></trkpt><trkpt lat="43.47614670762468" lon="-3.795183592624269"><ele>9.0</ele><time>2026-05-01T10:15:40.999Z</time></trkpt><trkpt lat="43.4760703251914" lon="-3.7951146788763137"><ele>9.0</ele><time>2026-05-01T10:15:41.999Z</time></trkpt><trkpt lat="43.47599041122412" lon="-3.7950567961633865"><ele>9.0</ele><time>2026-05-01T10:15:42.999Z</time></trkpt><trkpt lat="43.475908245884014" lon="-3.795004614248091"><ele>9.0</ele><time>2026-05-01T10:15:43.999Z</time></trkpt><trkpt lat="43.47582543360405" lon="-3.7949593349894086"><ele>9.0</ele><time>2026-05-01T10:15:45Z</time></trkpt><trkpt lat="43.47574301739174" lon="-3.794912716259611"><ele>9.0</ele><time>2026-05-01T10:15:46Z</time></trkpt><trkpt lat="43.47566157101611" lon="-3.7948638100265026"><ele>9.0</ele><time>2026-05-01T10:15:47Z</time></trkpt><trkpt lat="43.47558103016861" lon="-3.7948176401438127"><ele>9.0</ele><time>2026-05-01T10:15:48Z</time></trkpt><trkpt lat="43.47549887622743" lon="-3.7947735742523716"><ele>9.333333333333334</ele><time>2026-05-01T10:15:49Z</time></trkpt><trkpt lat="43.475417166009464" lon="-3.794726366358454"><ele>9.666666666666666</ele><time>2026-05-01T10:15:50Z</time></trkpt><trkpt lat="43.47533772274746" lon="-3.7946853093750392"><ele>10.0</ele><time>2026-05-01T10:15:51Z</time></trkpt><trkpt lat="43.47526236780356" lon="-3.7946538437930366"><ele>10.333333333333332</ele><time>2026-05-01T10:15:52Z</time></trkpt><trkpt lat="43.47519349266531" lon="-3.7946342805640247"><ele>10.666666666666666</ele><time>2026-05-01T10:15:53Z</time></trkpt><trkpt lat="43.475124704833604" lon="-3.794624956999826"><ele>11.0</ele><time>2026-05-01T10:15:54Z</time></trkpt><trkpt lat="43.47506025919373" lon="-3.7946246046286802"><ele>11.0</ele><time>2026-05-01T10:15:55Z</time></trkpt><trkpt lat="43.47499211920413" lon="-3.794622998362091"><ele>11.0</ele><time>2026-05-01T10:15:56Z</time></trkpt><trkpt lat="43.47492444879588" lon="-3.794607136738884"><ele>11.0</ele><time>2026-05-01T10:15:57Z</time></trkpt><trkpt lat="43.474867050101125" lon="-3.7945664630898137"><ele>11.0</ele><time>2026-05-01T10:15:58Z</time></trkpt><trkpt lat="43.47479836505311" lon="-3.7944472350070213"><ele>11.0</ele><time>2026-05-01T10:16:00Z</time></trkpt><trkpt lat="43.47474630983194" lon="-3.7943199240505447"><ele>11.0</ele><time>2026-05-01T10:16:02Z</time></trkpt><trkpt lat="43.47464506450663" lon="-3.794231095903555"><ele>12.166666666666666</ele><time>2026-05-01T10:16:04Z</time></trkpt><trkpt lat="43.474581107851414" lon="-3.7941901510115237"><ele>13.333333333333332</ele><time>2026-05-01T10:16:05Z</time></trkpt><trkpt lat="43.47451218937531" lon="-3.794153144772944"><ele>14.5</ele><time>2026-05-01T10:16:06Z</time></trkpt><trkpt lat="43.47444224832584" lon="-3.7941141886168506"><ele>15.666666666666666</ele><time>2026-05-01T10:16:07Z</time></trkpt><trkpt lat="43.474369473229345" lon="-3.7940762196616378"><ele>16.833333333333332</ele><time>2026-05-01T10:16:08Z</time></trkpt><trkpt lat="43.47429658596296" lon="-3.7940366890065778"><ele>18.0</ele><time>2026-05-01T10:16:09Z</time></trkpt><trkpt lat="43.47421975123954" lon="-3.7939939412357564"><ele>18.0</ele><time>2026-05-01T10:16:10Z</time></trkpt><trkpt lat="43.47414447957905" lon="-3.7939550437542593"><ele>18.0</ele><time>2026-05-01T10:16:11Z</time></trkpt><trkpt lat="43.47407011469735" lon="-3.793916285002273"><ele>18.0</ele><time>2026-05-01T10:16:12Z</time></trkpt><trkpt lat="43.473994964650814" lon="-3.79387519378147"><ele>18.0</ele><time>2026-05-01T10:16:13Z</time></trkpt><trkpt lat="43.473918436772934" lon="-3.7938331056097607"><ele>18.0</ele><time>2026-05-01T10:16:14Z</time></trkpt><trkpt lat="43.4738393043218" lon="-3.793789315489233"><ele>18.0</ele><time>2026-05-01T10:16:15Z</time></trkpt><trkpt lat="43.473761070118336" lon="-3.7937475873065423"><ele>18.5</ele><time>2026-05-01T10:16:16Z</time></trkpt><trkpt lat="43.47368296302429" lon="-3.7937020644619364"><ele>19.0</ele><time>2026-05-01T10:16:17Z</time></trkpt><trkpt lat="43.473602036821774" lon="-3.793655719502759"><ele>19.5</ele><time>2026-05-01T10:16:18Z</time></trkpt><trkpt lat="43.47352346624358" lon="-3.7936118156094416"><ele>20.0</ele><time>2026-05-01T10:16:19Z</time></trkpt><trkpt lat="43.473440632739575" lon="-3.7935673761777826"><ele>20.5</ele><time>2026-05-01T10:16:20Z</time></trkpt><trkpt lat="43.47335520038469" lon="-3.79352201899607"><ele>21.0</ele><time>2026-05-01T10:16:21Z</time></trkpt><trkpt lat="43.47327505966523" lon="-3.79347920638049"><ele>21.0</ele><time>2026-05-01T10:16:22Z</time></trkpt><trkpt lat="43.47319542367693" lon="-3.7934382480626683"><ele>21.0</ele><time>2026-05-01T10:16:23Z</time></trkpt><trkpt lat="43.473118643463536" lon="-3.793394954535025"><ele>21.0</ele><time>2026-05-01T10:16:24Z</time></trkpt><trkpt lat="43.47304177013701" lon="-3.7933537138418725"><ele>21.0</ele><time>2026-05-01T10:16:25Z</time></trkpt><trkpt lat="43.47296192823008" lon="-3.793329243857099"><ele>21.0</ele><time>2026-05-01T10:16:26Z</time></trkpt><trkpt lat="43.472879321758654" lon="-3.7933334769383333"><ele>21.0</ele><time>2026-05-01T10:16:27Z</time></trkpt><trkpt lat="43.47279712540856" lon="-3.7933448815437463"><ele>21.166666666666668</ele><time>2026-05-01T10:16:28Z</time></trkpt><trkpt lat="43.4727162989497" lon="-3.7933696705369306"><ele>21.333333333333332</ele><time>2026-05-01T10:16:29Z</time></trkpt><trkpt lat="43.472638609244036" lon="-3.793403940758503"><ele>21.5</ele><time>2026-05-01T10:16:30Z</time></trkpt><trkpt lat="43.47256435726829" lon="-3.7934533127333587"><ele>21.666666666666664</ele><time>2026-05-01T10:16:31Z</time></trkpt><trkpt lat="43.472491462267335" lon="-3.793506093115622"><ele>21.833333333333332</ele><time>2026-05-01T10:16:32Z</time></trkpt><trkpt lat="43.472413821158824" lon="-3.7935466132188047"><ele>22.0</ele><time>2026-05-01T10:16:33Z</time></trkpt><trkpt lat="43.47233190270498" lon="-3.7935549496100403"><ele>22.0</ele><time>2026-05-01T10:16:34Z</time></trkpt><trkpt lat="43.472248981919726" lon="-3.7935187794851353"><ele>22.0</ele><time>2026-05-01T10:16:35Z</time></trkpt><trkpt lat="43.47216846910038" lon="-3.7934698256022585"><ele>22.0</ele><time>2026-05-01T10:16:36Z</time></trkpt><trkpt lat="43.472080888019505" lon="-3.79342962413962"><ele>22.0</ele><time>2026-05-01T10:16:37Z</time></trkpt><trkpt lat="43.471990325188145" lon="-3.793419171584616"><ele>22.0</ele><time>2026-05-01T10:16:38Z</time></trkpt><trkpt lat="43.471900162197414" lon="-3.7934374470317342"><ele>22.0</ele><time>2026-05-01T10:16:39Z</time></trkpt><trkpt lat="43.47181422474231" lon="-3.7934877612119364"><ele>23.0</ele><time>2026-05-01T10:16:40Z</time></trkpt><trkpt lat="43.47172723742582" lon="-3.7935364711492294"><ele>24.0</ele><time>2026-05-01T10:16:41Z</time></trkpt><trkpt lat="43.47164242353037" lon="-3.7935910702936653"><ele>25.000000000000004</ele><time>2026-05-01T10:16:42Z</time></trkpt><trkpt lat="43.47155134393595" lon="-3.7936442288567065"><ele>26.0</ele><time>2026-05-01T10:16:43Z</time></trkpt><trkpt lat="43.47145881454054" lon="-3.793703359097244"><ele>27.0</ele><time>2026-05-01T10:16:44Z</time></trkpt><trkpt lat="43.471365135493556" lon="-3.793770411101392"><ele>27.0</ele><time>2026-05-01T10:16:45Z</time></trkpt><trkpt lat="43.47128804011551" lon="-3.793806013402026"><ele>27.000000000000004</ele><time>2026-05-01T10:16:46Z</time></trkpt><trkpt lat="43.47118983755901" lon="-3.7938098384030448"><ele>27.000000000000004</ele><time>2026-05-01T10:16:48Z</time></trkpt><trkpt lat="43.47110044895233" lon="-3.7938669576531976"><ele>27.0</ele><time>2026-05-01T10:16:49Z</time></trkpt><trkpt lat="43.470992303758784" lon="-3.793908416584369"><ele>27.0</ele><time>2026-05-01T10:16:50Z</time></trkpt><trkpt lat="43.470939107103675" lon="-3.793697644170269"><ele>30.75</ele><time>2026-05-01T10:16:51Z</time></trkpt><trkpt lat="43.470912066516185" lon="-3.793559982538772"><ele>34.5</ele><time>2026-05-01T10:16:52.012Z</time></trkpt><trkpt lat="43.47089616351199" lon="-3.793398825900911"><ele>38.25</ele><time>2026-05-01T10:16:53.014Z</time></trkpt><trkpt lat="43.47088225658193" lon="-3.793216159970245"><ele>42.0</ele><time>2026-05-01T10:16:54.013Z</time></trkpt><trkpt lat="43.47086986296496" lon="-3.7930274202617333"><ele>17.0</ele><time>2026-05-01T10:16:55.015Z</time></trkpt><trkpt lat="43.46502228113581" lon="-3.796675284183077"><ele>17.5</ele><time>2026-05-01T10:17:27.042Z</time></trkpt><trkpt lat="43.46457553014025" lon="-3.796670302438783"><ele>18.0</ele><time>2026-05-01T10:17:28.705Z</time></trkpt><trkpt lat="43.46574958200851" lon="-3.7967250665697434"><ele>17.833333333333332</ele><time>2026-05-01T10:17:38.001Z</time></trkpt><trkpt lat="43.46565450662751" lon="-3.796748529714538"><ele>17.666666666666668</ele><time>2026-05-01T10:17:39.001Z</time></trkpt><trkpt lat="43.46557785790152" lon="-3.796761513249183"><ele>17.5</ele><time>2026-05-01T10:17:40.001Z</time></trkpt><trkpt lat="43.465504725914734" lon="-3.7967838574930157"><ele>17.333333333333336</ele><time>2026-05-01T10:17:41.001Z</time></trkpt><trkpt lat="43.46541039449254" lon="-3.7968163399754182"><ele>17.166666666666668</ele><time>2026-05-01T10:17:42.999Z</time></trkpt><trkpt lat="43.465322984536975" lon="-3.7968866094691407"><ele>17.0</ele><time>2026-05-01T10:17:44.999Z</time></trkpt><trkpt lat="43.46521818418713" lon="-3.796951172102638"><ele>18.333333333333336</ele><time>2026-05-01T10:17:46.999Z</time></trkpt><trkpt lat="43.465134345121044" lon="-3.7969518620733824"><ele>19.666666666666668</ele><time>2026-05-01T10:17:48.999Z</time></trkpt><trkpt lat="43.46505840870292" lon="-3.7969257756955175"><ele>21.0</ele><time>2026-05-01T10:17:56.999Z</time></trkpt><trkpt lat="43.464960325172434" lon="-3.7969102847275384"><ele>22.333333333333336</ele><time>2026-05-01T10:17:58.999Z</time></trkpt><trkpt lat="43.46489978799974" lon="-3.7968860898683614"><ele>23.666666666666668</ele><time>2026-05-01T10:17:59.999Z</time></trkpt><trkpt lat="43.46479857903822" lon="-3.7968604919032516"><ele>25.0</ele><time>2026-05-01T10:18:01.999Z</time></trkpt><trkpt lat="43.464689218544294" lon="-3.79684667597554"><ele>23.833333333333336</ele><time>2026-05-01T10:18:03.999Z</time></trkpt><trkpt lat="43.46456334121073" lon="-3.7968213089798257"><ele>22.666666666666668</ele><time>2026-05-01T10:18:05.999Z</time></trkpt><trkpt lat="43.46449558013322" lon="-3.7968098268848505"><ele>21.5</ele><time>2026-05-01T10:18:06.999Z</time></trkpt><trkpt lat="43.464422915416655" lon="-3.7968051843965793"><ele>20.333333333333336</ele><time>2026-05-01T10:18:07.999Z</time></trkpt><trkpt lat="43.46434161377144" lon="-3.796783422107846"><ele>19.166666666666668</ele><time>2026-05-01T10:18:08.999Z</time></trkpt><trkpt lat="43.46426072598256" lon="-3.7967493995301163"><ele>18.0</ele><time>2026-05-01T10:18:09.999Z</time></trkpt><trkpt lat="43.464175591409465" lon="-3.7967460760305687"><ele>18.0</ele><time>2026-05-01T10:18:11Z</time></trkpt><trkpt lat="43.464095163572416" lon="-3.796730946896233"><ele>18.0</ele><time>2026-05-01T10:18:12Z</time></trkpt><trkpt lat="43.46402130329686" lon="-3.796717052728514"><ele>18.0</ele><time>2026-05-01T10:18:13Z</time></trkpt><trkpt lat="43.4639073958873" lon="-3.7966945449845064"><ele>18.0</ele><time>2026-05-01T10:18:15Z</time></trkpt><trkpt lat="43.46384460127516" lon="-3.7966828628445604"><ele>18.0</ele><time>2026-05-01T10:18:16Z</time></trkpt><trkpt lat="43.46377395001903" lon="-3.796669717273903"><ele>18.0</ele><time>2026-05-01T10:18:17Z</time></trkpt><trkpt lat="43.46368545282371" lon="-3.796653253505216"><ele>16.6</ele><time>2026-05-01T10:18:18Z</time></trkpt><trkpt lat="43.46358959590955" lon="-3.7966367210493703"><ele>15.200000000000001</ele><time>2026-05-01T10:18:19Z</time></trkpt><trkpt lat="43.46348306279294" lon="-3.7966162079161485"><ele>13.8</ele><time>2026-05-01T10:18:20Z</time></trkpt><trkpt lat="43.46339122756716" lon="-3.7966003118584575"><ele>12.4</ele><time>2026-05-01T10:18:21Z</time></trkpt><trkpt lat="43.463304473198725" lon="-3.7965854839861093"><ele>11.0</ele><time>2026-05-01T10:18:22Z</time></trkpt><trkpt lat="43.46321366352785" lon="-3.7965696162776688"><ele>11.0</ele><time>2026-05-01T10:18:23Z</time></trkpt><trkpt lat="43.46313509672449" lon="-3.796553699916236"><ele>11.0</ele><time>2026-05-01T10:18:24Z</time></trkpt><trkpt lat="43.46305525763769" lon="-3.796581510057369"><ele>11.0</ele><time>2026-05-01T10:18:25Z</time></trkpt><trkpt lat="43.46298070889793" lon="-3.7966223379998327"><ele>11.0</ele><time>2026-05-01T10:18:26Z</time></trkpt><trkpt lat="43.4629052878282" lon="-3.7966649366793797"><ele>11.0</ele><time>2026-05-01T10:18:27Z</time></trkpt><trkpt lat="43.4628276492981" lon="-3.7966986816189254"><ele>11.0</ele><time>2026-05-01T10:18:28Z</time></trkpt><trkpt lat="43.46274971990688" lon="-3.796734996487917"><ele>11.166666666666666</ele><time>2026-05-01T10:18:29Z</time></trkpt><trkpt lat="43.46267380738943" lon="-3.7967859521290315"><ele>11.333333333333332</ele><time>2026-05-01T10:18:30Z</time></trkpt><trkpt lat="43.46260582706259" lon="-3.7968540332757357"><ele>11.5</ele><time>2026-05-01T10:18:31Z</time></trkpt><trkpt lat="43.46254684974074" lon="-3.796943702626965"><ele>11.666666666666666</ele><time>2026-05-01T10:18:32Z</time></trkpt><trkpt lat="43.46249773900107" lon="-3.7970360413579662"><ele>11.833333333333334</ele><time>2026-05-01T10:18:33Z</time></trkpt><trkpt lat="43.462455831085855" lon="-3.7971287324014056"><ele>12.0</ele><time>2026-05-01T10:18:34Z</time></trkpt><trkpt lat="43.462425936512254" lon="-3.797226725060495"><ele>12.0</ele><time>2026-05-01T10:18:35Z</time></trkpt><trkpt lat="43.4624046468548" lon="-3.7973190147485254"><ele>12.0</ele><time>2026-05-01T10:18:36Z</time></trkpt><trkpt lat="43.46238579972257" lon="-3.7974787794238507"><ele>12.0</ele><time>2026-05-01T10:18:38Z</time></trkpt><trkpt lat="43.46238740838888" lon="-3.7976089669973083"><ele>12.0</ele><time>2026-05-01T10:18:40Z</time></trkpt><trkpt lat="43.462418886398716" lon="-3.797734763363271"><ele>12.0</ele><time>2026-05-01T10:19:02Z</time></trkpt><trkpt lat="43.46240898961943" lon="-3.7978608847053095"><ele>11.8</ele><time>2026-05-01T10:19:04Z</time></trkpt><trkpt lat="43.46238971662455" lon="-3.798040929717401"><ele>11.6</ele><time>2026-05-01T10:19:06Z</time></trkpt><trkpt lat="43.46237951435704" lon="-3.7981498918711996"><ele>11.4</ele><time>2026-05-01T10:19:07Z</time></trkpt><trkpt lat="43.462366292416334" lon="-3.798258781687538"><ele>11.200000000000001</ele><time>2026-05-01T10:19:08Z</time></trkpt><trkpt lat="43.46235614383914" lon="-3.7983776323966607"><ele>11.0</ele><time>2026-05-01T10:19:09Z</time></trkpt><trkpt lat="43.4623456504193" lon="-3.798485756816349"><ele>11.285714285714286</ele><time>2026-05-01T10:19:10Z</time></trkpt><trkpt lat="43.462336528676786" lon="-3.798586450384584"><ele>11.571428571428571</ele><time>2026-05-01T10:19:11Z</time></trkpt><trkpt lat="43.4623271328074" lon="-3.7986803448877318"><ele>11.857142857142858</ele><time>2026-05-01T10:19:12Z</time></trkpt><trkpt lat="43.46231714614294" lon="-3.7987728005807164"><ele>12.142857142857142</ele><time>2026-05-01T10:19:13Z</time></trkpt><trkpt lat="43.46230779987059" lon="-3.7988614449047455"><ele>12.428571428571429</ele><time>2026-05-01T10:19:14Z</time></trkpt><trkpt lat="43.462299676051174" lon="-3.7989561636784415"><ele>12.714285714285714</ele><time>2026-05-01T10:19:15Z</time></trkpt><trkpt lat="43.462290158056135" lon="-3.799057653542666"><ele>13.0</ele><time>2026-05-01T10:19:16Z</time></trkpt><trkpt lat="43.46227847140821" lon="-3.799167527066248"><ele>12.999999999999998</ele><time>2026-05-01T10:19:17Z</time></trkpt><trkpt lat="43.462265799424216" lon="-3.7992810702782682"><ele>13.0</ele><time>2026-05-01T10:19:18Z</time></trkpt><trkpt lat="43.462253128860574" lon="-3.799404074204781"><ele>13.0</ele><time>2026-05-01T10:19:19.001Z</time></trkpt><trkpt lat="43.46224001951292" lon="-3.7995219275949332"><ele>13.0</ele><time>2026-05-01T10:19:20.001Z</time></trkpt><trkpt lat="43.46222951179243" lon="-3.799651476248319"><ele>12.999999999999998</ele><time>2026-05-01T10:19:21.001Z</time></trkpt><trkpt lat="43.46221722994379" lon="-3.7997720014008864"><ele>13.0</ele><time>2026-05-01T10:19:22.001Z</time></trkpt><trkpt lat="43.46220788921534" lon="-3.799892212548861"><ele>12.833333333333332</ele><time>2026-05-01T10:19:23.001Z</time></trkpt><trkpt lat="43.462196845455914" lon="-3.8000024655975393"><ele>12.666666666666666</ele><time>2026-05-01T10:19:24.001Z</time></trkpt><trkpt lat="43.46218729700764" lon="-3.8001065211380367"><ele>12.5</ele><time>2026-05-01T10:19:25.001Z</time></trkpt><trkpt lat="43.462175940276495" lon="-3.80021088097346"><ele>12.333333333333332</ele><time>2026-05-01T10:19:26.001Z</time></trkpt><trkpt lat="43.46216820522501" lon="-3.800310640837099"><ele>12.166666666666666</ele><time>2026-05-01T10:19:27.001Z</time></trkpt><trkpt lat="43.462160552723674" lon="-3.8004092832158127"><ele>12.0</ele><time>2026-05-01T10:19:28.001Z</time></trkpt><trkpt lat="43.46214977660537" lon="-3.8005126922476604"><ele>11.714285714285714</ele><time>2026-05-01T10:19:29.001Z</time></trkpt><trkpt lat="43.46213873278489" lon="-3.8006155463517466"><ele>11.428571428571429</ele><time>2026-05-01T10:19:30.001Z</time></trkpt><trkpt lat="43.462124610079755" lon="-3.800713436534468"><ele>11.142857142857142</ele><time>2026-05-01T10:19:31.001Z</time></trkpt><trkpt lat="43.46211556289635" lon="-3.8008148726096143"><ele>10.857142857142858</ele><time>2026-05-01T10:19:32.001Z</time></trkpt><trkpt lat="43.46210580318296" lon="-3.8009146117325505"><ele>10.571428571428571</ele><time>2026-05-01T10:19:33.001Z</time></trkpt><trkpt lat="43.462100906349264" lon="-3.8010176284830215"><ele>10.285714285714285</ele><time>2026-05-01T10:19:34.001Z</time></trkpt><trkpt lat="43.46208502478571" lon="-3.8011177190088756"><ele>10.0</ele><time>2026-05-01T10:19:35.001Z</time></trkpt><trkpt lat="43.462071304512946" lon="-3.801226335481305"><ele>9.571428571428571</ele><time>2026-05-01T10:19:36.001Z</time></trkpt><trkpt lat="43.46205931634603" lon="-3.801334845128719"><ele>9.142857142857142</ele><time>2026-05-01T10:19:37.001Z</time></trkpt><trkpt lat="43.4620444503225" lon="-3.8014428163557272"><ele>8.714285714285715</ele><time>2026-05-01T10:19:38.001Z</time></trkpt><trkpt lat="43.46203602255237" lon="-3.801543607794227"><ele>8.285714285714285</ele><time>2026-05-01T10:19:39.001Z</time></trkpt><trkpt lat="43.46202498321593" lon="-3.801637543618377"><ele>7.857142857142858</ele><time>2026-05-01T10:19:40.001Z</time></trkpt><trkpt lat="43.462013280967966" lon="-3.801732559656459"><ele>7.428571428571429</ele><time>2026-05-01T10:19:41.001Z</time></trkpt><trkpt lat="43.46200383181943" lon="-3.801826970180354"><ele>7.0</ele><time>2026-05-01T10:19:42.001Z</time></trkpt><trkpt lat="43.46199399133748" lon="-3.801920353243965"><ele>7.0</ele><time>2026-05-01T10:19:43.001Z</time></trkpt><trkpt lat="43.46198810002438" lon="-3.8020085572936004"><ele>6.999999999999999</ele><time>2026-05-01T10:19:44.001Z</time></trkpt><trkpt lat="43.461979049414126" lon="-3.80218344500256"><ele>6.999999999999999</ele><time>2026-05-01T10:19:46.001Z</time></trkpt><trkpt lat="43.461962430711466" lon="-3.8023452319427364"><ele>7.0</ele><time>2026-05-01T10:19:47.999Z</time></trkpt><trkpt lat="43.46189145795771" lon="-3.802467459422535"><ele>7.0</ele><time>2026-05-01T10:19:49.999Z</time></trkpt><trkpt lat="43.461780159442554" lon="-3.8025083741537737"><ele>7.0</ele><time>2026-05-01T10:19:51.999Z</time></trkpt><trkpt lat="43.461654348280334" lon="-3.8025273590909"><ele>6.999999999999999</ele><time>2026-05-01T10:19:53.999Z</time></trkpt><trkpt lat="43.461593426815476" lon="-3.8025737152238346"><ele>6.999999999999999</ele><time>2026-05-01T10:19:54.999Z</time></trkpt><trkpt lat="43.46153794439952" lon="-3.8026523781691353"><ele>7.0</ele><time>2026-05-01T10:19:55.999Z</time></trkpt><trkpt lat="43.46148590337304" lon="-3.802756005244526"><ele>7.0</ele><time>2026-05-01T10:19:56.999Z</time></trkpt><trkpt lat="43.46143007616209" lon="-3.802860901042986"><ele>7.199999999999999</ele><time>2026-05-01T10:19:57.999Z</time></trkpt><trkpt lat="43.461367350090676" lon="-3.802968993283807"><ele>7.3999999999999995</ele><time>2026-05-01T10:19:58.999Z</time></trkpt><trkpt lat="43.461302155003956" lon="-3.8030873344228104"><ele>7.6000000000000005</ele><time>2026-05-01T10:19:59.999Z</time></trkpt><trkpt lat="43.46123485526434" lon="-3.8032099095253717"><ele>7.800000000000001</ele><time>2026-05-01T10:20:00.999Z</time></trkpt><trkpt lat="43.46116473505307" lon="-3.8033363889206173"><ele>8.0</ele><time>2026-05-01T10:20:01.999Z</time></trkpt><trkpt lat="43.46109709293642" lon="-3.803463049850418"><ele>7.2</ele><time>2026-05-01T10:20:02.999Z</time></trkpt><trkpt lat="43.46102579149048" lon="-3.8035810408815705"><ele>6.4</ele><time>2026-05-01T10:20:03.999Z</time></trkpt><trkpt lat="43.46095407660339" lon="-3.8037011266019647"><ele>5.6000000000000005</ele><time>2026-05-01T10:20:04.999Z</time></trkpt><trkpt lat="43.46088646616186" lon="-3.8038192067205374"><ele>4.800000000000001</ele><time>2026-05-01T10:20:05.999Z</time></trkpt><trkpt lat="43.46081584500246" lon="-3.8039397870662803"><ele>4.0</ele><time>2026-05-01T10:20:06.999Z</time></trkpt><trkpt lat="43.460742448530446" lon="-3.8040607410857414"><ele>4.0</ele><time>2026-05-01T10:20:08Z</time></trkpt><trkpt lat="43.460671471836676" lon="-3.8041825043003956"><ele>4.0</ele><time>2026-05-01T10:20:09Z</time></trkpt><trkpt lat="43.46060333897881" lon="-3.804305993059818"><ele>4.0</ele><time>2026-05-01T10:20:10Z</time></trkpt><trkpt lat="43.460534415116626" lon="-3.8044321442283593"><ele>4.0</ele><time>2026-05-01T10:20:11Z</time></trkpt><trkpt lat="43.46046805921854" lon="-3.804557351271035"><ele>3.333333333333333</ele><time>2026-05-01T10:20:12Z</time></trkpt><trkpt lat="43.460401445273504" lon="-3.804687671483724"><ele>2.6666666666666665</ele><time>2026-05-01T10:20:13.02Z</time></trkpt><trkpt lat="43.46033459530127" lon="-3.8048137122093904"><ele>2.0</ele><time>2026-05-01T10:20:14.019Z</time></trkpt><trkpt lat="43.460155740331146" lon="-3.8052959589202704"><ele>4.0</ele><time>2026-05-01T10:20:17.462Z</time></trkpt><trkpt lat="43.46008781347746" lon="-3.805683944377867"><ele>6.0</ele><time>2026-05-01T10:20:18Z</time></trkpt><trkpt lat="43.46002565662252" lon="-3.8058459682542827"><ele>8.0</ele><time>2026-05-01T10:20:19Z</time></trkpt><trkpt lat="43.460147112818845" lon="-3.80580448492007"><ele>8.0</ele><time>2026-05-01T10:20:20Z</time></trkpt><trkpt lat="43.46008234792514" lon="-3.805928110236861"><ele>8.0</ele><time>2026-05-01T10:20:21Z</time></trkpt><trkpt lat="43.46004293611387" lon="-3.806066732114574"><ele>8.0</ele><time>2026-05-01T10:20:22Z</time></trkpt><trkpt lat="43.45999966831278" lon="-3.806182256870574"><ele>8.0</ele><time>2026-05-01T10:20:23Z</time></trkpt><trkpt lat="43.45993535528946" lon="-3.8063299514266444"><ele>8.0</ele><time>2026-05-01T10:20:24Z</time></trkpt><trkpt lat="43.45989664851131" lon="-3.8064656646855597"><ele>8.5</ele><time>2026-05-01T10:20:25Z</time></trkpt><trkpt lat="43.45984793886124" lon="-3.8065768252732735"><ele>9.0</ele><time>2026-05-01T10:20:26Z</time></trkpt><trkpt lat="43.459790143329506" lon="-3.8066762767421536"><ele>9.5</ele><time>2026-05-01T10:20:27Z</time></trkpt><trkpt lat="43.459739601136405" lon="-3.806760354836909"><ele>10.0</ele><time>2026-05-01T10:20:28Z</time></trkpt><trkpt lat="43.45968989530375" lon="-3.8068370386031214"><ele>10.5</ele><time>2026-05-01T10:20:29Z</time></trkpt><trkpt lat="43.459641102372956" lon="-3.8069118027659874"><ele>11.0</ele><time>2026-05-01T10:20:30Z</time></trkpt><trkpt lat="43.45959771119397" lon="-3.8069790098095537"><ele>9.8</ele><time>2026-05-01T10:20:31Z</time></trkpt><trkpt lat="43.45954548833637" lon="-3.8070637932999345"><ele>8.600000000000001</ele><time>2026-05-01T10:20:33Z</time></trkpt><trkpt lat="43.45947443945559" lon="-3.8071733190991903"><ele>7.4</ele><time>2026-05-01T10:21:05.001Z</time></trkpt><trkpt lat="43.45938004647995" lon="-3.807297319845418"><ele>6.2</ele><time>2026-05-01T10:21:07.001Z</time></trkpt><trkpt lat="43.459321148939054" lon="-3.807366824093851"><ele>5.0</ele><time>2026-05-01T10:21:08.001Z</time></trkpt><trkpt lat="43.45926157111805" lon="-3.8074455828825284"><ele>5.0</ele><time>2026-05-01T10:21:09.001Z</time></trkpt><trkpt lat="43.4591958626569" lon="-3.8075378687662087"><ele>5.0</ele><time>2026-05-01T10:21:10.001Z</time></trkpt><trkpt lat="43.45912798883478" lon="-3.8076278753677486"><ele>5.0</ele><time>2026-05-01T10:21:11.001Z</time></trkpt><trkpt lat="43.459058755601774" lon="-3.8077184926120817"><ele>5.0</ele><time>2026-05-01T10:21:12.001Z</time></trkpt><trkpt lat="43.45898729925573" lon="-3.807806514782611"><ele>5.0</ele><time>2026-05-01T10:21:13.001Z</time></trkpt><trkpt lat="43.45891925795184" lon="-3.8078838073986208"><ele>5.166666666666667</ele><time>2026-05-01T10:21:14.001Z</time></trkpt><trkpt lat="43.45885668414879" lon="-3.8079666732109256"><ele>5.333333333333334</ele><time>2026-05-01T10:21:15.001Z</time></trkpt><trkpt lat="43.45879968511897" lon="-3.808044326329826"><ele>5.5</ele><time>2026-05-01T10:21:16.001Z</time></trkpt><trkpt lat="43.45875329286787" lon="-3.8081353515456593"><ele>5.666666666666667</ele><time>2026-05-01T10:21:17.001Z</time></trkpt><trkpt lat="43.45871776193851" lon="-3.8082314448571846"><ele>5.833333333333333</ele><time>2026-05-01T10:21:18.001Z</time></trkpt><trkpt lat="43.45868525224085" lon="-3.8083331495203367"><ele>6.0</ele><time>2026-05-01T10:21:19.001Z</time></trkpt><trkpt lat="43.45865345591341" lon="-3.808444185248407"><ele>6.6</ele><time>2026-05-01T10:21:20.001Z</time></trkpt><trkpt lat="43.45862348517825" lon="-3.808563513692786"><ele>7.199999999999999</ele><time>2026-05-01T10:21:21.001Z</time></trkpt><trkpt lat="43.45858999034307" lon="-3.8086800298459424"><ele>7.800000000000001</ele><time>2026-05-01T10:21:22.001Z</time></trkpt><trkpt lat="43.45855793621196" lon="-3.8087928984008017"><ele>8.4</ele><time>2026-05-01T10:21:23.001Z</time></trkpt><trkpt lat="43.45852282187297" lon="-3.8089145795935804"><ele>9.0</ele><time>2026-05-01T10:21:24.001Z</time></trkpt><trkpt lat="43.458491919487635" lon="-3.8090269711060607"><ele>9.0</ele><time>2026-05-01T10:21:25.001Z</time></trkpt><trkpt lat="43.45846421507506" lon="-3.8091337099212326"><ele>9.0</ele><time>2026-05-01T10:21:26.001Z</time></trkpt><trkpt lat="43.45843519979557" lon="-3.8092395408199633"><ele>9.0</ele><time>2026-05-01T10:21:27.001Z</time></trkpt><trkpt lat="43.45840676199367" lon="-3.8093362785738587"><ele>9.0</ele><time>2026-05-01T10:21:28.001Z</time></trkpt><trkpt lat="43.45837721464486" lon="-3.809427865031095"><ele>9.0</ele><time>2026-05-01T10:21:29.001Z</time></trkpt><trkpt lat="43.45835929458471" lon="-3.809519616649379"><ele>9.0</ele><time>2026-05-01T10:21:30.001Z</time></trkpt><trkpt lat="43.45831183421956" lon="-3.8096750549433307"><ele>9.4</ele><time>2026-05-01T10:21:32.001Z</time></trkpt><trkpt lat="43.45825495424939" lon="-3.8098407185257868"><ele>9.8</ele><time>2026-05-01T10:21:34.001Z</time></trkpt><trkpt lat="43.458229912375884" lon="-3.8099412373589696"><ele>10.200000000000001</ele><time>2026-05-01T10:21:35.001Z</time></trkpt><trkpt lat="43.45820472829251" lon="-3.8100453065886537"><ele>10.600000000000001</ele><time>2026-05-01T10:21:36.001Z</time></trkpt><trkpt lat="43.4581687508729" lon="-3.8101570622323235"><ele>11.0</ele><time>2026-05-01T10:21:37.001Z</time></trkpt><trkpt lat="43.45813361380505" lon="-3.8102711865691514"><ele>11.0</ele><time>2026-05-01T10:21:38.001Z</time></trkpt><trkpt lat="43.458098073818114" lon="-3.810388018539215"><ele>11.0</ele><time>2026-05-01T10:21:39.001Z</time></trkpt><trkpt lat="43.45806301114443" lon="-3.8105073126709925"><ele>11.0</ele><time>2026-05-01T10:21:40.001Z</time></trkpt><trkpt lat="43.45802043484135" lon="-3.8106239658511285"><ele>11.0</ele><time>2026-05-01T10:21:41.001Z</time></trkpt><trkpt lat="43.457984893504864" lon="-3.8107430365661625"><ele>11.0</ele><time>2026-05-01T10:21:42.001Z</time></trkpt><trkpt lat="43.457953698027424" lon="-3.810865393699569"><ele>11.0</ele><time>2026-05-01T10:21:43.001Z</time></trkpt><trkpt lat="43.4579192365868" lon="-3.8109845474807726"><ele>11.0</ele><time>2026-05-01T10:21:44.001Z</time></trkpt><trkpt lat="43.45788297009735" lon="-3.8111034286983685"><ele>11.0</ele><time>2026-05-01T10:21:45.001Z</time></trkpt><trkpt lat="43.457844315418235" lon="-3.81122742969244"><ele>11.0</ele><time>2026-05-01T10:21:46.001Z</time></trkpt><trkpt lat="43.45780612178289" lon="-3.811349923296799"><ele>11.0</ele><time>2026-05-01T10:21:47.001Z</time></trkpt><trkpt lat="43.45777722221497" lon="-3.8114773511650113"><ele>10.8</ele><time>2026-05-01T10:21:48.001Z</time></trkpt><trkpt lat="43.45774583365325" lon="-3.8116030723248553"><ele>10.600000000000001</ele><time>2026-05-01T10:21:49.001Z</time></trkpt><trkpt lat="43.45770415346168" lon="-3.8117237108548103"><ele>10.4</ele><time>2026-05-01T10:21:50.001Z</time></trkpt><trkpt lat="43.45767357457382" lon="-3.811833653429816"><ele>10.2</ele><time>2026-05-01T10:21:51.001Z</time></trkpt><trkpt lat="43.457640066666904" lon="-3.8119393792782508"><ele>10.0</ele><time>2026-05-01T10:21:52.001Z</time></trkpt><trkpt lat="43.45760715155265" lon="-3.8120512532312896"><ele>9.333333333333334</ele><time>2026-05-01T10:21:53.001Z</time></trkpt><trkpt lat="43.45757777564515" lon="-3.812161752128476"><ele>8.666666666666668</ele><time>2026-05-01T10:21:53.999Z</time></trkpt><trkpt lat="43.457551593643224" lon="-3.812271878304552"><ele>8.0</ele><time>2026-05-01T10:21:54.999Z</time></trkpt><trkpt lat="43.45751679466567" lon="-3.812377849755448"><ele>7.333333333333334</ele><time>2026-05-01T10:21:55.999Z</time></trkpt><trkpt lat="43.4574845714169" lon="-3.8124901040538846"><ele>6.666666666666667</ele><time>2026-05-01T10:21:56.999Z</time></trkpt><trkpt lat="43.45745730899383" lon="-3.812608394807699"><ele>6.0</ele><time>2026-05-01T10:21:57.999Z</time></trkpt><trkpt lat="43.45742855846328" lon="-3.8127261687944722"><ele>5.6</ele><time>2026-05-01T10:21:58.999Z</time></trkpt><trkpt lat="43.45739667786029" lon="-3.8128445474815393"><ele>5.199999999999999</ele><time>2026-05-01T10:21:59.999Z</time></trkpt><trkpt lat="43.457370874775606" lon="-3.8129596848748317"><ele>4.800000000000001</ele><time>2026-05-01T10:22:00.999Z</time></trkpt><trkpt lat="43.457313144567195" lon="-3.813079498910848"><ele>4.4</ele><time>2026-05-01T10:22:01.999Z</time></trkpt><trkpt lat="43.457283354654294" lon="-3.8131999111799013"><ele>4.0</ele><time>2026-05-01T10:22:02.999Z</time></trkpt><trkpt lat="43.45725364933008" lon="-3.813326060125812"><ele>4.0</ele><time>2026-05-01T10:22:03.999Z</time></trkpt><trkpt lat="43.45722275581645" lon="-3.8134491320394157"><ele>4.0</ele><time>2026-05-01T10:22:04.999Z</time></trkpt><trkpt lat="43.457176026747334" lon="-3.813577471311194"><ele>4.0</ele><time>2026-05-01T10:22:05.999Z</time></trkpt><trkpt lat="43.4571447894761" lon="-3.813702790069806"><ele>4.0</ele><time>2026-05-01T10:22:06.999Z</time></trkpt><trkpt lat="43.457114435130244" lon="-3.813832850645052"><ele>4.0</ele><time>2026-05-01T10:22:07.999Z</time></trkpt><trkpt lat="43.457078036479494" lon="-3.813960845258817"><ele>4.800000000000001</ele><time>2026-05-01T10:22:08.999Z</time></trkpt><trkpt lat="43.45704376281856" lon="-3.8140860625413437"><ele>5.6000000000000005</ele><time>2026-05-01T10:22:09.999Z</time></trkpt><trkpt lat="43.45700394533109" lon="-3.8142148664800626"><ele>6.4</ele><time>2026-05-01T10:22:10.999Z</time></trkpt><trkpt lat="43.456967553811566" lon="-3.8143476327683916"><ele>7.2</ele><time>2026-05-01T10:22:11.999Z</time></trkpt><trkpt lat="43.456938086090766" lon="-3.8144739505596346"><ele>8.0</ele><time>2026-05-01T10:22:12.999Z</time></trkpt><trkpt lat="43.45690767323875" lon="-3.814589318252665"><ele>8.0</ele><time>2026-05-01T10:22:14Z</time></trkpt><trkpt lat="43.456877151484996" lon="-3.8147103581244495"><ele>8.0</ele><time>2026-05-01T10:22:15Z</time></trkpt><trkpt lat="43.456843278772794" lon="-3.814827837191243"><ele>8.0</ele><time>2026-05-01T10:22:16Z</time></trkpt><trkpt lat="43.45681092490212" lon="-3.8149545322019307"><ele>8.0</ele><time>2026-05-01T10:22:17Z</time></trkpt><trkpt lat="43.45677584337766" lon="-3.815084480606795"><ele>8.0</ele><time>2026-05-01T10:22:18Z</time></trkpt><trkpt lat="43.456740894251496" lon="-3.8152025852150278"><ele>7.4</ele><time>2026-05-01T10:22:19Z</time></trkpt><trkpt lat="43.456709929673686" lon="-3.8153135197760606"><ele>6.800000000000001</ele><time>2026-05-01T10:22:20Z</time></trkpt><trkpt lat="43.45667526357683" lon="-3.8154490091806195"><ele>6.2</ele><time>2026-05-01T10:22:21Z</time></trkpt><trkpt lat="43.45665285931898" lon="-3.8155835851784587"><ele>5.6</ele><time>2026-05-01T10:22:22Z</time></trkpt><trkpt lat="43.45661268729484" lon="-3.8157049398053258"><ele>5.0</ele><time>2026-05-01T10:22:23Z</time></trkpt><trkpt lat="43.456569639117454" lon="-3.8158343912642225"><ele>5.0</ele><time>2026-05-01T10:22:24Z</time></trkpt><trkpt lat="43.456537641613146" lon="-3.815971387428997"><ele>5.0</ele><time>2026-05-01T10:22:25Z</time></trkpt><trkpt lat="43.45649545870515" lon="-3.8161040590015167"><ele>5.0</ele><time>2026-05-01T10:22:26Z</time></trkpt><trkpt lat="43.45644280266999" lon="-3.8162296102538535"><ele>5.0</ele><time>2026-05-01T10:22:27Z</time></trkpt><trkpt lat="43.456382905608606" lon="-3.816341630795668"><ele>5.0</ele><time>2026-05-01T10:22:28Z</time></trkpt><trkpt lat="43.45630836963578" lon="-3.8164386451994345"><ele>5.0</ele><time>2026-05-01T10:22:29Z</time></trkpt><trkpt lat="43.45625114930858" lon="-3.8165592477345003"><ele>5.0</ele><time>2026-05-01T10:22:30Z</time></trkpt><trkpt lat="43.45618595679496" lon="-3.8166569386505675"><ele>5.0</ele><time>2026-05-01T10:22:31Z</time></trkpt><trkpt lat="43.45611799751594" lon="-3.8167587754022465"><ele>5.0</ele><time>2026-05-01T10:22:32Z</time></trkpt><trkpt lat="43.456051496001265" lon="-3.816858246527349"><ele>5.0</ele><time>2026-05-01T10:22:33Z</time></trkpt><trkpt lat="43.45599167333271" lon="-3.8169477334762765"><ele>5.0</ele><time>2026-05-01T10:22:34Z</time></trkpt><trkpt lat="43.4559341966912" lon="-3.817033711007555"><ele>5.0</ele><time>2026-05-01T10:22:35Z</time></trkpt><trkpt lat="43.455874976360164" lon="-3.8171222968392797"><ele>5.0</ele><time>2026-05-01T10:22:36Z</time></trkpt><trkpt lat="43.45580667477189" lon="-3.817197545075609"><ele>5.0</ele><time>2026-05-01T10:22:37Z</time></trkpt><trkpt lat="43.455753040839156" lon="-3.817294309605225"><ele>5.0</ele><time>2026-05-01T10:22:38Z</time></trkpt><trkpt lat="43.45568919681933" lon="-3.8173832048848335"><ele>5.0</ele><time>2026-05-01T10:22:39Z</time></trkpt><trkpt lat="43.45562910974694" lon="-3.8174770841356724"><ele>5.0</ele><time>2026-05-01T10:22:40Z</time></trkpt><trkpt lat="43.45556821105961" lon="-3.8175685918663826"><ele>5.0</ele><time>2026-05-01T10:22:41Z</time></trkpt><trkpt lat="43.45551257628681" lon="-3.8176607077823133"><ele>5.0</ele><time>2026-05-01T10:22:42Z</time></trkpt><trkpt lat="43.45545236133972" lon="-3.8177464585590886"><ele>5.0</ele><time>2026-05-01T10:22:43Z</time></trkpt><trkpt lat="43.45539585735696" lon="-3.8178354633429326"><ele>5.0</ele><time>2026-05-01T10:22:44Z</time></trkpt><trkpt lat="43.45534004296293" lon="-3.8179303760589534"><ele>5.0</ele><time>2026-05-01T10:22:45Z</time></trkpt><trkpt lat="43.455287533882405" lon="-3.818030733832011"><ele>5.0</ele><time>2026-05-01T10:22:46Z</time></trkpt><trkpt lat="43.45523026749863" lon="-3.8181333155466053"><ele>5.0</ele><time>2026-05-01T10:22:47Z</time></trkpt><trkpt lat="43.4551811651569" lon="-3.818244817537869"><ele>5.0</ele><time>2026-05-01T10:22:48Z</time></trkpt><trkpt lat="43.45514064150011" lon="-3.818363087105741"><ele>5.0</ele><time>2026-05-01T10:22:49Z</time></trkpt><trkpt lat="43.45509396607136" lon="-3.8184805531434245"><ele>5.0</ele><time>2026-05-01T10:22:50Z</time></trkpt><trkpt lat="43.4550623272157" lon="-3.8186097348774277"><ele>5.0</ele><time>2026-05-01T10:22:51Z</time></trkpt><trkpt lat="43.455024388628495" lon="-3.8187352729717547"><ele>5.0</ele><time>2026-05-01T10:22:52Z</time></trkpt><trkpt lat="43.45499319633052" lon="-3.8188642586037895"><ele>5.0</ele><time>2026-05-01T10:22:53Z</time></trkpt><trkpt lat="43.45496117074637" lon="-3.818989783728912"><ele>5.0</ele><time>2026-05-01T10:22:54Z</time></trkpt><trkpt lat="43.454924200109005" lon="-3.8191136462793853"><ele>5.0</ele><time>2026-05-01T10:22:55Z</time></trkpt><trkpt lat="43.4548889229815" lon="-3.8192400663719615"><ele>4.8</ele><time>2026-05-01T10:22:56Z</time></trkpt><trkpt lat="43.45485882569889" lon="-3.819361340172657"><ele>4.6</ele><time>2026-05-01T10:22:57Z</time></trkpt><trkpt lat="43.45481845782514" lon="-3.819502016535648"><ele>4.4</ele><time>2026-05-01T10:22:58.001Z</time></trkpt><trkpt lat="43.454777699750075" lon="-3.819624674059686"><ele>4.2</ele><time>2026-05-01T10:22:59.001Z</time></trkpt><trkpt lat="43.45474039398618" lon="-3.8197550503949054"><ele>4.0</ele><time>2026-05-01T10:23:00.001Z</time></trkpt><trkpt lat="43.45470358050872" lon="-3.819880935258535"><ele>4.0</ele><time>2026-05-01T10:23:01.001Z</time></trkpt><trkpt lat="43.454671335981836" lon="-3.8200066012890446"><ele>4.0</ele><time>2026-05-01T10:23:02.001Z</time></trkpt><trkpt lat="43.45463711361047" lon="-3.8201282806653487"><ele>4.0</ele><time>2026-05-01T10:23:03.001Z</time></trkpt><trkpt lat="43.45460637908603" lon="-3.82025290836673"><ele>4.0</ele><time>2026-05-01T10:23:04.001Z</time></trkpt><trkpt lat="43.454571374569284" lon="-3.8203802576239445"><ele>4.0</ele><time>2026-05-01T10:23:05.001Z</time></trkpt><trkpt lat="43.45454051135889" lon="-3.820500416570323"><ele>5.0</ele><time>2026-05-01T10:23:06.001Z</time></trkpt><trkpt lat="43.45450699723353" lon="-3.820622350307274"><ele>6.0</ele><time>2026-05-01T10:23:07.001Z</time></trkpt><trkpt lat="43.45447281299107" lon="-3.8207397064975632"><ele>7.0</ele><time>2026-05-01T10:23:08.001Z</time></trkpt><trkpt lat="43.45444168519886" lon="-3.8208680615940174"><ele>8.0</ele><time>2026-05-01T10:23:09.001Z</time></trkpt><trkpt lat="43.45440459349278" lon="-3.820994216166092"><ele>9.0</ele><time>2026-05-01T10:23:10.001Z</time></trkpt><trkpt lat="43.454366730351225" lon="-3.8211195363890433"><ele>9.0</ele><time>2026-05-01T10:23:11.001Z</time></trkpt><trkpt lat="43.45432904626813" lon="-3.821250629240233"><ele>9.0</ele><time>2026-05-01T10:23:12.001Z</time></trkpt><trkpt lat="43.454296003847745" lon="-3.8213833642151376"><ele>9.0</ele><time>2026-05-01T10:23:13.001Z</time></trkpt><trkpt lat="43.45426008889958" lon="-3.821511627186483"><ele>9.0</ele><time>2026-05-01T10:23:14.001Z</time></trkpt><trkpt lat="43.45422149685667" lon="-3.8216401501310417"><ele>9.0</ele><time>2026-05-01T10:23:15.001Z</time></trkpt><trkpt lat="43.45418562910662" lon="-3.8217708065352363"><ele>8.4</ele><time>2026-05-01T10:23:16.001Z</time></trkpt><trkpt lat="43.454154781821416" lon="-3.8219012457946975"><ele>7.800000000000001</ele><time>2026-05-01T10:23:17.001Z</time></trkpt><trkpt lat="43.45412060723856" lon="-3.8220300542685774"><ele>7.199999999999999</ele><time>2026-05-01T10:23:18.001Z</time></trkpt><trkpt lat="43.454090997707304" lon="-3.822158773727034"><ele>6.6</ele><time>2026-05-01T10:23:19.001Z</time></trkpt><trkpt lat="43.45405756675844" lon="-3.8222854268509034"><ele>6.0</ele><time>2026-05-01T10:23:20.001Z</time></trkpt><trkpt lat="43.45402019031192" lon="-3.8224099088431602"><ele>6.0</ele><time>2026-05-01T10:23:21.001Z</time></trkpt><trkpt lat="43.45399039028511" lon="-3.822531501936071"><ele>6.0</ele><time>2026-05-01T10:23:22.001Z</time></trkpt><trkpt lat="43.45396296699009" lon="-3.8226583646552728"><ele>6.0</ele><time>2026-05-01T10:23:23.001Z</time></trkpt><trkpt lat="43.45392624335916" lon="-3.8227712332370087"><ele>6.0</ele><time>2026-05-01T10:23:24.001Z</time></trkpt><trkpt lat="43.4538912130651" lon="-3.8228805713476266"><ele>6.0</ele><time>2026-05-01T10:23:25.001Z</time></trkpt><trkpt lat="43.45385968456212" lon="-3.822991812755427"><ele>6.0</ele><time>2026-05-01T10:23:26.001Z</time></trkpt><trkpt lat="43.45383207825181" lon="-3.8231012847052432"><ele>6.0</ele><time>2026-05-01T10:23:27.001Z</time></trkpt><trkpt lat="43.45380211979583" lon="-3.8232090450289817"><ele>6.0</ele><time>2026-05-01T10:23:28.001Z</time></trkpt><trkpt lat="43.453776326250384" lon="-3.8233060157662417"><ele>6.0</ele><time>2026-05-01T10:23:29.001Z</time></trkpt><trkpt lat="43.4537420065092" lon="-3.8234365639396217"><ele>6.0</ele><time>2026-05-01T10:23:31.001Z</time></trkpt><trkpt lat="43.45372363161102" lon="-3.8235360514754166"><ele>6.0</ele><time>2026-05-01T10:23:35.001Z</time></trkpt><trkpt lat="43.453699090775736" lon="-3.8236356110791405"><ele>6.0</ele><time>2026-05-01T10:23:37.001Z</time></trkpt><trkpt lat="43.45362658383736" lon="-3.8237581822455833"><ele>6.0</ele><time>2026-05-01T10:23:39.001Z</time></trkpt><trkpt lat="43.45358397967156" lon="-3.8239161732389753"><ele>6.0</ele><time>2026-05-01T10:23:41.001Z</time></trkpt><trkpt lat="43.45357056741491" lon="-3.824002263828832"><ele>6.0</ele><time>2026-05-01T10:23:42.001Z</time></trkpt><trkpt lat="43.45355775559198" lon="-3.8240877365385506"><ele>6.0</ele><time>2026-05-01T10:23:43.001Z</time></trkpt><trkpt lat="43.45353476768871" lon="-3.8241715086648917"><ele>6.0</ele><time>2026-05-01T10:23:44.001Z</time></trkpt><trkpt lat="43.453509570608766" lon="-3.8242550173241745"><ele>5.5</ele><time>2026-05-01T10:23:45.001Z</time></trkpt><trkpt lat="43.45347537405579" lon="-3.824329863228392"><ele>5.0</ele><time>2026-05-01T10:23:46.001Z</time></trkpt><trkpt lat="43.45345265019515" lon="-3.8244212205777943"><ele>4.5</ele><time>2026-05-01T10:23:47.001Z</time></trkpt><trkpt lat="43.453408334573794" lon="-3.8245048681882943"><ele>4.0</ele><time>2026-05-01T10:23:48.001Z</time></trkpt><trkpt lat="43.45335847380933" lon="-3.824587066747822"><ele>3.5</ele><time>2026-05-01T10:23:49.001Z</time></trkpt><trkpt lat="43.45328995657814" lon="-3.8246619427138806"><ele>3.0</ele><time>2026-05-01T10:23:50.001Z</time></trkpt><trkpt lat="43.45320985395198" lon="-3.824710369622519"><ele>3.0</ele><time>2026-05-01T10:23:51.001Z</time></trkpt><trkpt lat="43.45314394069173" lon="-3.8247746210959677"><ele>3.0</ele><time>2026-05-01T10:23:52.001Z</time></trkpt><trkpt lat="43.45307717215738" lon="-3.8248317435404884"><ele>3.0</ele><time>2026-05-01T10:23:53.001Z</time></trkpt><trkpt lat="43.452999376357496" lon="-3.824877376459887"><ele>3.0</ele><time>2026-05-01T10:23:54.001Z</time></trkpt><trkpt lat="43.45292284293911" lon="-3.824915798112374"><ele>3.0</ele><time>2026-05-01T10:23:55.002Z</time></trkpt><trkpt lat="43.45284611620272" lon="-3.824949356544166"><ele>3.0</ele><time>2026-05-01T10:23:56.002Z</time></trkpt><trkpt lat="43.452756892351836" lon="-3.8250017245124797"><ele>3.2</ele><time>2026-05-01T10:23:57.002Z</time></trkpt><trkpt lat="43.45267047619047" lon="-3.8250472443193853"><ele>3.4</ele><time>2026-05-01T10:23:58.002Z</time></trkpt><trkpt lat="43.4525796944286" lon="-3.8250968759628012"><ele>3.6000000000000005</ele><time>2026-05-01T10:23:59.002Z</time></trkpt><trkpt lat="43.45249774502544" lon="-3.8251612676392233"><ele>3.8000000000000003</ele><time>2026-05-01T10:23:59.999Z</time></trkpt><trkpt lat="43.45240059539677" lon="-3.8251994781104"><ele>4.0</ele><time>2026-05-01T10:24:00.999Z</time></trkpt><trkpt lat="43.452315934673685" lon="-3.825233096650941"><ele>3.8000000000000003</ele><time>2026-05-01T10:24:01.999Z</time></trkpt><trkpt lat="43.4522599849797" lon="-3.825337780253575"><ele>3.6000000000000005</ele><time>2026-05-01T10:24:02.999Z</time></trkpt><trkpt lat="43.452213905176855" lon="-3.825461284751617"><ele>3.4</ele><time>2026-05-01T10:24:03.999Z</time></trkpt><trkpt lat="43.45217841908691" lon="-3.825590548866078"><ele>3.2</ele><time>2026-05-01T10:24:04.999Z</time></trkpt><trkpt lat="43.452135646531026" lon="-3.8257143396599465"><ele>3.0</ele><time>2026-05-01T10:24:05.999Z</time></trkpt><trkpt lat="43.45210130110336" lon="-3.8258446043375103"><ele>3.0</ele><time>2026-05-01T10:24:06.999Z</time></trkpt><trkpt lat="43.45207295565167" lon="-3.825965598968062"><ele>3.0</ele><time>2026-05-01T10:24:07.999Z</time></trkpt><trkpt lat="43.45205211403603" lon="-3.826070492643974"><ele>3.0</ele><time>2026-05-01T10:24:08.999Z</time></trkpt><trkpt lat="43.45202604099016" lon="-3.8261721022145814"><ele>3.0</ele><time>2026-05-01T10:24:09.999Z</time></trkpt><trkpt lat="43.45200128809435" lon="-3.826275676697752"><ele>3.0</ele><time>2026-05-01T10:24:10.999Z</time></trkpt><trkpt lat="43.451977092536396" lon="-3.8263733023603326"><ele>3.0</ele><time>2026-05-01T10:24:11.999Z</time></trkpt><trkpt lat="43.45196020063499" lon="-3.826470242902656"><ele>3.0</ele><time>2026-05-01T10:24:12.999Z</time></trkpt><trkpt lat="43.451945395610615" lon="-3.826572461336494"><ele>3.0</ele><time>2026-05-01T10:24:13.999Z</time></trkpt><trkpt lat="43.451928362156146" lon="-3.826672302284383"><ele>3.0</ele><time>2026-05-01T10:24:14.999Z</time></trkpt><trkpt lat="43.45191451997586" lon="-3.826765613184806"><ele>3.0</ele><time>2026-05-01T10:24:15.999Z</time></trkpt><trkpt lat="43.45190708187422" lon="-3.8268586870272308"><ele>3.0</ele><time>2026-05-01T10:24:16.999Z</time></trkpt><trkpt lat="43.45191337708236" lon="-3.8269724816640145"><ele>3.0</ele><time>2026-05-01T10:24:17.999Z</time></trkpt><trkpt lat="43.451938536397925" lon="-3.827076787907036"><ele>3.0</ele><time>2026-05-01T10:24:18.999Z</time></trkpt><trkpt lat="43.451967128957754" lon="-3.827166618368125"><ele>3.0</ele><time>2026-05-01T10:24:19.999Z</time></trkpt><trkpt lat="43.451997449984354" lon="-3.827263628680473"><ele>3.0</ele><time>2026-05-01T10:24:20.999Z</time></trkpt><trkpt lat="43.45204125339816" lon="-3.827371468349019"><ele>3.0</ele><time>2026-05-01T10:24:21.999Z</time></trkpt><trkpt lat="43.45210611647684" lon="-3.827465790498942"><ele>3.0</ele><time>2026-05-01T10:24:22.999Z</time></trkpt><trkpt lat="43.45217788166334" lon="-3.8275475566562993"><ele>3.0</ele><time>2026-05-01T10:24:24Z</time></trkpt><trkpt lat="43.45225834628456" lon="-3.827581753007528"><ele>3.0</ele><time>2026-05-01T10:24:25Z</time></trkpt><trkpt lat="43.45234393436618" lon="-3.8276202188512407"><ele>3.0</ele><time>2026-05-01T10:24:26Z</time></trkpt><trkpt lat="43.45242105629577" lon="-3.8276816947092387"><ele>3.0</ele><time>2026-05-01T10:24:27Z</time></trkpt><trkpt lat="43.45251352074201" lon="-3.8277079985265825"><ele>3.0</ele><time>2026-05-01T10:24:28Z</time></trkpt><trkpt lat="43.45259573731217" lon="-3.8277595941220737"><ele>3.0</ele><time>2026-05-01T10:24:29Z</time></trkpt><trkpt lat="43.45267407638357" lon="-3.8278092081726767"><ele>3.0</ele><time>2026-05-01T10:24:30Z</time></trkpt><trkpt lat="43.45275366258507" lon="-3.827856386711756"><ele>3.0</ele><time>2026-05-01T10:24:31Z</time></trkpt><trkpt lat="43.45283785656178" lon="-3.8278958735976727"><ele>3.0</ele><time>2026-05-01T10:24:32Z</time></trkpt><trkpt lat="43.452921740498574" lon="-3.827941378017763"><ele>3.0</ele><time>2026-05-01T10:24:33Z</time></trkpt><trkpt lat="43.45300314238298" lon="-3.827993085557972"><ele>3.0</ele><time>2026-05-01T10:24:34Z</time></trkpt><trkpt lat="43.4530892979789" lon="-3.8280488214485833"><ele>3.3333333333333335</ele><time>2026-05-01T10:24:35Z</time></trkpt><trkpt lat="43.453170570362154" lon="-3.828104236993755"><ele>3.666666666666667</ele><time>2026-05-01T10:24:36Z</time></trkpt><trkpt lat="43.453257488485086" lon="-3.8281546164680793"><ele>4.0</ele><time>2026-05-01T10:24:37Z</time></trkpt><trkpt lat="43.45334347456546" lon="-3.828204744436829"><ele>4.333333333333334</ele><time>2026-05-01T10:24:38Z</time></trkpt><trkpt lat="43.45342477887818" lon="-3.8282498326220264"><ele>4.666666666666667</ele><time>2026-05-01T10:24:39Z</time></trkpt><trkpt lat="43.453496393247235" lon="-3.8282922389766827"><ele>5.0</ele><time>2026-05-01T10:24:40Z</time></trkpt><trkpt lat="43.45355986344131" lon="-3.8283273676579843"><ele>5.0</ele><time>2026-05-01T10:24:41Z</time></trkpt><trkpt lat="43.45362071648433" lon="-3.82836028654868"><ele>5.0</ele><time>2026-05-01T10:24:42Z</time></trkpt><trkpt lat="43.45374403066127" lon="-3.8284109722202957"><ele>5.0</ele><time>2026-05-01T10:24:44Z</time></trkpt><trkpt lat="43.45381606770018" lon="-3.82842289609236"><ele>5.0</ele><time>2026-05-01T10:24:45Z</time></trkpt><trkpt lat="43.4538911494918" lon="-3.8284322517030818"><ele>5.0</ele><time>2026-05-01T10:24:46Z</time></trkpt><trkpt lat="43.453973793416495" lon="-3.8284340341603063"><ele>5.0</ele><time>2026-05-01T10:24:47Z</time></trkpt><trkpt lat="43.45405085707808" lon="-3.828461174190306"><ele>4.833333333333334</ele><time>2026-05-01T10:24:48Z</time></trkpt><trkpt lat="43.45411989965057" lon="-3.8285214704415145"><ele>4.666666666666667</ele><time>2026-05-01T10:24:49Z</time></trkpt><trkpt lat="43.4541714938469" lon="-3.8286125756909373"><ele>4.5</ele><time>2026-05-01T10:24:50Z</time></trkpt><trkpt lat="43.45419421695017" lon="-3.8287213792857204"><ele>4.333333333333333</ele><time>2026-05-01T10:24:51Z</time></trkpt><trkpt lat="43.45419403466558" lon="-3.828840418798869"><ele>4.166666666666666</ele><time>2026-05-01T10:24:52Z</time></trkpt><trkpt lat="43.45417637387873" lon="-3.8289528308253438"><ele>4.0</ele><time>2026-05-01T10:24:53Z</time></trkpt><trkpt lat="43.45417025923527" lon="-3.829058225868358"><ele>3.9999999999999996</ele><time>2026-05-01T10:24:54Z</time></trkpt><trkpt lat="43.45409395638129" lon="-3.829140803000045"><ele>4.0</ele><time>2026-05-01T10:24:55Z</time></trkpt><trkpt lat="43.45401154906411" lon="-3.8291732876619746"><ele>4.0</ele><time>2026-05-01T10:24:56Z</time></trkpt><trkpt lat="43.45393775710542" lon="-3.8292008196033613"><ele>4.0</ele><time>2026-05-01T10:24:57Z</time></trkpt><trkpt lat="43.45386345093114" lon="-3.8292205865775912"><ele>3.9999999999999996</ele><time>2026-05-01T10:24:58Z</time></trkpt><trkpt lat="43.453791753864685" lon="-3.829219470996746"><ele>4.0</ele><time>2026-05-01T10:24:59Z</time></trkpt><trkpt lat="43.45372032176302" lon="-3.829184035947644"><ele>3.8000000000000003</ele><time>2026-05-01T10:25:00Z</time></trkpt><trkpt lat="43.45365922403537" lon="-3.829117108067102"><ele>3.6000000000000005</ele><time>2026-05-01T10:25:01Z</time></trkpt><trkpt lat="43.4535710952443" lon="-3.828944673017015"><ele>3.4</ele><time>2026-05-01T10:25:03.001Z</time></trkpt><trkpt lat="43.45345257340101" lon="-3.828963738513493"><ele>3.2</ele><time>2026-05-01T10:25:04.001Z</time></trkpt><trkpt lat="43.45337091818558" lon="-3.8289575723970533"><ele>3.0</ele><time>2026-05-01T10:25:05.001Z</time></trkpt><trkpt lat="43.45329447838425" lon="-3.8289516374247294"><ele>3.0</ele><time>2026-05-01T10:25:06.001Z</time></trkpt><trkpt lat="43.45317437223131" lon="-3.8289467387309104"><ele>3.0</ele><time>2026-05-01T10:25:08.001Z</time></trkpt><trkpt lat="43.45306613010276" lon="-3.8290039664295334"><ele>3.0</ele><time>2026-05-01T10:25:10.001Z</time></trkpt><trkpt lat="43.45300915150725" lon="-3.829149131841139"><ele>3.0</ele><time>2026-05-01T10:25:12.001Z</time></trkpt><trkpt lat="43.45297837845889" lon="-3.829264824261488"><ele>3.0</ele><time>2026-05-01T10:25:14.001Z</time></trkpt><trkpt lat="43.45300741133203" lon="-3.8291608681432416"><ele>3.0</ele><time>2026-05-01T10:25:18.001Z</time></trkpt><trkpt lat="43.45303275851456" lon="-3.8290755697878014"><ele>3.0</ele><time>2026-05-01T10:25:20.001Z</time></trkpt><trkpt lat="43.45307736034288" lon="-3.828970416806213"><ele>3.0</ele><time>2026-05-01T10:25:22.001Z</time></trkpt><trkpt lat="43.45312358717852" lon="-3.8288890539904012"><ele>3.0</ele><time>2026-05-01T10:25:25.001Z</time></trkpt><trkpt lat="43.45322897291403" lon="-3.8289272497012066"><ele>3.0</ele><time>2026-05-01T10:25:26.001Z</time></trkpt><trkpt lat="43.45334153430778" lon="-3.8289394248909203"><ele>3.0</ele><time>2026-05-01T10:25:28.001Z</time></trkpt><trkpt lat="43.45345851973077" lon="-3.828937655221685"><ele>3.0</ele><time>2026-05-01T10:25:30.001Z</time></trkpt><trkpt lat="43.453540474044374" lon="-3.828892915934957"><ele>3.0</ele><time>2026-05-01T10:25:32.001Z</time></trkpt><trkpt lat="43.453601698592166" lon="-3.828794094880487"><ele>3.0</ele><time>2026-05-01T10:25:36.001Z</time></trkpt><trkpt lat="43.45365647240087" lon="-3.828703903367038"><ele>3.0</ele><time>2026-05-01T10:25:38.001Z</time></trkpt><trkpt lat="43.453732517984506" lon="-3.8286094214385633"><ele>2.9999999999999996</ele><time>2026-05-01T10:25:40.001Z</time></trkpt><trkpt lat="43.45377590202356" lon="-3.8285458059093758"><ele>3.0</ele><time>2026-05-01T10:25:41.001Z</time></trkpt><trkpt lat="43.45383059457838" lon="-3.8284966076716485"><ele>3.0</ele><time>2026-05-01T10:25:42.001Z</time></trkpt><trkpt lat="43.453903825854816" lon="-3.828475327770109"><ele>3.0</ele><time>2026-05-01T10:25:43.001Z</time></trkpt><trkpt lat="43.45398402563563" lon="-3.828470902383499"><ele>3.0</ele><time>2026-05-01T10:25:44.001Z</time></trkpt><trkpt lat="43.45406209761206" lon="-3.82848276756663"><ele>2.9999999999999996</ele><time>2026-05-01T10:25:45.001Z</time></trkpt><trkpt lat="43.45412757406344" lon="-3.8285328575126614"><ele>3.0</ele><time>2026-05-01T10:25:46.001Z</time></trkpt><trkpt lat="43.454177277659014" lon="-3.828619433616398"><ele>3.1666666666666665</ele><time>2026-05-01T10:25:47.001Z</time></trkpt><trkpt lat="43.45420083804046" lon="-3.8287265743760677"><ele>3.333333333333333</ele><time>2026-05-01T10:25:48.001Z</time></trkpt><trkpt lat="43.45420514338258" lon="-3.828842048248641"><ele>3.5</ele><time>2026-05-01T10:25:49.001Z</time></trkpt><trkpt lat="43.45418859995393" lon="-3.8289582889634275"><ele>3.6666666666666665</ele><time>2026-05-01T10:25:50.001Z</time></trkpt><trkpt lat="43.45414973117875" lon="-3.829051912782428"><ele>3.833333333333333</ele><time>2026-05-01T10:25:51.001Z</time></trkpt><trkpt lat="43.45409253168735" lon="-3.829133104579318"><ele>4.0</ele><time>2026-05-01T10:25:52.002Z</time></trkpt><trkpt lat="43.4540258356476" lon="-3.8291946185941836"><ele>3.9999999999999996</ele><time>2026-05-01T10:25:53.002Z</time></trkpt><trkpt lat="43.45395264753489" lon="-3.8292350748858373"><ele>4.0</ele><time>2026-05-01T10:25:54.002Z</time></trkpt><trkpt lat="43.45388020327904" lon="-3.8292738463431624"><ele>4.0</ele><time>2026-05-01T10:25:55.002Z</time></trkpt><trkpt lat="43.45381375203312" lon="-3.8293258214657553"><ele>4.0</ele><time>2026-05-01T10:25:56.002Z</time></trkpt><trkpt lat="43.453754689180556" lon="-3.8294011540504536"><ele>3.9999999999999996</ele><time>2026-05-01T10:25:57.002Z</time></trkpt><trkpt lat="43.453707433065" lon="-3.82949926527617"><ele>4.0</ele><time>2026-05-01T10:25:58.002Z</time></trkpt><trkpt lat="43.45367253813598" lon="-3.8296132996126113"><ele>4.25</ele><time>2026-05-01T10:25:59.002Z</time></trkpt><trkpt lat="43.45364293100831" lon="-3.8297382957421036"><ele>4.5</ele><time>2026-05-01T10:26:00.002Z</time></trkpt><trkpt lat="43.45361385789834" lon="-3.829871013397168"><ele>4.75</ele><time>2026-05-01T10:26:01.002Z</time></trkpt><trkpt lat="43.45354326161254" lon="-3.8301380397298086"><ele>5.0</ele><time>2026-05-01T10:26:03.002Z</time></trkpt><trkpt lat="43.45350064343582" lon="-3.830271511298307"><ele>4.5</ele><time>2026-05-01T10:26:04.002Z</time></trkpt><trkpt lat="43.45346018000519" lon="-3.830422674826973"><ele>4.0</ele><time>2026-05-01T10:26:05.002Z</time></trkpt><trkpt lat="43.45341931559212" lon="-3.8305743659177787"><ele>3.5</ele><time>2026-05-01T10:26:05.999Z</time></trkpt><trkpt lat="43.4533785394471" lon="-3.830730452844492"><ele>3.0</ele><time>2026-05-01T10:26:06.999Z</time></trkpt><trkpt lat="43.453337754906435" lon="-3.830887055500628"><ele>2.75</ele><time>2026-05-01T10:26:07.999Z</time></trkpt><trkpt lat="43.45329177339134" lon="-3.831043113700094"><ele>2.5</ele><time>2026-05-01T10:26:08.999Z</time></trkpt><trkpt lat="43.45324707602578" lon="-3.831204100619459"><ele>2.25</ele><time>2026-05-01T10:26:09.999Z</time></trkpt><trkpt lat="43.45320258006005" lon="-3.831368776527445"><ele>2.0</ele><time>2026-05-01T10:26:10.999Z</time></trkpt><trkpt lat="43.45316060305886" lon="-3.8315327488840047"><ele>2.0</ele><time>2026-05-01T10:26:11.999Z</time></trkpt><trkpt lat="43.453114932850895" lon="-3.8316913188591126"><ele>2.0</ele><time>2026-05-01T10:26:12.999Z</time></trkpt><trkpt lat="43.45306852569461" lon="-3.8318518946569604"><ele>2.0</ele><time>2026-05-01T10:26:13.999Z</time></trkpt><trkpt lat="43.45302259049824" lon="-3.832012787723898"><ele>2.0</ele><time>2026-05-01T10:26:14.999Z</time></trkpt><trkpt lat="43.45298315771418" lon="-3.832169078916451"><ele>2.25</ele><time>2026-05-01T10:26:15.999Z</time></trkpt><trkpt lat="43.45294417314842" lon="-3.8323192905699948"><ele>2.5</ele><time>2026-05-01T10:26:16.999Z</time></trkpt><trkpt lat="43.45290142638836" lon="-3.8324649379847506"><ele>2.75</ele><time>2026-05-01T10:26:17.999Z</time></trkpt><trkpt lat="43.45285859057073" lon="-3.8326108213684043"><ele>3.0</ele><time>2026-05-01T10:26:18.999Z</time></trkpt><trkpt lat="43.45281672616567" lon="-3.8327553740094933"><ele>3.2</ele><time>2026-05-01T10:26:19.999Z</time></trkpt><trkpt lat="43.4527757508568" lon="-3.8328986983000273"><ele>3.4</ele><time>2026-05-01T10:26:20.999Z</time></trkpt><trkpt lat="43.45273731589958" lon="-3.8330429889784137"><ele>3.6000000000000005</ele><time>2026-05-01T10:26:21.999Z</time></trkpt><trkpt lat="43.452698011598685" lon="-3.8331810072796557"><ele>3.8000000000000003</ele><time>2026-05-01T10:26:22.999Z</time></trkpt><trkpt lat="43.45265932479526" lon="-3.8333210590757774"><ele>4.0</ele><time>2026-05-01T10:26:23.999Z</time></trkpt><trkpt lat="43.452616419252664" lon="-3.83346701861827"><ele>3.75</ele><time>2026-05-01T10:26:24.999Z</time></trkpt><trkpt lat="43.45257092334788" lon="-3.833611392583392"><ele>3.5</ele><time>2026-05-01T10:26:25.999Z</time></trkpt><trkpt lat="43.452529601068996" lon="-3.8337607639367244"><ele>3.25</ele><time>2026-05-01T10:26:26.999Z</time></trkpt><trkpt lat="43.45250022507748" lon="-3.833909888747384"><ele>3.0</ele><time>2026-05-01T10:26:27.999Z</time></trkpt><trkpt lat="43.452462656940604" lon="-3.8340568412899914"><ele>3.0</ele><time>2026-05-01T10:26:28.999Z</time></trkpt><trkpt lat="43.452424278522486" lon="-3.83420418138684"><ele>3.0</ele><time>2026-05-01T10:26:29.999Z</time></trkpt><trkpt lat="43.452383212512345" lon="-3.8343488836925643"><ele>3.0</ele><time>2026-05-01T10:26:31Z</time></trkpt><trkpt lat="43.45234209663476" lon="-3.8344939192559173"><ele>3.0</ele><time>2026-05-01T10:26:32Z</time></trkpt><trkpt lat="43.45230307395087" lon="-3.8346399435878396"><ele>2.75</ele><time>2026-05-01T10:26:33Z</time></trkpt><trkpt lat="43.45226382812684" lon="-3.8347887224598565"><ele>2.5</ele><time>2026-05-01T10:26:34Z</time></trkpt><trkpt lat="43.452225679020174" lon="-3.834932434304796"><ele>2.25</ele><time>2026-05-01T10:26:35Z</time></trkpt><trkpt lat="43.45218358849115" lon="-3.8350782024514056"><ele>2.0</ele><time>2026-05-01T10:26:36Z</time></trkpt><trkpt lat="43.45214253586179" lon="-3.835224232846467"><ele>1.75</ele><time>2026-05-01T10:26:37Z</time></trkpt><trkpt lat="43.452101466896856" lon="-3.8353701912153912"><ele>1.5</ele><time>2026-05-01T10:26:38Z</time></trkpt><trkpt lat="43.45205966421727" lon="-3.8355180608449024"><ele>1.25</ele><time>2026-05-01T10:26:39Z</time></trkpt><trkpt lat="43.452018020833265" lon="-3.8356642065798763"><ele>1.0</ele><time>2026-05-01T10:26:40Z</time></trkpt><trkpt lat="43.45197778392004" lon="-3.835810568502812"><ele>1.0</ele><time>2026-05-01T10:26:41Z</time></trkpt><trkpt lat="43.45193721167003" lon="-3.8359550889203136"><ele>1.0</ele><time>2026-05-01T10:26:42Z</time></trkpt><trkpt lat="43.45189630747441" lon="-3.8360982200388714"><ele>1.0</ele><time>2026-05-01T10:26:43Z</time></trkpt><trkpt lat="43.45185098487402" lon="-3.836239680408704"><ele>1.0</ele><time>2026-05-01T10:26:44Z</time></trkpt><trkpt lat="43.451804175180015" lon="-3.8363802730695147"><ele>1.0</ele><time>2026-05-01T10:26:45Z</time></trkpt><trkpt lat="43.45175465587217" lon="-3.8365183465604766"><ele>1.75</ele><time>2026-05-01T10:26:46Z</time></trkpt><trkpt lat="43.451704174622066" lon="-3.8366564405070926"><ele>2.5</ele><time>2026-05-01T10:26:47Z</time></trkpt><trkpt lat="43.45165368750209" lon="-3.8367945247476865"><ele>3.25</ele><time>2026-05-01T10:26:48Z</time></trkpt><trkpt lat="43.451602123641614" lon="-3.8369339584522524"><ele>4.0</ele><time>2026-05-01T10:26:49Z</time></trkpt><trkpt lat="43.45154914980111" lon="-3.8370719635856805"><ele>4.0</ele><time>2026-05-01T10:26:50Z</time></trkpt><trkpt lat="43.451497467530416" lon="-3.8372109378004198"><ele>4.0</ele><time>2026-05-01T10:26:51Z</time></trkpt><trkpt lat="43.45144129584421" lon="-3.8373455507168597"><ele>4.0</ele><time>2026-05-01T10:26:52Z</time></trkpt><trkpt lat="43.451384121022144" lon="-3.8374796729127953"><ele>4.0</ele><time>2026-05-01T10:26:53Z</time></trkpt><trkpt lat="43.45132716241091" lon="-3.837612900788036"><ele>4.0</ele><time>2026-05-01T10:26:54Z</time></trkpt><trkpt lat="43.45126993840638" lon="-3.8377447549462707"><ele>4.0</ele><time>2026-05-01T10:26:55Z</time></trkpt><trkpt lat="43.4512110918113" lon="-3.837874544783305"><ele>4.0</ele><time>2026-05-01T10:26:56Z</time></trkpt><trkpt lat="43.4511519265687" lon="-3.838004246152838"><ele>4.0</ele><time>2026-05-01T10:26:57Z</time></trkpt><trkpt lat="43.45109596361136" lon="-3.8381353801800775"><ele>4.0</ele><time>2026-05-01T10:26:58Z</time></trkpt><trkpt lat="43.45103931268165" lon="-3.838265872841311"><ele>4.0</ele><time>2026-05-01T10:26:59Z</time></trkpt><trkpt lat="43.45098281784068" lon="-3.838398878016419"><ele>4.0</ele><time>2026-05-01T10:27:00Z</time></trkpt><trkpt lat="43.45092725551602" lon="-3.8385309316579685"><ele>4.0</ele><time>2026-05-01T10:27:01Z</time></trkpt><trkpt lat="43.45087399576459" lon="-3.8386671797745797"><ele>4.0</ele><time>2026-05-01T10:27:02Z</time></trkpt><trkpt lat="43.450818073572854" lon="-3.8388008137355234"><ele>4.0</ele><time>2026-05-01T10:27:03Z</time></trkpt><trkpt lat="43.45076145296475" lon="-3.838935135926305"><ele>4.2</ele><time>2026-05-01T10:27:04Z</time></trkpt><trkpt lat="43.45070566741134" lon="-3.839063366385706"><ele>4.4</ele><time>2026-05-01T10:27:05.001Z</time></trkpt><trkpt lat="43.45065440731988" lon="-3.839194282944539"><ele>4.6</ele><time>2026-05-01T10:27:06.001Z</time></trkpt><trkpt lat="43.45060134170711" lon="-3.839328590684295"><ele>4.8</ele><time>2026-05-01T10:27:07.001Z</time></trkpt><trkpt lat="43.450548761393186" lon="-3.839464305948629"><ele>5.0</ele><time>2026-05-01T10:27:08.001Z</time></trkpt><trkpt lat="43.45049484920347" lon="-3.839592294677975"><ele>5.0</ele><time>2026-05-01T10:27:09.001Z</time></trkpt><trkpt lat="43.450437697536216" lon="-3.8397277962067484"><ele>5.0</ele><time>2026-05-01T10:27:10.001Z</time></trkpt><trkpt lat="43.4503807284733" lon="-3.839858736893788"><ele>5.0</ele><time>2026-05-01T10:27:11.001Z</time></trkpt><trkpt lat="43.45034102886251" lon="-3.840001273755053"><ele>5.0</ele><time>2026-05-01T10:27:12.001Z</time></trkpt><trkpt lat="43.45027693997253" lon="-3.840129356842059"><ele>5.0</ele><time>2026-05-01T10:27:13.001Z</time></trkpt><trkpt lat="43.4502320772947" lon="-3.8402906321557944"><ele>5.75</ele><time>2026-05-01T10:27:14.001Z</time></trkpt><trkpt lat="43.45017610769399" lon="-3.840452945801809"><ele>6.5</ele><time>2026-05-01T10:27:15.001Z</time></trkpt><trkpt lat="43.45011901462685" lon="-3.8406242940648108"><ele>7.25</ele><time>2026-05-01T10:27:16.001Z</time></trkpt><trkpt lat="43.45005697025686" lon="-3.84084138332248"><ele>8.0</ele><time>2026-05-01T10:27:18.001Z</time></trkpt><trkpt lat="43.45002710584493" lon="-3.8409842487730828"><ele>8.200000000000001</ele><time>2026-05-01T10:27:19.001Z</time></trkpt><trkpt lat="43.44998930225052" lon="-3.8411310620660557"><ele>8.4</ele><time>2026-05-01T10:27:20.001Z</time></trkpt><trkpt lat="43.44996916242408" lon="-3.841282249247394"><ele>8.600000000000001</ele><time>2026-05-01T10:27:21.001Z</time></trkpt><trkpt lat="43.449949526110245" lon="-3.841434228723734"><ele>8.8</ele><time>2026-05-01T10:27:22.001Z</time></trkpt><trkpt lat="43.44993164517177" lon="-3.841582878778936"><ele>9.0</ele><time>2026-05-01T10:27:23.001Z</time></trkpt><trkpt lat="43.44991096400882" lon="-3.8417329770996145"><ele>9.6</ele><time>2026-05-01T10:27:24.001Z</time></trkpt><trkpt lat="43.44989219914668" lon="-3.841884191983846"><ele>10.2</ele><time>2026-05-01T10:27:25.001Z</time></trkpt><trkpt lat="43.44986980038561" lon="-3.8420298938280077"><ele>10.799999999999999</ele><time>2026-05-01T10:27:26.001Z</time></trkpt><trkpt lat="43.44984946901847" lon="-3.84217887820124"><ele>11.4</ele><time>2026-05-01T10:27:27.001Z</time></trkpt><trkpt lat="43.449829090502654" lon="-3.842329025520114"><ele>12.0</ele><time>2026-05-01T10:27:28.001Z</time></trkpt><trkpt lat="43.44980823703189" lon="-3.842480001736699"><ele>12.0</ele><time>2026-05-01T10:27:29.001Z</time></trkpt><trkpt lat="43.44978649023666" lon="-3.8426303085280433"><ele>12.0</ele><time>2026-05-01T10:27:30.001Z</time></trkpt><trkpt lat="43.44976570435539" lon="-3.842779649447956"><ele>12.0</ele><time>2026-05-01T10:27:31.001Z</time></trkpt><trkpt lat="43.449751327518506" lon="-3.8429289952803"><ele>12.0</ele><time>2026-05-01T10:27:32.001Z</time></trkpt><trkpt lat="43.44972839066883" lon="-3.8430790442849934"><ele>12.0</ele><time>2026-05-01T10:27:33.001Z</time></trkpt><trkpt lat="43.44971079849918" lon="-3.843230878236688"><ele>12.2</ele><time>2026-05-01T10:27:34.001Z</time></trkpt><trkpt lat="43.449690321105045" lon="-3.8433823553212525"><ele>12.399999999999999</ele><time>2026-05-01T10:27:35.001Z</time></trkpt><trkpt lat="43.44967320318142" lon="-3.8435349114175343"><ele>12.600000000000001</ele><time>2026-05-01T10:27:36.001Z</time></trkpt><trkpt lat="43.44965256342155" lon="-3.843682605070559"><ele>12.8</ele><time>2026-05-01T10:27:37.001Z</time></trkpt><trkpt lat="43.44963410429093" lon="-3.843830890824062"><ele>13.0</ele><time>2026-05-01T10:27:38.001Z</time></trkpt><trkpt lat="43.449614811834735" lon="-3.8439789470678294"><ele>12.200000000000001</ele><time>2026-05-01T10:27:39.001Z</time></trkpt><trkpt lat="43.44959623646419" lon="-3.8441266737932236"><ele>11.4</ele><time>2026-05-01T10:27:40.001Z</time></trkpt><trkpt lat="43.44957753818434" lon="-3.8442731667332204"><ele>10.600000000000001</ele><time>2026-05-01T10:27:41.001Z</time></trkpt><trkpt lat="43.44955884800621" lon="-3.8444223417684897"><ele>9.8</ele><time>2026-05-01T10:27:42.001Z</time></trkpt><trkpt lat="43.44954006602152" lon="-3.844572734778521"><ele>9.0</ele><time>2026-05-01T10:27:43.001Z</time></trkpt><trkpt lat="43.44952291871088" lon="-3.8447230903981415"><ele>9.0</ele><time>2026-05-01T10:27:44.001Z</time></trkpt><trkpt lat="43.44951778978322" lon="-3.8448749259078023"><ele>9.0</ele><time>2026-05-01T10:27:45.001Z</time></trkpt><trkpt lat="43.44949854072118" lon="-3.845032909629654"><ele>9.0</ele><time>2026-05-01T10:27:46.001Z</time></trkpt><trkpt lat="43.44949781415282" lon="-3.8452017862795156"><ele>9.0</ele><time>2026-05-01T10:27:47.002Z</time></trkpt><trkpt lat="43.4494815699651" lon="-3.8454013908312015"><ele>9.0</ele><time>2026-05-01T10:27:48.002Z</time></trkpt><trkpt lat="43.44948364494321" lon="-3.8456181285156643"><ele>9.0</ele><time>2026-05-01T10:27:49.002Z</time></trkpt><trkpt lat="43.44951227517816" lon="-3.845876860046915"><ele>9.0</ele><time>2026-05-01T10:27:50.002Z</time></trkpt><trkpt lat="43.44953866023076" lon="-3.8461125909180605"><ele>8.8</ele><time>2026-05-01T10:27:51.002Z</time></trkpt><trkpt lat="43.44947064253727" lon="-3.8460383891264684"><ele>8.600000000000001</ele><time>2026-05-01T10:27:53.002Z</time></trkpt><trkpt lat="43.44946753060464" lon="-3.8461863547063695"><ele>8.4</ele><time>2026-05-01T10:27:54.002Z</time></trkpt><trkpt lat="43.44946389173515" lon="-3.846332750784404"><ele>8.200000000000001</ele><time>2026-05-01T10:27:55.002Z</time></trkpt><trkpt lat="43.44945957134907" lon="-3.8464809431342784"><ele>8.0</ele><time>2026-05-01T10:27:56.002Z</time></trkpt><trkpt lat="43.44945593988508" lon="-3.846629541385154"><ele>8.0</ele><time>2026-05-01T10:27:57.002Z</time></trkpt><trkpt lat="43.44944835356788" lon="-3.846778425467945"><ele>8.0</ele><time>2026-05-01T10:27:58.002Z</time></trkpt><trkpt lat="43.4494424940942" lon="-3.846923813487353"><ele>8.0</ele><time>2026-05-01T10:27:59.002Z</time></trkpt><trkpt lat="43.44943759999716" lon="-3.847074211613596"><ele>8.0</ele><time>2026-05-01T10:28:00.002Z</time></trkpt><trkpt lat="43.449430350402174" lon="-3.8472233751739044"><ele>8.0</ele><time>2026-05-01T10:28:01.002Z</time></trkpt><trkpt lat="43.44941993929428" lon="-3.847375069081097"><ele>7.800000000000001</ele><time>2026-05-01T10:28:02.002Z</time></trkpt><trkpt lat="43.44941302124568" lon="-3.8475252137721716"><ele>7.6000000000000005</ele><time>2026-05-01T10:28:03.002Z</time></trkpt><trkpt lat="43.44940769726839" lon="-3.847670257972328"><ele>7.3999999999999995</ele><time>2026-05-01T10:28:04.002Z</time></trkpt><trkpt lat="43.44939905213372" lon="-3.8478182139801"><ele>7.199999999999999</ele><time>2026-05-01T10:28:05.002Z</time></trkpt><trkpt lat="43.449394420403614" lon="-3.847968016104474"><ele>7.0</ele><time>2026-05-01T10:28:06.002Z</time></trkpt><trkpt lat="43.449388216506584" lon="-3.84811283788879"><ele>7.75</ele><time>2026-05-01T10:28:07.002Z</time></trkpt><trkpt lat="43.449386224584565" lon="-3.8482678413458706"><ele>8.5</ele><time>2026-05-01T10:28:08.002Z</time></trkpt><trkpt lat="43.449377721915766" lon="-3.8484180064266074"><ele>9.25</ele><time>2026-05-01T10:28:09.002Z</time></trkpt><trkpt lat="43.449370659954425" lon="-3.84857980894715"><ele>10.0</ele><time>2026-05-01T10:28:10.002Z</time></trkpt><trkpt lat="43.449362136831326" lon="-3.8487333878888608"><ele>10.2</ele><time>2026-05-01T10:28:11.002Z</time></trkpt><trkpt lat="43.44935363103346" lon="-3.8488812080045367"><ele>10.4</ele><time>2026-05-01T10:28:12Z</time></trkpt><trkpt lat="43.44935409029284" lon="-3.849031435262523"><ele>10.600000000000001</ele><time>2026-05-01T10:28:13Z</time></trkpt><trkpt lat="43.44934544467348" lon="-3.84917733836368"><ele>10.8</ele><time>2026-05-01T10:28:14Z</time></trkpt><trkpt lat="43.44933632951825" lon="-3.8493303173689295"><ele>11.0</ele><time>2026-05-01T10:28:15Z</time></trkpt><trkpt lat="43.449329295718854" lon="-3.849484435127028"><ele>11.0</ele><time>2026-05-01T10:28:16Z</time></trkpt><trkpt lat="43.44932964568011" lon="-3.849636993650755"><ele>11.0</ele><time>2026-05-01T10:28:17Z</time></trkpt><trkpt lat="43.44933068179326" lon="-3.8497901759387774"><ele>11.0</ele><time>2026-05-01T10:28:18Z</time></trkpt><trkpt lat="43.44931780852075" lon="-3.8499365007205784"><ele>11.0</ele><time>2026-05-01T10:28:19Z</time></trkpt><trkpt lat="43.44928531022838" lon="-3.850081071667681"><ele>11.0</ele><time>2026-05-01T10:28:20Z</time></trkpt><trkpt lat="43.44925141348685" lon="-3.850220436830766"><ele>10.8</ele><time>2026-05-01T10:28:21Z</time></trkpt><trkpt lat="43.44922709218078" lon="-3.8503705564919852"><ele>10.600000000000001</ele><time>2026-05-01T10:28:22Z</time></trkpt><trkpt lat="43.449193994837756" lon="-3.8505082019433776"><ele>10.4</ele><time>2026-05-01T10:28:23Z</time></trkpt><trkpt lat="43.449157416982914" lon="-3.850651866003827"><ele>10.2</ele><time>2026-05-01T10:28:24Z</time></trkpt><trkpt lat="43.44912022445933" lon="-3.8507984311350176"><ele>10.0</ele><time>2026-05-01T10:28:25Z</time></trkpt><trkpt lat="43.44908116473779" lon="-3.8509267912031184"><ele>11.2</ele><time>2026-05-01T10:28:26Z</time></trkpt><trkpt lat="43.449036147241195" lon="-3.8510679010795728"><ele>12.4</ele><time>2026-05-01T10:28:27Z</time></trkpt><trkpt lat="43.448985450921455" lon="-3.851191343363361"><ele>13.600000000000001</ele><time>2026-05-01T10:28:28Z</time></trkpt><trkpt lat="43.44893480482462" lon="-3.851332575800083"><ele>14.8</ele><time>2026-05-01T10:28:29Z</time></trkpt><trkpt lat="43.44888944981223" lon="-3.8514625928735846"><ele>16.0</ele><time>2026-05-01T10:28:30Z</time></trkpt><trkpt lat="43.44883856888193" lon="-3.8515721071419207"><ele>15.166666666666666</ele><time>2026-05-01T10:28:31Z</time></trkpt><trkpt lat="43.44878880600792" lon="-3.85168122252681"><ele>14.333333333333332</ele><time>2026-05-01T10:28:32Z</time></trkpt><trkpt lat="43.44873523023991" lon="-3.85177874587806"><ele>13.5</ele><time>2026-05-01T10:28:33Z</time></trkpt><trkpt lat="43.44869852222911" lon="-3.851891474333876"><ele>12.666666666666666</ele><time>2026-05-01T10:28:34Z</time></trkpt><trkpt lat="43.44866615554622" lon="-3.851995643258554"><ele>11.833333333333332</ele><time>2026-05-01T10:28:35Z</time></trkpt><trkpt lat="43.44864683727317" lon="-3.852110817370638"><ele>11.0</ele><time>2026-05-01T10:28:36Z</time></trkpt><trkpt lat="43.44866888753798" lon="-3.8522303841572922"><ele>11.0</ele><time>2026-05-01T10:28:37Z</time></trkpt><trkpt lat="43.44869110959907" lon="-3.852346294033231"><ele>11.0</ele><time>2026-05-01T10:28:38Z</time></trkpt><trkpt lat="43.448697589969036" lon="-3.852450626987031"><ele>11.0</ele><time>2026-05-01T10:28:39Z</time></trkpt><trkpt lat="43.448835713228284" lon="-3.852501922809768"><ele>11.0</ele><time>2026-05-01T10:28:40Z</time></trkpt><trkpt lat="43.44892160820954" lon="-3.8525008542363577"><ele>11.0</ele><time>2026-05-01T10:28:41Z</time></trkpt><trkpt lat="43.44900952972883" lon="-3.852482630464386"><ele>13.25</ele><time>2026-05-01T10:28:42Z</time></trkpt><trkpt lat="43.44908469005793" lon="-3.852403110305256"><ele>15.5</ele><time>2026-05-01T10:28:43Z</time></trkpt><trkpt lat="43.449065194386655" lon="-3.8526881842956273"><ele>17.75</ele><time>2026-05-01T10:28:44Z</time></trkpt><trkpt lat="43.449024407254896" lon="-3.8528090720157055"><ele>20.0</ele><time>2026-05-01T10:28:45Z</time></trkpt><trkpt lat="43.44900326153378" lon="-3.852919173296648"><ele>21.2</ele><time>2026-05-01T10:28:46Z</time></trkpt><trkpt lat="43.448979175111745" lon="-3.8530378442914386"><ele>22.4</ele><time>2026-05-01T10:28:47Z</time></trkpt><trkpt lat="43.44895952037053" lon="-3.853160142637127"><ele>23.6</ele><time>2026-05-01T10:28:48Z</time></trkpt><trkpt lat="43.44893727961549" lon="-3.853285798358616"><ele>24.8</ele><time>2026-05-01T10:28:49Z</time></trkpt><trkpt lat="43.44890757205591" lon="-3.853404253926123"><ele>26.0</ele><time>2026-05-01T10:28:50Z</time></trkpt><trkpt lat="43.448871380662574" lon="-3.853526395252375"><ele>28.6</ele><time>2026-05-01T10:28:51Z</time></trkpt><trkpt lat="43.44883526800713" lon="-3.853647928329928"><ele>31.200000000000003</ele><time>2026-05-01T10:28:52Z</time></trkpt><trkpt lat="43.448802246375195" lon="-3.8537756160673515"><ele>33.8</ele><time>2026-05-01T10:28:53Z</time></trkpt><trkpt lat="43.448768667458054" lon="-3.853904807520746"><ele>36.4</ele><time>2026-05-01T10:28:54.001Z</time></trkpt><trkpt lat="43.44873835259092" lon="-3.8540285609806415"><ele>39.0</ele><time>2026-05-01T10:28:55.001Z</time></trkpt><trkpt lat="43.4487090813574" lon="-3.8541613261708525"><ele>34.6</ele><time>2026-05-01T10:28:56.001Z</time></trkpt><trkpt lat="43.448680518258676" lon="-3.8542934703347966"><ele>30.2</ele><time>2026-05-01T10:28:57.001Z</time></trkpt><trkpt lat="43.44865228541372" lon="-3.854424627251649"><ele>25.799999999999997</ele><time>2026-05-01T10:28:58.001Z</time></trkpt><trkpt lat="43.448620378440886" lon="-3.8545570424486684"><ele>21.4</ele><time>2026-05-01T10:28:59.001Z</time></trkpt><trkpt lat="43.448596466430416" lon="-3.8546928576647765"><ele>17.0</ele><time>2026-05-01T10:29:00.001Z</time></trkpt><trkpt lat="43.448576577646534" lon="-3.854827672740646"><ele>17.0</ele><time>2026-05-01T10:29:01.001Z</time></trkpt><trkpt lat="43.44855859316487" lon="-3.854966293263099"><ele>17.0</ele><time>2026-05-01T10:29:02.001Z</time></trkpt><trkpt lat="43.44854133095431" lon="-3.855104302796538"><ele>17.0</ele><time>2026-05-01T10:29:03.001Z</time></trkpt><trkpt lat="43.448524730462566" lon="-3.8552437407989135"><ele>17.0</ele><time>2026-05-01T10:29:04.001Z</time></trkpt><trkpt lat="43.448508559767674" lon="-3.8553894294305366"><ele>17.0</ele><time>2026-05-01T10:29:05.001Z</time></trkpt><trkpt lat="43.44849445674063" lon="-3.8555312120355065"><ele>18.4</ele><time>2026-05-01T10:29:06.001Z</time></trkpt><trkpt lat="43.448484246583085" lon="-3.8556551638755576"><ele>19.799999999999997</ele><time>2026-05-01T10:29:07.001Z</time></trkpt><trkpt lat="43.44849462385252" lon="-3.8557830983982635"><ele>21.2</ele><time>2026-05-01T10:29:08.001Z</time></trkpt><trkpt lat="43.44847659739407" lon="-3.8559097364550197"><ele>22.599999999999998</ele><time>2026-05-01T10:29:09.001Z</time></trkpt><trkpt lat="43.448442180045994" lon="-3.8560816368773203"><ele>24.0</ele><time>2026-05-01T10:29:10.001Z</time></trkpt><trkpt lat="43.44841690037327" lon="-3.856226716393363"><ele>25.2</ele><time>2026-05-01T10:29:11.001Z</time></trkpt><trkpt lat="43.44840283006991" lon="-3.8563701040045033"><ele>26.4</ele><time>2026-05-01T10:29:12.001Z</time></trkpt><trkpt lat="43.44838704528631" lon="-3.856515441994663"><ele>27.6</ele><time>2026-05-01T10:29:13.001Z</time></trkpt><trkpt lat="43.44836925151949" lon="-3.856661350177993"><ele>28.8</ele><time>2026-05-01T10:29:14.001Z</time></trkpt><trkpt lat="43.448349495939325" lon="-3.8568043803580676"><ele>30.0</ele><time>2026-05-01T10:29:15.001Z</time></trkpt><trkpt lat="43.44832981072977" lon="-3.856950351893574"><ele>30.0</ele><time>2026-05-01T10:29:16.001Z</time></trkpt><trkpt lat="43.4483098539334" lon="-3.8570923360393876"><ele>30.0</ele><time>2026-05-01T10:29:17.001Z</time></trkpt><trkpt lat="43.448286200358105" lon="-3.857235147496313"><ele>30.0</ele><time>2026-05-01T10:29:18.001Z</time></trkpt><trkpt lat="43.448261080163334" lon="-3.8573770635837206"><ele>30.0</ele><time>2026-05-01T10:29:19.001Z</time></trkpt><trkpt lat="43.44822999830908" lon="-3.857516564271326"><ele>30.0</ele><time>2026-05-01T10:29:20.001Z</time></trkpt><trkpt lat="43.44819964156194" lon="-3.8576581164152928"><ele>32.6</ele><time>2026-05-01T10:29:21.001Z</time></trkpt><trkpt lat="43.448165814589494" lon="-3.8577981085459077"><ele>35.2</ele><time>2026-05-01T10:29:22.001Z</time></trkpt><trkpt lat="43.448127366484435" lon="-3.8579353647916195"><ele>37.8</ele><time>2026-05-01T10:29:23.001Z</time></trkpt><trkpt lat="43.448094952907724" lon="-3.858073890481133"><ele>40.4</ele><time>2026-05-01T10:29:24.001Z</time></trkpt><trkpt lat="43.44806078770609" lon="-3.8582101561069955"><ele>43.0</ele><time>2026-05-01T10:29:25.001Z</time></trkpt><trkpt lat="43.44802604876994" lon="-3.85834790911449"><ele>44.8</ele><time>2026-05-01T10:29:26.001Z</time></trkpt><trkpt lat="43.44799078041386" lon="-3.858487228552049"><ele>46.599999999999994</ele><time>2026-05-01T10:29:27.001Z</time></trkpt><trkpt lat="43.44795663821304" lon="-3.8586245876472227"><ele>48.400000000000006</ele><time>2026-05-01T10:29:28.001Z</time></trkpt><trkpt lat="43.44792201840055" lon="-3.858760943405508"><ele>50.2</ele><time>2026-05-01T10:29:29.001Z</time></trkpt><trkpt lat="43.4478877109162" lon="-3.8588990331238637"><ele>52.0</ele><time>2026-05-01T10:29:30.001Z</time></trkpt><trkpt lat="43.447853391850245" lon="-3.859038032338562"><ele>48.2</ele><time>2026-05-01T10:29:31.001Z</time></trkpt><trkpt lat="43.44782026678235" lon="-3.859176766390253"><ele>44.400000000000006</ele><time>2026-05-01T10:29:32.001Z</time></trkpt><trkpt lat="43.44778670545546" lon="-3.85931381468813"><ele>40.599999999999994</ele><time>2026-05-01T10:29:33.002Z</time></trkpt><trkpt lat="43.447749301046045" lon="-3.8594523967765246"><ele>36.8</ele><time>2026-05-01T10:29:34.002Z</time></trkpt><trkpt lat="43.44771385102058" lon="-3.8595900960171634"><ele>33.0</ele><time>2026-05-01T10:29:35.002Z</time></trkpt><trkpt lat="43.44768096232943" lon="-3.859727266795408"><ele>33.0</ele><time>2026-05-01T10:29:36.002Z</time></trkpt><trkpt lat="43.447649776713476" lon="-3.8598688318031464"><ele>33.0</ele><time>2026-05-01T10:29:37.002Z</time></trkpt><trkpt lat="43.44763656263636" lon="-3.8599969044394826"><ele>33.0</ele><time>2026-05-01T10:29:38.002Z</time></trkpt><trkpt lat="43.44763548041071" lon="-3.860105676396028"><ele>33.0</ele><time>2026-05-01T10:29:39.002Z</time></trkpt><trkpt lat="43.44762944125376" lon="-3.860244108633981"><ele>33.0</ele><time>2026-05-01T10:29:41.002Z</time></trkpt><trkpt lat="43.447630940246796" lon="-3.860336736567047"><ele>33.0</ele><time>2026-05-01T10:29:44.002Z</time></trkpt><trkpt lat="43.447613769761226" lon="-3.8604751530571204"><ele>34.0</ele><time>2026-05-01T10:30:01.002Z</time></trkpt><trkpt lat="43.44760701480398" lon="-3.860620963205353"><ele>35.0</ele><time>2026-05-01T10:30:03.002Z</time></trkpt><trkpt lat="43.44761328404756" lon="-3.860709741269362"><ele>36.0</ele><time>2026-05-01T10:30:04.002Z</time></trkpt><trkpt lat="43.44760875309578" lon="-3.86080580538845"><ele>37.0</ele><time>2026-05-01T10:30:05.002Z</time></trkpt><trkpt lat="43.44760565381274" lon="-3.860906362575432"><ele>38.0</ele><time>2026-05-01T10:30:06.002Z</time></trkpt><trkpt lat="43.4476041925272" lon="-3.8610141659027475"><ele>39.0</ele><time>2026-05-01T10:30:07.002Z</time></trkpt><trkpt lat="43.44760154337257" lon="-3.861133015389209"><ele>39.333333333333336</ele><time>2026-05-01T10:30:08.002Z</time></trkpt><trkpt lat="43.44759910520663" lon="-3.8612484909173523"><ele>39.666666666666664</ele><time>2026-05-01T10:30:09.002Z</time></trkpt><trkpt lat="43.44759509987343" lon="-3.8613692027357307"><ele>40.0</ele><time>2026-05-01T10:30:10.002Z</time></trkpt><trkpt lat="43.447591106393276" lon="-3.8614946591553703"><ele>40.33333333333333</ele><time>2026-05-01T10:30:11.002Z</time></trkpt><trkpt lat="43.447586734704075" lon="-3.8616188517126626"><ele>40.666666666666664</ele><time>2026-05-01T10:30:12.002Z</time></trkpt><trkpt lat="43.4475836793632" lon="-3.861746024739021"><ele>41.0</ele><time>2026-05-01T10:30:13.002Z</time></trkpt><trkpt lat="43.4475866010763" lon="-3.8618752622833132"><ele>41.199999999999996</ele><time>2026-05-01T10:30:14.003Z</time></trkpt><trkpt lat="43.447591534706" lon="-3.862006103146777"><ele>41.4</ele><time>2026-05-01T10:30:15.003Z</time></trkpt><trkpt lat="43.447597277159225" lon="-3.8621357586066045"><ele>41.6</ele><time>2026-05-01T10:30:16.003Z</time></trkpt><trkpt lat="43.44760736027054" lon="-3.8622684735516932"><ele>41.8</ele><time>2026-05-01T10:30:17.003Z</time></trkpt><trkpt lat="43.44761830038459" lon="-3.8623986438484366"><ele>42.0</ele><time>2026-05-01T10:30:18Z</time></trkpt><trkpt lat="43.447627274952744" lon="-3.8625308045972884"><ele>42.400000000000006</ele><time>2026-05-01T10:30:19Z</time></trkpt><trkpt lat="43.447636421316446" lon="-3.862664696453025"><ele>42.800000000000004</ele><time>2026-05-01T10:30:20Z</time></trkpt><trkpt lat="43.44764600185104" lon="-3.862797637204906"><ele>43.2</ele><time>2026-05-01T10:30:21Z</time></trkpt><trkpt lat="43.44765859225589" lon="-3.862931022543382"><ele>43.6</ele><time>2026-05-01T10:30:22Z</time></trkpt><trkpt lat="43.44767911521874" lon="-3.8630656651665216"><ele>44.0</ele><time>2026-05-01T10:30:23Z</time></trkpt><trkpt lat="43.447704577340964" lon="-3.8631988798514407"><ele>44.0</ele><time>2026-05-01T10:30:24Z</time></trkpt><trkpt lat="43.4477400576964" lon="-3.863328957360724"><ele>44.0</ele><time>2026-05-01T10:30:25Z</time></trkpt><trkpt lat="43.44777734703611" lon="-3.863449935870495"><ele>44.0</ele><time>2026-05-01T10:30:26Z</time></trkpt><trkpt lat="43.44781391653534" lon="-3.8635606719047013"><ele>44.0</ele><time>2026-05-01T10:30:27Z</time></trkpt><trkpt lat="43.44784217022245" lon="-3.86366825403675"><ele>44.0</ele><time>2026-05-01T10:30:28Z</time></trkpt><trkpt lat="43.447861589421855" lon="-3.8637718239576313"><ele>44.0</ele><time>2026-05-01T10:30:29Z</time></trkpt><trkpt lat="43.44787976650256" lon="-3.8638804979350327"><ele>44.0</ele><time>2026-05-01T10:30:30Z</time></trkpt><trkpt lat="43.447891736526515" lon="-3.863987060789095"><ele>44.0</ele><time>2026-05-01T10:30:31Z</time></trkpt><trkpt lat="43.4479043047075" lon="-3.864092435440809"><ele>44.0</ele><time>2026-05-01T10:30:32Z</time></trkpt><trkpt lat="43.447930742844065" lon="-3.864191243408174"><ele>44.0</ele><time>2026-05-01T10:30:33Z</time></trkpt><trkpt lat="43.44797937908507" lon="-3.86427859016722"><ele>44.0</ele><time>2026-05-01T10:30:34Z</time></trkpt><trkpt lat="43.44804014601022" lon="-3.8643558421962507"><ele>44.0</ele><time>2026-05-01T10:30:35Z</time></trkpt><trkpt lat="43.44809219435919" lon="-3.864430231838863"><ele>44.0</ele><time>2026-05-01T10:30:36Z</time></trkpt><trkpt lat="43.44812911419005" lon="-3.8645244826874197"><ele>44.0</ele><time>2026-05-01T10:30:37Z</time></trkpt><trkpt lat="43.448160457847735" lon="-3.864622079720166"><ele>44.0</ele><time>2026-05-01T10:30:38Z</time></trkpt><trkpt lat="43.44811915553669" lon="-3.8647408141459807"><ele>44.0</ele><time>2026-05-01T10:30:39Z</time></trkpt><trkpt lat="43.448073627028066" lon="-3.8648468482683627"><ele>44.0</ele><time>2026-05-01T10:30:40Z</time></trkpt><trkpt lat="43.448013345189366" lon="-3.864952616220785"><ele>44.0</ele><time>2026-05-01T10:30:41Z</time></trkpt><trkpt lat="43.447968893414185" lon="-3.8650743516519723"><ele>44.2</ele><time>2026-05-01T10:30:42Z</time></trkpt><trkpt lat="43.44793374450513" lon="-3.865205403517313"><ele>44.400000000000006</ele><time>2026-05-01T10:30:43Z</time></trkpt><trkpt lat="43.447895288345585" lon="-3.8653417609277887"><ele>44.6</ele><time>2026-05-01T10:30:44Z</time></trkpt><trkpt lat="43.44785484841683" lon="-3.865473300850761"><ele>44.8</ele><time>2026-05-01T10:30:45Z</time></trkpt><trkpt lat="43.44781671156331" lon="-3.865602987784214"><ele>45.0</ele><time>2026-05-01T10:30:46Z</time></trkpt><trkpt lat="43.44778059836498" lon="-3.865725215722075"><ele>45.0</ele><time>2026-05-01T10:30:47Z</time></trkpt><trkpt lat="43.447747818882036" lon="-3.8658391521053352"><ele>45.0</ele><time>2026-05-01T10:30:48Z</time></trkpt><trkpt lat="43.44771454399348" lon="-3.8659497568544916"><ele>45.0</ele><time>2026-05-01T10:30:49Z</time></trkpt><trkpt lat="43.447682515146305" lon="-3.8660513672315786"><ele>45.0</ele><time>2026-05-01T10:30:50Z</time></trkpt><trkpt lat="43.44765797587487" lon="-3.8661319111209123"><ele>45.0</ele><time>2026-05-01T10:30:51Z</time></trkpt><trkpt lat="43.447634641251554" lon="-3.8662562414138195"><ele>45.0</ele><time>2026-05-01T10:31:23.001Z</time></trkpt><trkpt lat="43.44758737765655" lon="-3.8664115642317363"><ele>44.42857142857142</ele><time>2026-05-01T10:31:25.001Z</time></trkpt><trkpt lat="43.447613036161876" lon="-3.8665168595218273"><ele>43.85714285714286</ele><time>2026-05-01T10:31:26.001Z</time></trkpt><trkpt lat="43.44763935871478" lon="-3.866606715005616"><ele>43.285714285714285</ele><time>2026-05-01T10:31:27.001Z</time></trkpt><trkpt lat="43.44763909437298" lon="-3.8666952213162484"><ele>42.71428571428571</ele><time>2026-05-01T10:31:28.001Z</time></trkpt><trkpt lat="43.447606380983565" lon="-3.8667722717902113"><ele>42.14285714285714</ele><time>2026-05-01T10:31:29.001Z</time></trkpt><trkpt lat="43.447548800349146" lon="-3.8668387461978306"><ele>41.57142857142857</ele><time>2026-05-01T10:31:30.001Z</time></trkpt><trkpt lat="43.44747671529148" lon="-3.8668832695934188"><ele>41.0</ele><time>2026-05-01T10:31:31.001Z</time></trkpt><trkpt lat="43.44743144048794" lon="-3.8669738004991183"><ele>40.599999999999994</ele><time>2026-05-01T10:31:32.001Z</time></trkpt><trkpt lat="43.447383389227646" lon="-3.8670708155327107"><ele>40.199999999999996</ele><time>2026-05-01T10:31:33.001Z</time></trkpt><trkpt lat="43.44735259858485" lon="-3.867185292127249"><ele>39.8</ele><time>2026-05-01T10:31:34.002Z</time></trkpt><trkpt lat="43.44732210477265" lon="-3.8673060872018183"><ele>39.4</ele><time>2026-05-01T10:31:35.002Z</time></trkpt><trkpt lat="43.44728662124224" lon="-3.867430174073611"><ele>39.0</ele><time>2026-05-01T10:31:36.002Z</time></trkpt><trkpt lat="43.44725063635193" lon="-3.867556923687878"><ele>38.8</ele><time>2026-05-01T10:31:37.002Z</time></trkpt><trkpt lat="43.447214993919964" lon="-3.8676849397628024"><ele>38.599999999999994</ele><time>2026-05-01T10:31:38.002Z</time></trkpt><trkpt lat="43.44717887546534" lon="-3.8678090815157575"><ele>38.4</ele><time>2026-05-01T10:31:39.002Z</time></trkpt><trkpt lat="43.44714053305457" lon="-3.86793543750978"><ele>38.199999999999996</ele><time>2026-05-01T10:31:40.002Z</time></trkpt><trkpt lat="43.447104456500455" lon="-3.8680644478064066"><ele>38.0</ele><time>2026-05-01T10:31:41.002Z</time></trkpt><trkpt lat="43.447070192715586" lon="-3.868193386900429"><ele>38.0</ele><time>2026-05-01T10:31:42.002Z</time></trkpt><trkpt lat="43.44703449387538" lon="-3.8683223135964218"><ele>38.0</ele><time>2026-05-01T10:31:43.002Z</time></trkpt><trkpt lat="43.44700042890671" lon="-3.868451945654253"><ele>38.0</ele><time>2026-05-01T10:31:44.002Z</time></trkpt><trkpt lat="43.446963004564516" lon="-3.86858123315808"><ele>38.0</ele><time>2026-05-01T10:31:45.002Z</time></trkpt><trkpt lat="43.446926193807734" lon="-3.868711837369302"><ele>38.0</ele><time>2026-05-01T10:31:46.002Z</time></trkpt><trkpt lat="43.44688933565665" lon="-3.868841807657197"><ele>38.0</ele><time>2026-05-01T10:31:47.002Z</time></trkpt><trkpt lat="43.4468511692469" lon="-3.868971427923109"><ele>38.0</ele><time>2026-05-01T10:31:48.002Z</time></trkpt><trkpt lat="43.44681302320576" lon="-3.8691001394479874"><ele>38.0</ele><time>2026-05-01T10:31:49.002Z</time></trkpt><trkpt lat="43.44677740090028" lon="-3.869232069627784"><ele>38.0</ele><time>2026-05-01T10:31:50.002Z</time></trkpt><trkpt lat="43.44674050549538" lon="-3.8693639715904813"><ele>38.0</ele><time>2026-05-01T10:31:51.002Z</time></trkpt><trkpt lat="43.44670527123029" lon="-3.8694955450686677"><ele>38.0</ele><time>2026-05-01T10:31:52.002Z</time></trkpt><trkpt lat="43.44666906112461" lon="-3.869626139998032"><ele>38.0</ele><time>2026-05-01T10:31:53.002Z</time></trkpt><trkpt lat="43.44663020425795" lon="-3.8697577976327904"><ele>38.0</ele><time>2026-05-01T10:31:54.002Z</time></trkpt><trkpt lat="43.446588587365234" lon="-3.86988808451578"><ele>38.0</ele><time>2026-05-01T10:31:55.002Z</time></trkpt><trkpt lat="43.446549879305145" lon="-3.870038011742524"><ele>38.0</ele><time>2026-05-01T10:31:56.002Z</time></trkpt><trkpt lat="43.44651250121244" lon="-3.870186692088061"><ele>38.25</ele><time>2026-05-01T10:31:57.002Z</time></trkpt><trkpt lat="43.446473555774126" lon="-3.8703754136552475"><ele>38.5</ele><time>2026-05-01T10:31:58.002Z</time></trkpt><trkpt lat="43.44643862096904" lon="-3.8705576410348277"><ele>38.75</ele><time>2026-05-01T10:31:59.002Z</time></trkpt><trkpt lat="43.44636554572421" lon="-3.870729210294771"><ele>39.0</ele><time>2026-05-01T10:32:00.002Z</time></trkpt><trkpt lat="43.446290266257456" lon="-3.870910618345464"><ele>39.0</ele><time>2026-05-01T10:32:01.002Z</time></trkpt><trkpt lat="43.44621063954595" lon="-3.871097324100111"><ele>39.0</ele><time>2026-05-01T10:32:02.002Z</time></trkpt><trkpt lat="43.446152065534086" lon="-3.871343413888388"><ele>39.0</ele><time>2026-05-01T10:32:03.002Z</time></trkpt><trkpt lat="43.44621264522611" lon="-3.871119821012232"><ele>39.0</ele><time>2026-05-01T10:32:04.002Z</time></trkpt><trkpt lat="43.44617412660185" lon="-3.871253568496222"><ele>39.0</ele><time>2026-05-01T10:32:05.002Z</time></trkpt><trkpt lat="43.44613207289153" lon="-3.871385520365192"><ele>39.0</ele><time>2026-05-01T10:32:06.002Z</time></trkpt><trkpt lat="43.446090831530356" lon="-3.8715186690064853"><ele>39.0</ele><time>2026-05-01T10:32:07.002Z</time></trkpt><trkpt lat="43.44604848190012" lon="-3.8716495636826735"><ele>39.0</ele><time>2026-05-01T10:32:08.002Z</time></trkpt><trkpt lat="43.446005810481815" lon="-3.871791296873588"><ele>38.2</ele><time>2026-05-01T10:32:09.002Z</time></trkpt><trkpt lat="43.44596919789433" lon="-3.8719270110247135"><ele>37.4</ele><time>2026-05-01T10:32:10.002Z</time></trkpt><trkpt lat="43.445927225528976" lon="-3.8720571061558"><ele>36.6</ele><time>2026-05-01T10:32:11.002Z</time></trkpt><trkpt lat="43.44588284401773" lon="-3.8721925567418802"><ele>35.8</ele><time>2026-05-01T10:32:12.002Z</time></trkpt><trkpt lat="43.44584368690828" lon="-3.872330942436293"><ele>35.0</ele><time>2026-05-01T10:32:13.002Z</time></trkpt><trkpt lat="43.4458006712127" lon="-3.8724678700151465"><ele>35.0</ele><time>2026-05-01T10:32:14.002Z</time></trkpt><trkpt lat="43.44575650370351" lon="-3.87260444489022"><ele>35.0</ele><time>2026-05-01T10:32:15.003Z</time></trkpt><trkpt lat="43.44571370838507" lon="-3.872734626307184"><ele>35.0</ele><time>2026-05-01T10:32:16.003Z</time></trkpt><trkpt lat="43.4456685097716" lon="-3.87287082418892"><ele>35.0</ele><time>2026-05-01T10:32:17.003Z</time></trkpt><trkpt lat="43.44564213290049" lon="-3.8730122760272305"><ele>35.0</ele><time>2026-05-01T10:32:18.003Z</time></trkpt><trkpt lat="43.44560091442981" lon="-3.873147258109144"><ele>34.8</ele><time>2026-05-01T10:32:19.003Z</time></trkpt><trkpt lat="43.44555825596109" lon="-3.873285134871697"><ele>34.6</ele><time>2026-05-01T10:32:20.003Z</time></trkpt><trkpt lat="43.445515545297695" lon="-3.873418532186038"><ele>34.4</ele><time>2026-05-01T10:32:21.003Z</time></trkpt><trkpt lat="43.44547459558054" lon="-3.8735535427643857"><ele>34.2</ele><time>2026-05-01T10:32:22.003Z</time></trkpt><trkpt lat="43.44543723466035" lon="-3.8736833783306097"><ele>34.0</ele><time>2026-05-01T10:32:23.003Z</time></trkpt><trkpt lat="43.445396637949635" lon="-3.8738161724696742"><ele>35.0</ele><time>2026-05-01T10:32:24Z</time></trkpt><trkpt lat="43.44535549091154" lon="-3.8739512665657863"><ele>36.0</ele><time>2026-05-01T10:32:25Z</time></trkpt><trkpt lat="43.44531587832154" lon="-3.874083729368173"><ele>37.0</ele><time>2026-05-01T10:32:26Z</time></trkpt><trkpt lat="43.44526885584414" lon="-3.874212621995255"><ele>38.0</ele><time>2026-05-01T10:32:27Z</time></trkpt><trkpt lat="43.44522132581844" lon="-3.8743366104415626"><ele>39.0</ele><time>2026-05-01T10:32:28Z</time></trkpt><trkpt lat="43.445162001904784" lon="-3.8744533590691237"><ele>39.0</ele><time>2026-05-01T10:32:29Z</time></trkpt><trkpt lat="43.44509686533439" lon="-3.8745669951199164"><ele>39.0</ele><time>2026-05-01T10:32:30Z</time></trkpt><trkpt lat="43.4450314542851" lon="-3.8746764083634218"><ele>39.0</ele><time>2026-05-01T10:32:31Z</time></trkpt><trkpt lat="43.444960132949475" lon="-3.874783068628531"><ele>39.0</ele><time>2026-05-01T10:32:32Z</time></trkpt><trkpt lat="43.44488862968465" lon="-3.8748838744934937"><ele>39.0</ele><time>2026-05-01T10:32:33Z</time></trkpt><trkpt lat="43.444810537080215" lon="-3.8749721502075705"><ele>39.0</ele><time>2026-05-01T10:32:34Z</time></trkpt><trkpt lat="43.4447311260124" lon="-3.8750602516061328"><ele>39.0</ele><time>2026-05-01T10:32:35Z</time></trkpt><trkpt lat="43.44465304171875" lon="-3.8751497884988115"><ele>39.0</ele><time>2026-05-01T10:32:36Z</time></trkpt><trkpt lat="43.4445747974971" lon="-3.8752413629108773"><ele>39.0</ele><time>2026-05-01T10:32:37Z</time></trkpt><trkpt lat="43.44449303273536" lon="-3.8753302824376923"><ele>39.0</ele><time>2026-05-01T10:32:38Z</time></trkpt><trkpt lat="43.44441007190711" lon="-3.8754185880474377"><ele>39.8</ele><time>2026-05-01T10:32:39Z</time></trkpt><trkpt lat="43.44433326580245" lon="-3.875506419150629"><ele>40.599999999999994</ele><time>2026-05-01T10:32:40Z</time></trkpt><trkpt lat="43.444252911342126" lon="-3.875585052658635"><ele>41.4</ele><time>2026-05-01T10:32:41Z</time></trkpt><trkpt lat="43.44416929090293" lon="-3.8756538418154007"><ele>42.199999999999996</ele><time>2026-05-01T10:32:42Z</time></trkpt><trkpt lat="43.44408063165523" lon="-3.875709527512176"><ele>43.0</ele><time>2026-05-01T10:32:43Z</time></trkpt><trkpt lat="43.44399206692351" lon="-3.8757445737932015"><ele>43.0</ele><time>2026-05-01T10:32:44Z</time></trkpt><trkpt lat="43.443904086072294" lon="-3.8757880184696005"><ele>43.0</ele><time>2026-05-01T10:32:45Z</time></trkpt><trkpt lat="43.443836451738804" lon="-3.875871828206375"><ele>43.0</ele><time>2026-05-01T10:32:46Z</time></trkpt><trkpt lat="43.44378393934907" lon="-3.875978260551151"><ele>43.0</ele><time>2026-05-01T10:32:47Z</time></trkpt><trkpt lat="43.44373309806046" lon="-3.876076329635642"><ele>43.0</ele><time>2026-05-01T10:32:48Z</time></trkpt><trkpt lat="43.4436687750901" lon="-3.8761454354610176"><ele>43.0</ele><time>2026-05-01T10:32:49Z</time></trkpt><trkpt lat="43.44358954184993" lon="-3.8761884478531607"><ele>42.599999999999994</ele><time>2026-05-01T10:32:50Z</time></trkpt><trkpt lat="43.443498609611645" lon="-3.876212646489987"><ele>42.199999999999996</ele><time>2026-05-01T10:32:51Z</time></trkpt><trkpt lat="43.443405171549706" lon="-3.876230248012294"><ele>41.8</ele><time>2026-05-01T10:32:52Z</time></trkpt><trkpt lat="43.443334243714574" lon="-3.876164952868597"><ele>41.4</ele><time>2026-05-01T10:32:53Z</time></trkpt><trkpt lat="43.4432594390927" lon="-3.876372968921779"><ele>41.0</ele><time>2026-05-01T10:32:54Z</time></trkpt><trkpt lat="43.44318002097485" lon="-3.876463260030778"><ele>41.0</ele><time>2026-05-01T10:32:55Z</time></trkpt><trkpt lat="43.44311245539212" lon="-3.876573940974533"><ele>41.0</ele><time>2026-05-01T10:32:56Z</time></trkpt><trkpt lat="43.44304035934224" lon="-3.8766736714728434"><ele>41.0</ele><time>2026-05-01T10:32:57Z</time></trkpt><trkpt lat="43.442968645437965" lon="-3.876769733451128"><ele>41.0</ele><time>2026-05-01T10:32:58Z</time></trkpt><trkpt lat="43.44290160369382" lon="-3.8768688508780693"><ele>41.0</ele><time>2026-05-01T10:32:59.001Z</time></trkpt><trkpt lat="43.442837504205585" lon="-3.8769668561714172"><ele>40.199999999999996</ele><time>2026-05-01T10:33:00.001Z</time></trkpt><trkpt lat="43.44278012085535" lon="-3.8770752589195814"><ele>39.4</ele><time>2026-05-01T10:33:01.001Z</time></trkpt><trkpt lat="43.44274710101213" lon="-3.877198673644943"><ele>38.6</ele><time>2026-05-01T10:33:02.001Z</time></trkpt><trkpt lat="43.44274889574152" lon="-3.8773355951951847"><ele>37.8</ele><time>2026-05-01T10:33:03.001Z</time></trkpt><trkpt lat="43.44274554476348" lon="-3.8774632527323534"><ele>37.0</ele><time>2026-05-01T10:33:04.001Z</time></trkpt><trkpt lat="43.44270635398285" lon="-3.877581657901149"><ele>36.5</ele><time>2026-05-01T10:33:05.001Z</time></trkpt><trkpt lat="43.4425654890394" lon="-3.877777017535623"><ele>36.0</ele><time>2026-05-01T10:33:07.001Z</time></trkpt><trkpt lat="43.44248900990521" lon="-3.877874052763806"><ele>35.5</ele><time>2026-05-01T10:33:08.001Z</time></trkpt><trkpt lat="43.44242736008426" lon="-3.8779940754953968"><ele>35.0</ele><time>2026-05-01T10:33:09.001Z</time></trkpt><trkpt lat="43.44236654583078" lon="-3.8781151539345378"><ele>35.0</ele><time>2026-05-01T10:33:10.001Z</time></trkpt><trkpt lat="43.44231219578161" lon="-3.8782465060750644"><ele>35.0</ele><time>2026-05-01T10:33:11.001Z</time></trkpt><trkpt lat="43.44226819809013" lon="-3.87839577477069"><ele>35.0</ele><time>2026-05-01T10:33:12.001Z</time></trkpt><trkpt lat="43.44223060740649" lon="-3.8785407485238466"><ele>35.0</ele><time>2026-05-01T10:33:13.001Z</time></trkpt><trkpt lat="43.442197240149675" lon="-3.8786908115972842"><ele>34.4</ele><time>2026-05-01T10:33:14.001Z</time></trkpt><trkpt lat="43.44216627657085" lon="-3.8788351431986685"><ele>33.8</ele><time>2026-05-01T10:33:15.001Z</time></trkpt><trkpt lat="43.44213847719799" lon="-3.8789820904788646"><ele>33.2</ele><time>2026-05-01T10:33:16.001Z</time></trkpt><trkpt lat="43.442107554148286" lon="-3.879126079960183"><ele>32.6</ele><time>2026-05-01T10:33:17.001Z</time></trkpt><trkpt lat="43.44207377253717" lon="-3.8792511152000824"><ele>32.0</ele><time>2026-05-01T10:33:18.001Z</time></trkpt><trkpt lat="43.442055501997764" lon="-3.879375920659733"><ele>32.0</ele><time>2026-05-01T10:33:19.001Z</time></trkpt><trkpt lat="43.44203636412978" lon="-3.8794757928593007"><ele>32.0</ele><time>2026-05-01T10:33:20.001Z</time></trkpt><trkpt lat="43.44198693047216" lon="-3.8796784628081684"><ele>32.0</ele><time>2026-05-01T10:33:21.001Z</time></trkpt><trkpt lat="43.4419698977886" lon="-3.8798226517605725"><ele>32.0</ele><time>2026-05-01T10:33:22.001Z</time></trkpt><trkpt lat="43.441937688938296" lon="-3.8799629392477444"><ele>32.0</ele><time>2026-05-01T10:33:23.001Z</time></trkpt><trkpt lat="43.441918324837985" lon="-3.880110605892958"><ele>32.2</ele><time>2026-05-01T10:33:24.001Z</time></trkpt><trkpt lat="43.441888031927405" lon="-3.8802498300360133"><ele>32.400000000000006</ele><time>2026-05-01T10:33:25.001Z</time></trkpt><trkpt lat="43.44185898912454" lon="-3.880387954054239"><ele>32.599999999999994</ele><time>2026-05-01T10:33:26.001Z</time></trkpt><trkpt lat="43.441827732249244" lon="-3.8805260811516793"><ele>32.8</ele><time>2026-05-01T10:33:27.001Z</time></trkpt><trkpt lat="43.441793080702126" lon="-3.880659739034161"><ele>33.0</ele><time>2026-05-01T10:33:28.001Z</time></trkpt><trkpt lat="43.441781393702044" lon="-3.8808066686062848"><ele>33.75</ele><time>2026-05-01T10:33:29.001Z</time></trkpt><trkpt lat="43.44175519722608" lon="-3.8809431973998594"><ele>34.5</ele><time>2026-05-01T10:33:30.001Z</time></trkpt><trkpt lat="43.441710488753166" lon="-3.8810977697486946"><ele>35.25</ele><time>2026-05-01T10:33:31.001Z</time></trkpt><trkpt lat="43.44169644615409" lon="-3.88124491506556"><ele>36.0</ele><time>2026-05-01T10:33:32.001Z</time></trkpt><trkpt lat="43.44165674472628" lon="-3.8814489871266837"><ele>36.0</ele><time>2026-05-01T10:33:33.001Z</time></trkpt><trkpt lat="43.44161521484408" lon="-3.8816625459463623"><ele>36.0</ele><time>2026-05-01T10:33:34.001Z</time></trkpt><trkpt lat="43.44159150778907" lon="-3.8817927075971714"><ele>36.0</ele><time>2026-05-01T10:33:36.001Z</time></trkpt><trkpt lat="43.44157001000598" lon="-3.8819300635252096"><ele>36.0</ele><time>2026-05-01T10:33:37.001Z</time></trkpt><trkpt lat="43.4415419461953" lon="-3.8820600690435225"><ele>36.4</ele><time>2026-05-01T10:33:38.002Z</time></trkpt><trkpt lat="43.4415151429993" lon="-3.882192417220274"><ele>36.8</ele><time>2026-05-01T10:33:39.002Z</time></trkpt><trkpt lat="43.441487777599214" lon="-3.8823222603784586"><ele>37.199999999999996</ele><time>2026-05-01T10:33:40.002Z</time></trkpt><trkpt lat="43.44146045561651" lon="-3.8824499785427102"><ele>37.6</ele><time>2026-05-01T10:33:41.002Z</time></trkpt><trkpt lat="43.44143601428066" lon="-3.8825861078617794"><ele>38.0</ele><time>2026-05-01T10:33:42.002Z</time></trkpt><trkpt lat="43.441409432252726" lon="-3.8827210918252586"><ele>38.199999999999996</ele><time>2026-05-01T10:33:43.002Z</time></trkpt><trkpt lat="43.441383340851594" lon="-3.882847375988924"><ele>38.4</ele><time>2026-05-01T10:33:44.002Z</time></trkpt><trkpt lat="43.44135786522236" lon="-3.882976744832051"><ele>38.599999999999994</ele><time>2026-05-01T10:33:45.002Z</time></trkpt><trkpt lat="43.441327873045445" lon="-3.883109777856778"><ele>38.8</ele><time>2026-05-01T10:33:46.002Z</time></trkpt><trkpt lat="43.441301256647094" lon="-3.8832404795263047"><ele>39.0</ele><time>2026-05-01T10:33:47.002Z</time></trkpt><trkpt lat="43.44128815281462" lon="-3.8833699000101305"><ele>39.8</ele><time>2026-05-01T10:33:48.002Z</time></trkpt><trkpt lat="43.44126318642237" lon="-3.883498522315597"><ele>40.599999999999994</ele><time>2026-05-01T10:33:49.002Z</time></trkpt><trkpt lat="43.44122482605411" lon="-3.883618106598052"><ele>41.4</ele><time>2026-05-01T10:33:50.002Z</time></trkpt><trkpt lat="43.44120176802749" lon="-3.883745371655993"><ele>42.199999999999996</ele><time>2026-05-01T10:33:51.002Z</time></trkpt><trkpt lat="43.44117443385756" lon="-3.8838764835931787"><ele>43.0</ele><time>2026-05-01T10:33:52.002Z</time></trkpt><trkpt lat="43.441165227825714" lon="-3.884001288025116"><ele>43.0</ele><time>2026-05-01T10:33:53.002Z</time></trkpt><trkpt lat="43.44114275416283" lon="-3.884124389957418"><ele>43.0</ele><time>2026-05-01T10:33:54.002Z</time></trkpt><trkpt lat="43.44110425085356" lon="-3.884250167478478"><ele>43.0</ele><time>2026-05-01T10:33:55.002Z</time></trkpt><trkpt lat="43.441094665112146" lon="-3.884382646263446"><ele>43.0</ele><time>2026-05-01T10:33:56.002Z</time></trkpt><trkpt lat="43.441066713111475" lon="-3.8845089068505594"><ele>43.0</ele><time>2026-05-01T10:33:57.002Z</time></trkpt><trkpt lat="43.4410483100344" lon="-3.884641359507988"><ele>42.8</ele><time>2026-05-01T10:33:58.002Z</time></trkpt><trkpt lat="43.44102189704291" lon="-3.8847706035726035"><ele>42.599999999999994</ele><time>2026-05-01T10:33:59.002Z</time></trkpt><trkpt lat="43.441004051145626" lon="-3.8849041489773075"><ele>42.400000000000006</ele><time>2026-05-01T10:34:00.002Z</time></trkpt><trkpt lat="43.44097996808749" lon="-3.8850345874354892"><ele>42.2</ele><time>2026-05-01T10:34:01.002Z</time></trkpt><trkpt lat="43.44095684357335" lon="-3.8851689749756826"><ele>42.0</ele><time>2026-05-01T10:34:02.002Z</time></trkpt><trkpt lat="43.440923285104155" lon="-3.885305339478502"><ele>42.0</ele><time>2026-05-01T10:34:03.002Z</time></trkpt><trkpt lat="43.440884722069875" lon="-3.8854434119147547"><ele>42.0</ele><time>2026-05-01T10:34:04.002Z</time></trkpt><trkpt lat="43.44084076587799" lon="-3.885588441626664"><ele>42.0</ele><time>2026-05-01T10:34:05.002Z</time></trkpt><trkpt lat="43.44079504181148" lon="-3.8857233160241136"><ele>42.0</ele><time>2026-05-01T10:34:06.002Z</time></trkpt><trkpt lat="43.440751325140894" lon="-3.8858574857996033"><ele>42.0</ele><time>2026-05-01T10:34:07.002Z</time></trkpt><trkpt lat="43.440709968547786" lon="-3.886000155811359"><ele>41.2</ele><time>2026-05-01T10:34:08.002Z</time></trkpt><trkpt lat="43.440675249194754" lon="-3.886130808294077"><ele>40.400000000000006</ele><time>2026-05-01T10:34:09.002Z</time></trkpt><trkpt lat="43.44063640370234" lon="-3.886262799707041"><ele>39.599999999999994</ele><time>2026-05-01T10:34:10.002Z</time></trkpt><trkpt lat="43.44059582335342" lon="-3.8863938158373506"><ele>38.8</ele><time>2026-05-01T10:34:11.002Z</time></trkpt><trkpt lat="43.440558325527924" lon="-3.886526309225731"><ele>38.0</ele><time>2026-05-01T10:34:12.002Z</time></trkpt><trkpt lat="43.44052416348841" lon="-3.886659422499954"><ele>37.4</ele><time>2026-05-01T10:34:13.002Z</time></trkpt><trkpt lat="43.44048476272427" lon="-3.8867937249899436"><ele>36.8</ele><time>2026-05-01T10:34:14.002Z</time></trkpt><trkpt lat="43.44044506492121" lon="-3.8869293159277745"><ele>36.2</ele><time>2026-05-01T10:34:15.002Z</time></trkpt><trkpt lat="43.44040434648369" lon="-3.8870620684818586"><ele>35.6</ele><time>2026-05-01T10:34:16.002Z</time></trkpt><trkpt lat="43.44036266068117" lon="-3.8871961347611252"><ele>35.0</ele><time>2026-05-01T10:34:17.002Z</time></trkpt><trkpt lat="43.44032366212151" lon="-3.8873263912464107"><ele>34.8</ele><time>2026-05-01T10:34:18.003Z</time></trkpt><trkpt lat="43.440281238238704" lon="-3.887451447852322"><ele>34.6</ele><time>2026-05-01T10:34:19.003Z</time></trkpt><trkpt lat="43.44022853110748" lon="-3.8875701710137123"><ele>34.4</ele><time>2026-05-01T10:34:20.003Z</time></trkpt><trkpt lat="43.44017528253588" lon="-3.8876846037710657"><ele>34.2</ele><time>2026-05-01T10:34:21.003Z</time></trkpt><trkpt lat="43.44012045652846" lon="-3.8877916330237983"><ele>34.0</ele><time>2026-05-01T10:34:22.003Z</time></trkpt><trkpt lat="43.44007690470146" lon="-3.8878891357703576"><ele>33.833333333333336</ele><time>2026-05-01T10:34:23.003Z</time></trkpt><trkpt lat="43.44005763117183" lon="-3.887989436421558"><ele>33.66666666666667</ele><time>2026-05-01T10:34:24.003Z</time></trkpt><trkpt lat="43.44005678745404" lon="-3.8881020855597552"><ele>33.5</ele><time>2026-05-01T10:34:25.003Z</time></trkpt><trkpt lat="43.440065771800086" lon="-3.888208799943464"><ele>33.333333333333336</ele><time>2026-05-01T10:34:26.003Z</time></trkpt><trkpt lat="43.44007394849181" lon="-3.8883442068595446"><ele>33.166666666666664</ele><time>2026-05-01T10:34:27.003Z</time></trkpt><trkpt lat="43.44002012410161" lon="-3.8884503957899983"><ele>33.0</ele><time>2026-05-01T10:34:28.003Z</time></trkpt><trkpt lat="43.4398111772214" lon="-3.8885559207372995"><ele>33.0</ele><time>2026-05-01T10:34:30Z</time></trkpt><trkpt lat="43.439688148978455" lon="-3.888612386847681"><ele>33.0</ele><time>2026-05-01T10:34:31Z</time></trkpt><trkpt lat="43.43983600900466" lon="-3.8888204670916955"><ele>33.0</ele><time>2026-05-01T10:34:32Z</time></trkpt><trkpt lat="43.439823652826476" lon="-3.8889443829074812"><ele>33.0</ele><time>2026-05-01T10:34:33Z</time></trkpt><trkpt lat="43.43980425371026" lon="-3.889077648692122"><ele>33.0</ele><time>2026-05-01T10:34:34Z</time></trkpt><trkpt lat="43.43977592466152" lon="-3.8892134521753436"><ele>33.0</ele><time>2026-05-01T10:34:35Z</time></trkpt><trkpt lat="43.439738564378125" lon="-3.889346601303942"><ele>33.0</ele><time>2026-05-01T10:34:36Z</time></trkpt><trkpt lat="43.43970414474816" lon="-3.889469457925449"><ele>33.0</ele><time>2026-05-01T10:34:37Z</time></trkpt><trkpt lat="43.43966173736932" lon="-3.8896055805792398"><ele>33.0</ele><time>2026-05-01T10:34:38Z</time></trkpt><trkpt lat="43.439630519898245" lon="-3.8897262278135387"><ele>32.8</ele><time>2026-05-01T10:34:39Z</time></trkpt><trkpt lat="43.43958993077913" lon="-3.889866028491859"><ele>32.599999999999994</ele><time>2026-05-01T10:34:40Z</time></trkpt><trkpt lat="43.43955384594744" lon="-3.8899909923873692"><ele>32.400000000000006</ele><time>2026-05-01T10:34:41Z</time></trkpt><trkpt lat="43.439525886646855" lon="-3.890123900439413"><ele>32.2</ele><time>2026-05-01T10:34:42Z</time></trkpt><trkpt lat="43.43951724418997" lon="-3.8902572553279926"><ele>32.0</ele><time>2026-05-01T10:34:43Z</time></trkpt><trkpt lat="43.439526163120114" lon="-3.890391877681419"><ele>31.8</ele><time>2026-05-01T10:34:44Z</time></trkpt><trkpt lat="43.43954259673866" lon="-3.8905201468334942"><ele>31.6</ele><time>2026-05-01T10:34:45Z</time></trkpt><trkpt lat="43.439536654058955" lon="-3.890641836770552"><ele>31.400000000000002</ele><time>2026-05-01T10:34:46Z</time></trkpt><trkpt lat="43.439499915545866" lon="-3.890753987171049"><ele>31.200000000000003</ele><time>2026-05-01T10:34:47Z</time></trkpt><trkpt lat="43.43943882088611" lon="-3.8908448526971253"><ele>31.0</ele><time>2026-05-01T10:34:48Z</time></trkpt><trkpt lat="43.43935731498676" lon="-3.8909173352916993"><ele>31.200000000000003</ele><time>2026-05-01T10:34:49Z</time></trkpt><trkpt lat="43.43927867211273" lon="-3.8909955821339435"><ele>31.400000000000002</ele><time>2026-05-01T10:34:50Z</time></trkpt><trkpt lat="43.43921458595054" lon="-3.8910996698594964"><ele>31.6</ele><time>2026-05-01T10:34:51Z</time></trkpt><trkpt lat="43.43916077420313" lon="-3.89121988497013"><ele>31.8</ele><time>2026-05-01T10:34:52Z</time></trkpt><trkpt lat="43.43913745500128" lon="-3.8913578934106576"><ele>32.0</ele><time>2026-05-01T10:34:53Z</time></trkpt><trkpt lat="43.4390983964391" lon="-3.8914914807551737"><ele>32.0</ele><time>2026-05-01T10:34:54Z</time></trkpt><trkpt lat="43.43904396265103" lon="-3.8916182662206054"><ele>32.0</ele><time>2026-05-01T10:34:55Z</time></trkpt><trkpt lat="43.43900500545855" lon="-3.89175149983991"><ele>32.0</ele><time>2026-05-01T10:34:56Z</time></trkpt><trkpt lat="43.43896710189405" lon="-3.891887633712735"><ele>32.0</ele><time>2026-05-01T10:34:57.001Z</time></trkpt><trkpt lat="43.43893240239226" lon="-3.8920289503852277"><ele>32.0</ele><time>2026-05-01T10:34:58.001Z</time></trkpt><trkpt lat="43.43889407093384" lon="-3.8921652289025075"><ele>31.8</ele><time>2026-05-01T10:34:59.001Z</time></trkpt><trkpt lat="43.438859738967" lon="-3.8922960620084424"><ele>31.6</ele><time>2026-05-01T10:35:00.001Z</time></trkpt><trkpt lat="43.43882033725204" lon="-3.892423683393881"><ele>31.400000000000002</ele><time>2026-05-01T10:35:01.001Z</time></trkpt><trkpt lat="43.43878142303468" lon="-3.8925524096100763"><ele>31.200000000000003</ele><time>2026-05-01T10:35:02.001Z</time></trkpt><trkpt lat="43.4387484286692" lon="-3.8926818205853766"><ele>31.0</ele><time>2026-05-01T10:35:03.001Z</time></trkpt><trkpt lat="43.43871005587474" lon="-3.892809280499951"><ele>31.4</ele><time>2026-05-01T10:35:04.001Z</time></trkpt><trkpt lat="43.4386641796813" lon="-3.8929321930432463"><ele>31.8</ele><time>2026-05-01T10:35:05.001Z</time></trkpt><trkpt lat="43.43862236728633" lon="-3.8930623728747595"><ele>32.199999999999996</ele><time>2026-05-01T10:35:06.001Z</time></trkpt><trkpt lat="43.43858556544417" lon="-3.893196066443364"><ele>32.6</ele><time>2026-05-01T10:35:07.001Z</time></trkpt><trkpt lat="43.438548015723846" lon="-3.8933315313116403"><ele>33.0</ele><time>2026-05-01T10:35:08.001Z</time></trkpt><trkpt lat="43.438508180053944" lon="-3.8934639787936898"><ele>33.199999999999996</ele><time>2026-05-01T10:35:09.001Z</time></trkpt><trkpt lat="43.43847622426038" lon="-3.8935923039817504"><ele>33.4</ele><time>2026-05-01T10:35:10.001Z</time></trkpt><trkpt lat="43.438436108798825" lon="-3.8937175258211845"><ele>33.599999999999994</ele><time>2026-05-01T10:35:11.001Z</time></trkpt><trkpt lat="43.43839557873376" lon="-3.8938459977114914"><ele>33.8</ele><time>2026-05-01T10:35:12.001Z</time></trkpt><trkpt lat="43.43835713526405" lon="-3.893973947604642"><ele>34.0</ele><time>2026-05-01T10:35:13.001Z</time></trkpt><trkpt lat="43.43831942468198" lon="-3.8941041976308757"><ele>34.0</ele><time>2026-05-01T10:35:14.001Z</time></trkpt><trkpt lat="43.43827947388913" lon="-3.894236392543584"><ele>34.0</ele><time>2026-05-01T10:35:15.001Z</time></trkpt><trkpt lat="43.43824313458817" lon="-3.8943734427674195"><ele>34.0</ele><time>2026-05-01T10:35:16.001Z</time></trkpt><trkpt lat="43.43820037126365" lon="-3.894506598992077"><ele>34.0</ele><time>2026-05-01T10:35:17.001Z</time></trkpt><trkpt lat="43.43815917553334" lon="-3.8946492728919764"><ele>34.0</ele><time>2026-05-01T10:35:18.001Z</time></trkpt><trkpt lat="43.43811684124845" lon="-3.8947929253202562"><ele>34.0</ele><time>2026-05-01T10:35:19.001Z</time></trkpt><trkpt lat="43.438075943861186" lon="-3.89493264921435"><ele>34.0</ele><time>2026-05-01T10:35:20.001Z</time></trkpt><trkpt lat="43.43803380099744" lon="-3.8950755952357325"><ele>34.0</ele><time>2026-05-01T10:35:21.001Z</time></trkpt><trkpt lat="43.437991745887494" lon="-3.8952155794274503"><ele>34.0</ele><time>2026-05-01T10:35:22.001Z</time></trkpt><trkpt lat="43.437949072605974" lon="-3.895355117710323"><ele>34.0</ele><time>2026-05-01T10:35:23.001Z</time></trkpt><trkpt lat="43.43790493871866" lon="-3.895493808656068"><ele>34.0</ele><time>2026-05-01T10:35:24.001Z</time></trkpt><trkpt lat="43.437862786617266" lon="-3.895632097554972"><ele>34.0</ele><time>2026-05-01T10:35:25.001Z</time></trkpt><trkpt lat="43.437821668428754" lon="-3.895770208145234"><ele>34.0</ele><time>2026-05-01T10:35:26.001Z</time></trkpt><trkpt lat="43.437782525476486" lon="-3.895911252663626"><ele>34.0</ele><time>2026-05-01T10:35:27.001Z</time></trkpt><trkpt lat="43.43774839107302" lon="-3.896052034478176"><ele>34.0</ele><time>2026-05-01T10:35:28.001Z</time></trkpt><trkpt lat="43.437718902885116" lon="-3.896187553915685"><ele>34.5</ele><time>2026-05-01T10:35:29.001Z</time></trkpt><trkpt lat="43.43771108345998" lon="-3.8963436134586313"><ele>35.0</ele><time>2026-05-01T10:35:30.001Z</time></trkpt><trkpt lat="43.437723972455004" lon="-3.896558197893677"><ele>35.5</ele><time>2026-05-01T10:35:31.001Z</time></trkpt><trkpt lat="43.437729812365035" lon="-3.8967743696308577"><ele>36.0</ele><time>2026-05-01T10:35:32.001Z</time></trkpt><trkpt lat="43.437773292527005" lon="-3.8968482449629747"><ele>36.2</ele><time>2026-05-01T10:35:33.001Z</time></trkpt><trkpt lat="43.43775345903039" lon="-3.8969313671505916"><ele>36.400000000000006</ele><time>2026-05-01T10:35:34.001Z</time></trkpt><trkpt lat="43.43774607470302" lon="-3.89705651287991"><ele>36.6</ele><time>2026-05-01T10:35:35.001Z</time></trkpt><trkpt lat="43.43774813656407" lon="-3.8972052413592984"><ele>36.800000000000004</ele><time>2026-05-01T10:35:36.001Z</time></trkpt><trkpt lat="43.43775045489382" lon="-3.89735066247179"><ele>37.0</ele><time>2026-05-01T10:35:37.001Z</time></trkpt><trkpt lat="43.437755889678584" lon="-3.8974925174803268"><ele>37.0</ele><time>2026-05-01T10:35:38.001Z</time></trkpt><trkpt lat="43.43776035032319" lon="-3.897635294354135"><ele>37.0</ele><time>2026-05-01T10:35:39.001Z</time></trkpt><trkpt lat="43.437768455735956" lon="-3.897782852406439"><ele>37.0</ele><time>2026-05-01T10:35:40.002Z</time></trkpt><trkpt lat="43.43778050698318" lon="-3.897922323483106"><ele>37.0</ele><time>2026-05-01T10:35:41.002Z</time></trkpt><trkpt lat="43.43778915891681" lon="-3.8980838373993136"><ele>37.0</ele><time>2026-05-01T10:35:42.002Z</time></trkpt><trkpt lat="43.43780587242748" lon="-3.898219745597369"><ele>37.0</ele><time>2026-05-01T10:35:43.002Z</time></trkpt><trkpt lat="43.4378149506659" lon="-3.8983509170325616"><ele>37.0</ele><time>2026-05-01T10:35:44.002Z</time></trkpt><trkpt lat="43.43781974990683" lon="-3.8984794077502904"><ele>37.0</ele><time>2026-05-01T10:35:45.002Z</time></trkpt><trkpt lat="43.43782212869329" lon="-3.8986039056874127"><ele>37.0</ele><time>2026-05-01T10:35:46.002Z</time></trkpt><trkpt lat="43.43782298707322" lon="-3.8987205151542206"><ele>37.0</ele><time>2026-05-01T10:35:47.002Z</time></trkpt><trkpt lat="43.43783356256858" lon="-3.8988325983508845"><ele>37.0</ele><time>2026-05-01T10:35:48.002Z</time></trkpt><trkpt lat="43.43786192848207" lon="-3.898935151224857"><ele>36.75</ele><time>2026-05-01T10:35:49.002Z</time></trkpt><trkpt lat="43.437913359681616" lon="-3.899019521763468"><ele>36.5</ele><time>2026-05-01T10:35:50.002Z</time></trkpt><trkpt lat="43.43795973588408" lon="-3.89908339785165"><ele>36.25</ele><time>2026-05-01T10:35:51.002Z</time></trkpt><trkpt lat="43.438025434785146" lon="-3.899053233659375"><ele>36.0</ele><time>2026-05-01T10:35:54.002Z</time></trkpt><trkpt lat="43.437817581112235" lon="-3.899483840189897"><ele>36.00000000000001</ele><time>2026-05-01T10:35:56.002Z</time></trkpt><trkpt lat="43.437815011321604" lon="-3.8995839085605453"><ele>36.0</ele><time>2026-05-01T10:35:57.002Z</time></trkpt><trkpt lat="43.43780985487958" lon="-3.899690345297952"><ele>36.0</ele><time>2026-05-01T10:35:58.002Z</time></trkpt><trkpt lat="43.437801129074316" lon="-3.899796065227445"><ele>36.0</ele><time>2026-05-01T10:35:59.002Z</time></trkpt><trkpt lat="43.43779017387142" lon="-3.899885973990398"><ele>36.0</ele><time>2026-05-01T10:36:00.002Z</time></trkpt><trkpt lat="43.437775986789184" lon="-3.8999880942249465"><ele>36.00000000000001</ele><time>2026-05-01T10:36:01.002Z</time></trkpt><trkpt lat="43.43776540546508" lon="-3.9000972464684214"><ele>36.0</ele><time>2026-05-01T10:36:02.002Z</time></trkpt><trkpt lat="43.43774558832128" lon="-3.9002110086373283"><ele>35.8</ele><time>2026-05-01T10:36:03.002Z</time></trkpt><trkpt lat="43.43772255601203" lon="-3.9003250872578077"><ele>35.6</ele><time>2026-05-01T10:36:04.002Z</time></trkpt><trkpt lat="43.437698924872585" lon="-3.900442005741123"><ele>35.4</ele><time>2026-05-01T10:36:05.002Z</time></trkpt><trkpt lat="43.437672309239204" lon="-3.900555926099668"><ele>35.2</ele><time>2026-05-01T10:36:06.002Z</time></trkpt><trkpt lat="43.43764554450965" lon="-3.9006785526821153"><ele>35.0</ele><time>2026-05-01T10:36:07.002Z</time></trkpt><trkpt lat="43.43761684481105" lon="-3.9008067258126258"><ele>35.0</ele><time>2026-05-01T10:36:08.002Z</time></trkpt><trkpt lat="43.43759253551233" lon="-3.9009379976369942"><ele>35.0</ele><time>2026-05-01T10:36:09.002Z</time></trkpt><trkpt lat="43.437566428218425" lon="-3.9010660111276123"><ele>35.0</ele><time>2026-05-01T10:36:10.002Z</time></trkpt><trkpt lat="43.43753904560063" lon="-3.9011992574037966"><ele>35.0</ele><time>2026-05-01T10:36:11.002Z</time></trkpt><trkpt lat="43.43750910422438" lon="-3.9013333456971018"><ele>35.0</ele><time>2026-05-01T10:36:12.002Z</time></trkpt><trkpt lat="43.43747702579062" lon="-3.901466241271214"><ele>35.0</ele><time>2026-05-01T10:36:13.002Z</time></trkpt><trkpt lat="43.43744468189451" lon="-3.9016027932195025"><ele>35.0</ele><time>2026-05-01T10:36:14.002Z</time></trkpt><trkpt lat="43.43741005784882" lon="-3.901737901165721"><ele>35.0</ele><time>2026-05-01T10:36:15.002Z</time></trkpt><trkpt lat="43.437378267169045" lon="-3.9018744100879075"><ele>35.0</ele><time>2026-05-01T10:36:16.002Z</time></trkpt><trkpt lat="43.437335360580555" lon="-3.902021588045453"><ele>35.0</ele><time>2026-05-01T10:36:17.002Z</time></trkpt><trkpt lat="43.43732248780859" lon="-3.902161798995374"><ele>35.0</ele><time>2026-05-01T10:36:18.002Z</time></trkpt><trkpt lat="43.43729466203211" lon="-3.902287621170582"><ele>35.0</ele><time>2026-05-01T10:36:19.002Z</time></trkpt><trkpt lat="43.437257374645576" lon="-3.9024548226449456"><ele>35.0</ele><time>2026-05-01T10:36:20.003Z</time></trkpt><trkpt lat="43.437215561529904" lon="-3.9025896419002177"><ele>35.0</ele><time>2026-05-01T10:36:21.003Z</time></trkpt><trkpt lat="43.43719010747066" lon="-3.9027261877431187"><ele>35.0</ele><time>2026-05-01T10:36:22.003Z</time></trkpt><trkpt lat="43.437173349824604" lon="-3.902830948147732"><ele>36.0</ele><time>2026-05-01T10:36:23.003Z</time></trkpt><trkpt lat="43.437091171990176" lon="-3.9031267935949363"><ele>37.0</ele><time>2026-05-01T10:36:25.003Z</time></trkpt><trkpt lat="43.43705527947197" lon="-3.9033617954927458"><ele>38.0</ele><time>2026-05-01T10:36:26.003Z</time></trkpt><trkpt lat="43.43699959504921" lon="-3.9035473864752666"><ele>38.0</ele><time>2026-05-01T10:36:27.003Z</time></trkpt><trkpt lat="43.43697170801807" lon="-3.9036638219435966"><ele>38.0</ele><time>2026-05-01T10:36:28.003Z</time></trkpt><trkpt lat="43.43692465784024" lon="-3.903821379112697"><ele>38.0</ele><time>2026-05-01T10:36:30.003Z</time></trkpt><trkpt lat="43.436893119775284" lon="-3.90395782371713"><ele>38.0</ele><time>2026-05-01T10:36:31.003Z</time></trkpt><trkpt lat="43.43686580714188" lon="-3.9040938452685157"><ele>38.0</ele><time>2026-05-01T10:36:32.003Z</time></trkpt><trkpt lat="43.436838254085266" lon="-3.904234117766441"><ele>37.8</ele><time>2026-05-01T10:36:33.003Z</time></trkpt><trkpt lat="43.43681002151569" lon="-3.904371862917608"><ele>37.599999999999994</ele><time>2026-05-01T10:36:34.003Z</time></trkpt><trkpt lat="43.43678060460619" lon="-3.904505599567905"><ele>37.400000000000006</ele><time>2026-05-01T10:36:35.003Z</time></trkpt><trkpt lat="43.43674604400369" lon="-3.9046417666636972"><ele>37.2</ele><time>2026-05-01T10:36:36Z</time></trkpt><trkpt lat="43.4367169294669" lon="-3.904778131061896"><ele>37.0</ele><time>2026-05-01T10:36:37Z</time></trkpt><trkpt lat="43.436691071579745" lon="-3.9049151930142982"><ele>37.0</ele><time>2026-05-01T10:36:38Z</time></trkpt><trkpt lat="43.43667948247376" lon="-3.905059457649703"><ele>37.0</ele><time>2026-05-01T10:36:39Z</time></trkpt><trkpt lat="43.43664927571953" lon="-3.905194208094123"><ele>37.0</ele><time>2026-05-01T10:36:40Z</time></trkpt><trkpt lat="43.43660474680426" lon="-3.9053191977962243"><ele>37.0</ele><time>2026-05-01T10:36:41Z</time></trkpt><trkpt lat="43.436591034651514" lon="-3.9054577320127497"><ele>37.0</ele><time>2026-05-01T10:36:42Z</time></trkpt><trkpt lat="43.43656202698821" lon="-3.9055914947368975"><ele>37.2</ele><time>2026-05-01T10:36:43Z</time></trkpt><trkpt lat="43.43653307835981" lon="-3.9057249852318856"><ele>37.400000000000006</ele><time>2026-05-01T10:36:44Z</time></trkpt><trkpt lat="43.43650513543037" lon="-3.905853838160561"><ele>37.599999999999994</ele><time>2026-05-01T10:36:45Z</time></trkpt><trkpt lat="43.436476490506905" lon="-3.9059859281886027"><ele>37.8</ele><time>2026-05-01T10:36:46Z</time></trkpt><trkpt lat="43.43644743018219" lon="-3.9061186283338456"><ele>38.0</ele><time>2026-05-01T10:36:47Z</time></trkpt><trkpt lat="43.436418940456356" lon="-3.906247006878601"><ele>38.166666666666664</ele><time>2026-05-01T10:36:48Z</time></trkpt><trkpt lat="43.43639113342165" lon="-3.906372309117489"><ele>38.33333333333333</ele><time>2026-05-01T10:36:49Z</time></trkpt><trkpt lat="43.43636492828408" lon="-3.9064760396434295"><ele>38.5</ele><time>2026-05-01T10:36:50Z</time></trkpt><trkpt lat="43.43637685468021" lon="-3.906596584571106"><ele>38.666666666666664</ele><time>2026-05-01T10:36:51Z</time></trkpt><trkpt lat="43.43639584689218" lon="-3.9067038910154626"><ele>38.833333333333336</ele><time>2026-05-01T10:36:52Z</time></trkpt><trkpt lat="43.436422795379464" lon="-3.9068014299136906"><ele>39.0</ele><time>2026-05-01T10:36:53Z</time></trkpt><trkpt lat="43.43645011748839" lon="-3.9069011270526253"><ele>39.333333333333336</ele><time>2026-05-01T10:36:54Z</time></trkpt><trkpt lat="43.436440152824325" lon="-3.9070089683313216"><ele>39.666666666666664</ele><time>2026-05-01T10:36:55Z</time></trkpt><trkpt lat="43.43641846146612" lon="-3.907102459708986"><ele>40.0</ele><time>2026-05-01T10:36:56Z</time></trkpt><trkpt lat="43.436320584647284" lon="-3.9071610869650817"><ele>40.33333333333333</ele><time>2026-05-01T10:36:57Z</time></trkpt><trkpt lat="43.436253103741656" lon="-3.9072300472285755"><ele>40.666666666666664</ele><time>2026-05-01T10:36:58Z</time></trkpt><trkpt lat="43.436189777915594" lon="-3.9073144052840596"><ele>41.0</ele><time>2026-05-01T10:36:59Z</time></trkpt><trkpt lat="43.436131659135015" lon="-3.9074154525467626"><ele>41.8</ele><time>2026-05-01T10:37:00Z</time></trkpt><trkpt lat="43.436082986753334" lon="-3.907522485053875"><ele>42.599999999999994</ele><time>2026-05-01T10:37:01Z</time></trkpt><trkpt lat="43.43603980801428" lon="-3.907635767014054"><ele>43.4</ele><time>2026-05-01T10:37:02Z</time></trkpt><trkpt lat="43.435992480654235" lon="-3.9077468158883346"><ele>44.2</ele><time>2026-05-01T10:37:03Z</time></trkpt><trkpt lat="43.435944008845304" lon="-3.9078593594700477"><ele>45.0</ele><time>2026-05-01T10:37:04Z</time></trkpt><trkpt lat="43.43589458854208" lon="-3.9079749945836757"><ele>45.0</ele><time>2026-05-01T10:37:05Z</time></trkpt><trkpt lat="43.4358417887892" lon="-3.9080883075605786"><ele>45.0</ele><time>2026-05-01T10:37:06.001Z</time></trkpt><trkpt lat="43.43578835113465" lon="-3.908205290875341"><ele>45.0</ele><time>2026-05-01T10:37:07.001Z</time></trkpt><trkpt lat="43.435735373986574" lon="-3.9083159268470617"><ele>45.0</ele><time>2026-05-01T10:37:08.001Z</time></trkpt><trkpt lat="43.4356838916426" lon="-3.9084287859557616"><ele>45.0</ele><time>2026-05-01T10:37:09.001Z</time></trkpt><trkpt lat="43.43563256864069" lon="-3.908539307409651"><ele>45.0</ele><time>2026-05-01T10:37:10.001Z</time></trkpt><trkpt lat="43.435582117346776" lon="-3.908652770571561"><ele>45.0</ele><time>2026-05-01T10:37:11.001Z</time></trkpt><trkpt lat="43.435532449353" lon="-3.9087652747270187"><ele>45.0</ele><time>2026-05-01T10:37:12.001Z</time></trkpt><trkpt lat="43.435480029866014" lon="-3.9088766464677502"><ele>45.0</ele><time>2026-05-01T10:37:13.001Z</time></trkpt><trkpt lat="43.43542678486382" lon="-3.9089838854439978"><ele>45.0</ele><time>2026-05-01T10:37:14.001Z</time></trkpt><trkpt lat="43.435368479536635" lon="-3.90909301356109"><ele>46.0</ele><time>2026-05-01T10:37:15.001Z</time></trkpt><trkpt lat="43.43531179514879" lon="-3.9092029257972776"><ele>47.0</ele><time>2026-05-01T10:37:16.001Z</time></trkpt><trkpt lat="43.435249693987345" lon="-3.9093137633510935"><ele>48.0</ele><time>2026-05-01T10:37:17.001Z</time></trkpt><trkpt lat="43.4351890745007" lon="-3.909423598281534"><ele>49.0</ele><time>2026-05-01T10:37:18.001Z</time></trkpt><trkpt lat="43.435127305284226" lon="-3.909535893614124"><ele>50.0</ele><time>2026-05-01T10:37:19.001Z</time></trkpt><trkpt lat="43.43506972543487" lon="-3.9096553177013647"><ele>50.2</ele><time>2026-05-01T10:37:20.001Z</time></trkpt><trkpt lat="43.4350053390935" lon="-3.909764678967624"><ele>50.4</ele><time>2026-05-01T10:37:21.001Z</time></trkpt><trkpt lat="43.434941008690245" lon="-3.909884775250629"><ele>50.599999999999994</ele><time>2026-05-01T10:37:22.001Z</time></trkpt><trkpt lat="43.434878710078635" lon="-3.910005823697693"><ele>50.8</ele><time>2026-05-01T10:37:23.001Z</time></trkpt><trkpt lat="43.43481246097027" lon="-3.91012362569664"><ele>51.0</ele><time>2026-05-01T10:37:24.001Z</time></trkpt><trkpt lat="43.43474520051831" lon="-3.9102384395175003"><ele>51.4</ele><time>2026-05-01T10:37:25.001Z</time></trkpt><trkpt lat="43.43467838388425" lon="-3.9103488452083788"><ele>51.8</ele><time>2026-05-01T10:37:26.001Z</time></trkpt><trkpt lat="43.43461409834337" lon="-3.910466445076907"><ele>52.199999999999996</ele><time>2026-05-01T10:37:27.001Z</time></trkpt><trkpt lat="43.434550236640426" lon="-3.9105830785557236"><ele>52.599999999999994</ele><time>2026-05-01T10:37:28.001Z</time></trkpt><trkpt lat="43.43448465763382" lon="-3.9106985660210154"><ele>53.0</ele><time>2026-05-01T10:37:29.001Z</time></trkpt><trkpt lat="43.43441781438187" lon="-3.910812525703835"><ele>53.4</ele><time>2026-05-01T10:37:30.001Z</time></trkpt><trkpt lat="43.434355047092744" lon="-3.910930998551702"><ele>53.8</ele><time>2026-05-01T10:37:31.001Z</time></trkpt><trkpt lat="43.43429320190017" lon="-3.9110501462647163"><ele>54.2</ele><time>2026-05-01T10:37:32.001Z</time></trkpt><trkpt lat="43.43422474732998" lon="-3.911159514846095"><ele>54.6</ele><time>2026-05-01T10:37:33.001Z</time></trkpt><trkpt lat="43.43416775872357" lon="-3.911264371423696"><ele>55.0</ele><time>2026-05-01T10:37:34.001Z</time></trkpt><trkpt lat="43.43410847736488" lon="-3.9113802198642187"><ele>55.0</ele><time>2026-05-01T10:37:35.001Z</time></trkpt><trkpt lat="43.434047744380415" lon="-3.91149186447999"><ele>55.0</ele><time>2026-05-01T10:37:36.001Z</time></trkpt><trkpt lat="43.43398632278755" lon="-3.911601048498843"><ele>55.0</ele><time>2026-05-01T10:37:37.001Z</time></trkpt><trkpt lat="43.43392799979612" lon="-3.9117145628195433"><ele>55.0</ele><time>2026-05-01T10:37:38.001Z</time></trkpt><trkpt lat="43.433870534647305" lon="-3.911825134631891"><ele>55.0</ele><time>2026-05-01T10:37:39.001Z</time></trkpt><trkpt lat="43.43381257061544" lon="-3.9119333130857745"><ele>57.0</ele><time>2026-05-01T10:37:40.001Z</time></trkpt><trkpt lat="43.43375310968701" lon="-3.9120393801736064"><ele>59.0</ele><time>2026-05-01T10:37:41.001Z</time></trkpt><trkpt lat="43.43369582518269" lon="-3.9121444812889696"><ele>61.0</ele><time>2026-05-01T10:37:42.001Z</time></trkpt><trkpt lat="43.433638493878185" lon="-3.912252153053985"><ele>63.0</ele><time>2026-05-01T10:37:43.001Z</time></trkpt><trkpt lat="43.43358231214932" lon="-3.9123575167604994"><ele>65.0</ele><time>2026-05-01T10:37:44.001Z</time></trkpt><trkpt lat="43.43352583285735" lon="-3.9124607681783647"><ele>65.0</ele><time>2026-05-01T10:37:45.001Z</time></trkpt><trkpt lat="43.43347009255908" lon="-3.912559635295156"><ele>65.0</ele><time>2026-05-01T10:37:46.001Z</time></trkpt><trkpt lat="43.43341449709031" lon="-3.9126607962204476"><ele>65.0</ele><time>2026-05-01T10:37:47.002Z</time></trkpt><trkpt lat="43.433359213438976" lon="-3.9127599843800605"><ele>65.0</ele><time>2026-05-01T10:37:48.002Z</time></trkpt><trkpt lat="43.43330388836498" lon="-3.9128636645744375"><ele>65.0</ele><time>2026-05-01T10:37:49.002Z</time></trkpt><trkpt lat="43.43324775743009" lon="-3.9129689104703034"><ele>65.6</ele><time>2026-05-01T10:37:50.002Z</time></trkpt><trkpt lat="43.4331897781792" lon="-3.9130747746895875"><ele>66.2</ele><time>2026-05-01T10:37:51.002Z</time></trkpt><trkpt lat="43.43313146730711" lon="-3.9131789748224346"><ele>66.8</ele><time>2026-05-01T10:37:52.002Z</time></trkpt><trkpt lat="43.4330721243062" lon="-3.913283693015372"><ele>67.4</ele><time>2026-05-01T10:37:53.002Z</time></trkpt><trkpt lat="43.43300344135898" lon="-3.913407648728954"><ele>68.0</ele><time>2026-05-01T10:37:54.002Z</time></trkpt><trkpt lat="43.43295329790738" lon="-3.9135025577851676"><ele>68.25</ele><time>2026-05-01T10:37:55.002Z</time></trkpt><trkpt lat="43.432834592349295" lon="-3.9137273763168556"><ele>68.5</ele><time>2026-05-01T10:37:57.002Z</time></trkpt><trkpt lat="43.432771205988416" lon="-3.913841226769474"><ele>68.75</ele><time>2026-05-01T10:37:58.002Z</time></trkpt><trkpt lat="43.43270780610349" lon="-3.9139513954580587"><ele>69.0</ele><time>2026-05-01T10:37:59.002Z</time></trkpt><trkpt lat="43.43264637256018" lon="-3.9140775817070863"><ele>69.0</ele><time>2026-05-01T10:38:00.002Z</time></trkpt><trkpt lat="43.43258247527582" lon="-3.9141831586452605"><ele>69.0</ele><time>2026-05-01T10:38:01.002Z</time></trkpt><trkpt lat="43.432520155640546" lon="-3.9143098211188425"><ele>69.0</ele><time>2026-05-01T10:38:02.002Z</time></trkpt><trkpt lat="43.43245314179425" lon="-3.9144117455173495"><ele>69.0</ele><time>2026-05-01T10:38:03.002Z</time></trkpt><trkpt lat="43.43240048574564" lon="-3.9145174293479035"><ele>69.0</ele><time>2026-05-01T10:38:04.002Z</time></trkpt><trkpt lat="43.43232076288316" lon="-3.9146557651108136"><ele>68.75</ele><time>2026-05-01T10:38:05.002Z</time></trkpt><trkpt lat="43.432257425200326" lon="-3.9147787087697488"><ele>68.5</ele><time>2026-05-01T10:38:06.002Z</time></trkpt><trkpt lat="43.43219351683828" lon="-3.9149026313494426"><ele>68.25</ele><time>2026-05-01T10:38:07.002Z</time></trkpt><trkpt lat="43.43213664879267" lon="-3.9150283714781717"><ele>68.0</ele><time>2026-05-01T10:38:08.002Z</time></trkpt><trkpt lat="43.43209233072284" lon="-3.915213491172374"><ele>68.0</ele><time>2026-05-01T10:38:09.002Z</time></trkpt><trkpt lat="43.432003416322225" lon="-3.9152475289963653"><ele>68.0</ele><time>2026-05-01T10:38:10.002Z</time></trkpt><trkpt lat="43.43193700601605" lon="-3.915362023902798"><ele>68.0</ele><time>2026-05-01T10:38:11.002Z</time></trkpt><trkpt lat="43.431873385401104" lon="-3.915473155592452"><ele>68.0</ele><time>2026-05-01T10:38:12.002Z</time></trkpt><trkpt lat="43.43180997122668" lon="-3.915585241385868"><ele>68.0</ele><time>2026-05-01T10:38:13.002Z</time></trkpt><trkpt lat="43.43174366852334" lon="-3.9156990866552306"><ele>68.0</ele><time>2026-05-01T10:38:14.002Z</time></trkpt><trkpt lat="43.431674643947" lon="-3.915809445317524"><ele>68.0</ele><time>2026-05-01T10:38:15.002Z</time></trkpt><trkpt lat="43.43159684691835" lon="-3.9159237528812203"><ele>68.0</ele><time>2026-05-01T10:38:16.002Z</time></trkpt><trkpt lat="43.43152911561034" lon="-3.9160234560235647"><ele>68.0</ele><time>2026-05-01T10:38:17.002Z</time></trkpt><trkpt lat="43.43146238478983" lon="-3.9161333558398193"><ele>68.0</ele><time>2026-05-01T10:38:18.002Z</time></trkpt><trkpt lat="43.43139717010648" lon="-3.9162432246915153"><ele>68.16666666666667</ele><time>2026-05-01T10:38:19.002Z</time></trkpt><trkpt lat="43.43133360345705" lon="-3.916347554853521"><ele>68.33333333333334</ele><time>2026-05-01T10:38:20.002Z</time></trkpt><trkpt lat="43.43127154246793" lon="-3.9164506368383143"><ele>68.5</ele><time>2026-05-01T10:38:21.002Z</time></trkpt><trkpt lat="43.43122090388585" lon="-3.9165454635432133"><ele>68.66666666666667</ele><time>2026-05-01T10:38:22.002Z</time></trkpt><trkpt lat="43.43117971234102" lon="-3.9166405112493607"><ele>68.83333333333333</ele><time>2026-05-01T10:38:23.002Z</time></trkpt><trkpt lat="43.43114778805672" lon="-3.916736947548366"><ele>69.0</ele><time>2026-05-01T10:38:24.002Z</time></trkpt><trkpt lat="43.431118935240285" lon="-3.916829452137627"><ele>69.5</ele><time>2026-05-01T10:38:25.002Z</time></trkpt><trkpt lat="43.43107323916938" lon="-3.916906751242069"><ele>70.0</ele><time>2026-05-01T10:38:26.002Z</time></trkpt><trkpt lat="43.431004611963516" lon="-3.916958854533449"><ele>70.5</ele><time>2026-05-01T10:38:27.002Z</time></trkpt><trkpt lat="43.43091529616231" lon="-3.9169646180636652"><ele>71.0</ele><time>2026-05-01T10:38:28.002Z</time></trkpt><trkpt lat="43.430828238823665" lon="-3.9169772574151023"><ele>71.5</ele><time>2026-05-01T10:38:29.003Z</time></trkpt><trkpt lat="43.43073877889812" lon="-3.916988253875502"><ele>72.0</ele><time>2026-05-01T10:38:30.003Z</time></trkpt><trkpt lat="43.430652032997884" lon="-3.9170288578998598"><ele>72.0</ele><time>2026-05-01T10:38:31.003Z</time></trkpt><trkpt lat="43.43057321334566" lon="-3.917078713386096"><ele>72.0</ele><time>2026-05-01T10:38:32.003Z</time></trkpt><trkpt lat="43.43048724483011" lon="-3.917130206765573"><ele>72.0</ele><time>2026-05-01T10:38:33.003Z</time></trkpt><trkpt lat="43.430403651746914" lon="-3.917180595243406"><ele>72.0</ele><time>2026-05-01T10:38:34.003Z</time></trkpt><trkpt lat="43.43031798224878" lon="-3.9172321712250624"><ele>72.0</ele><time>2026-05-01T10:38:35.003Z</time></trkpt><trkpt lat="43.43023719307109" lon="-3.917280529847075"><ele>72.83333333333333</ele><time>2026-05-01T10:38:36.003Z</time></trkpt><trkpt lat="43.43015719231647" lon="-3.9173260949516737"><ele>73.66666666666667</ele><time>2026-05-01T10:38:37.003Z</time></trkpt><trkpt lat="43.430078171115554" lon="-3.9173716581816116"><ele>74.5</ele><time>2026-05-01T10:38:38.003Z</time></trkpt><trkpt lat="43.43000152345083" lon="-3.917416649441176"><ele>75.33333333333334</ele><time>2026-05-01T10:38:39.003Z</time></trkpt><trkpt lat="43.42992613398488" lon="-3.9174610003575046"><ele>76.16666666666667</ele><time>2026-05-01T10:38:40.003Z</time></trkpt><trkpt lat="43.42985204594996" lon="-3.917504098815131"><ele>77.0</ele><time>2026-05-01T10:38:41.003Z</time></trkpt><trkpt lat="43.42977808426367" lon="-3.9175448861776108"><ele>76.5</ele><time>2026-05-01T10:38:42Z</time></trkpt><trkpt lat="43.42970484935094" lon="-3.917588100234754"><ele>76.0</ele><time>2026-05-01T10:38:43Z</time></trkpt><trkpt lat="43.42963253413998" lon="-3.9176276947688624"><ele>75.5</ele><time>2026-05-01T10:38:44Z</time></trkpt><trkpt lat="43.429559416802185" lon="-3.9176691494901945"><ele>75.0</ele><time>2026-05-01T10:38:45Z</time></trkpt><trkpt lat="43.429483729174024" lon="-3.9177133113572644"><ele>74.5</ele><time>2026-05-01T10:38:46Z</time></trkpt><trkpt lat="43.42940616215767" lon="-3.9177505453903136"><ele>74.0</ele><time>2026-05-01T10:38:47Z</time></trkpt><trkpt lat="43.429327291137575" lon="-3.9177851190779958"><ele>75.83333333333334</ele><time>2026-05-01T10:38:48Z</time></trkpt><trkpt lat="43.429247152060995" lon="-3.9178211668476126"><ele>77.66666666666667</ele><time>2026-05-01T10:38:49Z</time></trkpt><trkpt lat="43.4291672128439" lon="-3.9178574711796426"><ele>79.5</ele><time>2026-05-01T10:38:50Z</time></trkpt><trkpt lat="43.429088734461274" lon="-3.9178953164697825"><ele>81.33333333333333</ele><time>2026-05-01T10:38:51Z</time></trkpt><trkpt lat="43.42900832753486" lon="-3.917930658848142"><ele>83.16666666666666</ele><time>2026-05-01T10:38:52Z</time></trkpt><trkpt lat="43.42892727849216" lon="-3.917959873420796"><ele>85.0</ele><time>2026-05-01T10:38:53Z</time></trkpt><trkpt lat="43.42884765202397" lon="-3.9179900454920067"><ele>86.0</ele><time>2026-05-01T10:38:54Z</time></trkpt><trkpt lat="43.4287696286186" lon="-3.91801990650613"><ele>87.0</ele><time>2026-05-01T10:38:55Z</time></trkpt><trkpt lat="43.428691198091215" lon="-3.9180476096777923"><ele>88.0</ele><time>2026-05-01T10:38:56Z</time></trkpt><trkpt lat="43.4286082637385" lon="-3.918072553088066"><ele>89.0</ele><time>2026-05-01T10:38:57Z</time></trkpt><trkpt lat="43.428523585344536" lon="-3.9181014596157575"><ele>90.0</ele><time>2026-05-01T10:38:58Z</time></trkpt><trkpt lat="43.4284344621951" lon="-3.918133398145258"><ele>91.0</ele><time>2026-05-01T10:38:59Z</time></trkpt><trkpt lat="43.428341925094024" lon="-3.9181664540506507"><ele>91.0</ele><time>2026-05-01T10:39:00Z</time></trkpt><trkpt lat="43.428245780024135" lon="-3.9182026021725496"><ele>91.0</ele><time>2026-05-01T10:39:01Z</time></trkpt><trkpt lat="43.42814591360713" lon="-3.918244853820034"><ele>91.0</ele><time>2026-05-01T10:39:02Z</time></trkpt><trkpt lat="43.428050701600036" lon="-3.9182749090608033"><ele>91.0</ele><time>2026-05-01T10:39:03Z</time></trkpt><trkpt lat="43.42797269023441" lon="-3.918290853921819"><ele>91.0</ele><time>2026-05-01T10:39:04Z</time></trkpt><trkpt lat="43.42791105990261" lon="-3.918327853444191"><ele>91.0</ele><time>2026-05-01T10:39:05Z</time></trkpt><trkpt lat="43.427733349328214" lon="-3.9184370125816104"><ele>90.4</ele><time>2026-05-01T10:39:06Z</time></trkpt><trkpt lat="43.42763140429956" lon="-3.9185000383314943"><ele>89.8</ele><time>2026-05-01T10:39:07Z</time></trkpt><trkpt lat="43.427530918254675" lon="-3.918567501767846"><ele>89.2</ele><time>2026-05-01T10:39:08.001Z</time></trkpt><trkpt lat="43.427432891192296" lon="-3.9186330675927574"><ele>88.60000000000001</ele><time>2026-05-01T10:39:09.001Z</time></trkpt><trkpt lat="43.4273349208865" lon="-3.9187035264140975"><ele>88.0</ele><time>2026-05-01T10:39:10.001Z</time></trkpt><trkpt lat="43.42723831201816" lon="-3.9187775180040507"><ele>89.4</ele><time>2026-05-01T10:39:11.001Z</time></trkpt><trkpt lat="43.4271368199467" lon="-3.918850560272815"><ele>90.80000000000001</ele><time>2026-05-01T10:39:12.001Z</time></trkpt><trkpt lat="43.4270423793542" lon="-3.918929675001805"><ele>92.2</ele><time>2026-05-01T10:39:13.001Z</time></trkpt><trkpt lat="43.426947173149145" lon="-3.9190084954751967"><ele>93.6</ele><time>2026-05-01T10:39:14.001Z</time></trkpt><trkpt lat="43.42685749040941" lon="-3.9190858794468113"><ele>95.0</ele><time>2026-05-01T10:39:15.001Z</time></trkpt><trkpt lat="43.426767375207135" lon="-3.9191628908935296"><ele>95.0</ele><time>2026-05-01T10:39:16.001Z</time></trkpt><trkpt lat="43.42667775398826" lon="-3.9192328053694645"><ele>95.0</ele><time>2026-05-01T10:39:17.001Z</time></trkpt><trkpt lat="43.426587969377785" lon="-3.919307839918827"><ele>95.0</ele><time>2026-05-01T10:39:18.001Z</time></trkpt><trkpt lat="43.42650007678168" lon="-3.9193850296701456"><ele>95.0</ele><time>2026-05-01T10:39:19.001Z</time></trkpt><trkpt lat="43.42640864502619" lon="-3.9194578608934596"><ele>95.0</ele><time>2026-05-01T10:39:20.001Z</time></trkpt><trkpt lat="43.42631754486414" lon="-3.9195366418299855"><ele>95.8</ele><time>2026-05-01T10:39:21.001Z</time></trkpt><trkpt lat="43.426223139389215" lon="-3.9196142060147467"><ele>96.6</ele><time>2026-05-01T10:39:22.001Z</time></trkpt><trkpt lat="43.426131308042294" lon="-3.919695689863443"><ele>97.4</ele><time>2026-05-01T10:39:23.001Z</time></trkpt><trkpt lat="43.42603873998518" lon="-3.919772945337333"><ele>98.2</ele><time>2026-05-01T10:39:24.001Z</time></trkpt><trkpt lat="43.425946810502815" lon="-3.919840403593234"><ele>99.0</ele><time>2026-05-01T10:39:25.001Z</time></trkpt><trkpt lat="43.425860482677884" lon="-3.9199113810288093"><ele>99.0</ele><time>2026-05-01T10:39:26.001Z</time></trkpt><trkpt lat="43.425775495927375" lon="-3.919985769494139"><ele>99.0</ele><time>2026-05-01T10:39:27.001Z</time></trkpt><trkpt lat="43.42569032949629" lon="-3.920051978963577"><ele>99.0</ele><time>2026-05-01T10:39:28.001Z</time></trkpt><trkpt lat="43.42560838260394" lon="-3.920121524490983"><ele>99.0</ele><time>2026-05-01T10:39:29.001Z</time></trkpt><trkpt lat="43.425526489479736" lon="-3.920188559990129"><ele>99.0</ele><time>2026-05-01T10:39:30.001Z</time></trkpt><trkpt lat="43.42544955035066" lon="-3.920253915054906"><ele>100.83333333333333</ele><time>2026-05-01T10:39:31.001Z</time></trkpt><trkpt lat="43.425370443132415" lon="-3.9203187048313466"><ele>102.66666666666666</ele><time>2026-05-01T10:39:32.001Z</time></trkpt><trkpt lat="43.425293672747976" lon="-3.920380259184028"><ele>104.5</ele><time>2026-05-01T10:39:33.001Z</time></trkpt><trkpt lat="43.42521838934355" lon="-3.9204352614242826"><ele>106.33333333333333</ele><time>2026-05-01T10:39:34.001Z</time></trkpt><trkpt lat="43.42514548766145" lon="-3.9204910766909276"><ele>108.16666666666666</ele><time>2026-05-01T10:39:35.001Z</time></trkpt><trkpt lat="43.42507224126987" lon="-3.920549011544543"><ele>110.0</ele><time>2026-05-01T10:39:36.001Z</time></trkpt><trkpt lat="43.42500407843534" lon="-3.9206051857862088"><ele>109.99999999999999</ele><time>2026-05-01T10:39:37.001Z</time></trkpt><trkpt lat="43.424932906082944" lon="-3.9206623438660606"><ele>110.0</ele><time>2026-05-01T10:39:38.001Z</time></trkpt><trkpt lat="43.424861858667526" lon="-3.9207259318891183"><ele>110.0</ele><time>2026-05-01T10:39:39.001Z</time></trkpt><trkpt lat="43.42479268069362" lon="-3.9207795198044635"><ele>110.0</ele><time>2026-05-01T10:39:40.001Z</time></trkpt><trkpt lat="43.42472393166725" lon="-3.9208386091730882"><ele>109.99999999999999</ele><time>2026-05-01T10:39:41.001Z</time></trkpt><trkpt lat="43.42465733635271" lon="-3.920896349120049"><ele>110.0</ele><time>2026-05-01T10:39:42.001Z</time></trkpt><trkpt lat="43.4245872514475" lon="-3.920953599718253"><ele>111.16666666666666</ele><time>2026-05-01T10:39:43.001Z</time></trkpt><trkpt lat="43.424522413328354" lon="-3.920998023211203"><ele>112.33333333333333</ele><time>2026-05-01T10:39:44.001Z</time></trkpt><trkpt lat="43.42445706531004" lon="-3.921057407824519"><ele>113.5</ele><time>2026-05-01T10:39:45.001Z</time></trkpt><trkpt lat="43.42439253037023" lon="-3.92111853107451"><ele>114.66666666666666</ele><time>2026-05-01T10:39:46.001Z</time></trkpt><trkpt lat="43.42433004378477" lon="-3.9211763507965682"><ele>115.83333333333333</ele><time>2026-05-01T10:39:47.001Z</time></trkpt><trkpt lat="43.424258101967716" lon="-3.921232043847186"><ele>117.0</ele><time>2026-05-01T10:39:48.001Z</time></trkpt><trkpt lat="43.42418786941925" lon="-3.9212951564183633"><ele>117.0</ele><time>2026-05-01T10:39:49.001Z</time></trkpt><trkpt lat="43.424119589866145" lon="-3.921362358674254"><ele>116.99999999999999</ele><time>2026-05-01T10:39:50.001Z</time></trkpt><trkpt lat="43.424046202779834" lon="-3.921441554188242"><ele>116.99999999999999</ele><time>2026-05-01T10:39:51.001Z</time></trkpt><trkpt lat="43.42397263948359" lon="-3.9215265730084425"><ele>117.0</ele><time>2026-05-01T10:39:52.001Z</time></trkpt><trkpt lat="43.423885255713955" lon="-3.9216039376792833"><ele>117.0</ele><time>2026-05-01T10:39:53.002Z</time></trkpt><trkpt lat="43.4237901161031" lon="-3.9216707910125717"><ele>115.6</ele><time>2026-05-01T10:39:54.002Z</time></trkpt><trkpt lat="43.42370009745063" lon="-3.9217411779505116"><ele>114.19999999999999</ele><time>2026-05-01T10:39:55.002Z</time></trkpt><trkpt lat="43.42361499836053" lon="-3.9218237566548186"><ele>112.8</ele><time>2026-05-01T10:39:56.002Z</time></trkpt><trkpt lat="43.423529896878875" lon="-3.9219126675331104"><ele>111.4</ele><time>2026-05-01T10:39:57.002Z</time></trkpt><trkpt lat="43.423444705382806" lon="-3.9219923517672806"><ele>110.0</ele><time>2026-05-01T10:39:58.002Z</time></trkpt><trkpt lat="43.423352128454404" lon="-3.922094055721918"><ele>110.0</ele><time>2026-05-01T10:39:59.002Z</time></trkpt><trkpt lat="43.42326092632858" lon="-3.92219633464238"><ele>110.0</ele><time>2026-05-01T10:40:00.002Z</time></trkpt><trkpt lat="43.42317221971874" lon="-3.922304551092004"><ele>110.0</ele><time>2026-05-01T10:40:01.002Z</time></trkpt><trkpt lat="43.423088552475086" lon="-3.9224184421663435"><ele>110.0</ele><time>2026-05-01T10:40:02.002Z</time></trkpt><trkpt lat="43.423006882580665" lon="-3.9225416778875632"><ele>106.75</ele><time>2026-05-01T10:40:03.002Z</time></trkpt><trkpt lat="43.42293243910834" lon="-3.9226717374445585"><ele>103.5</ele><time>2026-05-01T10:40:04.002Z</time></trkpt><trkpt lat="43.42286080640677" lon="-3.9228049924743966"><ele>100.25</ele><time>2026-05-01T10:40:05.002Z</time></trkpt><trkpt lat="43.42279540333986" lon="-3.9229440189503015"><ele>97.0</ele><time>2026-05-01T10:40:06.002Z</time></trkpt><trkpt lat="43.42273586206727" lon="-3.9230915429466946"><ele>97.0</ele><time>2026-05-01T10:40:07.002Z</time></trkpt><trkpt lat="43.42268257621642" lon="-3.9232381830760947"><ele>97.0</ele><time>2026-05-01T10:40:08.002Z</time></trkpt><trkpt lat="43.422636567476395" lon="-3.9233919799017585"><ele>97.0</ele><time>2026-05-01T10:40:09.002Z</time></trkpt><trkpt lat="43.4225978057429" lon="-3.9235466439678537"><ele>97.0</ele><time>2026-05-01T10:40:10.002Z</time></trkpt><trkpt lat="43.42256476702932" lon="-3.9237064472072958"><ele>95.75</ele><time>2026-05-01T10:40:11.002Z</time></trkpt><trkpt lat="43.42253825533038" lon="-3.923871525647942"><ele>94.5</ele><time>2026-05-01T10:40:12.002Z</time></trkpt><trkpt lat="43.422514168422225" lon="-3.9240336441426233"><ele>93.25</ele><time>2026-05-01T10:40:13.002Z</time></trkpt><trkpt lat="43.42249785930624" lon="-3.9242000010500315"><ele>92.0</ele><time>2026-05-01T10:40:14.002Z</time></trkpt><trkpt lat="43.42248872716648" lon="-3.924361401852776"><ele>91.25</ele><time>2026-05-01T10:40:15.002Z</time></trkpt><trkpt lat="43.42248278044788" lon="-3.9245224757953867"><ele>90.5</ele><time>2026-05-01T10:40:16.002Z</time></trkpt><trkpt lat="43.422479993532555" lon="-3.924681791039052"><ele>89.75</ele><time>2026-05-01T10:40:17.002Z</time></trkpt><trkpt lat="43.422476838775104" lon="-3.924843044955342"><ele>89.0</ele><time>2026-05-01T10:40:18.002Z</time></trkpt><trkpt lat="43.42247426513545" lon="-3.9250040007772915"><ele>89.25</ele><time>2026-05-01T10:40:19.002Z</time></trkpt><trkpt lat="43.4224711836081" lon="-3.9251710370028605"><ele>89.5</ele><time>2026-05-01T10:40:20.002Z</time></trkpt><trkpt lat="43.4224761630292" lon="-3.925338974704529"><ele>89.75</ele><time>2026-05-01T10:40:21.002Z</time></trkpt><trkpt lat="43.42246757041843" lon="-3.9254931610049915"><ele>90.0</ele><time>2026-05-01T10:40:22.002Z</time></trkpt><trkpt lat="43.42245614364546" lon="-3.9256521893045195"><ele>90.0</ele><time>2026-05-01T10:40:23.002Z</time></trkpt><trkpt lat="43.42244187085065" lon="-3.9258122067773034"><ele>90.0</ele><time>2026-05-01T10:40:24.002Z</time></trkpt><trkpt lat="43.42241978470827" lon="-3.9259718473365157"><ele>90.0</ele><time>2026-05-01T10:40:25.002Z</time></trkpt><trkpt lat="43.42238752720717" lon="-3.926128786303001"><ele>90.0</ele><time>2026-05-01T10:40:26.002Z</time></trkpt><trkpt lat="43.42234426711175" lon="-3.9262776400186765"><ele>89.0</ele><time>2026-05-01T10:40:27.002Z</time></trkpt><trkpt lat="43.42229194629745" lon="-3.9264222828281734"><ele>88.0</ele><time>2026-05-01T10:40:28.002Z</time></trkpt><trkpt lat="43.42222904519061" lon="-3.9265634159976672"><ele>87.0</ele><time>2026-05-01T10:40:29.002Z</time></trkpt><trkpt lat="43.42215531993037" lon="-3.9266922252717107"><ele>86.0</ele><time>2026-05-01T10:40:30.002Z</time></trkpt><trkpt lat="43.42207740043638" lon="-3.92681473713775"><ele>82.75</ele><time>2026-05-01T10:40:31.002Z</time></trkpt><trkpt lat="43.42199512880962" lon="-3.92692630197567"><ele>79.5</ele><time>2026-05-01T10:40:32.002Z</time></trkpt><trkpt lat="43.421905592141364" lon="-3.927028445725716"><ele>76.25</ele><time>2026-05-01T10:40:33.002Z</time></trkpt><trkpt lat="43.42180685643907" lon="-3.9271096121103883"><ele>73.0</ele><time>2026-05-01T10:40:34.002Z</time></trkpt><trkpt lat="43.42170009657996" lon="-3.9271777872692826"><ele>73.0</ele><time>2026-05-01T10:40:35.002Z</time></trkpt><trkpt lat="43.421591014019015" lon="-3.9272463538625493"><ele>73.0</ele><time>2026-05-01T10:40:36.003Z</time></trkpt><trkpt lat="43.42148405825745" lon="-3.9273099303536845"><ele>73.0</ele><time>2026-05-01T10:40:37.003Z</time></trkpt><trkpt lat="43.42137363068344" lon="-3.9273655024373424"><ele>73.0</ele><time>2026-05-01T10:40:38.003Z</time></trkpt><trkpt lat="43.42126252911325" lon="-3.927422146625535"><ele>74.0</ele><time>2026-05-01T10:40:39.003Z</time></trkpt><trkpt lat="43.42114717029992" lon="-3.9274780755674303"><ele>75.0</ele><time>2026-05-01T10:40:40.003Z</time></trkpt><trkpt lat="43.42103033915202" lon="-3.9275334238731983"><ele>76.0</ele><time>2026-05-01T10:40:41.003Z</time></trkpt><trkpt lat="43.42091503944702" lon="-3.9275974667832854"><ele>77.0</ele><time>2026-05-01T10:40:42.003Z</time></trkpt><trkpt lat="43.42080355384011" lon="-3.927664557603499"><ele>74.0</ele><time>2026-05-01T10:40:43.003Z</time></trkpt><trkpt lat="43.42069397888544" lon="-3.9277438478024362"><ele>71.0</ele><time>2026-05-01T10:40:44.003Z</time></trkpt><trkpt lat="43.42059084053501" lon="-3.927827933014978"><ele>68.0</ele><time>2026-05-01T10:40:45.003Z</time></trkpt><trkpt lat="43.42048914955502" lon="-3.927918887081953"><ele>65.0</ele><time>2026-05-01T10:40:46.003Z</time></trkpt><trkpt lat="43.42039367176526" lon="-3.928019299444919"><ele>65.0</ele><time>2026-05-01T10:40:47.003Z</time></trkpt><trkpt lat="43.42030104694643" lon="-3.928125505244329"><ele>65.0</ele><time>2026-05-01T10:40:48.001Z</time></trkpt><trkpt lat="43.420210823894436" lon="-3.928239803180791"><ele>65.0</ele><time>2026-05-01T10:40:49.001Z</time></trkpt><trkpt lat="43.42012142564575" lon="-3.9283567184315764"><ele>65.0</ele><time>2026-05-01T10:40:50.001Z</time></trkpt><trkpt lat="43.42003707577801" lon="-3.9284774348906892"><ele>63.0</ele><time>2026-05-01T10:40:51.001Z</time></trkpt><trkpt lat="43.419948174378035" lon="-3.9285876322030453"><ele>61.0</ele><time>2026-05-01T10:40:52.001Z</time></trkpt><trkpt lat="43.41985625012239" lon="-3.9286934730936705"><ele>59.0</ele><time>2026-05-01T10:40:53.001Z</time></trkpt><trkpt lat="43.41976906438799" lon="-3.9288048377776827"><ele>57.0</ele><time>2026-05-01T10:40:54.001Z</time></trkpt><trkpt lat="43.419682064591356" lon="-3.9289173544303604"><ele>57.0</ele><time>2026-05-01T10:40:55.001Z</time></trkpt><trkpt lat="43.41958960120429" lon="-3.9290281526075406"><ele>57.0</ele><time>2026-05-01T10:40:56.001Z</time></trkpt><trkpt lat="43.41949839875752" lon="-3.929137279212926"><ele>57.0</ele><time>2026-05-01T10:40:57.001Z</time></trkpt><trkpt lat="43.419409392795956" lon="-3.9292488473438776"><ele>57.0</ele><time>2026-05-01T10:40:58.001Z</time></trkpt><trkpt lat="43.419325890220954" lon="-3.9293685433737844"><ele>55.5</ele><time>2026-05-01T10:40:59.001Z</time></trkpt><trkpt lat="43.41924768257618" lon="-3.929491198262652"><ele>54.0</ele><time>2026-05-01T10:41:00.001Z</time></trkpt><trkpt lat="43.419176156843506" lon="-3.9296301966628024"><ele>52.5</ele><time>2026-05-01T10:41:01.001Z</time></trkpt><trkpt lat="43.419116242930016" lon="-3.9297752785217472"><ele>51.0</ele><time>2026-05-01T10:41:02.001Z</time></trkpt><trkpt lat="43.41905847406472" lon="-3.9299215512218026"><ele>50.0</ele><time>2026-05-01T10:41:03.001Z</time></trkpt><trkpt lat="43.41901458752997" lon="-3.9300792390570827"><ele>49.0</ele><time>2026-05-01T10:41:04.001Z</time></trkpt><trkpt lat="43.41897837360028" lon="-3.9302275196698626"><ele>48.0</ele><time>2026-05-01T10:41:05.001Z</time></trkpt><trkpt lat="43.41895609621538" lon="-3.9303922191722664"><ele>47.0</ele><time>2026-05-01T10:41:06.001Z</time></trkpt><trkpt lat="43.41893999874339" lon="-3.9305505271564165"><ele>47.0</ele><time>2026-05-01T10:41:07.001Z</time></trkpt><trkpt lat="43.41893213009758" lon="-3.930710378978343"><ele>47.0</ele><time>2026-05-01T10:41:08.001Z</time></trkpt><trkpt lat="43.4189271559679" lon="-3.93086595701132"><ele>47.0</ele><time>2026-05-01T10:41:09.001Z</time></trkpt><trkpt lat="43.418921276673935" lon="-3.931023076181195"><ele>47.0</ele><time>2026-05-01T10:41:10.001Z</time></trkpt><trkpt lat="43.41891715104382" lon="-3.931181330047372"><ele>46.0</ele><time>2026-05-01T10:41:11.001Z</time></trkpt><trkpt lat="43.41890926278773" lon="-3.9313369676312955"><ele>45.0</ele><time>2026-05-01T10:41:12.001Z</time></trkpt><trkpt lat="43.418896644562395" lon="-3.931498934132426"><ele>44.0</ele><time>2026-05-01T10:41:13.001Z</time></trkpt><trkpt lat="43.41887377174522" lon="-3.9316611718668155"><ele>43.0</ele><time>2026-05-01T10:41:14.001Z</time></trkpt><trkpt lat="43.41883675289239" lon="-3.9318216509827066"><ele>41.75</ele><time>2026-05-01T10:41:15.001Z</time></trkpt><trkpt lat="43.41877780717469" lon="-3.9319707111055786"><ele>40.5</ele><time>2026-05-01T10:41:16.001Z</time></trkpt><trkpt lat="43.41871030676695" lon="-3.932113620260409"><ele>39.25</ele><time>2026-05-01T10:41:17.001Z</time></trkpt><trkpt lat="43.4186307914503" lon="-3.9322356337127613"><ele>38.0</ele><time>2026-05-01T10:41:18.001Z</time></trkpt><trkpt lat="43.41853943454813" lon="-3.9323540714510887"><ele>38.0</ele><time>2026-05-01T10:41:19.001Z</time></trkpt><trkpt lat="43.418444798972175" lon="-3.932455463543875"><ele>38.0</ele><time>2026-05-01T10:41:20.001Z</time></trkpt><trkpt lat="43.418346638818605" lon="-3.932547520221373"><ele>38.0</ele><time>2026-05-01T10:41:21.001Z</time></trkpt><trkpt lat="43.41824450216232" lon="-3.932642714512119"><ele>38.0</ele><time>2026-05-01T10:41:22.001Z</time></trkpt><trkpt lat="43.41814073687612" lon="-3.932742923105952"><ele>36.25</ele><time>2026-05-01T10:41:23.001Z</time></trkpt><trkpt lat="43.41803298711562" lon="-3.932833987707407"><ele>34.5</ele><time>2026-05-01T10:41:24.001Z</time></trkpt><trkpt lat="43.417928348831616" lon="-3.9329208338050234"><ele>32.75</ele><time>2026-05-01T10:41:25.001Z</time></trkpt><trkpt lat="43.41781862756743" lon="-3.9330085817179365"><ele>31.0</ele><time>2026-05-01T10:41:26.001Z</time></trkpt><trkpt lat="43.41771065703443" lon="-3.9330980793240573"><ele>30.5</ele><time>2026-05-01T10:41:27.001Z</time></trkpt><trkpt lat="43.41760199884454" lon="-3.9331917845112687"><ele>30.0</ele><time>2026-05-01T10:41:28.001Z</time></trkpt><trkpt lat="43.41749906559717" lon="-3.9332875519688755"><ele>29.5</ele><time>2026-05-01T10:41:29.001Z</time></trkpt><trkpt lat="43.417395687172736" lon="-3.9333790920445386"><ele>29.0</ele><time>2026-05-01T10:41:30.001Z</time></trkpt><trkpt lat="43.41729505570907" lon="-3.9334746491910484"><ele>28.25</ele><time>2026-05-01T10:41:31.001Z</time></trkpt><trkpt lat="43.41719442453981" lon="-3.933563226026008"><ele>27.5</ele><time>2026-05-01T10:41:32.001Z</time></trkpt><trkpt lat="43.41709727377865" lon="-3.9336479679841814"><ele>26.75</ele><time>2026-05-01T10:41:33.001Z</time></trkpt><trkpt lat="43.41699539994248" lon="-3.9337350558423365"><ele>26.0</ele><time>2026-05-01T10:41:34.001Z</time></trkpt><trkpt lat="43.41690138387398" lon="-3.9338222099922406"><ele>26.0</ele><time>2026-05-01T10:41:35.001Z</time></trkpt><trkpt lat="43.41680617247698" lon="-3.933910586820931"><ele>26.0</ele><time>2026-05-01T10:41:36.001Z</time></trkpt><trkpt lat="43.41670546480746" lon="-3.9339997800760105"><ele>26.0</ele><time>2026-05-01T10:41:37.001Z</time></trkpt><trkpt lat="43.41660784419128" lon="-3.93408633362406"><ele>26.0</ele><time>2026-05-01T10:41:38.001Z</time></trkpt><trkpt lat="43.416509854259424" lon="-3.934170886621189"><ele>26.25</ele><time>2026-05-01T10:41:39.001Z</time></trkpt><trkpt lat="43.41641358472087" lon="-3.9342587048325215"><ele>26.5</ele><time>2026-05-01T10:41:40.001Z</time></trkpt><trkpt lat="43.41631579491651" lon="-3.9343428502042155"><ele>26.75</ele><time>2026-05-01T10:41:41.001Z</time></trkpt><trkpt lat="43.41621901244487" lon="-3.934426775425209"><ele>27.0</ele><time>2026-05-01T10:41:42.001Z</time></trkpt><trkpt lat="43.416122255064685" lon="-3.934510835213636"><ele>26.25</ele><time>2026-05-01T10:41:43.001Z</time></trkpt><trkpt lat="43.41602461076963" lon="-3.9345960114610907"><ele>25.5</ele><time>2026-05-01T10:41:44.001Z</time></trkpt><trkpt lat="43.41592792053044" lon="-3.9346803168425826"><ele>24.75</ele><time>2026-05-01T10:41:45.001Z</time></trkpt><trkpt lat="43.415833432376374" lon="-3.9347662425502326"><ele>24.0</ele><time>2026-05-01T10:41:46.001Z</time></trkpt><trkpt lat="43.41574065668415" lon="-3.9348510116579885"><ele>24.0</ele><time>2026-05-01T10:41:47.001Z</time></trkpt><trkpt lat="43.41564620763546" lon="-3.9349307121711017"><ele>24.0</ele><time>2026-05-01T10:41:48.001Z</time></trkpt><trkpt lat="43.415553634239636" lon="-3.9350142526809444"><ele>24.0</ele><time>2026-05-01T10:41:49.001Z</time></trkpt><trkpt lat="43.41545989793968" lon="-3.935090437958907"><ele>24.0</ele><time>2026-05-01T10:41:50.001Z</time></trkpt><trkpt lat="43.415370307644345" lon="-3.935172543392807"><ele>24.0</ele><time>2026-05-01T10:41:51.001Z</time></trkpt><trkpt lat="43.41527966094232" lon="-3.9352503959095517"><ele>24.25</ele><time>2026-05-01T10:41:52.001Z</time></trkpt><trkpt lat="43.41519753434722" lon="-3.935321891405537"><ele>24.5</ele><time>2026-05-01T10:41:53.001Z</time></trkpt><trkpt lat="43.41502516780686" lon="-3.9355033249055316"><ele>24.75</ele><time>2026-05-01T10:41:55.001Z</time></trkpt><trkpt lat="43.41492802496338" lon="-3.9355625617334766"><ele>25.0</ele><time>2026-05-01T10:41:56.002Z</time></trkpt><trkpt lat="43.41483334294919" lon="-3.93564850376059"><ele>25.0</ele><time>2026-05-01T10:41:57.002Z</time></trkpt><trkpt lat="43.414744350978246" lon="-3.9357536777923436"><ele>25.0</ele><time>2026-05-01T10:41:58.002Z</time></trkpt><trkpt lat="43.4146460615706" lon="-3.9358415712497017"><ele>25.0</ele><time>2026-05-01T10:41:59.002Z</time></trkpt><trkpt lat="43.41454722654449" lon="-3.9359299527915272"><ele>25.0</ele><time>2026-05-01T10:42:00.002Z</time></trkpt><trkpt lat="43.41444536062574" lon="-3.93600509617326"><ele>24.0</ele><time>2026-05-01T10:42:01.002Z</time></trkpt><trkpt lat="43.41434849546959" lon="-3.9360937103446605"><ele>23.0</ele><time>2026-05-01T10:42:02.002Z</time></trkpt><trkpt lat="43.41425113468406" lon="-3.9361803538602285"><ele>22.0</ele><time>2026-05-01T10:42:03.002Z</time></trkpt><trkpt lat="43.41415218385775" lon="-3.9362617126051758"><ele>21.0</ele><time>2026-05-01T10:42:04.002Z</time></trkpt><trkpt lat="43.41405521689083" lon="-3.9363491185112096"><ele>21.0</ele><time>2026-05-01T10:42:05.002Z</time></trkpt><trkpt lat="43.413955202190714" lon="-3.9364365534337913"><ele>21.0</ele><time>2026-05-01T10:42:06.002Z</time></trkpt><trkpt lat="43.413856774374516" lon="-3.936525054201404"><ele>21.0</ele><time>2026-05-01T10:42:07.002Z</time></trkpt><trkpt lat="43.41376035607827" lon="-3.9366134413344347"><ele>21.0</ele><time>2026-05-01T10:42:08.002Z</time></trkpt><trkpt lat="43.41366878286746" lon="-3.9366937778958007"><ele>20.2</ele><time>2026-05-01T10:42:09.002Z</time></trkpt><trkpt lat="43.413576235197944" lon="-3.9367749955430966"><ele>19.400000000000002</ele><time>2026-05-01T10:42:10.002Z</time></trkpt><trkpt lat="43.41349100028699" lon="-3.936862136183774"><ele>18.6</ele><time>2026-05-01T10:42:11.002Z</time></trkpt><trkpt lat="43.41340108613337" lon="-3.9369401923056837"><ele>17.8</ele><time>2026-05-01T10:42:12.002Z</time></trkpt><trkpt lat="43.4133119217731" lon="-3.937016070053743"><ele>17.0</ele><time>2026-05-01T10:42:13.002Z</time></trkpt><trkpt lat="43.41322490916753" lon="-3.9370969861560496"><ele>17.0</ele><time>2026-05-01T10:42:14.002Z</time></trkpt><trkpt lat="43.41303995315205" lon="-3.937258782181098"><ele>17.0</ele><time>2026-05-01T10:42:16.002Z</time></trkpt><trkpt lat="43.41294718446479" lon="-3.9373364219457123"><ele>17.0</ele><time>2026-05-01T10:42:17.002Z</time></trkpt><trkpt lat="43.41286716333677" lon="-3.9374215558330223"><ele>17.0</ele><time>2026-05-01T10:42:18.002Z</time></trkpt><trkpt lat="43.41279366994134" lon="-3.9374877880507273"><ele>16.8</ele><time>2026-05-01T10:42:19.002Z</time></trkpt><trkpt lat="43.41271845799633" lon="-3.937554558944788"><ele>16.6</ele><time>2026-05-01T10:42:20.002Z</time></trkpt><trkpt lat="43.41264087263492" lon="-3.9376234368877654"><ele>16.400000000000002</ele><time>2026-05-01T10:42:21.002Z</time></trkpt><trkpt lat="43.4125587441775" lon="-3.9376963489052867"><ele>16.2</ele><time>2026-05-01T10:42:22.002Z</time></trkpt><trkpt lat="43.412470700920984" lon="-3.9377734124172132"><ele>16.0</ele><time>2026-05-01T10:42:23.002Z</time></trkpt><trkpt lat="43.412372796290924" lon="-3.937834934412169"><ele>16.0</ele><time>2026-05-01T10:42:24.002Z</time></trkpt><trkpt lat="43.41228079702254" lon="-3.9379176179723503"><ele>16.0</ele><time>2026-05-01T10:42:25.002Z</time></trkpt><trkpt lat="43.41219129063211" lon="-3.9380051786637464"><ele>16.0</ele><time>2026-05-01T10:42:26.002Z</time></trkpt><trkpt lat="43.41209669869649" lon="-3.93808512666271"><ele>16.0</ele><time>2026-05-01T10:42:27.002Z</time></trkpt><trkpt lat="43.41200307011493" lon="-3.938168484567855"><ele>16.0</ele><time>2026-05-01T10:42:28.002Z</time></trkpt><trkpt lat="43.41191381146319" lon="-3.938259078430274"><ele>15.200000000000001</ele><time>2026-05-01T10:42:29.002Z</time></trkpt><trkpt lat="43.41182615189957" lon="-3.9383563316917414"><ele>14.400000000000002</ele><time>2026-05-01T10:42:30.002Z</time></trkpt><trkpt lat="43.41174447312412" lon="-3.9384626852894806"><ele>13.6</ele><time>2026-05-01T10:42:31.002Z</time></trkpt><trkpt lat="43.411667000564805" lon="-3.9385741928100453"><ele>12.8</ele><time>2026-05-01T10:42:32.002Z</time></trkpt><trkpt lat="43.41159425769789" lon="-3.938685651191575"><ele>12.0</ele><time>2026-05-01T10:42:33.002Z</time></trkpt><trkpt lat="43.411513215901174" lon="-3.938787388630557"><ele>12.0</ele><time>2026-05-01T10:42:34.002Z</time></trkpt><trkpt lat="43.411435193877054" lon="-3.9388877813709056"><ele>12.0</ele><time>2026-05-01T10:42:35.002Z</time></trkpt><trkpt lat="43.41136268376358" lon="-3.9389862067464114"><ele>12.0</ele><time>2026-05-01T10:42:36.002Z</time></trkpt><trkpt lat="43.41129337408287" lon="-3.9390824360808483"><ele>12.0</ele><time>2026-05-01T10:42:37.002Z</time></trkpt><trkpt lat="43.41122197840623" lon="-3.939179922887025"><ele>12.0</ele><time>2026-05-01T10:42:38.002Z</time></trkpt><trkpt lat="43.41114827453296" lon="-3.9392783513192033"><ele>11.0</ele><time>2026-05-01T10:42:39.002Z</time></trkpt><trkpt lat="43.41107797907372" lon="-3.9393798823904898"><ele>10.0</ele><time>2026-05-01T10:42:40.002Z</time></trkpt><trkpt lat="43.41100645218401" lon="-3.9394804047559995"><ele>9.0</ele><time>2026-05-01T10:42:41.002Z</time></trkpt><trkpt lat="43.41093723762838" lon="-3.939579331239065"><ele>8.0</ele><time>2026-05-01T10:42:42.003Z</time></trkpt><trkpt lat="43.41086324444179" lon="-3.939680928335123"><ele>7.0</ele><time>2026-05-01T10:42:43.003Z</time></trkpt><trkpt lat="43.41078980590928" lon="-3.9397821421478163"><ele>7.0</ele><time>2026-05-01T10:42:44.003Z</time></trkpt><trkpt lat="43.41071391238948" lon="-3.9398861051472256"><ele>6.999999999999999</ele><time>2026-05-01T10:42:45.003Z</time></trkpt><trkpt lat="43.41063822862366" lon="-3.939987376970093"><ele>6.999999999999999</ele><time>2026-05-01T10:42:46.003Z</time></trkpt><trkpt lat="43.41056263191949" lon="-3.9400896505072973"><ele>7.0</ele><time>2026-05-01T10:42:47.003Z</time></trkpt><trkpt lat="43.41048618363798" lon="-3.9401863647269044"><ele>7.0</ele><time>2026-05-01T10:42:48.003Z</time></trkpt><trkpt lat="43.41041516367834" lon="-3.9402808622123313"><ele>6.6</ele><time>2026-05-01T10:42:49.003Z</time></trkpt><trkpt lat="43.41035019893808" lon="-3.940379748649997"><ele>6.199999999999999</ele><time>2026-05-01T10:42:50.003Z</time></trkpt><trkpt lat="43.410282032873496" lon="-3.9404675800625846"><ele>5.8</ele><time>2026-05-01T10:42:51.003Z</time></trkpt><trkpt lat="43.41021939549937" lon="-3.9405531285592867"><ele>5.4</ele><time>2026-05-01T10:42:52.003Z</time></trkpt><trkpt lat="43.410157276457106" lon="-3.9406358660625878"><ele>5.0</ele><time>2026-05-01T10:42:53.003Z</time></trkpt><trkpt lat="43.41009655940151" lon="-3.9407259166523163"><ele>5.0</ele><time>2026-05-01T10:42:54.001Z</time></trkpt><trkpt lat="43.41004163722919" lon="-3.9408326105277727"><ele>5.0</ele><time>2026-05-01T10:42:55.001Z</time></trkpt><trkpt lat="43.40999758769848" lon="-3.9409506849759763"><ele>5.0</ele><time>2026-05-01T10:42:56.001Z</time></trkpt><trkpt lat="43.40995275499337" lon="-3.941069163606309"><ele>5.0</ele><time>2026-05-01T10:42:57.001Z</time></trkpt><trkpt lat="43.40990436790308" lon="-3.9411892705074187"><ele>5.0</ele><time>2026-05-01T10:42:58.001Z</time></trkpt><trkpt lat="43.40985955106706" lon="-3.9413167575082557"><ele>5.0</ele><time>2026-05-01T10:42:59.001Z</time></trkpt><trkpt lat="43.40982564929483" lon="-3.9414457513538634"><ele>5.0</ele><time>2026-05-01T10:43:00.001Z</time></trkpt><trkpt lat="43.40979499699727" lon="-3.941557899810726"><ele>5.0</ele><time>2026-05-01T10:43:01.001Z</time></trkpt><trkpt lat="43.409771051775806" lon="-3.941688235158341"><ele>5.0</ele><time>2026-05-01T10:43:02.001Z</time></trkpt><trkpt lat="43.40974713873735" lon="-3.941822077985005"><ele>5.0</ele><time>2026-05-01T10:43:03.001Z</time></trkpt><trkpt lat="43.409724864914736" lon="-3.941961377566878"><ele>5.0</ele><time>2026-05-01T10:43:04.001Z</time></trkpt><trkpt lat="43.409712520295244" lon="-3.942098421162298"><ele>5.0</ele><time>2026-05-01T10:43:05.001Z</time></trkpt><trkpt lat="43.409719596515814" lon="-3.942239464052565"><ele>5.0</ele><time>2026-05-01T10:43:06.001Z</time></trkpt><trkpt lat="43.40971569447232" lon="-3.9423832320374474"><ele>5.0</ele><time>2026-05-01T10:43:07Z</time></trkpt><trkpt lat="43.40970062737258" lon="-3.9425280220508983"><ele>5.0</ele><time>2026-05-01T10:43:08Z</time></trkpt><trkpt lat="43.40970233261428" lon="-3.9426667970790863"><ele>5.4</ele><time>2026-05-01T10:43:09Z</time></trkpt><trkpt lat="43.409700247991" lon="-3.942810447080071"><ele>5.8</ele><time>2026-05-01T10:43:10Z</time></trkpt><trkpt lat="43.4097222514103" lon="-3.9429494175724034"><ele>6.199999999999999</ele><time>2026-05-01T10:43:11.001Z</time></trkpt><trkpt lat="43.40973443709238" lon="-3.943085574053638"><ele>6.6</ele><time>2026-05-01T10:43:12.001Z</time></trkpt><trkpt lat="43.40973944041881" lon="-3.943225289221604"><ele>7.0</ele><time>2026-05-01T10:43:13.001Z</time></trkpt><trkpt lat="43.40977240272077" lon="-3.9433590521727426"><ele>7.3999999999999995</ele><time>2026-05-01T10:43:14.001Z</time></trkpt><trkpt lat="43.40981275320236" lon="-3.9434905616708558"><ele>7.799999999999999</ele><time>2026-05-01T10:43:15.001Z</time></trkpt><trkpt lat="43.409850549248624" lon="-3.9436200451785286"><ele>8.2</ele><time>2026-05-01T10:43:16.001Z</time></trkpt><trkpt lat="43.409878724181596" lon="-3.9437513933110235"><ele>8.6</ele><time>2026-05-01T10:43:17.001Z</time></trkpt><trkpt lat="43.40989723071005" lon="-3.943884822033357"><ele>9.0</ele><time>2026-05-01T10:43:18.001Z</time></trkpt><trkpt lat="43.409899299619724" lon="-3.94402084981186"><ele>9.0</ele><time>2026-05-01T10:43:19.001Z</time></trkpt><trkpt lat="43.40988262661658" lon="-3.9441549890455634"><ele>9.0</ele><time>2026-05-01T10:43:20.001Z</time></trkpt><trkpt lat="43.40985375040137" lon="-3.9442896947140196"><ele>9.0</ele><time>2026-05-01T10:43:21.001Z</time></trkpt><trkpt lat="43.409814398366116" lon="-3.9444219414925685"><ele>9.0</ele><time>2026-05-01T10:43:22.001Z</time></trkpt><trkpt lat="43.4097717791165" lon="-3.9445534129795643"><ele>9.0</ele><time>2026-05-01T10:43:23.001Z</time></trkpt><trkpt lat="43.409724020994695" lon="-3.9446807342928274"><ele>8.8</ele><time>2026-05-01T10:43:24.001Z</time></trkpt><trkpt lat="43.40967095509612" lon="-3.944807478750051"><ele>8.600000000000001</ele><time>2026-05-01T10:43:25.001Z</time></trkpt><trkpt lat="43.40961280600103" lon="-3.9449317045637065"><ele>8.4</ele><time>2026-05-01T10:43:26.001Z</time></trkpt><trkpt lat="43.40954935571563" lon="-3.9450484064337648"><ele>8.200000000000001</ele><time>2026-05-01T10:43:27.001Z</time></trkpt><trkpt lat="43.40948027998846" lon="-3.9451585389831565"><ele>8.0</ele><time>2026-05-01T10:43:28.001Z</time></trkpt><trkpt lat="43.409407944272836" lon="-3.9452621647813078"><ele>7.4</ele><time>2026-05-01T10:43:29.001Z</time></trkpt><trkpt lat="43.40932954637069" lon="-3.9453568609488014"><ele>6.800000000000001</ele><time>2026-05-01T10:43:30.001Z</time></trkpt><trkpt lat="43.409241150362874" lon="-3.945445042007954"><ele>6.2</ele><time>2026-05-01T10:43:31.001Z</time></trkpt><trkpt lat="43.40915254517859" lon="-3.9455199355312547"><ele>5.6</ele><time>2026-05-01T10:43:32.001Z</time></trkpt><trkpt lat="43.409055700597406" lon="-3.9455999974008593"><ele>5.0</ele><time>2026-05-01T10:43:33.001Z</time></trkpt><trkpt lat="43.408966978793515" lon="-3.9456676896944614"><ele>5.0</ele><time>2026-05-01T10:43:34.001Z</time></trkpt><trkpt lat="43.4088777095603" lon="-3.9457325101991465"><ele>5.0</ele><time>2026-05-01T10:43:35.001Z</time></trkpt><trkpt lat="43.4087589876496" lon="-3.9458543244500204"><ele>5.0</ele><time>2026-05-01T10:43:37.001Z</time></trkpt><trkpt lat="43.40859995867748" lon="-3.9459667772893874"><ele>5.0</ele><time>2026-05-01T10:43:38.001Z</time></trkpt><trkpt lat="43.4085142397186" lon="-3.9460459639954593"><ele>4.6</ele><time>2026-05-01T10:43:39.001Z</time></trkpt><trkpt lat="43.408418417964256" lon="-3.9461167134865134"><ele>4.2</ele><time>2026-05-01T10:43:40.001Z</time></trkpt><trkpt lat="43.4083283880273" lon="-3.9461981110717805"><ele>3.8</ele><time>2026-05-01T10:43:41.001Z</time></trkpt><trkpt lat="43.40823634478223" lon="-3.9462705955803834"><ele>3.4</ele><time>2026-05-01T10:43:42.001Z</time></trkpt><trkpt lat="43.40814250246824" lon="-3.946342216547861"><ele>3.0</ele><time>2026-05-01T10:43:43.001Z</time></trkpt><trkpt lat="43.40805455571833" lon="-3.946414701498868"><ele>3.4</ele><time>2026-05-01T10:43:44.001Z</time></trkpt><trkpt lat="43.40796195214955" lon="-3.946490646480806"><ele>3.8</ele><time>2026-05-01T10:43:45.001Z</time></trkpt><trkpt lat="43.40786974338412" lon="-3.9465639881364316"><ele>4.2</ele><time>2026-05-01T10:43:46.001Z</time></trkpt><trkpt lat="43.40777853607096" lon="-3.9466372434459296"><ele>4.6</ele><time>2026-05-01T10:43:47.001Z</time></trkpt><trkpt lat="43.40768576333515" lon="-3.9467317101949098"><ele>5.0</ele><time>2026-05-01T10:43:48.001Z</time></trkpt><trkpt lat="43.40758860293447" lon="-3.946806015567575"><ele>5.0</ele><time>2026-05-01T10:43:49.001Z</time></trkpt><trkpt lat="43.40749074865393" lon="-3.9468835863958667"><ele>5.0</ele><time>2026-05-01T10:43:50.001Z</time></trkpt><trkpt lat="43.40739702525982" lon="-3.946954796929019"><ele>5.0</ele><time>2026-05-01T10:43:51.001Z</time></trkpt><trkpt lat="43.40731063549811" lon="-3.9470487045357987"><ele>5.0</ele><time>2026-05-01T10:43:52.001Z</time></trkpt><trkpt lat="43.40722307011856" lon="-3.9471207559487023"><ele>5.0</ele><time>2026-05-01T10:43:53.001Z</time></trkpt><trkpt lat="43.4071204752195" lon="-3.947171934401352"><ele>5.8</ele><time>2026-05-01T10:43:54.001Z</time></trkpt><trkpt lat="43.40703331810473" lon="-3.9472383325399245"><ele>6.6</ele><time>2026-05-01T10:43:55.001Z</time></trkpt><trkpt lat="43.40694210694986" lon="-3.947299888812761"><ele>7.4</ele><time>2026-05-01T10:43:56.001Z</time></trkpt><trkpt lat="43.40685228705911" lon="-3.947378066178608"><ele>8.2</ele><time>2026-05-01T10:43:57.001Z</time></trkpt><trkpt lat="43.40676136509227" lon="-3.947452043818242"><ele>9.0</ele><time>2026-05-01T10:43:58.001Z</time></trkpt><trkpt lat="43.40667377973709" lon="-3.947523225633086"><ele>8.8</ele><time>2026-05-01T10:43:59.001Z</time></trkpt><trkpt lat="43.40658978139822" lon="-3.947595963937878"><ele>8.600000000000001</ele><time>2026-05-01T10:44:00.001Z</time></trkpt><trkpt lat="43.40650833452181" lon="-3.947659085083407"><ele>8.4</ele><time>2026-05-01T10:44:01.001Z</time></trkpt><trkpt lat="43.40642867605444" lon="-3.9477293955113866"><ele>8.200000000000001</ele><time>2026-05-01T10:44:02.001Z</time></trkpt><trkpt lat="43.40635057231567" lon="-3.94779870023454"><ele>8.0</ele><time>2026-05-01T10:44:03.001Z</time></trkpt><trkpt lat="43.406271625814455" lon="-3.94787164657155"><ele>7.999999999999999</ele><time>2026-05-01T10:44:04.001Z</time></trkpt><trkpt lat="43.406196833707284" lon="-3.94796619731021"><ele>8.0</ele><time>2026-05-01T10:44:05.001Z</time></trkpt><trkpt lat="43.40611514465394" lon="-3.9480318544839506"><ele>8.0</ele><time>2026-05-01T10:44:06.001Z</time></trkpt><trkpt lat="43.406040983771845" lon="-3.94809146103421"><ele>8.0</ele><time>2026-05-01T10:44:07.001Z</time></trkpt><trkpt lat="43.40597410327421" lon="-3.948145215847519"><ele>7.999999999999999</ele><time>2026-05-01T10:44:08.001Z</time></trkpt><trkpt lat="43.405906918517005" lon="-3.9481992152803946"><ele>8.0</ele><time>2026-05-01T10:44:09.001Z</time></trkpt><trkpt lat="43.40585142454607" lon="-3.9482438183509423"><ele>8.0</ele><time>2026-05-01T10:44:10.001Z</time></trkpt><trkpt lat="43.405788996134135" lon="-3.948293996222663"><ele>7.999999999999999</ele><time>2026-05-01T10:44:11.001Z</time></trkpt><trkpt lat="43.405721182454386" lon="-3.9483315903606866"><ele>8.0</ele><time>2026-05-01T10:44:12.002Z</time></trkpt><trkpt lat="43.405660252028596" lon="-3.9483751983476143"><ele>8.0</ele><time>2026-05-01T10:44:13.002Z</time></trkpt><trkpt lat="43.405599059634575" lon="-3.9484192260619873"><ele>7.999999999999999</ele><time>2026-05-01T10:44:14.002Z</time></trkpt><trkpt lat="43.405527987446014" lon="-3.9484502262224783"><ele>8.0</ele><time>2026-05-01T10:44:15.002Z</time></trkpt><trkpt lat="43.4054636566976" lon="-3.948516019349556"><ele>8.0</ele><time>2026-05-01T10:44:16.002Z</time></trkpt><trkpt lat="43.40540317765531" lon="-3.9485883058198534"><ele>8.200000000000001</ele><time>2026-05-01T10:44:17.002Z</time></trkpt><trkpt lat="43.40534409249187" lon="-3.9486698449192184"><ele>8.4</ele><time>2026-05-01T10:44:18.002Z</time></trkpt><trkpt lat="43.40527225195788" lon="-3.948740054642881"><ele>8.600000000000001</ele><time>2026-05-01T10:44:19.002Z</time></trkpt><trkpt lat="43.40519452808973" lon="-3.948803228219489"><ele>8.8</ele><time>2026-05-01T10:44:20.002Z</time></trkpt><trkpt lat="43.40511021664999" lon="-3.9488622513229017"><ele>9.0</ele><time>2026-05-01T10:44:21.002Z</time></trkpt><trkpt lat="43.40503221094191" lon="-3.948951185484265"><ele>9.0</ele><time>2026-05-01T10:44:22.002Z</time></trkpt><trkpt lat="43.40495419921256" lon="-3.9490400533324235"><ele>9.0</ele><time>2026-05-01T10:44:23.002Z</time></trkpt><trkpt lat="43.40488985612165" lon="-3.9491352340312864"><ele>9.0</ele><time>2026-05-01T10:44:24.002Z</time></trkpt><trkpt lat="43.40480063641531" lon="-3.9491929596378723"><ele>9.0</ele><time>2026-05-01T10:44:25.002Z</time></trkpt><trkpt lat="43.40472112444044" lon="-3.949267081387812"><ele>9.0</ele><time>2026-05-01T10:44:26.002Z</time></trkpt><trkpt lat="43.40465175833703" lon="-3.9493582839774377"><ele>7.8</ele><time>2026-05-01T10:44:27.002Z</time></trkpt><trkpt lat="43.40456753082797" lon="-3.949417516819701"><ele>6.6000000000000005</ele><time>2026-05-01T10:44:28.002Z</time></trkpt><trkpt lat="43.40450279504602" lon="-3.949486109341305"><ele>5.4</ele><time>2026-05-01T10:44:29.002Z</time></trkpt><trkpt lat="43.40442375833852" lon="-3.949564483996669"><ele>4.2</ele><time>2026-05-01T10:44:30.002Z</time></trkpt><trkpt lat="43.40434129364268" lon="-3.9496375609468473"><ele>3.0</ele><time>2026-05-01T10:44:31.002Z</time></trkpt><trkpt lat="43.40425642315958" lon="-3.949706944023479"><ele>3.0</ele><time>2026-05-01T10:44:32.002Z</time></trkpt><trkpt lat="43.40417626236973" lon="-3.9497899881034515"><ele>3.0</ele><time>2026-05-01T10:44:33.002Z</time></trkpt><trkpt lat="43.40409268525672" lon="-3.949877513294087"><ele>3.0</ele><time>2026-05-01T10:44:34.002Z</time></trkpt><trkpt lat="43.40400904106692" lon="-3.9499564368997"><ele>3.0</ele><time>2026-05-01T10:44:35.002Z</time></trkpt><trkpt lat="43.40392569209806" lon="-3.950039295008828"><ele>3.0</ele><time>2026-05-01T10:44:36.002Z</time></trkpt><trkpt lat="43.40384233644155" lon="-3.9501231093757423"><ele>3.2</ele><time>2026-05-01T10:44:37.002Z</time></trkpt><trkpt lat="43.4037557036375" lon="-3.9502027699168045"><ele>3.4</ele><time>2026-05-01T10:44:38.002Z</time></trkpt><trkpt lat="43.40366973598027" lon="-3.950282477890861"><ele>3.6000000000000005</ele><time>2026-05-01T10:44:39.002Z</time></trkpt><trkpt lat="43.403583542544084" lon="-3.9503607050458944"><ele>3.8000000000000003</ele><time>2026-05-01T10:44:40.002Z</time></trkpt><trkpt lat="43.403500852708305" lon="-3.9504365169646385"><ele>4.0</ele><time>2026-05-01T10:44:41.002Z</time></trkpt><trkpt lat="43.40341744099641" lon="-3.9505112493564396"><ele>4.0</ele><time>2026-05-01T10:44:42.002Z</time></trkpt><trkpt lat="43.403337578815936" lon="-3.950596763845591"><ele>4.0</ele><time>2026-05-01T10:44:43.002Z</time></trkpt><trkpt lat="43.403257287564685" lon="-3.9506730276978046"><ele>4.0</ele><time>2026-05-01T10:44:44.002Z</time></trkpt><trkpt lat="43.40319765852759" lon="-3.950769711603266"><ele>4.0</ele><time>2026-05-01T10:44:45.002Z</time></trkpt><trkpt lat="43.40312155410349" lon="-3.950840224093936"><ele>4.0</ele><time>2026-05-01T10:44:46.002Z</time></trkpt><trkpt lat="43.4030756619552" lon="-3.9509384072713494"><ele>4.166666666666666</ele><time>2026-05-01T10:44:47.002Z</time></trkpt><trkpt lat="43.403015525428536" lon="-3.9510162750397737"><ele>4.333333333333333</ele><time>2026-05-01T10:44:48.002Z</time></trkpt><trkpt lat="43.403009153660946" lon="-3.951134780730564"><ele>4.5</ele><time>2026-05-01T10:44:49.002Z</time></trkpt><trkpt lat="43.4029964073362" lon="-3.951234273149784"><ele>4.666666666666667</ele><time>2026-05-01T10:44:50.002Z</time></trkpt><trkpt lat="43.402961370924075" lon="-3.9513207048511223"><ele>4.833333333333334</ele><time>2026-05-01T10:44:51.002Z</time></trkpt><trkpt lat="43.402923151661476" lon="-3.951414989414068"><ele>5.0</ele><time>2026-05-01T10:44:52.002Z</time></trkpt><trkpt lat="43.40288163378245" lon="-3.9515162190378965"><ele>5.0</ele><time>2026-05-01T10:44:53.002Z</time></trkpt><trkpt lat="43.40282104783549" lon="-3.9516065360163846"><ele>5.0</ele><time>2026-05-01T10:44:54.002Z</time></trkpt><trkpt lat="43.4027665714166" lon="-3.9517137088935828"><ele>5.0</ele><time>2026-05-01T10:44:55.002Z</time></trkpt><trkpt lat="43.402753897959" lon="-3.9518449907801347"><ele>5.0</ele><time>2026-05-01T10:44:56.002Z</time></trkpt><trkpt lat="43.40274160192953" lon="-3.9519822030522676"><ele>5.0</ele><time>2026-05-01T10:44:57.002Z</time></trkpt><trkpt lat="43.40273591841986" lon="-3.9521188792046735"><ele>5.2</ele><time>2026-05-01T10:44:58.002Z</time></trkpt><trkpt lat="43.402722812114355" lon="-3.952261240509797"><ele>5.4</ele><time>2026-05-01T10:44:59.002Z</time></trkpt><trkpt lat="43.402728409517444" lon="-3.952406669428177"><ele>5.6</ele><time>2026-05-01T10:45:00Z</time></trkpt><trkpt lat="43.40274372951781" lon="-3.9525557973069643"><ele>5.8</ele><time>2026-05-01T10:45:01Z</time></trkpt><trkpt lat="43.402753123145395" lon="-3.952685383770714"><ele>6.0</ele><time>2026-05-01T10:45:02Z</time></trkpt><trkpt lat="43.40277647309945" lon="-3.9528528080755563"><ele>6.0</ele><time>2026-05-01T10:45:04Z</time></trkpt><trkpt lat="43.40274133467543" lon="-3.9532646186458855"><ele>6.0</ele><time>2026-05-01T10:45:05Z</time></trkpt><trkpt lat="43.40281380395699" lon="-3.953284151900786"><ele>6.0</ele><time>2026-05-01T10:45:06Z</time></trkpt><trkpt lat="43.40281181282995" lon="-3.9534326757002374"><ele>5.8</ele><time>2026-05-01T10:45:07Z</time></trkpt><trkpt lat="43.40283489671768" lon="-3.9535786040539866"><ele>5.6</ele><time>2026-05-01T10:45:08Z</time></trkpt><trkpt lat="43.402844904416796" lon="-3.9537213047541813"><ele>5.4</ele><time>2026-05-01T10:45:09Z</time></trkpt><trkpt lat="43.402860123741306" lon="-3.9538723046860067"><ele>5.2</ele><time>2026-05-01T10:45:10Z</time></trkpt><trkpt lat="43.40287072919531" lon="-3.954013925907671"><ele>5.0</ele><time>2026-05-01T10:45:11Z</time></trkpt><trkpt lat="43.40288401285029" lon="-3.954155949359088"><ele>5.6</ele><time>2026-05-01T10:45:12Z</time></trkpt><trkpt lat="43.40289322582014" lon="-3.954300029781823"><ele>6.2</ele><time>2026-05-01T10:45:13Z</time></trkpt><trkpt lat="43.402907058259146" lon="-3.9544429887218175"><ele>6.800000000000001</ele><time>2026-05-01T10:45:14Z</time></trkpt><trkpt lat="43.40291847340855" lon="-3.9545729263065783"><ele>7.4</ele><time>2026-05-01T10:45:15Z</time></trkpt><trkpt lat="43.40292773038696" lon="-3.9547087470517046"><ele>8.0</ele><time>2026-05-01T10:45:16Z</time></trkpt><trkpt lat="43.402936137898116" lon="-3.9548441723351555"><ele>8.0</ele><time>2026-05-01T10:45:17Z</time></trkpt><trkpt lat="43.40294715823337" lon="-3.9549784426088355"><ele>8.0</ele><time>2026-05-01T10:45:18Z</time></trkpt><trkpt lat="43.4029596538683" lon="-3.955109308063896"><ele>8.0</ele><time>2026-05-01T10:45:19Z</time></trkpt><trkpt lat="43.40297106382636" lon="-3.9552443324915623"><ele>8.0</ele><time>2026-05-01T10:45:20Z</time></trkpt><trkpt lat="43.40298277262065" lon="-3.9553825185798144"><ele>8.0</ele><time>2026-05-01T10:45:21Z</time></trkpt><trkpt lat="43.40299283752079" lon="-3.9555197049484163"><ele>10.4</ele><time>2026-05-01T10:45:22Z</time></trkpt><trkpt lat="43.403002510052" lon="-3.9556535589792654"><ele>12.8</ele><time>2026-05-01T10:45:23Z</time></trkpt><trkpt lat="43.403012855050264" lon="-3.955783030569975"><ele>15.2</ele><time>2026-05-01T10:45:24Z</time></trkpt><trkpt lat="43.403026474946856" lon="-3.955922408321572"><ele>17.6</ele><time>2026-05-01T10:45:25Z</time></trkpt><trkpt lat="43.40303935213528" lon="-3.9560558963553243"><ele>20.0</ele><time>2026-05-01T10:45:26Z</time></trkpt><trkpt lat="43.40305930687774" lon="-3.9561888851530687"><ele>20.0</ele><time>2026-05-01T10:45:27Z</time></trkpt><trkpt lat="43.40309519030136" lon="-3.9563114177381635"><ele>20.0</ele><time>2026-05-01T10:45:28Z</time></trkpt><trkpt lat="43.403123047645266" lon="-3.956441545667468"><ele>20.0</ele><time>2026-05-01T10:45:29Z</time></trkpt><trkpt lat="43.40317137138498" lon="-3.9565594295949382"><ele>20.0</ele><time>2026-05-01T10:45:30Z</time></trkpt><trkpt lat="43.40322364502331" lon="-3.956667676127342"><ele>20.0</ele><time>2026-05-01T10:45:31Z</time></trkpt><trkpt lat="43.40327638997808" lon="-3.9567717749912905"><ele>19.2</ele><time>2026-05-01T10:45:32Z</time></trkpt><trkpt lat="43.40333025410523" lon="-3.9568778008206285"><ele>18.4</ele><time>2026-05-01T10:45:33Z</time></trkpt><trkpt lat="43.403378547368845" lon="-3.956988643126698"><ele>17.6</ele><time>2026-05-01T10:45:34Z</time></trkpt><trkpt lat="43.40342891243092" lon="-3.9570940809521296"><ele>16.8</ele><time>2026-05-01T10:45:35Z</time></trkpt><trkpt lat="43.40348577895643" lon="-3.9571999261108854"><ele>16.0</ele><time>2026-05-01T10:45:36Z</time></trkpt><trkpt lat="43.40353469910953" lon="-3.957309006568904"><ele>16.0</ele><time>2026-05-01T10:45:37Z</time></trkpt><trkpt lat="43.40358637325075" lon="-3.957416781915255"><ele>16.0</ele><time>2026-05-01T10:45:38.001Z</time></trkpt><trkpt lat="43.40363599045726" lon="-3.9575254560442725"><ele>16.0</ele><time>2026-05-01T10:45:39.001Z</time></trkpt><trkpt lat="43.40369449935834" lon="-3.957628345665486"><ele>16.0</ele><time>2026-05-01T10:45:40.001Z</time></trkpt><trkpt lat="43.403747081631984" lon="-3.957734811375588"><ele>16.0</ele><time>2026-05-01T10:45:41.001Z</time></trkpt><trkpt lat="43.403800179672785" lon="-3.9578440070051566"><ele>18.6</ele><time>2026-05-01T10:45:42.001Z</time></trkpt><trkpt lat="43.40385035718503" lon="-3.957959902491453"><ele>21.200000000000003</ele><time>2026-05-01T10:45:43.001Z</time></trkpt><trkpt lat="43.403905623244405" lon="-3.958062937930991"><ele>23.799999999999997</ele><time>2026-05-01T10:45:44.001Z</time></trkpt><trkpt lat="43.403961320465505" lon="-3.9581664018576257"><ele>26.4</ele><time>2026-05-01T10:45:45.001Z</time></trkpt><trkpt lat="43.40401238485706" lon="-3.958279422653409"><ele>29.0</ele><time>2026-05-01T10:45:46.001Z</time></trkpt><trkpt lat="43.4040587758921" lon="-3.9583934141137775"><ele>29.0</ele><time>2026-05-01T10:45:47.001Z</time></trkpt><trkpt lat="43.40409988937442" lon="-3.9585136448825233"><ele>29.0</ele><time>2026-05-01T10:45:48.001Z</time></trkpt><trkpt lat="43.40412465563757" lon="-3.95864872684305"><ele>29.0</ele><time>2026-05-01T10:45:49.001Z</time></trkpt><trkpt lat="43.404149040050285" lon="-3.958787891716681"><ele>29.0</ele><time>2026-05-01T10:45:50.001Z</time></trkpt><trkpt lat="43.40417377187726" lon="-3.9589232056083135"><ele>29.0</ele><time>2026-05-01T10:45:51.001Z</time></trkpt><trkpt lat="43.404198881054064" lon="-3.959050488561203"><ele>29.0</ele><time>2026-05-01T10:45:52.001Z</time></trkpt><trkpt lat="43.4042242679804" lon="-3.959182253443716"><ele>29.0</ele><time>2026-05-01T10:45:53.001Z</time></trkpt><trkpt lat="43.404258843181736" lon="-3.9593270113668004"><ele>29.0</ele><time>2026-05-01T10:45:54.001Z</time></trkpt><trkpt lat="43.40429413212153" lon="-3.95945380574322"><ele>29.0</ele><time>2026-05-01T10:45:55.001Z</time></trkpt><trkpt lat="43.40431814999715" lon="-3.9595942124223633"><ele>29.0</ele><time>2026-05-01T10:45:56.001Z</time></trkpt><trkpt lat="43.40435885712194" lon="-3.9597274068561847"><ele>28.2</ele><time>2026-05-01T10:45:57.001Z</time></trkpt><trkpt lat="43.404393628202186" lon="-3.959873453965075"><ele>27.4</ele><time>2026-05-01T10:45:58.001Z</time></trkpt><trkpt lat="43.40442876530473" lon="-3.9600127989187786"><ele>26.6</ele><time>2026-05-01T10:45:59.001Z</time></trkpt><trkpt lat="43.40446746417791" lon="-3.960149630172584"><ele>25.8</ele><time>2026-05-01T10:46:00.001Z</time></trkpt><trkpt lat="43.404500928257505" lon="-3.960288678822517"><ele>25.0</ele><time>2026-05-01T10:46:01.001Z</time></trkpt><trkpt lat="43.40453588864334" lon="-3.960424052166117"><ele>24.6</ele><time>2026-05-01T10:46:02.001Z</time></trkpt><trkpt lat="43.40457205660341" lon="-3.960558960881372"><ele>24.2</ele><time>2026-05-01T10:46:03.001Z</time></trkpt><trkpt lat="43.40460536604678" lon="-3.960695702878691"><ele>23.799999999999997</ele><time>2026-05-01T10:46:04.001Z</time></trkpt><trkpt lat="43.404649531970456" lon="-3.9608255291665055"><ele>23.4</ele><time>2026-05-01T10:46:05.001Z</time></trkpt><trkpt lat="43.40468364635841" lon="-3.9609612257933344"><ele>23.0</ele><time>2026-05-01T10:46:06.001Z</time></trkpt><trkpt lat="43.404721845253135" lon="-3.961095559635346"><ele>26.599999999999998</ele><time>2026-05-01T10:46:07.001Z</time></trkpt><trkpt lat="43.40478409767225" lon="-3.961204798437808"><ele>30.199999999999996</ele><time>2026-05-01T10:46:08.001Z</time></trkpt><trkpt lat="43.404831089099375" lon="-3.9613214998221262"><ele>33.8</ele><time>2026-05-01T10:46:09.001Z</time></trkpt><trkpt lat="43.40488935388643" lon="-3.961424713658692"><ele>37.4</ele><time>2026-05-01T10:46:10.001Z</time></trkpt><trkpt lat="43.40494706195736" lon="-3.961524157403084"><ele>41.0</ele><time>2026-05-01T10:46:11.001Z</time></trkpt><trkpt lat="43.405005022290766" lon="-3.9616223426108395"><ele>39.599999999999994</ele><time>2026-05-01T10:46:12.001Z</time></trkpt><trkpt lat="43.40506426230064" lon="-3.9617220184299144"><ele>38.199999999999996</ele><time>2026-05-01T10:46:13.001Z</time></trkpt><trkpt lat="43.40512881469304" lon="-3.9618149648168806"><ele>36.8</ele><time>2026-05-01T10:46:14.001Z</time></trkpt><trkpt lat="43.40519264841779" lon="-3.9618973152897876"><ele>35.4</ele><time>2026-05-01T10:46:15.001Z</time></trkpt><trkpt lat="43.40525834748728" lon="-3.9619815705346593"><ele>34.0</ele><time>2026-05-01T10:46:16.001Z</time></trkpt><trkpt lat="43.40531782406775" lon="-3.9620660578975206"><ele>34.0</ele><time>2026-05-01T10:46:17.001Z</time></trkpt><trkpt lat="43.40537252052674" lon="-3.9621562928665823"><ele>34.0</ele><time>2026-05-01T10:46:18.001Z</time></trkpt><trkpt lat="43.405419966280625" lon="-3.96225290760372"><ele>34.0</ele><time>2026-05-01T10:46:19.001Z</time></trkpt><trkpt lat="43.405464623191364" lon="-3.9623528062813937"><ele>34.0</ele><time>2026-05-01T10:46:20.001Z</time></trkpt><trkpt lat="43.40550677327993" lon="-3.9624566295144583"><ele>34.0</ele><time>2026-05-01T10:46:21.001Z</time></trkpt><trkpt lat="43.405543472338124" lon="-3.962562405947271"><ele>34.0</ele><time>2026-05-01T10:46:22.001Z</time></trkpt><trkpt lat="43.40556958511001" lon="-3.9626734011930296"><ele>37.8</ele><time>2026-05-01T10:46:23.001Z</time></trkpt><trkpt lat="43.405592791398405" lon="-3.9627904920576134"><ele>41.599999999999994</ele><time>2026-05-01T10:46:24.001Z</time></trkpt><trkpt lat="43.40561724117798" lon="-3.9629072393541556"><ele>45.4</ele><time>2026-05-01T10:46:25.001Z</time></trkpt><trkpt lat="43.4056432211869" lon="-3.963028948596657"><ele>49.199999999999996</ele><time>2026-05-01T10:46:26.001Z</time></trkpt><trkpt lat="43.405667900425364" lon="-3.963153550351798"><ele>53.0</ele><time>2026-05-01T10:46:27.001Z</time></trkpt><trkpt lat="43.40569234624979" lon="-3.963280832271004"><ele>53.2</ele><time>2026-05-01T10:46:28.002Z</time></trkpt><trkpt lat="43.40571704888446" lon="-3.9634107707607042"><ele>53.4</ele><time>2026-05-01T10:46:29.002Z</time></trkpt><trkpt lat="43.40574254986183" lon="-3.96353956225022"><ele>53.60000000000001</ele><time>2026-05-01T10:46:30.002Z</time></trkpt><trkpt lat="43.40577422709433" lon="-3.963667318508275"><ele>53.800000000000004</ele><time>2026-05-01T10:46:31.002Z</time></trkpt><trkpt lat="43.40579672465157" lon="-3.9637997069852875"><ele>54.0</ele><time>2026-05-01T10:46:32.002Z</time></trkpt><trkpt lat="43.40581434426516" lon="-3.9639307180809564"><ele>54.0</ele><time>2026-05-01T10:46:33.002Z</time></trkpt><trkpt lat="43.405820617777195" lon="-3.964059510039238"><ele>54.00000000000001</ele><time>2026-05-01T10:46:34.002Z</time></trkpt><trkpt lat="43.405829875358904" lon="-3.9641893237671693"><ele>54.00000000000001</ele><time>2026-05-01T10:46:35.002Z</time></trkpt><trkpt lat="43.40584000133524" lon="-3.964316386519023"><ele>54.0</ele><time>2026-05-01T10:46:36.002Z</time></trkpt><trkpt lat="43.40585126400767" lon="-3.9644459127812497"><ele>54.0</ele><time>2026-05-01T10:46:37.002Z</time></trkpt><trkpt lat="43.405861922703075" lon="-3.9645747683784465"><ele>54.6</ele><time>2026-05-01T10:46:38.002Z</time></trkpt><trkpt lat="43.40587235935033" lon="-3.9647010737775163"><ele>55.2</ele><time>2026-05-01T10:46:39.002Z</time></trkpt><trkpt lat="43.405877275788406" lon="-3.9648346562479473"><ele>55.800000000000004</ele><time>2026-05-01T10:46:40.002Z</time></trkpt><trkpt lat="43.40588666165473" lon="-3.964958942064097"><ele>56.400000000000006</ele><time>2026-05-01T10:46:41.002Z</time></trkpt><trkpt lat="43.4058944950062" lon="-3.9650917861536117"><ele>57.0</ele><time>2026-05-01T10:46:42.002Z</time></trkpt><trkpt lat="43.40590829180214" lon="-3.965220415292793"><ele>57.0</ele><time>2026-05-01T10:46:43.002Z</time></trkpt><trkpt lat="43.40592217971847" lon="-3.9653506529935822"><ele>57.0</ele><time>2026-05-01T10:46:44.002Z</time></trkpt><trkpt lat="43.40593574267805" lon="-3.965485406475851"><ele>57.0</ele><time>2026-05-01T10:46:45.002Z</time></trkpt><trkpt lat="43.40594380432018" lon="-3.9656159903021573"><ele>57.0</ele><time>2026-05-01T10:46:46.002Z</time></trkpt><trkpt lat="43.405939040522206" lon="-3.965755311324987"><ele>57.0</ele><time>2026-05-01T10:46:47.002Z</time></trkpt><trkpt lat="43.40594565926327" lon="-3.965891205496757"><ele>57.8</ele><time>2026-05-01T10:46:48.002Z</time></trkpt><trkpt lat="43.40596637556555" lon="-3.966023406420775"><ele>58.6</ele><time>2026-05-01T10:46:49.002Z</time></trkpt><trkpt lat="43.405981549656936" lon="-3.9661635553343415"><ele>59.39999999999999</ele><time>2026-05-01T10:46:50.002Z</time></trkpt><trkpt lat="43.405986268336896" lon="-3.966299234198019"><ele>60.199999999999996</ele><time>2026-05-01T10:46:51.002Z</time></trkpt><trkpt lat="43.40599083759338" lon="-3.966441059060522"><ele>61.0</ele><time>2026-05-01T10:46:52.002Z</time></trkpt><trkpt lat="43.40600559501892" lon="-3.966574356218076"><ele>61.599999999999994</ele><time>2026-05-01T10:46:53.002Z</time></trkpt><trkpt lat="43.40601852668373" lon="-3.9667108721182953"><ele>62.199999999999996</ele><time>2026-05-01T10:46:54.002Z</time></trkpt><trkpt lat="43.40602829871334" lon="-3.966848788994408"><ele>62.800000000000004</ele><time>2026-05-01T10:46:55.002Z</time></trkpt><trkpt lat="43.40603347901674" lon="-3.966988441932371"><ele>63.400000000000006</ele><time>2026-05-01T10:46:56.002Z</time></trkpt><trkpt lat="43.406049127083506" lon="-3.967119332285498"><ele>64.0</ele><time>2026-05-01T10:46:57.002Z</time></trkpt><trkpt lat="43.4060720533099" lon="-3.967248304230926"><ele>64.0</ele><time>2026-05-01T10:46:58.002Z</time></trkpt><trkpt lat="43.40609210861272" lon="-3.9673786270415734"><ele>64.0</ele><time>2026-05-01T10:46:59.002Z</time></trkpt><trkpt lat="43.40610766095758" lon="-3.967513821707525"><ele>64.0</ele><time>2026-05-01T10:47:00.002Z</time></trkpt><trkpt lat="43.40612402044564" lon="-3.9676512515883005"><ele>64.0</ele><time>2026-05-01T10:47:01.002Z</time></trkpt><trkpt lat="43.4061318022151" lon="-3.967787663771006"><ele>64.0</ele><time>2026-05-01T10:47:02.002Z</time></trkpt><trkpt lat="43.40614556807651" lon="-3.96792360476759"><ele>64.60000000000001</ele><time>2026-05-01T10:47:03.002Z</time></trkpt><trkpt lat="43.406157082892385" lon="-3.9680637154428307"><ele>65.2</ele><time>2026-05-01T10:47:04.002Z</time></trkpt><trkpt lat="43.40617834979294" lon="-3.9682049467228184"><ele>65.80000000000001</ele><time>2026-05-01T10:47:05.002Z</time></trkpt><trkpt lat="43.406210506199095" lon="-3.96838629976599"><ele>66.4</ele><time>2026-05-01T10:47:06Z</time></trkpt><trkpt lat="43.40617827632975" lon="-3.968499673166803"><ele>67.0</ele><time>2026-05-01T10:47:07Z</time></trkpt><trkpt lat="43.40618339753126" lon="-3.9686508644750225"><ele>67.0</ele><time>2026-05-01T10:47:08Z</time></trkpt><trkpt lat="43.40618792074839" lon="-3.9688007428854433"><ele>67.0</ele><time>2026-05-01T10:47:09Z</time></trkpt><trkpt lat="43.40619426623058" lon="-3.968950556112495"><ele>67.0</ele><time>2026-05-01T10:47:10Z</time></trkpt><trkpt lat="43.40620415831335" lon="-3.9690983984546984"><ele>67.0</ele><time>2026-05-01T10:47:11Z</time></trkpt><trkpt lat="43.40621131598237" lon="-3.9692434845793443"><ele>67.0</ele><time>2026-05-01T10:47:12Z</time></trkpt><trkpt lat="43.40621744473359" lon="-3.9693920453862823"><ele>67.4</ele><time>2026-05-01T10:47:13Z</time></trkpt><trkpt lat="43.406221682435906" lon="-3.969540617404853"><ele>67.80000000000001</ele><time>2026-05-01T10:47:14Z</time></trkpt><trkpt lat="43.40621497273324" lon="-3.969690781061611"><ele>68.2</ele><time>2026-05-01T10:47:15Z</time></trkpt><trkpt lat="43.40621065064363" lon="-3.969838298820872"><ele>68.60000000000001</ele><time>2026-05-01T10:47:16Z</time></trkpt><trkpt lat="43.406200745523435" lon="-3.9699851954795067"><ele>69.0</ele><time>2026-05-01T10:47:17Z</time></trkpt><trkpt lat="43.40618677548358" lon="-3.9701338637532193"><ele>70.0</ele><time>2026-05-01T10:47:18Z</time></trkpt><trkpt lat="43.40617081014517" lon="-3.97027725355359"><ele>71.0</ele><time>2026-05-01T10:47:19Z</time></trkpt><trkpt lat="43.40615393738322" lon="-3.9704220331993865"><ele>72.0</ele><time>2026-05-01T10:47:20Z</time></trkpt><trkpt lat="43.40612989077393" lon="-3.970566351358995"><ele>73.0</ele><time>2026-05-01T10:47:21Z</time></trkpt><trkpt lat="43.40610390731614" lon="-3.9707057240361374"><ele>74.0</ele><time>2026-05-01T10:47:22Z</time></trkpt><trkpt lat="43.40608063770459" lon="-3.9708482463596018"><ele>75.0</ele><time>2026-05-01T10:47:23Z</time></trkpt><trkpt lat="43.40605535646956" lon="-3.970989862776345"><ele>76.0</ele><time>2026-05-01T10:47:24Z</time></trkpt><trkpt lat="43.40602525923463" lon="-3.9711306036344656"><ele>77.0</ele><time>2026-05-01T10:47:25Z</time></trkpt><trkpt lat="43.40599088513899" lon="-3.9712685624729245"><ele>78.0</ele><time>2026-05-01T10:47:26Z</time></trkpt><trkpt lat="43.405959049926466" lon="-3.9714052760862297"><ele>79.0</ele><time>2026-05-01T10:47:27Z</time></trkpt><trkpt lat="43.40592856124973" lon="-3.9715431767769305"><ele>79.0</ele><time>2026-05-01T10:47:28Z</time></trkpt><trkpt lat="43.40589288384428" lon="-3.9716787551096235"><ele>79.0</ele><time>2026-05-01T10:47:29Z</time></trkpt><trkpt lat="43.40586127053939" lon="-3.97181614219061"><ele>79.0</ele><time>2026-05-01T10:47:30Z</time></trkpt><trkpt lat="43.40582549854441" lon="-3.9719539194720674"><ele>79.0</ele><time>2026-05-01T10:47:31Z</time></trkpt><trkpt lat="43.40579360432087" lon="-3.972093774967108"><ele>79.0</ele><time>2026-05-01T10:47:32Z</time></trkpt><trkpt lat="43.405757716993186" lon="-3.9722323559400494"><ele>80.5</ele><time>2026-05-01T10:47:33Z</time></trkpt><trkpt lat="43.40573289584462" lon="-3.972367242037654"><ele>82.0</ele><time>2026-05-01T10:47:34Z</time></trkpt><trkpt lat="43.40571290468381" lon="-3.9725234136537617"><ele>83.5</ele><time>2026-05-01T10:47:35Z</time></trkpt><trkpt lat="43.40572292987913" lon="-3.972741928468802"><ele>85.0</ele><time>2026-05-01T10:47:36Z</time></trkpt><trkpt lat="43.40566468798651" lon="-3.972937304962704"><ele>87.0</ele><time>2026-05-01T10:47:37Z</time></trkpt><trkpt lat="43.40556940551598" lon="-3.9730596497649837"><ele>89.0</ele><time>2026-05-01T10:47:39Z</time></trkpt><trkpt lat="43.40553612934066" lon="-3.9732006401890088"><ele>91.0</ele><time>2026-05-01T10:47:40Z</time></trkpt><trkpt lat="43.405498620690466" lon="-3.973342189118493"><ele>93.0</ele><time>2026-05-01T10:47:41Z</time></trkpt><trkpt lat="43.405461252520325" lon="-3.9734853750296977"><ele>89.80000000000001</ele><time>2026-05-01T10:47:42Z</time></trkpt><trkpt lat="43.405424125372804" lon="-3.973626831300379"><ele>86.60000000000001</ele><time>2026-05-01T10:47:43Z</time></trkpt><trkpt lat="43.40538294576421" lon="-3.9737670386337403"><ele>83.4</ele><time>2026-05-01T10:47:44Z</time></trkpt><trkpt lat="43.40534328838643" lon="-3.9739074836574653"><ele>80.2</ele><time>2026-05-01T10:47:45Z</time></trkpt><trkpt lat="43.40529799261866" lon="-3.9740480689435844"><ele>77.0</ele><time>2026-05-01T10:47:46Z</time></trkpt><trkpt lat="43.40524815123809" lon="-3.9741879380878586"><ele>79.2</ele><time>2026-05-01T10:47:47Z</time></trkpt><trkpt lat="43.40519888103024" lon="-3.974322266402282"><ele>81.4</ele><time>2026-05-01T10:47:48Z</time></trkpt><trkpt lat="43.40514941606851" lon="-3.974453549718916"><ele>83.60000000000001</ele><time>2026-05-01T10:47:49.001Z</time></trkpt><trkpt lat="43.40509483775091" lon="-3.9745829659170195"><ele>85.80000000000001</ele><time>2026-05-01T10:47:50.001Z</time></trkpt><trkpt lat="43.405034896483535" lon="-3.9747104158798265"><ele>88.0</ele><time>2026-05-01T10:47:51.001Z</time></trkpt><trkpt lat="43.40497260855403" lon="-3.9748389232629946"><ele>88.0</ele><time>2026-05-01T10:47:52.001Z</time></trkpt><trkpt lat="43.40490739934952" lon="-3.974963116174914"><ele>88.0</ele><time>2026-05-01T10:47:53.001Z</time></trkpt><trkpt lat="43.404842970813206" lon="-3.9750839280398442"><ele>88.0</ele><time>2026-05-01T10:47:54.001Z</time></trkpt><trkpt lat="43.404776670136386" lon="-3.9752040735748"><ele>88.0</ele><time>2026-05-01T10:47:55.001Z</time></trkpt><trkpt lat="43.40470645409697" lon="-3.9753253043499286"><ele>88.0</ele><time>2026-05-01T10:47:56.001Z</time></trkpt><trkpt lat="43.404638950660406" lon="-3.975445355844645"><ele>89.0</ele><time>2026-05-01T10:47:57.001Z</time></trkpt><trkpt lat="43.40456734930173" lon="-3.975561907208772"><ele>90.0</ele><time>2026-05-01T10:47:58.001Z</time></trkpt><trkpt lat="43.404497197630334" lon="-3.9756786678045186"><ele>91.0</ele><time>2026-05-01T10:47:59.001Z</time></trkpt><trkpt lat="43.404426104339" lon="-3.9758052372277595"><ele>92.0</ele><time>2026-05-01T10:48:00.001Z</time></trkpt><trkpt lat="43.404358103380915" lon="-3.97592118375783"><ele>93.0</ele><time>2026-05-01T10:48:01.001Z</time></trkpt><trkpt lat="43.40428548339073" lon="-3.9760392373461193"><ele>93.0</ele><time>2026-05-01T10:48:02.001Z</time></trkpt><trkpt lat="43.40421355620167" lon="-3.976153646369843"><ele>93.0</ele><time>2026-05-01T10:48:03.001Z</time></trkpt><trkpt lat="43.40414183852589" lon="-3.976270205178258"><ele>93.0</ele><time>2026-05-01T10:48:04.001Z</time></trkpt><trkpt lat="43.404072316943875" lon="-3.9763878182698944"><ele>93.0</ele><time>2026-05-01T10:48:05.001Z</time></trkpt><trkpt lat="43.40400063795851" lon="-3.9765035616077533"><ele>93.0</ele><time>2026-05-01T10:48:06.001Z</time></trkpt><trkpt lat="43.40392884350661" lon="-3.9766207463092362"><ele>91.60000000000001</ele><time>2026-05-01T10:48:07.001Z</time></trkpt><trkpt lat="43.40385875836068" lon="-3.976735124079093"><ele>90.2</ele><time>2026-05-01T10:48:08.001Z</time></trkpt><trkpt lat="43.40378866295095" lon="-3.9768507207365875"><ele>88.8</ele><time>2026-05-01T10:48:09.001Z</time></trkpt><trkpt lat="43.40371838954828" lon="-3.976963917569384"><ele>87.4</ele><time>2026-05-01T10:48:10.001Z</time></trkpt><trkpt lat="43.40364534542701" lon="-3.9770776950879925"><ele>86.0</ele><time>2026-05-01T10:48:11.001Z</time></trkpt><trkpt lat="43.403574243148555" lon="-3.977194368010898"><ele>86.0</ele><time>2026-05-01T10:48:12.001Z</time></trkpt><trkpt lat="43.40350276940765" lon="-3.9773107941443757"><ele>86.0</ele><time>2026-05-01T10:48:13.001Z</time></trkpt><trkpt lat="43.403434930578086" lon="-3.977427305219668"><ele>86.0</ele><time>2026-05-01T10:48:14.001Z</time></trkpt><trkpt lat="43.403363566064066" lon="-3.977536838904983"><ele>86.0</ele><time>2026-05-01T10:48:15.001Z</time></trkpt><trkpt lat="43.40328902253685" lon="-3.9776535032607048"><ele>86.0</ele><time>2026-05-01T10:48:16.001Z</time></trkpt><trkpt lat="43.403217995432485" lon="-3.9777687821886367"><ele>86.8</ele><time>2026-05-01T10:48:17.001Z</time></trkpt><trkpt lat="43.403146667754335" lon="-3.977883899469478"><ele>87.6</ele><time>2026-05-01T10:48:18.001Z</time></trkpt><trkpt lat="43.40307636219854" lon="-3.978000696964516"><ele>88.4</ele><time>2026-05-01T10:48:19.001Z</time></trkpt><trkpt lat="43.403004189681695" lon="-3.978116427082916"><ele>89.2</ele><time>2026-05-01T10:48:20.001Z</time></trkpt><trkpt lat="43.4029321467762" lon="-3.9782342550262513"><ele>90.0</ele><time>2026-05-01T10:48:21.001Z</time></trkpt><trkpt lat="43.402859906258605" lon="-3.9783524048088794"><ele>90.0</ele><time>2026-05-01T10:48:22.001Z</time></trkpt><trkpt lat="43.40279030224874" lon="-3.9784677412410403"><ele>90.0</ele><time>2026-05-01T10:48:23.001Z</time></trkpt><trkpt lat="43.402717920490666" lon="-3.9785831501820783"><ele>90.0</ele><time>2026-05-01T10:48:24.001Z</time></trkpt><trkpt lat="43.40264530901046" lon="-3.9786989520578855"><ele>90.0</ele><time>2026-05-01T10:48:25.001Z</time></trkpt><trkpt lat="43.40257246090501" lon="-3.9788148065403197"><ele>90.0</ele><time>2026-05-01T10:48:26.001Z</time></trkpt><trkpt lat="43.40250254665376" lon="-3.9789298463077896"><ele>90.0</ele><time>2026-05-01T10:48:27.001Z</time></trkpt><trkpt lat="43.402432240650235" lon="-3.979042725724485"><ele>90.0</ele><time>2026-05-01T10:48:28.001Z</time></trkpt><trkpt lat="43.40236520915153" lon="-3.9791629522622673"><ele>90.0</ele><time>2026-05-01T10:48:29.001Z</time></trkpt><trkpt lat="43.40229455896963" lon="-3.979278115294799"><ele>90.0</ele><time>2026-05-01T10:48:30.001Z</time></trkpt><trkpt lat="43.402221933468816" lon="-3.979393165925742"><ele>90.0</ele><time>2026-05-01T10:48:31.001Z</time></trkpt><trkpt lat="43.40214855260356" lon="-3.9795082373582606"><ele>89.8</ele><time>2026-05-01T10:48:32.001Z</time></trkpt><trkpt lat="43.40207678971462" lon="-3.979622480210738"><ele>89.6</ele><time>2026-05-01T10:48:33.001Z</time></trkpt><trkpt lat="43.40200355633139" lon="-3.9797378360661932"><ele>89.4</ele><time>2026-05-01T10:48:34.001Z</time></trkpt><trkpt lat="43.40193495997597" lon="-3.979853745529908"><ele>89.2</ele><time>2026-05-01T10:48:35.001Z</time></trkpt><trkpt lat="43.40186394907633" lon="-3.979971040560431"><ele>89.0</ele><time>2026-05-01T10:48:36.001Z</time></trkpt><trkpt lat="43.40179148293749" lon="-3.9800880675867436"><ele>91.0</ele><time>2026-05-01T10:48:37.002Z</time></trkpt><trkpt lat="43.40172297922057" lon="-3.9802050070630055"><ele>93.0</ele><time>2026-05-01T10:48:38.002Z</time></trkpt><trkpt lat="43.40165364696191" lon="-3.980324244817546"><ele>95.0</ele><time>2026-05-01T10:48:39.002Z</time></trkpt><trkpt lat="43.40158996714419" lon="-3.9804469582298236"><ele>97.0</ele><time>2026-05-01T10:48:40.002Z</time></trkpt><trkpt lat="43.401525726804145" lon="-3.980572966847612"><ele>99.0</ele><time>2026-05-01T10:48:41.002Z</time></trkpt><trkpt lat="43.40146657708938" lon="-3.980701279672094"><ele>99.0</ele><time>2026-05-01T10:48:42.002Z</time></trkpt><trkpt lat="43.40141085345701" lon="-3.9808336507944384"><ele>99.0</ele><time>2026-05-01T10:48:43.002Z</time></trkpt><trkpt lat="43.401358039991415" lon="-3.9809695456784424"><ele>99.0</ele><time>2026-05-01T10:48:44.002Z</time></trkpt><trkpt lat="43.401310561217954" lon="-3.9811109184578237"><ele>99.0</ele><time>2026-05-01T10:48:45.002Z</time></trkpt><trkpt lat="43.40126420022481" lon="-3.9812510177060347"><ele>99.0</ele><time>2026-05-01T10:48:46.002Z</time></trkpt><trkpt lat="43.40121668892236" lon="-3.9813951176629327"><ele>97.0</ele><time>2026-05-01T10:48:47.002Z</time></trkpt><trkpt lat="43.40116921385802" lon="-3.981539584404572"><ele>95.0</ele><time>2026-05-01T10:48:48.002Z</time></trkpt><trkpt lat="43.401123925323354" lon="-3.981684813700578"><ele>93.0</ele><time>2026-05-01T10:48:49.002Z</time></trkpt><trkpt lat="43.401075301039036" lon="-3.981828575666492"><ele>91.0</ele><time>2026-05-01T10:48:50.002Z</time></trkpt><trkpt lat="43.401028663904164" lon="-3.9819727854454343"><ele>91.0</ele><time>2026-05-01T10:48:51.002Z</time></trkpt><trkpt lat="43.40098408084596" lon="-3.9821136317904022"><ele>91.0</ele><time>2026-05-01T10:48:52.002Z</time></trkpt><trkpt lat="43.40093874583437" lon="-3.9822548157282918"><ele>91.0</ele><time>2026-05-01T10:48:53.002Z</time></trkpt><trkpt lat="43.400890073665444" lon="-3.982397480446427"><ele>91.0</ele><time>2026-05-01T10:48:54.002Z</time></trkpt><trkpt lat="43.400840972971274" lon="-3.98254277423714"><ele>92.5</ele><time>2026-05-01T10:48:55.002Z</time></trkpt><trkpt lat="43.40078855493187" lon="-3.9826833961832944"><ele>94.0</ele><time>2026-05-01T10:48:56.002Z</time></trkpt><trkpt lat="43.40073389574317" lon="-3.982821499697927"><ele>95.5</ele><time>2026-05-01T10:48:57.002Z</time></trkpt><trkpt lat="43.40067790308032" lon="-3.982956664185877"><ele>97.0</ele><time>2026-05-01T10:48:58.002Z</time></trkpt><trkpt lat="43.40063601641833" lon="-3.983101613907762"><ele>97.0</ele><time>2026-05-01T10:48:59.002Z</time></trkpt><trkpt lat="43.4005692635257" lon="-3.9832268061081058"><ele>97.0</ele><time>2026-05-01T10:49:00.002Z</time></trkpt><trkpt lat="43.40051089982654" lon="-3.9833581954912463"><ele>97.0</ele><time>2026-05-01T10:49:01.002Z</time></trkpt><trkpt lat="43.40045533859456" lon="-3.983485773598753"><ele>97.0</ele><time>2026-05-01T10:49:02.002Z</time></trkpt><trkpt lat="43.400395884064274" lon="-3.9836121764943417"><ele>97.0</ele><time>2026-05-01T10:49:03.002Z</time></trkpt><trkpt lat="43.400335576829924" lon="-3.9837367461228825"><ele>96.6</ele><time>2026-05-01T10:49:04.002Z</time></trkpt><trkpt lat="43.4002918216606" lon="-3.9838802987366413"><ele>96.19999999999999</ele><time>2026-05-01T10:49:05.002Z</time></trkpt><trkpt lat="43.40023620273318" lon="-3.984011948457187"><ele>95.8</ele><time>2026-05-01T10:49:06.002Z</time></trkpt><trkpt lat="43.400182902689004" lon="-3.9841459396894483"><ele>95.4</ele><time>2026-05-01T10:49:07.002Z</time></trkpt><trkpt lat="43.40013687019088" lon="-3.9842886597596094"><ele>95.0</ele><time>2026-05-01T10:49:08.002Z</time></trkpt><trkpt lat="43.40009692738686" lon="-3.9844334638005945"><ele>95.0</ele><time>2026-05-01T10:49:09.002Z</time></trkpt><trkpt lat="43.400067971118965" lon="-3.984581879524426"><ele>95.0</ele><time>2026-05-01T10:49:10.002Z</time></trkpt><trkpt lat="43.4000405522935" lon="-3.984737202873144"><ele>95.0</ele><time>2026-05-01T10:49:11.002Z</time></trkpt><trkpt lat="43.40001516343556" lon="-3.9848909379746953"><ele>95.0</ele><time>2026-05-01T10:49:12Z</time></trkpt><trkpt lat="43.39999088438603" lon="-3.985044358890169"><ele>94.75</ele><time>2026-05-01T10:49:13Z</time></trkpt><trkpt lat="43.399964597786074" lon="-3.985197833823393"><ele>94.5</ele><time>2026-05-01T10:49:14Z</time></trkpt><trkpt lat="43.3999371553832" lon="-3.985348468223295"><ele>94.25</ele><time>2026-05-01T10:49:15Z</time></trkpt><trkpt lat="43.39990857510554" lon="-3.985505348351423"><ele>94.0</ele><time>2026-05-01T10:49:16Z</time></trkpt><trkpt lat="43.39988098461632" lon="-3.9856567955840787"><ele>94.0</ele><time>2026-05-01T10:49:17Z</time></trkpt><trkpt lat="43.39985417049768" lon="-3.985810919483762"><ele>94.0</ele><time>2026-05-01T10:49:18Z</time></trkpt><trkpt lat="43.39982777742513" lon="-3.985967668830269"><ele>94.0</ele><time>2026-05-01T10:49:19Z</time></trkpt><trkpt lat="43.399802142037075" lon="-3.9861199185366907"><ele>94.0</ele><time>2026-05-01T10:49:20Z</time></trkpt><trkpt lat="43.399759995916675" lon="-3.9862697011888235"><ele>93.75</ele><time>2026-05-01T10:49:21Z</time></trkpt><trkpt lat="43.39974970080644" lon="-3.986425663411148"><ele>93.5</ele><time>2026-05-01T10:49:22Z</time></trkpt><trkpt lat="43.39971928089895" lon="-3.9865784773290605"><ele>93.25</ele><time>2026-05-01T10:49:23Z</time></trkpt><trkpt lat="43.39967612466376" lon="-3.9867223757852326"><ele>93.0</ele><time>2026-05-01T10:49:24Z</time></trkpt><trkpt lat="43.399628045478764" lon="-3.9868633885231155"><ele>92.2</ele><time>2026-05-01T10:49:25Z</time></trkpt><trkpt lat="43.39955155385896" lon="-3.9869864429746333"><ele>91.4</ele><time>2026-05-01T10:49:26Z</time></trkpt><trkpt lat="43.399486400765284" lon="-3.9871141936156844"><ele>90.60000000000001</ele><time>2026-05-01T10:49:27Z</time></trkpt><trkpt lat="43.39942677498591" lon="-3.987231105742754"><ele>89.80000000000001</ele><time>2026-05-01T10:49:28Z</time></trkpt><trkpt lat="43.39937569727921" lon="-3.9873477968542956"><ele>89.0</ele><time>2026-05-01T10:49:29Z</time></trkpt><trkpt lat="43.39932804247913" lon="-3.9874550524046852"><ele>88.33333333333334</ele><time>2026-05-01T10:49:30Z</time></trkpt><trkpt lat="43.39929478446565" lon="-3.9875587526681673"><ele>87.66666666666667</ele><time>2026-05-01T10:49:31Z</time></trkpt><trkpt lat="43.39930615466203" lon="-3.9876745384659102"><ele>87.0</ele><time>2026-05-01T10:49:32Z</time></trkpt><trkpt lat="43.399319583611536" lon="-3.9877778869378986"><ele>86.33333333333333</ele><time>2026-05-01T10:49:33Z</time></trkpt><trkpt lat="43.39929460594983" lon="-3.9878783037777965"><ele>85.66666666666666</ele><time>2026-05-01T10:49:34Z</time></trkpt><trkpt lat="43.39923204936036" lon="-3.9879521531877553"><ele>85.0</ele><time>2026-05-01T10:49:35Z</time></trkpt><trkpt lat="43.39914254489874" lon="-3.987989154261729"><ele>85.0</ele><time>2026-05-01T10:49:36Z</time></trkpt><trkpt lat="43.39904462601648" lon="-3.988007495647393"><ele>85.0</ele><time>2026-05-01T10:49:37Z</time></trkpt><trkpt lat="43.39896052434889" lon="-3.988086390350572"><ele>85.0</ele><time>2026-05-01T10:49:38Z</time></trkpt><trkpt lat="43.39890524454678" lon="-3.9882193032464257"><ele>85.0</ele><time>2026-05-01T10:49:39Z</time></trkpt><trkpt lat="43.39886690056865" lon="-3.9883727408401715"><ele>85.0</ele><time>2026-05-01T10:49:40Z</time></trkpt><trkpt lat="43.39878622474619" lon="-3.9884906087412233"><ele>83.0</ele><time>2026-05-01T10:49:41Z</time></trkpt><trkpt lat="43.39870854162376" lon="-3.9886079241678787"><ele>81.0</ele><time>2026-05-01T10:49:42.001Z</time></trkpt><trkpt lat="43.398617425901094" lon="-3.9887103341440997"><ele>79.0</ele><time>2026-05-01T10:49:43.001Z</time></trkpt><trkpt lat="43.39852019579725" lon="-3.9888024354845943"><ele>77.0</ele><time>2026-05-01T10:49:44.001Z</time></trkpt><trkpt lat="43.39842396616963" lon="-3.988886720837181"><ele>77.0</ele><time>2026-05-01T10:49:45.001Z</time></trkpt><trkpt lat="43.39833341407506" lon="-3.9889777539021107"><ele>77.0</ele><time>2026-05-01T10:49:46.001Z</time></trkpt><trkpt lat="43.398235548777905" lon="-3.989064730797832"><ele>77.0</ele><time>2026-05-01T10:49:47.001Z</time></trkpt><trkpt lat="43.398139778103676" lon="-3.989144218619824"><ele>77.0</ele><time>2026-05-01T10:49:48.001Z</time></trkpt><trkpt lat="43.39805336580989" lon="-3.9892422517079167"><ele>74.0</ele><time>2026-05-01T10:49:49.001Z</time></trkpt><trkpt lat="43.39796747111254" lon="-3.9893300557360343"><ele>71.0</ele><time>2026-05-01T10:49:50.001Z</time></trkpt><trkpt lat="43.397892026822156" lon="-3.9894346902034834"><ele>68.0</ele><time>2026-05-01T10:49:51.001Z</time></trkpt><trkpt lat="43.397825455093965" lon="-3.989564952444812"><ele>65.0</ele><time>2026-05-01T10:49:52.001Z</time></trkpt><trkpt lat="43.39778485278513" lon="-3.9897140954422348"><ele>62.0</ele><time>2026-05-01T10:49:53.001Z</time></trkpt><trkpt lat="43.397767570321975" lon="-3.989871662110271"><ele>59.75</ele><time>2026-05-01T10:49:54.001Z</time></trkpt><trkpt lat="43.397764231435865" lon="-3.9900382378250643"><ele>57.5</ele><time>2026-05-01T10:49:55.001Z</time></trkpt><trkpt lat="43.397759500365275" lon="-3.9902081558243667"><ele>55.25</ele><time>2026-05-01T10:49:56.001Z</time></trkpt><trkpt lat="43.39774211000424" lon="-3.9903802232168166"><ele>53.0</ele><time>2026-05-01T10:49:57.001Z</time></trkpt><trkpt lat="43.397737663158374" lon="-3.9905564060651475"><ele>53.0</ele><time>2026-05-01T10:49:58.001Z</time></trkpt><trkpt lat="43.39773542123461" lon="-3.99072867962478"><ele>53.0</ele><time>2026-05-01T10:49:59.001Z</time></trkpt><trkpt lat="43.39773597276295" lon="-3.990900343449435"><ele>53.0</ele><time>2026-05-01T10:50:00.001Z</time></trkpt><trkpt lat="43.39772874584822" lon="-3.9910719761614586"><ele>53.0</ele><time>2026-05-01T10:50:01.001Z</time></trkpt><trkpt lat="43.397726772432364" lon="-3.9912388963764545"><ele>52.0</ele><time>2026-05-01T10:50:02.001Z</time></trkpt><trkpt lat="43.39772064159138" lon="-3.9914031723439156"><ele>51.0</ele><time>2026-05-01T10:50:03.001Z</time></trkpt><trkpt lat="43.39772164185538" lon="-3.991565512985536"><ele>50.0</ele><time>2026-05-01T10:50:04.001Z</time></trkpt><trkpt lat="43.39770753233139" lon="-3.991730243311466"><ele>49.0</ele><time>2026-05-01T10:50:05.001Z</time></trkpt><trkpt lat="43.3976914403313" lon="-3.9918877487273536"><ele>48.5</ele><time>2026-05-01T10:50:06.001Z</time></trkpt><trkpt lat="43.39766527679864" lon="-3.992047787205636"><ele>48.0</ele><time>2026-05-01T10:50:07.001Z</time></trkpt><trkpt lat="43.39763391558163" lon="-3.9922019536534523"><ele>47.5</ele><time>2026-05-01T10:50:08.001Z</time></trkpt><trkpt lat="43.39759623629045" lon="-3.992356740721279"><ele>47.0</ele><time>2026-05-01T10:50:09.001Z</time></trkpt><trkpt lat="43.397556844374236" lon="-3.9925068976595828"><ele>46.5</ele><time>2026-05-01T10:50:10.001Z</time></trkpt><trkpt lat="43.39751914078896" lon="-3.992658800294849"><ele>46.0</ele><time>2026-05-01T10:50:11.001Z</time></trkpt><trkpt lat="43.39747935761974" lon="-3.9928108932006237"><ele>45.5</ele><time>2026-05-01T10:50:12.001Z</time></trkpt><trkpt lat="43.39744276348944" lon="-3.992955406424914"><ele>45.0</ele><time>2026-05-01T10:50:13.001Z</time></trkpt><trkpt lat="43.39740193864462" lon="-3.993097280967604"><ele>45.0</ele><time>2026-05-01T10:50:14.001Z</time></trkpt><trkpt lat="43.397359342988864" lon="-3.993238675031645"><ele>45.0</ele><time>2026-05-01T10:50:15.001Z</time></trkpt><trkpt lat="43.39731461048424" lon="-3.993372127789649"><ele>45.0</ele><time>2026-05-01T10:50:16.001Z</time></trkpt><trkpt lat="43.397268972893144" lon="-3.993507473015168"><ele>45.0</ele><time>2026-05-01T10:50:17.001Z</time></trkpt><trkpt lat="43.39722764383665" lon="-3.9936637508468724"><ele>45.0</ele><time>2026-05-01T10:50:18.001Z</time></trkpt><trkpt lat="43.39720461220315" lon="-3.993856742845966"><ele>44.0</ele><time>2026-05-01T10:50:19.001Z</time></trkpt><trkpt lat="43.397126129939984" lon="-3.9940274057120355"><ele>43.0</ele><time>2026-05-01T10:50:20.001Z</time></trkpt><trkpt lat="43.397047661130934" lon="-3.994012012250361"><ele>42.0</ele><time>2026-05-01T10:50:21.001Z</time></trkpt><trkpt lat="43.39698535517747" lon="-3.9941312853017203"><ele>41.0</ele><time>2026-05-01T10:50:22.001Z</time></trkpt><trkpt lat="43.396917892569085" lon="-3.9942499863831404"><ele>40.0</ele><time>2026-05-01T10:50:23.001Z</time></trkpt><trkpt lat="43.39684528007916" lon="-3.9943682422472753"><ele>39.5</ele><time>2026-05-01T10:50:24.001Z</time></trkpt><trkpt lat="43.396768639114796" lon="-3.9944862056548347"><ele>39.0</ele><time>2026-05-01T10:50:25.001Z</time></trkpt><trkpt lat="43.39669086300927" lon="-3.9946017277648664"><ele>38.5</ele><time>2026-05-01T10:50:26.001Z</time></trkpt><trkpt lat="43.39661295428325" lon="-3.994725991341306"><ele>38.0</ele><time>2026-05-01T10:50:27.001Z</time></trkpt><trkpt lat="43.39654463049848" lon="-3.994855941458121"><ele>38.0</ele><time>2026-05-01T10:50:28.001Z</time></trkpt><trkpt lat="43.39648879272778" lon="-3.9950005775540904"><ele>38.0</ele><time>2026-05-01T10:50:29.001Z</time></trkpt><trkpt lat="43.39643217840985" lon="-3.9951494710444178"><ele>38.0</ele><time>2026-05-01T10:50:30.001Z</time></trkpt><trkpt lat="43.3963772029605" lon="-3.995298124034188"><ele>38.0</ele><time>2026-05-01T10:50:31.002Z</time></trkpt><trkpt lat="43.396324625930035" lon="-3.995447897156935"><ele>34.75</ele><time>2026-05-01T10:50:32.002Z</time></trkpt><trkpt lat="43.3962715250093" lon="-3.995599869395782"><ele>31.5</ele><time>2026-05-01T10:50:33.002Z</time></trkpt><trkpt lat="43.39622061453806" lon="-3.9957433758637726"><ele>28.25</ele><time>2026-05-01T10:50:34.002Z</time></trkpt><trkpt lat="43.39617263598364" lon="-3.995888289109808"><ele>25.0</ele><time>2026-05-01T10:50:35.002Z</time></trkpt><trkpt lat="43.39612481066866" lon="-3.996033315654881"><ele>25.0</ele><time>2026-05-01T10:50:36.002Z</time></trkpt><trkpt lat="43.39607548989921" lon="-3.996178039932598"><ele>25.0</ele><time>2026-05-01T10:50:37.002Z</time></trkpt><trkpt lat="43.39602453568006" lon="-3.99632003489836"><ele>25.0</ele><time>2026-05-01T10:50:38.002Z</time></trkpt><trkpt lat="43.39597665009532" lon="-3.996460410686877"><ele>25.0</ele><time>2026-05-01T10:50:39.002Z</time></trkpt><trkpt lat="43.39592722691608" lon="-3.9966029109735293"><ele>24.75</ele><time>2026-05-01T10:50:40.002Z</time></trkpt><trkpt lat="43.39587876327235" lon="-3.996747595601995"><ele>24.5</ele><time>2026-05-01T10:50:41.002Z</time></trkpt><trkpt lat="43.395831106136406" lon="-3.9968913516873577"><ele>24.25</ele><time>2026-05-01T10:50:42.002Z</time></trkpt><trkpt lat="43.395782563000175" lon="-3.997034975260109"><ele>24.0</ele><time>2026-05-01T10:50:43.002Z</time></trkpt><trkpt lat="43.395735359780495" lon="-3.9971802338063935"><ele>24.0</ele><time>2026-05-01T10:50:44.002Z</time></trkpt><trkpt lat="43.39568946538063" lon="-3.9973294173907767"><ele>24.0</ele><time>2026-05-01T10:50:45.002Z</time></trkpt><trkpt lat="43.395638809797376" lon="-3.9974788064200126"><ele>24.0</ele><time>2026-05-01T10:50:46.002Z</time></trkpt><trkpt lat="43.395590150641034" lon="-3.9976269462036926"><ele>24.0</ele><time>2026-05-01T10:50:47.002Z</time></trkpt><trkpt lat="43.395539895187596" lon="-3.997774296694957"><ele>22.5</ele><time>2026-05-01T10:50:48.002Z</time></trkpt><trkpt lat="43.39549001448195" lon="-3.9979216346395003"><ele>21.0</ele><time>2026-05-01T10:50:49.002Z</time></trkpt><trkpt lat="43.39544024542195" lon="-3.9980699443141074"><ele>19.5</ele><time>2026-05-01T10:50:50.002Z</time></trkpt><trkpt lat="43.395390053009486" lon="-3.998218304894315"><ele>18.0</ele><time>2026-05-01T10:50:51.002Z</time></trkpt><trkpt lat="43.395341460533466" lon="-3.99836359949421"><ele>17.25</ele><time>2026-05-01T10:50:52.002Z</time></trkpt><trkpt lat="43.395292119253625" lon="-3.9985147791919493"><ele>16.5</ele><time>2026-05-01T10:50:53.002Z</time></trkpt><trkpt lat="43.39524654995869" lon="-3.9986522942352134"><ele>15.75</ele><time>2026-05-01T10:50:54.002Z</time></trkpt><trkpt lat="43.395195009291186" lon="-3.998799319881834"><ele>15.0</ele><time>2026-05-01T10:50:55.002Z</time></trkpt><trkpt lat="43.395146602559336" lon="-3.998946653924012"><ele>15.0</ele><time>2026-05-01T10:50:56.002Z</time></trkpt><trkpt lat="43.39510117276797" lon="-3.999089284221824"><ele>15.0</ele><time>2026-05-01T10:50:57.002Z</time></trkpt><trkpt lat="43.395050246554945" lon="-3.999237549364626"><ele>15.0</ele><time>2026-05-01T10:50:58.002Z</time></trkpt><trkpt lat="43.39500163488029" lon="-3.9993854128308435"><ele>15.0</ele><time>2026-05-01T10:50:59.002Z</time></trkpt><trkpt lat="43.39495090891289" lon="-3.999529976345013"><ele>14.5</ele><time>2026-05-01T10:51:00.002Z</time></trkpt><trkpt lat="43.39490429760441" lon="-3.9996745946148047"><ele>14.0</ele><time>2026-05-01T10:51:01.002Z</time></trkpt><trkpt lat="43.39485201202754" lon="-3.9998208919410314"><ele>13.5</ele><time>2026-05-01T10:51:02.002Z</time></trkpt><trkpt lat="43.39480318004065" lon="-3.9999629006626916"><ele>13.0</ele><time>2026-05-01T10:51:03.002Z</time></trkpt><trkpt lat="43.39475660416059" lon="-4.000107208995825"><ele>13.0</ele><time>2026-05-01T10:51:04.002Z</time></trkpt><trkpt lat="43.39471134625117" lon="-4.0002488627222155"><ele>13.0</ele><time>2026-05-01T10:51:05.002Z</time></trkpt><trkpt lat="43.394662425158835" lon="-4.0003913307670995"><ele>13.0</ele><time>2026-05-01T10:51:06.002Z</time></trkpt><trkpt lat="43.39462076885396" lon="-4.000534229388156"><ele>13.0</ele><time>2026-05-01T10:51:07.002Z</time></trkpt><trkpt lat="43.39458087419072" lon="-4.000672465668989"><ele>13.0</ele><time>2026-05-01T10:51:08.002Z</time></trkpt><trkpt lat="43.394548546790965" lon="-4.000820345231856"><ele>13.8</ele><time>2026-05-01T10:51:09.002Z</time></trkpt><trkpt lat="43.39452816590201" lon="-4.000975973999471"><ele>14.600000000000001</ele><time>2026-05-01T10:51:10.002Z</time></trkpt><trkpt lat="43.39452431132951" lon="-4.0011300373840575"><ele>15.399999999999999</ele><time>2026-05-01T10:51:11.002Z</time></trkpt><trkpt lat="43.394532820127914" lon="-4.001283676454369"><ele>16.2</ele><time>2026-05-01T10:51:12.002Z</time></trkpt><trkpt lat="43.39454677425024" lon="-4.001434476993656"><ele>17.0</ele><time>2026-05-01T10:51:13.002Z</time></trkpt><trkpt lat="43.39456602505772" lon="-4.001585950347441"><ele>16.0</ele><time>2026-05-01T10:51:14.002Z</time></trkpt><trkpt lat="43.39458546122051" lon="-4.001727391431962"><ele>15.0</ele><time>2026-05-01T10:51:15.002Z</time></trkpt><trkpt lat="43.39459923483633" lon="-4.001872046551807"><ele>14.0</ele><time>2026-05-01T10:51:16.002Z</time></trkpt><trkpt lat="43.39461397877054" lon="-4.0020077980472974"><ele>13.0</ele><time>2026-05-01T10:51:17.002Z</time></trkpt><trkpt lat="43.394637668235674" lon="-4.002148290234952"><ele>12.0</ele><time>2026-05-01T10:51:18.001Z</time></trkpt><trkpt lat="43.394693396809544" lon="-4.00226322338243"><ele>12.0</ele><time>2026-05-01T10:51:19.001Z</time></trkpt><trkpt lat="43.39476681129267" lon="-4.002347674542012"><ele>12.0</ele><time>2026-05-01T10:51:20.001Z</time></trkpt><trkpt lat="43.39485397782645" lon="-4.002373779459633"><ele>12.0</ele><time>2026-05-01T10:51:21.001Z</time></trkpt><trkpt lat="43.39494549002905" lon="-4.00240457997413"><ele>12.0</ele><time>2026-05-01T10:51:22.001Z</time></trkpt><trkpt lat="43.39503883180885" lon="-4.002441226984502"><ele>12.0</ele><time>2026-05-01T10:51:23.001Z</time></trkpt><trkpt lat="43.3951305175894" lon="-4.002465462727974"><ele>12.0</ele><time>2026-05-01T10:51:24.001Z</time></trkpt><trkpt lat="43.39522434981254" lon="-4.0024970198112255"><ele>12.0</ele><time>2026-05-01T10:51:25.001Z</time></trkpt><trkpt lat="43.39531411474042" lon="-4.002539567870324"><ele>12.0</ele><time>2026-05-01T10:51:26.001Z</time></trkpt><trkpt lat="43.395396824980466" lon="-4.002605012479647"><ele>12.0</ele><time>2026-05-01T10:51:27Z</time></trkpt><trkpt lat="43.395468838449766" lon="-4.002698039250338"><ele>12.0</ele><time>2026-05-01T10:51:28Z</time></trkpt><trkpt lat="43.39552186120922" lon="-4.0028191756804015"><ele>12.2</ele><time>2026-05-01T10:51:29Z</time></trkpt><trkpt lat="43.39556188066665" lon="-4.002959898248636"><ele>12.399999999999999</ele><time>2026-05-01T10:51:30Z</time></trkpt><trkpt lat="43.39558272705564" lon="-4.003095432205"><ele>12.600000000000001</ele><time>2026-05-01T10:51:31Z</time></trkpt><trkpt lat="43.39563258507265" lon="-4.003231918866744"><ele>12.8</ele><time>2026-05-01T10:51:32Z</time></trkpt><trkpt lat="43.39565901257371" lon="-4.003393287264506"><ele>13.0</ele><time>2026-05-01T10:51:33Z</time></trkpt><trkpt lat="43.39569978141214" lon="-4.003535424293437"><ele>13.0</ele><time>2026-05-01T10:51:34Z</time></trkpt><trkpt lat="43.39573990218294" lon="-4.003678765317553"><ele>13.0</ele><time>2026-05-01T10:51:35Z</time></trkpt><trkpt lat="43.39578585991009" lon="-4.003816019469118"><ele>13.0</ele><time>2026-05-01T10:51:36Z</time></trkpt><trkpt lat="43.395872145390086" lon="-4.003913129977147"><ele>13.0</ele><time>2026-05-01T10:51:37Z</time></trkpt><trkpt lat="43.395958164995534" lon="-4.00400190106101"><ele>13.0</ele><time>2026-05-01T10:51:38Z</time></trkpt><trkpt lat="43.39603938309841" lon="-4.0040951427811775"><ele>13.0</ele><time>2026-05-01T10:51:39.001Z</time></trkpt><trkpt lat="43.396128746718325" lon="-4.004182073098939"><ele>13.0</ele><time>2026-05-01T10:51:40.001Z</time></trkpt><trkpt lat="43.39621622277118" lon="-4.0042673419443755"><ele>13.0</ele><time>2026-05-01T10:51:41.001Z</time></trkpt><trkpt lat="43.39630186831114" lon="-4.004353168858741"><ele>13.0</ele><time>2026-05-01T10:51:42.001Z</time></trkpt><trkpt lat="43.39638785298494" lon="-4.004448062687322"><ele>13.0</ele><time>2026-05-01T10:51:43.001Z</time></trkpt><trkpt lat="43.396470566264696" lon="-4.004538602416202"><ele>13.0</ele><time>2026-05-01T10:51:44.001Z</time></trkpt><trkpt lat="43.39655554183522" lon="-4.004627864779392"><ele>13.0</ele><time>2026-05-01T10:51:45.001Z</time></trkpt><trkpt lat="43.39663429500114" lon="-4.004725344143203"><ele>13.0</ele><time>2026-05-01T10:51:46.001Z</time></trkpt><trkpt lat="43.39669654481969" lon="-4.004846667526091"><ele>13.0</ele><time>2026-05-01T10:51:47.001Z</time></trkpt><trkpt lat="43.39672253589162" lon="-4.004985514096187"><ele>13.0</ele><time>2026-05-01T10:51:48.001Z</time></trkpt><trkpt lat="43.39672251349496" lon="-4.005149572771541"><ele>15.0</ele><time>2026-05-01T10:51:49.001Z</time></trkpt><trkpt lat="43.39671861761079" lon="-4.00529897796417"><ele>17.0</ele><time>2026-05-01T10:51:50.001Z</time></trkpt><trkpt lat="43.396706736680414" lon="-4.005432180034909"><ele>19.0</ele><time>2026-05-01T10:51:51.001Z</time></trkpt><trkpt lat="43.396694271770585" lon="-4.005562647862166"><ele>21.0</ele><time>2026-05-01T10:51:52.001Z</time></trkpt><trkpt lat="43.39666527555175" lon="-4.0056866565538085"><ele>23.0</ele><time>2026-05-01T10:51:53.001Z</time></trkpt><trkpt lat="43.39662728948757" lon="-4.005823245057951"><ele>23.0</ele><time>2026-05-01T10:51:54.001Z</time></trkpt><trkpt lat="43.39657355415964" lon="-4.005944189971774"><ele>23.0</ele><time>2026-05-01T10:51:55.001Z</time></trkpt><trkpt lat="43.396515324624204" lon="-4.006054137585572"><ele>23.0</ele><time>2026-05-01T10:51:56.001Z</time></trkpt><trkpt lat="43.39645555409265" lon="-4.006164804965841"><ele>23.0</ele><time>2026-05-01T10:51:57.001Z</time></trkpt><trkpt lat="43.396394397149194" lon="-4.006269010354584"><ele>23.0</ele><time>2026-05-01T10:51:58.001Z</time></trkpt><trkpt lat="43.396332389502035" lon="-4.00637667834237"><ele>24.799999999999997</ele><time>2026-05-01T10:51:59.001Z</time></trkpt><trkpt lat="43.3962716079273" lon="-4.006481325467259"><ele>26.6</ele><time>2026-05-01T10:52:00.001Z</time></trkpt><trkpt lat="43.396204956049665" lon="-4.006580886262873"><ele>28.400000000000002</ele><time>2026-05-01T10:52:01.001Z</time></trkpt><trkpt lat="43.39613621213006" lon="-4.006676024962406"><ele>30.200000000000003</ele><time>2026-05-01T10:52:02.001Z</time></trkpt><trkpt lat="43.39606150682319" lon="-4.006763046481224"><ele>32.0</ele><time>2026-05-01T10:52:03.001Z</time></trkpt><trkpt lat="43.39598414036943" lon="-4.006845131624928"><ele>32.0</ele><time>2026-05-01T10:52:04.001Z</time></trkpt><trkpt lat="43.39590571325838" lon="-4.006925978889287"><ele>32.0</ele><time>2026-05-01T10:52:05.001Z</time></trkpt><trkpt lat="43.395823538234055" lon="-4.007003099659728"><ele>32.0</ele><time>2026-05-01T10:52:06.001Z</time></trkpt><trkpt lat="43.39573994938514" lon="-4.007078347185048"><ele>32.0</ele><time>2026-05-01T10:52:07.001Z</time></trkpt><trkpt lat="43.395654223849625" lon="-4.007150130010805"><ele>32.0</ele><time>2026-05-01T10:52:08.001Z</time></trkpt><trkpt lat="43.39556965173393" lon="-4.007221992453416"><ele>33.0</ele><time>2026-05-01T10:52:09.001Z</time></trkpt><trkpt lat="43.39548447324718" lon="-4.007294346729862"><ele>34.0</ele><time>2026-05-01T10:52:10.001Z</time></trkpt><trkpt lat="43.39539812250887" lon="-4.007364442641742"><ele>35.0</ele><time>2026-05-01T10:52:11.001Z</time></trkpt><trkpt lat="43.39531463759751" lon="-4.007439368035049"><ele>36.0</ele><time>2026-05-01T10:52:12.001Z</time></trkpt><trkpt lat="43.39524207891901" lon="-4.007538387112757"><ele>37.0</ele><time>2026-05-01T10:52:13.001Z</time></trkpt><trkpt lat="43.39520086157678" lon="-4.007675553564913"><ele>37.0</ele><time>2026-05-01T10:52:14.001Z</time></trkpt><trkpt lat="43.39517719220953" lon="-4.007819893644973"><ele>37.0</ele><time>2026-05-01T10:52:15.001Z</time></trkpt><trkpt lat="43.395159834324105" lon="-4.007970748720007"><ele>37.0</ele><time>2026-05-01T10:52:16.001Z</time></trkpt><trkpt lat="43.395141733641005" lon="-4.00812408050478"><ele>37.0</ele><time>2026-05-01T10:52:17.001Z</time></trkpt><trkpt lat="43.395112502408" lon="-4.008265093817448"><ele>37.0</ele><time>2026-05-01T10:52:18.001Z</time></trkpt><trkpt lat="43.395085713362626" lon="-4.008411763704983"><ele>36.800000000000004</ele><time>2026-05-01T10:52:19.001Z</time></trkpt><trkpt lat="43.395061723544345" lon="-4.008559108662802"><ele>36.6</ele><time>2026-05-01T10:52:20.001Z</time></trkpt><trkpt lat="43.395035637119726" lon="-4.00870479505473"><ele>36.400000000000006</ele><time>2026-05-01T10:52:21.001Z</time></trkpt><trkpt lat="43.39501086154444" lon="-4.008848261042118"><ele>36.2</ele><time>2026-05-01T10:52:22.001Z</time></trkpt><trkpt lat="43.39498990312118" lon="-4.008994673456318"><ele>36.0</ele><time>2026-05-01T10:52:23.001Z</time></trkpt><trkpt lat="43.39496964555651" lon="-4.009140015540876"><ele>35.0</ele><time>2026-05-01T10:52:24.001Z</time></trkpt><trkpt lat="43.39494404260014" lon="-4.009280577721288"><ele>34.0</ele><time>2026-05-01T10:52:25.001Z</time></trkpt><trkpt lat="43.39490989354961" lon="-4.009420022360372"><ele>33.0</ele><time>2026-05-01T10:52:26.001Z</time></trkpt><trkpt lat="43.394874693525125" lon="-4.009586714428619"><ele>32.0</ele><time>2026-05-01T10:52:27.001Z</time></trkpt><trkpt lat="43.39482293980034" lon="-4.0097663810216435"><ele>32.0</ele><time>2026-05-01T10:52:28.001Z</time></trkpt><trkpt lat="43.39476524797187" lon="-4.00996272419578"><ele>32.0</ele><time>2026-05-01T10:52:30.001Z</time></trkpt><trkpt lat="43.39471790875103" lon="-4.010101743999183"><ele>32.0</ele><time>2026-05-01T10:52:31.001Z</time></trkpt><trkpt lat="43.39466833857747" lon="-4.010238472958269"><ele>32.0</ele><time>2026-05-01T10:52:32.001Z</time></trkpt><trkpt lat="43.39461658234932" lon="-4.010376937032514"><ele>33.0</ele><time>2026-05-01T10:52:33.001Z</time></trkpt><trkpt lat="43.39456455929645" lon="-4.010518146373893"><ele>34.0</ele><time>2026-05-01T10:52:34.001Z</time></trkpt><trkpt lat="43.3945130212076" lon="-4.010652891868857"><ele>35.0</ele><time>2026-05-01T10:52:35.001Z</time></trkpt><trkpt lat="43.39446014977411" lon="-4.010794390821015"><ele>36.0</ele><time>2026-05-01T10:52:36.001Z</time></trkpt><trkpt lat="43.39440743524998" lon="-4.010932019579202"><ele>36.0</ele><time>2026-05-01T10:52:37.001Z</time></trkpt><trkpt lat="43.39435030105388" lon="-4.011071230497945"><ele>36.0</ele><time>2026-05-01T10:52:38.002Z</time></trkpt><trkpt lat="43.39429703018835" lon="-4.011205431723363"><ele>36.0</ele><time>2026-05-01T10:52:39.002Z</time></trkpt><trkpt lat="43.394241290704606" lon="-4.011324652103473"><ele>36.0</ele><time>2026-05-01T10:52:40.002Z</time></trkpt><trkpt lat="43.394182766324306" lon="-4.011448736128289"><ele>36.0</ele><time>2026-05-01T10:52:41.002Z</time></trkpt><trkpt lat="43.394116802919974" lon="-4.0115693615184576"><ele>36.6</ele><time>2026-05-01T10:52:42.002Z</time></trkpt><trkpt lat="43.39404160851573" lon="-4.011680822101148"><ele>37.2</ele><time>2026-05-01T10:52:43.002Z</time></trkpt><trkpt lat="43.3939622897698" lon="-4.011780365937475"><ele>37.8</ele><time>2026-05-01T10:52:44.002Z</time></trkpt><trkpt lat="43.39387167649229" lon="-4.0118702668312025"><ele>38.4</ele><time>2026-05-01T10:52:45.002Z</time></trkpt><trkpt lat="43.39377773179469" lon="-4.011956931619428"><ele>39.0</ele><time>2026-05-01T10:52:46.002Z</time></trkpt><trkpt lat="43.393684733957464" lon="-4.012052325102202"><ele>39.0</ele><time>2026-05-01T10:52:47.002Z</time></trkpt><trkpt lat="43.393592203891345" lon="-4.012152410821525"><ele>39.0</ele><time>2026-05-01T10:52:48.002Z</time></trkpt><trkpt lat="43.393502812461726" lon="-4.012251897066974"><ele>39.0</ele><time>2026-05-01T10:52:49.002Z</time></trkpt><trkpt lat="43.393436570329996" lon="-4.012376903053861"><ele>39.0</ele><time>2026-05-01T10:52:50.002Z</time></trkpt><trkpt lat="43.39337104662816" lon="-4.012506449031957"><ele>36.0</ele><time>2026-05-01T10:52:51.002Z</time></trkpt><trkpt lat="43.39331086730274" lon="-4.012645892234024"><ele>33.0</ele><time>2026-05-01T10:52:52.002Z</time></trkpt><trkpt lat="43.39327627441836" lon="-4.012799876484082"><ele>30.0</ele><time>2026-05-01T10:52:53.002Z</time></trkpt><trkpt lat="43.393247748540766" lon="-4.012953739108092"><ele>27.0</ele><time>2026-05-01T10:52:54.002Z</time></trkpt><trkpt lat="43.39323338361585" lon="-4.013111990530125"><ele>27.0</ele><time>2026-05-01T10:52:55.002Z</time></trkpt><trkpt lat="43.39323498493056" lon="-4.013272558581762"><ele>27.0</ele><time>2026-05-01T10:52:56.002Z</time></trkpt><trkpt lat="43.393252488571385" lon="-4.013428574898165"><ele>27.0</ele><time>2026-05-01T10:52:57.002Z</time></trkpt><trkpt lat="43.39328423151478" lon="-4.013582322721896"><ele>27.0</ele><time>2026-05-01T10:52:58.002Z</time></trkpt><trkpt lat="43.39332644972875" lon="-4.013729884622807"><ele>25.5</ele><time>2026-05-01T10:52:59.002Z</time></trkpt><trkpt lat="43.393379814075715" lon="-4.013871098996535"><ele>24.0</ele><time>2026-05-01T10:53:00.002Z</time></trkpt><trkpt lat="43.39344709844209" lon="-4.014003436836145"><ele>22.5</ele><time>2026-05-01T10:53:01.002Z</time></trkpt><trkpt lat="43.39352483250988" lon="-4.014127741667433"><ele>21.0</ele><time>2026-05-01T10:53:02.002Z</time></trkpt><trkpt lat="43.39360155174746" lon="-4.014239212939405"><ele>20.5</ele><time>2026-05-01T10:53:03.002Z</time></trkpt><trkpt lat="43.39369669757284" lon="-4.014350510152362"><ele>20.0</ele><time>2026-05-01T10:53:04.002Z</time></trkpt><trkpt lat="43.39380801507607" lon="-4.014450550009441"><ele>19.5</ele><time>2026-05-01T10:53:05.002Z</time></trkpt><trkpt lat="43.393851874807055" lon="-4.014599954161345"><ele>19.0</ele><time>2026-05-01T10:53:06.002Z</time></trkpt><trkpt lat="43.393927383999575" lon="-4.014729001455956"><ele>18.2</ele><time>2026-05-01T10:53:07.002Z</time></trkpt><trkpt lat="43.393995165403474" lon="-4.014852515171055"><ele>17.4</ele><time>2026-05-01T10:53:08.002Z</time></trkpt><trkpt lat="43.394068043964225" lon="-4.01495979289081"><ele>16.6</ele><time>2026-05-01T10:53:09.002Z</time></trkpt><trkpt lat="43.39413627558218" lon="-4.01506023911047"><ele>15.8</ele><time>2026-05-01T10:53:10.002Z</time></trkpt><trkpt lat="43.394192636960035" lon="-4.0151544573061795"><ele>15.0</ele><time>2026-05-01T10:53:11.002Z</time></trkpt><trkpt lat="43.39423630105474" lon="-4.015261991627373"><ele>13.8</ele><time>2026-05-01T10:53:12.002Z</time></trkpt><trkpt lat="43.394255214200605" lon="-4.015381363806791"><ele>12.6</ele><time>2026-05-01T10:53:13.002Z</time></trkpt><trkpt lat="43.39424304110391" lon="-4.015511531659193"><ele>11.4</ele><time>2026-05-01T10:53:14.002Z</time></trkpt><trkpt lat="43.39421189300428" lon="-4.015642847211856"><ele>10.2</ele><time>2026-05-01T10:53:15.002Z</time></trkpt><trkpt lat="43.394157227412904" lon="-4.015770811626728"><ele>9.0</ele><time>2026-05-01T10:53:16.002Z</time></trkpt><trkpt lat="43.39407785182336" lon="-4.015890192413197"><ele>9.25</ele><time>2026-05-01T10:53:17.002Z</time></trkpt><trkpt lat="43.39400325050078" lon="-4.016007332796892"><ele>9.5</ele><time>2026-05-01T10:53:18.002Z</time></trkpt><trkpt lat="43.393940464277776" lon="-4.016134473950514"><ele>9.75</ele><time>2026-05-01T10:53:19.002Z</time></trkpt><trkpt lat="43.393885694482194" lon="-4.016272202527364"><ele>10.0</ele><time>2026-05-01T10:53:20.002Z</time></trkpt><trkpt lat="43.393829134215025" lon="-4.016403888195549"><ele>10.0</ele><time>2026-05-01T10:53:21.002Z</time></trkpt><trkpt lat="43.39377541497489" lon="-4.0165372254994285"><ele>10.0</ele><time>2026-05-01T10:53:22.002Z</time></trkpt><trkpt lat="43.393725510418015" lon="-4.01667356523941"><ele>10.0</ele><time>2026-05-01T10:53:23.002Z</time></trkpt><trkpt lat="43.39368680658047" lon="-4.016814068878723"><ele>10.0</ele><time>2026-05-01T10:53:24.001Z</time></trkpt><trkpt lat="43.393649374780665" lon="-4.01695778015283"><ele>10.0</ele><time>2026-05-01T10:53:25.001Z</time></trkpt><trkpt lat="43.39361205325959" lon="-4.017096666980952"><ele>9.8</ele><time>2026-05-01T10:53:26.001Z</time></trkpt><trkpt lat="43.39357189903074" lon="-4.017234225914773"><ele>9.6</ele><time>2026-05-01T10:53:27.001Z</time></trkpt><trkpt lat="43.393532148149866" lon="-4.017370128989207"><ele>9.4</ele><time>2026-05-01T10:53:28.001Z</time></trkpt><trkpt lat="43.39348450408174" lon="-4.017501332969349"><ele>9.2</ele><time>2026-05-01T10:53:29.001Z</time></trkpt><trkpt lat="43.39342933185116" lon="-4.017625790286394"><ele>9.0</ele><time>2026-05-01T10:53:30.001Z</time></trkpt><trkpt lat="43.393366901911776" lon="-4.01774473694854"><ele>9.0</ele><time>2026-05-01T10:53:31.001Z</time></trkpt><trkpt lat="43.393301966182875" lon="-4.0178640800852685"><ele>9.0</ele><time>2026-05-01T10:53:32.001Z</time></trkpt><trkpt lat="43.39323298875158" lon="-4.0179826293665135"><ele>9.0</ele><time>2026-05-01T10:53:33Z</time></trkpt><trkpt lat="43.39315665850132" lon="-4.018096411429889"><ele>9.0</ele><time>2026-05-01T10:53:34Z</time></trkpt><trkpt lat="43.393080934739636" lon="-4.018212779146959"><ele>9.0</ele><time>2026-05-01T10:53:35Z</time></trkpt><trkpt lat="43.39300602516776" lon="-4.018333066385623"><ele>9.8</ele><time>2026-05-01T10:53:36Z</time></trkpt><trkpt lat="43.39293502752256" lon="-4.018455463992973"><ele>10.600000000000001</ele><time>2026-05-01T10:53:37Z</time></trkpt><trkpt lat="43.39286613991678" lon="-4.018572934591316"><ele>11.4</ele><time>2026-05-01T10:53:38Z</time></trkpt><trkpt lat="43.39279314390892" lon="-4.0186900101872425"><ele>12.200000000000001</ele><time>2026-05-01T10:53:39Z</time></trkpt><trkpt lat="43.39272225212024" lon="-4.018806874005025"><ele>13.0</ele><time>2026-05-01T10:53:40Z</time></trkpt><trkpt lat="43.3926512458851" lon="-4.0189251218468485"><ele>13.0</ele><time>2026-05-01T10:53:41Z</time></trkpt><trkpt lat="43.392580198827986" lon="-4.01904111345852"><ele>13.0</ele><time>2026-05-01T10:53:42Z</time></trkpt><trkpt lat="43.39250866291287" lon="-4.0191550325700165"><ele>13.0</ele><time>2026-05-01T10:53:43Z</time></trkpt><trkpt lat="43.39242984921612" lon="-4.019265402919419"><ele>13.0</ele><time>2026-05-01T10:53:44Z</time></trkpt><trkpt lat="43.39236123412445" lon="-4.019378561130559"><ele>13.0</ele><time>2026-05-01T10:53:45Z</time></trkpt><trkpt lat="43.392295849398565" lon="-4.019499779069307"><ele>13.2</ele><time>2026-05-01T10:53:46Z</time></trkpt><trkpt lat="43.392227048600326" lon="-4.019615932894819"><ele>13.4</ele><time>2026-05-01T10:53:47Z</time></trkpt><trkpt lat="43.39215710399145" lon="-4.0197300694893405"><ele>13.599999999999998</ele><time>2026-05-01T10:53:48Z</time></trkpt><trkpt lat="43.39208925199491" lon="-4.019845071163902"><ele>13.799999999999999</ele><time>2026-05-01T10:53:49Z</time></trkpt><trkpt lat="43.39202090159462" lon="-4.019957127569486"><ele>14.0</ele><time>2026-05-01T10:53:50Z</time></trkpt><trkpt lat="43.3919558083008" lon="-4.020073743841706"><ele>14.0</ele><time>2026-05-01T10:53:51.001Z</time></trkpt><trkpt lat="43.39189026033015" lon="-4.020191526159962"><ele>13.999999999999998</ele><time>2026-05-01T10:53:52.001Z</time></trkpt><trkpt lat="43.391824122667494" lon="-4.020310743054819"><ele>13.999999999999998</ele><time>2026-05-01T10:53:53.001Z</time></trkpt><trkpt lat="43.39176202288745" lon="-4.0204321335685655"><ele>14.0</ele><time>2026-05-01T10:53:54.001Z</time></trkpt><trkpt lat="43.39170569109266" lon="-4.020563540164007"><ele>14.0</ele><time>2026-05-01T10:53:55.001Z</time></trkpt><trkpt lat="43.391655752503304" lon="-4.020695847184497"><ele>14.0</ele><time>2026-05-01T10:53:56.001Z</time></trkpt><trkpt lat="43.39162170076193" lon="-4.02083993298468"><ele>13.999999999999998</ele><time>2026-05-01T10:53:57.001Z</time></trkpt><trkpt lat="43.391597608454205" lon="-4.0209756318040215"><ele>13.999999999999998</ele><time>2026-05-01T10:53:58.001Z</time></trkpt><trkpt lat="43.391584261899716" lon="-4.021087560339697"><ele>14.0</ele><time>2026-05-01T10:53:59.001Z</time></trkpt><trkpt lat="43.391558190572624" lon="-4.021260340817856"><ele>14.0</ele><time>2026-05-01T10:54:00.001Z</time></trkpt><trkpt lat="43.391530669528166" lon="-4.021391977879295"><ele>14.0</ele><time>2026-05-01T10:54:01.001Z</time></trkpt><trkpt lat="43.391500852068695" lon="-4.0215057794562155"><ele>14.0</ele><time>2026-05-01T10:54:02.001Z</time></trkpt><trkpt lat="43.39147875638988" lon="-4.021589857474079"><ele>14.0</ele><time>2026-05-01T10:54:03.001Z</time></trkpt><trkpt lat="43.39146027266009" lon="-4.021678029514075"><ele>14.0</ele><time>2026-05-01T10:54:05.001Z</time></trkpt><trkpt lat="43.39144986341725" lon="-4.021799783467951"><ele>14.0</ele><time>2026-05-01T10:54:07.001Z</time></trkpt><trkpt lat="43.39143939418452" lon="-4.0218907455287205"><ele>14.0</ele><time>2026-05-01T10:54:08.001Z</time></trkpt><trkpt lat="43.3914173233449" lon="-4.021987553551989"><ele>14.0</ele><time>2026-05-01T10:54:09.001Z</time></trkpt><trkpt lat="43.391384027822134" lon="-4.022089477875874"><ele>14.000000000000002</ele><time>2026-05-01T10:54:10.001Z</time></trkpt><trkpt lat="43.39134970320899" lon="-4.022190390123046"><ele>14.0</ele><time>2026-05-01T10:54:11.001Z</time></trkpt><trkpt lat="43.391326169630986" lon="-4.022299755628542"><ele>14.0</ele><time>2026-05-01T10:54:12.001Z</time></trkpt><trkpt lat="43.39131286624886" lon="-4.022420470514584"><ele>14.0</ele><time>2026-05-01T10:54:13.001Z</time></trkpt><trkpt lat="43.39130299167171" lon="-4.022546160648717"><ele>14.000000000000002</ele><time>2026-05-01T10:54:14.001Z</time></trkpt><trkpt lat="43.39128762882623" lon="-4.022670599394448"><ele>14.0</ele><time>2026-05-01T10:54:15.001Z</time></trkpt><trkpt lat="43.39126884797159" lon="-4.02279284202481"><ele>14.0</ele><time>2026-05-01T10:54:16.001Z</time></trkpt><trkpt lat="43.391249990126816" lon="-4.022905616359361"><ele>13.999999999999998</ele><time>2026-05-01T10:54:17.001Z</time></trkpt><trkpt lat="43.391231404777066" lon="-4.02300795572207"><ele>13.999999999999998</ele><time>2026-05-01T10:54:18.001Z</time></trkpt><trkpt lat="43.391205624898696" lon="-4.023168115537721"><ele>14.0</ele><time>2026-05-01T10:54:20.001Z</time></trkpt><trkpt lat="43.39118179425172" lon="-4.023324546884144"><ele>14.0</ele><time>2026-05-01T10:54:22.001Z</time></trkpt><trkpt lat="43.39116362871039" lon="-4.02341154612365"><ele>13.833333333333334</ele><time>2026-05-01T10:54:23.001Z</time></trkpt><trkpt lat="43.3911412396762" lon="-4.023504942994935"><ele>13.666666666666668</ele><time>2026-05-01T10:54:24.001Z</time></trkpt><trkpt lat="43.39112193603055" lon="-4.023612716553832"><ele>13.5</ele><time>2026-05-01T10:54:25.001Z</time></trkpt><trkpt lat="43.391104387007886" lon="-4.023728384654659"><ele>13.333333333333332</ele><time>2026-05-01T10:54:26.001Z</time></trkpt><trkpt lat="43.391083645549216" lon="-4.023849503795239"><ele>13.166666666666666</ele><time>2026-05-01T10:54:27.001Z</time></trkpt><trkpt lat="43.39106020807616" lon="-4.023976637334187"><ele>13.0</ele><time>2026-05-01T10:54:28.001Z</time></trkpt><trkpt lat="43.391037180392736" lon="-4.024110259970487"><ele>12.600000000000001</ele><time>2026-05-01T10:54:29.001Z</time></trkpt><trkpt lat="43.391013864119586" lon="-4.024240920816153"><ele>12.200000000000001</ele><time>2026-05-01T10:54:30.001Z</time></trkpt><trkpt lat="43.390987913788116" lon="-4.024373803681515"><ele>11.8</ele><time>2026-05-01T10:54:31.001Z</time></trkpt><trkpt lat="43.39096297299312" lon="-4.024511109801414"><ele>11.4</ele><time>2026-05-01T10:54:32.001Z</time></trkpt><trkpt lat="43.390941510532826" lon="-4.024649342871935"><ele>11.0</ele><time>2026-05-01T10:54:33.001Z</time></trkpt><trkpt lat="43.39091634696519" lon="-4.024791666357438"><ele>11.0</ele><time>2026-05-01T10:54:34.001Z</time></trkpt><trkpt lat="43.39089106555769" lon="-4.024931577840027"><ele>11.0</ele><time>2026-05-01T10:54:35.001Z</time></trkpt><trkpt lat="43.39086564595519" lon="-4.025062710327946"><ele>11.0</ele><time>2026-05-01T10:54:36.001Z</time></trkpt><trkpt lat="43.39084081373427" lon="-4.025199282408554"><ele>11.0</ele><time>2026-05-01T10:54:37.001Z</time></trkpt><trkpt lat="43.39081990866898" lon="-4.025333860581139"><ele>11.0</ele><time>2026-05-01T10:54:38.001Z</time></trkpt><trkpt lat="43.39079740287749" lon="-4.025463610262938"><ele>10.200000000000001</ele><time>2026-05-01T10:54:39.001Z</time></trkpt><trkpt lat="43.390768904321234" lon="-4.025594533407484"><ele>9.4</ele><time>2026-05-01T10:54:40.001Z</time></trkpt><trkpt lat="43.390741995533816" lon="-4.0257221493681445"><ele>8.6</ele><time>2026-05-01T10:54:41.001Z</time></trkpt><trkpt lat="43.39070468514306" lon="-4.02585322871599"><ele>7.8</ele><time>2026-05-01T10:54:42.001Z</time></trkpt><trkpt lat="43.39066622488984" lon="-4.02598151875466"><ele>7.0</ele><time>2026-05-01T10:54:43.001Z</time></trkpt><trkpt lat="43.39061627636867" lon="-4.026104555893575"><ele>7.3999999999999995</ele><time>2026-05-01T10:54:44.001Z</time></trkpt><trkpt lat="43.39055859396357" lon="-4.026220677579081"><ele>7.799999999999999</ele><time>2026-05-01T10:54:45.001Z</time></trkpt><trkpt lat="43.39049640662138" lon="-4.026332870658071"><ele>8.2</ele><time>2026-05-01T10:54:46.001Z</time></trkpt><trkpt lat="43.39043348895546" lon="-4.02644280247747"><ele>8.6</ele><time>2026-05-01T10:54:47.001Z</time></trkpt><trkpt lat="43.390370179706984" lon="-4.026550844619393"><ele>9.0</ele><time>2026-05-01T10:54:48.001Z</time></trkpt><trkpt lat="43.39031009798455" lon="-4.026657030265864"><ele>9.6</ele><time>2026-05-01T10:54:49.001Z</time></trkpt><trkpt lat="43.3902455547264" lon="-4.026762541013124"><ele>10.2</ele><time>2026-05-01T10:54:50.001Z</time></trkpt><trkpt lat="43.39018461687161" lon="-4.026865002702745"><ele>10.799999999999999</ele><time>2026-05-01T10:54:51.001Z</time></trkpt><trkpt lat="43.39012595940281" lon="-4.026968554538502"><ele>11.4</ele><time>2026-05-01T10:54:52.001Z</time></trkpt><trkpt lat="43.3900660591503" lon="-4.027075341446642"><ele>12.0</ele><time>2026-05-01T10:54:53.001Z</time></trkpt><trkpt lat="43.39001022514269" lon="-4.027177228767939"><ele>12.0</ele><time>2026-05-01T10:54:54.001Z</time></trkpt><trkpt lat="43.38994960080627" lon="-4.027283124236153"><ele>12.0</ele><time>2026-05-01T10:54:55.002Z</time></trkpt><trkpt lat="43.389891014117076" lon="-4.027389569580543"><ele>12.0</ele><time>2026-05-01T10:54:56.002Z</time></trkpt><trkpt lat="43.389829865154795" lon="-4.02749366529246"><ele>12.0</ele><time>2026-05-01T10:54:57.002Z</time></trkpt><trkpt lat="43.38976640696396" lon="-4.02759693074707"><ele>12.0</ele><time>2026-05-01T10:54:58.002Z</time></trkpt><trkpt lat="43.38969853892237" lon="-4.027700363985691"><ele>13.2</ele><time>2026-05-01T10:54:59.002Z</time></trkpt><trkpt lat="43.389626260575525" lon="-4.02780119014641"><ele>14.399999999999999</ele><time>2026-05-01T10:55:00.002Z</time></trkpt><trkpt lat="43.38955772535846" lon="-4.027899576046509"><ele>15.600000000000001</ele><time>2026-05-01T10:55:01.002Z</time></trkpt><trkpt lat="43.3894835556379" lon="-4.027994419871585"><ele>16.8</ele><time>2026-05-01T10:55:02.002Z</time></trkpt><trkpt lat="43.3894043469898" lon="-4.028079922511645"><ele>18.0</ele><time>2026-05-01T10:55:03.002Z</time></trkpt><trkpt lat="43.389322988556934" lon="-4.02815332007636"><ele>18.0</ele><time>2026-05-01T10:55:04.002Z</time></trkpt><trkpt lat="43.38924126321484" lon="-4.0282267220659165"><ele>18.0</ele><time>2026-05-01T10:55:05.002Z</time></trkpt><trkpt lat="43.38916060845616" lon="-4.028291299437502"><ele>18.0</ele><time>2026-05-01T10:55:06.002Z</time></trkpt><trkpt lat="43.38907963325001" lon="-4.028359343794094"><ele>18.0</ele><time>2026-05-01T10:55:07.002Z</time></trkpt><trkpt lat="43.38900171516532" lon="-4.028424563703662"><ele>18.0</ele><time>2026-05-01T10:55:08.002Z</time></trkpt><trkpt lat="43.38892970413177" lon="-4.028481475748664"><ele>17.666666666666668</ele><time>2026-05-01T10:55:09.002Z</time></trkpt><trkpt lat="43.38886378006736" lon="-4.028529555483312"><ele>17.333333333333332</ele><time>2026-05-01T10:55:10.002Z</time></trkpt><trkpt lat="43.38880489385569" lon="-4.028575324793058"><ele>17.0</ele><time>2026-05-01T10:55:11.002Z</time></trkpt><trkpt lat="43.38870568807627" lon="-4.0286545691149644"><ele>16.666666666666664</ele><time>2026-05-01T10:55:13.002Z</time></trkpt><trkpt lat="43.38862076362226" lon="-4.028724967683437"><ele>16.333333333333332</ele><time>2026-05-01T10:55:15.002Z</time></trkpt><trkpt lat="43.38854378651066" lon="-4.028783382437992"><ele>16.0</ele><time>2026-05-01T10:55:17.002Z</time></trkpt><trkpt lat="43.38846032466104" lon="-4.028849880717157"><ele>16.666666666666664</ele><time>2026-05-01T10:55:19.002Z</time></trkpt><trkpt lat="43.38835717950278" lon="-4.0289295662086815"><ele>17.333333333333332</ele><time>2026-05-01T10:55:21.002Z</time></trkpt><trkpt lat="43.388300053063546" lon="-4.028974169094265"><ele>18.0</ele><time>2026-05-01T10:55:22.002Z</time></trkpt><trkpt lat="43.388239782446114" lon="-4.029023768992418"><ele>18.666666666666668</ele><time>2026-05-01T10:55:23.002Z</time></trkpt><trkpt lat="43.38818481762959" lon="-4.029066193807241"><ele>19.333333333333336</ele><time>2026-05-01T10:55:24.002Z</time></trkpt><trkpt lat="43.38808908887124" lon="-4.0291369211609105"><ele>20.0</ele><time>2026-05-01T10:55:26.002Z</time></trkpt><trkpt lat="43.38800426336912" lon="-4.029201254985949"><ele>20.333333333333336</ele><time>2026-05-01T10:55:28.002Z</time></trkpt><trkpt lat="43.387917446823494" lon="-4.029295907567141"><ele>20.666666666666668</ele><time>2026-05-01T10:55:30Z</time></trkpt><trkpt lat="43.387874520800224" lon="-4.029360434973694"><ele>21.0</ele><time>2026-05-01T10:55:31Z</time></trkpt><trkpt lat="43.38782972676801" lon="-4.029439250641622"><ele>21.333333333333332</ele><time>2026-05-01T10:55:32Z</time></trkpt><trkpt lat="43.3877907769037" lon="-4.02952395657582"><ele>21.666666666666664</ele><time>2026-05-01T10:55:33Z</time></trkpt><trkpt lat="43.38775679378054" lon="-4.029621033019541"><ele>22.0</ele><time>2026-05-01T10:55:34Z</time></trkpt><trkpt lat="43.38771950274955" lon="-4.029720454996651"><ele>22.0</ele><time>2026-05-01T10:55:35Z</time></trkpt><trkpt lat="43.38768027661564" lon="-4.029820366413958"><ele>22.0</ele><time>2026-05-01T10:55:36Z</time></trkpt><trkpt lat="43.3876407887057" lon="-4.0299264517003"><ele>22.0</ele><time>2026-05-01T10:55:37Z</time></trkpt><trkpt lat="43.387601175874885" lon="-4.030033147534199"><ele>22.0</ele><time>2026-05-01T10:55:38Z</time></trkpt><trkpt lat="43.38756090694925" lon="-4.030134646725715"><ele>22.0</ele><time>2026-05-01T10:55:39Z</time></trkpt><trkpt lat="43.387521912303654" lon="-4.030236486534489"><ele>22.0</ele><time>2026-05-01T10:55:40Z</time></trkpt><trkpt lat="43.3874828435127" lon="-4.0303414686310735"><ele>21.666666666666664</ele><time>2026-05-01T10:55:41Z</time></trkpt><trkpt lat="43.387442914362026" lon="-4.030448157166104"><ele>21.333333333333332</ele><time>2026-05-01T10:55:42Z</time></trkpt><trkpt lat="43.38740270760344" lon="-4.0305491060304695"><ele>21.0</ele><time>2026-05-01T10:55:43Z</time></trkpt><trkpt lat="43.38736514424305" lon="-4.030647939062169"><ele>20.666666666666668</ele><time>2026-05-01T10:55:44Z</time></trkpt><trkpt lat="43.38732538509763" lon="-4.030746321931578"><ele>20.333333333333336</ele><time>2026-05-01T10:55:45Z</time></trkpt><trkpt lat="43.3872896384893" lon="-4.030847099880767"><ele>20.0</ele><time>2026-05-01T10:55:46Z</time></trkpt><trkpt lat="43.38725138419105" lon="-4.030950456869448"><ele>20.0</ele><time>2026-05-01T10:55:47Z</time></trkpt><trkpt lat="43.387211056499936" lon="-4.031055815440686"><ele>20.0</ele><time>2026-05-01T10:55:48Z</time></trkpt><trkpt lat="43.38717200340521" lon="-4.031163630983721"><ele>20.0</ele><time>2026-05-01T10:55:49Z</time></trkpt><trkpt lat="43.38713212233872" lon="-4.031276420386325"><ele>20.0</ele><time>2026-05-01T10:55:50Z</time></trkpt><trkpt lat="43.3870871947366" lon="-4.0313862381707155"><ele>20.0</ele><time>2026-05-01T10:55:51Z</time></trkpt><trkpt lat="43.38704403087685" lon="-4.03149849632792"><ele>20.0</ele><time>2026-05-01T10:55:52Z</time></trkpt><trkpt lat="43.387000186970326" lon="-4.031613768624269"><ele>20.2</ele><time>2026-05-01T10:55:53Z</time></trkpt><trkpt lat="43.386954874071385" lon="-4.031730712796554"><ele>20.4</ele><time>2026-05-01T10:55:54Z</time></trkpt><trkpt lat="43.38690832779176" lon="-4.031848704715731"><ele>20.6</ele><time>2026-05-01T10:55:55Z</time></trkpt><trkpt lat="43.386857564261184" lon="-4.031964959278808"><ele>20.8</ele><time>2026-05-01T10:55:56Z</time></trkpt><trkpt lat="43.386797207481955" lon="-4.032074575572684"><ele>21.0</ele><time>2026-05-01T10:55:57Z</time></trkpt><trkpt lat="43.38673019926615" lon="-4.032178397900778"><ele>21.0</ele><time>2026-05-01T10:55:58Z</time></trkpt><trkpt lat="43.38665989123446" lon="-4.032275827375861"><ele>21.0</ele><time>2026-05-01T10:55:59Z</time></trkpt><trkpt lat="43.38658420889214" lon="-4.032367591066078"><ele>21.0</ele><time>2026-05-01T10:56:00.001Z</time></trkpt><trkpt lat="43.38650423682817" lon="-4.032451988406308"><ele>21.0</ele><time>2026-05-01T10:56:01.001Z</time></trkpt><trkpt lat="43.38642019640864" lon="-4.032529023718552"><ele>21.0</ele><time>2026-05-01T10:56:02.001Z</time></trkpt><trkpt lat="43.38633356636406" lon="-4.032599761749189"><ele>21.0</ele><time>2026-05-01T10:56:03.001Z</time></trkpt><trkpt lat="43.38624186165777" lon="-4.032661154330255"><ele>21.0</ele><time>2026-05-01T10:56:04.001Z</time></trkpt><trkpt lat="43.38614580688318" lon="-4.032710641772405"><ele>21.0</ele><time>2026-05-01T10:56:05.001Z</time></trkpt><trkpt lat="43.38604564359601" lon="-4.0327390032299055"><ele>21.0</ele><time>2026-05-01T10:56:06.001Z</time></trkpt><trkpt lat="43.385947869116904" lon="-4.032758395784546"><ele>21.0</ele><time>2026-05-01T10:56:07.001Z</time></trkpt><trkpt lat="43.385848149744255" lon="-4.032775966540195"><ele>21.0</ele><time>2026-05-01T10:56:08.001Z</time></trkpt><trkpt lat="43.38574882343725" lon="-4.032786731957936"><ele>21.0</ele><time>2026-05-01T10:56:09.001Z</time></trkpt><trkpt lat="43.38565000758875" lon="-4.032798060112159"><ele>21.0</ele><time>2026-05-01T10:56:10.001Z</time></trkpt><trkpt lat="43.38555278939487" lon="-4.0328079810477275"><ele>21.0</ele><time>2026-05-01T10:56:11.001Z</time></trkpt><trkpt lat="43.38546230948758" lon="-4.032814670633252"><ele>21.0</ele><time>2026-05-01T10:56:12.001Z</time></trkpt><trkpt lat="43.38537534690618" lon="-4.032823850909971"><ele>20.666666666666668</ele><time>2026-05-01T10:56:13.001Z</time></trkpt><trkpt lat="43.385293517919266" lon="-4.032831820552019"><ele>20.333333333333332</ele><time>2026-05-01T10:56:14.001Z</time></trkpt><trkpt lat="43.38521401223973" lon="-4.032837203478479"><ele>20.0</ele><time>2026-05-01T10:56:15.001Z</time></trkpt><trkpt lat="43.38513453829585" lon="-4.032841937450503"><ele>19.666666666666664</ele><time>2026-05-01T10:56:16.001Z</time></trkpt><trkpt lat="43.38504891968057" lon="-4.032846938832828"><ele>19.333333333333332</ele><time>2026-05-01T10:56:17.001Z</time></trkpt><trkpt lat="43.38496003729202" lon="-4.032851197507837"><ele>19.0</ele><time>2026-05-01T10:56:18.001Z</time></trkpt><trkpt lat="43.384867266789854" lon="-4.032858748784884"><ele>19.0</ele><time>2026-05-01T10:56:19.001Z</time></trkpt><trkpt lat="43.38476965818799" lon="-4.032868070483084"><ele>19.0</ele><time>2026-05-01T10:56:20.001Z</time></trkpt><trkpt lat="43.38467018704233" lon="-4.032873050138649"><ele>19.0</ele><time>2026-05-01T10:56:21.001Z</time></trkpt><trkpt lat="43.38456842259653" lon="-4.032881455823825"><ele>19.0</ele><time>2026-05-01T10:56:22.001Z</time></trkpt><trkpt lat="43.38446658339654" lon="-4.032897587120557"><ele>19.0</ele><time>2026-05-01T10:56:23.001Z</time></trkpt><trkpt lat="43.38436443363608" lon="-4.03292924876406"><ele>19.25</ele><time>2026-05-01T10:56:24.001Z</time></trkpt><trkpt lat="43.38426309941636" lon="-4.032990716153541"><ele>19.5</ele><time>2026-05-01T10:56:25.001Z</time></trkpt><trkpt lat="43.384169156271675" lon="-4.033096385530942"><ele>19.75</ele><time>2026-05-01T10:56:26.001Z</time></trkpt><trkpt lat="43.38404530090291" lon="-4.033267646863421"><ele>20.0</ele><time>2026-05-01T10:56:27.001Z</time></trkpt><trkpt lat="43.38389898208104" lon="-4.033455269490085"><ele>19.4</ele><time>2026-05-01T10:56:28.001Z</time></trkpt><trkpt lat="43.383928518517735" lon="-4.033324494041113"><ele>18.8</ele><time>2026-05-01T10:56:29.001Z</time></trkpt><trkpt lat="43.38384132456422" lon="-4.0334084876233955"><ele>18.2</ele><time>2026-05-01T10:56:30.001Z</time></trkpt><trkpt lat="43.383756447379874" lon="-4.033500054986602"><ele>17.6</ele><time>2026-05-01T10:56:31.001Z</time></trkpt><trkpt lat="43.38367125938914" lon="-4.033592072776707"><ele>17.0</ele><time>2026-05-01T10:56:32.001Z</time></trkpt><trkpt lat="43.38358840447014" lon="-4.033680564925488"><ele>17.0</ele><time>2026-05-01T10:56:33.001Z</time></trkpt><trkpt lat="43.3835084376309" lon="-4.033764687959103"><ele>17.0</ele><time>2026-05-01T10:56:34.001Z</time></trkpt><trkpt lat="43.38342884901433" lon="-4.033854931570461"><ele>17.0</ele><time>2026-05-01T10:56:35.001Z</time></trkpt><trkpt lat="43.38334200609191" lon="-4.033949469929519"><ele>17.0</ele><time>2026-05-01T10:56:36.001Z</time></trkpt><trkpt lat="43.383258600244204" lon="-4.034043595371276"><ele>17.0</ele><time>2026-05-01T10:56:37.001Z</time></trkpt><trkpt lat="43.38317520823146" lon="-4.034137857353967"><ele>17.2</ele><time>2026-05-01T10:56:38.001Z</time></trkpt><trkpt lat="43.38308991780268" lon="-4.03422747571513"><ele>17.4</ele><time>2026-05-01T10:56:39.001Z</time></trkpt><trkpt lat="43.383007850905194" lon="-4.034317040525989"><ele>17.6</ele><time>2026-05-01T10:56:40.001Z</time></trkpt><trkpt lat="43.382924938225486" lon="-4.034411844517551"><ele>17.8</ele><time>2026-05-01T10:56:41.001Z</time></trkpt><trkpt lat="43.382844508353024" lon="-4.034505860874221"><ele>18.0</ele><time>2026-05-01T10:56:42.001Z</time></trkpt><trkpt lat="43.3827591498937" lon="-4.034598320144164"><ele>18.0</ele><time>2026-05-01T10:56:43.001Z</time></trkpt><trkpt lat="43.382674905571015" lon="-4.034687481487706"><ele>18.0</ele><time>2026-05-01T10:56:44.001Z</time></trkpt><trkpt lat="43.38259167629894" lon="-4.034784490246732"><ele>18.0</ele><time>2026-05-01T10:56:45.001Z</time></trkpt><trkpt lat="43.38251012590222" lon="-4.034883313501348"><ele>18.0</ele><time>2026-05-01T10:56:46.001Z</time></trkpt><trkpt lat="43.382426679024746" lon="-4.0349810540210385"><ele>18.0</ele><time>2026-05-01T10:56:47.001Z</time></trkpt><trkpt lat="43.38234293414842" lon="-4.0350761291434125"><ele>17.0</ele><time>2026-05-01T10:56:48.001Z</time></trkpt><trkpt lat="43.38225690057227" lon="-4.035169290017616"><ele>16.0</ele><time>2026-05-01T10:56:49.001Z</time></trkpt><trkpt lat="43.382170079790335" lon="-4.0352660293589855"><ele>15.0</ele><time>2026-05-01T10:56:50.001Z</time></trkpt><trkpt lat="43.38208272435638" lon="-4.035365397437651"><ele>14.0</ele><time>2026-05-01T10:56:51.001Z</time></trkpt><trkpt lat="43.382000277481175" lon="-4.035469898000635"><ele>13.0</ele><time>2026-05-01T10:56:52.001Z</time></trkpt><trkpt lat="43.38191662521014" lon="-4.035576525307857"><ele>13.0</ele><time>2026-05-01T10:56:53.001Z</time></trkpt><trkpt lat="43.38183644380377" lon="-4.035686572724407"><ele>13.0</ele><time>2026-05-01T10:56:54.001Z</time></trkpt><trkpt lat="43.38175858512174" lon="-4.035793024378441"><ele>13.0</ele><time>2026-05-01T10:56:55.001Z</time></trkpt><trkpt lat="43.381686651201385" lon="-4.035903940113961"><ele>13.0</ele><time>2026-05-01T10:56:56.001Z</time></trkpt><trkpt lat="43.38161439016934" lon="-4.036015242683546"><ele>13.0</ele><time>2026-05-01T10:56:57.001Z</time></trkpt><trkpt lat="43.381541618068816" lon="-4.036131456007884"><ele>12.0</ele><time>2026-05-01T10:56:58.001Z</time></trkpt><trkpt lat="43.38147374273063" lon="-4.036244395204049"><ele>11.0</ele><time>2026-05-01T10:56:59.001Z</time></trkpt><trkpt lat="43.38140730469361" lon="-4.036355295432171"><ele>10.0</ele><time>2026-05-01T10:57:00.001Z</time></trkpt><trkpt lat="43.3813467250044" lon="-4.0364649607413154"><ele>9.0</ele><time>2026-05-01T10:57:01.001Z</time></trkpt><trkpt lat="43.381281423002015" lon="-4.036566675007696"><ele>8.0</ele><time>2026-05-01T10:57:02.001Z</time></trkpt><trkpt lat="43.38121424516399" lon="-4.036671862332887"><ele>7.6000000000000005</ele><time>2026-05-01T10:57:03.002Z</time></trkpt><trkpt lat="43.38114783114577" lon="-4.036777030154685"><ele>7.200000000000001</ele><time>2026-05-01T10:57:04.002Z</time></trkpt><trkpt lat="43.38108730964732" lon="-4.036887765014668"><ele>6.8</ele><time>2026-05-01T10:57:05.002Z</time></trkpt><trkpt lat="43.381028339557744" lon="-4.036975924382271"><ele>6.4</ele><time>2026-05-01T10:57:06.002Z</time></trkpt><trkpt lat="43.38097482456539" lon="-4.037070877446248"><ele>6.0</ele><time>2026-05-01T10:57:07.002Z</time></trkpt><trkpt lat="43.38092282568817" lon="-4.0371570743258625"><ele>6.0</ele><time>2026-05-01T10:57:08.002Z</time></trkpt><trkpt lat="43.380877913795594" lon="-4.037245758614448"><ele>6.0</ele><time>2026-05-01T10:57:09.002Z</time></trkpt><trkpt lat="43.380840587885054" lon="-4.037337314692287"><ele>6.0</ele><time>2026-05-01T10:57:10.002Z</time></trkpt><trkpt lat="43.38081814645824" lon="-4.037437943523963"><ele>6.0</ele><time>2026-05-01T10:57:11.002Z</time></trkpt><trkpt lat="43.38080497869183" lon="-4.037541509713668"><ele>6.0</ele><time>2026-05-01T10:57:12.002Z</time></trkpt><trkpt lat="43.38078916774521" lon="-4.037636983886449"><ele>6.0</ele><time>2026-05-01T10:57:13.002Z</time></trkpt><trkpt lat="43.38074630619487" lon="-4.0377143728123865"><ele>6.0</ele><time>2026-05-01T10:57:14.002Z</time></trkpt><trkpt lat="43.380682087761535" lon="-4.037774797117715"><ele>6.0</ele><time>2026-05-01T10:57:15.002Z</time></trkpt><trkpt lat="43.380604684570486" lon="-4.037803698422694"><ele>6.0</ele><time>2026-05-01T10:57:16.002Z</time></trkpt><trkpt lat="43.38052244225356" lon="-4.037814004733245"><ele>6.0</ele><time>2026-05-01T10:57:17.002Z</time></trkpt><trkpt lat="43.38044320303074" lon="-4.03783970305796"><ele>6.0</ele><time>2026-05-01T10:57:18.002Z</time></trkpt><trkpt lat="43.380367025712474" lon="-4.037894504107042"><ele>6.0</ele><time>2026-05-01T10:57:19.002Z</time></trkpt><trkpt lat="43.38028754683176" lon="-4.037956890117491"><ele>6.0</ele><time>2026-05-01T10:57:20.002Z</time></trkpt><trkpt lat="43.38020968276165" lon="-4.038024758378849"><ele>6.0</ele><time>2026-05-01T10:57:21.002Z</time></trkpt><trkpt lat="43.38012830483416" lon="-4.038090029813244"><ele>6.0</ele><time>2026-05-01T10:57:22.002Z</time></trkpt><trkpt lat="43.38003731926108" lon="-4.038139896807392"><ele>6.0</ele><time>2026-05-01T10:57:23.002Z</time></trkpt><trkpt lat="43.37994378067275" lon="-4.0381847791107806"><ele>6.0</ele><time>2026-05-01T10:57:24.002Z</time></trkpt><trkpt lat="43.379846729976286" lon="-4.038230157042688"><ele>6.0</ele><time>2026-05-01T10:57:25.002Z</time></trkpt><trkpt lat="43.37974760270792" lon="-4.038275327461586"><ele>6.0</ele><time>2026-05-01T10:57:26.002Z</time></trkpt><trkpt lat="43.379649565278946" lon="-4.038315077482621"><ele>6.0</ele><time>2026-05-01T10:57:27.002Z</time></trkpt><trkpt lat="43.379543085861016" lon="-4.038364276865822"><ele>6.0</ele><time>2026-05-01T10:57:28.002Z</time></trkpt><trkpt lat="43.37943660615061" lon="-4.038415478388048"><ele>6.0</ele><time>2026-05-01T10:57:29.002Z</time></trkpt><trkpt lat="43.37934824143385" lon="-4.038449456645578"><ele>6.0</ele><time>2026-05-01T10:57:30.002Z</time></trkpt><trkpt lat="43.379248081658375" lon="-4.038492666351023"><ele>6.0</ele><time>2026-05-01T10:57:31.002Z</time></trkpt><trkpt lat="43.37915249875324" lon="-4.038540410209429"><ele>6.0</ele><time>2026-05-01T10:57:32.002Z</time></trkpt><trkpt lat="43.37907011719692" lon="-4.038601306526337"><ele>6.0</ele><time>2026-05-01T10:57:33.002Z</time></trkpt><trkpt lat="43.37892847545018" lon="-4.038622374714727"><ele>6.0</ele><time>2026-05-01T10:57:34.002Z</time></trkpt><trkpt lat="43.37883300014912" lon="-4.038664137723124"><ele>6.199999999999999</ele><time>2026-05-01T10:57:35.002Z</time></trkpt><trkpt lat="43.378734221100956" lon="-4.03870640226485"><ele>6.3999999999999995</ele><time>2026-05-01T10:57:36Z</time></trkpt><trkpt lat="43.37863672893056" lon="-4.038752694248768"><ele>6.6</ele><time>2026-05-01T10:57:37Z</time></trkpt><trkpt lat="43.37854821061491" lon="-4.03879004409908"><ele>6.8</ele><time>2026-05-01T10:57:38Z</time></trkpt><trkpt lat="43.37846898863133" lon="-4.03883138147274"><ele>7.0</ele><time>2026-05-01T10:57:39Z</time></trkpt><trkpt lat="43.378394343988646" lon="-4.038866289579718"><ele>7.000000000000001</ele><time>2026-05-01T10:57:40Z</time></trkpt><trkpt lat="43.378320900085136" lon="-4.03890162089354"><ele>7.0</ele><time>2026-05-01T10:57:41Z</time></trkpt><trkpt lat="43.37825022688902" lon="-4.038934486543699"><ele>7.0</ele><time>2026-05-01T10:57:42Z</time></trkpt><trkpt lat="43.37817415619543" lon="-4.038966199551267"><ele>7.0</ele><time>2026-05-01T10:57:43Z</time></trkpt><trkpt lat="43.378091949601604" lon="-4.038999934642471"><ele>7.000000000000001</ele><time>2026-05-01T10:57:44Z</time></trkpt><trkpt lat="43.37800094360235" lon="-4.039040209796236"><ele>7.0</ele><time>2026-05-01T10:57:45Z</time></trkpt><trkpt lat="43.377913231830846" lon="-4.039081451531677"><ele>6.8</ele><time>2026-05-01T10:57:46Z</time></trkpt><trkpt lat="43.3778220521645" lon="-4.039126197364629"><ele>6.6</ele><time>2026-05-01T10:57:47Z</time></trkpt><trkpt lat="43.37772835746086" lon="-4.039164423927033"><ele>6.3999999999999995</ele><time>2026-05-01T10:57:48Z</time></trkpt><trkpt lat="43.37762925881884" lon="-4.039208347470637"><ele>6.199999999999999</ele><time>2026-05-01T10:57:49Z</time></trkpt><trkpt lat="43.3775264589116" lon="-4.039249052380767"><ele>6.0</ele><time>2026-05-01T10:57:50Z</time></trkpt><trkpt lat="43.377422379910996" lon="-4.0392909146883715"><ele>6.4</ele><time>2026-05-01T10:57:51Z</time></trkpt><trkpt lat="43.37731780703992" lon="-4.039336552561308"><ele>6.8</ele><time>2026-05-01T10:57:52Z</time></trkpt><trkpt lat="43.37721308228881" lon="-4.039380948112965"><ele>7.200000000000001</ele><time>2026-05-01T10:57:53Z</time></trkpt><trkpt lat="43.37710848387984" lon="-4.039424732636215"><ele>7.6000000000000005</ele><time>2026-05-01T10:57:54Z</time></trkpt><trkpt lat="43.37700320597787" lon="-4.039468320069098"><ele>8.0</ele><time>2026-05-01T10:57:55Z</time></trkpt><trkpt lat="43.376895968915754" lon="-4.039512899339576"><ele>8.0</ele><time>2026-05-01T10:57:56Z</time></trkpt><trkpt lat="43.37678894639046" lon="-4.039559975974925"><ele>8.0</ele><time>2026-05-01T10:57:57Z</time></trkpt><trkpt lat="43.376682293559796" lon="-4.039609217940885"><ele>8.0</ele><time>2026-05-01T10:57:58Z</time></trkpt><trkpt lat="43.37657248092077" lon="-4.039655051293437"><ele>8.0</ele><time>2026-05-01T10:57:59Z</time></trkpt><trkpt lat="43.37646568961909" lon="-4.039702169945774"><ele>8.0</ele><time>2026-05-01T10:58:00Z</time></trkpt><trkpt lat="43.3763610763589" lon="-4.039747610757568"><ele>8.0</ele><time>2026-05-01T10:58:01Z</time></trkpt><trkpt lat="43.37625443452429" lon="-4.039791946655256"><ele>8.0</ele><time>2026-05-01T10:58:02Z</time></trkpt><trkpt lat="43.37614810535089" lon="-4.0398361193490855"><ele>8.0</ele><time>2026-05-01T10:58:03Z</time></trkpt><trkpt lat="43.37604023157979" lon="-4.03988313928903"><ele>8.0</ele><time>2026-05-01T10:58:04Z</time></trkpt><trkpt lat="43.37593518885551" lon="-4.039923165721981"><ele>8.4</ele><time>2026-05-01T10:58:05Z</time></trkpt><trkpt lat="43.37583074150664" lon="-4.0399689255148985"><ele>8.8</ele><time>2026-05-01T10:58:06Z</time></trkpt><trkpt lat="43.375722976545894" lon="-4.040014362374617"><ele>9.2</ele><time>2026-05-01T10:58:07Z</time></trkpt><trkpt lat="43.37561810777257" lon="-4.040058897112538"><ele>9.6</ele><time>2026-05-01T10:58:08Z</time></trkpt><trkpt lat="43.37551383661375" lon="-4.040101008070447"><ele>10.0</ele><time>2026-05-01T10:58:09Z</time></trkpt><trkpt lat="43.375409400371524" lon="-4.04014805053485"><ele>10.0</ele><time>2026-05-01T10:58:10Z</time></trkpt><trkpt lat="43.3753055259932" lon="-4.040190232248911"><ele>10.0</ele><time>2026-05-01T10:58:11.001Z</time></trkpt><trkpt lat="43.37520038162035" lon="-4.040237116759475"><ele>10.0</ele><time>2026-05-01T10:58:12.001Z</time></trkpt><trkpt lat="43.37509685897373" lon="-4.0402821070605635"><ele>10.0</ele><time>2026-05-01T10:58:13.001Z</time></trkpt><trkpt lat="43.374991600235646" lon="-4.040326274485058"><ele>10.0</ele><time>2026-05-01T10:58:14.001Z</time></trkpt><trkpt lat="43.37489818685506" lon="-4.040365344144119"><ele>10.0</ele><time>2026-05-01T10:58:15.001Z</time></trkpt><trkpt lat="43.374809200496465" lon="-4.040407385763669"><ele>10.0</ele><time>2026-05-01T10:58:16.001Z</time></trkpt><trkpt lat="43.37472159919045" lon="-4.040445976779167"><ele>10.0</ele><time>2026-05-01T10:58:17.001Z</time></trkpt><trkpt lat="43.374634569292915" lon="-4.040482465160674"><ele>10.0</ele><time>2026-05-01T10:58:18.001Z</time></trkpt><trkpt lat="43.37454256928018" lon="-4.040516813233828"><ele>10.0</ele><time>2026-05-01T10:58:19.001Z</time></trkpt><trkpt lat="43.374449859234794" lon="-4.040554422172448"><ele>10.0</ele><time>2026-05-01T10:58:20.001Z</time></trkpt><trkpt lat="43.37436075738123" lon="-4.040588928566339"><ele>10.0</ele><time>2026-05-01T10:58:21.001Z</time></trkpt><trkpt lat="43.3742713341366" lon="-4.040632699828216"><ele>10.0</ele><time>2026-05-01T10:58:22.001Z</time></trkpt><trkpt lat="43.37418238649396" lon="-4.040674775877523"><ele>10.0</ele><time>2026-05-01T10:58:23.001Z</time></trkpt><trkpt lat="43.37409379397498" lon="-4.040715943517091"><ele>10.0</ele><time>2026-05-01T10:58:24.001Z</time></trkpt><trkpt lat="43.37400946442425" lon="-4.040750455650638"><ele>10.0</ele><time>2026-05-01T10:58:25.001Z</time></trkpt><trkpt lat="43.37392512921793" lon="-4.040783823926191"><ele>10.0</ele><time>2026-05-01T10:58:26.001Z</time></trkpt><trkpt lat="43.373839666951234" lon="-4.0408200007958825"><ele>10.0</ele><time>2026-05-01T10:58:27.001Z</time></trkpt><trkpt lat="43.373759424671995" lon="-4.040853909339012"><ele>10.0</ele><time>2026-05-01T10:58:28.001Z</time></trkpt><trkpt lat="43.37368645334111" lon="-4.040884926346597"><ele>10.0</ele><time>2026-05-01T10:58:29.001Z</time></trkpt><trkpt lat="43.37361929440304" lon="-4.04091415915249"><ele>10.0</ele><time>2026-05-01T10:58:30.001Z</time></trkpt><trkpt lat="43.37355202688486" lon="-4.040940233621098"><ele>10.166666666666668</ele><time>2026-05-01T10:58:31.001Z</time></trkpt><trkpt lat="43.37348872574168" lon="-4.040970270395507"><ele>10.333333333333334</ele><time>2026-05-01T10:58:32.001Z</time></trkpt><trkpt lat="43.37342883843943" lon="-4.041004929749967"><ele>10.5</ele><time>2026-05-01T10:58:33.001Z</time></trkpt><trkpt lat="43.37333828311925" lon="-4.0411175426214845"><ele>10.666666666666666</ele><time>2026-05-01T10:58:35.001Z</time></trkpt><trkpt lat="43.37328245860123" lon="-4.041267651383251"><ele>10.833333333333332</ele><time>2026-05-01T10:58:37.001Z</time></trkpt><trkpt lat="43.37327162746243" lon="-4.04136525646026"><ele>11.0</ele><time>2026-05-01T10:58:38.001Z</time></trkpt><trkpt lat="43.37325238475399" lon="-4.041454769321892"><ele>11.0</ele><time>2026-05-01T10:58:39.001Z</time></trkpt><trkpt lat="43.37322984919653" lon="-4.041538051078886"><ele>11.0</ele><time>2026-05-01T10:58:40.001Z</time></trkpt><trkpt lat="43.373296989694296" lon="-4.041663183661412"><ele>11.0</ele><time>2026-05-01T10:58:41.001Z</time></trkpt><trkpt lat="43.37332556975278" lon="-4.041756505991021"><ele>11.0</ele><time>2026-05-01T10:58:42.001Z</time></trkpt><trkpt lat="43.373357910794404" lon="-4.0418468480416365"><ele>11.0</ele><time>2026-05-01T10:58:43.001Z</time></trkpt><trkpt lat="43.373387818002286" lon="-4.0419386850776595"><ele>11.0</ele><time>2026-05-01T10:58:44.001Z</time></trkpt><trkpt lat="43.37341517833765" lon="-4.042034712475946"><ele>10.666666666666666</ele><time>2026-05-01T10:58:45.001Z</time></trkpt><trkpt lat="43.37344269229185" lon="-4.042125128618715"><ele>10.333333333333332</ele><time>2026-05-01T10:58:46.001Z</time></trkpt><trkpt lat="43.37347177560416" lon="-4.0422226517445425"><ele>10.0</ele><time>2026-05-01T10:58:47.001Z</time></trkpt><trkpt lat="43.3734998583225" lon="-4.042323961753952"><ele>9.666666666666666</ele><time>2026-05-01T10:58:48.001Z</time></trkpt><trkpt lat="43.37353047410992" lon="-4.042426491307802"><ele>9.333333333333334</ele><time>2026-05-01T10:58:49.001Z</time></trkpt><trkpt lat="43.37356326689779" lon="-4.042532480494195"><ele>9.0</ele><time>2026-05-01T10:58:50.001Z</time></trkpt><trkpt lat="43.37359543289107" lon="-4.04264557409372"><ele>8.6</ele><time>2026-05-01T10:58:51.001Z</time></trkpt><trkpt lat="43.37363320813255" lon="-4.0427607125015985"><ele>8.2</ele><time>2026-05-01T10:58:52.001Z</time></trkpt><trkpt lat="43.373678157018375" lon="-4.042868891164593"><ele>7.799999999999999</ele><time>2026-05-01T10:58:53.001Z</time></trkpt><trkpt lat="43.37374520061075" lon="-4.042962381040255"><ele>7.3999999999999995</ele><time>2026-05-01T10:58:54.001Z</time></trkpt><trkpt lat="43.37382391720531" lon="-4.04303734498159"><ele>7.0</ele><time>2026-05-01T10:58:55.001Z</time></trkpt><trkpt lat="43.37391620788479" lon="-4.043094398334359"><ele>7.0</ele><time>2026-05-01T10:58:56.001Z</time></trkpt><trkpt lat="43.37400755351559" lon="-4.043133650851365"><ele>6.999999999999999</ele><time>2026-05-01T10:58:57.001Z</time></trkpt><trkpt lat="43.374103456697824" lon="-4.0431643896643665"><ele>6.999999999999999</ele><time>2026-05-01T10:58:58.001Z</time></trkpt><trkpt lat="43.374207140179536" lon="-4.043186008357875"><ele>7.0</ele><time>2026-05-01T10:58:59.001Z</time></trkpt><trkpt lat="43.37430782507709" lon="-4.043208709303085"><ele>7.0</ele><time>2026-05-01T10:59:00.001Z</time></trkpt><trkpt lat="43.37440670102112" lon="-4.043231212825797"><ele>7.0</ele><time>2026-05-01T10:59:01.001Z</time></trkpt><trkpt lat="43.37450709726022" lon="-4.043256140158912"><ele>6.999999999999999</ele><time>2026-05-01T10:59:02.001Z</time></trkpt><trkpt lat="43.37460945627936" lon="-4.043282847765883"><ele>6.999999999999999</ele><time>2026-05-01T10:59:03.001Z</time></trkpt><trkpt lat="43.374715516377464" lon="-4.043306373189162"><ele>7.0</ele><time>2026-05-01T10:59:04.001Z</time></trkpt><trkpt lat="43.374812377251956" lon="-4.043334723397362"><ele>7.0</ele><time>2026-05-01T10:59:05.001Z</time></trkpt><trkpt lat="43.374910844117366" lon="-4.043355416717606"><ele>7.0</ele><time>2026-05-01T10:59:06.001Z</time></trkpt><trkpt lat="43.37501361067332" lon="-4.043377752222357"><ele>6.999999999999999</ele><time>2026-05-01T10:59:07.001Z</time></trkpt><trkpt lat="43.37511022428534" lon="-4.043401451654471"><ele>6.999999999999999</ele><time>2026-05-01T10:59:08.001Z</time></trkpt><trkpt lat="43.375207301405844" lon="-4.043435295451925"><ele>7.0</ele><time>2026-05-01T10:59:09.001Z</time></trkpt><trkpt lat="43.37530362851099" lon="-4.043471752195947"><ele>7.0</ele><time>2026-05-01T10:59:10.001Z</time></trkpt><trkpt lat="43.37539404239534" lon="-4.043518506713927"><ele>7.0</ele><time>2026-05-01T10:59:11.001Z</time></trkpt><trkpt lat="43.375478406383145" lon="-4.0435824313406465"><ele>6.999999999999999</ele><time>2026-05-01T10:59:12.001Z</time></trkpt><trkpt lat="43.37555998207844" lon="-4.043659880931758"><ele>6.999999999999999</ele><time>2026-05-01T10:59:13.001Z</time></trkpt><trkpt lat="43.37563412151798" lon="-4.043751862078755"><ele>7.0</ele><time>2026-05-01T10:59:14.001Z</time></trkpt><trkpt lat="43.375701091857636" lon="-4.043853959783249"><ele>7.0</ele><time>2026-05-01T10:59:15.001Z</time></trkpt><trkpt lat="43.375759810343034" lon="-4.043968224450891"><ele>6.8</ele><time>2026-05-01T10:59:16.002Z</time></trkpt><trkpt lat="43.37582317996307" lon="-4.044088680062087"><ele>6.6</ele><time>2026-05-01T10:59:17.002Z</time></trkpt><trkpt lat="43.37588142789129" lon="-4.044203669632085"><ele>6.3999999999999995</ele><time>2026-05-01T10:59:18.002Z</time></trkpt><trkpt lat="43.375946686471416" lon="-4.044327785095161"><ele>6.199999999999999</ele><time>2026-05-01T10:59:19.002Z</time></trkpt><trkpt lat="43.375998445284154" lon="-4.044450062747436"><ele>6.0</ele><time>2026-05-01T10:59:20.002Z</time></trkpt><trkpt lat="43.37606143768221" lon="-4.044573322313548"><ele>6.199999999999999</ele><time>2026-05-01T10:59:21.002Z</time></trkpt><trkpt lat="43.376122261785575" lon="-4.044697408232581"><ele>6.3999999999999995</ele><time>2026-05-01T10:59:22.002Z</time></trkpt><trkpt lat="43.376179303506156" lon="-4.044810879326442"><ele>6.6</ele><time>2026-05-01T10:59:23.002Z</time></trkpt><trkpt lat="43.37624211428803" lon="-4.044926421832634"><ele>6.8</ele><time>2026-05-01T10:59:24.002Z</time></trkpt><trkpt lat="43.37630875800604" lon="-4.045052559305149"><ele>7.0</ele><time>2026-05-01T10:59:25.002Z</time></trkpt><trkpt lat="43.376363807877304" lon="-4.045174413031548"><ele>7.0</ele><time>2026-05-01T10:59:26.002Z</time></trkpt><trkpt lat="43.37641874871497" lon="-4.045289690651858"><ele>6.999999999999999</ele><time>2026-05-01T10:59:27.002Z</time></trkpt><trkpt lat="43.37647829569809" lon="-4.045402090708679"><ele>6.999999999999999</ele><time>2026-05-01T10:59:28.002Z</time></trkpt><trkpt lat="43.37653588296905" lon="-4.045520960754998"><ele>7.0</ele><time>2026-05-01T10:59:29.002Z</time></trkpt><trkpt lat="43.37659485790482" lon="-4.045636340130761"><ele>7.0</ele><time>2026-05-01T10:59:30.002Z</time></trkpt><trkpt lat="43.37665237234442" lon="-4.045754862418999"><ele>6.8</ele><time>2026-05-01T10:59:31.002Z</time></trkpt><trkpt lat="43.376709682209665" lon="-4.04587442306428"><ele>6.6</ele><time>2026-05-01T10:59:32.002Z</time></trkpt><trkpt lat="43.37677078642019" lon="-4.045988979307965"><ele>6.3999999999999995</ele><time>2026-05-01T10:59:33.002Z</time></trkpt><trkpt lat="43.376831572183036" lon="-4.046102115079491"><ele>6.199999999999999</ele><time>2026-05-01T10:59:34.002Z</time></trkpt><trkpt lat="43.37689498473229" lon="-4.0462279119277325"><ele>6.0</ele><time>2026-05-01T10:59:35.002Z</time></trkpt><trkpt lat="43.37695890085712" lon="-4.046358293163502"><ele>6.0</ele><time>2026-05-01T10:59:36.002Z</time></trkpt><trkpt lat="43.377021865666165" lon="-4.046478045113592"><ele>6.0</ele><time>2026-05-01T10:59:37.002Z</time></trkpt><trkpt lat="43.37708468602077" lon="-4.046599958451899"><ele>6.0</ele><time>2026-05-01T10:59:38.002Z</time></trkpt><trkpt lat="43.377147912966294" lon="-4.046720380326571"><ele>6.0</ele><time>2026-05-01T10:59:39.002Z</time></trkpt><trkpt lat="43.37721144301437" lon="-4.0468406644176325"><ele>6.0</ele><time>2026-05-01T10:59:40.002Z</time></trkpt><trkpt lat="43.37727323111879" lon="-4.046954848157986"><ele>6.0</ele><time>2026-05-01T10:59:41.002Z</time></trkpt><trkpt lat="43.37733305241455" lon="-4.0470863448971075"><ele>6.0</ele><time>2026-05-01T10:59:42Z</time></trkpt><trkpt lat="43.37739763739386" lon="-4.04720119407205"><ele>6.0</ele><time>2026-05-01T10:59:43Z</time></trkpt><trkpt lat="43.37745940569267" lon="-4.047316249595843"><ele>6.0</ele><time>2026-05-01T10:59:44Z</time></trkpt><trkpt lat="43.37751716380559" lon="-4.04742463667536"><ele>6.0</ele><time>2026-05-01T10:59:45Z</time></trkpt><trkpt lat="43.37758687278071" lon="-4.047546657289811"><ele>6.4</ele><time>2026-05-01T10:59:46Z</time></trkpt><trkpt lat="43.3776356020112" lon="-4.047663206705151"><ele>6.8</ele><time>2026-05-01T10:59:47Z</time></trkpt><trkpt lat="43.37769174851079" lon="-4.047776164212981"><ele>7.200000000000001</ele><time>2026-05-01T10:59:48Z</time></trkpt><trkpt lat="43.37774222055266" lon="-4.047877572838553"><ele>7.6000000000000005</ele><time>2026-05-01T10:59:49Z</time></trkpt><trkpt lat="43.377794565956734" lon="-4.04797390379192"><ele>8.0</ele><time>2026-05-01T10:59:50Z</time></trkpt><trkpt lat="43.377843766479366" lon="-4.048068625003479"><ele>7.999999999999999</ele><time>2026-05-01T10:59:51Z</time></trkpt><trkpt lat="43.377895791063374" lon="-4.048155011864034"><ele>8.0</ele><time>2026-05-01T10:59:52Z</time></trkpt><trkpt lat="43.377949709626755" lon="-4.048233117422361"><ele>8.0</ele><time>2026-05-01T10:59:53Z</time></trkpt><trkpt lat="43.37800201343673" lon="-4.048310391604739"><ele>8.0</ele><time>2026-05-01T10:59:54Z</time></trkpt><trkpt lat="43.378043103676426" lon="-4.04840049704279"><ele>7.999999999999999</ele><time>2026-05-01T10:59:55Z</time></trkpt><trkpt lat="43.37807939131406" lon="-4.048492462748175"><ele>8.0</ele><time>2026-05-01T10:59:56Z</time></trkpt><trkpt lat="43.37799233773976" lon="-4.048702128478321"><ele>8.600000000000001</ele><time>2026-05-01T10:59:58Z</time></trkpt><trkpt lat="43.37792017521167" lon="-4.048778802309413"><ele>9.200000000000001</ele><time>2026-05-01T10:59:59Z</time></trkpt><trkpt lat="43.377842017886266" lon="-4.048845610042342"><ele>9.8</ele><time>2026-05-01T11:00:00Z</time></trkpt><trkpt lat="43.3777650141057" lon="-4.048921383698426"><ele>10.4</ele><time>2026-05-01T11:00:01Z</time></trkpt><trkpt lat="43.377703941470095" lon="-4.049022178629716"><ele>11.0</ele><time>2026-05-01T11:00:02Z</time></trkpt><trkpt lat="43.377647005167354" lon="-4.049128382321485"><ele>11.4</ele><time>2026-05-01T11:00:03Z</time></trkpt><trkpt lat="43.37758787276959" lon="-4.049234553242249"><ele>11.8</ele><time>2026-05-01T11:00:04Z</time></trkpt><trkpt lat="43.37752464070339" lon="-4.049340592002789"><ele>12.200000000000001</ele><time>2026-05-01T11:00:05Z</time></trkpt><trkpt lat="43.37746092257777" lon="-4.049447539636747"><ele>12.600000000000001</ele><time>2026-05-01T11:00:06Z</time></trkpt><trkpt lat="43.377393051288415" lon="-4.049556140287822"><ele>13.0</ele><time>2026-05-01T11:00:07Z</time></trkpt><trkpt lat="43.377325820768036" lon="-4.049666416355185"><ele>13.0</ele><time>2026-05-01T11:00:08Z</time></trkpt><trkpt lat="43.37726431826398" lon="-4.049751307846774"><ele>13.0</ele><time>2026-05-01T11:00:09Z</time></trkpt><trkpt lat="43.37721234001422" lon="-4.0498078179772925"><ele>13.0</ele><time>2026-05-01T11:00:10Z</time></trkpt><trkpt lat="43.377125570444534" lon="-4.049986131512096"><ele>13.0</ele><time>2026-05-01T11:00:11Z</time></trkpt><trkpt lat="43.377059254939134" lon="-4.05009281192952"><ele>13.0</ele><time>2026-05-01T11:00:12Z</time></trkpt><trkpt lat="43.3769938886223" lon="-4.050204540386358"><ele>12.600000000000001</ele><time>2026-05-01T11:00:13Z</time></trkpt><trkpt lat="43.376928749760346" lon="-4.050310795341261"><ele>12.200000000000001</ele><time>2026-05-01T11:00:14Z</time></trkpt><trkpt lat="43.37686651793701" lon="-4.050423408972384"><ele>11.8</ele><time>2026-05-01T11:00:15Z</time></trkpt><trkpt lat="43.37680175644674" lon="-4.0505303831988915"><ele>11.4</ele><time>2026-05-01T11:00:16Z</time></trkpt><trkpt lat="43.37674382628625" lon="-4.050634125318976"><ele>11.0</ele><time>2026-05-01T11:00:17Z</time></trkpt><trkpt lat="43.37667943975558" lon="-4.050729249441548"><ele>11.5</ele><time>2026-05-01T11:00:18Z</time></trkpt><trkpt lat="43.37662385364316" lon="-4.050822754281956"><ele>12.0</ele><time>2026-05-01T11:00:19Z</time></trkpt><trkpt lat="43.37656896218469" lon="-4.050914454833797"><ele>12.5</ele><time>2026-05-01T11:00:20Z</time></trkpt><trkpt lat="43.37650641526188" lon="-4.051001930459837"><ele>13.0</ele><time>2026-05-01T11:00:21Z</time></trkpt><trkpt lat="43.376456593859515" lon="-4.051096347596844"><ele>13.500000000000002</ele><time>2026-05-01T11:00:22.001Z</time></trkpt><trkpt lat="43.37641731196698" lon="-4.0511973393745775"><ele>14.0</ele><time>2026-05-01T11:00:23.001Z</time></trkpt><trkpt lat="43.37637504148539" lon="-4.051293013627987"><ele>14.000000000000002</ele><time>2026-05-01T11:00:24.001Z</time></trkpt><trkpt lat="43.37639271953695" lon="-4.051407698575802"><ele>14.0</ele><time>2026-05-01T11:00:25.001Z</time></trkpt><trkpt lat="43.37635865822504" lon="-4.051509571545881"><ele>14.0</ele><time>2026-05-01T11:00:26.001Z</time></trkpt><trkpt lat="43.37634340121209" lon="-4.0516201956408615"><ele>14.0</ele><time>2026-05-01T11:00:27.001Z</time></trkpt><trkpt lat="43.37634618503193" lon="-4.051740645036505"><ele>14.000000000000002</ele><time>2026-05-01T11:00:28.001Z</time></trkpt><trkpt lat="43.37635716102565" lon="-4.051869041293131"><ele>14.0</ele><time>2026-05-01T11:00:29.001Z</time></trkpt><trkpt lat="43.37636177161353" lon="-4.0519983920903595"><ele>14.6</ele><time>2026-05-01T11:00:30.001Z</time></trkpt><trkpt lat="43.37636098916744" lon="-4.052135245072619"><ele>15.2</ele><time>2026-05-01T11:00:31.001Z</time></trkpt><trkpt lat="43.37636176792829" lon="-4.052275151071185"><ele>15.799999999999999</ele><time>2026-05-01T11:00:32.001Z</time></trkpt><trkpt lat="43.376366466800924" lon="-4.052427211732021"><ele>16.4</ele><time>2026-05-01T11:00:33.001Z</time></trkpt><trkpt lat="43.376364598240485" lon="-4.052588422232479"><ele>17.0</ele><time>2026-05-01T11:00:34.001Z</time></trkpt><trkpt lat="43.376366196797285" lon="-4.052765830467393"><ele>16.0</ele><time>2026-05-01T11:00:35.001Z</time></trkpt><trkpt lat="43.376330573322655" lon="-4.052868511119387"><ele>15.0</ele><time>2026-05-01T11:00:36.001Z</time></trkpt><trkpt lat="43.37629991453695" lon="-4.0530099353450515"><ele>14.0</ele><time>2026-05-01T11:00:37.001Z</time></trkpt><trkpt lat="43.37624900366347" lon="-4.0531460262151775"><ele>13.0</ele><time>2026-05-01T11:00:38.001Z</time></trkpt><trkpt lat="43.37619485923312" lon="-4.053276020821226"><ele>12.0</ele><time>2026-05-01T11:00:39.001Z</time></trkpt><trkpt lat="43.37613491654943" lon="-4.053402170898135"><ele>12.0</ele><time>2026-05-01T11:00:40.001Z</time></trkpt><trkpt lat="43.37607214663094" lon="-4.053515076773658"><ele>12.0</ele><time>2026-05-01T11:00:41.001Z</time></trkpt><trkpt lat="43.37599931269674" lon="-4.053627545528843"><ele>12.0</ele><time>2026-05-01T11:00:42.001Z</time></trkpt><trkpt lat="43.375929408381275" lon="-4.05373623875445"><ele>12.0</ele><time>2026-05-01T11:00:43.001Z</time></trkpt><trkpt lat="43.375858997020934" lon="-4.053846144365045"><ele>12.0</ele><time>2026-05-01T11:00:44.001Z</time></trkpt><trkpt lat="43.37579027524904" lon="-4.053958924317896"><ele>12.0</ele><time>2026-05-01T11:00:45.001Z</time></trkpt><trkpt lat="43.37571801209718" lon="-4.054072166689476"><ele>12.0</ele><time>2026-05-01T11:00:46.001Z</time></trkpt><trkpt lat="43.375655343930575" lon="-4.054189538684442"><ele>12.0</ele><time>2026-05-01T11:00:47.001Z</time></trkpt><trkpt lat="43.37560138745945" lon="-4.054316351440841"><ele>12.0</ele><time>2026-05-01T11:00:48.001Z</time></trkpt><trkpt lat="43.375556295379" lon="-4.054433498135535"><ele>12.0</ele><time>2026-05-01T11:00:49.001Z</time></trkpt><trkpt lat="43.375522259579355" lon="-4.054562998810822"><ele>12.6</ele><time>2026-05-01T11:00:50.001Z</time></trkpt><trkpt lat="43.37550213022295" lon="-4.054703613559714"><ele>13.2</ele><time>2026-05-01T11:00:51.001Z</time></trkpt><trkpt lat="43.37548521652883" lon="-4.054841433248632"><ele>13.8</ele><time>2026-05-01T11:00:52.001Z</time></trkpt><trkpt lat="43.37548543438227" lon="-4.054978441037809"><ele>14.4</ele><time>2026-05-01T11:00:53.001Z</time></trkpt><trkpt lat="43.375488809262734" lon="-4.055123006037075"><ele>15.0</ele><time>2026-05-01T11:00:54.001Z</time></trkpt><trkpt lat="43.37549975176865" lon="-4.055263674211466"><ele>16.2</ele><time>2026-05-01T11:00:55.001Z</time></trkpt><trkpt lat="43.375523859903005" lon="-4.055402820368617"><ele>17.4</ele><time>2026-05-01T11:00:56.001Z</time></trkpt><trkpt lat="43.37555897196751" lon="-4.055539602268724"><ele>18.6</ele><time>2026-05-01T11:00:57.001Z</time></trkpt><trkpt lat="43.3756093358713" lon="-4.055682990895562"><ele>19.8</ele><time>2026-05-01T11:00:58.001Z</time></trkpt><trkpt lat="43.37566244770616" lon="-4.055792934122214"><ele>21.0</ele><time>2026-05-01T11:00:59.001Z</time></trkpt><trkpt lat="43.37572199985166" lon="-4.055911725351493"><ele>21.0</ele><time>2026-05-01T11:01:00.001Z</time></trkpt><trkpt lat="43.37579509656284" lon="-4.0560195912215535"><ele>21.0</ele><time>2026-05-01T11:01:01.001Z</time></trkpt><trkpt lat="43.3758789888293" lon="-4.056145420264697"><ele>21.0</ele><time>2026-05-01T11:01:02.001Z</time></trkpt><trkpt lat="43.375950489045195" lon="-4.056304734509046"><ele>21.0</ele><time>2026-05-01T11:01:03.001Z</time></trkpt><trkpt lat="43.375938605415094" lon="-4.056394272008921"><ele>21.0</ele><time>2026-05-01T11:01:04.001Z</time></trkpt><trkpt lat="43.37599299208879" lon="-4.056515399083461"><ele>20.8</ele><time>2026-05-01T11:01:05.001Z</time></trkpt><trkpt lat="43.37606123167208" lon="-4.05663816584495"><ele>20.6</ele><time>2026-05-01T11:01:06.001Z</time></trkpt><trkpt lat="43.376137999820926" lon="-4.056748287260896"><ele>20.4</ele><time>2026-05-01T11:01:07.001Z</time></trkpt><trkpt lat="43.37621959935049" lon="-4.0568484592843586"><ele>20.2</ele><time>2026-05-01T11:01:08.001Z</time></trkpt><trkpt lat="43.3763058797572" lon="-4.056939580835094"><ele>20.0</ele><time>2026-05-01T11:01:09.001Z</time></trkpt><trkpt lat="43.37639438899929" lon="-4.057028168638038"><ele>21.4</ele><time>2026-05-01T11:01:10.001Z</time></trkpt><trkpt lat="43.37648834173575" lon="-4.057109524591077"><ele>22.8</ele><time>2026-05-01T11:01:11.001Z</time></trkpt><trkpt lat="43.376583831012624" lon="-4.057188555139097"><ele>24.200000000000003</ele><time>2026-05-01T11:01:12.001Z</time></trkpt><trkpt lat="43.37667345075457" lon="-4.057270941011299"><ele>25.6</ele><time>2026-05-01T11:01:13.001Z</time></trkpt><trkpt lat="43.37676614115631" lon="-4.057348751552699"><ele>27.0</ele><time>2026-05-01T11:01:14.001Z</time></trkpt><trkpt lat="43.37685849941681" lon="-4.0574274354445325"><ele>26.400000000000002</ele><time>2026-05-01T11:01:15.001Z</time></trkpt><trkpt lat="43.37694737604286" lon="-4.057507236502445"><ele>25.800000000000004</ele><time>2026-05-01T11:01:16.001Z</time></trkpt><trkpt lat="43.37703736284277" lon="-4.057590611993184"><ele>25.2</ele><time>2026-05-01T11:01:17.001Z</time></trkpt><trkpt lat="43.37712736053899" lon="-4.057655819064751"><ele>24.6</ele><time>2026-05-01T11:01:18.001Z</time></trkpt><trkpt lat="43.37721830106802" lon="-4.057738259978662"><ele>24.0</ele><time>2026-05-01T11:01:19.001Z</time></trkpt><trkpt lat="43.37729959586504" lon="-4.057814118414878"><ele>24.0</ele><time>2026-05-01T11:01:20.001Z</time></trkpt><trkpt lat="43.37737123482308" lon="-4.057898181213902"><ele>24.0</ele><time>2026-05-01T11:01:21.001Z</time></trkpt><trkpt lat="43.37745678044787" lon="-4.058033472889231"><ele>24.0</ele><time>2026-05-01T11:01:22.001Z</time></trkpt><trkpt lat="43.3775305165322" lon="-4.058150619405023"><ele>24.0</ele><time>2026-05-01T11:01:23.001Z</time></trkpt><trkpt lat="43.37759521973266" lon="-4.058271021325615"><ele>24.0</ele><time>2026-05-01T11:01:24.001Z</time></trkpt><trkpt lat="43.37764777272473" lon="-4.058402489833781"><ele>23.799999999999997</ele><time>2026-05-01T11:01:25.001Z</time></trkpt><trkpt lat="43.37769267329798" lon="-4.058538055509572"><ele>23.599999999999998</ele><time>2026-05-01T11:01:26.001Z</time></trkpt><trkpt lat="43.377729872415735" lon="-4.05867031074422"><ele>23.4</ele><time>2026-05-01T11:01:27.002Z</time></trkpt><trkpt lat="43.377773975524" lon="-4.058802009144037"><ele>23.2</ele><time>2026-05-01T11:01:28.002Z</time></trkpt><trkpt lat="43.37783393727082" lon="-4.058924521423532"><ele>23.0</ele><time>2026-05-01T11:01:29.002Z</time></trkpt><trkpt lat="43.37787924871352" lon="-4.059051738857279"><ele>23.2</ele><time>2026-05-01T11:01:30.002Z</time></trkpt><trkpt lat="43.37791949429432" lon="-4.059179268995855"><ele>23.4</ele><time>2026-05-01T11:01:31.002Z</time></trkpt><trkpt lat="43.37796281664485" lon="-4.059311747605982"><ele>23.599999999999998</ele><time>2026-05-01T11:01:32.002Z</time></trkpt><trkpt lat="43.3780117301835" lon="-4.059441739819602"><ele>23.799999999999997</ele><time>2026-05-01T11:01:33.002Z</time></trkpt><trkpt lat="43.37804845016173" lon="-4.059572606009382"><ele>24.0</ele><time>2026-05-01T11:01:34.002Z</time></trkpt><trkpt lat="43.37809961360037" lon="-4.0597106324062135"><ele>24.0</ele><time>2026-05-01T11:01:35.002Z</time></trkpt><trkpt lat="43.37814818763503" lon="-4.059848409366112"><ele>24.0</ele><time>2026-05-01T11:01:36.002Z</time></trkpt><trkpt lat="43.37821454742297" lon="-4.059986126515178"><ele>24.0</ele><time>2026-05-01T11:01:37.002Z</time></trkpt><trkpt lat="43.3782379522405" lon="-4.060112944978614"><ele>24.0</ele><time>2026-05-01T11:01:38.002Z</time></trkpt><trkpt lat="43.37828305918581" lon="-4.060241325123735"><ele>24.0</ele><time>2026-05-01T11:01:39.002Z</time></trkpt><trkpt lat="43.378328590317324" lon="-4.060378713120902"><ele>23.6</ele><time>2026-05-01T11:01:40.002Z</time></trkpt><trkpt lat="43.37837243346786" lon="-4.060516480769443"><ele>23.2</ele><time>2026-05-01T11:01:41.002Z</time></trkpt><trkpt lat="43.37842085381689" lon="-4.06065100090851"><ele>22.8</ele><time>2026-05-01T11:01:42.002Z</time></trkpt><trkpt lat="43.37846711426188" lon="-4.060787850830195"><ele>22.400000000000002</ele><time>2026-05-01T11:01:43.002Z</time></trkpt><trkpt lat="43.378512510357595" lon="-4.06092409669234"><ele>22.0</ele><time>2026-05-01T11:01:44.002Z</time></trkpt><trkpt lat="43.37855861585896" lon="-4.061058133105967"><ele>21.8</ele><time>2026-05-01T11:01:45.002Z</time></trkpt><trkpt lat="43.37860514230077" lon="-4.061194380023267"><ele>21.6</ele><time>2026-05-01T11:01:46.002Z</time></trkpt><trkpt lat="43.37865085933107" lon="-4.061330932283264"><ele>21.400000000000002</ele><time>2026-05-01T11:01:47.002Z</time></trkpt><trkpt lat="43.37869995699866" lon="-4.0614640771229995"><ele>21.200000000000003</ele><time>2026-05-01T11:01:48Z</time></trkpt><trkpt lat="43.37874748509244" lon="-4.061601742275516"><ele>21.0</ele><time>2026-05-01T11:01:49Z</time></trkpt><trkpt lat="43.37879294270698" lon="-4.06173913437283"><ele>21.200000000000003</ele><time>2026-05-01T11:01:50Z</time></trkpt><trkpt lat="43.37883633037156" lon="-4.061878482839704"><ele>21.400000000000002</ele><time>2026-05-01T11:01:51Z</time></trkpt><trkpt lat="43.378877052388496" lon="-4.062018132620975"><ele>21.6</ele><time>2026-05-01T11:01:52Z</time></trkpt><trkpt lat="43.37891694471261" lon="-4.0621615412384005"><ele>21.8</ele><time>2026-05-01T11:01:53Z</time></trkpt><trkpt lat="43.37894329004398" lon="-4.0623167798480475"><ele>22.0</ele><time>2026-05-01T11:01:54Z</time></trkpt><trkpt lat="43.378956287762136" lon="-4.062468909969815"><ele>22.0</ele><time>2026-05-01T11:01:55Z</time></trkpt><trkpt lat="43.37896585759157" lon="-4.062622277134407"><ele>22.0</ele><time>2026-05-01T11:01:56Z</time></trkpt><trkpt lat="43.37896284159595" lon="-4.062778687390473"><ele>22.0</ele><time>2026-05-01T11:01:57Z</time></trkpt><trkpt lat="43.378951657450756" lon="-4.062931450525727"><ele>22.0</ele><time>2026-05-01T11:01:58Z</time></trkpt><trkpt lat="43.37893669549327" lon="-4.063084907550885"><ele>22.0</ele><time>2026-05-01T11:01:59Z</time></trkpt><trkpt lat="43.37893236510028" lon="-4.0632382405153"><ele>22.0</ele><time>2026-05-01T11:02:00Z</time></trkpt><trkpt lat="43.37893218002715" lon="-4.0633841722760256"><ele>22.0</ele><time>2026-05-01T11:02:01Z</time></trkpt><trkpt lat="43.37892518362444" lon="-4.063529232394682"><ele>22.0</ele><time>2026-05-01T11:02:02Z</time></trkpt><trkpt lat="43.37893270658468" lon="-4.063668583506052"><ele>22.0</ele><time>2026-05-01T11:02:03Z</time></trkpt><trkpt lat="43.37895697278543" lon="-4.063821605312822"><ele>22.0</ele><time>2026-05-01T11:02:04Z</time></trkpt><trkpt lat="43.379016528526556" lon="-4.064015533294652"><ele>22.0</ele><time>2026-05-01T11:02:05Z</time></trkpt><trkpt lat="43.37906105901171" lon="-4.064179117940094"><ele>22.0</ele><time>2026-05-01T11:02:06Z</time></trkpt><trkpt lat="43.37911585838829" lon="-4.064323724386886"><ele>22.0</ele><time>2026-05-01T11:02:08Z</time></trkpt><trkpt lat="43.37917765684329" lon="-4.064435220173714"><ele>22.0</ele><time>2026-05-01T11:02:09Z</time></trkpt><trkpt lat="43.3792291218169" lon="-4.064551521790913"><ele>22.0</ele><time>2026-05-01T11:02:10Z</time></trkpt><trkpt lat="43.37927765898344" lon="-4.064672038074439"><ele>22.0</ele><time>2026-05-01T11:02:11Z</time></trkpt><trkpt lat="43.37933285597121" lon="-4.064784992636032"><ele>22.0</ele><time>2026-05-01T11:02:12Z</time></trkpt><trkpt lat="43.37938823232589" lon="-4.064894537353013"><ele>22.0</ele><time>2026-05-01T11:02:13Z</time></trkpt><trkpt lat="43.379432387336706" lon="-4.065013750699347"><ele>22.6</ele><time>2026-05-01T11:02:14Z</time></trkpt><trkpt lat="43.37947580466857" lon="-4.065133868897014"><ele>23.200000000000003</ele><time>2026-05-01T11:02:15Z</time></trkpt><trkpt lat="43.37950898270134" lon="-4.06526266673936"><ele>23.8</ele><time>2026-05-01T11:02:16Z</time></trkpt><trkpt lat="43.37953625898056" lon="-4.065393967059185"><ele>24.4</ele><time>2026-05-01T11:02:17Z</time></trkpt><trkpt lat="43.37955274811513" lon="-4.065528214580846"><ele>25.0</ele><time>2026-05-01T11:02:18Z</time></trkpt><trkpt lat="43.37955835627285" lon="-4.065664804111927"><ele>26.0</ele><time>2026-05-01T11:02:19Z</time></trkpt><trkpt lat="43.37955797498738" lon="-4.065803742330412"><ele>27.0</ele><time>2026-05-01T11:02:20Z</time></trkpt><trkpt lat="43.37955001856574" lon="-4.065939697514015"><ele>28.0</ele><time>2026-05-01T11:02:21Z</time></trkpt><trkpt lat="43.379534699261335" lon="-4.066076922416599"><ele>29.0</ele><time>2026-05-01T11:02:22Z</time></trkpt><trkpt lat="43.37951312126792" lon="-4.066211315888903"><ele>30.0</ele><time>2026-05-01T11:02:23Z</time></trkpt><trkpt lat="43.37948938485411" lon="-4.066345681559091"><ele>30.0</ele><time>2026-05-01T11:02:24Z</time></trkpt><trkpt lat="43.37946111617218" lon="-4.066481758680656"><ele>30.0</ele><time>2026-05-01T11:02:25Z</time></trkpt><trkpt lat="43.379444822562455" lon="-4.066627762111495"><ele>30.0</ele><time>2026-05-01T11:02:26Z</time></trkpt><trkpt lat="43.379434046833275" lon="-4.066764290559104"><ele>30.0</ele><time>2026-05-01T11:02:27Z</time></trkpt><trkpt lat="43.379427510763456" lon="-4.066905156807873"><ele>30.0</ele><time>2026-05-01T11:02:28Z</time></trkpt><trkpt lat="43.37942736113021" lon="-4.067051825106816"><ele>30.8</ele><time>2026-05-01T11:02:29Z</time></trkpt><trkpt lat="43.3794317857995" lon="-4.067184913805864"><ele>31.6</ele><time>2026-05-01T11:02:30.001Z</time></trkpt><trkpt lat="43.379451616198644" lon="-4.067332382563397"><ele>32.4</ele><time>2026-05-01T11:02:31.001Z</time></trkpt><trkpt lat="43.379483923869806" lon="-4.067464245096051"><ele>33.2</ele><time>2026-05-01T11:02:32.001Z</time></trkpt><trkpt lat="43.37954052870547" lon="-4.06760219250354"><ele>34.0</ele><time>2026-05-01T11:02:33.001Z</time></trkpt><trkpt lat="43.37959379949284" lon="-4.067735189561664"><ele>34.2</ele><time>2026-05-01T11:02:34.001Z</time></trkpt><trkpt lat="43.37963729482841" lon="-4.067869738680871"><ele>34.4</ele><time>2026-05-01T11:02:35.001Z</time></trkpt><trkpt lat="43.37965134501519" lon="-4.067997444753123"><ele>34.6</ele><time>2026-05-01T11:02:36.001Z</time></trkpt><trkpt lat="43.37965916527218" lon="-4.068140199094154"><ele>34.8</ele><time>2026-05-01T11:02:37.001Z</time></trkpt><trkpt lat="43.379681350858114" lon="-4.068284824900283"><ele>35.0</ele><time>2026-05-01T11:02:38.001Z</time></trkpt><trkpt lat="43.379704911525515" lon="-4.068422230396098"><ele>34.6</ele><time>2026-05-01T11:02:39.001Z</time></trkpt><trkpt lat="43.37972974285544" lon="-4.068572943031251"><ele>34.2</ele><time>2026-05-01T11:02:40.001Z</time></trkpt><trkpt lat="43.37975378877824" lon="-4.068727632191098"><ele>33.8</ele><time>2026-05-01T11:02:41.001Z</time></trkpt><trkpt lat="43.37977602196458" lon="-4.068872105005232"><ele>33.4</ele><time>2026-05-01T11:02:42.001Z</time></trkpt><trkpt lat="43.37979510938438" lon="-4.06900802200438"><ele>33.0</ele><time>2026-05-01T11:02:43.001Z</time></trkpt><trkpt lat="43.37982595947263" lon="-4.069133927624539"><ele>33.0</ele><time>2026-05-01T11:02:44.001Z</time></trkpt><trkpt lat="43.37990141154612" lon="-4.069208735445215"><ele>33.0</ele><time>2026-05-01T11:02:45.001Z</time></trkpt><trkpt lat="43.37998085209137" lon="-4.0692643544337646"><ele>33.0</ele><time>2026-05-01T11:02:46.001Z</time></trkpt><trkpt lat="43.37984998778994" lon="-4.069572660765163"><ele>33.0</ele><time>2026-05-01T11:02:47.001Z</time></trkpt><trkpt lat="43.37985045978945" lon="-4.069721131197002"><ele>33.0</ele><time>2026-05-01T11:02:48.001Z</time></trkpt><trkpt lat="43.379840228076716" lon="-4.06986452126388"><ele>33.0</ele><time>2026-05-01T11:02:49.001Z</time></trkpt><trkpt lat="43.37982948276202" lon="-4.070008379390423"><ele>33.0</ele><time>2026-05-01T11:02:50.001Z</time></trkpt><trkpt lat="43.37981844631533" lon="-4.070157276585989"><ele>33.0</ele><time>2026-05-01T11:02:51.001Z</time></trkpt><trkpt lat="43.379801854777135" lon="-4.070305804372811"><ele>33.0</ele><time>2026-05-01T11:02:52.001Z</time></trkpt><trkpt lat="43.379785685747734" lon="-4.070457020866485"><ele>33.6</ele><time>2026-05-01T11:02:53.001Z</time></trkpt><trkpt lat="43.37977047744577" lon="-4.070607043203742"><ele>34.199999999999996</ele><time>2026-05-01T11:02:54.001Z</time></trkpt><trkpt lat="43.37975579935437" lon="-4.070756476961024"><ele>34.8</ele><time>2026-05-01T11:02:55.001Z</time></trkpt><trkpt lat="43.37973946178421" lon="-4.070907306713876"><ele>35.4</ele><time>2026-05-01T11:02:56.001Z</time></trkpt><trkpt lat="43.37972358674589" lon="-4.071053916406911"><ele>36.0</ele><time>2026-05-01T11:02:57.001Z</time></trkpt><trkpt lat="43.37970865416218" lon="-4.071203972037623"><ele>36.0</ele><time>2026-05-01T11:02:58.001Z</time></trkpt><trkpt lat="43.37969291839703" lon="-4.071353085745104"><ele>36.0</ele><time>2026-05-01T11:02:59.001Z</time></trkpt><trkpt lat="43.37967619514414" lon="-4.071500083569002"><ele>36.0</ele><time>2026-05-01T11:03:00.001Z</time></trkpt><trkpt lat="43.37966319275178" lon="-4.071650243356058"><ele>36.0</ele><time>2026-05-01T11:03:01.001Z</time></trkpt><trkpt lat="43.379645983848405" lon="-4.071803022935433"><ele>36.0</ele><time>2026-05-01T11:03:02.001Z</time></trkpt><trkpt lat="43.37963088839644" lon="-4.0719556696047565"><ele>36.0</ele><time>2026-05-01T11:03:03.001Z</time></trkpt><trkpt lat="43.37961544433191" lon="-4.072107128289326"><ele>36.0</ele><time>2026-05-01T11:03:04.001Z</time></trkpt><trkpt lat="43.37959771508615" lon="-4.072259322289703"><ele>36.0</ele><time>2026-05-01T11:03:05.001Z</time></trkpt><trkpt lat="43.379582490327515" lon="-4.0724095679886325"><ele>36.0</ele><time>2026-05-01T11:03:06.001Z</time></trkpt><trkpt lat="43.379574227438994" lon="-4.072561478521036"><ele>36.0</ele><time>2026-05-01T11:03:07.001Z</time></trkpt><trkpt lat="43.37956282070156" lon="-4.072712289727372"><ele>36.0</ele><time>2026-05-01T11:03:08.001Z</time></trkpt><trkpt lat="43.37955777913743" lon="-4.07286389577276"><ele>36.0</ele><time>2026-05-01T11:03:09.001Z</time></trkpt><trkpt lat="43.37956599883334" lon="-4.0730171636521675"><ele>36.0</ele><time>2026-05-01T11:03:10.001Z</time></trkpt><trkpt lat="43.379583272939314" lon="-4.073165936450366"><ele>36.0</ele><time>2026-05-01T11:03:11.001Z</time></trkpt><trkpt lat="43.379609392801136" lon="-4.073312665261159"><ele>36.0</ele><time>2026-05-01T11:03:12.001Z</time></trkpt><trkpt lat="43.37964470449782" lon="-4.073455408589796"><ele>35.8</ele><time>2026-05-01T11:03:13.001Z</time></trkpt><trkpt lat="43.379683263574584" lon="-4.073593270966274"><ele>35.6</ele><time>2026-05-01T11:03:14.001Z</time></trkpt><trkpt lat="43.37972221058398" lon="-4.073732878956837"><ele>35.4</ele><time>2026-05-01T11:03:15.001Z</time></trkpt><trkpt lat="43.37976011675438" lon="-4.073873405227948"><ele>35.2</ele><time>2026-05-01T11:03:16.001Z</time></trkpt><trkpt lat="43.379803234280715" lon="-4.0740115135035815"><ele>35.0</ele><time>2026-05-01T11:03:17.001Z</time></trkpt><trkpt lat="43.37984330463148" lon="-4.074151257459817"><ele>35.0</ele><time>2026-05-01T11:03:18.001Z</time></trkpt><trkpt lat="43.3798794086228" lon="-4.074290247822791"><ele>35.0</ele><time>2026-05-01T11:03:19.001Z</time></trkpt><trkpt lat="43.37991568036394" lon="-4.074428700713908"><ele>35.0</ele><time>2026-05-01T11:03:20.001Z</time></trkpt><trkpt lat="43.379948275582" lon="-4.074570055107884"><ele>35.0</ele><time>2026-05-01T11:03:21.001Z</time></trkpt><trkpt lat="43.37998229196085" lon="-4.074714427381323"><ele>35.0</ele><time>2026-05-01T11:03:22.001Z</time></trkpt><trkpt lat="43.37999172374876" lon="-4.074856219999338"><ele>35.8</ele><time>2026-05-01T11:03:23.001Z</time></trkpt><trkpt lat="43.3800013690699" lon="-4.074972302744586"><ele>36.6</ele><time>2026-05-01T11:03:24.001Z</time></trkpt><trkpt lat="43.38003500344194" lon="-4.075080525184083"><ele>37.4</ele><time>2026-05-01T11:03:25.001Z</time></trkpt><trkpt lat="43.37999258028591" lon="-4.075276438579521"><ele>38.2</ele><time>2026-05-01T11:03:26.001Z</time></trkpt><trkpt lat="43.3799821798193" lon="-4.0754173545078505"><ele>39.0</ele><time>2026-05-01T11:03:27.001Z</time></trkpt><trkpt lat="43.3799705849313" lon="-4.07555560072625"><ele>39.0</ele><time>2026-05-01T11:03:28.001Z</time></trkpt><trkpt lat="43.379960211134446" lon="-4.075694513398334"><ele>39.0</ele><time>2026-05-01T11:03:29.001Z</time></trkpt><trkpt lat="43.379951794351534" lon="-4.075834975534221"><ele>39.0</ele><time>2026-05-01T11:03:30.001Z</time></trkpt><trkpt lat="43.379940440602134" lon="-4.075973109426615"><ele>39.0</ele><time>2026-05-01T11:03:31.001Z</time></trkpt><trkpt lat="43.37993609624099" lon="-4.076112752928337"><ele>39.0</ele><time>2026-05-01T11:03:32.001Z</time></trkpt><trkpt lat="43.379935587147" lon="-4.076251421214909"><ele>39.4</ele><time>2026-05-01T11:03:33.001Z</time></trkpt><trkpt lat="43.37993580047071" lon="-4.076389210667396"><ele>39.8</ele><time>2026-05-01T11:03:34.001Z</time></trkpt><trkpt lat="43.379941413922" lon="-4.076528672878566"><ele>40.199999999999996</ele><time>2026-05-01T11:03:35.001Z</time></trkpt><trkpt lat="43.379954758815124" lon="-4.0766659249285215"><ele>40.599999999999994</ele><time>2026-05-01T11:03:36.001Z</time></trkpt><trkpt lat="43.3799780437256" lon="-4.076803548608297"><ele>41.0</ele><time>2026-05-01T11:03:37.002Z</time></trkpt><trkpt lat="43.3799993152345" lon="-4.076938130279635"><ele>41.8</ele><time>2026-05-01T11:03:38.002Z</time></trkpt><trkpt lat="43.38002826931207" lon="-4.077073957663083"><ele>42.599999999999994</ele><time>2026-05-01T11:03:39.002Z</time></trkpt><trkpt lat="43.38005517908599" lon="-4.077209001088319"><ele>43.4</ele><time>2026-05-01T11:03:40.002Z</time></trkpt><trkpt lat="43.3800825617096" lon="-4.077341980491897"><ele>44.2</ele><time>2026-05-01T11:03:41.002Z</time></trkpt><trkpt lat="43.380116520256614" lon="-4.077474391345223"><ele>45.0</ele><time>2026-05-01T11:03:42.002Z</time></trkpt><trkpt lat="43.38015857801142" lon="-4.077603139180184"><ele>45.2</ele><time>2026-05-01T11:03:43.002Z</time></trkpt><trkpt lat="43.38019652249302" lon="-4.077733762202722"><ele>45.4</ele><time>2026-05-01T11:03:44.002Z</time></trkpt><trkpt lat="43.380237833888174" lon="-4.0778652485614755"><ele>45.599999999999994</ele><time>2026-05-01T11:03:45.002Z</time></trkpt><trkpt lat="43.38027416774166" lon="-4.077991809042643"><ele>45.8</ele><time>2026-05-01T11:03:46.002Z</time></trkpt><trkpt lat="43.38031329682039" lon="-4.078114762715966"><ele>46.0</ele><time>2026-05-01T11:03:47.002Z</time></trkpt><trkpt lat="43.38036314479833" lon="-4.0782394025154245"><ele>46.0</ele><time>2026-05-01T11:03:48.002Z</time></trkpt><trkpt lat="43.380401333360595" lon="-4.078369303194199"><ele>46.0</ele><time>2026-05-01T11:03:49.002Z</time></trkpt><trkpt lat="43.38043868159019" lon="-4.078495953928716"><ele>46.0</ele><time>2026-05-01T11:03:50.002Z</time></trkpt><trkpt lat="43.380474739643894" lon="-4.078621681473135"><ele>46.0</ele><time>2026-05-01T11:03:51.002Z</time></trkpt><trkpt lat="43.38051053335645" lon="-4.0787502097033865"><ele>46.0</ele><time>2026-05-01T11:03:52.002Z</time></trkpt><trkpt lat="43.380548267185084" lon="-4.078877876689128"><ele>47.199999999999996</ele><time>2026-05-01T11:03:53.002Z</time></trkpt><trkpt lat="43.380584942914254" lon="-4.079002979723669"><ele>48.4</ele><time>2026-05-01T11:03:54Z</time></trkpt><trkpt lat="43.38062420642609" lon="-4.079128005969819"><ele>49.6</ele><time>2026-05-01T11:03:55Z</time></trkpt><trkpt lat="43.380659663873296" lon="-4.079251261420954"><ele>50.8</ele><time>2026-05-01T11:03:56Z</time></trkpt><trkpt lat="43.38069546639575" lon="-4.0793786172891515"><ele>52.0</ele><time>2026-05-01T11:03:57Z</time></trkpt><trkpt lat="43.380727919521966" lon="-4.079502374447044"><ele>53.0</ele><time>2026-05-01T11:03:58Z</time></trkpt><trkpt lat="43.38076349238315" lon="-4.079622704259871"><ele>54.0</ele><time>2026-05-01T11:03:59Z</time></trkpt><trkpt lat="43.38080308353118" lon="-4.079744004998991"><ele>55.0</ele><time>2026-05-01T11:04:00Z</time></trkpt><trkpt lat="43.38084088254553" lon="-4.079864745246358"><ele>56.0</ele><time>2026-05-01T11:04:01Z</time></trkpt><trkpt lat="43.3808745821127" lon="-4.0799883048286905"><ele>57.0</ele><time>2026-05-01T11:04:02Z</time></trkpt><trkpt lat="43.38090862881205" lon="-4.080110581296981"><ele>57.0</ele><time>2026-05-01T11:04:03Z</time></trkpt><trkpt lat="43.38094315076422" lon="-4.0802332944451285"><ele>57.0</ele><time>2026-05-01T11:04:04Z</time></trkpt><trkpt lat="43.38098089868227" lon="-4.080354134242002"><ele>57.0</ele><time>2026-05-01T11:04:05Z</time></trkpt><trkpt lat="43.38101728143207" lon="-4.080475870079239"><ele>57.0</ele><time>2026-05-01T11:04:06Z</time></trkpt><trkpt lat="43.38105037344673" lon="-4.080595467352341"><ele>57.0</ele><time>2026-05-01T11:04:07Z</time></trkpt><trkpt lat="43.38108340402372" lon="-4.080719434444025"><ele>57.2</ele><time>2026-05-01T11:04:08Z</time></trkpt><trkpt lat="43.38112076049557" lon="-4.080839726839298"><ele>57.400000000000006</ele><time>2026-05-01T11:04:09Z</time></trkpt><trkpt lat="43.381155951510245" lon="-4.080961483255717"><ele>57.599999999999994</ele><time>2026-05-01T11:04:10Z</time></trkpt><trkpt lat="43.3811828704578" lon="-4.081085568827764"><ele>57.8</ele><time>2026-05-01T11:04:11Z</time></trkpt><trkpt lat="43.38120978795099" lon="-4.081213736510356"><ele>58.0</ele><time>2026-05-01T11:04:12Z</time></trkpt><trkpt lat="43.38123222874432" lon="-4.081341471687699"><ele>58.0</ele><time>2026-05-01T11:04:13Z</time></trkpt><trkpt lat="43.38124950049476" lon="-4.081470086431598"><ele>58.0</ele><time>2026-05-01T11:04:14Z</time></trkpt><trkpt lat="43.38126245242201" lon="-4.081601841106513"><ele>58.0</ele><time>2026-05-01T11:04:15Z</time></trkpt><trkpt lat="43.38127429925524" lon="-4.081734950653809"><ele>58.0</ele><time>2026-05-01T11:04:16Z</time></trkpt><trkpt lat="43.3812821690138" lon="-4.081868778938879"><ele>58.0</ele><time>2026-05-01T11:04:17Z</time></trkpt><trkpt lat="43.38127997228167" lon="-4.082006006629915"><ele>58.4</ele><time>2026-05-01T11:04:18Z</time></trkpt><trkpt lat="43.38129436228268" lon="-4.0821354614762715"><ele>58.8</ele><time>2026-05-01T11:04:19Z</time></trkpt><trkpt lat="43.38130149361638" lon="-4.082274556624307"><ele>59.2</ele><time>2026-05-01T11:04:20Z</time></trkpt><trkpt lat="43.38130545454726" lon="-4.082409390438058"><ele>59.6</ele><time>2026-05-01T11:04:21Z</time></trkpt><trkpt lat="43.3813080928557" lon="-4.082545665244265"><ele>60.0</ele><time>2026-05-01T11:04:22Z</time></trkpt><trkpt lat="43.381310630298046" lon="-4.082679924413411"><ele>60.2</ele><time>2026-05-01T11:04:23Z</time></trkpt><trkpt lat="43.381314735845095" lon="-4.082813220878319"><ele>60.4</ele><time>2026-05-01T11:04:24Z</time></trkpt><trkpt lat="43.381318313238324" lon="-4.082947474139715"><ele>60.599999999999994</ele><time>2026-05-01T11:04:25Z</time></trkpt><trkpt lat="43.381321292429675" lon="-4.0830844889994875"><ele>60.8</ele><time>2026-05-01T11:04:26Z</time></trkpt><trkpt lat="43.38132731280759" lon="-4.083213670379473"><ele>61.0</ele><time>2026-05-01T11:04:27Z</time></trkpt><trkpt lat="43.38133733598995" lon="-4.0833466291231755"><ele>64.2</ele><time>2026-05-01T11:04:28Z</time></trkpt><trkpt lat="43.381351525090395" lon="-4.0834834385843015"><ele>67.39999999999999</ele><time>2026-05-01T11:04:29Z</time></trkpt><trkpt lat="43.38136489982136" lon="-4.083613043729577"><ele>70.6</ele><time>2026-05-01T11:04:30Z</time></trkpt><trkpt lat="43.3813874166537" lon="-4.083742318017823"><ele>73.8</ele><time>2026-05-01T11:04:31.001Z</time></trkpt><trkpt lat="43.38140832797176" lon="-4.0838745603439"><ele>77.0</ele><time>2026-05-01T11:04:32.001Z</time></trkpt><trkpt lat="43.381441237186216" lon="-4.0839977679604935"><ele>77.0</ele><time>2026-05-01T11:04:33.001Z</time></trkpt><trkpt lat="43.381466114503674" lon="-4.0841275517706315"><ele>77.0</ele><time>2026-05-01T11:04:34.001Z</time></trkpt><trkpt lat="43.38149184317153" lon="-4.084252803467221"><ele>77.0</ele><time>2026-05-01T11:04:35.001Z</time></trkpt><trkpt lat="43.38152414127786" lon="-4.084379864837886"><ele>77.0</ele><time>2026-05-01T11:04:36.001Z</time></trkpt><trkpt lat="43.38155528756373" lon="-4.084503201314601"><ele>77.0</ele><time>2026-05-01T11:04:37.001Z</time></trkpt><trkpt lat="43.38158605518571" lon="-4.084631461191565"><ele>77.0</ele><time>2026-05-01T11:04:38.001Z</time></trkpt><trkpt lat="43.38161499972075" lon="-4.0847589387528656"><ele>77.0</ele><time>2026-05-01T11:04:39.001Z</time></trkpt><trkpt lat="43.38164358102892" lon="-4.084886180403524"><ele>77.0</ele><time>2026-05-01T11:04:40.001Z</time></trkpt><trkpt lat="43.3816733419495" lon="-4.085013088745455"><ele>77.0</ele><time>2026-05-01T11:04:41.001Z</time></trkpt><trkpt lat="43.38170481220964" lon="-4.085140305890114"><ele>77.0</ele><time>2026-05-01T11:04:42.001Z</time></trkpt><trkpt lat="43.381735681895776" lon="-4.085269247053239"><ele>77.0</ele><time>2026-05-01T11:04:43.001Z</time></trkpt><trkpt lat="43.38176593572576" lon="-4.085395218279452"><ele>77.0</ele><time>2026-05-01T11:04:44.001Z</time></trkpt><trkpt lat="43.38179991070303" lon="-4.085522358708415"><ele>77.0</ele><time>2026-05-01T11:04:45.001Z</time></trkpt><trkpt lat="43.381828034630665" lon="-4.085649867848674"><ele>77.0</ele><time>2026-05-01T11:04:46.001Z</time></trkpt><trkpt lat="43.38185940390284" lon="-4.085781430382449"><ele>77.0</ele><time>2026-05-01T11:04:47.001Z</time></trkpt><trkpt lat="43.381888006439944" lon="-4.085907479871656"><ele>77.4</ele><time>2026-05-01T11:04:48.001Z</time></trkpt><trkpt lat="43.381919339875736" lon="-4.086031460921217"><ele>77.80000000000001</ele><time>2026-05-01T11:04:49.001Z</time></trkpt><trkpt lat="43.38195066487495" lon="-4.086161786791171"><ele>78.2</ele><time>2026-05-01T11:04:50.001Z</time></trkpt><trkpt lat="43.38198204543417" lon="-4.086288422694323"><ele>78.60000000000001</ele><time>2026-05-01T11:04:51.001Z</time></trkpt><trkpt lat="43.38200868753129" lon="-4.086416119621872"><ele>79.0</ele><time>2026-05-01T11:04:52.001Z</time></trkpt><trkpt lat="43.3820407170522" lon="-4.086541210607933"><ele>79.4</ele><time>2026-05-01T11:04:53.001Z</time></trkpt><trkpt lat="43.382068739123596" lon="-4.086671848820628"><ele>79.80000000000001</ele><time>2026-05-01T11:04:54.001Z</time></trkpt><trkpt lat="43.3821016255902" lon="-4.086804009556146"><ele>80.19999999999999</ele><time>2026-05-01T11:04:55.001Z</time></trkpt><trkpt lat="43.38212943175556" lon="-4.086926943692903"><ele>80.6</ele><time>2026-05-01T11:04:56.001Z</time></trkpt><trkpt lat="43.382162289976435" lon="-4.087052431877155"><ele>81.0</ele><time>2026-05-01T11:04:57.001Z</time></trkpt><trkpt lat="43.38219293797197" lon="-4.087182451064245"><ele>81.0</ele><time>2026-05-01T11:04:58.001Z</time></trkpt><trkpt lat="43.38222047473551" lon="-4.0873096211904"><ele>81.0</ele><time>2026-05-01T11:04:59.001Z</time></trkpt><trkpt lat="43.382248288015674" lon="-4.087439329070963"><ele>81.0</ele><time>2026-05-01T11:05:00.001Z</time></trkpt><trkpt lat="43.38228112614825" lon="-4.087566127266974"><ele>81.0</ele><time>2026-05-01T11:05:01.001Z</time></trkpt><trkpt lat="43.38230941127822" lon="-4.087693287565194"><ele>81.0</ele><time>2026-05-01T11:05:02.001Z</time></trkpt><trkpt lat="43.38233905870176" lon="-4.0878200526027815"><ele>81.4</ele><time>2026-05-01T11:05:03.001Z</time></trkpt><trkpt lat="43.38236971228964" lon="-4.087950269370104"><ele>81.8</ele><time>2026-05-01T11:05:04.001Z</time></trkpt><trkpt lat="43.38240027760634" lon="-4.088075753659063"><ele>82.2</ele><time>2026-05-01T11:05:05.001Z</time></trkpt><trkpt lat="43.38243209899785" lon="-4.0882006580847925"><ele>82.60000000000001</ele><time>2026-05-01T11:05:06.001Z</time></trkpt><trkpt lat="43.38245998957371" lon="-4.0883281669811815"><ele>83.0</ele><time>2026-05-01T11:05:07.001Z</time></trkpt><trkpt lat="43.38248999873846" lon="-4.088453677011496"><ele>84.80000000000001</ele><time>2026-05-01T11:05:08.001Z</time></trkpt><trkpt lat="43.382522210965135" lon="-4.088576310888998"><ele>86.6</ele><time>2026-05-01T11:05:09.001Z</time></trkpt><trkpt lat="43.3825544089474" lon="-4.088699022850499"><ele>88.4</ele><time>2026-05-01T11:05:10.001Z</time></trkpt><trkpt lat="43.38258949425912" lon="-4.088817789368351"><ele>90.19999999999999</ele><time>2026-05-01T11:05:11.001Z</time></trkpt><trkpt lat="43.382632535860864" lon="-4.088941398768735"><ele>92.0</ele><time>2026-05-01T11:05:12.001Z</time></trkpt><trkpt lat="43.382667574766316" lon="-4.089059873310904"><ele>93.8</ele><time>2026-05-01T11:05:13.001Z</time></trkpt><trkpt lat="43.38270964589641" lon="-4.089175266938364"><ele>95.6</ele><time>2026-05-01T11:05:14.001Z</time></trkpt><trkpt lat="43.382752629629216" lon="-4.089293553214652"><ele>97.39999999999999</ele><time>2026-05-01T11:05:15.001Z</time></trkpt><trkpt lat="43.38279784881494" lon="-4.089408320281754"><ele>99.19999999999999</ele><time>2026-05-01T11:05:16.001Z</time></trkpt><trkpt lat="43.38284327980585" lon="-4.089523821372355"><ele>101.0</ele><time>2026-05-01T11:05:17.001Z</time></trkpt><trkpt lat="43.38288735848185" lon="-4.089639264544906"><ele>101.0</ele><time>2026-05-01T11:05:18.001Z</time></trkpt><trkpt lat="43.38293776682386" lon="-4.089758949681064"><ele>101.0</ele><time>2026-05-01T11:05:19.001Z</time></trkpt><trkpt lat="43.38298580188501" lon="-4.089869181039196"><ele>101.0</ele><time>2026-05-01T11:05:20.001Z</time></trkpt><trkpt lat="43.38303091883407" lon="-4.089987969158628"><ele>101.0</ele><time>2026-05-01T11:05:21.001Z</time></trkpt><trkpt lat="43.383076870727116" lon="-4.090105827482505"><ele>101.0</ele><time>2026-05-01T11:05:22.001Z</time></trkpt><trkpt lat="43.38312697470392" lon="-4.090223760757904"><ele>100.8</ele><time>2026-05-01T11:05:23.001Z</time></trkpt><trkpt lat="43.38317711640197" lon="-4.090343976589407"><ele>100.6</ele><time>2026-05-01T11:05:24.001Z</time></trkpt><trkpt lat="43.383224831582204" lon="-4.090458063466968"><ele>100.4</ele><time>2026-05-01T11:05:25.001Z</time></trkpt><trkpt lat="43.38326776803724" lon="-4.090582772132964"><ele>100.2</ele><time>2026-05-01T11:05:26.001Z</time></trkpt><trkpt lat="43.383318417449026" lon="-4.090699258772417"><ele>100.0</ele><time>2026-05-01T11:05:27.001Z</time></trkpt><trkpt lat="43.38337058810321" lon="-4.090819160617793"><ele>100.0</ele><time>2026-05-01T11:05:28.001Z</time></trkpt><trkpt lat="43.38341854802109" lon="-4.090935604060108"><ele>100.0</ele><time>2026-05-01T11:05:29.001Z</time></trkpt><trkpt lat="43.38346927687859" lon="-4.0910557576538995"><ele>100.0</ele><time>2026-05-01T11:05:30.001Z</time></trkpt><trkpt lat="43.38351410392676" lon="-4.091172871103437"><ele>100.0</ele><time>2026-05-01T11:05:31.001Z</time></trkpt><trkpt lat="43.3835648119586" lon="-4.0912862717961405"><ele>100.0</ele><time>2026-05-01T11:05:32.001Z</time></trkpt><trkpt lat="43.38361385378296" lon="-4.091403801569745"><ele>100.0</ele><time>2026-05-01T11:05:33.001Z</time></trkpt><trkpt lat="43.383665143317245" lon="-4.091529913210152"><ele>100.0</ele><time>2026-05-01T11:05:34.001Z</time></trkpt><trkpt lat="43.3837122199904" lon="-4.091633985606466"><ele>100.0</ele><time>2026-05-01T11:05:35.001Z</time></trkpt><trkpt lat="43.383750535767" lon="-4.0917490828930285"><ele>100.0</ele><time>2026-05-01T11:05:36.001Z</time></trkpt><trkpt lat="43.38379379983977" lon="-4.091859810373596"><ele>100.0</ele><time>2026-05-01T11:05:37.001Z</time></trkpt><trkpt lat="43.383890329602856" lon="-4.092102121725964"><ele>99.8</ele><time>2026-05-01T11:05:39.001Z</time></trkpt><trkpt lat="43.383931315351596" lon="-4.092217264356551"><ele>99.6</ele><time>2026-05-01T11:05:40.001Z</time></trkpt><trkpt lat="43.38397507099104" lon="-4.092332929237101"><ele>99.4</ele><time>2026-05-01T11:05:41.001Z</time></trkpt><trkpt lat="43.384015840457515" lon="-4.0924566529939455"><ele>99.2</ele><time>2026-05-01T11:05:42.001Z</time></trkpt><trkpt lat="43.38405711976161" lon="-4.092577997711309"><ele>99.0</ele><time>2026-05-01T11:05:43.002Z</time></trkpt><trkpt lat="43.38409771059918" lon="-4.09270104659094"><ele>100.6</ele><time>2026-05-01T11:05:44.002Z</time></trkpt><trkpt lat="43.3841321296313" lon="-4.092827788263047"><ele>102.2</ele><time>2026-05-01T11:05:45.002Z</time></trkpt><trkpt lat="43.38416998007508" lon="-4.0929517204279575"><ele>103.79999999999998</ele><time>2026-05-01T11:05:46.002Z</time></trkpt><trkpt lat="43.3842087737123" lon="-4.093079931238683"><ele>105.39999999999999</ele><time>2026-05-01T11:05:47.002Z</time></trkpt><trkpt lat="43.38425173022386" lon="-4.0932028170369925"><ele>107.0</ele><time>2026-05-01T11:05:48.002Z</time></trkpt><trkpt lat="43.38428772775941" lon="-4.093329639180561"><ele>107.8</ele><time>2026-05-01T11:05:49.002Z</time></trkpt><trkpt lat="43.38432184305178" lon="-4.093455382426674"><ele>108.6</ele><time>2026-05-01T11:05:50.002Z</time></trkpt><trkpt lat="43.384359620350736" lon="-4.093584977482647"><ele>109.39999999999999</ele><time>2026-05-01T11:05:51.002Z</time></trkpt><trkpt lat="43.384398118044274" lon="-4.09371494884939"><ele>110.19999999999999</ele><time>2026-05-01T11:05:52.002Z</time></trkpt><trkpt lat="43.384441199672345" lon="-4.093839579755112"><ele>111.0</ele><time>2026-05-01T11:05:53.002Z</time></trkpt><trkpt lat="43.38448761872962" lon="-4.093962423653142"><ele>111.0</ele><time>2026-05-01T11:05:54.002Z</time></trkpt><trkpt lat="43.384538517124355" lon="-4.094084652945874"><ele>111.0</ele><time>2026-05-01T11:05:55.002Z</time></trkpt><trkpt lat="43.38459546772968" lon="-4.094203558452877"><ele>111.0</ele><time>2026-05-01T11:05:56.002Z</time></trkpt><trkpt lat="43.38465214884176" lon="-4.0943176628770095"><ele>111.0</ele><time>2026-05-01T11:05:57.002Z</time></trkpt><trkpt lat="43.38471356715588" lon="-4.094429968706872"><ele>111.0</ele><time>2026-05-01T11:05:58.002Z</time></trkpt><trkpt lat="43.38477740528801" lon="-4.09453347301904"><ele>111.19999999999999</ele><time>2026-05-01T11:05:59.002Z</time></trkpt><trkpt lat="43.38483892051081" lon="-4.094646627666828"><ele>111.39999999999999</ele><time>2026-05-01T11:06:00Z</time></trkpt><trkpt lat="43.38489940513089" lon="-4.094757095063317"><ele>111.6</ele><time>2026-05-01T11:06:01Z</time></trkpt><trkpt lat="43.384959787043904" lon="-4.094868185928566"><ele>111.8</ele><time>2026-05-01T11:06:02Z</time></trkpt><trkpt lat="43.385017889480096" lon="-4.094974691085639"><ele>112.0</ele><time>2026-05-01T11:06:03Z</time></trkpt><trkpt lat="43.38507266346089" lon="-4.0950681003375164"><ele>113.00000000000001</ele><time>2026-05-01T11:06:04Z</time></trkpt><trkpt lat="43.385122059459476" lon="-4.0951502057994436"><ele>114.0</ele><time>2026-05-01T11:06:05Z</time></trkpt><trkpt lat="43.38517072313582" lon="-4.095234633283634"><ele>115.0</ele><time>2026-05-01T11:06:06Z</time></trkpt><trkpt lat="43.38521776081962" lon="-4.095314987821048"><ele>116.0</ele><time>2026-05-01T11:06:07Z</time></trkpt><trkpt lat="43.38528231985177" lon="-4.095383896188536"><ele>117.00000000000001</ele><time>2026-05-01T11:06:08Z</time></trkpt><trkpt lat="43.385363535890896" lon="-4.095411398240779"><ele>118.0</ele><time>2026-05-01T11:06:09Z</time></trkpt><trkpt lat="43.385442881862375" lon="-4.095454529241943"><ele>117.60000000000001</ele><time>2026-05-01T11:06:10Z</time></trkpt><trkpt lat="43.385523103165895" lon="-4.0955096044352715"><ele>117.20000000000002</ele><time>2026-05-01T11:06:11Z</time></trkpt><trkpt lat="43.385583933872525" lon="-4.095617089087109"><ele>116.8</ele><time>2026-05-01T11:06:12Z</time></trkpt><trkpt lat="43.38561073515482" lon="-4.095750318579488"><ele>116.4</ele><time>2026-05-01T11:06:13Z</time></trkpt><trkpt lat="43.385614378303735" lon="-4.0958921832958675"><ele>116.0</ele><time>2026-05-01T11:06:14Z</time></trkpt><trkpt lat="43.385629244592884" lon="-4.096001713332769"><ele>116.8</ele><time>2026-05-01T11:06:15Z</time></trkpt><trkpt lat="43.3856248758791" lon="-4.096148532189292"><ele>117.6</ele><time>2026-05-01T11:06:16Z</time></trkpt><trkpt lat="43.38563543932363" lon="-4.09629373795121"><ele>118.4</ele><time>2026-05-01T11:06:17Z</time></trkpt><trkpt lat="43.385669875811075" lon="-4.096440416004343"><ele>119.2</ele><time>2026-05-01T11:06:18Z</time></trkpt><trkpt lat="43.38570123841579" lon="-4.096584468303624"><ele>120.0</ele><time>2026-05-01T11:06:19Z</time></trkpt><trkpt lat="43.385732870760755" lon="-4.096728993093659"><ele>120.0</ele><time>2026-05-01T11:06:20Z</time></trkpt><trkpt lat="43.385765380268964" lon="-4.09688537077493"><ele>120.0</ele><time>2026-05-01T11:06:21Z</time></trkpt><trkpt lat="43.385799124214536" lon="-4.0970406954120495"><ele>120.0</ele><time>2026-05-01T11:06:22Z</time></trkpt><trkpt lat="43.38583005050982" lon="-4.097189199142381"><ele>120.0</ele><time>2026-05-01T11:06:23Z</time></trkpt><trkpt lat="43.38586036984498" lon="-4.097341210927417"><ele>119.8</ele><time>2026-05-01T11:06:24Z</time></trkpt><trkpt lat="43.38589253056993" lon="-4.097492407136592"><ele>119.6</ele><time>2026-05-01T11:06:25Z</time></trkpt><trkpt lat="43.38591857032924" lon="-4.097645092404966"><ele>119.4</ele><time>2026-05-01T11:06:26Z</time></trkpt><trkpt lat="43.38595100612469" lon="-4.097787670997975"><ele>119.2</ele><time>2026-05-01T11:06:27Z</time></trkpt><trkpt lat="43.38598259676399" lon="-4.097931436547501"><ele>119.0</ele><time>2026-05-01T11:06:28Z</time></trkpt><trkpt lat="43.386017092763716" lon="-4.098081776439129"><ele>119.0</ele><time>2026-05-01T11:06:29Z</time></trkpt><trkpt lat="43.386058138916844" lon="-4.098226615008318"><ele>119.0</ele><time>2026-05-01T11:06:30Z</time></trkpt><trkpt lat="43.38610868050252" lon="-4.098368213544436"><ele>119.0</ele><time>2026-05-01T11:06:31Z</time></trkpt><trkpt lat="43.386164890172246" lon="-4.098505201149178"><ele>119.0</ele><time>2026-05-01T11:06:32Z</time></trkpt><trkpt lat="43.38622502412487" lon="-4.098646407828059"><ele>118.6</ele><time>2026-05-01T11:06:33Z</time></trkpt><trkpt lat="43.38628651264135" lon="-4.0987810225006855"><ele>118.2</ele><time>2026-05-01T11:06:34Z</time></trkpt><trkpt lat="43.386347352205306" lon="-4.0989105854969"><ele>117.79999999999998</ele><time>2026-05-01T11:06:35Z</time></trkpt><trkpt lat="43.38640962885712" lon="-4.099037695937357"><ele>117.39999999999999</ele><time>2026-05-01T11:06:36.001Z</time></trkpt><trkpt lat="43.38647840612987" lon="-4.099155085879241"><ele>117.0</ele><time>2026-05-01T11:06:37.001Z</time></trkpt><trkpt lat="43.386539484597904" lon="-4.099282870152548"><ele>116.39999999999999</ele><time>2026-05-01T11:06:38.001Z</time></trkpt><trkpt lat="43.38659759059532" lon="-4.0994155130828265"><ele>115.79999999999998</ele><time>2026-05-01T11:06:39.001Z</time></trkpt><trkpt lat="43.38665886761003" lon="-4.099536435494982"><ele>115.2</ele><time>2026-05-01T11:06:40.001Z</time></trkpt><trkpt lat="43.386723046257366" lon="-4.099663507663538"><ele>114.6</ele><time>2026-05-01T11:06:41.001Z</time></trkpt><trkpt lat="43.38678513412587" lon="-4.09979371038744"><ele>114.0</ele><time>2026-05-01T11:06:42.001Z</time></trkpt><trkpt lat="43.38684947818945" lon="-4.099917832740864"><ele>112.5</ele><time>2026-05-01T11:06:43.001Z</time></trkpt><trkpt lat="43.38691424077174" lon="-4.100044326623558"><ele>111.0</ele><time>2026-05-01T11:06:44.001Z</time></trkpt><trkpt lat="43.386978710970816" lon="-4.1001716338199286"><ele>109.5</ele><time>2026-05-01T11:06:45.001Z</time></trkpt><trkpt lat="43.3870458999765" lon="-4.100292893218943"><ele>108.0</ele><time>2026-05-01T11:06:46.001Z</time></trkpt><trkpt lat="43.38710993878798" lon="-4.10042219108282"><ele>108.0</ele><time>2026-05-01T11:06:47.001Z</time></trkpt><trkpt lat="43.387173634879915" lon="-4.100548677800934"><ele>108.00000000000001</ele><time>2026-05-01T11:06:48.001Z</time></trkpt><trkpt lat="43.38723740505197" lon="-4.1006758533595375"><ele>108.00000000000001</ele><time>2026-05-01T11:06:49.001Z</time></trkpt><trkpt lat="43.387296137797414" lon="-4.100801673540604"><ele>108.0</ele><time>2026-05-01T11:06:50.001Z</time></trkpt><trkpt lat="43.38735990795798" lon="-4.100933099098382"><ele>108.0</ele><time>2026-05-01T11:06:51.001Z</time></trkpt><trkpt lat="43.387420870452075" lon="-4.1010624890031115"><ele>108.2</ele><time>2026-05-01T11:06:52.001Z</time></trkpt><trkpt lat="43.387480321632914" lon="-4.101189102034593"><ele>108.4</ele><time>2026-05-01T11:06:53.001Z</time></trkpt><trkpt lat="43.387541949112304" lon="-4.101314486466576"><ele>108.60000000000001</ele><time>2026-05-01T11:06:54.001Z</time></trkpt><trkpt lat="43.38760357592671" lon="-4.101442661615126"><ele>108.80000000000001</ele><time>2026-05-01T11:06:55.001Z</time></trkpt><trkpt lat="43.3876637809863" lon="-4.10156113196576"><ele>109.0</ele><time>2026-05-01T11:06:56.001Z</time></trkpt><trkpt lat="43.387721543271745" lon="-4.101690947128989"><ele>108.6</ele><time>2026-05-01T11:06:57.001Z</time></trkpt><trkpt lat="43.38777897195711" lon="-4.101821925028684"><ele>108.2</ele><time>2026-05-01T11:06:58.001Z</time></trkpt><trkpt lat="43.387829423764884" lon="-4.10195527173296"><ele>107.79999999999998</ele><time>2026-05-01T11:06:59.001Z</time></trkpt><trkpt lat="43.38787261252356" lon="-4.1020977230417826"><ele>107.39999999999999</ele><time>2026-05-01T11:07:00.001Z</time></trkpt><trkpt lat="43.38790519584546" lon="-4.102239592100481"><ele>107.0</ele><time>2026-05-01T11:07:01.001Z</time></trkpt><trkpt lat="43.38792742922279" lon="-4.102385235171785"><ele>107.0</ele><time>2026-05-01T11:07:02.001Z</time></trkpt><trkpt lat="43.38794434293692" lon="-4.102532758851917"><ele>106.99999999999999</ele><time>2026-05-01T11:07:03.001Z</time></trkpt><trkpt lat="43.38795413914994" lon="-4.102684287769505"><ele>106.99999999999999</ele><time>2026-05-01T11:07:04.001Z</time></trkpt><trkpt lat="43.3879566884722" lon="-4.102838648363197"><ele>107.0</ele><time>2026-05-01T11:07:05.001Z</time></trkpt><trkpt lat="43.38794723826554" lon="-4.102991610995638"><ele>107.0</ele><time>2026-05-01T11:07:06.001Z</time></trkpt><trkpt lat="43.38793421995813" lon="-4.103145281676918"><ele>106.75</ele><time>2026-05-01T11:07:07.001Z</time></trkpt><trkpt lat="43.38791102311283" lon="-4.103301636837032"><ele>106.5</ele><time>2026-05-01T11:07:08.001Z</time></trkpt><trkpt lat="43.38788373022776" lon="-4.103457632063542"><ele>106.25</ele><time>2026-05-01T11:07:09.001Z</time></trkpt><trkpt lat="43.387847843264126" lon="-4.103612268076919"><ele>106.0</ele><time>2026-05-01T11:07:10.001Z</time></trkpt><trkpt lat="43.38780671508692" lon="-4.103758348718303"><ele>106.0</ele><time>2026-05-01T11:07:11.001Z</time></trkpt><trkpt lat="43.38776972924695" lon="-4.103904795316639"><ele>106.0</ele><time>2026-05-01T11:07:12.001Z</time></trkpt><trkpt lat="43.387736369459425" lon="-4.104051431501234"><ele>106.0</ele><time>2026-05-01T11:07:13.001Z</time></trkpt><trkpt lat="43.387704305955275" lon="-4.104200612769246"><ele>106.0</ele><time>2026-05-01T11:07:14.001Z</time></trkpt><trkpt lat="43.38768244584939" lon="-4.104354051775454"><ele>105.4</ele><time>2026-05-01T11:07:15.001Z</time></trkpt><trkpt lat="43.38767346261849" lon="-4.104505829251963"><ele>104.8</ele><time>2026-05-01T11:07:16.001Z</time></trkpt><trkpt lat="43.38767258445624" lon="-4.104659828152635"><ele>104.2</ele><time>2026-05-01T11:07:17.001Z</time></trkpt><trkpt lat="43.38768446096878" lon="-4.104811768097546"><ele>103.60000000000001</ele><time>2026-05-01T11:07:18.001Z</time></trkpt><trkpt lat="43.38770070357858" lon="-4.104953728866157"><ele>103.0</ele><time>2026-05-01T11:07:19.001Z</time></trkpt><trkpt lat="43.387737833239626" lon="-4.105097368395765"><ele>102.2</ele><time>2026-05-01T11:07:20.001Z</time></trkpt><trkpt lat="43.38778115469697" lon="-4.105242934971812"><ele>101.4</ele><time>2026-05-01T11:07:21.001Z</time></trkpt><trkpt lat="43.38782664068865" lon="-4.105371084383723"><ele>100.60000000000001</ele><time>2026-05-01T11:07:22.001Z</time></trkpt><trkpt lat="43.38787023689131" lon="-4.105505833189678"><ele>99.80000000000001</ele><time>2026-05-01T11:07:23.001Z</time></trkpt><trkpt lat="43.387913251924715" lon="-4.105640521731266"><ele>99.0</ele><time>2026-05-01T11:07:24.001Z</time></trkpt><trkpt lat="43.38796307482467" lon="-4.1057683960211495"><ele>97.80000000000001</ele><time>2026-05-01T11:07:25.001Z</time></trkpt><trkpt lat="43.38800657400419" lon="-4.105898505113989"><ele>96.60000000000001</ele><time>2026-05-01T11:07:26.001Z</time></trkpt><trkpt lat="43.3880473860696" lon="-4.106025257445832"><ele>95.4</ele><time>2026-05-01T11:07:27.001Z</time></trkpt><trkpt lat="43.38809084451167" lon="-4.106144994950374"><ele>94.2</ele><time>2026-05-01T11:07:28.001Z</time></trkpt><trkpt lat="43.388129022635646" lon="-4.106268349631192"><ele>93.0</ele><time>2026-05-01T11:07:29.001Z</time></trkpt><trkpt lat="43.38817344177926" lon="-4.106393352162248"><ele>93.0</ele><time>2026-05-01T11:07:30.001Z</time></trkpt><trkpt lat="43.38821422844487" lon="-4.106509674816671"><ele>93.0</ele><time>2026-05-01T11:07:31.001Z</time></trkpt><trkpt lat="43.38825167367196" lon="-4.106628769168887"><ele>93.0</ele><time>2026-05-01T11:07:32.001Z</time></trkpt><trkpt lat="43.38829288127754" lon="-4.1067433331559435"><ele>93.0</ele><time>2026-05-01T11:07:33.001Z</time></trkpt><trkpt lat="43.38832871763372" lon="-4.10685639170756"><ele>93.0</ele><time>2026-05-01T11:07:34.001Z</time></trkpt><trkpt lat="43.38836541240435" lon="-4.106968702685737"><ele>92.0</ele><time>2026-05-01T11:07:35.001Z</time></trkpt><trkpt lat="43.388399890001004" lon="-4.10707730539996"><ele>91.0</ele><time>2026-05-01T11:07:36.001Z</time></trkpt><trkpt lat="43.38843264594227" lon="-4.107180480792155"><ele>90.0</ele><time>2026-05-01T11:07:37.001Z</time></trkpt><trkpt lat="43.38846661597057" lon="-4.1072874684061835"><ele>89.0</ele><time>2026-05-01T11:07:38.001Z</time></trkpt><trkpt lat="43.388501849553094" lon="-4.107386814716941"><ele>88.0</ele><time>2026-05-01T11:07:39.001Z</time></trkpt><trkpt lat="43.38853519893659" lon="-4.107485802547418"><ele>87.0</ele><time>2026-05-01T11:07:40.001Z</time></trkpt><trkpt lat="43.38856870450697" lon="-4.107583984919457"><ele>86.19999999999999</ele><time>2026-05-01T11:07:41.001Z</time></trkpt><trkpt lat="43.38859777173401" lon="-4.107680752901988"><ele>85.4</ele><time>2026-05-01T11:07:42.001Z</time></trkpt><trkpt lat="43.3886272871751" lon="-4.1077739151367725"><ele>84.6</ele><time>2026-05-01T11:07:43.001Z</time></trkpt><trkpt lat="43.38865968855722" lon="-4.1078606631526915"><ele>83.80000000000001</ele><time>2026-05-01T11:07:44.001Z</time></trkpt><trkpt lat="43.38871489736794" lon="-4.10801484948019"><ele>83.0</ele><time>2026-05-01T11:07:46.001Z</time></trkpt><trkpt lat="43.388762168293006" lon="-4.1081559497049485"><ele>83.16666666666667</ele><time>2026-05-01T11:07:48.001Z</time></trkpt><trkpt lat="43.388795488844536" lon="-4.108283339782303"><ele>83.33333333333334</ele><time>2026-05-01T11:07:50.001Z</time></trkpt><trkpt lat="43.38881669219998" lon="-4.108377020258477"><ele>83.5</ele><time>2026-05-01T11:07:52.002Z</time></trkpt><trkpt lat="43.38884291071545" lon="-4.108476208787186"><ele>83.66666666666667</ele><time>2026-05-01T11:07:56.002Z</time></trkpt><trkpt lat="43.38886184533258" lon="-4.108569031789056"><ele>83.83333333333333</ele><time>2026-05-01T11:07:59.002Z</time></trkpt><trkpt lat="43.38889632750468" lon="-4.108678291824381"><ele>84.0</ele><time>2026-05-01T11:08:02.002Z</time></trkpt><trkpt lat="43.388916489351196" lon="-4.108767341585959"><ele>84.0</ele><time>2026-05-01T11:08:06Z</time></trkpt><trkpt lat="43.3889391260854" lon="-4.1088600905261305"><ele>84.0</ele><time>2026-05-01T11:08:10Z</time></trkpt><trkpt lat="43.38896312253347" lon="-4.108949119893386"><ele>84.0</ele><time>2026-05-01T11:08:14Z</time></trkpt><trkpt lat="43.38899336978322" lon="-4.10907296046578"><ele>84.0</ele><time>2026-05-01T11:08:17Z</time></trkpt><trkpt lat="43.38903231167802" lon="-4.1091953097952905"><ele>84.0</ele><time>2026-05-01T11:08:19Z</time></trkpt><trkpt lat="43.38908253109231" lon="-4.109315789632578"><ele>84.0</ele><time>2026-05-01T11:08:21Z</time></trkpt><trkpt lat="43.38913403146639" lon="-4.109425218017912"><ele>84.4</ele><time>2026-05-01T11:08:23Z</time></trkpt><trkpt lat="43.389196506391066" lon="-4.1095357175426255"><ele>84.80000000000001</ele><time>2026-05-01T11:08:25Z</time></trkpt><trkpt lat="43.3892666411902" lon="-4.1096507324373315"><ele>85.19999999999999</ele><time>2026-05-01T11:08:27Z</time></trkpt><trkpt lat="43.38934774759879" lon="-4.109737564185657"><ele>85.6</ele><time>2026-05-01T11:08:29Z</time></trkpt><trkpt lat="43.38944388558147" lon="-4.109831307897184"><ele>86.0</ele><time>2026-05-01T11:08:31Z</time></trkpt><trkpt lat="43.38949710252554" lon="-4.109882722164065"><ele>85.85714285714286</ele><time>2026-05-01T11:08:32Z</time></trkpt><trkpt lat="43.38955630052388" lon="-4.109939914907604"><ele>85.71428571428572</ele><time>2026-05-01T11:08:33Z</time></trkpt><trkpt lat="43.38961551935593" lon="-4.109994770034435"><ele>85.57142857142858</ele><time>2026-05-01T11:08:34Z</time></trkpt><trkpt lat="43.38967349642104" lon="-4.110047964276593"><ele>85.42857142857143</ele><time>2026-05-01T11:08:35Z</time></trkpt><trkpt lat="43.38973225881423" lon="-4.110113404227991"><ele>85.28571428571428</ele><time>2026-05-01T11:08:36Z</time></trkpt><trkpt lat="43.38980670351121" lon="-4.110151884430775"><ele>85.14285714285715</ele><time>2026-05-01T11:08:37Z</time></trkpt><trkpt lat="43.389878660977075" lon="-4.110188725088583"><ele>85.0</ele><time>2026-05-01T11:08:38Z</time></trkpt><trkpt lat="43.38992263079891" lon="-4.110283336442599"><ele>86.6</ele><time>2026-05-01T11:08:39Z</time></trkpt><trkpt lat="43.3899783453837" lon="-4.110356116998084"><ele>88.2</ele><time>2026-05-01T11:08:40Z</time></trkpt><trkpt lat="43.390083457521726" lon="-4.110493082945431"><ele>89.80000000000001</ele><time>2026-05-01T11:08:42Z</time></trkpt><trkpt lat="43.39013143505703" lon="-4.110590480315604"><ele>91.4</ele><time>2026-05-01T11:08:43Z</time></trkpt><trkpt lat="43.3901743401002" lon="-4.110678990064007"><ele>93.0</ele><time>2026-05-01T11:08:44Z</time></trkpt><trkpt lat="43.390216671294944" lon="-4.11076219394082"><ele>93.0</ele><time>2026-05-01T11:08:45Z</time></trkpt><trkpt lat="43.39026831284833" lon="-4.1108486376818165"><ele>93.0</ele><time>2026-05-01T11:08:46Z</time></trkpt><trkpt lat="43.39030999240996" lon="-4.110940861253721"><ele>93.0</ele><time>2026-05-01T11:08:47Z</time></trkpt><trkpt lat="43.39036163455885" lon="-4.111031246633447"><ele>93.0</ele><time>2026-05-01T11:08:48Z</time></trkpt><trkpt lat="43.390424580111286" lon="-4.1111007294060355"><ele>93.0</ele><time>2026-05-01T11:08:49Z</time></trkpt><trkpt lat="43.39047526162749" lon="-4.111211236701278"><ele>93.0</ele><time>2026-05-01T11:08:50Z</time></trkpt><trkpt lat="43.390530276328015" lon="-4.111298099595677"><ele>94.33333333333333</ele><time>2026-05-01T11:08:51Z</time></trkpt><trkpt lat="43.39060307787761" lon="-4.1113624553174555"><ele>95.66666666666666</ele><time>2026-05-01T11:08:52Z</time></trkpt><trkpt lat="43.390670191581606" lon="-4.111436056060215"><ele>97.0</ele><time>2026-05-01T11:08:53Z</time></trkpt><trkpt lat="43.39073514193822" lon="-4.111500064679359"><ele>98.33333333333333</ele><time>2026-05-01T11:08:54Z</time></trkpt><trkpt lat="43.39079989572667" lon="-4.111582301730863"><ele>99.66666666666666</ele><time>2026-05-01T11:08:55Z</time></trkpt><trkpt lat="43.39087416338234" lon="-4.111648743959588"><ele>101.0</ele><time>2026-05-01T11:08:56Z</time></trkpt><trkpt lat="43.39094928139076" lon="-4.111706464464986"><ele>100.99999999999999</ele><time>2026-05-01T11:08:57Z</time></trkpt><trkpt lat="43.391020115311775" lon="-4.111777581875929"><ele>101.0</ele><time>2026-05-01T11:08:58Z</time></trkpt><trkpt lat="43.39109513437644" lon="-4.111843757560267"><ele>101.0</ele><time>2026-05-01T11:08:59Z</time></trkpt><trkpt lat="43.391168330592755" lon="-4.111909765340583"><ele>101.0</ele><time>2026-05-01T11:09:00.001Z</time></trkpt><trkpt lat="43.39124347745713" lon="-4.111976187940918"><ele>100.99999999999999</ele><time>2026-05-01T11:09:01.001Z</time></trkpt><trkpt lat="43.39131661503979" lon="-4.112044871264998"><ele>101.0</ele><time>2026-05-01T11:09:02.001Z</time></trkpt><trkpt lat="43.39139303490873" lon="-4.112115894901458"><ele>102.4</ele><time>2026-05-01T11:09:03.001Z</time></trkpt><trkpt lat="43.391466692941485" lon="-4.112181942630871"><ele>103.8</ele><time>2026-05-01T11:09:04.001Z</time></trkpt><trkpt lat="43.39154269510062" lon="-4.112247423478336"><ele>105.20000000000002</ele><time>2026-05-01T11:09:05.001Z</time></trkpt><trkpt lat="43.39161834760044" lon="-4.112318950105354"><ele>106.60000000000001</ele><time>2026-05-01T11:09:06.001Z</time></trkpt><trkpt lat="43.3916977721456" lon="-4.1123778536728075"><ele>108.0</ele><time>2026-05-01T11:09:07.001Z</time></trkpt><trkpt lat="43.391774405314706" lon="-4.112445919500721"><ele>108.0</ele><time>2026-05-01T11:09:08.001Z</time></trkpt><trkpt lat="43.39184875152024" lon="-4.112516427570824"><ele>108.0</ele><time>2026-05-01T11:09:09.001Z</time></trkpt><trkpt lat="43.39192327680541" lon="-4.112586991375926"><ele>108.0</ele><time>2026-05-01T11:09:10.001Z</time></trkpt><trkpt lat="43.391996789436625" lon="-4.112656826202593"><ele>108.0</ele><time>2026-05-01T11:09:11.001Z</time></trkpt><trkpt lat="43.39208045558068" lon="-4.112707012302788"><ele>108.0</ele><time>2026-05-01T11:09:12.001Z</time></trkpt><trkpt lat="43.39214388907904" lon="-4.1127890020450755"><ele>108.0</ele><time>2026-05-01T11:09:13.001Z</time></trkpt><trkpt lat="43.392220134972675" lon="-4.112848848388245"><ele>108.5</ele><time>2026-05-01T11:09:14.001Z</time></trkpt><trkpt lat="43.3922904015475" lon="-4.112921352306871"><ele>109.0</ele><time>2026-05-01T11:09:15.001Z</time></trkpt><trkpt lat="43.39236018818537" lon="-4.112988590412751"><ele>109.5</ele><time>2026-05-01T11:09:16.001Z</time></trkpt><trkpt lat="43.39242832033449" lon="-4.113056422604398"><ele>110.0</ele><time>2026-05-01T11:09:17.001Z</time></trkpt><trkpt lat="43.392496941379626" lon="-4.113126406153252"><ele>110.5</ele><time>2026-05-01T11:09:18.001Z</time></trkpt><trkpt lat="43.392565442655" lon="-4.113195011129505"><ele>111.0</ele><time>2026-05-01T11:09:19.001Z</time></trkpt><trkpt lat="43.39262689460189" lon="-4.113272943113482"><ele>111.0</ele><time>2026-05-01T11:09:20.001Z</time></trkpt><trkpt lat="43.39268418056779" lon="-4.113354596101735"><ele>111.0</ele><time>2026-05-01T11:09:21.001Z</time></trkpt><trkpt lat="43.3927339918415" lon="-4.1134440089980835"><ele>111.0</ele><time>2026-05-01T11:09:22.001Z</time></trkpt><trkpt lat="43.39278087390502" lon="-4.113536770508886"><ele>111.0</ele><time>2026-05-01T11:09:23.001Z</time></trkpt><trkpt lat="43.39282289540264" lon="-4.113633671247263"><ele>111.0</ele><time>2026-05-01T11:09:24.001Z</time></trkpt><trkpt lat="43.39286148285087" lon="-4.1137321077081905"><ele>111.0</ele><time>2026-05-01T11:09:25.001Z</time></trkpt><trkpt lat="43.392899378427614" lon="-4.1138304500427525"><ele>111.0</ele><time>2026-05-01T11:09:26.001Z</time></trkpt><trkpt lat="43.39293974824814" lon="-4.113929403541164"><ele>111.0</ele><time>2026-05-01T11:09:27.001Z</time></trkpt><trkpt lat="43.392981759766414" lon="-4.114029500677533"><ele>111.0</ele><time>2026-05-01T11:09:28.001Z</time></trkpt><trkpt lat="43.39302123001012" lon="-4.114130582215316"><ele>111.0</ele><time>2026-05-01T11:09:29.001Z</time></trkpt><trkpt lat="43.39305820150884" lon="-4.114233077962146"><ele>111.0</ele><time>2026-05-01T11:09:30.001Z</time></trkpt><trkpt lat="43.39309161264139" lon="-4.1143399220264145"><ele>111.0</ele><time>2026-05-01T11:09:31.001Z</time></trkpt><trkpt lat="43.393126300061724" lon="-4.11444935190517"><ele>113.16666666666667</ele><time>2026-05-01T11:09:32.001Z</time></trkpt><trkpt lat="43.39315851101647" lon="-4.1145581417747445"><ele>115.33333333333334</ele><time>2026-05-01T11:09:33.001Z</time></trkpt><trkpt lat="43.393187429804875" lon="-4.114669123128822"><ele>117.5</ele><time>2026-05-01T11:09:34.001Z</time></trkpt><trkpt lat="43.39321184138042" lon="-4.114782541073052"><ele>119.66666666666667</ele><time>2026-05-01T11:09:35.001Z</time></trkpt><trkpt lat="43.39323563896798" lon="-4.114897159359454"><ele>121.83333333333334</ele><time>2026-05-01T11:09:36.001Z</time></trkpt><trkpt lat="43.39326035694032" lon="-4.115010737252622"><ele>124.0</ele><time>2026-05-01T11:09:37.001Z</time></trkpt><trkpt lat="43.393294815532784" lon="-4.115122013571651"><ele>124.16666666666667</ele><time>2026-05-01T11:09:38.001Z</time></trkpt><trkpt lat="43.393328297295895" lon="-4.115228520849141"><ele>124.33333333333334</ele><time>2026-05-01T11:09:39.001Z</time></trkpt><trkpt lat="43.39335760829967" lon="-4.11533510958437"><ele>124.5</ele><time>2026-05-01T11:09:40.001Z</time></trkpt><trkpt lat="43.39338438277727" lon="-4.115444298667346"><ele>124.66666666666666</ele><time>2026-05-01T11:09:41.001Z</time></trkpt><trkpt lat="43.39341181186017" lon="-4.115553682433578"><ele>124.83333333333333</ele><time>2026-05-01T11:09:42.001Z</time></trkpt><trkpt lat="43.39343827049321" lon="-4.11566400369426"><ele>125.0</ele><time>2026-05-01T11:09:43.001Z</time></trkpt><trkpt lat="43.39345672834866" lon="-4.115774690541501"><ele>125.16666666666666</ele><time>2026-05-01T11:09:44.001Z</time></trkpt><trkpt lat="43.393468111798825" lon="-4.11588970960053"><ele>125.33333333333333</ele><time>2026-05-01T11:09:45.001Z</time></trkpt><trkpt lat="43.39347047969391" lon="-4.1160049963831975"><ele>125.5</ele><time>2026-05-01T11:09:46.001Z</time></trkpt><trkpt lat="43.393463789687765" lon="-4.116120683081277"><ele>125.66666666666666</ele><time>2026-05-01T11:09:47.001Z</time></trkpt><trkpt lat="43.393455275592146" lon="-4.116232888909913"><ele>125.83333333333333</ele><time>2026-05-01T11:09:48.001Z</time></trkpt><trkpt lat="43.39343169922603" lon="-4.116343765624338"><ele>126.0</ele><time>2026-05-01T11:09:49.001Z</time></trkpt><trkpt lat="43.39340099896032" lon="-4.116451606727848"><ele>126.0</ele><time>2026-05-01T11:09:50.001Z</time></trkpt><trkpt lat="43.39336357903438" lon="-4.116555350980577"><ele>126.0</ele><time>2026-05-01T11:09:51.001Z</time></trkpt><trkpt lat="43.39332382364545" lon="-4.116652711789801"><ele>126.0</ele><time>2026-05-01T11:09:52.001Z</time></trkpt><trkpt lat="43.393283055923845" lon="-4.116748256580805"><ele>126.0</ele><time>2026-05-01T11:09:53.001Z</time></trkpt><trkpt lat="43.39326089692915" lon="-4.1168571784420855"><ele>126.0</ele><time>2026-05-01T11:09:54.001Z</time></trkpt><trkpt lat="43.39328658858531" lon="-4.116969470421553"><ele>126.0</ele><time>2026-05-01T11:09:55.001Z</time></trkpt><trkpt lat="43.393348503294064" lon="-4.117060799069903"><ele>126.6</ele><time>2026-05-01T11:09:56.001Z</time></trkpt><trkpt lat="43.39338519832678" lon="-4.117143031709294"><ele>127.19999999999999</ele><time>2026-05-01T11:09:57.001Z</time></trkpt><trkpt lat="43.393499029500234" lon="-4.117184993785373"><ele>127.80000000000001</ele><time>2026-05-01T11:09:58.001Z</time></trkpt><trkpt lat="43.39356107016207" lon="-4.117267597167395"><ele>128.4</ele><time>2026-05-01T11:09:59.001Z</time></trkpt><trkpt lat="43.393600025079955" lon="-4.117376540792469"><ele>129.0</ele><time>2026-05-01T11:10:00.001Z</time></trkpt><trkpt lat="43.393610729594386" lon="-4.117501912767002"><ele>130.4</ele><time>2026-05-01T11:10:01.001Z</time></trkpt><trkpt lat="43.39358835232879" lon="-4.117628275533924"><ele>131.8</ele><time>2026-05-01T11:10:02.001Z</time></trkpt><trkpt lat="43.393541220648466" lon="-4.1177416583623"><ele>133.2</ele><time>2026-05-01T11:10:03.001Z</time></trkpt><trkpt lat="43.39348892019024" lon="-4.1178554486402845"><ele>134.6</ele><time>2026-05-01T11:10:04.001Z</time></trkpt><trkpt lat="43.39344717920419" lon="-4.117979843789527"><ele>136.0</ele><time>2026-05-01T11:10:05.001Z</time></trkpt><trkpt lat="43.393433774500814" lon="-4.118135002114145"><ele>137.25</ele><time>2026-05-01T11:10:06.001Z</time></trkpt><trkpt lat="43.39344978213368" lon="-4.118312484986271"><ele>138.5</ele><time>2026-05-01T11:10:07.001Z</time></trkpt><trkpt lat="43.393488408329404" lon="-4.11850968171626"><ele>139.75</ele><time>2026-05-01T11:10:08.001Z</time></trkpt><trkpt lat="43.39353885282508" lon="-4.118720696757494"><ele>141.0</ele><time>2026-05-01T11:10:09.001Z</time></trkpt><trkpt lat="43.39360064756502" lon="-4.118945199855103"><ele>141.0</ele><time>2026-05-01T11:10:10.001Z</time></trkpt><trkpt lat="43.393661326575234" lon="-4.119185845425828"><ele>141.0</ele><time>2026-05-01T11:10:11.002Z</time></trkpt><trkpt lat="43.39360585177947" lon="-4.118958321944947"><ele>141.0</ele><time>2026-05-01T11:10:12Z</time></trkpt><trkpt lat="43.3936347826933" lon="-4.119106385509751"><ele>141.6</ele><time>2026-05-01T11:10:13Z</time></trkpt><trkpt lat="43.39366428294149" lon="-4.119245933853587"><ele>142.2</ele><time>2026-05-01T11:10:14Z</time></trkpt><trkpt lat="43.39368310282122" lon="-4.11938912990298"><ele>142.8</ele><time>2026-05-01T11:10:15Z</time></trkpt><trkpt lat="43.393690085331784" lon="-4.119535670328934"><ele>143.4</ele><time>2026-05-01T11:10:16Z</time></trkpt><trkpt lat="43.39368672543349" lon="-4.119681589808684"><ele>144.0</ele><time>2026-05-01T11:10:17Z</time></trkpt><trkpt lat="43.393678671290274" lon="-4.119837918845799"><ele>143.8</ele><time>2026-05-01T11:10:18Z</time></trkpt><trkpt lat="43.39366458830923" lon="-4.119983659260421"><ele>143.60000000000002</ele><time>2026-05-01T11:10:19Z</time></trkpt><trkpt lat="43.39364324467356" lon="-4.120137199165968"><ele>143.4</ele><time>2026-05-01T11:10:20Z</time></trkpt><trkpt lat="43.39361446913918" lon="-4.1202831968606715"><ele>143.20000000000002</ele><time>2026-05-01T11:10:21Z</time></trkpt><trkpt lat="43.393576012645674" lon="-4.12043272377608"><ele>143.0</ele><time>2026-05-01T11:10:22Z</time></trkpt><trkpt lat="43.39352943890092" lon="-4.120578162409497"><ele>143.0</ele><time>2026-05-01T11:10:23Z</time></trkpt><trkpt lat="43.39347417656589" lon="-4.120719856476442"><ele>143.0</ele><time>2026-05-01T11:10:24Z</time></trkpt><trkpt lat="43.39341220818686" lon="-4.120858964544505"><ele>143.0</ele><time>2026-05-01T11:10:25Z</time></trkpt><trkpt lat="43.39335296175939" lon="-4.120990844883542"><ele>143.0</ele><time>2026-05-01T11:10:26Z</time></trkpt><trkpt lat="43.393298651766465" lon="-4.121129842986414"><ele>141.0</ele><time>2026-05-01T11:10:27Z</time></trkpt><trkpt lat="43.39323709872614" lon="-4.1212638784196045"><ele>139.0</ele><time>2026-05-01T11:10:28Z</time></trkpt><trkpt lat="43.3931753935245" lon="-4.121407893904547"><ele>137.0</ele><time>2026-05-01T11:10:29Z</time></trkpt><trkpt lat="43.39311163411685" lon="-4.1215440067505265"><ele>135.0</ele><time>2026-05-01T11:10:30Z</time></trkpt><trkpt lat="43.393047669440605" lon="-4.121679166058009"><ele>137.0</ele><time>2026-05-01T11:10:31Z</time></trkpt><trkpt lat="43.39298726470528" lon="-4.121826930388185"><ele>139.0</ele><time>2026-05-01T11:10:32Z</time></trkpt><trkpt lat="43.39293869209991" lon="-4.121983059409169"><ele>141.0</ele><time>2026-05-01T11:10:33Z</time></trkpt><trkpt lat="43.39290348503581" lon="-4.1221454700416045"><ele>143.0</ele><time>2026-05-01T11:10:34Z</time></trkpt><trkpt lat="43.39287386152632" lon="-4.122308294776856"><ele>139.75</ele><time>2026-05-01T11:10:35Z</time></trkpt><trkpt lat="43.39285452646816" lon="-4.122475335118846"><ele>136.5</ele><time>2026-05-01T11:10:36Z</time></trkpt><trkpt lat="43.39284294470149" lon="-4.122644053130709"><ele>133.25</ele><time>2026-05-01T11:10:37Z</time></trkpt><trkpt lat="43.392832350398265" lon="-4.122806803311888"><ele>130.0</ele><time>2026-05-01T11:10:38Z</time></trkpt><trkpt lat="43.392818346261066" lon="-4.122968206544443"><ele>130.0</ele><time>2026-05-01T11:10:39Z</time></trkpt><trkpt lat="43.392799076808366" lon="-4.12313516301151"><ele>130.0</ele><time>2026-05-01T11:10:40Z</time></trkpt><trkpt lat="43.39277569486668" lon="-4.123294133037277"><ele>130.0</ele><time>2026-05-01T11:10:41Z</time></trkpt><trkpt lat="43.392742786839094" lon="-4.12345423887747"><ele>130.0</ele><time>2026-05-01T11:10:42Z</time></trkpt><trkpt lat="43.39269969858661" lon="-4.1236055584983085"><ele>127.5</ele><time>2026-05-01T11:10:43Z</time></trkpt><trkpt lat="43.39264929176202" lon="-4.123753175133632"><ele>125.0</ele><time>2026-05-01T11:10:44Z</time></trkpt><trkpt lat="43.39258428033597" lon="-4.123889123932587"><ele>122.5</ele><time>2026-05-01T11:10:45Z</time></trkpt><trkpt lat="43.39251409387861" lon="-4.12402814590951"><ele>120.0</ele><time>2026-05-01T11:10:46Z</time></trkpt><trkpt lat="43.392444758591026" lon="-4.124167589202322"><ele>117.5</ele><time>2026-05-01T11:10:47Z</time></trkpt><trkpt lat="43.39237926152712" lon="-4.124310206193434"><ele>115.0</ele><time>2026-05-01T11:10:48Z</time></trkpt><trkpt lat="43.39231740537941" lon="-4.124455035193939"><ele>112.5</ele><time>2026-05-01T11:10:49Z</time></trkpt><trkpt lat="43.39226829743665" lon="-4.1246042166985"><ele>110.0</ele><time>2026-05-01T11:10:50Z</time></trkpt><trkpt lat="43.39222944507639" lon="-4.124762533203633"><ele>108.25</ele><time>2026-05-01T11:10:51Z</time></trkpt><trkpt lat="43.392202280839776" lon="-4.124923128132082"><ele>106.5</ele><time>2026-05-01T11:10:52Z</time></trkpt><trkpt lat="43.39218730427007" lon="-4.125093352656412"><ele>104.75</ele><time>2026-05-01T11:10:53Z</time></trkpt><trkpt lat="43.39219012219482" lon="-4.125263690607416"><ele>103.0</ele><time>2026-05-01T11:10:54Z</time></trkpt><trkpt lat="43.39220428558079" lon="-4.125426349037716"><ele>103.0</ele><time>2026-05-01T11:10:55Z</time></trkpt><trkpt lat="43.39223840516893" lon="-4.125590668971297"><ele>103.0</ele><time>2026-05-01T11:10:56Z</time></trkpt><trkpt lat="43.392281618748044" lon="-4.1257481716030595"><ele>103.0</ele><time>2026-05-01T11:10:57Z</time></trkpt><trkpt lat="43.39233166546946" lon="-4.125898820197808"><ele>103.0</ele><time>2026-05-01T11:10:58.001Z</time></trkpt><trkpt lat="43.392390854440954" lon="-4.126050014578773"><ele>100.75</ele><time>2026-05-01T11:10:59.001Z</time></trkpt><trkpt lat="43.39244865413911" lon="-4.1261971721737405"><ele>98.5</ele><time>2026-05-01T11:11:00.001Z</time></trkpt><trkpt lat="43.392503034944724" lon="-4.126342547519246"><ele>96.25</ele><time>2026-05-01T11:11:01.001Z</time></trkpt><trkpt lat="43.39256405491919" lon="-4.126489701293438"><ele>94.0</ele><time>2026-05-01T11:11:02.001Z</time></trkpt><trkpt lat="43.3926229859903" lon="-4.126642545168467"><ele>92.25</ele><time>2026-05-01T11:11:03.001Z</time></trkpt><trkpt lat="43.392678510095266" lon="-4.126788127501691"><ele>90.5</ele><time>2026-05-01T11:11:04.001Z</time></trkpt><trkpt lat="43.39273456094284" lon="-4.126936690950655"><ele>88.75</ele><time>2026-05-01T11:11:05.001Z</time></trkpt><trkpt lat="43.39278770419116" lon="-4.127089689055646"><ele>87.0</ele><time>2026-05-01T11:11:06.001Z</time></trkpt><trkpt lat="43.39283610237785" lon="-4.127240432761585"><ele>87.0</ele><time>2026-05-01T11:11:07.001Z</time></trkpt><trkpt lat="43.39288098620709" lon="-4.127393725183047"><ele>87.0</ele><time>2026-05-01T11:11:08.001Z</time></trkpt><trkpt lat="43.39292385016128" lon="-4.127552557017094"><ele>87.0</ele><time>2026-05-01T11:11:09.001Z</time></trkpt><trkpt lat="43.392960521099155" lon="-4.127713151708231"><ele>87.0</ele><time>2026-05-01T11:11:10.001Z</time></trkpt><trkpt lat="43.39299652494592" lon="-4.12786762104487"><ele>87.5</ele><time>2026-05-01T11:11:11.001Z</time></trkpt><trkpt lat="43.39302944736827" lon="-4.12802226561491"><ele>88.0</ele><time>2026-05-01T11:11:12.001Z</time></trkpt><trkpt lat="43.39305618044718" lon="-4.1281777202771455"><ele>88.5</ele><time>2026-05-01T11:11:13.001Z</time></trkpt><trkpt lat="43.393081031023925" lon="-4.128334616044039"><ele>89.0</ele><time>2026-05-01T11:11:14.001Z</time></trkpt><trkpt lat="43.3931034998939" lon="-4.12848690044259"><ele>89.0</ele><time>2026-05-01T11:11:15.001Z</time></trkpt><trkpt lat="43.393120046561016" lon="-4.12864537189417"><ele>89.0</ele><time>2026-05-01T11:11:16.001Z</time></trkpt><trkpt lat="43.393134406946366" lon="-4.1288019401367695"><ele>89.0</ele><time>2026-05-01T11:11:17.001Z</time></trkpt><trkpt lat="43.39314784479719" lon="-4.128957361199007"><ele>89.0</ele><time>2026-05-01T11:11:18.001Z</time></trkpt><trkpt lat="43.3931561883806" lon="-4.129118636644905"><ele>88.0</ele><time>2026-05-01T11:11:19.001Z</time></trkpt><trkpt lat="43.393160734894145" lon="-4.129277517066796"><ele>87.0</ele><time>2026-05-01T11:11:20.001Z</time></trkpt><trkpt lat="43.393160032229986" lon="-4.1294385092754995"><ele>86.0</ele><time>2026-05-01T11:11:21.001Z</time></trkpt><trkpt lat="43.39315844071836" lon="-4.129599284673652"><ele>85.0</ele><time>2026-05-01T11:11:22.001Z</time></trkpt><trkpt lat="43.39315454425326" lon="-4.129760649225213"><ele>84.25</ele><time>2026-05-01T11:11:23.001Z</time></trkpt><trkpt lat="43.39314810178811" lon="-4.129923015248105"><ele>83.5</ele><time>2026-05-01T11:11:24.001Z</time></trkpt><trkpt lat="43.39313912757823" lon="-4.130083709126085"><ele>82.75</ele><time>2026-05-01T11:11:25.001Z</time></trkpt><trkpt lat="43.39312749706178" lon="-4.130248633285506"><ele>82.0</ele><time>2026-05-01T11:11:26.001Z</time></trkpt><trkpt lat="43.39311292179455" lon="-4.130409650886324"><ele>82.0</ele><time>2026-05-01T11:11:27.001Z</time></trkpt><trkpt lat="43.39310047019255" lon="-4.130572861597302"><ele>82.0</ele><time>2026-05-01T11:11:28.001Z</time></trkpt><trkpt lat="43.39308480577191" lon="-4.130733536369687"><ele>82.0</ele><time>2026-05-01T11:11:29.001Z</time></trkpt><trkpt lat="43.393070946171385" lon="-4.130893703223706"><ele>82.0</ele><time>2026-05-01T11:11:30.001Z</time></trkpt><trkpt lat="43.39306204692006" lon="-4.131054910773641"><ele>81.0</ele><time>2026-05-01T11:11:31.001Z</time></trkpt><trkpt lat="43.393061253793405" lon="-4.131211819705041"><ele>80.0</ele><time>2026-05-01T11:11:32.001Z</time></trkpt><trkpt lat="43.39306827775939" lon="-4.131375743489387"><ele>79.0</ele><time>2026-05-01T11:11:33.001Z</time></trkpt><trkpt lat="43.393090236018494" lon="-4.131532378644744"><ele>78.0</ele><time>2026-05-01T11:11:34.001Z</time></trkpt><trkpt lat="43.39312474112235" lon="-4.1316854270089145"><ele>77.2</ele><time>2026-05-01T11:11:35.001Z</time></trkpt><trkpt lat="43.393161719344484" lon="-4.131827145198176"><ele>76.4</ele><time>2026-05-01T11:11:36.001Z</time></trkpt><trkpt lat="43.39320209086328" lon="-4.131967302498461"><ele>75.60000000000001</ele><time>2026-05-01T11:11:37.001Z</time></trkpt><trkpt lat="43.39324330065491" lon="-4.132095803614144"><ele>74.8</ele><time>2026-05-01T11:11:38.001Z</time></trkpt><trkpt lat="43.39328331916926" lon="-4.132219916769391"><ele>74.0</ele><time>2026-05-01T11:11:39.001Z</time></trkpt><trkpt lat="43.39332284759936" lon="-4.132347742649903"><ele>72.66666666666667</ele><time>2026-05-01T11:11:40.001Z</time></trkpt><trkpt lat="43.39335753624926" lon="-4.132464606715096"><ele>71.33333333333334</ele><time>2026-05-01T11:11:41.001Z</time></trkpt><trkpt lat="43.393391146447584" lon="-4.132585771345262"><ele>70.0</ele><time>2026-05-01T11:11:42.001Z</time></trkpt><trkpt lat="43.393427032828185" lon="-4.132700810452342"><ele>68.66666666666667</ele><time>2026-05-01T11:11:43.001Z</time></trkpt><trkpt lat="43.39346286123059" lon="-4.132811408926882"><ele>67.33333333333333</ele><time>2026-05-01T11:11:44.001Z</time></trkpt><trkpt lat="43.393495725695786" lon="-4.132910055499172"><ele>66.0</ele><time>2026-05-01T11:11:45.001Z</time></trkpt><trkpt lat="43.39352310919055" lon="-4.133000584840872"><ele>66.0</ele><time>2026-05-01T11:11:46.001Z</time></trkpt><trkpt lat="43.393561559341094" lon="-4.133136945283306"><ele>66.0</ele><time>2026-05-01T11:11:48.001Z</time></trkpt><trkpt lat="43.39360378404561" lon="-4.133264142987996"><ele>66.0</ele><time>2026-05-01T11:11:50.001Z</time></trkpt><trkpt lat="43.393635950678494" lon="-4.133358427094814"><ele>66.0</ele><time>2026-05-01T11:11:51.001Z</time></trkpt><trkpt lat="43.39366296153915" lon="-4.133464339107881"><ele>66.0</ele><time>2026-05-01T11:11:52.001Z</time></trkpt><trkpt lat="43.39369913630115" lon="-4.133578479756671"><ele>65.2</ele><time>2026-05-01T11:11:53.001Z</time></trkpt><trkpt lat="43.393732915548725" lon="-4.13369744737924"><ele>64.39999999999999</ele><time>2026-05-01T11:11:54.001Z</time></trkpt><trkpt lat="43.39376982951364" lon="-4.133821644973577"><ele>63.6</ele><time>2026-05-01T11:11:55.001Z</time></trkpt><trkpt lat="43.39380830217246" lon="-4.133951004883202"><ele>62.8</ele><time>2026-05-01T11:11:56.001Z</time></trkpt><trkpt lat="43.39384767929187" lon="-4.13407833152129"><ele>62.0</ele><time>2026-05-01T11:11:57.001Z</time></trkpt><trkpt lat="43.393886646331275" lon="-4.134202129582206"><ele>61.2</ele><time>2026-05-01T11:11:58.001Z</time></trkpt><trkpt lat="43.39392350481575" lon="-4.134322639284663"><ele>60.400000000000006</ele><time>2026-05-01T11:11:59.001Z</time></trkpt><trkpt lat="43.39396069873804" lon="-4.134445630039113"><ele>59.599999999999994</ele><time>2026-05-01T11:12:00.001Z</time></trkpt><trkpt lat="43.393997101709935" lon="-4.134571078946037"><ele>58.8</ele><time>2026-05-01T11:12:01.001Z</time></trkpt><trkpt lat="43.394034804490296" lon="-4.1346951502135"><ele>58.0</ele><time>2026-05-01T11:12:02.001Z</time></trkpt><trkpt lat="43.394073309094814" lon="-4.134819943016744"><ele>57.8</ele><time>2026-05-01T11:12:03.001Z</time></trkpt><trkpt lat="43.394105689627104" lon="-4.134942519409523"><ele>57.599999999999994</ele><time>2026-05-01T11:12:04.001Z</time></trkpt><trkpt lat="43.39414558449133" lon="-4.135061962447391"><ele>57.400000000000006</ele><time>2026-05-01T11:12:05.001Z</time></trkpt><trkpt lat="43.394185397901936" lon="-4.135189806036418"><ele>57.2</ele><time>2026-05-01T11:12:06.001Z</time></trkpt><trkpt lat="43.394226756399725" lon="-4.135318237747565"><ele>57.0</ele><time>2026-05-01T11:12:07.001Z</time></trkpt><trkpt lat="43.39426821632718" lon="-4.135446049791419"><ele>57.0</ele><time>2026-05-01T11:12:08.001Z</time></trkpt><trkpt lat="43.39431010369755" lon="-4.135576835208994"><ele>57.0</ele><time>2026-05-01T11:12:09.002Z</time></trkpt><trkpt lat="43.394348107248135" lon="-4.135705066412136"><ele>57.0</ele><time>2026-05-01T11:12:10.002Z</time></trkpt><trkpt lat="43.3943871881122" lon="-4.135834409253791"><ele>57.0</ele><time>2026-05-01T11:12:11.002Z</time></trkpt><trkpt lat="43.394426610522984" lon="-4.135964013824482"><ele>57.0</ele><time>2026-05-01T11:12:12.002Z</time></trkpt><trkpt lat="43.39446732010486" lon="-4.136088869675662"><ele>57.400000000000006</ele><time>2026-05-01T11:12:13.002Z</time></trkpt><trkpt lat="43.394506533180795" lon="-4.136218001206023"><ele>57.800000000000004</ele><time>2026-05-01T11:12:14.002Z</time></trkpt><trkpt lat="43.394544912830256" lon="-4.136348910524689"><ele>58.2</ele><time>2026-05-01T11:12:15.002Z</time></trkpt><trkpt lat="43.39458744946202" lon="-4.136473989699906"><ele>58.6</ele><time>2026-05-01T11:12:16.002Z</time></trkpt><trkpt lat="43.39462792369726" lon="-4.136603316425644"><ele>59.0</ele><time>2026-05-01T11:12:17.002Z</time></trkpt><trkpt lat="43.39467030760088" lon="-4.13673066976914"><ele>58.400000000000006</ele><time>2026-05-01T11:12:18Z</time></trkpt><trkpt lat="43.394708312236986" lon="-4.136862327487522"><ele>57.800000000000004</ele><time>2026-05-01T11:12:19Z</time></trkpt><trkpt lat="43.39474882573213" lon="-4.136991798725397"><ele>57.199999999999996</ele><time>2026-05-01T11:12:20Z</time></trkpt><trkpt lat="43.394787506905914" lon="-4.137119577602381"><ele>56.599999999999994</ele><time>2026-05-01T11:12:21Z</time></trkpt><trkpt lat="43.394825239807865" lon="-4.137250718312244"><ele>56.0</ele><time>2026-05-01T11:12:22Z</time></trkpt><trkpt lat="43.39486628462041" lon="-4.137378462675438"><ele>56.4</ele><time>2026-05-01T11:12:23Z</time></trkpt><trkpt lat="43.394904070790275" lon="-4.1375120436844535"><ele>56.8</ele><time>2026-05-01T11:12:24Z</time></trkpt><trkpt lat="43.3949463350877" lon="-4.137638830479481"><ele>57.199999999999996</ele><time>2026-05-01T11:12:25Z</time></trkpt><trkpt lat="43.39497885340484" lon="-4.137775177089866"><ele>57.599999999999994</ele><time>2026-05-01T11:12:26Z</time></trkpt><trkpt lat="43.39501279731884" lon="-4.137861104202302"><ele>58.0</ele><time>2026-05-01T11:12:27Z</time></trkpt><trkpt lat="43.39504981325054" lon="-4.1379763405428"><ele>58.0</ele><time>2026-05-01T11:12:28Z</time></trkpt><trkpt lat="43.39512162290238" lon="-4.138180852546264"><ele>58.0</ele><time>2026-05-01T11:12:29Z</time></trkpt><trkpt lat="43.39517456781475" lon="-4.138323776935664"><ele>58.0</ele><time>2026-05-01T11:12:30Z</time></trkpt><trkpt lat="43.395219738768475" lon="-4.138461245105855"><ele>58.0</ele><time>2026-05-01T11:12:31Z</time></trkpt><trkpt lat="43.395267826728286" lon="-4.138591987069709"><ele>57.25</ele><time>2026-05-01T11:12:32Z</time></trkpt><trkpt lat="43.395319044343246" lon="-4.138731183324994"><ele>56.5</ele><time>2026-05-01T11:12:33Z</time></trkpt><trkpt lat="43.39539701222868" lon="-4.138906642174716"><ele>55.75</ele><time>2026-05-01T11:12:34Z</time></trkpt><trkpt lat="43.3954577079861" lon="-4.139122824630717"><ele>55.0</ele><time>2026-05-01T11:12:36Z</time></trkpt><trkpt lat="43.39550441336275" lon="-4.139257046395704"><ele>55.0</ele><time>2026-05-01T11:12:37Z</time></trkpt><trkpt lat="43.3955512926313" lon="-4.139398093190616"><ele>55.0</ele><time>2026-05-01T11:12:38Z</time></trkpt><trkpt lat="43.3955956742285" lon="-4.139537886351132"><ele>55.0</ele><time>2026-05-01T11:12:39Z</time></trkpt><trkpt lat="43.39563868865376" lon="-4.139683821189638"><ele>55.0</ele><time>2026-05-01T11:12:40Z</time></trkpt><trkpt lat="43.39567541592697" lon="-4.13982865305185"><ele>55.0</ele><time>2026-05-01T11:12:41Z</time></trkpt><trkpt lat="43.395709358021776" lon="-4.13997234065234"><ele>55.8</ele><time>2026-05-01T11:12:42Z</time></trkpt><trkpt lat="43.39573924695903" lon="-4.140119689147522"><ele>56.6</ele><time>2026-05-01T11:12:43Z</time></trkpt><trkpt lat="43.3957638120611" lon="-4.140270680789501"><ele>57.400000000000006</ele><time>2026-05-01T11:12:44Z</time></trkpt><trkpt lat="43.395790883926686" lon="-4.140421001070448"><ele>58.2</ele><time>2026-05-01T11:12:45Z</time></trkpt><trkpt lat="43.39581105660513" lon="-4.140565260583789"><ele>59.0</ele><time>2026-05-01T11:12:46Z</time></trkpt><trkpt lat="43.39583076634714" lon="-4.140712182374547"><ele>59.2</ele><time>2026-05-01T11:12:47Z</time></trkpt><trkpt lat="43.395860522639516" lon="-4.140860182819163"><ele>59.400000000000006</ele><time>2026-05-01T11:12:48Z</time></trkpt><trkpt lat="43.39588148436819" lon="-4.141006041368768"><ele>59.6</ele><time>2026-05-01T11:12:49Z</time></trkpt><trkpt lat="43.39590504847083" lon="-4.141153076477577"><ele>59.8</ele><time>2026-05-01T11:12:50Z</time></trkpt><trkpt lat="43.395928615661944" lon="-4.141302057484"><ele>60.0</ele><time>2026-05-01T11:12:51Z</time></trkpt><trkpt lat="43.395948117917634" lon="-4.141446550724552"><ele>60.6</ele><time>2026-05-01T11:12:52Z</time></trkpt><trkpt lat="43.39597037204924" lon="-4.14159465663122"><ele>61.2</ele><time>2026-05-01T11:12:53Z</time></trkpt><trkpt lat="43.395992933719825" lon="-4.141741400836125"><ele>61.8</ele><time>2026-05-01T11:12:54Z</time></trkpt><trkpt lat="43.39601524747551" lon="-4.141884800378926"><ele>62.4</ele><time>2026-05-01T11:12:55Z</time></trkpt><trkpt lat="43.396039013135194" lon="-4.1420285053420915"><ele>63.0</ele><time>2026-05-01T11:12:56Z</time></trkpt><trkpt lat="43.39606017698223" lon="-4.142170037390648"><ele>63.0</ele><time>2026-05-01T11:12:57Z</time></trkpt><trkpt lat="43.39608518763308" lon="-4.142315185641863"><ele>63.0</ele><time>2026-05-01T11:12:58Z</time></trkpt><trkpt lat="43.39610878733617" lon="-4.142450674658847"><ele>63.0</ele><time>2026-05-01T11:12:59Z</time></trkpt><trkpt lat="43.39612976309651" lon="-4.14259748449087"><ele>63.0</ele><time>2026-05-01T11:13:00Z</time></trkpt><trkpt lat="43.3961560092195" lon="-4.1427356104659445"><ele>63.0</ele><time>2026-05-01T11:13:01Z</time></trkpt><trkpt lat="43.396179968811445" lon="-4.1428827489133"><ele>63.599999999999994</ele><time>2026-05-01T11:13:02Z</time></trkpt><trkpt lat="43.39619275084128" lon="-4.143011808596699"><ele>64.19999999999999</ele><time>2026-05-01T11:13:03Z</time></trkpt><trkpt lat="43.396217546774004" lon="-4.1431521359467"><ele>64.8</ele><time>2026-05-01T11:13:04Z</time></trkpt><trkpt lat="43.396242915223965" lon="-4.143291964330994"><ele>65.39999999999999</ele><time>2026-05-01T11:13:05.001Z</time></trkpt><trkpt lat="43.396263711314795" lon="-4.143431435367006"><ele>66.0</ele><time>2026-05-01T11:13:06.001Z</time></trkpt><trkpt lat="43.39628510386471" lon="-4.143573218912777"><ele>66.2</ele><time>2026-05-01T11:13:07.001Z</time></trkpt><trkpt lat="43.39630261628589" lon="-4.1437118920687945"><ele>66.39999999999999</ele><time>2026-05-01T11:13:08.001Z</time></trkpt><trkpt lat="43.39631788328038" lon="-4.143851950537487"><ele>66.6</ele><time>2026-05-01T11:13:09.001Z</time></trkpt><trkpt lat="43.39634038451507" lon="-4.143988734323244"><ele>66.8</ele><time>2026-05-01T11:13:10.001Z</time></trkpt><trkpt lat="43.39636352526882" lon="-4.144126493861387"><ele>67.0</ele><time>2026-05-01T11:13:11.001Z</time></trkpt><trkpt lat="43.39637981804722" lon="-4.144265492165503"><ele>67.0</ele><time>2026-05-01T11:13:12.001Z</time></trkpt><trkpt lat="43.39639432775721" lon="-4.144401342629695"><ele>67.0</ele><time>2026-05-01T11:13:13.001Z</time></trkpt><trkpt lat="43.396399693871246" lon="-4.144543911851854"><ele>67.0</ele><time>2026-05-01T11:13:14.001Z</time></trkpt><trkpt lat="43.39640471544301" lon="-4.144679899387747"><ele>67.0</ele><time>2026-05-01T11:13:15.001Z</time></trkpt><trkpt lat="43.396406446810694" lon="-4.1448182816950245"><ele>67.0</ele><time>2026-05-01T11:13:16.001Z</time></trkpt><trkpt lat="43.39640248418814" lon="-4.144955014362324"><ele>68.0</ele><time>2026-05-01T11:13:17.001Z</time></trkpt><trkpt lat="43.39639750388833" lon="-4.1450854430085124"><ele>69.0</ele><time>2026-05-01T11:13:18.001Z</time></trkpt><trkpt lat="43.39638766200849" lon="-4.145217794545798"><ele>70.0</ele><time>2026-05-01T11:13:19.001Z</time></trkpt><trkpt lat="43.39637309820628" lon="-4.145348361710744"><ele>71.0</ele><time>2026-05-01T11:13:20.001Z</time></trkpt><trkpt lat="43.3963560280387" lon="-4.145480297579137"><ele>72.0</ele><time>2026-05-01T11:13:21.001Z</time></trkpt><trkpt lat="43.396335977604174" lon="-4.145609822234249"><ele>72.6</ele><time>2026-05-01T11:13:22.001Z</time></trkpt><trkpt lat="43.396317000945544" lon="-4.1457386303943435"><ele>73.2</ele><time>2026-05-01T11:13:23.001Z</time></trkpt><trkpt lat="43.396299191408474" lon="-4.145867918863047"><ele>73.8</ele><time>2026-05-01T11:13:24.001Z</time></trkpt><trkpt lat="43.39627968909907" lon="-4.145998937829851"><ele>74.4</ele><time>2026-05-01T11:13:25.001Z</time></trkpt><trkpt lat="43.39625529943895" lon="-4.146128976001666"><ele>75.0</ele><time>2026-05-01T11:13:26.001Z</time></trkpt><trkpt lat="43.39623565928873" lon="-4.146265481976371"><ele>75.0</ele><time>2026-05-01T11:13:27.001Z</time></trkpt><trkpt lat="43.39621911451689" lon="-4.146399932957622"><ele>75.0</ele><time>2026-05-01T11:13:28.001Z</time></trkpt><trkpt lat="43.396202259574636" lon="-4.146539765261349"><ele>75.0</ele><time>2026-05-01T11:13:29.001Z</time></trkpt><trkpt lat="43.39618799626982" lon="-4.14669144546723"><ele>75.0</ele><time>2026-05-01T11:13:30.001Z</time></trkpt><trkpt lat="43.39617832971293" lon="-4.146833833712818"><ele>75.0</ele><time>2026-05-01T11:13:31.001Z</time></trkpt><trkpt lat="43.39617998124109" lon="-4.146983188951457"><ele>75.0</ele><time>2026-05-01T11:13:32.001Z</time></trkpt><trkpt lat="43.396184576297" lon="-4.147134270090007"><ele>75.0</ele><time>2026-05-01T11:13:33.001Z</time></trkpt><trkpt lat="43.396187479238115" lon="-4.147287829221962"><ele>75.0</ele><time>2026-05-01T11:13:34.001Z</time></trkpt><trkpt lat="43.39620227006946" lon="-4.14743356205928"><ele>75.0</ele><time>2026-05-01T11:13:35.001Z</time></trkpt><trkpt lat="43.39621230356327" lon="-4.147591171115783"><ele>75.0</ele><time>2026-05-01T11:13:36.001Z</time></trkpt><trkpt lat="43.396225947648325" lon="-4.147733761780141"><ele>75.0</ele><time>2026-05-01T11:13:37.001Z</time></trkpt><trkpt lat="43.39625164552655" lon="-4.147883224077584"><ele>75.0</ele><time>2026-05-01T11:13:38.001Z</time></trkpt><trkpt lat="43.39627261907674" lon="-4.148037460411767"><ele>75.0</ele><time>2026-05-01T11:13:39.001Z</time></trkpt><trkpt lat="43.39633393269294" lon="-4.148188635966569"><ele>75.0</ele><time>2026-05-01T11:13:40.001Z</time></trkpt><trkpt lat="43.396292161225276" lon="-4.148318664166142"><ele>74.8</ele><time>2026-05-01T11:13:41.001Z</time></trkpt><trkpt lat="43.39630599079334" lon="-4.1484569728991305"><ele>74.6</ele><time>2026-05-01T11:13:42.001Z</time></trkpt><trkpt lat="43.396327351351296" lon="-4.148600293175972"><ele>74.4</ele><time>2026-05-01T11:13:43.001Z</time></trkpt><trkpt lat="43.39634361779088" lon="-4.148744776637585"><ele>74.2</ele><time>2026-05-01T11:13:44.001Z</time></trkpt><trkpt lat="43.396359094937175" lon="-4.148892704485842"><ele>74.0</ele><time>2026-05-01T11:13:45.001Z</time></trkpt><trkpt lat="43.39637408099142" lon="-4.149038825543579"><ele>74.0</ele><time>2026-05-01T11:13:46.001Z</time></trkpt><trkpt lat="43.39638467945083" lon="-4.149181306588212"><ele>74.0</ele><time>2026-05-01T11:13:47.001Z</time></trkpt><trkpt lat="43.3964019512991" lon="-4.149323467036407"><ele>74.0</ele><time>2026-05-01T11:13:48.001Z</time></trkpt><trkpt lat="43.396420174261934" lon="-4.149463310340841"><ele>74.0</ele><time>2026-05-01T11:13:49.001Z</time></trkpt><trkpt lat="43.396437941732486" lon="-4.149607112000437"><ele>74.0</ele><time>2026-05-01T11:13:50.001Z</time></trkpt><trkpt lat="43.396456015723075" lon="-4.149753056151283"><ele>72.5</ele><time>2026-05-01T11:13:51.001Z</time></trkpt><trkpt lat="43.39647486492122" lon="-4.149906790662332"><ele>71.0</ele><time>2026-05-01T11:13:52.001Z</time></trkpt><trkpt lat="43.396500808941845" lon="-4.15007730787808"><ele>69.5</ele><time>2026-05-01T11:13:53.001Z</time></trkpt><trkpt lat="43.39654348052241" lon="-4.150258142584077"><ele>68.0</ele><time>2026-05-01T11:13:54.001Z</time></trkpt><trkpt lat="43.3965207015477" lon="-4.150357931938351"><ele>68.0</ele><time>2026-05-01T11:13:55.001Z</time></trkpt><trkpt lat="43.39653137594842" lon="-4.150509753308627"><ele>68.0</ele><time>2026-05-01T11:13:56.001Z</time></trkpt><trkpt lat="43.39654553116218" lon="-4.150666148114753"><ele>68.0</ele><time>2026-05-01T11:13:57.001Z</time></trkpt><trkpt lat="43.396556267572805" lon="-4.1508230548538965"><ele>68.0</ele><time>2026-05-01T11:13:58.001Z</time></trkpt><trkpt lat="43.39656339474229" lon="-4.150978273558537"><ele>67.0</ele><time>2026-05-01T11:13:59.001Z</time></trkpt><trkpt lat="43.39656920842806" lon="-4.15114012797721"><ele>66.0</ele><time>2026-05-01T11:14:00.001Z</time></trkpt><trkpt lat="43.396576532263815" lon="-4.151306403227318"><ele>65.0</ele><time>2026-05-01T11:14:01.001Z</time></trkpt><trkpt lat="43.396581180878485" lon="-4.151477843946728"><ele>64.0</ele><time>2026-05-01T11:14:02.001Z</time></trkpt><trkpt lat="43.39658152458667" lon="-4.151648054134692"><ele>63.25</ele><time>2026-05-01T11:14:03.001Z</time></trkpt><trkpt lat="43.39657621101914" lon="-4.151813544765166"><ele>62.5</ele><time>2026-05-01T11:14:04.001Z</time></trkpt><trkpt lat="43.3965687324016" lon="-4.1519854486655"><ele>61.75</ele><time>2026-05-01T11:14:05.001Z</time></trkpt><trkpt lat="43.39655857179035" lon="-4.152160798438114"><ele>61.0</ele><time>2026-05-01T11:14:06.001Z</time></trkpt><trkpt lat="43.39654593973162" lon="-4.152335986783038"><ele>59.0</ele><time>2026-05-01T11:14:07.001Z</time></trkpt><trkpt lat="43.39653083243758" lon="-4.1525141329305795"><ele>57.0</ele><time>2026-05-01T11:14:08.001Z</time></trkpt><trkpt lat="43.396510409375594" lon="-4.152690930217121"><ele>55.0</ele><time>2026-05-01T11:14:09.001Z</time></trkpt><trkpt lat="43.39648679064063" lon="-4.152864849184942"><ele>53.0</ele><time>2026-05-01T11:14:10.001Z</time></trkpt><trkpt lat="43.39646246465498" lon="-4.153037380773997"><ele>51.5</ele><time>2026-05-01T11:14:11.001Z</time></trkpt><trkpt lat="43.396443023770146" lon="-4.153212041203204"><ele>50.0</ele><time>2026-05-01T11:14:12.001Z</time></trkpt><trkpt lat="43.39642326739584" lon="-4.153385606596074"><ele>48.5</ele><time>2026-05-01T11:14:13.001Z</time></trkpt><trkpt lat="43.396396869993204" lon="-4.153553845024024"><ele>47.0</ele><time>2026-05-01T11:14:14.001Z</time></trkpt><trkpt lat="43.39637432265592" lon="-4.153726693380247"><ele>47.0</ele><time>2026-05-01T11:14:15.001Z</time></trkpt><trkpt lat="43.39634837374397" lon="-4.15389422679386"><ele>47.0</ele><time>2026-05-01T11:14:16.001Z</time></trkpt><trkpt lat="43.39632578886178" lon="-4.154059065848622"><ele>47.0</ele><time>2026-05-01T11:14:17.001Z</time></trkpt><trkpt lat="43.39630502757203" lon="-4.15422573345942"><ele>47.0</ele><time>2026-05-01T11:14:18.001Z</time></trkpt><trkpt lat="43.39627891455416" lon="-4.154388097875603"><ele>46.25</ele><time>2026-05-01T11:14:19.002Z</time></trkpt><trkpt lat="43.396263691078886" lon="-4.154541795080018"><ele>45.5</ele><time>2026-05-01T11:14:20.002Z</time></trkpt><trkpt lat="43.396236877749736" lon="-4.15471191282186"><ele>44.75</ele><time>2026-05-01T11:14:21.002Z</time></trkpt><trkpt lat="43.39621334916741" lon="-4.15487381420657"><ele>44.0</ele><time>2026-05-01T11:14:22.002Z</time></trkpt><trkpt lat="43.396195151811696" lon="-4.155032499627134"><ele>44.0</ele><time>2026-05-01T11:14:23.002Z</time></trkpt><trkpt lat="43.39617322050102" lon="-4.155191094616199"><ele>44.0</ele><time>2026-05-01T11:14:24Z</time></trkpt><trkpt lat="43.39615283805215" lon="-4.155348434136834"><ele>44.0</ele><time>2026-05-01T11:14:25Z</time></trkpt><trkpt lat="43.39612699010227" lon="-4.1554998593292884"><ele>44.0</ele><time>2026-05-01T11:14:26Z</time></trkpt><trkpt lat="43.396108622635886" lon="-4.15565620728"><ele>45.0</ele><time>2026-05-01T11:14:27Z</time></trkpt><trkpt lat="43.39608892119611" lon="-4.1558150763852835"><ele>46.0</ele><time>2026-05-01T11:14:28Z</time></trkpt><trkpt lat="43.39606769345178" lon="-4.155970140577414"><ele>47.0</ele><time>2026-05-01T11:14:29Z</time></trkpt><trkpt lat="43.39604297559426" lon="-4.1561220402236"><ele>48.0</ele><time>2026-05-01T11:14:30Z</time></trkpt><trkpt lat="43.396021926930835" lon="-4.1562740303920895"><ele>48.0</ele><time>2026-05-01T11:14:31Z</time></trkpt><trkpt lat="43.396002588899584" lon="-4.156426702074868"><ele>48.0</ele><time>2026-05-01T11:14:32Z</time></trkpt><trkpt lat="43.395983710392244" lon="-4.1565760849372975"><ele>48.0</ele><time>2026-05-01T11:14:33Z</time></trkpt><trkpt lat="43.39596648546637" lon="-4.156726167326573"><ele>48.0</ele><time>2026-05-01T11:14:34Z</time></trkpt><trkpt lat="43.3959476861183" lon="-4.156872520769009"><ele>48.0</ele><time>2026-05-01T11:14:35Z</time></trkpt><trkpt lat="43.3959254632636" lon="-4.157013891921676"><ele>48.599999999999994</ele><time>2026-05-01T11:14:36Z</time></trkpt><trkpt lat="43.39590652685121" lon="-4.157158881985199"><ele>49.199999999999996</ele><time>2026-05-01T11:14:37Z</time></trkpt><trkpt lat="43.39588069600996" lon="-4.157306717628634"><ele>49.8</ele><time>2026-05-01T11:14:38Z</time></trkpt><trkpt lat="43.3958744137754" lon="-4.157447391728586"><ele>50.4</ele><time>2026-05-01T11:14:39Z</time></trkpt><trkpt lat="43.39585953820052" lon="-4.157589448119801"><ele>51.0</ele><time>2026-05-01T11:14:40Z</time></trkpt><trkpt lat="43.39584588965639" lon="-4.157737216931182"><ele>51.0</ele><time>2026-05-01T11:14:41Z</time></trkpt><trkpt lat="43.395831360039544" lon="-4.157882747495991"><ele>51.0</ele><time>2026-05-01T11:14:42Z</time></trkpt><trkpt lat="43.39582178259177" lon="-4.158033441570092"><ele>51.0</ele><time>2026-05-01T11:14:43Z</time></trkpt><trkpt lat="43.39581648316819" lon="-4.158183486898301"><ele>51.0</ele><time>2026-05-01T11:14:44Z</time></trkpt><trkpt lat="43.395813662761675" lon="-4.158347999007516"><ele>51.0</ele><time>2026-05-01T11:14:45Z</time></trkpt><trkpt lat="43.395809684486736" lon="-4.158503738516869"><ele>51.0</ele><time>2026-05-01T11:14:46Z</time></trkpt><trkpt lat="43.39581633429969" lon="-4.158669579067449"><ele>51.0</ele><time>2026-05-01T11:14:47Z</time></trkpt><trkpt lat="43.39582092518852" lon="-4.158832225250938"><ele>51.0</ele><time>2026-05-01T11:14:48Z</time></trkpt><trkpt lat="43.395831440776114" lon="-4.158998381047598"><ele>51.0</ele><time>2026-05-01T11:14:49Z</time></trkpt><trkpt lat="43.39584108116832" lon="-4.1591614519922615"><ele>50.25</ele><time>2026-05-01T11:14:50Z</time></trkpt><trkpt lat="43.39586311821206" lon="-4.159324628936175"><ele>49.5</ele><time>2026-05-01T11:14:51Z</time></trkpt><trkpt lat="43.3958842994346" lon="-4.1594903730720025"><ele>48.75</ele><time>2026-05-01T11:14:52Z</time></trkpt><trkpt lat="43.39590453399037" lon="-4.159650653699939"><ele>48.0</ele><time>2026-05-01T11:14:53Z</time></trkpt><trkpt lat="43.39593176588825" lon="-4.159817577493852"><ele>47.5</ele><time>2026-05-01T11:14:54Z</time></trkpt><trkpt lat="43.39595944447643" lon="-4.159972200681411"><ele>47.0</ele><time>2026-05-01T11:14:55Z</time></trkpt><trkpt lat="43.395990250513755" lon="-4.160123086211884"><ele>46.5</ele><time>2026-05-01T11:14:56Z</time></trkpt><trkpt lat="43.39602663410493" lon="-4.160271488503495"><ele>46.0</ele><time>2026-05-01T11:14:57Z</time></trkpt><trkpt lat="43.396061797208375" lon="-4.160418444933721"><ele>46.0</ele><time>2026-05-01T11:14:58Z</time></trkpt><trkpt lat="43.396103362005995" lon="-4.1605694242123805"><ele>46.0</ele><time>2026-05-01T11:14:59Z</time></trkpt><trkpt lat="43.3961463257912" lon="-4.160714044656188"><ele>46.0</ele><time>2026-05-01T11:15:00Z</time></trkpt><trkpt lat="43.39619846756769" lon="-4.160853087438867"><ele>46.0</ele><time>2026-05-01T11:15:01Z</time></trkpt><trkpt lat="43.396258635262086" lon="-4.160984322346955"><ele>46.199999999999996</ele><time>2026-05-01T11:15:02Z</time></trkpt><trkpt lat="43.3963064763934" lon="-4.161120405853804"><ele>46.4</ele><time>2026-05-01T11:15:03Z</time></trkpt><trkpt lat="43.39635482377084" lon="-4.161254020410578"><ele>46.6</ele><time>2026-05-01T11:15:04.001Z</time></trkpt><trkpt lat="43.396406012891276" lon="-4.161386734520646"><ele>46.8</ele><time>2026-05-01T11:15:05.001Z</time></trkpt><trkpt lat="43.39645250232531" lon="-4.161517869859104"><ele>47.0</ele><time>2026-05-01T11:15:06.001Z</time></trkpt><trkpt lat="43.39650511897607" lon="-4.161649136402987"><ele>46.6</ele><time>2026-05-01T11:15:07.001Z</time></trkpt><trkpt lat="43.39655055397625" lon="-4.16176634425922"><ele>46.2</ele><time>2026-05-01T11:15:08.001Z</time></trkpt><trkpt lat="43.39660049875989" lon="-4.161889599529909"><ele>45.8</ele><time>2026-05-01T11:15:09.001Z</time></trkpt><trkpt lat="43.39664815025696" lon="-4.1620089335138415"><ele>45.4</ele><time>2026-05-01T11:15:10.001Z</time></trkpt><trkpt lat="43.396695112463654" lon="-4.162124872368242"><ele>45.0</ele><time>2026-05-01T11:15:11.001Z</time></trkpt><trkpt lat="43.39674044479911" lon="-4.162235949989092"><ele>45.0</ele><time>2026-05-01T11:15:12.001Z</time></trkpt><trkpt lat="43.39678415844265" lon="-4.1623491157606765"><ele>45.0</ele><time>2026-05-01T11:15:13.001Z</time></trkpt><trkpt lat="43.396827889570616" lon="-4.1624595745560296"><ele>45.0</ele><time>2026-05-01T11:15:14.001Z</time></trkpt><trkpt lat="43.3968707300555" lon="-4.162572038543628"><ele>45.0</ele><time>2026-05-01T11:15:15.001Z</time></trkpt><trkpt lat="43.39691098637457" lon="-4.162679745778856"><ele>45.0</ele><time>2026-05-01T11:15:16.001Z</time></trkpt><trkpt lat="43.39695427332992" lon="-4.1627856751572585"><ele>45.666666666666664</ele><time>2026-05-01T11:15:17.001Z</time></trkpt><trkpt lat="43.39699658477479" lon="-4.162890619086243"><ele>46.33333333333333</ele><time>2026-05-01T11:15:18.001Z</time></trkpt><trkpt lat="43.39703565451884" lon="-4.162999009621838"><ele>47.0</ele><time>2026-05-01T11:15:19.001Z</time></trkpt><trkpt lat="43.397072735219126" lon="-4.163107538336951"><ele>47.666666666666664</ele><time>2026-05-01T11:15:20.001Z</time></trkpt><trkpt lat="43.39711155595928" lon="-4.163216215401891"><ele>48.33333333333333</ele><time>2026-05-01T11:15:21.001Z</time></trkpt><trkpt lat="43.397152618299" lon="-4.1633184814113475"><ele>49.0</ele><time>2026-05-01T11:15:22.001Z</time></trkpt><trkpt lat="43.39719647760985" lon="-4.1634195220002805"><ele>50.83333333333333</ele><time>2026-05-01T11:15:23.001Z</time></trkpt><trkpt lat="43.39723850696996" lon="-4.1635179352403995"><ele>52.666666666666664</ele><time>2026-05-01T11:15:24.001Z</time></trkpt><trkpt lat="43.397279833815645" lon="-4.163619596582438"><ele>54.5</ele><time>2026-05-01T11:15:25.001Z</time></trkpt><trkpt lat="43.397320127809834" lon="-4.163720043319859"><ele>56.33333333333333</ele><time>2026-05-01T11:15:26.001Z</time></trkpt><trkpt lat="43.39736418738114" lon="-4.163823171126865"><ele>58.166666666666664</ele><time>2026-05-01T11:15:27.001Z</time></trkpt><trkpt lat="43.397405015192426" lon="-4.163924982015931"><ele>60.0</ele><time>2026-05-01T11:15:28.001Z</time></trkpt><trkpt lat="43.39744699023931" lon="-4.164018963989565"><ele>61.666666666666664</ele><time>2026-05-01T11:15:29.001Z</time></trkpt><trkpt lat="43.39749156777703" lon="-4.164122988826909"><ele>63.33333333333333</ele><time>2026-05-01T11:15:30.001Z</time></trkpt><trkpt lat="43.39752867421182" lon="-4.164222140625205"><ele>65.0</ele><time>2026-05-01T11:15:31.001Z</time></trkpt><trkpt lat="43.397565700734695" lon="-4.164328322006324"><ele>66.66666666666666</ele><time>2026-05-01T11:15:32.001Z</time></trkpt><trkpt lat="43.39760579044594" lon="-4.1644293562074415"><ele>68.33333333333333</ele><time>2026-05-01T11:15:33.001Z</time></trkpt><trkpt lat="43.3976456572991" lon="-4.164524907137914"><ele>70.0</ele><time>2026-05-01T11:15:34.001Z</time></trkpt><trkpt lat="43.39768678619232" lon="-4.164622952766472"><ele>70.0</ele><time>2026-05-01T11:15:35.001Z</time></trkpt><trkpt lat="43.39772433060561" lon="-4.164723180387218"><ele>70.0</ele><time>2026-05-01T11:15:36.001Z</time></trkpt><trkpt lat="43.397762606519855" lon="-4.164828229613264"><ele>70.0</ele><time>2026-05-01T11:15:37.001Z</time></trkpt><trkpt lat="43.39779976360338" lon="-4.164930240925043"><ele>70.0</ele><time>2026-05-01T11:15:38.001Z</time></trkpt><trkpt lat="43.39783855517944" lon="-4.165031431647071"><ele>70.0</ele><time>2026-05-01T11:15:39.001Z</time></trkpt><trkpt lat="43.397870394936795" lon="-4.165137543389363"><ele>70.0</ele><time>2026-05-01T11:15:40.001Z</time></trkpt><trkpt lat="43.397908681237325" lon="-4.165249150111336"><ele>71.2</ele><time>2026-05-01T11:15:41.001Z</time></trkpt><trkpt lat="43.397939189216416" lon="-4.165362016955866"><ele>72.4</ele><time>2026-05-01T11:15:42.001Z</time></trkpt><trkpt lat="43.39797007559228" lon="-4.1654825412770755"><ele>73.6</ele><time>2026-05-01T11:15:43.001Z</time></trkpt><trkpt lat="43.3979965286414" lon="-4.165607741458769"><ele>74.8</ele><time>2026-05-01T11:15:44.001Z</time></trkpt><trkpt lat="43.398025515692076" lon="-4.165729722062243"><ele>76.0</ele><time>2026-05-01T11:15:45.001Z</time></trkpt><trkpt lat="43.398047902583215" lon="-4.165868207145817"><ele>75.8</ele><time>2026-05-01T11:15:46.001Z</time></trkpt><trkpt lat="43.39807360654463" lon="-4.166008111089812"><ele>75.6</ele><time>2026-05-01T11:15:47.001Z</time></trkpt><trkpt lat="43.39809873285549" lon="-4.166144960165604"><ele>75.4</ele><time>2026-05-01T11:15:48.001Z</time></trkpt><trkpt lat="43.398123356251084" lon="-4.1662814615538215"><ele>75.2</ele><time>2026-05-01T11:15:49.001Z</time></trkpt><trkpt lat="43.39814196251778" lon="-4.166426097711511"><ele>75.0</ele><time>2026-05-01T11:15:50.001Z</time></trkpt><trkpt lat="43.398154418029904" lon="-4.166588566220581"><ele>75.0</ele><time>2026-05-01T11:15:51.001Z</time></trkpt><trkpt lat="43.39816901766816" lon="-4.16671766306159"><ele>75.0</ele><time>2026-05-01T11:15:52.001Z</time></trkpt><trkpt lat="43.3981774027949" lon="-4.166869716134822"><ele>75.0</ele><time>2026-05-01T11:15:53.001Z</time></trkpt><trkpt lat="43.398186629808585" lon="-4.167026050297819"><ele>75.0</ele><time>2026-05-01T11:15:54.001Z</time></trkpt><trkpt lat="43.39818889399417" lon="-4.167184498954573"><ele>75.0</ele><time>2026-05-01T11:15:55.001Z</time></trkpt><trkpt lat="43.3981885721296" lon="-4.1673452047433805"><ele>73.75</ele><time>2026-05-01T11:15:56.001Z</time></trkpt><trkpt lat="43.39818543176707" lon="-4.167509398956621"><ele>72.5</ele><time>2026-05-01T11:15:57.001Z</time></trkpt><trkpt lat="43.39817762791367" lon="-4.16767170177112"><ele>71.25</ele><time>2026-05-01T11:15:58.001Z</time></trkpt><trkpt lat="43.39816671275601" lon="-4.167835083769455"><ele>70.0</ele><time>2026-05-01T11:15:59.001Z</time></trkpt><trkpt lat="43.39815368774957" lon="-4.167998672941256"><ele>70.0</ele><time>2026-05-01T11:16:00.001Z</time></trkpt><trkpt lat="43.39813787967053" lon="-4.168159945965756"><ele>70.0</ele><time>2026-05-01T11:16:01.001Z</time></trkpt><trkpt lat="43.398120116132255" lon="-4.168322501745252"><ele>70.0</ele><time>2026-05-01T11:16:02.001Z</time></trkpt><trkpt lat="43.39810246302508" lon="-4.168487817671573"><ele>70.0</ele><time>2026-05-01T11:16:03.001Z</time></trkpt><trkpt lat="43.39808275338182" lon="-4.16865317219721"><ele>69.0</ele><time>2026-05-01T11:16:04.001Z</time></trkpt><trkpt lat="43.39806120381433" lon="-4.168820619480319"><ele>68.0</ele><time>2026-05-01T11:16:05.001Z</time></trkpt><trkpt lat="43.39804364603406" lon="-4.168990998822111"><ele>67.0</ele><time>2026-05-01T11:16:06.001Z</time></trkpt><trkpt lat="43.398027708104564" lon="-4.169157814750849"><ele>66.0</ele><time>2026-05-01T11:16:07.001Z</time></trkpt><trkpt lat="43.39800708900324" lon="-4.16932949924894"><ele>65.75</ele><time>2026-05-01T11:16:08.001Z</time></trkpt><trkpt lat="43.39799148575031" lon="-4.169493525687568"><ele>65.5</ele><time>2026-05-01T11:16:09.001Z</time></trkpt><trkpt lat="43.39797398303678" lon="-4.169661869276094"><ele>65.25</ele><time>2026-05-01T11:16:10.001Z</time></trkpt><trkpt lat="43.397958053226674" lon="-4.169824029308988"><ele>65.0</ele><time>2026-05-01T11:16:11.001Z</time></trkpt><trkpt lat="43.39794450884827" lon="-4.169984404129905"><ele>65.0</ele><time>2026-05-01T11:16:12.001Z</time></trkpt><trkpt lat="43.397928270137214" lon="-4.170147743552614"><ele>65.0</ele><time>2026-05-01T11:16:13.001Z</time></trkpt><trkpt lat="43.39790945809239" lon="-4.170311566316736"><ele>65.0</ele><time>2026-05-01T11:16:14.001Z</time></trkpt><trkpt lat="43.39788987223294" lon="-4.170472270055994"><ele>65.0</ele><time>2026-05-01T11:16:15.001Z</time></trkpt><trkpt lat="43.39787378259352" lon="-4.170630596871991"><ele>64.25</ele><time>2026-05-01T11:16:16.001Z</time></trkpt><trkpt lat="43.39785712784169" lon="-4.170791996150124"><ele>63.5</ele><time>2026-05-01T11:16:17.001Z</time></trkpt><trkpt lat="43.397844306765336" lon="-4.170950616767256"><ele>62.75</ele><time>2026-05-01T11:16:18.001Z</time></trkpt><trkpt lat="43.39782488344771" lon="-4.17111255279632"><ele>62.0</ele><time>2026-05-01T11:16:19.001Z</time></trkpt><trkpt lat="43.39780935161434" lon="-4.1712692075233555"><ele>62.0</ele><time>2026-05-01T11:16:20.001Z</time></trkpt><trkpt lat="43.397790940328946" lon="-4.171424573511484"><ele>62.0</ele><time>2026-05-01T11:16:21.002Z</time></trkpt><trkpt lat="43.39777524189228" lon="-4.171583282258032"><ele>62.0</ele><time>2026-05-01T11:16:22.002Z</time></trkpt><trkpt lat="43.39776174075959" lon="-4.171734919295673"><ele>62.0</ele><time>2026-05-01T11:16:23.002Z</time></trkpt><trkpt lat="43.397747395022" lon="-4.171889062210706"><ele>62.0</ele><time>2026-05-01T11:16:24.002Z</time></trkpt><trkpt lat="43.39773265753948" lon="-4.172042393353056"><ele>62.0</ele><time>2026-05-01T11:16:25.002Z</time></trkpt><trkpt lat="43.397714606850606" lon="-4.172196859874901"><ele>62.0</ele><time>2026-05-01T11:16:26.002Z</time></trkpt><trkpt lat="43.397701078471215" lon="-4.172349044195595"><ele>62.0</ele><time>2026-05-01T11:16:27.002Z</time></trkpt><trkpt lat="43.397684120619274" lon="-4.1724995385289425"><ele>62.0</ele><time>2026-05-01T11:16:28.002Z</time></trkpt><trkpt lat="43.39766867683173" lon="-4.172651671535622"><ele>62.0</ele><time>2026-05-01T11:16:29.002Z</time></trkpt><trkpt lat="43.39765122129782" lon="-4.172802817068956"><ele>62.0</ele><time>2026-05-01T11:16:30Z</time></trkpt><trkpt lat="43.39763120461779" lon="-4.172949268983278"><ele>62.0</ele><time>2026-05-01T11:16:31Z</time></trkpt><trkpt lat="43.39761075329008" lon="-4.173099783086919"><ele>62.0</ele><time>2026-05-01T11:16:32Z</time></trkpt><trkpt lat="43.397585354976" lon="-4.173244598044434"><ele>62.0</ele><time>2026-05-01T11:16:33Z</time></trkpt><trkpt lat="43.39755948061957" lon="-4.173386584926776"><ele>62.6</ele><time>2026-05-01T11:16:34Z</time></trkpt><trkpt lat="43.39752949691396" lon="-4.173529193776244"><ele>63.2</ele><time>2026-05-01T11:16:35Z</time></trkpt><trkpt lat="43.397493962427156" lon="-4.173669055616419"><ele>63.8</ele><time>2026-05-01T11:16:36Z</time></trkpt><trkpt lat="43.397459710235495" lon="-4.17381042105698"><ele>64.4</ele><time>2026-05-01T11:16:37Z</time></trkpt><trkpt lat="43.39742120265155" lon="-4.173941830196257"><ele>65.0</ele><time>2026-05-01T11:16:38Z</time></trkpt><trkpt lat="43.39738679088724" lon="-4.174067304870128"><ele>64.6</ele><time>2026-05-01T11:16:39Z</time></trkpt><trkpt lat="43.397334658626804" lon="-4.174204377113999"><ele>64.2</ele><time>2026-05-01T11:16:40Z</time></trkpt><trkpt lat="43.397294443868695" lon="-4.174331796512166"><ele>63.8</ele><time>2026-05-01T11:16:41Z</time></trkpt><trkpt lat="43.39724661159775" lon="-4.174469988513347"><ele>63.4</ele><time>2026-05-01T11:16:42Z</time></trkpt><trkpt lat="43.397193813525" lon="-4.174600114958078"><ele>63.0</ele><time>2026-05-01T11:16:43Z</time></trkpt><trkpt lat="43.397144293028546" lon="-4.1747293284254745"><ele>63.25</ele><time>2026-05-01T11:16:44Z</time></trkpt><trkpt lat="43.397092098819286" lon="-4.174864049655902"><ele>63.5</ele><time>2026-05-01T11:16:45Z</time></trkpt><trkpt lat="43.39703613924054" lon="-4.175002506167036"><ele>63.75</ele><time>2026-05-01T11:16:46Z</time></trkpt><trkpt lat="43.396982228168476" lon="-4.175141976254772"><ele>64.0</ele><time>2026-05-01T11:16:47Z</time></trkpt><trkpt lat="43.39692771743164" lon="-4.175284172399406"><ele>64.0</ele><time>2026-05-01T11:16:48Z</time></trkpt><trkpt lat="43.396876586429414" lon="-4.175425151659551"><ele>64.0</ele><time>2026-05-01T11:16:49Z</time></trkpt><trkpt lat="43.3968267749653" lon="-4.175570724601638"><ele>64.0</ele><time>2026-05-01T11:16:50Z</time></trkpt><trkpt lat="43.3967791813793" lon="-4.1757197477557195"><ele>64.0</ele><time>2026-05-01T11:16:51Z</time></trkpt><trkpt lat="43.39673767420388" lon="-4.175865328645122"><ele>64.75</ele><time>2026-05-01T11:16:52Z</time></trkpt><trkpt lat="43.396702633722995" lon="-4.176016657188721"><ele>65.5</ele><time>2026-05-01T11:16:53Z</time></trkpt><trkpt lat="43.39666398497383" lon="-4.176170425414802"><ele>66.25</ele><time>2026-05-01T11:16:54Z</time></trkpt><trkpt lat="43.396631357976766" lon="-4.17632741844025"><ele>67.0</ele><time>2026-05-01T11:16:55Z</time></trkpt><trkpt lat="43.396607566432245" lon="-4.176492510193313"><ele>68.75</ele><time>2026-05-01T11:16:56Z</time></trkpt><trkpt lat="43.39659349148473" lon="-4.17665490769796"><ele>70.5</ele><time>2026-05-01T11:16:57Z</time></trkpt><trkpt lat="43.396585618580325" lon="-4.176814999643"><ele>72.25</ele><time>2026-05-01T11:16:58Z</time></trkpt><trkpt lat="43.39658606925367" lon="-4.17697196975792"><ele>74.0</ele><time>2026-05-01T11:16:59Z</time></trkpt><trkpt lat="43.39658549873067" lon="-4.1771279837843664"><ele>74.0</ele><time>2026-05-01T11:17:00Z</time></trkpt><trkpt lat="43.39659177004407" lon="-4.177280736221003"><ele>74.0</ele><time>2026-05-01T11:17:01Z</time></trkpt><trkpt lat="43.39659877106737" lon="-4.177436120605673"><ele>74.0</ele><time>2026-05-01T11:17:02Z</time></trkpt><trkpt lat="43.39661451371277" lon="-4.177577850192593"><ele>74.0</ele><time>2026-05-01T11:17:03Z</time></trkpt><trkpt lat="43.39663732615884" lon="-4.177723642196156"><ele>74.0</ele><time>2026-05-01T11:17:04Z</time></trkpt><trkpt lat="43.39665804204306" lon="-4.177869094537942"><ele>74.60000000000001</ele><time>2026-05-01T11:17:05Z</time></trkpt><trkpt lat="43.39668559854047" lon="-4.178010620183653"><ele>75.2</ele><time>2026-05-01T11:17:06Z</time></trkpt><trkpt lat="43.39671671275833" lon="-4.17815133919836"><ele>75.80000000000001</ele><time>2026-05-01T11:17:07Z</time></trkpt><trkpt lat="43.3967462013437" lon="-4.17829957046503"><ele>76.4</ele><time>2026-05-01T11:17:08Z</time></trkpt><trkpt lat="43.39678740063409" lon="-4.178420142222073"><ele>77.0</ele><time>2026-05-01T11:17:09Z</time></trkpt><trkpt lat="43.396882741703614" lon="-4.178698320260341"><ele>77.0</ele><time>2026-05-01T11:17:11Z</time></trkpt><trkpt lat="43.39693684490159" lon="-4.178831910775566"><ele>77.0</ele><time>2026-05-01T11:17:12Z</time></trkpt><trkpt lat="43.39699067892655" lon="-4.178958879683473"><ele>77.0</ele><time>2026-05-01T11:17:13Z</time></trkpt><trkpt lat="43.39705174073871" lon="-4.179088552338703"><ele>77.0</ele><time>2026-05-01T11:17:14Z</time></trkpt><trkpt lat="43.39711362363255" lon="-4.179214418262109"><ele>77.0</ele><time>2026-05-01T11:17:15Z</time></trkpt><trkpt lat="43.39717663797885" lon="-4.179345397715459"><ele>76.25</ele><time>2026-05-01T11:17:16Z</time></trkpt><trkpt lat="43.39724299300528" lon="-4.179474921677328"><ele>75.5</ele><time>2026-05-01T11:17:17Z</time></trkpt><trkpt lat="43.39730813909443" lon="-4.179607393443359"><ele>74.75</ele><time>2026-05-01T11:17:18Z</time></trkpt><trkpt lat="43.39737118595846" lon="-4.179738072097632"><ele>74.0</ele><time>2026-05-01T11:17:19Z</time></trkpt><trkpt lat="43.397435405884664" lon="-4.1798731331951995"><ele>74.0</ele><time>2026-05-01T11:17:20Z</time></trkpt><trkpt lat="43.39749958613485" lon="-4.180007828654978"><ele>74.0</ele><time>2026-05-01T11:17:21Z</time></trkpt><trkpt lat="43.39756283661714" lon="-4.18014382728296"><ele>74.0</ele><time>2026-05-01T11:17:22Z</time></trkpt><trkpt lat="43.39761803005781" lon="-4.1802884849718245"><ele>74.0</ele><time>2026-05-01T11:17:23.001Z</time></trkpt><trkpt lat="43.39766763904388" lon="-4.180436581437166"><ele>74.0</ele><time>2026-05-01T11:17:24.001Z</time></trkpt><trkpt lat="43.3977128827997" lon="-4.180586838000833"><ele>74.0</ele><time>2026-05-01T11:17:25.001Z</time></trkpt><trkpt lat="43.39774968630731" lon="-4.1807427318395565"><ele>74.0</ele><time>2026-05-01T11:17:26.001Z</time></trkpt><trkpt lat="43.39777958718073" lon="-4.180899628070878"><ele>74.0</ele><time>2026-05-01T11:17:27.001Z</time></trkpt><trkpt lat="43.39780697648929" lon="-4.181056285263735"><ele>72.25</ele><time>2026-05-01T11:17:28.001Z</time></trkpt><trkpt lat="43.39783000512641" lon="-4.181222467644356"><ele>70.5</ele><time>2026-05-01T11:17:29.001Z</time></trkpt><trkpt lat="43.39783800988751" lon="-4.181384133434806"><ele>68.75</ele><time>2026-05-01T11:17:30.001Z</time></trkpt><trkpt lat="43.39784408812716" lon="-4.181543962856388"><ele>67.0</ele><time>2026-05-01T11:17:31.001Z</time></trkpt><trkpt lat="43.39784436571922" lon="-4.1817064484659525"><ele>65.5</ele><time>2026-05-01T11:17:32.001Z</time></trkpt><trkpt lat="43.39783703609869" lon="-4.181866957127179"><ele>64.0</ele><time>2026-05-01T11:17:33.001Z</time></trkpt><trkpt lat="43.397824681031146" lon="-4.1820326648716035"><ele>62.5</ele><time>2026-05-01T11:17:34.001Z</time></trkpt><trkpt lat="43.39780720382959" lon="-4.1821923925171705"><ele>61.0</ele><time>2026-05-01T11:17:35.001Z</time></trkpt><trkpt lat="43.39777984766095" lon="-4.182349205623933"><ele>60.25</ele><time>2026-05-01T11:17:36.001Z</time></trkpt><trkpt lat="43.397751175389644" lon="-4.182507961553906"><ele>59.5</ele><time>2026-05-01T11:17:37.001Z</time></trkpt><trkpt lat="43.397715674585825" lon="-4.182667798219599"><ele>58.75</ele><time>2026-05-01T11:17:38.001Z</time></trkpt><trkpt lat="43.39767093749536" lon="-4.182824332535632"><ele>58.0</ele><time>2026-05-01T11:17:39.001Z</time></trkpt><trkpt lat="43.39762808872388" lon="-4.182978322800263"><ele>58.0</ele><time>2026-05-01T11:17:40.001Z</time></trkpt><trkpt lat="43.39757194792513" lon="-4.183123465259966"><ele>58.0</ele><time>2026-05-01T11:17:41.001Z</time></trkpt><trkpt lat="43.39751253958732" lon="-4.18326871567764"><ele>58.0</ele><time>2026-05-01T11:17:42.001Z</time></trkpt><trkpt lat="43.39744307408641" lon="-4.183406040174868"><ele>58.0</ele><time>2026-05-01T11:17:43.001Z</time></trkpt><trkpt lat="43.39737307286425" lon="-4.183552312217586"><ele>58.5</ele><time>2026-05-01T11:17:44.001Z</time></trkpt><trkpt lat="43.39732165400778" lon="-4.1836922814953"><ele>59.0</ele><time>2026-05-01T11:17:45.001Z</time></trkpt><trkpt lat="43.39725595049015" lon="-4.183840248803929"><ele>59.5</ele><time>2026-05-01T11:17:46.001Z</time></trkpt><trkpt lat="43.397182000637514" lon="-4.183989381776315"><ele>60.0</ele><time>2026-05-01T11:17:47.001Z</time></trkpt><trkpt lat="43.39712532872212" lon="-4.184129521841676"><ele>57.75</ele><time>2026-05-01T11:17:48.001Z</time></trkpt><trkpt lat="43.39705927950828" lon="-4.184273370162274"><ele>55.5</ele><time>2026-05-01T11:17:49.001Z</time></trkpt><trkpt lat="43.396984779621384" lon="-4.184414849655648"><ele>53.25</ele><time>2026-05-01T11:17:50.001Z</time></trkpt><trkpt lat="43.39693264851247" lon="-4.1845583486010085"><ele>51.0</ele><time>2026-05-01T11:17:51.001Z</time></trkpt><trkpt lat="43.39686462294531" lon="-4.184700207226588"><ele>51.25</ele><time>2026-05-01T11:17:52.001Z</time></trkpt><trkpt lat="43.39680797773772" lon="-4.184848104727411"><ele>51.5</ele><time>2026-05-01T11:17:53.001Z</time></trkpt><trkpt lat="43.39676228353255" lon="-4.184997902923106"><ele>51.75</ele><time>2026-05-01T11:17:54.001Z</time></trkpt><trkpt lat="43.39671176890503" lon="-4.185154025456614"><ele>52.0</ele><time>2026-05-01T11:17:55.001Z</time></trkpt><trkpt lat="43.3966719257391" lon="-4.185308225328135"><ele>52.0</ele><time>2026-05-01T11:17:56.001Z</time></trkpt><trkpt lat="43.39663637047613" lon="-4.185470931556661"><ele>52.0</ele><time>2026-05-01T11:17:57.001Z</time></trkpt><trkpt lat="43.396605304987354" lon="-4.185634788361648"><ele>52.0</ele><time>2026-05-01T11:17:58.001Z</time></trkpt><trkpt lat="43.39658154639447" lon="-4.185798274495404"><ele>52.0</ele><time>2026-05-01T11:17:59.001Z</time></trkpt><trkpt lat="43.39656717083658" lon="-4.185964293462546"><ele>51.75</ele><time>2026-05-01T11:18:00.001Z</time></trkpt><trkpt lat="43.39656093282175" lon="-4.186128907215503"><ele>51.5</ele><time>2026-05-01T11:18:01.001Z</time></trkpt><trkpt lat="43.396552408112164" lon="-4.18629395988268"><ele>51.25</ele><time>2026-05-01T11:18:02.001Z</time></trkpt><trkpt lat="43.39654474455761" lon="-4.186461963805193"><ele>51.0</ele><time>2026-05-01T11:18:03.001Z</time></trkpt><trkpt lat="43.396540245178436" lon="-4.186632451243643"><ele>50.75</ele><time>2026-05-01T11:18:04.001Z</time></trkpt><trkpt lat="43.39653834076" lon="-4.186798150773075"><ele>50.5</ele><time>2026-05-01T11:18:05.001Z</time></trkpt><trkpt lat="43.39652820616954" lon="-4.186962700283024"><ele>50.25</ele><time>2026-05-01T11:18:06.001Z</time></trkpt><trkpt lat="43.39651750853002" lon="-4.187122848181226"><ele>50.0</ele><time>2026-05-01T11:18:07.001Z</time></trkpt><trkpt lat="43.39651268398756" lon="-4.18728532889708"><ele>49.5</ele><time>2026-05-01T11:18:08.001Z</time></trkpt><trkpt lat="43.396488405069995" lon="-4.187449285622384"><ele>49.0</ele><time>2026-05-01T11:18:09.001Z</time></trkpt><trkpt lat="43.39645622542308" lon="-4.187613317974705"><ele>48.5</ele><time>2026-05-01T11:18:10.001Z</time></trkpt><trkpt lat="43.39642549268101" lon="-4.187771502250781"><ele>48.0</ele><time>2026-05-01T11:18:11.001Z</time></trkpt><trkpt lat="43.3963926519555" lon="-4.18792797556939"><ele>48.0</ele><time>2026-05-01T11:18:12.001Z</time></trkpt><trkpt lat="43.39635372180099" lon="-4.188087026156621"><ele>48.0</ele><time>2026-05-01T11:18:13.001Z</time></trkpt><trkpt lat="43.396316670390505" lon="-4.188243944527734"><ele>48.0</ele><time>2026-05-01T11:18:14.001Z</time></trkpt><trkpt lat="43.39626977400416" lon="-4.1883956716316"><ele>48.0</ele><time>2026-05-01T11:18:15.001Z</time></trkpt><trkpt lat="43.39622556912867" lon="-4.1885493882672336"><ele>46.5</ele><time>2026-05-01T11:18:16.001Z</time></trkpt><trkpt lat="43.396183114234525" lon="-4.188704256291235"><ele>45.0</ele><time>2026-05-01T11:18:17.001Z</time></trkpt><trkpt lat="43.39614473556963" lon="-4.188856929862645"><ele>43.5</ele><time>2026-05-01T11:18:18.001Z</time></trkpt><trkpt lat="43.39610361510951" lon="-4.189013013700552"><ele>42.0</ele><time>2026-05-01T11:18:19.001Z</time></trkpt><trkpt lat="43.39607298336702" lon="-4.189174048940415"><ele>42.0</ele><time>2026-05-01T11:18:20.001Z</time></trkpt><trkpt lat="43.39603628007345" lon="-4.189333524223206"><ele>42.0</ele><time>2026-05-01T11:18:21.001Z</time></trkpt><trkpt lat="43.39599647768389" lon="-4.1894937983799805"><ele>42.0</ele><time>2026-05-01T11:18:22.001Z</time></trkpt><trkpt lat="43.39596926118095" lon="-4.189650334304793"><ele>42.0</ele><time>2026-05-01T11:18:23.001Z</time></trkpt><trkpt lat="43.39594205500188" lon="-4.189811495007174"><ele>41.0</ele><time>2026-05-01T11:18:24.001Z</time></trkpt><trkpt lat="43.395905478331926" lon="-4.18997938280241"><ele>40.0</ele><time>2026-05-01T11:18:25.001Z</time></trkpt><trkpt lat="43.39587758555549" lon="-4.190137876576941"><ele>39.0</ele><time>2026-05-01T11:18:26.001Z</time></trkpt><trkpt lat="43.39585233920637" lon="-4.190292495749822"><ele>38.0</ele><time>2026-05-01T11:18:27.001Z</time></trkpt><trkpt lat="43.39582583810026" lon="-4.190455214787893"><ele>38.0</ele><time>2026-05-01T11:18:28.001Z</time></trkpt><trkpt lat="43.39580060100555" lon="-4.190614661235938"><ele>38.0</ele><time>2026-05-01T11:18:29.001Z</time></trkpt><trkpt lat="43.3957783803008" lon="-4.190770235353036"><ele>38.0</ele><time>2026-05-01T11:18:30.001Z</time></trkpt><trkpt lat="43.3957569165471" lon="-4.190935090107256"><ele>38.0</ele><time>2026-05-01T11:18:31.001Z</time></trkpt><trkpt lat="43.39572954564396" lon="-4.19110080838512"><ele>37.0</ele><time>2026-05-01T11:18:32.001Z</time></trkpt><trkpt lat="43.3957057594801" lon="-4.191261004605798"><ele>36.0</ele><time>2026-05-01T11:18:33.001Z</time></trkpt><trkpt lat="43.39567824882942" lon="-4.191421891648208"><ele>35.0</ele><time>2026-05-01T11:18:34.001Z</time></trkpt><trkpt lat="43.39565167842645" lon="-4.191581577036563"><ele>34.0</ele><time>2026-05-01T11:18:35.001Z</time></trkpt><trkpt lat="43.39561981344049" lon="-4.191745182636693"><ele>33.75</ele><time>2026-05-01T11:18:36Z</time></trkpt><trkpt lat="43.395574538335595" lon="-4.191903153086281"><ele>33.5</ele><time>2026-05-01T11:18:37Z</time></trkpt><trkpt lat="43.39551988640372" lon="-4.192055983655246"><ele>33.25</ele><time>2026-05-01T11:18:38Z</time></trkpt><trkpt lat="43.39545788967722" lon="-4.1921954329889495"><ele>33.0</ele><time>2026-05-01T11:18:39Z</time></trkpt><trkpt lat="43.39539343960704" lon="-4.1923237206176855"><ele>30.25</ele><time>2026-05-01T11:18:40Z</time></trkpt><trkpt lat="43.39530992838" lon="-4.192452183115466"><ele>27.5</ele><time>2026-05-01T11:18:41Z</time></trkpt><trkpt lat="43.39522754259863" lon="-4.192581894867236"><ele>24.75</ele><time>2026-05-01T11:18:42Z</time></trkpt><trkpt lat="43.39514562315008" lon="-4.192687087134625"><ele>22.0</ele><time>2026-05-01T11:18:43Z</time></trkpt><trkpt lat="43.39504610363689" lon="-4.192789932968142"><ele>22.0</ele><time>2026-05-01T11:18:44Z</time></trkpt><trkpt lat="43.39495174103434" lon="-4.192881619277878"><ele>22.0</ele><time>2026-05-01T11:18:45Z</time></trkpt><trkpt lat="43.39485279336242" lon="-4.192962631420746"><ele>22.0</ele><time>2026-05-01T11:18:46Z</time></trkpt><trkpt lat="43.394745447976554" lon="-4.1930322495597725"><ele>22.0</ele><time>2026-05-01T11:18:47Z</time></trkpt><trkpt lat="43.39463355661762" lon="-4.193090420044378"><ele>22.0</ele><time>2026-05-01T11:18:48Z</time></trkpt><trkpt lat="43.39451697800739" lon="-4.193136635984313"><ele>22.0</ele><time>2026-05-01T11:18:49Z</time></trkpt><trkpt lat="43.39440742937463" lon="-4.193172484559874"><ele>22.0</ele><time>2026-05-01T11:18:50Z</time></trkpt><trkpt lat="43.394285262076146" lon="-4.1931893075993285"><ele>22.0</ele><time>2026-05-01T11:18:51Z</time></trkpt><trkpt lat="43.39416705518727" lon="-4.193205993388697"><ele>22.0</ele><time>2026-05-01T11:18:52Z</time></trkpt><trkpt lat="43.39404478650847" lon="-4.193215131653309"><ele>22.0</ele><time>2026-05-01T11:18:53Z</time></trkpt><trkpt lat="43.39393121210231" lon="-4.193227534673344"><ele>22.0</ele><time>2026-05-01T11:18:54Z</time></trkpt><trkpt lat="43.39381167801928" lon="-4.19323708280369"><ele>22.0</ele><time>2026-05-01T11:18:55Z</time></trkpt><trkpt lat="43.39369534553553" lon="-4.193246035280271"><ele>23.25</ele><time>2026-05-01T11:18:56Z</time></trkpt><trkpt lat="43.393578324619206" lon="-4.1932549668246795"><ele>24.5</ele><time>2026-05-01T11:18:57Z</time></trkpt><trkpt lat="43.39347055933433" lon="-4.19327246048186"><ele>25.75</ele><time>2026-05-01T11:18:58Z</time></trkpt><trkpt lat="43.39335776911224" lon="-4.1932924269724206"><ele>27.0</ele><time>2026-05-01T11:18:59Z</time></trkpt><trkpt lat="43.393242372286736" lon="-4.193315998655769"><ele>27.0</ele><time>2026-05-01T11:19:00Z</time></trkpt><trkpt lat="43.3931375524856" lon="-4.193358947102423"><ele>27.000000000000004</ele><time>2026-05-01T11:19:01Z</time></trkpt><trkpt lat="43.39303302361787" lon="-4.19339927756073"><ele>27.000000000000004</ele><time>2026-05-01T11:19:02Z</time></trkpt><trkpt lat="43.39292876619537" lon="-4.193460518485414"><ele>27.0</ele><time>2026-05-01T11:19:03Z</time></trkpt><trkpt lat="43.39283304363967" lon="-4.193532291270538"><ele>27.0</ele><time>2026-05-01T11:19:04Z</time></trkpt><trkpt lat="43.39274396319386" lon="-4.1936164875669375"><ele>27.200000000000003</ele><time>2026-05-01T11:19:05Z</time></trkpt><trkpt lat="43.39265154727972" lon="-4.1936966672859795"><ele>27.400000000000002</ele><time>2026-05-01T11:19:06Z</time></trkpt><trkpt lat="43.392565021284994" lon="-4.1937850699199295"><ele>27.599999999999998</ele><time>2026-05-01T11:19:07Z</time></trkpt><trkpt lat="43.392482844965556" lon="-4.193879476596063"><ele>27.799999999999997</ele><time>2026-05-01T11:19:08Z</time></trkpt><trkpt lat="43.39240216453747" lon="-4.193977123312549"><ele>28.0</ele><time>2026-05-01T11:19:09Z</time></trkpt><trkpt lat="43.392333503492246" lon="-4.194077945859694"><ele>28.0</ele><time>2026-05-01T11:19:10Z</time></trkpt><trkpt lat="43.39228565688708" lon="-4.194162444151296"><ele>27.999999999999996</ele><time>2026-05-01T11:19:11Z</time></trkpt><trkpt lat="43.39223317928054" lon="-4.194242276654984"><ele>27.999999999999996</ele><time>2026-05-01T11:19:12Z</time></trkpt><trkpt lat="43.39213039819261" lon="-4.194400473797097"><ele>28.0</ele><time>2026-05-01T11:19:13Z</time></trkpt><trkpt lat="43.392071193720334" lon="-4.194518853216934"><ele>28.0</ele><time>2026-05-01T11:19:14Z</time></trkpt><trkpt lat="43.39203225535776" lon="-4.194693081061527"><ele>28.799999999999997</ele><time>2026-05-01T11:19:15Z</time></trkpt><trkpt lat="43.39195929038024" lon="-4.194803616140333"><ele>29.599999999999998</ele><time>2026-05-01T11:19:16Z</time></trkpt><trkpt lat="43.39187270493493" lon="-4.194881752049682"><ele>30.400000000000002</ele><time>2026-05-01T11:19:17Z</time></trkpt><trkpt lat="43.39178282466186" lon="-4.194965064971503"><ele>31.200000000000003</ele><time>2026-05-01T11:19:18Z</time></trkpt><trkpt lat="43.39171176820957" lon="-4.195079786099337"><ele>32.0</ele><time>2026-05-01T11:19:19Z</time></trkpt><trkpt lat="43.39163392908386" lon="-4.195202148907358"><ele>32.0</ele><time>2026-05-01T11:19:20Z</time></trkpt><trkpt lat="43.39156799993751" lon="-4.195309417697553"><ele>32.0</ele><time>2026-05-01T11:19:21Z</time></trkpt><trkpt lat="43.391497253417704" lon="-4.195427095974152"><ele>32.0</ele><time>2026-05-01T11:19:22Z</time></trkpt><trkpt lat="43.39142005448814" lon="-4.195535121829092"><ele>32.0</ele><time>2026-05-01T11:19:23Z</time></trkpt><trkpt lat="43.391343184800526" lon="-4.195644546501118"><ele>32.0</ele><time>2026-05-01T11:19:24Z</time></trkpt><trkpt lat="43.39126576161464" lon="-4.195755278958152"><ele>32.6</ele><time>2026-05-01T11:19:25Z</time></trkpt><trkpt lat="43.39118878321533" lon="-4.195865691217245"><ele>33.2</ele><time>2026-05-01T11:19:26.001Z</time></trkpt><trkpt lat="43.391107537110535" lon="-4.1959682916320995"><ele>33.8</ele><time>2026-05-01T11:19:27.001Z</time></trkpt><trkpt lat="43.391029442223314" lon="-4.196074015477433"><ele>34.4</ele><time>2026-05-01T11:19:28.001Z</time></trkpt><trkpt lat="43.39094963160719" lon="-4.196174938947195"><ele>35.0</ele><time>2026-05-01T11:19:29.001Z</time></trkpt><trkpt lat="43.39086628334842" lon="-4.1962676501895055"><ele>35.0</ele><time>2026-05-01T11:19:30.001Z</time></trkpt><trkpt lat="43.39078093167492" lon="-4.1963564446106805"><ele>35.0</ele><time>2026-05-01T11:19:31.001Z</time></trkpt><trkpt lat="43.39070037591855" lon="-4.1964490182814105"><ele>35.0</ele><time>2026-05-01T11:19:32.001Z</time></trkpt><trkpt lat="43.390621284462206" lon="-4.196539331419469"><ele>35.0</ele><time>2026-05-01T11:19:33.001Z</time></trkpt><trkpt lat="43.390537444679" lon="-4.196648496231507"><ele>35.0</ele><time>2026-05-01T11:19:34.001Z</time></trkpt><trkpt lat="43.39046727848809" lon="-4.196745104230141"><ele>36.0</ele><time>2026-05-01T11:19:35.001Z</time></trkpt><trkpt lat="43.3903888953404" lon="-4.19684173776921"><ele>37.0</ele><time>2026-05-01T11:19:36.001Z</time></trkpt><trkpt lat="43.39032560112526" lon="-4.196952429247418"><ele>38.0</ele><time>2026-05-01T11:19:37.001Z</time></trkpt><trkpt lat="43.390258964486286" lon="-4.197059005306451"><ele>39.0</ele><time>2026-05-01T11:19:38.001Z</time></trkpt><trkpt lat="43.3901942015847" lon="-4.1971714996996115"><ele>40.0</ele><time>2026-05-01T11:19:39.001Z</time></trkpt><trkpt lat="43.390132277080575" lon="-4.1972888020958585"><ele>41.2</ele><time>2026-05-01T11:19:40.001Z</time></trkpt><trkpt lat="43.390083361207815" lon="-4.1974102775086495"><ele>42.4</ele><time>2026-05-01T11:19:41.001Z</time></trkpt><trkpt lat="43.39003542407055" lon="-4.197529562286822"><ele>43.599999999999994</ele><time>2026-05-01T11:19:42.001Z</time></trkpt><trkpt lat="43.389987885252694" lon="-4.197652181651593"><ele>44.8</ele><time>2026-05-01T11:19:43.001Z</time></trkpt><trkpt lat="43.38994981420331" lon="-4.197781110311668"><ele>46.0</ele><time>2026-05-01T11:19:44.001Z</time></trkpt><trkpt lat="43.38991221943775" lon="-4.1979068209017925"><ele>46.0</ele><time>2026-05-01T11:19:45.001Z</time></trkpt><trkpt lat="43.38988086809881" lon="-4.198034460146778"><ele>46.0</ele><time>2026-05-01T11:19:46.001Z</time></trkpt><trkpt lat="43.38984819050443" lon="-4.198155772272975"><ele>46.0</ele><time>2026-05-01T11:19:47.001Z</time></trkpt><trkpt lat="43.38981669060921" lon="-4.198279859194213"><ele>46.0</ele><time>2026-05-01T11:19:48.001Z</time></trkpt><trkpt lat="43.3897877135745" lon="-4.198408809219488"><ele>46.0</ele><time>2026-05-01T11:19:49.001Z</time></trkpt><trkpt lat="43.38975462021725" lon="-4.198539783489495"><ele>45.599999999999994</ele><time>2026-05-01T11:19:50.001Z</time></trkpt><trkpt lat="43.38972304752829" lon="-4.198664263031233"><ele>45.2</ele><time>2026-05-01T11:19:51.001Z</time></trkpt><trkpt lat="43.38969228235602" lon="-4.198794762846437"><ele>44.8</ele><time>2026-05-01T11:19:52.001Z</time></trkpt><trkpt lat="43.389662087608954" lon="-4.198925796685001"><ele>44.400000000000006</ele><time>2026-05-01T11:19:53.001Z</time></trkpt><trkpt lat="43.389627136271294" lon="-4.199054007767299"><ele>44.0</ele><time>2026-05-01T11:19:54.001Z</time></trkpt><trkpt lat="43.389589292630035" lon="-4.199193232503732"><ele>45.75</ele><time>2026-05-01T11:19:55.001Z</time></trkpt><trkpt lat="43.389551123421825" lon="-4.199331711463672"><ele>47.5</ele><time>2026-05-01T11:19:56.001Z</time></trkpt><trkpt lat="43.389510359447044" lon="-4.199478462274869"><ele>49.25</ele><time>2026-05-01T11:19:57.001Z</time></trkpt><trkpt lat="43.38946263005646" lon="-4.199622607192933"><ele>51.0</ele><time>2026-05-01T11:19:58.001Z</time></trkpt><trkpt lat="43.38941203609318" lon="-4.1997638565633855"><ele>51.25</ele><time>2026-05-01T11:19:59.001Z</time></trkpt><trkpt lat="43.389360109318766" lon="-4.1999021149118745"><ele>51.5</ele><time>2026-05-01T11:20:00.001Z</time></trkpt><trkpt lat="43.3893081998117" lon="-4.200038277134027"><ele>51.75</ele><time>2026-05-01T11:20:01.001Z</time></trkpt><trkpt lat="43.38924917574134" lon="-4.200171410689266"><ele>52.0</ele><time>2026-05-01T11:20:02.001Z</time></trkpt><trkpt lat="43.389193554882574" lon="-4.200309417762732"><ele>52.0</ele><time>2026-05-01T11:20:03.001Z</time></trkpt><trkpt lat="43.389136775775" lon="-4.200446931679035"><ele>52.0</ele><time>2026-05-01T11:20:04.001Z</time></trkpt><trkpt lat="43.389073704529935" lon="-4.200584437824515"><ele>52.0</ele><time>2026-05-01T11:20:05.001Z</time></trkpt><trkpt lat="43.38901286713068" lon="-4.2007235567171595"><ele>52.0</ele><time>2026-05-01T11:20:06.001Z</time></trkpt><trkpt lat="43.388949377296846" lon="-4.200858836099185"><ele>50.25</ele><time>2026-05-01T11:20:07.001Z</time></trkpt><trkpt lat="43.38888793007123" lon="-4.2009983112210865"><ele>48.5</ele><time>2026-05-01T11:20:08.001Z</time></trkpt><trkpt lat="43.38882736942061" lon="-4.20113997729559"><ele>46.75</ele><time>2026-05-01T11:20:09.001Z</time></trkpt><trkpt lat="43.388767318115" lon="-4.201281983304566"><ele>45.0</ele><time>2026-05-01T11:20:10.001Z</time></trkpt><trkpt lat="43.388704705322375" lon="-4.201419186656172"><ele>44.75</ele><time>2026-05-01T11:20:11.001Z</time></trkpt><trkpt lat="43.38864349168005" lon="-4.201557609748726"><ele>44.5</ele><time>2026-05-01T11:20:12.001Z</time></trkpt><trkpt lat="43.388582499737765" lon="-4.201697633665573"><ele>44.25</ele><time>2026-05-01T11:20:13.001Z</time></trkpt><trkpt lat="43.38852289242227" lon="-4.201831440780691"><ele>44.0</ele><time>2026-05-01T11:20:14.001Z</time></trkpt><trkpt lat="43.388462520357024" lon="-4.2019726983270145"><ele>44.0</ele><time>2026-05-01T11:20:15.001Z</time></trkpt><trkpt lat="43.388402412097186" lon="-4.202108679849167"><ele>44.0</ele><time>2026-05-01T11:20:16.001Z</time></trkpt><trkpt lat="43.38834098743313" lon="-4.202244205964842"><ele>44.0</ele><time>2026-05-01T11:20:17.001Z</time></trkpt><trkpt lat="43.38828138698986" lon="-4.202380260285982"><ele>44.0</ele><time>2026-05-01T11:20:18.001Z</time></trkpt><trkpt lat="43.38822231531205" lon="-4.202510555188738"><ele>44.2</ele><time>2026-05-01T11:20:19.001Z</time></trkpt><trkpt lat="43.388163349605975" lon="-4.202647566451897"><ele>44.400000000000006</ele><time>2026-05-01T11:20:20.001Z</time></trkpt><trkpt lat="43.38810660495882" lon="-4.202778724683915"><ele>44.6</ele><time>2026-05-01T11:20:21.001Z</time></trkpt><trkpt lat="43.38805052941527" lon="-4.20291290860016"><ele>44.8</ele><time>2026-05-01T11:20:22.001Z</time></trkpt><trkpt lat="43.387992983950454" lon="-4.2030413659315515"><ele>45.0</ele><time>2026-05-01T11:20:23.001Z</time></trkpt><trkpt lat="43.387934473232185" lon="-4.203170502522897"><ele>45.0</ele><time>2026-05-01T11:20:24.001Z</time></trkpt><trkpt lat="43.38787690559812" lon="-4.2032988748767925"><ele>45.0</ele><time>2026-05-01T11:20:25.001Z</time></trkpt><trkpt lat="43.38782075006082" lon="-4.203424097735208"><ele>45.0</ele><time>2026-05-01T11:20:26.001Z</time></trkpt><trkpt lat="43.38776491168287" lon="-4.203550121724901"><ele>45.0</ele><time>2026-05-01T11:20:27.001Z</time></trkpt><trkpt lat="43.387707718078495" lon="-4.203682919498375"><ele>45.0</ele><time>2026-05-01T11:20:28.001Z</time></trkpt><trkpt lat="43.38765498977809" lon="-4.203809714827012"><ele>45.0</ele><time>2026-05-01T11:20:29.001Z</time></trkpt><trkpt lat="43.387598253705605" lon="-4.203941910619414"><ele>45.0</ele><time>2026-05-01T11:20:30.001Z</time></trkpt><trkpt lat="43.38754392980537" lon="-4.204077887944397"><ele>45.0</ele><time>2026-05-01T11:20:31.001Z</time></trkpt><trkpt lat="43.387489582140056" lon="-4.204209867930826"><ele>45.0</ele><time>2026-05-01T11:20:32.001Z</time></trkpt><trkpt lat="43.38743457786693" lon="-4.204357651730105"><ele>45.5</ele><time>2026-05-01T11:20:33.001Z</time></trkpt><trkpt lat="43.38737962902526" lon="-4.204492563213192"><ele>46.0</ele><time>2026-05-01T11:20:34.001Z</time></trkpt><trkpt lat="43.38732509442309" lon="-4.204633181245001"><ele>46.5</ele><time>2026-05-01T11:20:35.001Z</time></trkpt><trkpt lat="43.38727515901125" lon="-4.2047720537914755"><ele>47.0</ele><time>2026-05-01T11:20:36.001Z</time></trkpt><trkpt lat="43.387214364108736" lon="-4.204906526763603"><ele>47.400000000000006</ele><time>2026-05-01T11:20:37.001Z</time></trkpt><trkpt lat="43.38718118949396" lon="-4.20504245687663"><ele>47.800000000000004</ele><time>2026-05-01T11:20:38.001Z</time></trkpt><trkpt lat="43.3871408940689" lon="-4.205167819397278"><ele>48.2</ele><time>2026-05-01T11:20:39.001Z</time></trkpt><trkpt lat="43.38710603507763" lon="-4.205292280976841"><ele>48.6</ele><time>2026-05-01T11:20:40.001Z</time></trkpt><trkpt lat="43.38707074568343" lon="-4.2054173030213144"><ele>49.0</ele><time>2026-05-01T11:20:41.001Z</time></trkpt><trkpt lat="43.38703910529584" lon="-4.205542183488099"><ele>48.6</ele><time>2026-05-01T11:20:41.999Z</time></trkpt><trkpt lat="43.38701244092756" lon="-4.205667111392038"><ele>48.2</ele><time>2026-05-01T11:20:42.999Z</time></trkpt><trkpt lat="43.38698499635256" lon="-4.205799548991139"><ele>47.800000000000004</ele><time>2026-05-01T11:20:43.999Z</time></trkpt><trkpt lat="43.38696243591566" lon="-4.2059367476837455"><ele>47.400000000000006</ele><time>2026-05-01T11:20:44.999Z</time></trkpt><trkpt lat="43.38693917346315" lon="-4.206075654093478"><ele>47.0</ele><time>2026-05-01T11:20:45.999Z</time></trkpt><trkpt lat="43.386919403733685" lon="-4.206218501313174"><ele>47.0</ele><time>2026-05-01T11:20:46.999Z</time></trkpt><trkpt lat="43.38690455613654" lon="-4.206374317255371"><ele>47.0</ele><time>2026-05-01T11:20:47.999Z</time></trkpt><trkpt lat="43.386888525575685" lon="-4.206521864426032"><ele>47.0</ele><time>2026-05-01T11:20:48.999Z</time></trkpt><trkpt lat="43.38687664348873" lon="-4.206674011540287"><ele>47.0</ele><time>2026-05-01T11:20:49.999Z</time></trkpt><trkpt lat="43.386866581708084" lon="-4.2068265674810075"><ele>47.0</ele><time>2026-05-01T11:20:50.999Z</time></trkpt><trkpt lat="43.386852830674854" lon="-4.206982307415742"><ele>46.0</ele><time>2026-05-01T11:20:51.999Z</time></trkpt><trkpt lat="43.38684351084374" lon="-4.207136132548042"><ele>45.0</ele><time>2026-05-01T11:20:52.999Z</time></trkpt><trkpt lat="43.38683303496075" lon="-4.20728975908935"><ele>44.0</ele><time>2026-05-01T11:20:53.999Z</time></trkpt><trkpt lat="43.38682234478008" lon="-4.207441378712179"><ele>43.0</ele><time>2026-05-01T11:20:54.999Z</time></trkpt><trkpt lat="43.38681752528841" lon="-4.207589557588826"><ele>42.0</ele><time>2026-05-01T11:20:55.999Z</time></trkpt><trkpt lat="43.38681209230592" lon="-4.207738269083421"><ele>42.0</ele><time>2026-05-01T11:20:56.999Z</time></trkpt><trkpt lat="43.38680672610765" lon="-4.207886041843745"><ele>42.0</ele><time>2026-05-01T11:20:57.999Z</time></trkpt><trkpt lat="43.38680113358104" lon="-4.208034954937073"><ele>42.0</ele><time>2026-05-01T11:20:58.999Z</time></trkpt><trkpt lat="43.38680155770386" lon="-4.2081835111531865"><ele>42.0</ele><time>2026-05-01T11:20:59.999Z</time></trkpt><trkpt lat="43.386800397264764" lon="-4.208332910137138"><ele>42.0</ele><time>2026-05-01T11:21:00.999Z</time></trkpt><trkpt lat="43.386797122514736" lon="-4.208480776406932"><ele>43.2</ele><time>2026-05-01T11:21:01.999Z</time></trkpt><trkpt lat="43.386793804717875" lon="-4.208629932032903"><ele>44.400000000000006</ele><time>2026-05-01T11:21:02.999Z</time></trkpt><trkpt lat="43.38679531562624" lon="-4.208775677457357"><ele>45.599999999999994</ele><time>2026-05-01T11:21:03.999Z</time></trkpt><trkpt lat="43.386798338404695" lon="-4.208911562878746"><ele>46.8</ele><time>2026-05-01T11:21:05Z</time></trkpt><trkpt lat="43.386798750578386" lon="-4.209074118074987"><ele>48.0</ele><time>2026-05-01T11:21:06Z</time></trkpt><trkpt lat="43.386837493895904" lon="-4.209271765602216"><ele>48.25</ele><time>2026-05-01T11:21:07Z</time></trkpt><trkpt lat="43.38681971955475" lon="-4.209492007270101"><ele>48.5</ele><time>2026-05-01T11:21:09Z</time></trkpt><trkpt lat="43.386830119476755" lon="-4.209629509505429"><ele>48.75</ele><time>2026-05-01T11:21:10Z</time></trkpt><trkpt lat="43.38684124809952" lon="-4.209771607450025"><ele>49.0</ele><time>2026-05-01T11:21:11Z</time></trkpt><trkpt lat="43.38685635691522" lon="-4.209917008510918"><ele>49.800000000000004</ele><time>2026-05-01T11:21:12Z</time></trkpt><trkpt lat="43.38687560483394" lon="-4.210056961870924"><ele>50.6</ele><time>2026-05-01T11:21:13Z</time></trkpt><trkpt lat="43.386895872650214" lon="-4.210193654436156"><ele>51.4</ele><time>2026-05-01T11:21:14Z</time></trkpt><trkpt lat="43.38692229151675" lon="-4.210336568382695"><ele>52.2</ele><time>2026-05-01T11:21:15Z</time></trkpt><trkpt lat="43.38694629571962" lon="-4.210478487090746"><ele>53.0</ele><time>2026-05-01T11:21:16Z</time></trkpt><trkpt lat="43.38697149167058" lon="-4.210620800966736"><ele>53.8</ele><time>2026-05-01T11:21:17Z</time></trkpt><trkpt lat="43.386995407838086" lon="-4.210766464806553"><ele>54.599999999999994</ele><time>2026-05-01T11:21:18Z</time></trkpt><trkpt lat="43.3870250212533" lon="-4.21091109849689"><ele>55.400000000000006</ele><time>2026-05-01T11:21:19Z</time></trkpt><trkpt lat="43.38706115806764" lon="-4.211058128426047"><ele>56.2</ele><time>2026-05-01T11:21:20Z</time></trkpt><trkpt lat="43.38709349451276" lon="-4.211201358237244"><ele>57.0</ele><time>2026-05-01T11:21:21Z</time></trkpt><trkpt lat="43.387125763894026" lon="-4.211347698352766"><ele>57.0</ele><time>2026-05-01T11:21:22Z</time></trkpt><trkpt lat="43.3871606093239" lon="-4.211496294486166"><ele>57.0</ele><time>2026-05-01T11:21:23Z</time></trkpt><trkpt lat="43.38719521274716" lon="-4.211641325743637"><ele>57.0</ele><time>2026-05-01T11:21:24Z</time></trkpt><trkpt lat="43.38723090045954" lon="-4.211780374254996"><ele>57.0</ele><time>2026-05-01T11:21:25Z</time></trkpt><trkpt lat="43.38726693172717" lon="-4.211918406852481"><ele>57.0</ele><time>2026-05-01T11:21:26Z</time></trkpt><trkpt lat="43.387301094206855" lon="-4.212054601160691"><ele>56.6</ele><time>2026-05-01T11:21:27Z</time></trkpt><trkpt lat="43.3873395450497" lon="-4.212189637429706"><ele>56.2</ele><time>2026-05-01T11:21:28Z</time></trkpt><trkpt lat="43.38737378430102" lon="-4.212320651224452"><ele>55.8</ele><time>2026-05-01T11:21:29Z</time></trkpt><trkpt lat="43.38740457540261" lon="-4.212443786489558"><ele>55.4</ele><time>2026-05-01T11:21:30Z</time></trkpt><trkpt lat="43.38742980962397" lon="-4.212575802371397"><ele>55.0</ele><time>2026-05-01T11:21:31Z</time></trkpt><trkpt lat="43.38746373022859" lon="-4.212703487077364"><ele>55.0</ele><time>2026-05-01T11:21:32Z</time></trkpt><trkpt lat="43.38749970253683" lon="-4.212832908582696"><ele>55.0</ele><time>2026-05-01T11:21:33Z</time></trkpt><trkpt lat="43.38753728341469" lon="-4.212962460047785"><ele>55.0</ele><time>2026-05-01T11:21:34Z</time></trkpt><trkpt lat="43.38757964791801" lon="-4.21309371636822"><ele>55.0</ele><time>2026-05-01T11:21:35Z</time></trkpt><trkpt lat="43.38761745408521" lon="-4.21323197643207"><ele>55.0</ele><time>2026-05-01T11:21:36Z</time></trkpt><trkpt lat="43.387646921156424" lon="-4.213379457121811"><ele>55.2</ele><time>2026-05-01T11:21:37Z</time></trkpt><trkpt lat="43.387650548037875" lon="-4.213506723386149"><ele>55.4</ele><time>2026-05-01T11:21:38Z</time></trkpt><trkpt lat="43.38766726091758" lon="-4.213613490513251"><ele>55.599999999999994</ele><time>2026-05-01T11:21:39Z</time></trkpt><trkpt lat="43.387675593138965" lon="-4.213809084257843"><ele>55.8</ele><time>2026-05-01T11:21:40Z</time></trkpt><trkpt lat="43.387675898311635" lon="-4.213952021733849"><ele>56.0</ele><time>2026-05-01T11:21:41Z</time></trkpt><trkpt lat="43.38767079082472" lon="-4.214092949999964"><ele>56.0</ele><time>2026-05-01T11:21:42Z</time></trkpt><trkpt lat="43.38766381285906" lon="-4.214243230727465"><ele>55.99999999999999</ele><time>2026-05-01T11:21:43Z</time></trkpt><trkpt lat="43.3876493581672" lon="-4.214396198641223"><ele>55.99999999999999</ele><time>2026-05-01T11:21:44Z</time></trkpt><trkpt lat="43.38764202756507" lon="-4.214552945323205"><ele>56.0</ele><time>2026-05-01T11:21:45Z</time></trkpt><trkpt lat="43.38758231191462" lon="-4.214672089096865"><ele>56.0</ele><time>2026-05-01T11:21:46Z</time></trkpt><trkpt lat="43.38753933283622" lon="-4.214815421160113"><ele>55.8</ele><time>2026-05-01T11:21:47Z</time></trkpt><trkpt lat="43.387494861096336" lon="-4.214958034526236"><ele>55.599999999999994</ele><time>2026-05-01T11:21:48Z</time></trkpt><trkpt lat="43.38744760154668" lon="-4.2150914177797505"><ele>55.4</ele><time>2026-05-01T11:21:49Z</time></trkpt><trkpt lat="43.38739405641398" lon="-4.215226204570164"><ele>55.2</ele><time>2026-05-01T11:21:50Z</time></trkpt><trkpt lat="43.387345544553156" lon="-4.215356549294577"><ele>55.0</ele><time>2026-05-01T11:21:51Z</time></trkpt><trkpt lat="43.38729354627684" lon="-4.215483748661002"><ele>55.0</ele><time>2026-05-01T11:21:52Z</time></trkpt><trkpt lat="43.387243342703464" lon="-4.215619323638127"><ele>55.0</ele><time>2026-05-01T11:21:53Z</time></trkpt><trkpt lat="43.38719399685454" lon="-4.21575103893269"><ele>55.0</ele><time>2026-05-01T11:21:54Z</time></trkpt><trkpt lat="43.38715059641102" lon="-4.215884642214611"><ele>55.0</ele><time>2026-05-01T11:21:55Z</time></trkpt><trkpt lat="43.38710621658091" lon="-4.216016859014116"><ele>55.0</ele><time>2026-05-01T11:21:56Z</time></trkpt><trkpt lat="43.387071642084955" lon="-4.216157468658715"><ele>56.4</ele><time>2026-05-01T11:21:57.001Z</time></trkpt><trkpt lat="43.387050455409344" lon="-4.216307313150082"><ele>57.8</ele><time>2026-05-01T11:21:58.001Z</time></trkpt><trkpt lat="43.387036221120056" lon="-4.216453262750497"><ele>59.2</ele><time>2026-05-01T11:21:59.001Z</time></trkpt><trkpt lat="43.38703406091022" lon="-4.216602095055012"><ele>60.6</ele><time>2026-05-01T11:22:00.001Z</time></trkpt><trkpt lat="43.38704200915482" lon="-4.2167510885431225"><ele>62.0</ele><time>2026-05-01T11:22:01.001Z</time></trkpt><trkpt lat="43.387048495221315" lon="-4.21689921548146"><ele>61.6</ele><time>2026-05-01T11:22:02.001Z</time></trkpt><trkpt lat="43.38704838065182" lon="-4.217048266381993"><ele>61.2</ele><time>2026-05-01T11:22:03.001Z</time></trkpt><trkpt lat="43.38704477094775" lon="-4.217198994933404"><ele>60.8</ele><time>2026-05-01T11:22:04.001Z</time></trkpt><trkpt lat="43.387026378222345" lon="-4.21734888363129"><ele>60.4</ele><time>2026-05-01T11:22:05.001Z</time></trkpt><trkpt lat="43.38698964099545" lon="-4.217489865857024"><ele>60.0</ele><time>2026-05-01T11:22:06.001Z</time></trkpt><trkpt lat="43.38692566979737" lon="-4.217615915107817"><ele>60.0</ele><time>2026-05-01T11:22:07.001Z</time></trkpt><trkpt lat="43.38685525226592" lon="-4.217735085051193"><ele>60.0</ele><time>2026-05-01T11:22:08.001Z</time></trkpt><trkpt lat="43.38677305909033" lon="-4.21784397821129"><ele>60.0</ele><time>2026-05-01T11:22:09.001Z</time></trkpt><trkpt lat="43.38668237772663" lon="-4.21794169991066"><ele>60.0</ele><time>2026-05-01T11:22:10.001Z</time></trkpt><trkpt lat="43.38658319277247" lon="-4.21802281328583"><ele>60.0</ele><time>2026-05-01T11:22:11.001Z</time></trkpt><trkpt lat="43.386481812753495" lon="-4.218092105188779"><ele>60.0</ele><time>2026-05-01T11:22:12.001Z</time></trkpt><trkpt lat="43.38638189154647" lon="-4.2181563546428125"><ele>60.0</ele><time>2026-05-01T11:22:13.001Z</time></trkpt><trkpt lat="43.38628467180232" lon="-4.218222764411591"><ele>60.0</ele><time>2026-05-01T11:22:14.001Z</time></trkpt><trkpt lat="43.38619189329948" lon="-4.218310141575815"><ele>60.0</ele><time>2026-05-01T11:22:15.001Z</time></trkpt><trkpt lat="43.386109266096526" lon="-4.218412303318928"><ele>59.25</ele><time>2026-05-01T11:22:16.001Z</time></trkpt><trkpt lat="43.38603738392506" lon="-4.218536403582368"><ele>58.5</ele><time>2026-05-01T11:22:17.001Z</time></trkpt><trkpt lat="43.38597660635831" lon="-4.218665675712296"><ele>57.75</ele><time>2026-05-01T11:22:18.001Z</time></trkpt><trkpt lat="43.385933782455275" lon="-4.218810183999841"><ele>57.0</ele><time>2026-05-01T11:22:19.001Z</time></trkpt><trkpt lat="43.385907495646755" lon="-4.218959433056817"><ele>56.25</ele><time>2026-05-01T11:22:20.001Z</time></trkpt><trkpt lat="43.38589807647009" lon="-4.219117462779871"><ele>55.5</ele><time>2026-05-01T11:22:21.001Z</time></trkpt><trkpt lat="43.385905359082265" lon="-4.219277799437154"><ele>54.75</ele><time>2026-05-01T11:22:22.001Z</time></trkpt><trkpt lat="43.38593537899198" lon="-4.219431674481493"><ele>54.0</ele><time>2026-05-01T11:22:23.001Z</time></trkpt><trkpt lat="43.38598697114344" lon="-4.219579579887891"><ele>54.0</ele><time>2026-05-01T11:22:24.001Z</time></trkpt><trkpt lat="43.386054939568524" lon="-4.219713445058278"><ele>54.0</ele><time>2026-05-01T11:22:25.001Z</time></trkpt><trkpt lat="43.38613501587554" lon="-4.219831926947233"><ele>54.0</ele><time>2026-05-01T11:22:26.001Z</time></trkpt><trkpt lat="43.386231521800426" lon="-4.219933760001946"><ele>54.0</ele><time>2026-05-01T11:22:27.001Z</time></trkpt><trkpt lat="43.38632984563728" lon="-4.220017127978652"><ele>50.5</ele><time>2026-05-01T11:22:28.001Z</time></trkpt><trkpt lat="43.386428067551044" lon="-4.220104144980023"><ele>47.0</ele><time>2026-05-01T11:22:29.001Z</time></trkpt><trkpt lat="43.38653059550502" lon="-4.220183860683988"><ele>43.5</ele><time>2026-05-01T11:22:30.001Z</time></trkpt><trkpt lat="43.386629721006265" lon="-4.220267961829759"><ele>40.0</ele><time>2026-05-01T11:22:31.001Z</time></trkpt><trkpt lat="43.38672957604375" lon="-4.220351112860063"><ele>40.0</ele><time>2026-05-01T11:22:32.001Z</time></trkpt><trkpt lat="43.38682704761061" lon="-4.220429869095875"><ele>40.0</ele><time>2026-05-01T11:22:33.001Z</time></trkpt><trkpt lat="43.38692401513802" lon="-4.220508951193955"><ele>40.0</ele><time>2026-05-01T11:22:34.001Z</time></trkpt><trkpt lat="43.38701993987762" lon="-4.220594695867228"><ele>40.0</ele><time>2026-05-01T11:22:35.001Z</time></trkpt><trkpt lat="43.38711135161839" lon="-4.220684985384762"><ele>37.5</ele><time>2026-05-01T11:22:36.001Z</time></trkpt><trkpt lat="43.387197491214586" lon="-4.220785517681718"><ele>35.0</ele><time>2026-05-01T11:22:37.001Z</time></trkpt><trkpt lat="43.387271819462256" lon="-4.220904668531751"><ele>32.5</ele><time>2026-05-01T11:22:38.001Z</time></trkpt><trkpt lat="43.38734011898374" lon="-4.22102908878203"><ele>30.0</ele><time>2026-05-01T11:22:39.001Z</time></trkpt><trkpt lat="43.387392002483566" lon="-4.221168636898524"><ele>30.0</ele><time>2026-05-01T11:22:40.001Z</time></trkpt><trkpt lat="43.38742480992912" lon="-4.22132042168303"><ele>30.0</ele><time>2026-05-01T11:22:41.001Z</time></trkpt><trkpt lat="43.38743973952997" lon="-4.221477464109713"><ele>30.0</ele><time>2026-05-01T11:22:42.001Z</time></trkpt><trkpt lat="43.387428922278495" lon="-4.221640462082395"><ele>30.0</ele><time>2026-05-01T11:22:43.001Z</time></trkpt><trkpt lat="43.38741518955153" lon="-4.221799902927556"><ele>29.75</ele><time>2026-05-01T11:22:44.001Z</time></trkpt><trkpt lat="43.387382980508804" lon="-4.221956463850942"><ele>29.5</ele><time>2026-05-01T11:22:45.001Z</time></trkpt><trkpt lat="43.387334804505564" lon="-4.222103594694624"><ele>29.25</ele><time>2026-05-01T11:22:46.001Z</time></trkpt><trkpt lat="43.38727676750245" lon="-4.222254610977693"><ele>29.0</ele><time>2026-05-01T11:22:47.001Z</time></trkpt><trkpt lat="43.38721691014465" lon="-4.222395419715716"><ele>30.5</ele><time>2026-05-01T11:22:47.999Z</time></trkpt><trkpt lat="43.38715366671729" lon="-4.222539580840189"><ele>32.0</ele><time>2026-05-01T11:22:48.999Z</time></trkpt><trkpt lat="43.38709365207984" lon="-4.222678840183217"><ele>33.5</ele><time>2026-05-01T11:22:49.999Z</time></trkpt><trkpt lat="43.38703130345493" lon="-4.222820486320825"><ele>35.0</ele><time>2026-05-01T11:22:50.999Z</time></trkpt><trkpt lat="43.38696146549242" lon="-4.222953864755257"><ele>35.0</ele><time>2026-05-01T11:22:51.999Z</time></trkpt><trkpt lat="43.386886755630904" lon="-4.223070574809267"><ele>35.0</ele><time>2026-05-01T11:22:52.999Z</time></trkpt><trkpt lat="43.386796088039034" lon="-4.223170517454349"><ele>35.0</ele><time>2026-05-01T11:22:53.999Z</time></trkpt><trkpt lat="43.386707039379594" lon="-4.2232705796155905"><ele>35.0</ele><time>2026-05-01T11:22:54.999Z</time></trkpt><trkpt lat="43.386602880041075" lon="-4.223341584588882"><ele>32.0</ele><time>2026-05-01T11:22:55.999Z</time></trkpt><trkpt lat="43.38649633683511" lon="-4.223400033908374"><ele>29.0</ele><time>2026-05-01T11:22:56.999Z</time></trkpt><trkpt lat="43.38638792481046" lon="-4.223448766936984"><ele>26.0</ele><time>2026-05-01T11:22:57.999Z</time></trkpt><trkpt lat="43.38627900399341" lon="-4.223498716598074"><ele>23.0</ele><time>2026-05-01T11:22:58.999Z</time></trkpt><trkpt lat="43.38617256511831" lon="-4.223549788687854"><ele>23.0</ele><time>2026-05-01T11:22:59.999Z</time></trkpt><trkpt lat="43.38607059152261" lon="-4.223606977143059"><ele>23.0</ele><time>2026-05-01T11:23:00.999Z</time></trkpt><trkpt lat="43.38596207713075" lon="-4.223648790636959"><ele>23.0</ele><time>2026-05-01T11:23:02Z</time></trkpt><trkpt lat="43.385860958242446" lon="-4.223691796716989"><ele>23.0</ele><time>2026-05-01T11:23:03Z</time></trkpt><trkpt lat="43.385758674205775" lon="-4.223740241685909"><ele>23.0</ele><time>2026-05-01T11:23:04Z</time></trkpt><trkpt lat="43.38566084037963" lon="-4.223785846023439"><ele>23.0</ele><time>2026-05-01T11:23:05Z</time></trkpt><trkpt lat="43.38557138856359" lon="-4.2238308646007425"><ele>23.0</ele><time>2026-05-01T11:23:06Z</time></trkpt><trkpt lat="43.3854752143733" lon="-4.223888022298885"><ele>23.0</ele><time>2026-05-01T11:23:07Z</time></trkpt><trkpt lat="43.38536980147204" lon="-4.22394562376061"><ele>23.0</ele><time>2026-05-01T11:23:08Z</time></trkpt><trkpt lat="43.38527941084544" lon="-4.224014287901101"><ele>23.0</ele><time>2026-05-01T11:23:09Z</time></trkpt><trkpt lat="43.38519768470243" lon="-4.224077995478118"><ele>23.0</ele><time>2026-05-01T11:23:10Z</time></trkpt><trkpt lat="43.38511932995978" lon="-4.224176570381026"><ele>23.0</ele><time>2026-05-01T11:23:11Z</time></trkpt><trkpt lat="43.38505294726442" lon="-4.224289621625219"><ele>23.0</ele><time>2026-05-01T11:23:12Z</time></trkpt><trkpt lat="43.38500211074554" lon="-4.224415207373587"><ele>23.0</ele><time>2026-05-01T11:23:13Z</time></trkpt><trkpt lat="43.384956509686916" lon="-4.224543990593992"><ele>23.0</ele><time>2026-05-01T11:23:14Z</time></trkpt><trkpt lat="43.38492580178939" lon="-4.224677423719983"><ele>24.2</ele><time>2026-05-01T11:23:15Z</time></trkpt><trkpt lat="43.384906934658105" lon="-4.224813524587676"><ele>25.4</ele><time>2026-05-01T11:23:16Z</time></trkpt><trkpt lat="43.38490298765254" lon="-4.224951148951859"><ele>26.599999999999998</ele><time>2026-05-01T11:23:17Z</time></trkpt><trkpt lat="43.384913731281635" lon="-4.2250937123660375"><ele>27.799999999999997</ele><time>2026-05-01T11:23:18Z</time></trkpt><trkpt lat="43.38493515862191" lon="-4.225229688363862"><ele>29.0</ele><time>2026-05-01T11:23:19Z</time></trkpt><trkpt lat="43.384972042317514" lon="-4.225362943568123"><ele>29.0</ele><time>2026-05-01T11:23:20Z</time></trkpt><trkpt lat="43.38501838067826" lon="-4.22548806252162"><ele>29.0</ele><time>2026-05-01T11:23:21Z</time></trkpt><trkpt lat="43.38506223603963" lon="-4.225609594370092"><ele>29.0</ele><time>2026-05-01T11:23:22Z</time></trkpt><trkpt lat="43.38511212345148" lon="-4.225723539229772"><ele>29.0</ele><time>2026-05-01T11:23:23Z</time></trkpt><trkpt lat="43.38515963327203" lon="-4.225841688341973"><ele>29.0</ele><time>2026-05-01T11:23:24Z</time></trkpt><trkpt lat="43.38520497870709" lon="-4.225955671023554"><ele>31.6</ele><time>2026-05-01T11:23:25Z</time></trkpt><trkpt lat="43.385253434406245" lon="-4.22607297598444"><ele>34.2</ele><time>2026-05-01T11:23:26Z</time></trkpt><trkpt lat="43.385302909159655" lon="-4.226189810514869"><ele>36.800000000000004</ele><time>2026-05-01T11:23:27Z</time></trkpt><trkpt lat="43.38535247284917" lon="-4.2263064829321895"><ele>39.4</ele><time>2026-05-01T11:23:28Z</time></trkpt><trkpt lat="43.38540831182188" lon="-4.226417472449038"><ele>42.0</ele><time>2026-05-01T11:23:29Z</time></trkpt><trkpt lat="43.38546360185485" lon="-4.226528130103909"><ele>41.8</ele><time>2026-05-01T11:23:30Z</time></trkpt><trkpt lat="43.38552338303369" lon="-4.226637138081181"><ele>41.6</ele><time>2026-05-01T11:23:31Z</time></trkpt><trkpt lat="43.385584154302535" lon="-4.226740487527941"><ele>41.4</ele><time>2026-05-01T11:23:32Z</time></trkpt><trkpt lat="43.38564758113257" lon="-4.226843859548503"><ele>41.199999999999996</ele><time>2026-05-01T11:23:33Z</time></trkpt><trkpt lat="43.38571460721126" lon="-4.2269428371800295"><ele>41.0</ele><time>2026-05-01T11:23:34Z</time></trkpt><trkpt lat="43.38578360509606" lon="-4.227039879271753"><ele>41.0</ele><time>2026-05-01T11:23:35Z</time></trkpt><trkpt lat="43.38585063811338" lon="-4.227137525552616"><ele>41.0</ele><time>2026-05-01T11:23:36Z</time></trkpt><trkpt lat="43.38592029372601" lon="-4.227232698043172"><ele>41.0</ele><time>2026-05-01T11:23:37Z</time></trkpt><trkpt lat="43.385987007735935" lon="-4.227326318319793"><ele>41.0</ele><time>2026-05-01T11:23:38Z</time></trkpt><trkpt lat="43.38605476201313" lon="-4.227425728531815"><ele>41.0</ele><time>2026-05-01T11:23:39Z</time></trkpt><trkpt lat="43.386118632428236" lon="-4.227523269830567"><ele>42.0</ele><time>2026-05-01T11:23:40Z</time></trkpt><trkpt lat="43.38618267416535" lon="-4.227623839926816"><ele>43.0</ele><time>2026-05-01T11:23:41Z</time></trkpt><trkpt lat="43.38624528820844" lon="-4.227722995806413"><ele>44.0</ele><time>2026-05-01T11:23:42Z</time></trkpt><trkpt lat="43.386306438507816" lon="-4.227825168982627"><ele>45.0</ele><time>2026-05-01T11:23:43Z</time></trkpt><trkpt lat="43.38636059501535" lon="-4.227931460682577"><ele>46.0</ele><time>2026-05-01T11:23:44Z</time></trkpt><trkpt lat="43.386413977480586" lon="-4.228040061612273"><ele>47.0</ele><time>2026-05-01T11:23:45Z</time></trkpt><trkpt lat="43.386465289927806" lon="-4.228150651753888"><ele>48.0</ele><time>2026-05-01T11:23:46Z</time></trkpt><trkpt lat="43.386516249850594" lon="-4.228264925429871"><ele>49.0</ele><time>2026-05-01T11:23:47Z</time></trkpt><trkpt lat="43.38656632564913" lon="-4.228376218123248"><ele>50.0</ele><time>2026-05-01T11:23:48Z</time></trkpt><trkpt lat="43.38661429499345" lon="-4.228491473149454"><ele>51.0</ele><time>2026-05-01T11:23:49.001Z</time></trkpt><trkpt lat="43.3866676830054" lon="-4.228603552824753"><ele>51.0</ele><time>2026-05-01T11:23:50.001Z</time></trkpt><trkpt lat="43.38671321430098" lon="-4.228718652346137"><ele>51.0</ele><time>2026-05-01T11:23:51.001Z</time></trkpt><trkpt lat="43.38676263210186" lon="-4.228809434925664"><ele>51.0</ele><time>2026-05-01T11:23:52.001Z</time></trkpt><trkpt lat="43.38680593553847" lon="-4.228946905320673"><ele>51.0</ele><time>2026-05-01T11:23:53.001Z</time></trkpt><trkpt lat="43.38685534127281" lon="-4.229057156965369"><ele>51.0</ele><time>2026-05-01T11:23:54.001Z</time></trkpt><trkpt lat="43.38690030568834" lon="-4.229170465792485"><ele>51.199999999999996</ele><time>2026-05-01T11:23:55.001Z</time></trkpt><trkpt lat="43.386945283837825" lon="-4.229283511694207"><ele>51.4</ele><time>2026-05-01T11:23:56.001Z</time></trkpt><trkpt lat="43.38698945552651" lon="-4.2293946425385345"><ele>51.6</ele><time>2026-05-01T11:23:57.001Z</time></trkpt><trkpt lat="43.38703541960157" lon="-4.229503735197204"><ele>51.8</ele><time>2026-05-01T11:23:58.001Z</time></trkpt><trkpt lat="43.38708458229816" lon="-4.2296113701497315"><ele>52.0</ele><time>2026-05-01T11:23:59.001Z</time></trkpt><trkpt lat="43.38713074466141" lon="-4.229716251984501"><ele>53.166666666666664</ele><time>2026-05-01T11:24:00.001Z</time></trkpt><trkpt lat="43.3871768713123" lon="-4.229819162547874"><ele>54.33333333333333</ele><time>2026-05-01T11:24:01.001Z</time></trkpt><trkpt lat="43.3872211740773" lon="-4.229920974033414"><ele>55.5</ele><time>2026-05-01T11:24:02.001Z</time></trkpt><trkpt lat="43.38726355887074" lon="-4.230027197137386"><ele>56.66666666666667</ele><time>2026-05-01T11:24:03.001Z</time></trkpt><trkpt lat="43.38730373205683" lon="-4.2301334021494394"><ele>57.833333333333336</ele><time>2026-05-01T11:24:04.001Z</time></trkpt><trkpt lat="43.38734303024504" lon="-4.230231479060823"><ele>59.0</ele><time>2026-05-01T11:24:05.001Z</time></trkpt><trkpt lat="43.38738261840989" lon="-4.230334770754133"><ele>59.00000000000001</ele><time>2026-05-01T11:24:06.001Z</time></trkpt><trkpt lat="43.38742143160839" lon="-4.230433681692416"><ele>59.0</ele><time>2026-05-01T11:24:07.001Z</time></trkpt><trkpt lat="43.38745452616719" lon="-4.230523740440135"><ele>59.0</ele><time>2026-05-01T11:24:08.001Z</time></trkpt><trkpt lat="43.38749117468555" lon="-4.230632039220209"><ele>59.0</ele><time>2026-05-01T11:24:09.001Z</time></trkpt><trkpt lat="43.38752077876581" lon="-4.230728997780737"><ele>59.00000000000001</ele><time>2026-05-01T11:24:10.001Z</time></trkpt><trkpt lat="43.38754998295815" lon="-4.230833233421731"><ele>59.0</ele><time>2026-05-01T11:24:11.001Z</time></trkpt><trkpt lat="43.38757322548283" lon="-4.230937109456124"><ele>59.50000000000001</ele><time>2026-05-01T11:24:12.001Z</time></trkpt><trkpt lat="43.38759991243484" lon="-4.2310359743002826"><ele>60.0</ele><time>2026-05-01T11:24:13.001Z</time></trkpt><trkpt lat="43.387619028220115" lon="-4.231133858416357"><ele>60.5</ele><time>2026-05-01T11:24:14.001Z</time></trkpt><trkpt lat="43.38763353791511" lon="-4.2312395003845635"><ele>61.0</ele><time>2026-05-01T11:24:15.001Z</time></trkpt><trkpt lat="43.38764990798022" lon="-4.231349214897493"><ele>61.50000000000001</ele><time>2026-05-01T11:24:16.001Z</time></trkpt><trkpt lat="43.387657869865166" lon="-4.231450405220253"><ele>62.0</ele><time>2026-05-01T11:24:17.001Z</time></trkpt><trkpt lat="43.38766903432575" lon="-4.231556475490167"><ele>63.00000000000001</ele><time>2026-05-01T11:24:18.001Z</time></trkpt><trkpt lat="43.387666164051836" lon="-4.23166821912399"><ele>64.0</ele><time>2026-05-01T11:24:19.001Z</time></trkpt><trkpt lat="43.387671510741164" lon="-4.231761501236019"><ele>65.0</ele><time>2026-05-01T11:24:20.001Z</time></trkpt><trkpt lat="43.38766124699221" lon="-4.231875450300304"><ele>66.0</ele><time>2026-05-01T11:24:21.001Z</time></trkpt><trkpt lat="43.38765141786097" lon="-4.231982859718734"><ele>67.0</ele><time>2026-05-01T11:24:22.001Z</time></trkpt><trkpt lat="43.38763183678523" lon="-4.232090384091165"><ele>68.0</ele><time>2026-05-01T11:24:23.001Z</time></trkpt><trkpt lat="43.38761418988366" lon="-4.232187037662348"><ele>68.0</ele><time>2026-05-01T11:24:24.001Z</time></trkpt><trkpt lat="43.38760858721402" lon="-4.232293594809509"><ele>68.0</ele><time>2026-05-01T11:24:25.001Z</time></trkpt><trkpt lat="43.38758326908891" lon="-4.23239711978953"><ele>68.0</ele><time>2026-05-01T11:24:26.001Z</time></trkpt><trkpt lat="43.38755303564368" lon="-4.2324943815673155"><ele>68.0</ele><time>2026-05-01T11:24:27.001Z</time></trkpt><trkpt lat="43.38752112820562" lon="-4.232592770813813"><ele>68.0</ele><time>2026-05-01T11:24:28.001Z</time></trkpt><trkpt lat="43.38748440847089" lon="-4.232686005842538"><ele>68.0</ele><time>2026-05-01T11:24:29.001Z</time></trkpt><trkpt lat="43.38744833993473" lon="-4.232782686952464"><ele>69.16666666666667</ele><time>2026-05-01T11:24:30.001Z</time></trkpt><trkpt lat="43.38741407919847" lon="-4.23287883383456"><ele>70.33333333333334</ele><time>2026-05-01T11:24:31.001Z</time></trkpt><trkpt lat="43.387363714316805" lon="-4.232972887667743"><ele>71.5</ele><time>2026-05-01T11:24:32.001Z</time></trkpt><trkpt lat="43.38731177839201" lon="-4.233070507030558"><ele>72.66666666666667</ele><time>2026-05-01T11:24:33.001Z</time></trkpt><trkpt lat="43.387261263592954" lon="-4.233169986978581"><ele>73.83333333333333</ele><time>2026-05-01T11:24:34.001Z</time></trkpt><trkpt lat="43.38720658764177" lon="-4.23327019650801"><ele>75.0</ele><time>2026-05-01T11:24:35.001Z</time></trkpt><trkpt lat="43.38714667590206" lon="-4.233375068498133"><ele>75.8</ele><time>2026-05-01T11:24:36.001Z</time></trkpt><trkpt lat="43.3870852356341" lon="-4.233484714496927"><ele>76.6</ele><time>2026-05-01T11:24:37.001Z</time></trkpt><trkpt lat="43.38702179399863" lon="-4.233598712399591"><ele>77.4</ele><time>2026-05-01T11:24:38.001Z</time></trkpt><trkpt lat="43.386958247376384" lon="-4.233715755753747"><ele>78.2</ele><time>2026-05-01T11:24:39.001Z</time></trkpt><trkpt lat="43.38689354506674" lon="-4.233846340860519"><ele>79.0</ele><time>2026-05-01T11:24:40.001Z</time></trkpt><trkpt lat="43.38682852797726" lon="-4.233974435470857"><ele>79.0</ele><time>2026-05-01T11:24:41.001Z</time></trkpt><trkpt lat="43.386774827899224" lon="-4.2341062981580455"><ele>79.0</ele><time>2026-05-01T11:24:42.001Z</time></trkpt><trkpt lat="43.386723406850095" lon="-4.2342439871420545"><ele>79.0</ele><time>2026-05-01T11:24:43.001Z</time></trkpt><trkpt lat="43.38667150028762" lon="-4.234382500859269"><ele>79.0</ele><time>2026-05-01T11:24:44.001Z</time></trkpt><trkpt lat="43.386636899680454" lon="-4.234532379313116"><ele>79.0</ele><time>2026-05-01T11:24:45.001Z</time></trkpt><trkpt lat="43.38662538607576" lon="-4.234688024592745"><ele>79.0</ele><time>2026-05-01T11:24:46.001Z</time></trkpt><trkpt lat="43.38661725116197" lon="-4.234843542336404"><ele>79.0</ele><time>2026-05-01T11:24:47.001Z</time></trkpt><trkpt lat="43.386581658407934" lon="-4.234990655036443"><ele>79.0</ele><time>2026-05-01T11:24:48.002Z</time></trkpt><trkpt lat="43.38656553632228" lon="-4.235140401922115"><ele>78.5</ele><time>2026-05-01T11:24:49.002Z</time></trkpt><trkpt lat="43.3865484516293" lon="-4.235294234131587"><ele>78.0</ele><time>2026-05-01T11:24:50.002Z</time></trkpt><trkpt lat="43.38653337297603" lon="-4.23544918724638"><ele>77.5</ele><time>2026-05-01T11:24:51.002Z</time></trkpt><trkpt lat="43.38652531020594" lon="-4.235606833004901"><ele>77.0</ele><time>2026-05-01T11:24:52.002Z</time></trkpt><trkpt lat="43.38652293225304" lon="-4.235764401211218"><ele>76.4</ele><time>2026-05-01T11:24:53.002Z</time></trkpt><trkpt lat="43.386528142865245" lon="-4.235920141174629"><ele>75.80000000000001</ele><time>2026-05-01T11:24:54Z</time></trkpt><trkpt lat="43.38654000851881" lon="-4.236074829403801"><ele>75.2</ele><time>2026-05-01T11:24:55Z</time></trkpt><trkpt lat="43.38656544032906" lon="-4.236224020765256"><ele>74.60000000000001</ele><time>2026-05-01T11:24:56Z</time></trkpt><trkpt lat="43.38659762329337" lon="-4.2363702871721225"><ele>74.0</ele><time>2026-05-01T11:24:57Z</time></trkpt><trkpt lat="43.38663054134895" lon="-4.236520339970699"><ele>72.8</ele><time>2026-05-01T11:24:58Z</time></trkpt><trkpt lat="43.38666988401081" lon="-4.236663359977288"><ele>71.60000000000001</ele><time>2026-05-01T11:24:59Z</time></trkpt><trkpt lat="43.38670447596711" lon="-4.236807435416338"><ele>70.4</ele><time>2026-05-01T11:25:00Z</time></trkpt><trkpt lat="43.38674210891374" lon="-4.236953395470102"><ele>69.2</ele><time>2026-05-01T11:25:01Z</time></trkpt><trkpt lat="43.38678151971274" lon="-4.237095715166503"><ele>68.0</ele><time>2026-05-01T11:25:02Z</time></trkpt><trkpt lat="43.38681993442435" lon="-4.237243016711658"><ele>66.75</ele><time>2026-05-01T11:25:03Z</time></trkpt><trkpt lat="43.386859927869885" lon="-4.237390172267496"><ele>65.5</ele><time>2026-05-01T11:25:04Z</time></trkpt><trkpt lat="43.38690593518595" lon="-4.237532513565702"><ele>64.25</ele><time>2026-05-01T11:25:05Z</time></trkpt><trkpt lat="43.38694773622655" lon="-4.2376762157044"><ele>63.0</ele><time>2026-05-01T11:25:06Z</time></trkpt><trkpt lat="43.38699069919249" lon="-4.237826576506242"><ele>63.0</ele><time>2026-05-01T11:25:07Z</time></trkpt><trkpt lat="43.38703697625831" lon="-4.237972688561108"><ele>63.0</ele><time>2026-05-01T11:25:08Z</time></trkpt><trkpt lat="43.387081972763134" lon="-4.2381147396249546"><ele>63.0</ele><time>2026-05-01T11:25:09Z</time></trkpt><trkpt lat="43.38712622274927" lon="-4.238260764165411"><ele>63.0</ele><time>2026-05-01T11:25:10Z</time></trkpt><trkpt lat="43.38717435749497" lon="-4.238406691373868"><ele>63.75</ele><time>2026-05-01T11:25:11Z</time></trkpt><trkpt lat="43.38722186660984" lon="-4.238552380030491"><ele>64.5</ele><time>2026-05-01T11:25:12Z</time></trkpt><trkpt lat="43.38726512304044" lon="-4.238699402068951"><ele>65.25</ele><time>2026-05-01T11:25:13Z</time></trkpt><trkpt lat="43.38731285312614" lon="-4.238841845435506"><ele>66.0</ele><time>2026-05-01T11:25:14Z</time></trkpt><trkpt lat="43.38735701124004" lon="-4.2389828462308765"><ele>66.0</ele><time>2026-05-01T11:25:15Z</time></trkpt><trkpt lat="43.38740047189147" lon="-4.239126544662637"><ele>66.0</ele><time>2026-05-01T11:25:16Z</time></trkpt><trkpt lat="43.38744564482701" lon="-4.23926824418869"><ele>66.0</ele><time>2026-05-01T11:25:17Z</time></trkpt><trkpt lat="43.387490706220234" lon="-4.239407322907721"><ele>66.0</ele><time>2026-05-01T11:25:18Z</time></trkpt><trkpt lat="43.38753097916036" lon="-4.239542696737927"><ele>66.0</ele><time>2026-05-01T11:25:19Z</time></trkpt><trkpt lat="43.38757424418684" lon="-4.239670858578155"><ele>66.0</ele><time>2026-05-01T11:25:20Z</time></trkpt><trkpt lat="43.387606755418076" lon="-4.239757082849246"><ele>66.0</ele><time>2026-05-01T11:25:21Z</time></trkpt><trkpt lat="43.38764068024817" lon="-4.239851094990533"><ele>66.0</ele><time>2026-05-01T11:25:22Z</time></trkpt><trkpt lat="43.38769881789921" lon="-4.240066634496127"><ele>66.0</ele><time>2026-05-01T11:25:23Z</time></trkpt><trkpt lat="43.38773786277277" lon="-4.240197345421833"><ele>66.0</ele><time>2026-05-01T11:25:24Z</time></trkpt><trkpt lat="43.38777954297729" lon="-4.240316973082061"><ele>64.66666666666667</ele><time>2026-05-01T11:25:25Z</time></trkpt><trkpt lat="43.38781185996595" lon="-4.240435479126641"><ele>63.33333333333333</ele><time>2026-05-01T11:25:26Z</time></trkpt><trkpt lat="43.387847430032195" lon="-4.240546243171006"><ele>62.0</ele><time>2026-05-01T11:25:27Z</time></trkpt><trkpt lat="43.38787824491943" lon="-4.2406547013115174"><ele>60.666666666666664</ele><time>2026-05-01T11:25:28Z</time></trkpt><trkpt lat="43.38790963721187" lon="-4.240756141514483"><ele>59.33333333333333</ele><time>2026-05-01T11:25:29Z</time></trkpt><trkpt lat="43.38794281670415" lon="-4.24084956599047"><ele>58.0</ele><time>2026-05-01T11:25:30Z</time></trkpt><trkpt lat="43.38797172092882" lon="-4.2409399861517505"><ele>58.33333333333333</ele><time>2026-05-01T11:25:31Z</time></trkpt><trkpt lat="43.387997846041024" lon="-4.2410250027708"><ele>58.666666666666664</ele><time>2026-05-01T11:25:32Z</time></trkpt><trkpt lat="43.38804644048083" lon="-4.2411698788494085"><ele>59.0</ele><time>2026-05-01T11:25:34Z</time></trkpt><trkpt lat="43.388073163799284" lon="-4.241251727434613"><ele>59.33333333333333</ele><time>2026-05-01T11:25:36Z</time></trkpt><trkpt lat="43.38810904786666" lon="-4.241368306100531"><ele>59.666666666666664</ele><time>2026-05-01T11:26:45.002Z</time></trkpt><trkpt lat="43.388152710759" lon="-4.241503264995722"><ele>60.0</ele><time>2026-05-01T11:26:47.002Z</time></trkpt><trkpt lat="43.388183983253796" lon="-4.241590498612815"><ele>60.0</ele><time>2026-05-01T11:26:48.002Z</time></trkpt><trkpt lat="43.388215395778765" lon="-4.241687514574002"><ele>60.0</ele><time>2026-05-01T11:26:49.002Z</time></trkpt><trkpt lat="43.3882565185621" lon="-4.24178623902941"><ele>60.0</ele><time>2026-05-01T11:26:50.002Z</time></trkpt><trkpt lat="43.38829982694927" lon="-4.241886810323708"><ele>60.0</ele><time>2026-05-01T11:26:51.002Z</time></trkpt><trkpt lat="43.388344355622635" lon="-4.241990728205985"><ele>60.0</ele><time>2026-05-01T11:26:52.002Z</time></trkpt><trkpt lat="43.38838910664939" lon="-4.242098045290465"><ele>60.0</ele><time>2026-05-01T11:26:53.002Z</time></trkpt><trkpt lat="43.38843734838274" lon="-4.242206441932012"><ele>59.6</ele><time>2026-05-01T11:26:54.002Z</time></trkpt><trkpt lat="43.388487066761584" lon="-4.2423190251449325"><ele>59.2</ele><time>2026-05-01T11:26:55.002Z</time></trkpt><trkpt lat="43.38853523901964" lon="-4.242433669497489"><ele>58.8</ele><time>2026-05-01T11:26:56.002Z</time></trkpt><trkpt lat="43.38857996959256" lon="-4.2425512838810695"><ele>58.4</ele><time>2026-05-01T11:26:57.002Z</time></trkpt><trkpt lat="43.38862371995366" lon="-4.242671084571439"><ele>58.0</ele><time>2026-05-01T11:26:58.002Z</time></trkpt><trkpt lat="43.388664042922514" lon="-4.242794337592286"><ele>58.0</ele><time>2026-05-01T11:26:59.002Z</time></trkpt><trkpt lat="43.38869962454608" lon="-4.242924326450341"><ele>58.0</ele><time>2026-05-01T11:27:00Z</time></trkpt><trkpt lat="43.3887343587842" lon="-4.243058687928482"><ele>58.0</ele><time>2026-05-01T11:27:01Z</time></trkpt><trkpt lat="43.38876973530633" lon="-4.243188230036883"><ele>58.0</ele><time>2026-05-01T11:27:02Z</time></trkpt><trkpt lat="43.38880688581138" lon="-4.243322404437116"><ele>58.0</ele><time>2026-05-01T11:27:03Z</time></trkpt><trkpt lat="43.38884596624643" lon="-4.243462280389739"><ele>58.0</ele><time>2026-05-01T11:27:04Z</time></trkpt><trkpt lat="43.38890583439095" lon="-4.243617265822289"><ele>58.0</ele><time>2026-05-01T11:27:05Z</time></trkpt><trkpt lat="43.38897313083064" lon="-4.243794278276246"><ele>58.0</ele><time>2026-05-01T11:27:06Z</time></trkpt><trkpt lat="43.389053796527136" lon="-4.243979366777072"><ele>58.0</ele><time>2026-05-01T11:27:07Z</time></trkpt><trkpt lat="43.38908227238743" lon="-4.244204653996738"><ele>58.0</ele><time>2026-05-01T11:27:08Z</time></trkpt><trkpt lat="43.3890230537258" lon="-4.2441664775596335"><ele>58.0</ele><time>2026-05-01T11:27:09Z</time></trkpt><trkpt lat="43.389057359219926" lon="-4.244312987382904"><ele>58.0</ele><time>2026-05-01T11:27:10Z</time></trkpt><trkpt lat="43.38909109636114" lon="-4.244458858340771"><ele>58.0</ele><time>2026-05-01T11:27:11Z</time></trkpt><trkpt lat="43.389126944358125" lon="-4.244606587696919"><ele>58.0</ele><time>2026-05-01T11:27:12Z</time></trkpt><trkpt lat="43.38916003056157" lon="-4.244748640652908"><ele>57.4</ele><time>2026-05-01T11:27:13Z</time></trkpt><trkpt lat="43.38919422823273" lon="-4.244892711844851"><ele>56.8</ele><time>2026-05-01T11:27:14Z</time></trkpt><trkpt lat="43.389229738741726" lon="-4.245038908260574"><ele>56.2</ele><time>2026-05-01T11:27:15Z</time></trkpt><trkpt lat="43.38926228887935" lon="-4.245181813613599"><ele>55.6</ele><time>2026-05-01T11:27:16Z</time></trkpt><trkpt lat="43.389295910987705" lon="-4.245322190355106"><ele>55.0</ele><time>2026-05-01T11:27:17Z</time></trkpt><trkpt lat="43.38932959762213" lon="-4.245469246462276"><ele>55.0</ele><time>2026-05-01T11:27:18Z</time></trkpt><trkpt lat="43.38936259705163" lon="-4.245617533122615"><ele>55.0</ele><time>2026-05-01T11:27:19Z</time></trkpt><trkpt lat="43.38939700695003" lon="-4.245759555597998"><ele>55.0</ele><time>2026-05-01T11:27:20Z</time></trkpt><trkpt lat="43.38943057336003" lon="-4.245902945847173"><ele>55.0</ele><time>2026-05-01T11:27:21Z</time></trkpt><trkpt lat="43.3894643816088" lon="-4.246046946849033"><ele>55.0</ele><time>2026-05-01T11:27:22.001Z</time></trkpt><trkpt lat="43.38949921264018" lon="-4.246188962725411"><ele>54.4</ele><time>2026-05-01T11:27:23.001Z</time></trkpt><trkpt lat="43.38953322199719" lon="-4.246329552833084"><ele>53.8</ele><time>2026-05-01T11:27:24.001Z</time></trkpt><trkpt lat="43.38956588757376" lon="-4.246473726265706"><ele>53.2</ele><time>2026-05-01T11:27:25.001Z</time></trkpt><trkpt lat="43.38959936173527" lon="-4.246606492035381"><ele>52.6</ele><time>2026-05-01T11:27:26.001Z</time></trkpt><trkpt lat="43.38963383099301" lon="-4.246755452517849"><ele>52.0</ele><time>2026-05-01T11:27:27.001Z</time></trkpt><trkpt lat="43.389667887928965" lon="-4.2469024391165"><ele>52.25</ele><time>2026-05-01T11:27:28.001Z</time></trkpt><trkpt lat="43.38970182333531" lon="-4.247052282636555"><ele>52.5</ele><time>2026-05-01T11:27:29.001Z</time></trkpt><trkpt lat="43.38973666462033" lon="-4.24719927591017"><ele>52.75</ele><time>2026-05-01T11:27:30.001Z</time></trkpt><trkpt lat="43.38976804656974" lon="-4.247347734099099"><ele>53.0</ele><time>2026-05-01T11:27:31.001Z</time></trkpt><trkpt lat="43.38979838852929" lon="-4.247496460216385"><ele>52.0</ele><time>2026-05-01T11:27:32.001Z</time></trkpt><trkpt lat="43.3898244212487" lon="-4.247644857192002"><ele>51.0</ele><time>2026-05-01T11:27:33.001Z</time></trkpt><trkpt lat="43.38984601550536" lon="-4.247794563848167"><ele>50.0</ele><time>2026-05-01T11:27:34.001Z</time></trkpt><trkpt lat="43.38986192412223" lon="-4.2479436263621135"><ele>49.0</ele><time>2026-05-01T11:27:35.001Z</time></trkpt><trkpt lat="43.38986898373791" lon="-4.248097407960442"><ele>48.0</ele><time>2026-05-01T11:27:36.001Z</time></trkpt><trkpt lat="43.38987482534854" lon="-4.248250334482235"><ele>47.8</ele><time>2026-05-01T11:27:37.001Z</time></trkpt><trkpt lat="43.389872942339295" lon="-4.2484014071375915"><ele>47.599999999999994</ele><time>2026-05-01T11:27:38.001Z</time></trkpt><trkpt lat="43.38986621980499" lon="-4.248557065086996"><ele>47.400000000000006</ele><time>2026-05-01T11:27:39.001Z</time></trkpt><trkpt lat="43.38985248854128" lon="-4.248711266707902"><ele>47.2</ele><time>2026-05-01T11:27:40.001Z</time></trkpt><trkpt lat="43.38983588242192" lon="-4.248863567343317"><ele>47.0</ele><time>2026-05-01T11:27:41.001Z</time></trkpt><trkpt lat="43.389817616401494" lon="-4.24901104978142"><ele>46.400000000000006</ele><time>2026-05-01T11:27:42.001Z</time></trkpt><trkpt lat="43.389796876151614" lon="-4.249158259249945"><ele>45.800000000000004</ele><time>2026-05-01T11:27:43.001Z</time></trkpt><trkpt lat="43.38977480589789" lon="-4.249307872103248"><ele>45.2</ele><time>2026-05-01T11:27:44.001Z</time></trkpt><trkpt lat="43.38975139499926" lon="-4.249456163207457"><ele>44.6</ele><time>2026-05-01T11:27:45.001Z</time></trkpt><trkpt lat="43.389723194496135" lon="-4.2496051213847315"><ele>44.0</ele><time>2026-05-01T11:27:46.001Z</time></trkpt><trkpt lat="43.389694584650314" lon="-4.2497555336078"><ele>41.75</ele><time>2026-05-01T11:27:47.001Z</time></trkpt><trkpt lat="43.389668820399976" lon="-4.2499064840918805"><ele>39.5</ele><time>2026-05-01T11:27:48.001Z</time></trkpt><trkpt lat="43.389645789601445" lon="-4.250060719197959"><ele>37.25</ele><time>2026-05-01T11:27:49.001Z</time></trkpt><trkpt lat="43.38962452102117" lon="-4.2502161384297565"><ele>35.0</ele><time>2026-05-01T11:27:50.001Z</time></trkpt><trkpt lat="43.38960217209511" lon="-4.250372908421355"><ele>35.0</ele><time>2026-05-01T11:27:51.001Z</time></trkpt><trkpt lat="43.38958339681899" lon="-4.2505269981604865"><ele>35.0</ele><time>2026-05-01T11:27:52.001Z</time></trkpt><trkpt lat="43.38956687688443" lon="-4.250682761750523"><ele>35.0</ele><time>2026-05-01T11:27:53.001Z</time></trkpt><trkpt lat="43.38955619999592" lon="-4.250840519338232"><ele>35.0</ele><time>2026-05-01T11:27:54.001Z</time></trkpt><trkpt lat="43.38954811338583" lon="-4.250997175586733"><ele>33.75</ele><time>2026-05-01T11:27:55.001Z</time></trkpt><trkpt lat="43.38954131577041" lon="-4.25115621293176"><ele>32.5</ele><time>2026-05-01T11:27:56.001Z</time></trkpt><trkpt lat="43.38953508332968" lon="-4.251317125272294"><ele>31.25</ele><time>2026-05-01T11:27:57.001Z</time></trkpt><trkpt lat="43.38953179894952" lon="-4.2514781781361695"><ele>30.0</ele><time>2026-05-01T11:27:58.001Z</time></trkpt><trkpt lat="43.389534710566814" lon="-4.2516356387731555"><ele>29.75</ele><time>2026-05-01T11:27:59.001Z</time></trkpt><trkpt lat="43.389540894439584" lon="-4.251792019484588"><ele>29.5</ele><time>2026-05-01T11:28:00.001Z</time></trkpt><trkpt lat="43.389550787433" lon="-4.25194545823649"><ele>29.25</ele><time>2026-05-01T11:28:01.001Z</time></trkpt><trkpt lat="43.38956112232623" lon="-4.2521003582587475"><ele>29.0</ele><time>2026-05-01T11:28:02.001Z</time></trkpt><trkpt lat="43.389572367139046" lon="-4.252254610765381"><ele>29.25</ele><time>2026-05-01T11:28:03.001Z</time></trkpt><trkpt lat="43.389592059469095" lon="-4.252406216451793"><ele>29.5</ele><time>2026-05-01T11:28:04.001Z</time></trkpt><trkpt lat="43.389611837815444" lon="-4.252559532200751"><ele>29.75</ele><time>2026-05-01T11:28:05.001Z</time></trkpt><trkpt lat="43.38963558696204" lon="-4.252712600632142"><ele>30.0</ele><time>2026-05-01T11:28:06.001Z</time></trkpt><trkpt lat="43.38965974343427" lon="-4.252865265003408"><ele>32.0</ele><time>2026-05-01T11:28:07.001Z</time></trkpt><trkpt lat="43.38968717423924" lon="-4.253014163521946"><ele>34.0</ele><time>2026-05-01T11:28:08.001Z</time></trkpt><trkpt lat="43.38971433969905" lon="-4.253161109020299"><ele>36.0</ele><time>2026-05-01T11:28:09.001Z</time></trkpt><trkpt lat="43.38974173565207" lon="-4.253306050756167"><ele>38.0</ele><time>2026-05-01T11:28:10.001Z</time></trkpt><trkpt lat="43.38977089972645" lon="-4.253449120448349"><ele>40.0</ele><time>2026-05-01T11:28:11.001Z</time></trkpt><trkpt lat="43.38979778048131" lon="-4.253589240599823"><ele>40.0</ele><time>2026-05-01T11:28:12.001Z</time></trkpt><trkpt lat="43.3898270904967" lon="-4.253732567823851"><ele>40.0</ele><time>2026-05-01T11:28:13.001Z</time></trkpt><trkpt lat="43.38985465037496" lon="-4.253875985833495"><ele>40.0</ele><time>2026-05-01T11:28:14.001Z</time></trkpt><trkpt lat="43.38988201879035" lon="-4.2540174040019325"><ele>40.0</ele><time>2026-05-01T11:28:15.001Z</time></trkpt><trkpt lat="43.38990970916508" lon="-4.254152104264135"><ele>40.0</ele><time>2026-05-01T11:28:16.001Z</time></trkpt><trkpt lat="43.389934603172506" lon="-4.254308559327399"><ele>39.75</ele><time>2026-05-01T11:28:17.001Z</time></trkpt><trkpt lat="43.38996860245014" lon="-4.254521502372202"><ele>39.5</ele><time>2026-05-01T11:28:18.001Z</time></trkpt><trkpt lat="43.38997832510682" lon="-4.254733321054172"><ele>39.25</ele><time>2026-05-01T11:28:19.001Z</time></trkpt><trkpt lat="43.38999859876129" lon="-4.254879538553775"><ele>39.0</ele><time>2026-05-01T11:28:21.001Z</time></trkpt><trkpt lat="43.39000945347976" lon="-4.255028485095572"><ele>39.0</ele><time>2026-05-01T11:28:22.001Z</time></trkpt><trkpt lat="43.3900144362244" lon="-4.255174878668104"><ele>39.0</ele><time>2026-05-01T11:28:23.001Z</time></trkpt><trkpt lat="43.39002285780543" lon="-4.255330777835395"><ele>39.0</ele><time>2026-05-01T11:28:24.001Z</time></trkpt><trkpt lat="43.39003085309763" lon="-4.255480898297837"><ele>39.0</ele><time>2026-05-01T11:28:25.001Z</time></trkpt><trkpt lat="43.39003782269792" lon="-4.255631437223907"><ele>39.0</ele><time>2026-05-01T11:28:26.001Z</time></trkpt><trkpt lat="43.39004352968815" lon="-4.2557754814374675"><ele>38.8</ele><time>2026-05-01T11:28:27.001Z</time></trkpt><trkpt lat="43.390049914156585" lon="-4.255921788924952"><ele>38.599999999999994</ele><time>2026-05-01T11:28:28.001Z</time></trkpt><trkpt lat="43.390058979178065" lon="-4.256072034012132"><ele>38.4</ele><time>2026-05-01T11:28:29.001Z</time></trkpt><trkpt lat="43.3900679605475" lon="-4.256224672653511"><ele>38.199999999999996</ele><time>2026-05-01T11:28:30.001Z</time></trkpt><trkpt lat="43.39007292751143" lon="-4.256379224110444"><ele>38.0</ele><time>2026-05-01T11:28:31.001Z</time></trkpt><trkpt lat="43.39007974892094" lon="-4.256529077903488"><ele>37.8</ele><time>2026-05-01T11:28:32.002Z</time></trkpt><trkpt lat="43.390087394081995" lon="-4.256678690529394"><ele>37.599999999999994</ele><time>2026-05-01T11:28:33.002Z</time></trkpt><trkpt lat="43.39009210446214" lon="-4.256835943423345"><ele>37.400000000000006</ele><time>2026-05-01T11:28:34.002Z</time></trkpt><trkpt lat="43.390098966932484" lon="-4.256994088226585"><ele>37.2</ele><time>2026-05-01T11:28:35.002Z</time></trkpt><trkpt lat="43.39010166553832" lon="-4.257141851431023"><ele>37.0</ele><time>2026-05-01T11:28:36.002Z</time></trkpt><trkpt lat="43.39010645832321" lon="-4.257295073160584"><ele>36.4</ele><time>2026-05-01T11:28:37.002Z</time></trkpt><trkpt lat="43.39010755002162" lon="-4.257448071968178"><ele>35.800000000000004</ele><time>2026-05-01T11:28:38.002Z</time></trkpt><trkpt lat="43.39011305897141" lon="-4.257606807621426"><ele>35.2</ele><time>2026-05-01T11:28:39.002Z</time></trkpt><trkpt lat="43.39011822005106" lon="-4.257755969802661"><ele>34.6</ele><time>2026-05-01T11:28:40.002Z</time></trkpt><trkpt lat="43.39012359756002" lon="-4.257911804570762"><ele>34.0</ele><time>2026-05-01T11:28:41.002Z</time></trkpt><trkpt lat="43.39012880461791" lon="-4.25806781174523"><ele>33.2</ele><time>2026-05-01T11:28:42.002Z</time></trkpt><trkpt lat="43.390139280086174" lon="-4.258227377510639"><ele>32.4</ele><time>2026-05-01T11:28:43.002Z</time></trkpt><trkpt lat="43.390144889520016" lon="-4.258378158641043"><ele>31.6</ele><time>2026-05-01T11:28:44.002Z</time></trkpt><trkpt lat="43.3901438318515" lon="-4.258528038305959"><ele>30.8</ele><time>2026-05-01T11:28:45.002Z</time></trkpt><trkpt lat="43.39014433991131" lon="-4.25868265818029"><ele>30.0</ele><time>2026-05-01T11:28:46.002Z</time></trkpt><trkpt lat="43.390155509023764" lon="-4.258843744592139"><ele>29.8</ele><time>2026-05-01T11:28:47.002Z</time></trkpt><trkpt lat="43.390135424884164" lon="-4.258952513611399"><ele>29.6</ele><time>2026-05-01T11:28:48.002Z</time></trkpt><trkpt lat="43.39012248965574" lon="-4.2590943282203755"><ele>29.4</ele><time>2026-05-01T11:28:49.002Z</time></trkpt><trkpt lat="43.390105455111645" lon="-4.259240430702827"><ele>29.2</ele><time>2026-05-01T11:28:50.002Z</time></trkpt><trkpt lat="43.39008771089937" lon="-4.259389002606507"><ele>29.0</ele><time>2026-05-01T11:28:51.002Z</time></trkpt><trkpt lat="43.39006618029699" lon="-4.2595463717584074"><ele>29.0</ele><time>2026-05-01T11:28:52.002Z</time></trkpt><trkpt lat="43.39005095322316" lon="-4.259695551945077"><ele>29.0</ele><time>2026-05-01T11:28:53.002Z</time></trkpt><trkpt lat="43.39003137617952" lon="-4.259848441834917"><ele>29.0</ele><time>2026-05-01T11:28:54.002Z</time></trkpt><trkpt lat="43.390007593567304" lon="-4.259992321149146"><ele>29.0</ele><time>2026-05-01T11:28:55.002Z</time></trkpt><trkpt lat="43.38997393580286" lon="-4.260142981420706"><ele>29.0</ele><time>2026-05-01T11:28:56.002Z</time></trkpt><trkpt lat="43.389946414217334" lon="-4.2602947005107294"><ele>29.75</ele><time>2026-05-01T11:28:57.002Z</time></trkpt><trkpt lat="43.38993627253064" lon="-4.260446967170818"><ele>30.5</ele><time>2026-05-01T11:28:58.002Z</time></trkpt><trkpt lat="43.389920570730446" lon="-4.260600352850211"><ele>31.25</ele><time>2026-05-01T11:28:59.002Z</time></trkpt><trkpt lat="43.38989543174599" lon="-4.260755151712737"><ele>32.0</ele><time>2026-05-01T11:29:00.002Z</time></trkpt><trkpt lat="43.38986975568347" lon="-4.260906208870826"><ele>32.0</ele><time>2026-05-01T11:29:01.002Z</time></trkpt><trkpt lat="43.38984719112353" lon="-4.261056678463215"><ele>32.0</ele><time>2026-05-01T11:29:02.002Z</time></trkpt><trkpt lat="43.38981990784499" lon="-4.2612082590762865"><ele>32.0</ele><time>2026-05-01T11:29:03.002Z</time></trkpt><trkpt lat="43.38979445931103" lon="-4.26135945729743"><ele>32.0</ele><time>2026-05-01T11:29:04.002Z</time></trkpt><trkpt lat="43.3897709058093" lon="-4.261509010176948"><ele>32.0</ele><time>2026-05-01T11:29:05.002Z</time></trkpt><trkpt lat="43.38974425162225" lon="-4.261659998781587"><ele>31.75</ele><time>2026-05-01T11:29:06.001Z</time></trkpt><trkpt lat="43.38971815478988" lon="-4.261807618726036"><ele>31.5</ele><time>2026-05-01T11:29:07.001Z</time></trkpt><trkpt lat="43.38969550509708" lon="-4.261956584458222"><ele>31.25</ele><time>2026-05-01T11:29:08.001Z</time></trkpt><trkpt lat="43.3896728793405" lon="-4.262111697492947"><ele>31.0</ele><time>2026-05-01T11:29:09.001Z</time></trkpt><trkpt lat="43.38964939158827" lon="-4.262265893426341"><ele>27.0</ele><time>2026-05-01T11:29:10.001Z</time></trkpt><trkpt lat="43.38962656143496" lon="-4.262421793960343"><ele>23.0</ele><time>2026-05-01T11:29:11.001Z</time></trkpt><trkpt lat="43.38959845553238" lon="-4.2625804268003495"><ele>19.0</ele><time>2026-05-01T11:29:12.001Z</time></trkpt><trkpt lat="43.38957018708875" lon="-4.262738202992801"><ele>15.0</ele><time>2026-05-01T11:29:13.001Z</time></trkpt><trkpt lat="43.389540726038064" lon="-4.2628951603248755"><ele>15.0</ele><time>2026-05-01T11:29:14.001Z</time></trkpt><trkpt lat="43.38951096018929" lon="-4.263053168213407"><ele>15.0</ele><time>2026-05-01T11:29:15.001Z</time></trkpt><trkpt lat="43.389477024355365" lon="-4.263209862329449"><ele>15.0</ele><time>2026-05-01T11:29:16.001Z</time></trkpt><trkpt lat="43.38944051972294" lon="-4.2633629412023835"><ele>15.0</ele><time>2026-05-01T11:29:17.001Z</time></trkpt><trkpt lat="43.38940444269909" lon="-4.263519169045816"><ele>15.0</ele><time>2026-05-01T11:29:18.001Z</time></trkpt><trkpt lat="43.38936651406395" lon="-4.263671540567727"><ele>15.0</ele><time>2026-05-01T11:29:19.001Z</time></trkpt><trkpt lat="43.389325568221885" lon="-4.263821086083755"><ele>15.0</ele><time>2026-05-01T11:29:20.001Z</time></trkpt><trkpt lat="43.38928438105652" lon="-4.263967976725911"><ele>15.0</ele><time>2026-05-01T11:29:21Z</time></trkpt><trkpt lat="43.38924551512181" lon="-4.264119498364171"><ele>14.8</ele><time>2026-05-01T11:29:22Z</time></trkpt><trkpt lat="43.38920661675362" lon="-4.264259627542465"><ele>14.6</ele><time>2026-05-01T11:29:23Z</time></trkpt><trkpt lat="43.38916594559833" lon="-4.264403823343154"><ele>14.399999999999999</ele><time>2026-05-01T11:29:24Z</time></trkpt><trkpt lat="43.38912788499436" lon="-4.264548520707509"><ele>14.2</ele><time>2026-05-01T11:29:25Z</time></trkpt><trkpt lat="43.38909009076329" lon="-4.264694010286165"><ele>14.0</ele><time>2026-05-01T11:29:26Z</time></trkpt><trkpt lat="43.38905313542608" lon="-4.264835961631425"><ele>15.2</ele><time>2026-05-01T11:29:27Z</time></trkpt><trkpt lat="43.389015328189075" lon="-4.264979343219116"><ele>16.4</ele><time>2026-05-01T11:29:28Z</time></trkpt><trkpt lat="43.38897933491323" lon="-4.265119091435163"><ele>17.6</ele><time>2026-05-01T11:29:29Z</time></trkpt><trkpt lat="43.38894520238274" lon="-4.265254623949595"><ele>18.8</ele><time>2026-05-01T11:29:30Z</time></trkpt><trkpt lat="43.38890697831995" lon="-4.2654018084591945"><ele>20.0</ele><time>2026-05-01T11:29:31Z</time></trkpt><trkpt lat="43.388883323658966" lon="-4.265526191186899"><ele>20.0</ele><time>2026-05-01T11:29:32Z</time></trkpt><trkpt lat="43.38884944841108" lon="-4.265660151410049"><ele>20.0</ele><time>2026-05-01T11:29:33.001Z</time></trkpt><trkpt lat="43.38881327345599" lon="-4.265789800273304"><ele>20.0</ele><time>2026-05-01T11:29:34.001Z</time></trkpt><trkpt lat="43.38877838411649" lon="-4.265919266459174"><ele>20.0</ele><time>2026-05-01T11:29:35.001Z</time></trkpt><trkpt lat="43.388744194731416" lon="-4.2660427530401375"><ele>20.0</ele><time>2026-05-01T11:29:36.001Z</time></trkpt><trkpt lat="43.38871065271233" lon="-4.266164656061763"><ele>20.0</ele><time>2026-05-01T11:29:37.001Z</time></trkpt><trkpt lat="43.38868028064529" lon="-4.266287883717104"><ele>20.0</ele><time>2026-05-01T11:29:38.001Z</time></trkpt><trkpt lat="43.3886442772078" lon="-4.266410776834007"><ele>20.0</ele><time>2026-05-01T11:29:39.001Z</time></trkpt><trkpt lat="43.388611904356395" lon="-4.266534795751537"><ele>20.0</ele><time>2026-05-01T11:29:40.001Z</time></trkpt><trkpt lat="43.38858044063729" lon="-4.266657493745009"><ele>20.0</ele><time>2026-05-01T11:29:41.001Z</time></trkpt><trkpt lat="43.38854859883586" lon="-4.266779736753828"><ele>20.8</ele><time>2026-05-01T11:29:42.001Z</time></trkpt><trkpt lat="43.388517436994455" lon="-4.266900196395498"><ele>21.6</ele><time>2026-05-01T11:29:43.001Z</time></trkpt><trkpt lat="43.38848196388139" lon="-4.267024456467204"><ele>22.4</ele><time>2026-05-01T11:29:44.001Z</time></trkpt><trkpt lat="43.388450626746696" lon="-4.267146256468005"><ele>23.2</ele><time>2026-05-01T11:29:45.001Z</time></trkpt><trkpt lat="43.38841803036782" lon="-4.267269962355556"><ele>24.0</ele><time>2026-05-01T11:29:46.001Z</time></trkpt><trkpt lat="43.38838522537334" lon="-4.267395492281458"><ele>24.6</ele><time>2026-05-01T11:29:47.001Z</time></trkpt><trkpt lat="43.388354115043256" lon="-4.267523460540701"><ele>25.2</ele><time>2026-05-01T11:29:48.001Z</time></trkpt><trkpt lat="43.38832041066592" lon="-4.267652906675851"><ele>25.800000000000004</ele><time>2026-05-01T11:29:49.001Z</time></trkpt><trkpt lat="43.38828630835304" lon="-4.267791831192716"><ele>26.400000000000002</ele><time>2026-05-01T11:29:50.001Z</time></trkpt><trkpt lat="43.38824663415234" lon="-4.2679315346259"><ele>27.0</ele><time>2026-05-01T11:29:51.001Z</time></trkpt><trkpt lat="43.388218409847475" lon="-4.268080111957292"><ele>27.400000000000002</ele><time>2026-05-01T11:29:52.001Z</time></trkpt><trkpt lat="43.38820166588751" lon="-4.26823202046918"><ele>27.800000000000004</ele><time>2026-05-01T11:29:53.001Z</time></trkpt><trkpt lat="43.38818670762034" lon="-4.268384135623465"><ele>28.2</ele><time>2026-05-01T11:29:54.001Z</time></trkpt><trkpt lat="43.388172457168956" lon="-4.268537598421681"><ele>28.6</ele><time>2026-05-01T11:29:55.001Z</time></trkpt><trkpt lat="43.38817004779701" lon="-4.268691589326605"><ele>29.0</ele><time>2026-05-01T11:29:56.001Z</time></trkpt><trkpt lat="43.388168645240334" lon="-4.268845504347614"><ele>28.4</ele><time>2026-05-01T11:29:57.001Z</time></trkpt><trkpt lat="43.3881709092681" lon="-4.269000033696252"><ele>27.799999999999997</ele><time>2026-05-01T11:29:58.001Z</time></trkpt><trkpt lat="43.38817471586093" lon="-4.269151746332997"><ele>27.200000000000003</ele><time>2026-05-01T11:29:59.001Z</time></trkpt><trkpt lat="43.3881754922658" lon="-4.269302273321219"><ele>26.6</ele><time>2026-05-01T11:30:00.001Z</time></trkpt><trkpt lat="43.38817431415259" lon="-4.269451847554711"><ele>26.0</ele><time>2026-05-01T11:30:01.001Z</time></trkpt><trkpt lat="43.388186069869015" lon="-4.2695908211028994"><ele>26.0</ele><time>2026-05-01T11:30:02.001Z</time></trkpt><trkpt lat="43.38823123846599" lon="-4.269734341943302"><ele>26.0</ele><time>2026-05-01T11:30:03.001Z</time></trkpt><trkpt lat="43.38823825819974" lon="-4.269884884377534"><ele>26.0</ele><time>2026-05-01T11:30:04.001Z</time></trkpt><trkpt lat="43.38818334598616" lon="-4.270041737728663"><ele>26.0</ele><time>2026-05-01T11:30:05.001Z</time></trkpt><trkpt lat="43.38818625379502" lon="-4.270190659782839"><ele>25.4</ele><time>2026-05-01T11:30:06.001Z</time></trkpt><trkpt lat="43.38819312452216" lon="-4.27034412307009"><ele>24.8</ele><time>2026-05-01T11:30:07.001Z</time></trkpt><trkpt lat="43.388196303133505" lon="-4.270497112002013"><ele>24.2</ele><time>2026-05-01T11:30:08.001Z</time></trkpt><trkpt lat="43.388201657453976" lon="-4.270654148370454"><ele>23.599999999999998</ele><time>2026-05-01T11:30:09.001Z</time></trkpt><trkpt lat="43.38820597621004" lon="-4.270803864329249"><ele>23.0</ele><time>2026-05-01T11:30:10.001Z</time></trkpt><trkpt lat="43.388208971564254" lon="-4.270955663710576"><ele>23.0</ele><time>2026-05-01T11:30:11.001Z</time></trkpt><trkpt lat="43.38821255220011" lon="-4.271107788349476"><ele>23.0</ele><time>2026-05-01T11:30:12.001Z</time></trkpt><trkpt lat="43.38821220680506" lon="-4.271258893865555"><ele>23.0</ele><time>2026-05-01T11:30:13.001Z</time></trkpt><trkpt lat="43.38821154441405" lon="-4.271408383253601"><ele>23.0</ele><time>2026-05-01T11:30:14.001Z</time></trkpt><trkpt lat="43.38821996017801" lon="-4.271566134767229"><ele>23.0</ele><time>2026-05-01T11:30:15.001Z</time></trkpt><trkpt lat="43.388223062336195" lon="-4.271722144903341"><ele>22.799999999999997</ele><time>2026-05-01T11:30:16.001Z</time></trkpt><trkpt lat="43.388227064537936" lon="-4.2718716970169"><ele>22.6</ele><time>2026-05-01T11:30:17.001Z</time></trkpt><trkpt lat="43.388230119387146" lon="-4.272025258010817"><ele>22.4</ele><time>2026-05-01T11:30:18.001Z</time></trkpt><trkpt lat="43.388237712276315" lon="-4.272178117354775"><ele>22.200000000000003</ele><time>2026-05-01T11:30:19.001Z</time></trkpt><trkpt lat="43.38824296749004" lon="-4.2723329251799935"><ele>22.0</ele><time>2026-05-01T11:30:20.001Z</time></trkpt><trkpt lat="43.38824614215283" lon="-4.272487401458238"><ele>21.6</ele><time>2026-05-01T11:30:21.001Z</time></trkpt><trkpt lat="43.38824803224135" lon="-4.272643616922401"><ele>21.200000000000003</ele><time>2026-05-01T11:30:22.001Z</time></trkpt><trkpt lat="43.38825099121565" lon="-4.272791337670857"><ele>20.8</ele><time>2026-05-01T11:30:23.001Z</time></trkpt><trkpt lat="43.3882539929639" lon="-4.272946453845044"><ele>20.4</ele><time>2026-05-01T11:30:24.001Z</time></trkpt><trkpt lat="43.38825675462978" lon="-4.273102655730845"><ele>20.0</ele><time>2026-05-01T11:30:25.001Z</time></trkpt><trkpt lat="43.38825815470267" lon="-4.273251782325728"><ele>19.0</ele><time>2026-05-01T11:30:26.001Z</time></trkpt><trkpt lat="43.388261973525594" lon="-4.273409588707547"><ele>18.0</ele><time>2026-05-01T11:30:27.001Z</time></trkpt><trkpt lat="43.38826829743829" lon="-4.273567017088546"><ele>17.0</ele><time>2026-05-01T11:30:28.001Z</time></trkpt><trkpt lat="43.38827250202421" lon="-4.273718708760483"><ele>16.0</ele><time>2026-05-01T11:30:29.001Z</time></trkpt><trkpt lat="43.38827407709997" lon="-4.273871443688816"><ele>15.8</ele><time>2026-05-01T11:30:30.001Z</time></trkpt><trkpt lat="43.38827631558471" lon="-4.274023791169169"><ele>15.600000000000001</ele><time>2026-05-01T11:30:31.001Z</time></trkpt><trkpt lat="43.38827948278534" lon="-4.274178218454311"><ele>15.4</ele><time>2026-05-01T11:30:32.001Z</time></trkpt><trkpt lat="43.388282866968645" lon="-4.2743325469952715"><ele>15.2</ele><time>2026-05-01T11:30:33.001Z</time></trkpt><trkpt lat="43.388287933160065" lon="-4.274483688926734"><ele>15.0</ele><time>2026-05-01T11:30:34.001Z</time></trkpt><trkpt lat="43.388290892763166" lon="-4.274638835727847"><ele>15.6</ele><time>2026-05-01T11:30:35.001Z</time></trkpt><trkpt lat="43.38829416126938" lon="-4.274788428340348"><ele>16.2</ele><time>2026-05-01T11:30:36.001Z</time></trkpt><trkpt lat="43.38830111808611" lon="-4.274941958739463"><ele>16.8</ele><time>2026-05-01T11:30:37.001Z</time></trkpt><trkpt lat="43.38830502135704" lon="-4.275086999530554"><ele>17.4</ele><time>2026-05-01T11:30:38.001Z</time></trkpt><trkpt lat="43.38830586123201" lon="-4.2752357201835816"><ele>18.0</ele><time>2026-05-01T11:30:39.001Z</time></trkpt><trkpt lat="43.388305788949744" lon="-4.275385485992339"><ele>18.0</ele><time>2026-05-01T11:30:40.001Z</time></trkpt><trkpt lat="43.38830559612172" lon="-4.275525545755085"><ele>18.0</ele><time>2026-05-01T11:30:41.001Z</time></trkpt><trkpt lat="43.38830833417719" lon="-4.275673986715581"><ele>18.0</ele><time>2026-05-01T11:30:42.001Z</time></trkpt><trkpt lat="43.388320557898226" lon="-4.275818695793986"><ele>18.0</ele><time>2026-05-01T11:30:43.001Z</time></trkpt><trkpt lat="43.38832591166898" lon="-4.275961500984951"><ele>18.0</ele><time>2026-05-01T11:30:44.001Z</time></trkpt><trkpt lat="43.388327372504065" lon="-4.27609979729013"><ele>18.6</ele><time>2026-05-01T11:30:45.001Z</time></trkpt><trkpt lat="43.388329399892385" lon="-4.2762412431012455"><ele>19.200000000000003</ele><time>2026-05-01T11:30:46.001Z</time></trkpt><trkpt lat="43.38833132096394" lon="-4.276381883720363"><ele>19.8</ele><time>2026-05-01T11:30:47.001Z</time></trkpt><trkpt lat="43.388332245155986" lon="-4.27652789461526"><ele>20.400000000000002</ele><time>2026-05-01T11:30:48.001Z</time></trkpt><trkpt lat="43.38833801250204" lon="-4.276680411471601"><ele>21.0</ele><time>2026-05-01T11:30:49.001Z</time></trkpt><trkpt lat="43.388345236786165" lon="-4.2768313275494485"><ele>21.4</ele><time>2026-05-01T11:30:50.001Z</time></trkpt><trkpt lat="43.38834945333679" lon="-4.276980622961892"><ele>21.8</ele><time>2026-05-01T11:30:51.001Z</time></trkpt><trkpt lat="43.38835413938812" lon="-4.277132971213858"><ele>22.2</ele><time>2026-05-01T11:30:52.001Z</time></trkpt><trkpt lat="43.38836221874503" lon="-4.277282203592483"><ele>22.599999999999998</ele><time>2026-05-01T11:30:53.001Z</time></trkpt><trkpt lat="43.38837420226586" lon="-4.277430499387767"><ele>23.0</ele><time>2026-05-01T11:30:54.001Z</time></trkpt><trkpt lat="43.38838501223658" lon="-4.277590523708943"><ele>22.2</ele><time>2026-05-01T11:30:55.002Z</time></trkpt><trkpt lat="43.38838211003449" lon="-4.2777499521914555"><ele>21.4</ele><time>2026-05-01T11:30:56.002Z</time></trkpt><trkpt lat="43.38837043709934" lon="-4.277903353088473"><ele>20.599999999999998</ele><time>2026-05-01T11:30:57.002Z</time></trkpt><trkpt lat="43.38834960217477" lon="-4.2780504909656045"><ele>19.799999999999997</ele><time>2026-05-01T11:30:58.002Z</time></trkpt><trkpt lat="43.3883215735125" lon="-4.278192708298737"><ele>19.0</ele><time>2026-05-01T11:30:59.002Z</time></trkpt><trkpt lat="43.388289304540024" lon="-4.2783419107379626"><ele>17.0</ele><time>2026-05-01T11:31:00.002Z</time></trkpt><trkpt lat="43.38824541460436" lon="-4.27849104290475"><ele>15.0</ele><time>2026-05-01T11:31:01.002Z</time></trkpt><trkpt lat="43.38819379795151" lon="-4.2786393657335315"><ele>13.0</ele><time>2026-05-01T11:31:02.002Z</time></trkpt><trkpt lat="43.38814347951494" lon="-4.278776487698173"><ele>11.0</ele><time>2026-05-01T11:31:03.002Z</time></trkpt><trkpt lat="43.38807438244382" lon="-4.278892508017881"><ele>9.833333333333332</ele><time>2026-05-01T11:31:04.002Z</time></trkpt><trkpt lat="43.38801600966909" lon="-4.279006272669234"><ele>8.666666666666666</ele><time>2026-05-01T11:31:05.002Z</time></trkpt><trkpt lat="43.3879674354195" lon="-4.279098043447509"><ele>7.5</ele><time>2026-05-01T11:31:06.002Z</time></trkpt><trkpt lat="43.38791315243515" lon="-4.279228235107617"><ele>6.333333333333333</ele><time>2026-05-01T11:31:08.002Z</time></trkpt><trkpt lat="43.38792198533763" lon="-4.279322119742962"><ele>5.166666666666666</ele><time>2026-05-01T11:31:11.002Z</time></trkpt><trkpt lat="43.3879234867416" lon="-4.279414939298669"><ele>4.0</ele><time>2026-05-01T11:35:39.998Z</time></trkpt><trkpt lat="43.38785825769219" lon="-4.2794208380165815"><ele>5.333333333333333</ele><time>2026-05-01T11:45:44.003Z</time></trkpt><trkpt lat="43.387822403681184" lon="-4.279493677084385"><ele>6.666666666666666</ele><time>2026-05-01T11:45:53.003Z</time></trkpt><trkpt lat="43.38776245379597" lon="-4.279542976039296"><ele>8.0</ele><time>2026-05-01T11:47:52.003Z</time></trkpt><trkpt lat="43.387700987853485" lon="-4.279643075683112"><ele>9.333333333333334</ele><time>2026-05-01T11:47:56.003Z</time></trkpt><trkpt lat="43.3876347645967" lon="-4.279784868187394"><ele>10.666666666666666</ele><time>2026-05-01T11:47:58.003Z</time></trkpt><trkpt lat="43.38760016095115" lon="-4.279869646850163"><ele>12.0</ele><time>2026-05-01T11:47:59.003Z</time></trkpt><trkpt lat="43.38756958351919" lon="-4.2799640466862785"><ele>12.0</ele><time>2026-05-01T11:48:00.001Z</time></trkpt><trkpt lat="43.387537896807956" lon="-4.280063064840378"><ele>12.0</ele><time>2026-05-01T11:48:01.001Z</time></trkpt><trkpt lat="43.387510823709995" lon="-4.280165971543279"><ele>12.0</ele><time>2026-05-01T11:48:02.001Z</time></trkpt><trkpt lat="43.38747010491316" lon="-4.280261848918629"><ele>12.0</ele><time>2026-05-01T11:48:03.001Z</time></trkpt><trkpt lat="43.38740865233086" lon="-4.280345553201425"><ele>12.0</ele><time>2026-05-01T11:48:04.001Z</time></trkpt><trkpt lat="43.387335074983" lon="-4.280411392722269"><ele>12.0</ele><time>2026-05-01T11:48:05.001Z</time></trkpt><trkpt lat="43.387253281868645" lon="-4.280465162000721"><ele>12.166666666666666</ele><time>2026-05-01T11:48:06.001Z</time></trkpt><trkpt lat="43.387176936794866" lon="-4.280529101220305"><ele>12.333333333333332</ele><time>2026-05-01T11:48:07.001Z</time></trkpt><trkpt lat="43.38711183143843" lon="-4.2806091970138755"><ele>12.5</ele><time>2026-05-01T11:48:08.001Z</time></trkpt><trkpt lat="43.38706203051443" lon="-4.280705023921901"><ele>12.666666666666666</ele><time>2026-05-01T11:48:09.001Z</time></trkpt><trkpt lat="43.387034463642806" lon="-4.280809648791203"><ele>12.833333333333332</ele><time>2026-05-01T11:48:10.001Z</time></trkpt><trkpt lat="43.38701795804604" lon="-4.280918843207691"><ele>13.0</ele><time>2026-05-01T11:48:11.001Z</time></trkpt><trkpt lat="43.38701198331403" lon="-4.281029550846337"><ele>12.999999999999998</ele><time>2026-05-01T11:48:12.001Z</time></trkpt><trkpt lat="43.38701254983056" lon="-4.281141674833561"><ele>13.0</ele><time>2026-05-01T11:48:13Z</time></trkpt><trkpt lat="43.387014642012396" lon="-4.281251089022021"><ele>13.0</ele><time>2026-05-01T11:48:14Z</time></trkpt><trkpt lat="43.387021875024026" lon="-4.281359099523972"><ele>13.0</ele><time>2026-05-01T11:48:15.001Z</time></trkpt><trkpt lat="43.38704445407162" lon="-4.281471078925847"><ele>12.999999999999998</ele><time>2026-05-01T11:48:16.001Z</time></trkpt><trkpt lat="43.38708657729003" lon="-4.281573888524963"><ele>13.0</ele><time>2026-05-01T11:48:17.001Z</time></trkpt><trkpt lat="43.38713369089351" lon="-4.28167477852002"><ele>12.200000000000001</ele><time>2026-05-01T11:48:18.001Z</time></trkpt><trkpt lat="43.38718403600002" lon="-4.2817777187533705"><ele>11.4</ele><time>2026-05-01T11:48:19.001Z</time></trkpt><trkpt lat="43.387241527594234" lon="-4.281880214734143"><ele>10.600000000000001</ele><time>2026-05-01T11:48:20.001Z</time></trkpt><trkpt lat="43.38730290583581" lon="-4.281981459817488"><ele>9.8</ele><time>2026-05-01T11:48:21.001Z</time></trkpt><trkpt lat="43.38737271634615" lon="-4.282087695435689"><ele>9.0</ele><time>2026-05-01T11:48:22.001Z</time></trkpt><trkpt lat="43.387448025027" lon="-4.282186846845003"><ele>10.2</ele><time>2026-05-01T11:48:23.001Z</time></trkpt><trkpt lat="43.387525248902556" lon="-4.282292032916547"><ele>11.4</ele><time>2026-05-01T11:48:24.001Z</time></trkpt><trkpt lat="43.387599436732316" lon="-4.28239195368555"><ele>12.6</ele><time>2026-05-01T11:48:25.001Z</time></trkpt><trkpt lat="43.38767887762081" lon="-4.282504356323516"><ele>13.8</ele><time>2026-05-01T11:48:26.001Z</time></trkpt><trkpt lat="43.38775376145414" lon="-4.28261142397182"><ele>15.0</ele><time>2026-05-01T11:48:27.001Z</time></trkpt><trkpt lat="43.38782668058968" lon="-4.2827262004701865"><ele>15.0</ele><time>2026-05-01T11:48:28.001Z</time></trkpt><trkpt lat="43.38791177262165" lon="-4.282829819308452"><ele>15.0</ele><time>2026-05-01T11:48:29.001Z</time></trkpt><trkpt lat="43.3879740502545" lon="-4.282932873414461"><ele>15.0</ele><time>2026-05-01T11:48:30.001Z</time></trkpt><trkpt lat="43.38804449494627" lon="-4.283042307007168"><ele>15.0</ele><time>2026-05-01T11:48:31.001Z</time></trkpt><trkpt lat="43.38811599184823" lon="-4.283150498174275"><ele>15.0</ele><time>2026-05-01T11:48:32.001Z</time></trkpt><trkpt lat="43.38816488723317" lon="-4.283272639503601"><ele>14.2</ele><time>2026-05-01T11:48:33.001Z</time></trkpt><trkpt lat="43.388201582481216" lon="-4.283411074866259"><ele>13.4</ele><time>2026-05-01T11:48:34.001Z</time></trkpt><trkpt lat="43.38822056623947" lon="-4.283553345793303"><ele>12.600000000000001</ele><time>2026-05-01T11:48:35.001Z</time></trkpt><trkpt lat="43.388234706988015" lon="-4.283695077482189"><ele>11.8</ele><time>2026-05-01T11:48:36.001Z</time></trkpt><trkpt lat="43.388246633244094" lon="-4.283836948444684"><ele>11.0</ele><time>2026-05-01T11:48:37.001Z</time></trkpt><trkpt lat="43.388258442214706" lon="-4.283974993510217"><ele>11.0</ele><time>2026-05-01T11:48:38.001Z</time></trkpt><trkpt lat="43.388271004189576" lon="-4.28411009450442"><ele>11.0</ele><time>2026-05-01T11:48:39.001Z</time></trkpt><trkpt lat="43.38828615172028" lon="-4.284243909562829"><ele>11.0</ele><time>2026-05-01T11:48:40.001Z</time></trkpt><trkpt lat="43.38830344092957" lon="-4.284376059445741"><ele>11.0</ele><time>2026-05-01T11:48:41.001Z</time></trkpt><trkpt lat="43.38832572024586" lon="-4.284526791064726"><ele>11.0</ele><time>2026-05-01T11:48:42.001Z</time></trkpt><trkpt lat="43.38833890645135" lon="-4.28465957319762"><ele>12.600000000000001</ele><time>2026-05-01T11:48:43.001Z</time></trkpt><trkpt lat="43.38835495396526" lon="-4.2847991063374815"><ele>14.2</ele><time>2026-05-01T11:48:44.001Z</time></trkpt><trkpt lat="43.38837338526771" lon="-4.28494088534934"><ele>15.799999999999999</ele><time>2026-05-01T11:48:45.001Z</time></trkpt><trkpt lat="43.388390455501025" lon="-4.285081136673416"><ele>17.4</ele><time>2026-05-01T11:48:46.001Z</time></trkpt><trkpt lat="43.38840488105207" lon="-4.28522593840608"><ele>19.0</ele><time>2026-05-01T11:48:47.001Z</time></trkpt><trkpt lat="43.388416922676726" lon="-4.28536224322226"><ele>19.0</ele><time>2026-05-01T11:48:48.001Z</time></trkpt><trkpt lat="43.38842620511189" lon="-4.285502602053024"><ele>19.0</ele><time>2026-05-01T11:48:49.001Z</time></trkpt><trkpt lat="43.38843140040895" lon="-4.285646395060769"><ele>19.0</ele><time>2026-05-01T11:48:50.001Z</time></trkpt><trkpt lat="43.38843506904785" lon="-4.285790633152139"><ele>19.0</ele><time>2026-05-01T11:48:51.001Z</time></trkpt><trkpt lat="43.38843708471647" lon="-4.285934240273321"><ele>19.0</ele><time>2026-05-01T11:48:52.001Z</time></trkpt><trkpt lat="43.38843332572041" lon="-4.2860734399839835"><ele>19.0</ele><time>2026-05-01T11:48:53.001Z</time></trkpt><trkpt lat="43.388429881416165" lon="-4.28621629935564"><ele>19.0</ele><time>2026-05-01T11:48:54.001Z</time></trkpt><trkpt lat="43.38842978967063" lon="-4.286358969637057"><ele>19.0</ele><time>2026-05-01T11:48:55.001Z</time></trkpt><trkpt lat="43.388427071841946" lon="-4.286502431503879"><ele>19.0</ele><time>2026-05-01T11:48:56.001Z</time></trkpt><trkpt lat="43.38842164505529" lon="-4.286643944135952"><ele>19.0</ele><time>2026-05-01T11:48:57.001Z</time></trkpt><trkpt lat="43.38842135716915" lon="-4.286791551346678"><ele>19.0</ele><time>2026-05-01T11:48:58.001Z</time></trkpt><trkpt lat="43.388408527732686" lon="-4.286938921372425"><ele>19.0</ele><time>2026-05-01T11:48:59.001Z</time></trkpt><trkpt lat="43.38840719436813" lon="-4.287091838463416"><ele>19.0</ele><time>2026-05-01T11:49:00.001Z</time></trkpt><trkpt lat="43.38841532388102" lon="-4.287246110337555"><ele>19.0</ele><time>2026-05-01T11:49:01.001Z</time></trkpt><trkpt lat="43.388422398924746" lon="-4.287398216838215"><ele>19.0</ele><time>2026-05-01T11:49:02.001Z</time></trkpt><trkpt lat="43.38843255808438" lon="-4.2875444915533905"><ele>19.4</ele><time>2026-05-01T11:49:03.001Z</time></trkpt><trkpt lat="43.388449642867556" lon="-4.287693758739442"><ele>19.799999999999997</ele><time>2026-05-01T11:49:04.001Z</time></trkpt><trkpt lat="43.38846359768138" lon="-4.287832197598906"><ele>20.200000000000003</ele><time>2026-05-01T11:49:05.002Z</time></trkpt><trkpt lat="43.38848923240025" lon="-4.287986042229225"><ele>20.6</ele><time>2026-05-01T11:49:06.002Z</time></trkpt><trkpt lat="43.3885104147075" lon="-4.288131873829513"><ele>21.0</ele><time>2026-05-01T11:49:07.002Z</time></trkpt><trkpt lat="43.38852975852613" lon="-4.288277633418925"><ele>21.6</ele><time>2026-05-01T11:49:08.002Z</time></trkpt><trkpt lat="43.38855273191203" lon="-4.288425954392462"><ele>22.200000000000003</ele><time>2026-05-01T11:49:09.002Z</time></trkpt><trkpt lat="43.38857560230638" lon="-4.288571233721407"><ele>22.799999999999997</ele><time>2026-05-01T11:49:10.002Z</time></trkpt><trkpt lat="43.388598308980704" lon="-4.288720030554515"><ele>23.4</ele><time>2026-05-01T11:49:11.002Z</time></trkpt><trkpt lat="43.388622079363756" lon="-4.288867415011645"><ele>24.0</ele><time>2026-05-01T11:49:12.002Z</time></trkpt><trkpt lat="43.3886418916649" lon="-4.2890186802024575"><ele>24.2</ele><time>2026-05-01T11:49:13.002Z</time></trkpt><trkpt lat="43.388666534148605" lon="-4.289162744656987"><ele>24.4</ele><time>2026-05-01T11:49:14.002Z</time></trkpt><trkpt lat="43.388697326643864" lon="-4.289307030818466"><ele>24.6</ele><time>2026-05-01T11:49:15.002Z</time></trkpt><trkpt lat="43.38873549936462" lon="-4.289448874952782"><ele>24.8</ele><time>2026-05-01T11:49:16.002Z</time></trkpt><trkpt lat="43.38878317838388" lon="-4.289584771900857"><ele>25.0</ele><time>2026-05-01T11:49:17.002Z</time></trkpt><trkpt lat="43.38884054734755" lon="-4.289706774163531"><ele>22.8</ele><time>2026-05-01T11:49:18.002Z</time></trkpt><trkpt lat="43.38890646390195" lon="-4.289761346871683"><ele>20.6</ele><time>2026-05-01T11:49:19.002Z</time></trkpt><trkpt lat="43.38900229599235" lon="-4.289825678922911"><ele>18.4</ele><time>2026-05-01T11:49:20.002Z</time></trkpt><trkpt lat="43.38908234823518" lon="-4.290000498035234"><ele>16.2</ele><time>2026-05-01T11:49:21.002Z</time></trkpt><trkpt lat="43.38915243336341" lon="-4.290123641244578"><ele>14.0</ele><time>2026-05-01T11:49:22.002Z</time></trkpt><trkpt lat="43.38924446665543" lon="-4.290236437200222"><ele>14.0</ele><time>2026-05-01T11:49:23.002Z</time></trkpt><trkpt lat="43.3893485684804" lon="-4.290365777378274"><ele>13.999999999999998</ele><time>2026-05-01T11:49:24.002Z</time></trkpt><trkpt lat="43.38944216565555" lon="-4.290482055558269"><ele>13.999999999999998</ele><time>2026-05-01T11:49:25.002Z</time></trkpt><trkpt lat="43.38951475069096" lon="-4.290572229801463"><ele>14.0</ele><time>2026-05-01T11:49:26.002Z</time></trkpt><trkpt lat="43.38952725072762" lon="-4.29067178614447"><ele>14.0</ele><time>2026-05-01T11:49:27.002Z</time></trkpt><trkpt lat="43.38962120950117" lon="-4.290745552895302"><ele>13.2</ele><time>2026-05-01T11:49:28.002Z</time></trkpt><trkpt lat="43.38970223649288" lon="-4.290833164987192"><ele>12.399999999999999</ele><time>2026-05-01T11:49:29.002Z</time></trkpt><trkpt lat="43.38978175431927" lon="-4.290931781434345"><ele>11.6</ele><time>2026-05-01T11:49:30.002Z</time></trkpt><trkpt lat="43.38985863934432" lon="-4.291027106697306"><ele>10.8</ele><time>2026-05-01T11:49:31.002Z</time></trkpt><trkpt lat="43.389929056269935" lon="-4.291138804790514"><ele>10.0</ele><time>2026-05-01T11:49:32.002Z</time></trkpt><trkpt lat="43.39000053294354" lon="-4.2912326009604955"><ele>10.0</ele><time>2026-05-01T11:49:33.002Z</time></trkpt><trkpt lat="43.39008722342588" lon="-4.29126568072489"><ele>10.0</ele><time>2026-05-01T11:49:34.002Z</time></trkpt><trkpt lat="43.390146790515644" lon="-4.291354174721233"><ele>10.0</ele><time>2026-05-01T11:49:35.002Z</time></trkpt><trkpt lat="43.3901989363715" lon="-4.291595421163156"><ele>10.0</ele><time>2026-05-01T11:49:36.002Z</time></trkpt><trkpt lat="43.39027565656376" lon="-4.291699044371496"><ele>10.8</ele><time>2026-05-01T11:49:37.002Z</time></trkpt><trkpt lat="43.39034486812933" lon="-4.2918124741210875"><ele>11.6</ele><time>2026-05-01T11:49:38.002Z</time></trkpt><trkpt lat="43.39041223083276" lon="-4.2919233845948135"><ele>12.399999999999999</ele><time>2026-05-01T11:49:39.002Z</time></trkpt><trkpt lat="43.390474778479785" lon="-4.292034411831355"><ele>13.2</ele><time>2026-05-01T11:49:40.002Z</time></trkpt><trkpt lat="43.39051841550265" lon="-4.292153122255602"><ele>14.0</ele><time>2026-05-01T11:49:41.002Z</time></trkpt><trkpt lat="43.39057921409668" lon="-4.2922694577119955"><ele>14.500000000000002</ele><time>2026-05-01T11:49:42.002Z</time></trkpt><trkpt lat="43.3906386001855" lon="-4.292382335896602"><ele>15.0</ele><time>2026-05-01T11:49:43.002Z</time></trkpt><trkpt lat="43.390683519330715" lon="-4.292487788220846"><ele>15.5</ele><time>2026-05-01T11:49:44.002Z</time></trkpt><trkpt lat="43.390712868718936" lon="-4.292588604201509"><ele>16.0</ele><time>2026-05-01T11:49:45.002Z</time></trkpt><trkpt lat="43.39074164644582" lon="-4.292666763496007"><ele>16.5</ele><time>2026-05-01T11:49:46.003Z</time></trkpt><trkpt lat="43.390772531542034" lon="-4.292747625962096"><ele>17.0</ele><time>2026-05-01T11:49:47.003Z</time></trkpt><trkpt lat="43.39086365518856" lon="-4.292861985307166"><ele>17.0</ele><time>2026-05-01T11:49:49.003Z</time></trkpt><trkpt lat="43.39098906072862" lon="-4.292884796945749"><ele>17.0</ele><time>2026-05-01T11:49:51.003Z</time></trkpt><trkpt lat="43.39111414222875" lon="-4.292787546173837"><ele>17.0</ele><time>2026-05-01T11:49:53.003Z</time></trkpt><trkpt lat="43.3911613669421" lon="-4.292704071929267"><ele>17.0</ele><time>2026-05-01T11:49:54.003Z</time></trkpt><trkpt lat="43.39116958786559" lon="-4.292488542639012"><ele>17.0</ele><time>2026-05-01T11:49:56.003Z</time></trkpt><trkpt lat="43.39112349063531" lon="-4.292404613530456"><ele>17.0</ele><time>2026-05-01T11:49:57.003Z</time></trkpt><trkpt lat="43.39106635165757" lon="-4.292343952267481"><ele>17.0</ele><time>2026-05-01T11:49:58.003Z</time></trkpt><trkpt lat="43.39099891446886" lon="-4.292239515228119"><ele>17.0</ele><time>2026-05-01T11:49:59.003Z</time></trkpt><trkpt lat="43.39096352411081" lon="-4.292146222927319"><ele>17.0</ele><time>2026-05-01T11:50:00.003Z</time></trkpt><trkpt lat="43.390939861261344" lon="-4.292042949257218"><ele>17.0</ele><time>2026-05-01T11:50:01.003Z</time></trkpt><trkpt lat="43.39093339422222" lon="-4.291926986185327"><ele>16.5</ele><time>2026-05-01T11:50:02.003Z</time></trkpt><trkpt lat="43.39094090224286" lon="-4.291810657999007"><ele>16.0</ele><time>2026-05-01T11:50:03.003Z</time></trkpt><trkpt lat="43.39095991238389" lon="-4.291696926980223"><ele>15.5</ele><time>2026-05-01T11:50:04.003Z</time></trkpt><trkpt lat="43.390977747078566" lon="-4.29158780461096"><ele>15.0</ele><time>2026-05-01T11:50:05.003Z</time></trkpt><trkpt lat="43.39099028780301" lon="-4.291479009823562"><ele>14.500000000000002</ele><time>2026-05-01T11:50:05.999Z</time></trkpt><trkpt lat="43.39099848723213" lon="-4.291371555888879"><ele>14.0</ele><time>2026-05-01T11:50:06.999Z</time></trkpt><trkpt lat="43.391007668260805" lon="-4.291266409618262"><ele>13.571428571428571</ele><time>2026-05-01T11:50:07.999Z</time></trkpt><trkpt lat="43.391018257252945" lon="-4.291167046603814"><ele>13.142857142857142</ele><time>2026-05-01T11:50:08.999Z</time></trkpt><trkpt lat="43.39103315885902" lon="-4.291068267302507"><ele>12.714285714285715</ele><time>2026-05-01T11:50:09.999Z</time></trkpt><trkpt lat="43.391038367293454" lon="-4.290968506361013"><ele>12.285714285714285</ele><time>2026-05-01T11:50:10.999Z</time></trkpt><trkpt lat="43.39105119388283" lon="-4.290871285372177"><ele>11.857142857142858</ele><time>2026-05-01T11:50:11.999Z</time></trkpt><trkpt lat="43.39106323280998" lon="-4.290773944938516"><ele>11.428571428571429</ele><time>2026-05-01T11:50:12.999Z</time></trkpt><trkpt lat="43.39107011620409" lon="-4.2906719197218335"><ele>11.0</ele><time>2026-05-01T11:50:13.999Z</time></trkpt><trkpt lat="43.39108059373371" lon="-4.290570690803431"><ele>10.0</ele><time>2026-05-01T11:50:14.999Z</time></trkpt><trkpt lat="43.391090161401145" lon="-4.290475989947406"><ele>9.0</ele><time>2026-05-01T11:50:15.999Z</time></trkpt><trkpt lat="43.391113167818055" lon="-4.290330458452621"><ele>8.0</ele><time>2026-05-01T11:50:17.999Z</time></trkpt><trkpt lat="43.39114101975785" lon="-4.290230242582566"><ele>7.0</ele><time>2026-05-01T11:50:20Z</time></trkpt><trkpt lat="43.39116580153565" lon="-4.2901144823684785"><ele>6.0</ele><time>2026-05-01T11:50:23Z</time></trkpt><trkpt lat="43.39128140015719" lon="-4.290161244846038"><ele>6.166666666666667</ele><time>2026-05-01T11:50:25Z</time></trkpt><trkpt lat="43.39136094680461" lon="-4.290164124126546"><ele>6.333333333333334</ele><time>2026-05-01T11:50:46Z</time></trkpt><trkpt lat="43.391427152978544" lon="-4.290173869654453"><ele>6.5</ele><time>2026-05-01T11:50:49Z</time></trkpt><trkpt lat="43.39151452107041" lon="-4.290207421708007"><ele>6.666666666666667</ele><time>2026-05-01T11:50:52.001Z</time></trkpt><trkpt lat="43.39161419330629" lon="-4.290241876024224"><ele>6.833333333333334</ele><time>2026-05-01T11:50:55.001Z</time></trkpt><trkpt lat="43.391677962528455" lon="-4.2902505201781835"><ele>7.0</ele><time>2026-05-01T11:50:57.001Z</time></trkpt><trkpt lat="43.39175420993232" lon="-4.290256400763077"><ele>7.000000000000001</ele><time>2026-05-01T11:50:59.001Z</time></trkpt><trkpt lat="43.391842133939534" lon="-4.290263810021776"><ele>7.0</ele><time>2026-05-01T11:51:01.001Z</time></trkpt><trkpt lat="43.39192070433447" lon="-4.290270461914377"><ele>7.0</ele><time>2026-05-01T11:51:04.001Z</time></trkpt><trkpt lat="43.39200507961774" lon="-4.290253935711717"><ele>7.0</ele><time>2026-05-01T11:51:07.001Z</time></trkpt><trkpt lat="43.39208089946256" lon="-4.290268798717702"><ele>7.000000000000001</ele><time>2026-05-01T11:51:09.001Z</time></trkpt><trkpt lat="43.39213868510357" lon="-4.290226883517078"><ele>7.0</ele><time>2026-05-01T11:51:11.001Z</time></trkpt><trkpt lat="43.392041716960186" lon="-4.290273517895128"><ele>7.0</ele><time>2026-05-01T11:51:28.002Z</time></trkpt><trkpt lat="43.39198517657108" lon="-4.290227803245922"><ele>6.999999999999999</ele><time>2026-05-01T11:51:31.002Z</time></trkpt><trkpt lat="43.39207417146417" lon="-4.290174735784113"><ele>6.999999999999999</ele><time>2026-05-01T11:51:34.002Z</time></trkpt><trkpt lat="43.39218747301577" lon="-4.290104462417063"><ele>7.0</ele><time>2026-05-01T11:51:36.002Z</time></trkpt><trkpt lat="43.392244624719496" lon="-4.290048163527066"><ele>7.0</ele><time>2026-05-01T11:51:37.002Z</time></trkpt><trkpt lat="43.392309533278834" lon="-4.289943833732828"><ele>7.0</ele><time>2026-05-01T11:51:39.002Z</time></trkpt><trkpt lat="43.39219677684131" lon="-4.289871549775846"><ele>6.999999999999999</ele><time>2026-05-01T11:51:42.002Z</time></trkpt><trkpt lat="43.39211813086975" lon="-4.289967090553113"><ele>6.999999999999999</ele><time>2026-05-01T11:51:44.002Z</time></trkpt><trkpt lat="43.39203062288474" lon="-4.290032576423424"><ele>7.0</ele><time>2026-05-01T11:51:46.002Z</time></trkpt><trkpt lat="43.391924480516415" lon="-4.290064719001407"><ele>7.0</ele><time>2026-05-01T11:51:48.002Z</time></trkpt><trkpt lat="43.39180509108162" lon="-4.2900437847180335"><ele>7.0</ele><time>2026-05-01T11:51:50.002Z</time></trkpt><trkpt lat="43.391697441626846" lon="-4.290006700502743"><ele>7.0</ele><time>2026-05-01T11:51:52.002Z</time></trkpt><trkpt lat="43.3916018892682" lon="-4.289949072115867"><ele>7.0</ele><time>2026-05-01T11:51:54.002Z</time></trkpt><trkpt lat="43.39150645902172" lon="-4.289855681621978"><ele>7.0</ele><time>2026-05-01T11:51:56.002Z</time></trkpt><trkpt lat="43.39140471284919" lon="-4.289769765302155"><ele>6.0</ele><time>2026-05-01T11:51:58.002Z</time></trkpt><trkpt lat="43.39130395883042" lon="-4.289694697408458"><ele>5.0</ele><time>2026-05-01T11:52:00.002Z</time></trkpt><trkpt lat="43.39120229874085" lon="-4.289629320465126"><ele>4.0</ele><time>2026-05-01T11:52:02.002Z</time></trkpt><trkpt lat="43.391092038328274" lon="-4.289591187885108"><ele>3.0</ele><time>2026-05-01T11:52:04.002Z</time></trkpt><trkpt lat="43.3909808918561" lon="-4.28964739268536"><ele>3.0</ele><time>2026-05-01T11:52:06.003Z</time></trkpt><trkpt lat="43.390937424063225" lon="-4.289711201753199"><ele>3.0</ele><time>2026-05-01T11:52:07.003Z</time></trkpt><trkpt lat="43.390847437497946" lon="-4.289829736404119"><ele>3.0</ele><time>2026-05-01T11:52:09.003Z</time></trkpt><trkpt lat="43.390752493659264" lon="-4.289931980231539"><ele>3.0</ele><time>2026-05-01T11:52:11.003Z</time></trkpt><trkpt lat="43.39065383173589" lon="-4.290030727533277"><ele>3.0</ele><time>2026-05-01T11:52:13Z</time></trkpt><trkpt lat="43.39053747616261" lon="-4.29009916604676"><ele>3.5</ele><time>2026-05-01T11:52:15Z</time></trkpt><trkpt lat="43.39047262503782" lon="-4.29011353803463"><ele>4.0</ele><time>2026-05-01T11:52:16Z</time></trkpt><trkpt lat="43.390355761388605" lon="-4.290111069967269"><ele>4.5</ele><time>2026-05-01T11:52:18Z</time></trkpt><trkpt lat="43.39026363048135" lon="-4.290091570162455"><ele>5.0</ele><time>2026-05-01T11:52:20Z</time></trkpt><trkpt lat="43.39019742218297" lon="-4.290079225369257"><ele>5.5</ele><time>2026-05-01T11:52:23Z</time></trkpt><trkpt lat="43.39011464259092" lon="-4.290035556206855"><ele>6.0</ele><time>2026-05-01T11:52:27Z</time></trkpt><trkpt lat="43.39006338128711" lon="-4.289975605726366"><ele>6.0</ele><time>2026-05-01T11:52:31Z</time></trkpt><trkpt lat="43.39000713966233" lon="-4.289901758811343"><ele>6.0</ele><time>2026-05-01T11:52:37Z</time></trkpt><trkpt lat="43.38991569071516" lon="-4.289932586355412"><ele>6.0</ele><time>2026-05-01T11:52:40Z</time></trkpt><trkpt lat="43.389871947806924" lon="-4.2900004341938835"><ele>6.0</ele><time>2026-05-01T11:52:42Z</time></trkpt><trkpt lat="43.38980517776561" lon="-4.2900487825740425"><ele>6.0</ele><time>2026-05-01T11:53:06.001Z</time></trkpt><trkpt lat="43.38975945492435" lon="-4.290134982403988"><ele>6.0</ele><time>2026-05-01T12:01:09Z</time></trkpt><trkpt lat="43.389959932678906" lon="-4.290459575684299"><ele>6.0</ele><time>2026-05-01T12:01:55.001Z</time></trkpt><trkpt lat="43.38993212650825" lon="-4.290324805709765"><ele>6.0</ele><time>2026-05-01T12:10:42.003Z</time></trkpt><trkpt lat="43.38994225091068" lon="-4.290419731981012"><ele>6.0</ele><time>2026-05-01T12:10:44.003Z</time></trkpt><trkpt lat="43.39011759646355" lon="-4.29040385884403"><ele>6.0</ele><time>2026-05-01T12:13:11.018Z</time></trkpt><trkpt lat="43.39012251549753" lon="-4.290518210073759"><ele>6.0</ele><time>2026-05-01T12:13:15.003Z</time></trkpt><trkpt lat="43.39000756564283" lon="-4.290468849986079"><ele>6.0</ele><time>2026-05-01T12:13:26.001Z</time></trkpt></trkseg><trkseg><trkpt lat="43.3899718322312" lon="-4.290540834186057"><ele>6.0</ele><time>2026-05-01T13:29:47Z</time></trkpt><trkpt lat="43.38976934416396" lon="-4.290732016541344"><ele>6.0</ele><time>2026-05-01T13:29:57Z</time></trkpt><trkpt lat="43.38970208363227" lon="-4.290745909340352"><ele>6.0</ele><time>2026-05-01T13:29:59Z</time></trkpt><trkpt lat="43.3901157648882" lon="-4.290277316794551"><ele>6.0</ele><time>2026-05-01T13:30:37.538Z</time></trkpt><trkpt lat="43.390188821549565" lon="-4.290202509578912"><ele>6.0</ele><time>2026-05-01T13:31:00.428Z</time></trkpt><trkpt lat="43.39010311679497" lon="-4.290272765433274"><ele>6.0</ele><time>2026-05-01T13:33:03.025Z</time></trkpt><trkpt lat="43.390057660942745" lon="-4.29035038851865"><ele>6.0</ele><time>2026-05-01T13:33:05.002Z</time></trkpt><trkpt lat="43.39002936555766" lon="-4.290474755354951"><ele>6.0</ele><time>2026-05-01T13:33:06.002Z</time></trkpt><trkpt lat="43.38994278621378" lon="-4.290436706518463"><ele>6.0</ele><time>2026-05-01T13:35:11.001Z</time></trkpt><trkpt lat="43.389913797769516" lon="-4.290358093466989"><ele>5.999999999999999</ele><time>2026-05-01T13:35:17Z</time></trkpt><trkpt lat="43.389938717799836" lon="-4.290270195453595"><ele>6.0</ele><time>2026-05-01T13:41:36Z</time></trkpt><trkpt lat="43.38989236664095" lon="-4.290180141025655"><ele>6.0</ele><time>2026-05-01T13:41:39Z</time></trkpt><trkpt lat="43.38984837512637" lon="-4.29011505299832"><ele>6.0</ele><time>2026-05-01T13:41:42Z</time></trkpt><trkpt lat="43.38985924260682" lon="-4.290008648585482"><ele>6.0</ele><time>2026-05-01T13:41:46Z</time></trkpt><trkpt lat="43.38991988686652" lon="-4.289957436970145"><ele>5.999999999999999</ele><time>2026-05-01T13:41:49Z</time></trkpt><trkpt lat="43.38996848241369" lon="-4.289893801223894"><ele>6.0</ele><time>2026-05-01T13:41:52Z</time></trkpt><trkpt lat="43.390039674394444" lon="-4.289925783161041"><ele>6.0</ele><time>2026-05-01T13:41:56Z</time></trkpt><trkpt lat="43.39008773262007" lon="-4.290003133126214"><ele>6.0</ele><time>2026-05-01T13:41:59Z</time></trkpt><trkpt lat="43.390153853064035" lon="-4.290053688450138"><ele>6.0</ele><time>2026-05-01T13:42:02Z</time></trkpt><trkpt lat="43.39020463027431" lon="-4.290130401642363"><ele>6.0</ele><time>2026-05-01T13:42:05Z</time></trkpt><trkpt lat="43.390256446957444" lon="-4.29021306281221"><ele>6.0</ele><time>2026-05-01T13:42:08Z</time></trkpt><trkpt lat="43.39031055764071" lon="-4.2903039326014705"><ele>6.0</ele><time>2026-05-01T13:42:11Z</time></trkpt><trkpt lat="43.39036915826485" lon="-4.290395015718194"><ele>5.999999999999999</ele><time>2026-05-01T13:42:14Z</time></trkpt><trkpt lat="43.39041324352763" lon="-4.29048563705315"><ele>6.0</ele><time>2026-05-01T13:42:17Z</time></trkpt><trkpt lat="43.39046444665268" lon="-4.290592879723703"><ele>6.0</ele><time>2026-05-01T13:42:20Z</time></trkpt><trkpt lat="43.390486943564966" lon="-4.290679573300639"><ele>6.0</ele><time>2026-05-01T13:42:22Z</time></trkpt><trkpt lat="43.39050835387764" lon="-4.290761323090756"><ele>6.0</ele><time>2026-05-01T13:42:24Z</time></trkpt><trkpt lat="43.39054215511583" lon="-4.290844092209468"><ele>5.999999999999999</ele><time>2026-05-01T13:42:27Z</time></trkpt><trkpt lat="43.390553013476996" lon="-4.290941921137202"><ele>6.0</ele><time>2026-05-01T13:42:33Z</time></trkpt><trkpt lat="43.39056407776173" lon="-4.291050331438793"><ele>7.0</ele><time>2026-05-01T13:42:35.001Z</time></trkpt><trkpt lat="43.390581939480434" lon="-4.2911740330238315"><ele>8.0</ele><time>2026-05-01T13:42:37.001Z</time></trkpt><trkpt lat="43.390599253470626" lon="-4.291315326377176"><ele>9.0</ele><time>2026-05-01T13:42:39.001Z</time></trkpt><trkpt lat="43.39062255582957" lon="-4.291464622908456"><ele>10.0</ele><time>2026-05-01T13:42:41.001Z</time></trkpt><trkpt lat="43.39065184940526" lon="-4.291605961614086"><ele>11.0</ele><time>2026-05-01T13:42:43.001Z</time></trkpt><trkpt lat="43.39066931160502" lon="-4.291763637100794"><ele>11.75</ele><time>2026-05-01T13:42:45.001Z</time></trkpt><trkpt lat="43.39066685720325" lon="-4.291927126758895"><ele>12.5</ele><time>2026-05-01T13:42:47.001Z</time></trkpt><trkpt lat="43.39063365654991" lon="-4.292088279143248"><ele>13.25</ele><time>2026-05-01T13:42:49.001Z</time></trkpt><trkpt lat="43.390573385236614" lon="-4.29222673023711"><ele>14.0</ele><time>2026-05-01T13:42:51.001Z</time></trkpt><trkpt lat="43.39047850412641" lon="-4.292312557168424"><ele>14.833333333333334</ele><time>2026-05-01T13:42:53.001Z</time></trkpt><trkpt lat="43.39041671547929" lon="-4.2923636572370905"><ele>15.666666666666668</ele><time>2026-05-01T13:42:54.001Z</time></trkpt><trkpt lat="43.39034897504524" lon="-4.292402966209506"><ele>16.5</ele><time>2026-05-01T13:42:55.001Z</time></trkpt><trkpt lat="43.39023819300319" lon="-4.292485321972466"><ele>17.333333333333332</ele><time>2026-05-01T13:42:57.001Z</time></trkpt><trkpt lat="43.39018143059234" lon="-4.292529079403281"><ele>18.166666666666664</ele><time>2026-05-01T13:42:58.001Z</time></trkpt><trkpt lat="43.39012337774957" lon="-4.2925667296501455"><ele>19.0</ele><time>2026-05-01T13:42:59.001Z</time></trkpt><trkpt lat="43.390064534195496" lon="-4.292603730696667"><ele>19.0</ele><time>2026-05-01T13:43:00.001Z</time></trkpt><trkpt lat="43.3899517204218" lon="-4.292674951944718"><ele>19.0</ele><time>2026-05-01T13:43:02.001Z</time></trkpt><trkpt lat="43.38989323743463" lon="-4.2927095760888285"><ele>19.0</ele><time>2026-05-01T13:43:03.001Z</time></trkpt><trkpt lat="43.389838523712434" lon="-4.292754209238691"><ele>19.0</ele><time>2026-05-01T13:43:04.001Z</time></trkpt><trkpt lat="43.389777167135996" lon="-4.292787066440196"><ele>19.0</ele><time>2026-05-01T13:43:05.001Z</time></trkpt><trkpt lat="43.389716838319735" lon="-4.29283142203321"><ele>19.0</ele><time>2026-05-01T13:43:06.001Z</time></trkpt><trkpt lat="43.389659245523724" lon="-4.292879640460745"><ele>18.599999999999998</ele><time>2026-05-01T13:43:07.001Z</time></trkpt><trkpt lat="43.389597401779625" lon="-4.29291648598605"><ele>18.2</ele><time>2026-05-01T13:43:08.001Z</time></trkpt><trkpt lat="43.389537695462884" lon="-4.292955970154894"><ele>17.799999999999997</ele><time>2026-05-01T13:43:09.001Z</time></trkpt><trkpt lat="43.38942853999586" lon="-4.293027824871836"><ele>17.4</ele><time>2026-05-01T13:43:11.001Z</time></trkpt><trkpt lat="43.38932345930507" lon="-4.293065121625737"><ele>17.0</ele><time>2026-05-01T13:43:13.001Z</time></trkpt><trkpt lat="43.38921440223415" lon="-4.2931104315108835"><ele>17.0</ele><time>2026-05-01T13:43:15.001Z</time></trkpt><trkpt lat="43.38910394076055" lon="-4.293100057398335"><ele>17.0</ele><time>2026-05-01T13:43:17.001Z</time></trkpt><trkpt lat="43.38899120785011" lon="-4.293069190419342"><ele>17.0</ele><time>2026-05-01T13:43:19.001Z</time></trkpt><trkpt lat="43.388877360247854" lon="-4.293006226367797"><ele>17.0</ele><time>2026-05-01T13:43:21.001Z</time></trkpt><trkpt lat="43.38881478972731" lon="-4.292987845262193"><ele>17.0</ele><time>2026-05-01T13:43:22.001Z</time></trkpt><trkpt lat="43.3887494713919" lon="-4.29296750296481"><ele>17.833333333333336</ele><time>2026-05-01T13:43:23.001Z</time></trkpt><trkpt lat="43.388683859747815" lon="-4.292948394592857"><ele>18.666666666666668</ele><time>2026-05-01T13:43:24.001Z</time></trkpt><trkpt lat="43.388610932765665" lon="-4.292970757740539"><ele>19.5</ele><time>2026-05-01T13:43:25.001Z</time></trkpt><trkpt lat="43.38854694610673" lon="-4.292910148463961"><ele>20.333333333333332</ele><time>2026-05-01T13:43:26.001Z</time></trkpt><trkpt lat="43.38847840751659" lon="-4.292893346907458"><ele>21.166666666666664</ele><time>2026-05-01T13:43:27.001Z</time></trkpt><trkpt lat="43.388414836551284" lon="-4.292878376556488"><ele>22.0</ele><time>2026-05-01T13:43:28.001Z</time></trkpt><trkpt lat="43.38830167247043" lon="-4.292848203848555"><ele>22.0</ele><time>2026-05-01T13:43:30.001Z</time></trkpt><trkpt lat="43.388188985837765" lon="-4.292820611432357"><ele>22.0</ele><time>2026-05-01T13:43:32.001Z</time></trkpt><trkpt lat="43.38812550081796" lon="-4.292847247640686"><ele>22.0</ele><time>2026-05-01T13:43:33.001Z</time></trkpt><trkpt lat="43.3880020017497" lon="-4.292814210635009"><ele>22.0</ele><time>2026-05-01T13:43:35.001Z</time></trkpt><trkpt lat="43.38793354063579" lon="-4.292795896719538"><ele>22.0</ele><time>2026-05-01T13:43:36.001Z</time></trkpt><trkpt lat="43.387865929581054" lon="-4.292775596063176"><ele>22.0</ele><time>2026-05-01T13:43:37.001Z</time></trkpt><trkpt lat="43.38779743056314" lon="-4.292754804932755"><ele>22.142857142857142</ele><time>2026-05-01T13:43:38.001Z</time></trkpt><trkpt lat="43.387729672599605" lon="-4.292734806692814"><ele>22.285714285714285</ele><time>2026-05-01T13:43:39.001Z</time></trkpt><trkpt lat="43.387659725555054" lon="-4.292718641827754"><ele>22.42857142857143</ele><time>2026-05-01T13:43:39.999Z</time></trkpt><trkpt lat="43.38758940653224" lon="-4.292703404273245"><ele>22.57142857142857</ele><time>2026-05-01T13:43:40.999Z</time></trkpt><trkpt lat="43.387517565507366" lon="-4.292694762449132"><ele>22.71428571428571</ele><time>2026-05-01T13:43:41.999Z</time></trkpt><trkpt lat="43.38744507591312" lon="-4.292701694020545"><ele>22.857142857142858</ele><time>2026-05-01T13:43:42.999Z</time></trkpt><trkpt lat="43.38737078773242" lon="-4.292710905542587"><ele>23.0</ele><time>2026-05-01T13:43:43.999Z</time></trkpt><trkpt lat="43.38729913319276" lon="-4.292722793620382"><ele>23.0</ele><time>2026-05-01T13:43:44.999Z</time></trkpt><trkpt lat="43.38722701522589" lon="-4.292735669828552"><ele>23.0</ele><time>2026-05-01T13:43:45.999Z</time></trkpt><trkpt lat="43.38715468928053" lon="-4.292751746083108"><ele>23.0</ele><time>2026-05-01T13:43:46.999Z</time></trkpt><trkpt lat="43.38707852900618" lon="-4.292768991521161"><ele>23.0</ele><time>2026-05-01T13:43:47.999Z</time></trkpt><trkpt lat="43.3870039442669" lon="-4.292785880134071"><ele>23.0</ele><time>2026-05-01T13:43:48.999Z</time></trkpt><trkpt lat="43.38692544043889" lon="-4.292803656237562"><ele>23.0</ele><time>2026-05-01T13:43:49.999Z</time></trkpt><trkpt lat="43.386847093089564" lon="-4.292821396865498"><ele>23.666666666666668</ele><time>2026-05-01T13:43:50.999Z</time></trkpt><trkpt lat="43.38677080828078" lon="-4.292838670457271"><ele>24.333333333333336</ele><time>2026-05-01T13:43:51.999Z</time></trkpt><trkpt lat="43.386704184166206" lon="-4.292852050731828"><ele>25.0</ele><time>2026-05-01T13:43:52.999Z</time></trkpt><trkpt lat="43.386589989522534" lon="-4.292850496020308"><ele>25.666666666666668</ele><time>2026-05-01T13:43:54.999Z</time></trkpt><trkpt lat="43.38647748271024" lon="-4.292861415503106"><ele>26.333333333333332</ele><time>2026-05-01T13:43:56.999Z</time></trkpt><trkpt lat="43.3864145790013" lon="-4.292848679544462"><ele>27.0</ele><time>2026-05-01T13:43:57.999Z</time></trkpt><trkpt lat="43.38634826861876" lon="-4.292834528336655"><ele>26.0</ele><time>2026-05-01T13:43:59Z</time></trkpt><trkpt lat="43.38628020360394" lon="-4.292843585350895"><ele>25.0</ele><time>2026-05-01T13:44:00Z</time></trkpt><trkpt lat="43.38621654497821" lon="-4.292792670702834"><ele>24.0</ele><time>2026-05-01T13:44:01Z</time></trkpt><trkpt lat="43.38615025132103" lon="-4.292759799376037"><ele>23.0</ele><time>2026-05-01T13:44:02Z</time></trkpt><trkpt lat="43.3860897561811" lon="-4.29271447646731"><ele>22.0</ele><time>2026-05-01T13:44:03Z</time></trkpt><trkpt lat="43.386003785874244" lon="-4.292610282548415"><ele>21.0</ele><time>2026-05-01T13:44:05Z</time></trkpt><trkpt lat="43.38593666757207" lon="-4.292534106481332"><ele>21.0</ele><time>2026-05-01T13:44:07Z</time></trkpt><trkpt lat="43.38588617276045" lon="-4.292467571641299"><ele>21.0</ele><time>2026-05-01T13:44:09Z</time></trkpt><trkpt lat="43.3858264240616" lon="-4.292408940880398"><ele>21.0</ele><time>2026-05-01T13:44:11Z</time></trkpt><trkpt lat="43.38577214616729" lon="-4.292353583310653"><ele>21.0</ele><time>2026-05-01T13:44:13Z</time></trkpt><trkpt lat="43.385713915127866" lon="-4.292304441479712"><ele>21.0</ele><time>2026-05-01T13:44:15Z</time></trkpt><trkpt lat="43.38565133907059" lon="-4.292242155665954"><ele>21.0</ele><time>2026-05-01T13:44:17Z</time></trkpt><trkpt lat="43.385690017448425" lon="-4.292036527588335"><ele>22.0</ele><time>2026-05-01T13:44:20Z</time></trkpt><trkpt lat="43.3857727760918" lon="-4.29192996861546"><ele>23.0</ele><time>2026-05-01T13:44:22Z</time></trkpt><trkpt lat="43.38580202501735" lon="-4.291803920516082"><ele>24.0</ele><time>2026-05-01T13:44:24Z</time></trkpt><trkpt lat="43.38588286147416" lon="-4.291628674036263"><ele>25.0</ele><time>2026-05-01T13:44:27Z</time></trkpt><trkpt lat="43.385946469669385" lon="-4.291505991192948"><ele>25.75</ele><time>2026-05-01T13:44:29Z</time></trkpt><trkpt lat="43.38601420808376" lon="-4.291387678465751"><ele>26.5</ele><time>2026-05-01T13:44:31Z</time></trkpt><trkpt lat="43.38605758028895" lon="-4.291296187159693"><ele>27.25</ele><time>2026-05-01T13:44:33Z</time></trkpt><trkpt lat="43.38625352559506" lon="-4.291264164733055"><ele>28.0</ele><time>2026-05-01T13:44:37Z</time></trkpt><trkpt lat="43.38635940991837" lon="-4.291274688137742"><ele>29.2</ele><time>2026-05-01T13:44:39Z</time></trkpt><trkpt lat="43.38646088437577" lon="-4.291248412881226"><ele>30.4</ele><time>2026-05-01T13:44:41Z</time></trkpt><trkpt lat="43.38654256527108" lon="-4.291141366836823"><ele>31.599999999999998</ele><time>2026-05-01T13:44:43Z</time></trkpt><trkpt lat="43.38661310660475" lon="-4.291030435260149"><ele>32.8</ele><time>2026-05-01T13:44:45Z</time></trkpt><trkpt lat="43.3866810788278" lon="-4.290900624172108"><ele>34.0</ele><time>2026-05-01T13:44:47Z</time></trkpt><trkpt lat="43.386720065003175" lon="-4.290739787022848"><ele>34.0</ele><time>2026-05-01T13:44:49Z</time></trkpt><trkpt lat="43.386735471750164" lon="-4.290651914169821"><ele>34.0</ele><time>2026-05-01T13:44:50Z</time></trkpt><trkpt lat="43.38674318561762" lon="-4.290562358880735"><ele>34.0</ele><time>2026-05-01T13:44:51Z</time></trkpt><trkpt lat="43.38672488844596" lon="-4.290474023054177"><ele>34.0</ele><time>2026-05-01T13:44:52Z</time></trkpt><trkpt lat="43.386702237528" lon="-4.290386977571504"><ele>34.0</ele><time>2026-05-01T13:44:53Z</time></trkpt><trkpt lat="43.38666326663002" lon="-4.290234371224138"><ele>34.0</ele><time>2026-05-01T13:44:55Z</time></trkpt><trkpt lat="43.386623949155414" lon="-4.290074514308208"><ele>34.285714285714285</ele><time>2026-05-01T13:44:57.001Z</time></trkpt><trkpt lat="43.38662942955131" lon="-4.289976402398225"><ele>34.57142857142857</ele><time>2026-05-01T13:44:58.001Z</time></trkpt><trkpt lat="43.386639283144476" lon="-4.289883663949076"><ele>34.85714285714286</ele><time>2026-05-01T13:44:59.001Z</time></trkpt><trkpt lat="43.38665161236507" lon="-4.289779281492615"><ele>35.14285714285714</ele><time>2026-05-01T13:45:00.001Z</time></trkpt><trkpt lat="43.3866648355862" lon="-4.289671908114762"><ele>35.42857142857143</ele><time>2026-05-01T13:45:01.001Z</time></trkpt><trkpt lat="43.386677698914006" lon="-4.289570946675927"><ele>35.714285714285715</ele><time>2026-05-01T13:45:02.001Z</time></trkpt><trkpt lat="43.3866890856116" lon="-4.289479318185022"><ele>36.0</ele><time>2026-05-01T13:45:03.001Z</time></trkpt><trkpt lat="43.386695789452716" lon="-4.2893873870741155"><ele>36.8</ele><time>2026-05-01T13:45:04.001Z</time></trkpt><trkpt lat="43.386702324017605" lon="-4.289297777041218"><ele>37.6</ele><time>2026-05-01T13:45:05.001Z</time></trkpt><trkpt lat="43.38671328492012" lon="-4.289139828484473"><ele>38.4</ele><time>2026-05-01T13:45:07.001Z</time></trkpt><trkpt lat="43.38672636306034" lon="-4.289008119019205"><ele>39.2</ele><time>2026-05-01T13:45:09.001Z</time></trkpt><trkpt lat="43.38674229788644" lon="-4.2888793214449334"><ele>40.0</ele><time>2026-05-01T13:45:11.001Z</time></trkpt><trkpt lat="43.38676100285111" lon="-4.288740959773131"><ele>40.2</ele><time>2026-05-01T13:45:13.001Z</time></trkpt><trkpt lat="43.386789496972334" lon="-4.288588777746683"><ele>40.4</ele><time>2026-05-01T13:45:15.001Z</time></trkpt><trkpt lat="43.38679054854328" lon="-4.2884983923367885"><ele>40.599999999999994</ele><time>2026-05-01T13:45:16.001Z</time></trkpt><trkpt lat="43.38682486694346" lon="-4.288327904131683"><ele>40.8</ele><time>2026-05-01T13:45:18.001Z</time></trkpt><trkpt lat="43.3868395165488" lon="-4.288237246442739"><ele>41.0</ele><time>2026-05-01T13:45:19.001Z</time></trkpt><trkpt lat="43.3868534759312" lon="-4.2881350134620355"><ele>41.5</ele><time>2026-05-01T13:45:20.001Z</time></trkpt><trkpt lat="43.386864971272836" lon="-4.288028896970902"><ele>42.0</ele><time>2026-05-01T13:45:21.001Z</time></trkpt><trkpt lat="43.38687524019743" lon="-4.287913779662172"><ele>42.5</ele><time>2026-05-01T13:45:22.001Z</time></trkpt><trkpt lat="43.38688621473626" lon="-4.287790753093048"><ele>43.0</ele><time>2026-05-01T13:45:23.001Z</time></trkpt><trkpt lat="43.38690161445688" lon="-4.287667689797073"><ele>43.5</ele><time>2026-05-01T13:45:24.001Z</time></trkpt><trkpt lat="43.386916484791" lon="-4.2875413381322955"><ele>44.0</ele><time>2026-05-01T13:45:25.001Z</time></trkpt><trkpt lat="43.38693014100973" lon="-4.287417764068899"><ele>44.0</ele><time>2026-05-01T13:45:26.001Z</time></trkpt><trkpt lat="43.38694305517934" lon="-4.287292245961697"><ele>44.0</ele><time>2026-05-01T13:45:27.001Z</time></trkpt><trkpt lat="43.38695622627564" lon="-4.287165398168179"><ele>44.0</ele><time>2026-05-01T13:45:28.001Z</time></trkpt><trkpt lat="43.38697105972006" lon="-4.287038867580256"><ele>44.0</ele><time>2026-05-01T13:45:29.001Z</time></trkpt><trkpt lat="43.387000447240226" lon="-4.286914337809788"><ele>44.0</ele><time>2026-05-01T13:45:30.001Z</time></trkpt><trkpt lat="43.38701041569461" lon="-4.286791424724279"><ele>44.6</ele><time>2026-05-01T13:45:31.001Z</time></trkpt><trkpt lat="43.38702476584125" lon="-4.286664321462142"><ele>45.2</ele><time>2026-05-01T13:45:32.001Z</time></trkpt><trkpt lat="43.387038252411905" lon="-4.286535013115215"><ele>45.800000000000004</ele><time>2026-05-01T13:45:33.001Z</time></trkpt><trkpt lat="43.38705375644815" lon="-4.286404512988647"><ele>46.400000000000006</ele><time>2026-05-01T13:45:34.001Z</time></trkpt><trkpt lat="43.38707218696955" lon="-4.286273647455011"><ele>47.0</ele><time>2026-05-01T13:45:35.001Z</time></trkpt><trkpt lat="43.38708616128092" lon="-4.286140258911606"><ele>47.0</ele><time>2026-05-01T13:45:36.001Z</time></trkpt><trkpt lat="43.38710516622767" lon="-4.286008761870534"><ele>47.0</ele><time>2026-05-01T13:45:37.001Z</time></trkpt><trkpt lat="43.38712269124727" lon="-4.285876692156962"><ele>47.0</ele><time>2026-05-01T13:45:38.001Z</time></trkpt><trkpt lat="43.387136517639156" lon="-4.2857412347161175"><ele>47.0</ele><time>2026-05-01T13:45:39.001Z</time></trkpt><trkpt lat="43.387132300296365" lon="-4.285597724391041"><ele>47.0</ele><time>2026-05-01T13:45:40.001Z</time></trkpt><trkpt lat="43.38714736262376" lon="-4.285455941464018"><ele>47.0</ele><time>2026-05-01T13:45:41.001Z</time></trkpt><trkpt lat="43.38714887431774" lon="-4.285316318701695"><ele>47.0</ele><time>2026-05-01T13:45:42.001Z</time></trkpt><trkpt lat="43.38714600208056" lon="-4.28517523559971"><ele>47.0</ele><time>2026-05-01T13:45:43.001Z</time></trkpt><trkpt lat="43.387141933967825" lon="-4.285036553296225"><ele>47.0</ele><time>2026-05-01T13:45:44.001Z</time></trkpt><trkpt lat="43.387134569071236" lon="-4.284896770297144"><ele>47.0</ele><time>2026-05-01T13:45:45.001Z</time></trkpt><trkpt lat="43.38712816962966" lon="-4.2847561031537165"><ele>45.8</ele><time>2026-05-01T13:45:45.999Z</time></trkpt><trkpt lat="43.38712365509053" lon="-4.284613839303778"><ele>44.6</ele><time>2026-05-01T13:45:46.999Z</time></trkpt><trkpt lat="43.387122062866204" lon="-4.284471014213984"><ele>43.4</ele><time>2026-05-01T13:45:47.999Z</time></trkpt><trkpt lat="43.38712270989679" lon="-4.2843310562812436"><ele>42.199999999999996</ele><time>2026-05-01T13:45:48.999Z</time></trkpt><trkpt lat="43.38712509821609" lon="-4.284191563068208"><ele>41.0</ele><time>2026-05-01T13:45:49.999Z</time></trkpt><trkpt lat="43.38713172702504" lon="-4.284048471614432"><ele>41.199999999999996</ele><time>2026-05-01T13:45:50.999Z</time></trkpt><trkpt lat="43.387131514275026" lon="-4.28390976456713"><ele>41.4</ele><time>2026-05-01T13:45:51.999Z</time></trkpt><trkpt lat="43.387134398064966" lon="-4.283772624987233"><ele>41.6</ele><time>2026-05-01T13:45:52.999Z</time></trkpt><trkpt lat="43.38713628533052" lon="-4.2836356538226585"><ele>41.8</ele><time>2026-05-01T13:45:53.999Z</time></trkpt><trkpt lat="43.38714486411903" lon="-4.283500553003111"><ele>42.0</ele><time>2026-05-01T13:45:54.999Z</time></trkpt><trkpt lat="43.38715159069475" lon="-4.283365959682755"><ele>42.0</ele><time>2026-05-01T13:45:55.999Z</time></trkpt><trkpt lat="43.387159092796544" lon="-4.283237433007189"><ele>42.0</ele><time>2026-05-01T13:45:56.999Z</time></trkpt><trkpt lat="43.38716721777612" lon="-4.283110337766501"><ele>42.0</ele><time>2026-05-01T13:45:57.999Z</time></trkpt><trkpt lat="43.38717892665774" lon="-4.282988214517219"><ele>42.0</ele><time>2026-05-01T13:45:58.999Z</time></trkpt><trkpt lat="43.387191822158165" lon="-4.282870779179918"><ele>42.0</ele><time>2026-05-01T13:45:59.999Z</time></trkpt><trkpt lat="43.387205506442925" lon="-4.28275626438978"><ele>42.0</ele><time>2026-05-01T13:46:00.999Z</time></trkpt><trkpt lat="43.38721160584007" lon="-4.282644673796667"><ele>37.5</ele><time>2026-05-01T13:46:01.999Z</time></trkpt><trkpt lat="43.38722651635659" lon="-4.282539711766755"><ele>33.0</ele><time>2026-05-01T13:46:02.999Z</time></trkpt><trkpt lat="43.38724809559114" lon="-4.282442152099694"><ele>28.5</ele><time>2026-05-01T13:46:03.999Z</time></trkpt><trkpt lat="43.38726840011979" lon="-4.282355563610387"><ele>24.0</ele><time>2026-05-01T13:46:04.999Z</time></trkpt><trkpt lat="43.38731082818477" lon="-4.282243093042963"><ele>19.5</ele><time>2026-05-01T13:46:07Z</time></trkpt><trkpt lat="43.38738131022582" lon="-4.282169975864545"><ele>15.0</ele><time>2026-05-01T13:46:11Z</time></trkpt><trkpt lat="43.387476077534714" lon="-4.28222899620875"><ele>15.0</ele><time>2026-05-01T13:46:13Z</time></trkpt><trkpt lat="43.38751982405473" lon="-4.282301180924549"><ele>15.0</ele><time>2026-05-01T13:46:14Z</time></trkpt><trkpt lat="43.387568660948055" lon="-4.28236302444814"><ele>15.0</ele><time>2026-05-01T13:46:15Z</time></trkpt><trkpt lat="43.38762156464457" lon="-4.282436000081429"><ele>15.0</ele><time>2026-05-01T13:46:16Z</time></trkpt><trkpt lat="43.38767753467545" lon="-4.282515986780277"><ele>15.0</ele><time>2026-05-01T13:46:17Z</time></trkpt><trkpt lat="43.38773697850173" lon="-4.28259565785345"><ele>15.0</ele><time>2026-05-01T13:46:18Z</time></trkpt><trkpt lat="43.38779799179101" lon="-4.282683831068107"><ele>15.0</ele><time>2026-05-01T13:46:19Z</time></trkpt><trkpt lat="43.38785996914975" lon="-4.282775605716273"><ele>15.0</ele><time>2026-05-01T13:46:20Z</time></trkpt><trkpt lat="43.387923277594915" lon="-4.282865648273525"><ele>15.0</ele><time>2026-05-01T13:46:21Z</time></trkpt><trkpt lat="43.38798397431958" lon="-4.28295737634181"><ele>15.0</ele><time>2026-05-01T13:46:22Z</time></trkpt><trkpt lat="43.38804309213882" lon="-4.283054531077633"><ele>15.0</ele><time>2026-05-01T13:46:23Z</time></trkpt><trkpt lat="43.388097991364674" lon="-4.283155909536099"><ele>14.0</ele><time>2026-05-01T13:46:24Z</time></trkpt><trkpt lat="43.388143446608275" lon="-4.283269903338942"><ele>13.0</ele><time>2026-05-01T13:46:25Z</time></trkpt><trkpt lat="43.388170811693904" lon="-4.2834015504635845"><ele>12.0</ele><time>2026-05-01T13:46:26Z</time></trkpt><trkpt lat="43.38820111399959" lon="-4.283529717541748"><ele>11.0</ele><time>2026-05-01T13:46:27Z</time></trkpt><trkpt lat="43.3882031973816" lon="-4.283655349743455"><ele>10.0</ele><time>2026-05-01T13:46:28Z</time></trkpt><trkpt lat="43.38820976179314" lon="-4.283778957378841"><ele>10.0</ele><time>2026-05-01T13:46:29Z</time></trkpt><trkpt lat="43.38822193705343" lon="-4.28390624203966"><ele>10.0</ele><time>2026-05-01T13:46:30Z</time></trkpt><trkpt lat="43.3882379800734" lon="-4.284033006669558"><ele>10.0</ele><time>2026-05-01T13:46:31Z</time></trkpt><trkpt lat="43.388257892673025" lon="-4.284159537564728"><ele>10.0</ele><time>2026-05-01T13:46:32Z</time></trkpt><trkpt lat="43.38827549186509" lon="-4.284285408645125"><ele>10.0</ele><time>2026-05-01T13:46:33Z</time></trkpt><trkpt lat="43.388290670988034" lon="-4.284412578002154"><ele>10.2</ele><time>2026-05-01T13:46:34Z</time></trkpt><trkpt lat="43.3883062072409" lon="-4.284544108051131"><ele>10.4</ele><time>2026-05-01T13:46:35Z</time></trkpt><trkpt lat="43.38832157378742" lon="-4.28467656456554"><ele>10.600000000000001</ele><time>2026-05-01T13:46:36Z</time></trkpt><trkpt lat="43.388340365755006" lon="-4.284808608105752"><ele>10.8</ele><time>2026-05-01T13:46:37Z</time></trkpt><trkpt lat="43.388356070649586" lon="-4.284937867081614"><ele>11.0</ele><time>2026-05-01T13:46:38Z</time></trkpt><trkpt lat="43.38837099679081" lon="-4.28506614920317"><ele>12.600000000000001</ele><time>2026-05-01T13:46:39Z</time></trkpt><trkpt lat="43.38839061782627" lon="-4.285193637293591"><ele>14.2</ele><time>2026-05-01T13:46:40Z</time></trkpt><trkpt lat="43.38840296421765" lon="-4.285322191024933"><ele>15.799999999999999</ele><time>2026-05-01T13:46:41Z</time></trkpt><trkpt lat="43.38841393610048" lon="-4.285448393520793"><ele>17.4</ele><time>2026-05-01T13:46:42Z</time></trkpt><trkpt lat="43.388421806341206" lon="-4.285576903011054"><ele>19.0</ele><time>2026-05-01T13:46:43Z</time></trkpt><trkpt lat="43.38843009825449" lon="-4.2857078125347865"><ele>19.2</ele><time>2026-05-01T13:46:44Z</time></trkpt><trkpt lat="43.388432482009186" lon="-4.285833966711976"><ele>19.4</ele><time>2026-05-01T13:46:45Z</time></trkpt><trkpt lat="43.38843249187717" lon="-4.285963989343893"><ele>19.6</ele><time>2026-05-01T13:46:46Z</time></trkpt><trkpt lat="43.38843175197208" lon="-4.286092796559394"><ele>19.8</ele><time>2026-05-01T13:46:47Z</time></trkpt><trkpt lat="43.388428234931396" lon="-4.286221840054292"><ele>20.0</ele><time>2026-05-01T13:46:48Z</time></trkpt><trkpt lat="43.388421626463085" lon="-4.286351558992631"><ele>19.8</ele><time>2026-05-01T13:46:49Z</time></trkpt><trkpt lat="43.38841921206749" lon="-4.286480462025719"><ele>19.6</ele><time>2026-05-01T13:46:50Z</time></trkpt><trkpt lat="43.38842146009771" lon="-4.286610320855735"><ele>19.4</ele><time>2026-05-01T13:46:51Z</time></trkpt><trkpt lat="43.388418418650296" lon="-4.286741507965567"><ele>19.2</ele><time>2026-05-01T13:46:52Z</time></trkpt><trkpt lat="43.388417958080915" lon="-4.2868746063369745"><ele>19.0</ele><time>2026-05-01T13:46:53Z</time></trkpt><trkpt lat="43.38841531153291" lon="-4.287007182801984"><ele>19.0</ele><time>2026-05-01T13:46:54Z</time></trkpt><trkpt lat="43.38841448412424" lon="-4.287139565427448"><ele>19.0</ele><time>2026-05-01T13:46:55Z</time></trkpt><trkpt lat="43.388414509179825" lon="-4.287269951719412"><ele>19.0</ele><time>2026-05-01T13:46:56.001Z</time></trkpt><trkpt lat="43.388417873398204" lon="-4.2873996892320205"><ele>19.0</ele><time>2026-05-01T13:46:57.001Z</time></trkpt><trkpt lat="43.38842738365312" lon="-4.287532486179714"><ele>19.0</ele><time>2026-05-01T13:46:58.001Z</time></trkpt><trkpt lat="43.388439185689634" lon="-4.287663513647716"><ele>19.4</ele><time>2026-05-01T13:46:59.001Z</time></trkpt><trkpt lat="43.38845609681397" lon="-4.287793266588411"><ele>19.799999999999997</ele><time>2026-05-01T13:47:00.001Z</time></trkpt><trkpt lat="43.3884903756067" lon="-4.287920647235053"><ele>20.200000000000003</ele><time>2026-05-01T13:47:01.001Z</time></trkpt><trkpt lat="43.388495683894085" lon="-4.28805326515857"><ele>20.6</ele><time>2026-05-01T13:47:02.001Z</time></trkpt><trkpt lat="43.388519285636605" lon="-4.288183498433563"><ele>21.0</ele><time>2026-05-01T13:47:03.001Z</time></trkpt><trkpt lat="43.388542795809855" lon="-4.288315638559705"><ele>21.6</ele><time>2026-05-01T13:47:04.001Z</time></trkpt><trkpt lat="43.38856518303599" lon="-4.288450091428647"><ele>22.200000000000003</ele><time>2026-05-01T13:47:05.001Z</time></trkpt><trkpt lat="43.38858502345698" lon="-4.28858819320677"><ele>22.799999999999997</ele><time>2026-05-01T13:47:06.001Z</time></trkpt><trkpt lat="43.388604439018906" lon="-4.288717911729155"><ele>23.4</ele><time>2026-05-01T13:47:07.001Z</time></trkpt><trkpt lat="43.38862521434943" lon="-4.288846698560507"><ele>24.0</ele><time>2026-05-01T13:47:08.001Z</time></trkpt><trkpt lat="43.38864470152157" lon="-4.288976060078315"><ele>24.2</ele><time>2026-05-01T13:47:09.001Z</time></trkpt><trkpt lat="43.38866556398625" lon="-4.28910392426633"><ele>24.4</ele><time>2026-05-01T13:47:10.001Z</time></trkpt><trkpt lat="43.38869203771624" lon="-4.2892185799478755"><ele>24.6</ele><time>2026-05-01T13:47:11.001Z</time></trkpt><trkpt lat="43.38871912525568" lon="-4.289335422714764"><ele>24.8</ele><time>2026-05-01T13:47:12.001Z</time></trkpt><trkpt lat="43.38874768641114" lon="-4.289457749709731"><ele>25.0</ele><time>2026-05-01T13:47:13.001Z</time></trkpt><trkpt lat="43.38878651071767" lon="-4.289573222351441"><ele>25.0</ele><time>2026-05-01T13:47:14.001Z</time></trkpt><trkpt lat="43.388834083924486" lon="-4.289686269198103"><ele>25.0</ele><time>2026-05-01T13:47:15.001Z</time></trkpt><trkpt lat="43.38895332191118" lon="-4.289879452447984"><ele>25.0</ele><time>2026-05-01T13:47:17.001Z</time></trkpt><trkpt lat="43.389021323981304" lon="-4.289973382439709"><ele>25.0</ele><time>2026-05-01T13:47:18.001Z</time></trkpt><trkpt lat="43.3890898795481" lon="-4.290064168668859"><ele>22.8</ele><time>2026-05-01T13:47:19.001Z</time></trkpt><trkpt lat="43.38916143545499" lon="-4.290148897012567"><ele>20.6</ele><time>2026-05-01T13:47:20.001Z</time></trkpt><trkpt lat="43.389232178040075" lon="-4.290231194094779"><ele>18.4</ele><time>2026-05-01T13:47:21.001Z</time></trkpt><trkpt lat="43.38930092313031" lon="-4.290320564562632"><ele>16.2</ele><time>2026-05-01T13:47:22.001Z</time></trkpt><trkpt lat="43.3893739203616" lon="-4.290406045859194"><ele>14.0</ele><time>2026-05-01T13:47:23.001Z</time></trkpt><trkpt lat="43.389446027611484" lon="-4.290492855547992"><ele>14.0</ele><time>2026-05-01T13:47:24.001Z</time></trkpt><trkpt lat="43.38951829712877" lon="-4.290580934045557"><ele>13.999999999999998</ele><time>2026-05-01T13:47:25.001Z</time></trkpt><trkpt lat="43.389590737032734" lon="-4.290668601667998"><ele>13.999999999999998</ele><time>2026-05-01T13:47:26.001Z</time></trkpt><trkpt lat="43.38966241568436" lon="-4.290756430893463"><ele>14.0</ele><time>2026-05-01T13:47:27.001Z</time></trkpt><trkpt lat="43.38973190215708" lon="-4.2908496551669035"><ele>14.0</ele><time>2026-05-01T13:47:28.001Z</time></trkpt><trkpt lat="43.38980178382408" lon="-4.290941706223898"><ele>13.2</ele><time>2026-05-01T13:47:29.001Z</time></trkpt><trkpt lat="43.38986777590863" lon="-4.291034161121906"><ele>12.399999999999999</ele><time>2026-05-01T13:47:30.001Z</time></trkpt><trkpt lat="43.38993247860327" lon="-4.291133312430197"><ele>11.6</ele><time>2026-05-01T13:47:31.001Z</time></trkpt><trkpt lat="43.38999776485238" lon="-4.291231696179608"><ele>10.8</ele><time>2026-05-01T13:47:32.001Z</time></trkpt><trkpt lat="43.39005795898435" lon="-4.291337067706924"><ele>10.0</ele><time>2026-05-01T13:47:33.001Z</time></trkpt><trkpt lat="43.390117999559266" lon="-4.291441273783449"><ele>12.0</ele><time>2026-05-01T13:47:34.001Z</time></trkpt><trkpt lat="43.39017559081351" lon="-4.291549042285844"><ele>14.0</ele><time>2026-05-01T13:47:35.001Z</time></trkpt><trkpt lat="43.390236408615806" lon="-4.291651869517997"><ele>16.0</ele><time>2026-05-01T13:47:36.001Z</time></trkpt><trkpt lat="43.39029719437941" lon="-4.291756718541923"><ele>18.0</ele><time>2026-05-01T13:47:37.001Z</time></trkpt><trkpt lat="43.39036135089828" lon="-4.291857741177796"><ele>20.0</ele><time>2026-05-01T13:47:38.001Z</time></trkpt><trkpt lat="43.39042389348243" lon="-4.291960214414945"><ele>20.0</ele><time>2026-05-01T13:47:39.001Z</time></trkpt><trkpt lat="43.390482308012324" lon="-4.292064338045739"><ele>20.0</ele><time>2026-05-01T13:47:40.001Z</time></trkpt><trkpt lat="43.3905403785849" lon="-4.292166804206533"><ele>20.0</ele><time>2026-05-01T13:47:41.001Z</time></trkpt><trkpt lat="43.39059371059534" lon="-4.292272931019808"><ele>20.0</ele><time>2026-05-01T13:47:42.001Z</time></trkpt><trkpt lat="43.39064212839784" lon="-4.2923806602412355"><ele>20.0</ele><time>2026-05-01T13:47:43.001Z</time></trkpt><trkpt lat="43.39068041506577" lon="-4.292490610697495"><ele>19.5</ele><time>2026-05-01T13:47:44.001Z</time></trkpt><trkpt lat="43.39071374617279" lon="-4.292597136891603"><ele>19.0</ele><time>2026-05-01T13:47:45.001Z</time></trkpt><trkpt lat="43.390746442620994" lon="-4.292695263780385"><ele>18.5</ele><time>2026-05-01T13:47:46.001Z</time></trkpt><trkpt lat="43.39079759384467" lon="-4.292778638578683"><ele>18.0</ele><time>2026-05-01T13:47:47.001Z</time></trkpt><trkpt lat="43.39085178299039" lon="-4.292856511057516"><ele>17.5</ele><time>2026-05-01T13:47:48.001Z</time></trkpt><trkpt lat="43.390900279367706" lon="-4.292939665214636"><ele>17.0</ele><time>2026-05-01T13:47:49.001Z</time></trkpt><trkpt lat="43.3909282249786" lon="-4.293037630393385"><ele>17.6</ele><time>2026-05-01T13:47:50.001Z</time></trkpt><trkpt lat="43.39093575585707" lon="-4.2931415792119205"><ele>18.2</ele><time>2026-05-01T13:47:51.001Z</time></trkpt><trkpt lat="43.390922369636236" lon="-4.293243707625764"><ele>18.8</ele><time>2026-05-01T13:47:52Z</time></trkpt><trkpt lat="43.390888037982016" lon="-4.293339110041193"><ele>19.4</ele><time>2026-05-01T13:47:53Z</time></trkpt><trkpt lat="43.39079222012479" lon="-4.293517940672264"><ele>20.0</ele><time>2026-05-01T13:47:55Z</time></trkpt><trkpt lat="43.39074458783806" lon="-4.293611540010823"><ele>20.0</ele><time>2026-05-01T13:47:56Z</time></trkpt><trkpt lat="43.390701911835606" lon="-4.293711534046102"><ele>20.0</ele><time>2026-05-01T13:47:57Z</time></trkpt><trkpt lat="43.39066049207995" lon="-4.29381101939964"><ele>20.0</ele><time>2026-05-01T13:47:58Z</time></trkpt><trkpt lat="43.39061816780293" lon="-4.293904888014811"><ele>20.0</ele><time>2026-05-01T13:47:59Z</time></trkpt><trkpt lat="43.39057344730225" lon="-4.293987173010023"><ele>20.0</ele><time>2026-05-01T13:48:00Z</time></trkpt><trkpt lat="43.39053902527288" lon="-4.294082336510346"><ele>20.0</ele><time>2026-05-01T13:48:01Z</time></trkpt><trkpt lat="43.390471617656" lon="-4.294147171274383"><ele>21.0</ele><time>2026-05-01T13:48:02Z</time></trkpt><trkpt lat="43.39041337691827" lon="-4.294227049191666"><ele>22.0</ele><time>2026-05-01T13:48:03Z</time></trkpt><trkpt lat="43.390347165182575" lon="-4.2942991278901035"><ele>23.0</ele><time>2026-05-01T13:48:04Z</time></trkpt><trkpt lat="43.39027650558321" lon="-4.294367066107889"><ele>24.0</ele><time>2026-05-01T13:48:05Z</time></trkpt><trkpt lat="43.39020117716899" lon="-4.2944298065242155"><ele>24.999999999999996</ele><time>2026-05-01T13:48:06Z</time></trkpt><trkpt lat="43.390122810791745" lon="-4.294484170718137"><ele>26.0</ele><time>2026-05-01T13:48:07Z</time></trkpt><trkpt lat="43.39003641273213" lon="-4.294525525247289"><ele>26.0</ele><time>2026-05-01T13:48:08Z</time></trkpt><trkpt lat="43.38994782370058" lon="-4.29456119301961"><ele>26.0</ele><time>2026-05-01T13:48:09Z</time></trkpt><trkpt lat="43.38985382199371" lon="-4.294589596489496"><ele>26.0</ele><time>2026-05-01T13:48:10Z</time></trkpt><trkpt lat="43.389756053873356" lon="-4.294603848861807"><ele>26.0</ele><time>2026-05-01T13:48:11Z</time></trkpt><trkpt lat="43.38965751513316" lon="-4.294610469129502"><ele>26.0</ele><time>2026-05-01T13:48:12Z</time></trkpt><trkpt lat="43.38955837575129" lon="-4.294606572499299"><ele>26.0</ele><time>2026-05-01T13:48:13Z</time></trkpt><trkpt lat="43.38945983080255" lon="-4.294592256254858"><ele>26.0</ele><time>2026-05-01T13:48:14Z</time></trkpt><trkpt lat="43.38936445785941" lon="-4.2945661982665335"><ele>26.0</ele><time>2026-05-01T13:48:15Z</time></trkpt><trkpt lat="43.38926711362775" lon="-4.294532911002417"><ele>26.0</ele><time>2026-05-01T13:48:16Z</time></trkpt><trkpt lat="43.38917268187274" lon="-4.294497376206542"><ele>26.0</ele><time>2026-05-01T13:48:17Z</time></trkpt><trkpt lat="43.38907926736387" lon="-4.294458440832352"><ele>26.0</ele><time>2026-05-01T13:48:18Z</time></trkpt><trkpt lat="43.38898412575604" lon="-4.294419030287604"><ele>26.0</ele><time>2026-05-01T13:48:19Z</time></trkpt><trkpt lat="43.38888866246804" lon="-4.294379119377004"><ele>26.0</ele><time>2026-05-01T13:48:20Z</time></trkpt><trkpt lat="43.38879337137668" lon="-4.294340401213324"><ele>26.0</ele><time>2026-05-01T13:48:21Z</time></trkpt><trkpt lat="43.3886977945808" lon="-4.294298132788723"><ele>26.0</ele><time>2026-05-01T13:48:22Z</time></trkpt><trkpt lat="43.388603079143074" lon="-4.294255175366784"><ele>27.4</ele><time>2026-05-01T13:48:23Z</time></trkpt><trkpt lat="43.38850848733596" lon="-4.294215315949237"><ele>28.8</ele><time>2026-05-01T13:48:24Z</time></trkpt><trkpt lat="43.38841523556958" lon="-4.294178119484904"><ele>30.199999999999996</ele><time>2026-05-01T13:48:25Z</time></trkpt><trkpt lat="43.38832017336408" lon="-4.294139679186232"><ele>31.599999999999998</ele><time>2026-05-01T13:48:26Z</time></trkpt><trkpt lat="43.38822377118346" lon="-4.294105723507486"><ele>33.0</ele><time>2026-05-01T13:48:27Z</time></trkpt><trkpt lat="43.38812571647748" lon="-4.294077222356495"><ele>33.0</ele><time>2026-05-01T13:48:28Z</time></trkpt><trkpt lat="43.38802781730995" lon="-4.29405764264535"><ele>33.0</ele><time>2026-05-01T13:48:29Z</time></trkpt><trkpt lat="43.387929415365896" lon="-4.294045930707107"><ele>33.0</ele><time>2026-05-01T13:48:30Z</time></trkpt><trkpt lat="43.38783277222714" lon="-4.29404081938155"><ele>33.0</ele><time>2026-05-01T13:48:31Z</time></trkpt><trkpt lat="43.38773568940823" lon="-4.294051482133142"><ele>33.0</ele><time>2026-05-01T13:48:32Z</time></trkpt><trkpt lat="43.38763815275179" lon="-4.294075029623049"><ele>33.199999999999996</ele><time>2026-05-01T13:48:33Z</time></trkpt><trkpt lat="43.387544123126624" lon="-4.2941162400005135"><ele>33.4</ele><time>2026-05-01T13:48:34Z</time></trkpt><trkpt lat="43.387452600910656" lon="-4.29416165120629"><ele>33.599999999999994</ele><time>2026-05-01T13:48:35Z</time></trkpt><trkpt lat="43.387362047335586" lon="-4.29421425562988"><ele>33.8</ele><time>2026-05-01T13:48:36Z</time></trkpt><trkpt lat="43.38727415738289" lon="-4.294274299903236"><ele>34.0</ele><time>2026-05-01T13:48:37Z</time></trkpt><trkpt lat="43.387188809658504" lon="-4.294333054507669"><ele>33.0</ele><time>2026-05-01T13:48:38Z</time></trkpt><trkpt lat="43.38710303879598" lon="-4.294396122591472"><ele>32.0</ele><time>2026-05-01T13:48:39Z</time></trkpt><trkpt lat="43.38701493768854" lon="-4.2944603678514"><ele>31.0</ele><time>2026-05-01T13:48:40Z</time></trkpt><trkpt lat="43.38692637343928" lon="-4.294525036220538"><ele>30.0</ele><time>2026-05-01T13:48:41Z</time></trkpt><trkpt lat="43.38683920215081" lon="-4.294590891104244"><ele>29.0</ele><time>2026-05-01T13:48:42Z</time></trkpt><trkpt lat="43.38675241453077" lon="-4.2946537173985675"><ele>29.0</ele><time>2026-05-01T13:48:43Z</time></trkpt><trkpt lat="43.386665950480875" lon="-4.294717641059869"><ele>29.0</ele><time>2026-05-01T13:48:44Z</time></trkpt><trkpt lat="43.38658256526801" lon="-4.294789561834286"><ele>29.0</ele><time>2026-05-01T13:48:45Z</time></trkpt><trkpt lat="43.38650000897349" lon="-4.294862850500631"><ele>29.0</ele><time>2026-05-01T13:48:46.001Z</time></trkpt><trkpt lat="43.386420381733984" lon="-4.294938908441356"><ele>29.0</ele><time>2026-05-01T13:48:47.001Z</time></trkpt><trkpt lat="43.38634325908535" lon="-4.295023686360492"><ele>28.799999999999997</ele><time>2026-05-01T13:48:48.001Z</time></trkpt><trkpt lat="43.38626787133874" lon="-4.295111369675858"><ele>28.599999999999998</ele><time>2026-05-01T13:48:49.001Z</time></trkpt><trkpt lat="43.38619477282374" lon="-4.295203190636521"><ele>28.4</ele><time>2026-05-01T13:48:50.001Z</time></trkpt><trkpt lat="43.38612124023142" lon="-4.295299591059393"><ele>28.2</ele><time>2026-05-01T13:48:51.001Z</time></trkpt><trkpt lat="43.386050519714104" lon="-4.295398595277942"><ele>28.0</ele><time>2026-05-01T13:48:52.001Z</time></trkpt><trkpt lat="43.38597813179667" lon="-4.295494330042162"><ele>28.799999999999997</ele><time>2026-05-01T13:48:53.001Z</time></trkpt><trkpt lat="43.38590674558028" lon="-4.295591547899346"><ele>29.599999999999998</ele><time>2026-05-01T13:48:54.001Z</time></trkpt><trkpt lat="43.385836343658625" lon="-4.295688221918582"><ele>30.400000000000002</ele><time>2026-05-01T13:48:55.001Z</time></trkpt><trkpt lat="43.385763415030105" lon="-4.295781230348525"><ele>31.200000000000003</ele><time>2026-05-01T13:48:56.001Z</time></trkpt><trkpt lat="43.385688259003665" lon="-4.295874087952613"><ele>32.0</ele><time>2026-05-01T13:48:57.001Z</time></trkpt><trkpt lat="43.38561345118075" lon="-4.295963745064534"><ele>32.0</ele><time>2026-05-01T13:48:58.001Z</time></trkpt><trkpt lat="43.38553768077753" lon="-4.296052302768894"><ele>32.0</ele><time>2026-05-01T13:48:59.001Z</time></trkpt><trkpt lat="43.38546075233817" lon="-4.296139285056608"><ele>32.0</ele><time>2026-05-01T13:49:00.001Z</time></trkpt><trkpt lat="43.38538059389495" lon="-4.296224737850012"><ele>32.0</ele><time>2026-05-01T13:49:01.001Z</time></trkpt><trkpt lat="43.38530126739315" lon="-4.2963083173469485"><ele>32.0</ele><time>2026-05-01T13:49:02.001Z</time></trkpt><trkpt lat="43.38522358053201" lon="-4.296391351275195"><ele>31.6</ele><time>2026-05-01T13:49:03.001Z</time></trkpt><trkpt lat="43.38514916164753" lon="-4.2964728216875825"><ele>31.200000000000003</ele><time>2026-05-01T13:49:04.001Z</time></trkpt><trkpt lat="43.385076290498276" lon="-4.296554322867873"><ele>30.8</ele><time>2026-05-01T13:49:05.001Z</time></trkpt><trkpt lat="43.38500375773487" lon="-4.296628308765458"><ele>30.4</ele><time>2026-05-01T13:49:06.001Z</time></trkpt><trkpt lat="43.384936128793214" lon="-4.29670630057607"><ele>30.0</ele><time>2026-05-01T13:49:07.001Z</time></trkpt><trkpt lat="43.38487681893117" lon="-4.296790560958132"><ele>30.0</ele><time>2026-05-01T13:49:08.001Z</time></trkpt><trkpt lat="43.38482873814509" lon="-4.296885302823805"><ele>30.0</ele><time>2026-05-01T13:49:09.001Z</time></trkpt><trkpt lat="43.38479002297044" lon="-4.2969922298768894"><ele>30.0</ele><time>2026-05-01T13:49:10.001Z</time></trkpt><trkpt lat="43.38475721014702" lon="-4.297100269028243"><ele>30.0</ele><time>2026-05-01T13:49:11.001Z</time></trkpt><trkpt lat="43.38471947145153" lon="-4.297205921054359"><ele>30.0</ele><time>2026-05-01T13:49:12.001Z</time></trkpt><trkpt lat="43.384652880334066" lon="-4.2972820962215215"><ele>30.0</ele><time>2026-05-01T13:49:13.001Z</time></trkpt><trkpt lat="43.38457306284161" lon="-4.297339481363098"><ele>30.2</ele><time>2026-05-01T13:49:14.001Z</time></trkpt><trkpt lat="43.384490309845674" lon="-4.297396931057869"><ele>30.4</ele><time>2026-05-01T13:49:15.001Z</time></trkpt><trkpt lat="43.38442564223394" lon="-4.29749329818899"><ele>30.6</ele><time>2026-05-01T13:49:16.001Z</time></trkpt><trkpt lat="43.38437715514049" lon="-4.297607029204658"><ele>30.8</ele><time>2026-05-01T13:49:17.001Z</time></trkpt><trkpt lat="43.384341455364876" lon="-4.297722531909674"><ele>31.0</ele><time>2026-05-01T13:49:18.001Z</time></trkpt><trkpt lat="43.384312061291325" lon="-4.297839809087896"><ele>31.0</ele><time>2026-05-01T13:49:19.001Z</time></trkpt><trkpt lat="43.38428525848918" lon="-4.29796312132171"><ele>31.0</ele><time>2026-05-01T13:49:20.001Z</time></trkpt><trkpt lat="43.38426181542023" lon="-4.298088352189504"><ele>31.0</ele><time>2026-05-01T13:49:21.001Z</time></trkpt><trkpt lat="43.38423535491048" lon="-4.298210571720104"><ele>31.0</ele><time>2026-05-01T13:49:22.001Z</time></trkpt><trkpt lat="43.38421122507873" lon="-4.29833370279589"><ele>31.0</ele><time>2026-05-01T13:49:23.001Z</time></trkpt><trkpt lat="43.384187609626586" lon="-4.298457179183298"><ele>31.333333333333336</ele><time>2026-05-01T13:49:24.001Z</time></trkpt><trkpt lat="43.38416425134947" lon="-4.298579498232443"><ele>31.666666666666668</ele><time>2026-05-01T13:49:25.001Z</time></trkpt><trkpt lat="43.38414062577024" lon="-4.29869955266416"><ele>32.0</ele><time>2026-05-01T13:49:26.001Z</time></trkpt><trkpt lat="43.384116177073125" lon="-4.298815719624182"><ele>32.333333333333336</ele><time>2026-05-01T13:49:27.001Z</time></trkpt><trkpt lat="43.38409087675888" lon="-4.298931468577615"><ele>32.666666666666664</ele><time>2026-05-01T13:49:28.001Z</time></trkpt><trkpt lat="43.384065170801954" lon="-4.299047218661115"><ele>33.0</ele><time>2026-05-01T13:49:29.001Z</time></trkpt><trkpt lat="43.38404199308351" lon="-4.2991636004977725"><ele>34.4</ele><time>2026-05-01T13:49:30.001Z</time></trkpt><trkpt lat="43.38401821623114" lon="-4.29928341443366"><ele>35.8</ele><time>2026-05-01T13:49:31.001Z</time></trkpt><trkpt lat="43.383992128139674" lon="-4.299399931813719"><ele>37.2</ele><time>2026-05-01T13:49:32.001Z</time></trkpt><trkpt lat="43.383967639504114" lon="-4.299520051189371"><ele>38.6</ele><time>2026-05-01T13:49:33.001Z</time></trkpt><trkpt lat="43.38394326265837" lon="-4.299641575528685"><ele>40.0</ele><time>2026-05-01T13:49:34.001Z</time></trkpt><trkpt lat="43.38391721184381" lon="-4.299762327865049"><ele>40.2</ele><time>2026-05-01T13:49:35.001Z</time></trkpt><trkpt lat="43.38389351031193" lon="-4.299880039299148"><ele>40.4</ele><time>2026-05-01T13:49:36.001Z</time></trkpt><trkpt lat="43.38386882540866" lon="-4.300001465372688"><ele>40.599999999999994</ele><time>2026-05-01T13:49:37.001Z</time></trkpt><trkpt lat="43.383845474023744" lon="-4.3001234663142425"><ele>40.8</ele><time>2026-05-01T13:49:38.001Z</time></trkpt><trkpt lat="43.383821800757026" lon="-4.30024163669373"><ele>41.0</ele><time>2026-05-01T13:49:39.001Z</time></trkpt><trkpt lat="43.383798405298734" lon="-4.30036508402992"><ele>41.0</ele><time>2026-05-01T13:49:40.001Z</time></trkpt><trkpt lat="43.383776103149856" lon="-4.300487572534372"><ele>41.0</ele><time>2026-05-01T13:49:41.001Z</time></trkpt><trkpt lat="43.38375277121326" lon="-4.300611745191101"><ele>41.0</ele><time>2026-05-01T13:49:42.001Z</time></trkpt><trkpt lat="43.383728364467146" lon="-4.300739521335103"><ele>41.0</ele><time>2026-05-01T13:49:43.001Z</time></trkpt><trkpt lat="43.383702258206796" lon="-4.300869515393435"><ele>41.0</ele><time>2026-05-01T13:49:44.002Z</time></trkpt><trkpt lat="43.383674543169995" lon="-4.301003192580898"><ele>41.199999999999996</ele><time>2026-05-01T13:49:45.002Z</time></trkpt><trkpt lat="43.3836526072028" lon="-4.301140894220348"><ele>41.4</ele><time>2026-05-01T13:49:46.002Z</time></trkpt><trkpt lat="43.38363612766622" lon="-4.301278978438056"><ele>41.6</ele><time>2026-05-01T13:49:47.002Z</time></trkpt><trkpt lat="43.383612120783546" lon="-4.3014150500369"><ele>41.8</ele><time>2026-05-01T13:49:48.002Z</time></trkpt><trkpt lat="43.383582251092996" lon="-4.301550690260209"><ele>42.0</ele><time>2026-05-01T13:49:49.002Z</time></trkpt><trkpt lat="43.38354682299482" lon="-4.301688525797437"><ele>42.75</ele><time>2026-05-01T13:49:50.002Z</time></trkpt><trkpt lat="43.38351607619218" lon="-4.301829158249654"><ele>43.5</ele><time>2026-05-01T13:49:51.002Z</time></trkpt><trkpt lat="43.383477394721744" lon="-4.301961854504162"><ele>44.25</ele><time>2026-05-01T13:49:52.002Z</time></trkpt><trkpt lat="43.38343824373136" lon="-4.302123554826367"><ele>45.0</ele><time>2026-05-01T13:49:53.002Z</time></trkpt><trkpt lat="43.38340373489111" lon="-4.302324896822831"><ele>45.5</ele><time>2026-05-01T13:49:54.002Z</time></trkpt><trkpt lat="43.38334390533687" lon="-4.3026079608060375"><ele>46.0</ele><time>2026-05-01T13:49:55.002Z</time></trkpt><trkpt lat="43.38330556965873" lon="-4.302536527329404"><ele>46.5</ele><time>2026-05-01T13:49:56.002Z</time></trkpt><trkpt lat="43.38326497456653" lon="-4.302671381442548"><ele>47.0</ele><time>2026-05-01T13:49:57.002Z</time></trkpt><trkpt lat="43.383220618737276" lon="-4.30280222145035"><ele>47.0</ele><time>2026-05-01T13:49:58Z</time></trkpt><trkpt lat="43.38317738987359" lon="-4.302937516118452"><ele>47.0</ele><time>2026-05-01T13:49:59Z</time></trkpt><trkpt lat="43.383133323481296" lon="-4.303076545896653"><ele>47.0</ele><time>2026-05-01T13:50:00Z</time></trkpt><trkpt lat="43.38309084746005" lon="-4.303226600567657"><ele>47.0</ele><time>2026-05-01T13:50:01Z</time></trkpt><trkpt lat="43.383052580741534" lon="-4.303352787205726"><ele>47.0</ele><time>2026-05-01T13:50:02Z</time></trkpt><trkpt lat="43.383018472927105" lon="-4.303494927508205"><ele>45.8</ele><time>2026-05-01T13:50:03Z</time></trkpt><trkpt lat="43.38298930577404" lon="-4.303632575041426"><ele>44.6</ele><time>2026-05-01T13:50:04Z</time></trkpt><trkpt lat="43.38296592812261" lon="-4.303773222961687"><ele>43.4</ele><time>2026-05-01T13:50:05Z</time></trkpt><trkpt lat="43.38293815322521" lon="-4.30391495154164"><ele>42.199999999999996</ele><time>2026-05-01T13:50:06Z</time></trkpt><trkpt lat="43.38291621289278" lon="-4.304053527115676"><ele>41.0</ele><time>2026-05-01T13:50:07Z</time></trkpt><trkpt lat="43.38289885033459" lon="-4.304192816005316"><ele>40.599999999999994</ele><time>2026-05-01T13:50:08Z</time></trkpt><trkpt lat="43.3828727473129" lon="-4.304334432390789"><ele>40.199999999999996</ele><time>2026-05-01T13:50:09Z</time></trkpt><trkpt lat="43.38284234703545" lon="-4.3044667012717355"><ele>39.8</ele><time>2026-05-01T13:50:10Z</time></trkpt><trkpt lat="43.38281152516029" lon="-4.304599919947175"><ele>39.4</ele><time>2026-05-01T13:50:11Z</time></trkpt><trkpt lat="43.382771287214744" lon="-4.304725674272539"><ele>39.0</ele><time>2026-05-01T13:50:12Z</time></trkpt><trkpt lat="43.38273249788626" lon="-4.3048646074678745"><ele>38.8</ele><time>2026-05-01T13:50:13Z</time></trkpt><trkpt lat="43.382689590898224" lon="-4.304996516252495"><ele>38.599999999999994</ele><time>2026-05-01T13:50:14Z</time></trkpt><trkpt lat="43.382641801706754" lon="-4.305127379854494"><ele>38.4</ele><time>2026-05-01T13:50:15Z</time></trkpt><trkpt lat="43.38258822916115" lon="-4.305259011428104"><ele>38.199999999999996</ele><time>2026-05-01T13:50:16Z</time></trkpt><trkpt lat="43.38253773884778" lon="-4.305377059979705"><ele>38.0</ele><time>2026-05-01T13:50:17Z</time></trkpt><trkpt lat="43.38248251886838" lon="-4.305505642481608"><ele>37.0</ele><time>2026-05-01T13:50:18Z</time></trkpt><trkpt lat="43.382434251983966" lon="-4.305635155796043"><ele>36.0</ele><time>2026-05-01T13:50:19Z</time></trkpt><trkpt lat="43.38237438231975" lon="-4.305777435183746"><ele>35.0</ele><time>2026-05-01T13:50:20Z</time></trkpt><trkpt lat="43.382318898669666" lon="-4.305922836562876"><ele>34.0</ele><time>2026-05-01T13:50:21Z</time></trkpt><trkpt lat="43.38227108022977" lon="-4.306101999296518"><ele>34.0</ele><time>2026-05-01T13:50:22Z</time></trkpt><trkpt lat="43.38219179691967" lon="-4.3062527022409505"><ele>34.0</ele><time>2026-05-01T13:50:23Z</time></trkpt><trkpt lat="43.382165963641576" lon="-4.306355360114099"><ele>34.0</ele><time>2026-05-01T13:50:24Z</time></trkpt><trkpt lat="43.38211591543957" lon="-4.306453065227888"><ele>34.0</ele><time>2026-05-01T13:50:25Z</time></trkpt><trkpt lat="43.38206170248994" lon="-4.306572892973892"><ele>34.0</ele><time>2026-05-01T13:50:26Z</time></trkpt><trkpt lat="43.382002511784265" lon="-4.30670017822796"><ele>33.0</ele><time>2026-05-01T13:50:27Z</time></trkpt><trkpt lat="43.38196337554994" lon="-4.306840769420286"><ele>32.0</ele><time>2026-05-01T13:50:28Z</time></trkpt><trkpt lat="43.3819569901408" lon="-4.306969732327757"><ele>31.0</ele><time>2026-05-01T13:50:29Z</time></trkpt><trkpt lat="43.381873766905834" lon="-4.307106154490627"><ele>30.0</ele><time>2026-05-01T13:50:30Z</time></trkpt><trkpt lat="43.381792684651714" lon="-4.3072195016049495"><ele>29.0</ele><time>2026-05-01T13:50:31Z</time></trkpt><trkpt lat="43.381699083640555" lon="-4.307259905080825"><ele>29.0</ele><time>2026-05-01T13:50:33Z</time></trkpt><trkpt lat="43.38164093430971" lon="-4.307316191244144"><ele>29.0</ele><time>2026-05-01T13:50:34Z</time></trkpt><trkpt lat="43.38156181017885" lon="-4.307611429537264"><ele>29.0</ele><time>2026-05-01T13:50:35Z</time></trkpt><trkpt lat="43.381518357611" lon="-4.307824520071408"><ele>29.0</ele><time>2026-05-01T13:50:36Z</time></trkpt><trkpt lat="43.381467642280846" lon="-4.308033371302305"><ele>29.0</ele><time>2026-05-01T13:50:37.001Z</time></trkpt><trkpt lat="43.381408966597704" lon="-4.3081637053615935"><ele>29.0</ele><time>2026-05-01T13:50:38.001Z</time></trkpt><trkpt lat="43.38135490406165" lon="-4.308293803793988"><ele>29.0</ele><time>2026-05-01T13:50:39.001Z</time></trkpt><trkpt lat="43.38130387493596" lon="-4.3084229302220605"><ele>27.6</ele><time>2026-05-01T13:50:40.001Z</time></trkpt><trkpt lat="43.3812467899631" lon="-4.308540646534864"><ele>26.2</ele><time>2026-05-01T13:50:41.001Z</time></trkpt><trkpt lat="43.38120315375039" lon="-4.308667237338673"><ele>24.8</ele><time>2026-05-01T13:50:42.001Z</time></trkpt><trkpt lat="43.38115219049867" lon="-4.308796553164836"><ele>23.400000000000002</ele><time>2026-05-01T13:50:43.001Z</time></trkpt><trkpt lat="43.38109806603762" lon="-4.3089222935283695"><ele>22.0</ele><time>2026-05-01T13:50:44.001Z</time></trkpt><trkpt lat="43.38104759351022" lon="-4.3090506820927965"><ele>22.0</ele><time>2026-05-01T13:50:45.001Z</time></trkpt><trkpt lat="43.380991415921066" lon="-4.3091803974916285"><ele>22.0</ele><time>2026-05-01T13:50:46.001Z</time></trkpt><trkpt lat="43.38094651561863" lon="-4.309306739794909"><ele>22.0</ele><time>2026-05-01T13:50:47.001Z</time></trkpt><trkpt lat="43.380892222688736" lon="-4.30943017798093"><ele>22.0</ele><time>2026-05-01T13:50:48.001Z</time></trkpt><trkpt lat="43.38083965615047" lon="-4.309556823034174"><ele>22.0</ele><time>2026-05-01T13:50:49.001Z</time></trkpt><trkpt lat="43.38078297475727" lon="-4.3096867103770045"><ele>22.6</ele><time>2026-05-01T13:50:50.001Z</time></trkpt><trkpt lat="43.380730774024286" lon="-4.309811766391783"><ele>23.200000000000003</ele><time>2026-05-01T13:50:51.001Z</time></trkpt><trkpt lat="43.38068547806504" lon="-4.30993571508689"><ele>23.8</ele><time>2026-05-01T13:50:52.001Z</time></trkpt><trkpt lat="43.380634732084935" lon="-4.310061118850973"><ele>24.4</ele><time>2026-05-01T13:50:53.001Z</time></trkpt><trkpt lat="43.38058569742552" lon="-4.3101862270038245"><ele>25.0</ele><time>2026-05-01T13:50:54.001Z</time></trkpt><trkpt lat="43.38053075276095" lon="-4.310313244361472"><ele>23.4</ele><time>2026-05-01T13:50:55.001Z</time></trkpt><trkpt lat="43.3804822742558" lon="-4.310444855994543"><ele>21.8</ele><time>2026-05-01T13:50:56.001Z</time></trkpt><trkpt lat="43.38043093505657" lon="-4.310579278388374"><ele>20.2</ele><time>2026-05-01T13:50:57.001Z</time></trkpt><trkpt lat="43.38037177010772" lon="-4.310703627546571"><ele>18.6</ele><time>2026-05-01T13:50:58.001Z</time></trkpt><trkpt lat="43.3803080886613" lon="-4.310829845552408"><ele>17.0</ele><time>2026-05-01T13:50:59.001Z</time></trkpt><trkpt lat="43.38026091360371" lon="-4.310970715287437"><ele>17.0</ele><time>2026-05-01T13:51:00.001Z</time></trkpt><trkpt lat="43.38020717123409" lon="-4.311109462864215"><ele>17.0</ele><time>2026-05-01T13:51:01.001Z</time></trkpt><trkpt lat="43.38015075425256" lon="-4.31124185995391"><ele>17.0</ele><time>2026-05-01T13:51:02.001Z</time></trkpt><trkpt lat="43.380096040200726" lon="-4.3113763196429815"><ele>17.0</ele><time>2026-05-01T13:51:03.001Z</time></trkpt><trkpt lat="43.380042949714515" lon="-4.3115102722264105"><ele>17.0</ele><time>2026-05-01T13:51:04.001Z</time></trkpt><trkpt lat="43.37998799116805" lon="-4.31164549541091"><ele>17.0</ele><time>2026-05-01T13:51:05.001Z</time></trkpt><trkpt lat="43.379929700998446" lon="-4.311778431106187"><ele>17.0</ele><time>2026-05-01T13:51:06.001Z</time></trkpt><trkpt lat="43.37987710998017" lon="-4.311916286571941"><ele>17.0</ele><time>2026-05-01T13:51:07.001Z</time></trkpt><trkpt lat="43.37982529302651" lon="-4.312050804711659"><ele>17.0</ele><time>2026-05-01T13:51:08.001Z</time></trkpt><trkpt lat="43.379770075579714" lon="-4.312190928580875"><ele>16.2</ele><time>2026-05-01T13:51:09.001Z</time></trkpt><trkpt lat="43.37972180053279" lon="-4.312386274629088"><ele>15.399999999999999</ele><time>2026-05-01T13:51:10.001Z</time></trkpt><trkpt lat="43.379665189447394" lon="-4.312439404280185"><ele>14.600000000000001</ele><time>2026-05-01T13:51:11.001Z</time></trkpt><trkpt lat="43.37961675674082" lon="-4.312572931219042"><ele>13.8</ele><time>2026-05-01T13:51:12.001Z</time></trkpt><trkpt lat="43.37956663915174" lon="-4.312704840469263"><ele>13.0</ele><time>2026-05-01T13:51:13.001Z</time></trkpt><trkpt lat="43.379514749148164" lon="-4.3128321840516435"><ele>13.0</ele><time>2026-05-01T13:51:14.001Z</time></trkpt><trkpt lat="43.37946378685896" lon="-4.312958778944302"><ele>13.0</ele><time>2026-05-01T13:51:15.001Z</time></trkpt><trkpt lat="43.37940999525922" lon="-4.31308698257167"><ele>13.0</ele><time>2026-05-01T13:51:16.001Z</time></trkpt><trkpt lat="43.37935731999677" lon="-4.313216300368399"><ele>13.0</ele><time>2026-05-01T13:51:17.001Z</time></trkpt><trkpt lat="43.37931176454117" lon="-4.313339074144521"><ele>13.0</ele><time>2026-05-01T13:51:18.001Z</time></trkpt><trkpt lat="43.37926682331735" lon="-4.313469301660715"><ele>13.4</ele><time>2026-05-01T13:51:19.001Z</time></trkpt><trkpt lat="43.37922206136117" lon="-4.313594920797148"><ele>13.8</ele><time>2026-05-01T13:51:20.001Z</time></trkpt><trkpt lat="43.37918420910752" lon="-4.3137183485887425"><ele>14.2</ele><time>2026-05-01T13:51:21.001Z</time></trkpt><trkpt lat="43.37914579393797" lon="-4.313841798465143"><ele>14.6</ele><time>2026-05-01T13:51:22.001Z</time></trkpt><trkpt lat="43.379108455369106" lon="-4.313960785301137"><ele>15.0</ele><time>2026-05-01T13:51:23.001Z</time></trkpt><trkpt lat="43.37907065597501" lon="-4.3140857678050795"><ele>15.2</ele><time>2026-05-01T13:51:24.001Z</time></trkpt><trkpt lat="43.37903820812302" lon="-4.314207858171852"><ele>15.4</ele><time>2026-05-01T13:51:25.001Z</time></trkpt><trkpt lat="43.37900669341419" lon="-4.314329811346236"><ele>15.600000000000001</ele><time>2026-05-01T13:51:26.001Z</time></trkpt><trkpt lat="43.37897384640531" lon="-4.314453355186226"><ele>15.8</ele><time>2026-05-01T13:51:27.001Z</time></trkpt><trkpt lat="43.378944016736476" lon="-4.314582542791157"><ele>16.0</ele><time>2026-05-01T13:51:28.001Z</time></trkpt><trkpt lat="43.378923191517494" lon="-4.314714099340619"><ele>16.2</ele><time>2026-05-01T13:51:29.001Z</time></trkpt><trkpt lat="43.378902238369726" lon="-4.314848113689799"><ele>16.400000000000002</ele><time>2026-05-01T13:51:30.001Z</time></trkpt><trkpt lat="43.37888969404643" lon="-4.314987157736415"><ele>16.6</ele><time>2026-05-01T13:51:31.001Z</time></trkpt><trkpt lat="43.3788757206864" lon="-4.315127634438467"><ele>16.8</ele><time>2026-05-01T13:51:32.001Z</time></trkpt><trkpt lat="43.378869710977376" lon="-4.315274088345757"><ele>17.0</ele><time>2026-05-01T13:51:33.001Z</time></trkpt><trkpt lat="43.37887865961693" lon="-4.315419834816837"><ele>17.0</ele><time>2026-05-01T13:51:34.001Z</time></trkpt><trkpt lat="43.378883549562296" lon="-4.315563484960588"><ele>17.0</ele><time>2026-05-01T13:51:35.001Z</time></trkpt><trkpt lat="43.378897552194765" lon="-4.315707564916268"><ele>17.0</ele><time>2026-05-01T13:51:36.002Z</time></trkpt><trkpt lat="43.37891569095122" lon="-4.315851369772864"><ele>17.0</ele><time>2026-05-01T13:51:37.002Z</time></trkpt><trkpt lat="43.378942812380906" lon="-4.315994649445755"><ele>17.0</ele><time>2026-05-01T13:51:38.002Z</time></trkpt><trkpt lat="43.378984156124204" lon="-4.316130486388174"><ele>16.2</ele><time>2026-05-01T13:51:39.002Z</time></trkpt><trkpt lat="43.37902856632225" lon="-4.3162644646157755"><ele>15.399999999999999</ele><time>2026-05-01T13:51:40.002Z</time></trkpt><trkpt lat="43.379085033150496" lon="-4.31639290981677"><ele>14.600000000000001</ele><time>2026-05-01T13:51:41.002Z</time></trkpt><trkpt lat="43.379147095223935" lon="-4.316512606286419"><ele>13.8</ele><time>2026-05-01T13:51:42.002Z</time></trkpt><trkpt lat="43.37921584314809" lon="-4.316634676112725"><ele>13.0</ele><time>2026-05-01T13:51:43.002Z</time></trkpt><trkpt lat="43.37928788427076" lon="-4.316746700413952"><ele>12.200000000000001</ele><time>2026-05-01T13:51:44.002Z</time></trkpt><trkpt lat="43.37936343210767" lon="-4.316851029254388"><ele>11.4</ele><time>2026-05-01T13:51:45.002Z</time></trkpt><trkpt lat="43.3794387317295" lon="-4.316957083173017"><ele>10.600000000000001</ele><time>2026-05-01T13:51:46.002Z</time></trkpt><trkpt lat="43.379519323419224" lon="-4.317061168493776"><ele>9.8</ele><time>2026-05-01T13:51:47.002Z</time></trkpt><trkpt lat="43.37960106716542" lon="-4.317154192123075"><ele>9.0</ele><time>2026-05-01T13:51:48.002Z</time></trkpt><trkpt lat="43.37968902062593" lon="-4.317240984233964"><ele>7.6000000000000005</ele><time>2026-05-01T13:51:49.002Z</time></trkpt><trkpt lat="43.37977526545987" lon="-4.3173261503905005"><ele>6.2</ele><time>2026-05-01T13:51:50.002Z</time></trkpt><trkpt lat="43.37985696015226" lon="-4.3174260053732825"><ele>4.800000000000001</ele><time>2026-05-01T13:51:51.002Z</time></trkpt><trkpt lat="43.37994816750695" lon="-4.317496312584965"><ele>3.4000000000000004</ele><time>2026-05-01T13:51:52.002Z</time></trkpt><trkpt lat="43.380038014418915" lon="-4.3175642644182854"><ele>2.0</ele><time>2026-05-01T13:51:53.002Z</time></trkpt><trkpt lat="43.38013093786017" lon="-4.317625927594837"><ele>2.0</ele><time>2026-05-01T13:51:54.002Z</time></trkpt><trkpt lat="43.38022560521592" lon="-4.3176900676109575"><ele>2.0</ele><time>2026-05-01T13:51:55.002Z</time></trkpt><trkpt lat="43.38031900450518" lon="-4.317754447006122"><ele>2.0</ele><time>2026-05-01T13:51:56.002Z</time></trkpt><trkpt lat="43.380412272559255" lon="-4.317821170914804"><ele>2.0</ele><time>2026-05-01T13:51:57.002Z</time></trkpt><trkpt lat="43.38050565452614" lon="-4.317886240617798"><ele>2.0</ele><time>2026-05-01T13:51:58.002Z</time></trkpt><trkpt lat="43.38060164096401" lon="-4.317945130033757"><ele>1.2000000000000002</ele><time>2026-05-01T13:51:59.002Z</time></trkpt><trkpt lat="43.38069687708154" lon="-4.318005535090648"><ele>0.40000000000000013</ele><time>2026-05-01T13:52:00.002Z</time></trkpt><trkpt lat="43.38079400308566" lon="-4.318057141780402"><ele>-0.40000000000000013</ele><time>2026-05-01T13:52:01.002Z</time></trkpt><trkpt lat="43.38089935036018" lon="-4.318090505754195"><ele>-1.2000000000000002</ele><time>2026-05-01T13:52:02.002Z</time></trkpt><trkpt lat="43.38100377941954" lon="-4.3181118674636565"><ele>-2.0</ele><time>2026-05-01T13:52:03.002Z</time></trkpt><trkpt lat="43.38110196178391" lon="-4.318135356601993"><ele>-0.20000000000000018</ele><time>2026-05-01T13:52:04.001Z</time></trkpt><trkpt lat="43.38119903725355" lon="-4.318157989382306"><ele>1.5999999999999996</ele><time>2026-05-01T13:52:05.001Z</time></trkpt><trkpt lat="43.38129324444805" lon="-4.318197507931788"><ele>3.3999999999999995</ele><time>2026-05-01T13:52:06.001Z</time></trkpt><trkpt lat="43.381379936198876" lon="-4.318253685211709"><ele>5.199999999999999</ele><time>2026-05-01T13:52:07.001Z</time></trkpt><trkpt lat="43.38145776215283" lon="-4.318329201780044"><ele>7.0</ele><time>2026-05-01T13:52:08.001Z</time></trkpt><trkpt lat="43.38153510606756" lon="-4.318410615197272"><ele>7.199999999999999</ele><time>2026-05-01T13:52:09.001Z</time></trkpt><trkpt lat="43.381612427133376" lon="-4.318491261188152"><ele>7.3999999999999995</ele><time>2026-05-01T13:52:10.001Z</time></trkpt><trkpt lat="43.38168680154539" lon="-4.318572518536372"><ele>7.6000000000000005</ele><time>2026-05-01T13:52:11.001Z</time></trkpt><trkpt lat="43.38176309448449" lon="-4.318655345484947"><ele>7.800000000000001</ele><time>2026-05-01T13:52:12.001Z</time></trkpt><trkpt lat="43.381836065805665" lon="-4.3187451261354255"><ele>8.0</ele><time>2026-05-01T13:52:13.001Z</time></trkpt><trkpt lat="43.381897180138786" lon="-4.318841647357807"><ele>9.0</ele><time>2026-05-01T13:52:14.001Z</time></trkpt><trkpt lat="43.38195239510934" lon="-4.318950378431464"><ele>10.0</ele><time>2026-05-01T13:52:15.001Z</time></trkpt><trkpt lat="43.38199306680669" lon="-4.3190742516161515"><ele>11.0</ele><time>2026-05-01T13:52:16Z</time></trkpt><trkpt lat="43.38201548259665" lon="-4.319207020290954"><ele>12.0</ele><time>2026-05-01T13:52:17Z</time></trkpt><trkpt lat="43.38203381375509" lon="-4.319341427087863"><ele>13.0</ele><time>2026-05-01T13:52:18Z</time></trkpt><trkpt lat="43.38203491408503" lon="-4.319489423444239"><ele>13.0</ele><time>2026-05-01T13:52:19Z</time></trkpt><trkpt lat="43.382031383962655" lon="-4.319636674239568"><ele>13.0</ele><time>2026-05-01T13:52:20Z</time></trkpt><trkpt lat="43.38202131204817" lon="-4.319787754450028"><ele>13.0</ele><time>2026-05-01T13:52:21Z</time></trkpt><trkpt lat="43.38200397559112" lon="-4.319943240670508"><ele>13.0</ele><time>2026-05-01T13:52:22Z</time></trkpt><trkpt lat="43.38199720561318" lon="-4.32010248936213"><ele>13.0</ele><time>2026-05-01T13:52:23Z</time></trkpt><trkpt lat="43.38200477772277" lon="-4.320246889439618"><ele>13.2</ele><time>2026-05-01T13:52:24Z</time></trkpt><trkpt lat="43.38199796752167" lon="-4.320398837068975"><ele>13.4</ele><time>2026-05-01T13:52:25.001Z</time></trkpt><trkpt lat="43.38199208280229" lon="-4.320547299486264"><ele>13.599999999999998</ele><time>2026-05-01T13:52:26.001Z</time></trkpt><trkpt lat="43.38199069714445" lon="-4.3206931654653316"><ele>13.799999999999999</ele><time>2026-05-01T13:52:27.001Z</time></trkpt><trkpt lat="43.381989806803944" lon="-4.320842637227941"><ele>14.0</ele><time>2026-05-01T13:52:28.001Z</time></trkpt><trkpt lat="43.381998910473015" lon="-4.320984822039907"><ele>14.0</ele><time>2026-05-01T13:52:29.001Z</time></trkpt><trkpt lat="43.38202552668642" lon="-4.321133052594849"><ele>13.999999999999998</ele><time>2026-05-01T13:52:30.001Z</time></trkpt><trkpt lat="43.38207617946574" lon="-4.3212618134316045"><ele>13.999999999999998</ele><time>2026-05-01T13:52:31.001Z</time></trkpt><trkpt lat="43.3821381121062" lon="-4.321384903658383"><ele>14.0</ele><time>2026-05-01T13:52:32.001Z</time></trkpt><trkpt lat="43.38222270685099" lon="-4.321483413739168"><ele>14.0</ele><time>2026-05-01T13:52:33.001Z</time></trkpt><trkpt lat="43.382318805517286" lon="-4.321562961413794"><ele>12.2</ele><time>2026-05-01T13:52:34.001Z</time></trkpt><trkpt lat="43.38241439681096" lon="-4.321620652243424"><ele>10.399999999999999</ele><time>2026-05-01T13:52:35.001Z</time></trkpt><trkpt lat="43.38252627655571" lon="-4.321638146824946"><ele>8.6</ele><time>2026-05-01T13:52:36.001Z</time></trkpt><trkpt lat="43.38263422789853" lon="-4.3216296127134"><ele>6.8</ele><time>2026-05-01T13:52:37.001Z</time></trkpt><trkpt lat="43.38273999349032" lon="-4.321594739454464"><ele>5.0</ele><time>2026-05-01T13:52:38.001Z</time></trkpt><trkpt lat="43.382839011735015" lon="-4.321534631044294"><ele>5.0</ele><time>2026-05-01T13:52:39.001Z</time></trkpt><trkpt lat="43.38293335450656" lon="-4.321467653287728"><ele>5.0</ele><time>2026-05-01T13:52:40.001Z</time></trkpt><trkpt lat="43.3830200991366" lon="-4.321395228150996"><ele>5.0</ele><time>2026-05-01T13:52:41.001Z</time></trkpt><trkpt lat="43.38310834202961" lon="-4.32132226898305"><ele>5.0</ele><time>2026-05-01T13:52:42.001Z</time></trkpt><trkpt lat="43.38319694393616" lon="-4.32125688810452"><ele>5.0</ele><time>2026-05-01T13:52:43.001Z</time></trkpt><trkpt lat="43.3832888901731" lon="-4.321203668107355"><ele>5.2</ele><time>2026-05-01T13:52:44.001Z</time></trkpt><trkpt lat="43.38337952961802" lon="-4.321160724555946"><ele>5.4</ele><time>2026-05-01T13:52:45.001Z</time></trkpt><trkpt lat="43.38347629832052" lon="-4.321138362395461"><ele>5.6</ele><time>2026-05-01T13:52:46.001Z</time></trkpt><trkpt lat="43.383577864026094" lon="-4.321143085440018"><ele>5.8</ele><time>2026-05-01T13:52:47.001Z</time></trkpt><trkpt lat="43.38367768651567" lon="-4.321152155409773"><ele>6.0</ele><time>2026-05-01T13:52:48.001Z</time></trkpt><trkpt lat="43.38378155816003" lon="-4.321171166330229"><ele>5.6</ele><time>2026-05-01T13:52:49.001Z</time></trkpt><trkpt lat="43.38388697752606" lon="-4.32119899329956"><ele>5.199999999999999</ele><time>2026-05-01T13:52:50.001Z</time></trkpt><trkpt lat="43.38399173781939" lon="-4.321220893934186"><ele>4.800000000000001</ele><time>2026-05-01T13:52:51.001Z</time></trkpt><trkpt lat="43.38409200850505" lon="-4.321253003559007"><ele>4.4</ele><time>2026-05-01T13:52:52.001Z</time></trkpt><trkpt lat="43.38419925067676" lon="-4.321290015405982"><ele>4.0</ele><time>2026-05-01T13:52:53.001Z</time></trkpt><trkpt lat="43.38429774475946" lon="-4.321334310031143"><ele>6.4</ele><time>2026-05-01T13:52:54.001Z</time></trkpt><trkpt lat="43.38438988043084" lon="-4.321401388485498"><ele>8.8</ele><time>2026-05-01T13:52:55.001Z</time></trkpt><trkpt lat="43.38447236661191" lon="-4.321487972887945"><ele>11.200000000000001</ele><time>2026-05-01T13:52:56.001Z</time></trkpt><trkpt lat="43.384545711277504" lon="-4.321597541682586"><ele>13.600000000000001</ele><time>2026-05-01T13:52:57.001Z</time></trkpt><trkpt lat="43.38460439638624" lon="-4.321722609071085"><ele>16.0</ele><time>2026-05-01T13:52:58.001Z</time></trkpt><trkpt lat="43.38464448452485" lon="-4.321863656449437"><ele>16.0</ele><time>2026-05-01T13:52:59.001Z</time></trkpt><trkpt lat="43.38466391045137" lon="-4.322007331582751"><ele>16.0</ele><time>2026-05-01T13:53:00.001Z</time></trkpt><trkpt lat="43.38466351083834" lon="-4.322164821394049"><ele>16.0</ele><time>2026-05-01T13:53:01.001Z</time></trkpt><trkpt lat="43.38466366767071" lon="-4.3223542153945"><ele>16.0</ele><time>2026-05-01T13:53:02.001Z</time></trkpt><trkpt lat="43.3846291105132" lon="-4.32249402847204"><ele>17.8</ele><time>2026-05-01T13:53:03.001Z</time></trkpt><trkpt lat="43.38461391164502" lon="-4.322613114504765"><ele>19.6</ele><time>2026-05-01T13:53:04.001Z</time></trkpt><trkpt lat="43.38459953338245" lon="-4.32276110486652"><ele>21.4</ele><time>2026-05-01T13:53:05.001Z</time></trkpt><trkpt lat="43.38458142699744" lon="-4.322907242536541"><ele>23.2</ele><time>2026-05-01T13:53:06.001Z</time></trkpt><trkpt lat="43.38456256216776" lon="-4.32305827933977"><ele>25.0</ele><time>2026-05-01T13:53:07.001Z</time></trkpt><trkpt lat="43.38454842418063" lon="-4.323213939719574"><ele>25.4</ele><time>2026-05-01T13:53:08.001Z</time></trkpt><trkpt lat="43.38453327898809" lon="-4.323368453901684"><ele>25.8</ele><time>2026-05-01T13:53:09.001Z</time></trkpt><trkpt lat="43.38452413830773" lon="-4.323515656240971"><ele>26.200000000000003</ele><time>2026-05-01T13:53:10.001Z</time></trkpt><trkpt lat="43.38451026702189" lon="-4.323662969772704"><ele>26.6</ele><time>2026-05-01T13:53:11.001Z</time></trkpt><trkpt lat="43.384492341800474" lon="-4.32381256319008"><ele>27.0</ele><time>2026-05-01T13:53:12.001Z</time></trkpt><trkpt lat="43.38447837855498" lon="-4.323961069324888"><ele>25.8</ele><time>2026-05-01T13:53:13.001Z</time></trkpt><trkpt lat="43.384463028949995" lon="-4.324111714936773"><ele>24.6</ele><time>2026-05-01T13:53:14.001Z</time></trkpt><trkpt lat="43.384451141514944" lon="-4.324261046068161"><ele>23.400000000000002</ele><time>2026-05-01T13:53:15.001Z</time></trkpt><trkpt lat="43.384446361243654" lon="-4.324396572248449"><ele>22.200000000000003</ele><time>2026-05-01T13:53:16.001Z</time></trkpt><trkpt lat="43.384427473003" lon="-4.324550638591576"><ele>21.0</ele><time>2026-05-01T13:53:17.001Z</time></trkpt><trkpt lat="43.3843962231153" lon="-4.324702163894695"><ele>20.0</ele><time>2026-05-01T13:53:18.001Z</time></trkpt><trkpt lat="43.38435313345914" lon="-4.324838161662894"><ele>19.0</ele><time>2026-05-01T13:53:19.001Z</time></trkpt><trkpt lat="43.38439312610817" lon="-4.324982875287921"><ele>18.0</ele><time>2026-05-01T13:53:20.001Z</time></trkpt><trkpt lat="43.38443574179459" lon="-4.325112090517131"><ele>17.0</ele><time>2026-05-01T13:53:21.001Z</time></trkpt><trkpt lat="43.38441227524389" lon="-4.325272668780355"><ele>16.0</ele><time>2026-05-01T13:53:22.001Z</time></trkpt><trkpt lat="43.38436260901388" lon="-4.325439689225821"><ele>15.200000000000001</ele><time>2026-05-01T13:53:23.001Z</time></trkpt><trkpt lat="43.384301013030445" lon="-4.325629720031749"><ele>14.400000000000002</ele><time>2026-05-01T13:53:24.001Z</time></trkpt><trkpt lat="43.38430348454622" lon="-4.3257448272604"><ele>13.6</ele><time>2026-05-01T13:53:25.001Z</time></trkpt><trkpt lat="43.38430842581996" lon="-4.325858559990687"><ele>12.8</ele><time>2026-05-01T13:53:26.001Z</time></trkpt><trkpt lat="43.38431949152749" lon="-4.326000354024953"><ele>12.0</ele><time>2026-05-01T13:53:27.001Z</time></trkpt><trkpt lat="43.38430762109603" lon="-4.326143925544583"><ele>12.0</ele><time>2026-05-01T13:53:28.001Z</time></trkpt><trkpt lat="43.384274240369905" lon="-4.3262913390203055"><ele>12.0</ele><time>2026-05-01T13:53:29.001Z</time></trkpt><trkpt lat="43.384256651880214" lon="-4.326431124403635"><ele>12.0</ele><time>2026-05-01T13:53:30.001Z</time></trkpt><trkpt lat="43.38424054450147" lon="-4.326576737840256"><ele>12.0</ele><time>2026-05-01T13:53:31.001Z</time></trkpt><trkpt lat="43.384228668448976" lon="-4.32671979513699"><ele>12.0</ele><time>2026-05-01T13:53:32.001Z</time></trkpt><trkpt lat="43.384223959591054" lon="-4.326869735977932"><ele>11.25</ele><time>2026-05-01T13:53:33.001Z</time></trkpt><trkpt lat="43.38425811932601" lon="-4.327008426665167"><ele>10.5</ele><time>2026-05-01T13:53:34.001Z</time></trkpt><trkpt lat="43.38433101084116" lon="-4.327146872610823"><ele>9.75</ele><time>2026-05-01T13:53:35.001Z</time></trkpt><trkpt lat="43.38435874080643" lon="-4.327292118755996"><ele>9.0</ele><time>2026-05-01T13:53:36.001Z</time></trkpt><trkpt lat="43.384301353729626" lon="-4.327444730849485"><ele>8.5</ele><time>2026-05-01T13:53:37.001Z</time></trkpt><trkpt lat="43.384183411291694" lon="-4.327601523249935"><ele>8.0</ele><time>2026-05-01T13:53:38.002Z</time></trkpt><trkpt lat="43.384103394829054" lon="-4.327748514167489"><ele>7.5</ele><time>2026-05-01T13:53:39.002Z</time></trkpt><trkpt lat="43.38414294943134" lon="-4.327894140329351"><ele>7.0</ele><time>2026-05-01T13:53:40.002Z</time></trkpt><trkpt lat="43.384130817906886" lon="-4.3280420795041215"><ele>6.3999999999999995</ele><time>2026-05-01T13:53:41.002Z</time></trkpt><trkpt lat="43.384122564528276" lon="-4.328185644553157"><ele>5.799999999999999</ele><time>2026-05-01T13:53:42.002Z</time></trkpt><trkpt lat="43.38410477839476" lon="-4.328325079600576"><ele>5.2</ele><time>2026-05-01T13:53:43.002Z</time></trkpt><trkpt lat="43.384093337064584" lon="-4.328468603337777"><ele>4.6</ele><time>2026-05-01T13:53:44.002Z</time></trkpt><trkpt lat="43.384084566054064" lon="-4.328617253211604"><ele>4.0</ele><time>2026-05-01T13:53:45.002Z</time></trkpt><trkpt lat="43.38407808281604" lon="-4.328768304488935"><ele>3.2</ele><time>2026-05-01T13:53:46.002Z</time></trkpt><trkpt lat="43.38408965929757" lon="-4.328921979609452"><ele>2.4000000000000004</ele><time>2026-05-01T13:53:47.002Z</time></trkpt><trkpt lat="43.384119690977606" lon="-4.3290690647659185"><ele>1.6</ele><time>2026-05-01T13:53:48.002Z</time></trkpt><trkpt lat="43.38417123569504" lon="-4.329200648682709"><ele>0.8</ele><time>2026-05-01T13:53:49.002Z</time></trkpt><trkpt lat="43.38423017654163" lon="-4.329329530452052"><ele>0.0</ele><time>2026-05-01T13:53:50.002Z</time></trkpt><trkpt lat="43.38428408115951" lon="-4.329456905069629"><ele>0.0</ele><time>2026-05-01T13:53:51.002Z</time></trkpt><trkpt lat="43.38434192262212" lon="-4.32957868657098"><ele>0.0</ele><time>2026-05-01T13:53:52.002Z</time></trkpt><trkpt lat="43.38440392086487" lon="-4.329702213046416"><ele>0.0</ele><time>2026-05-01T13:53:53.002Z</time></trkpt><trkpt lat="43.38447119518631" lon="-4.329824615736049"><ele>0.0</ele><time>2026-05-01T13:53:54.002Z</time></trkpt><trkpt lat="43.384532780922044" lon="-4.329942479676589"><ele>0.0</ele><time>2026-05-01T13:53:55.002Z</time></trkpt><trkpt lat="43.3845814671992" lon="-4.330051335702772"><ele>0.0</ele><time>2026-05-01T13:53:56.002Z</time></trkpt><trkpt lat="43.384623754556294" lon="-4.330153634253012"><ele>0.0</ele><time>2026-05-01T13:53:57.002Z</time></trkpt><trkpt lat="43.384677327916336" lon="-4.330232570647664"><ele>0.0</ele><time>2026-05-01T13:53:58.002Z</time></trkpt><trkpt lat="43.38474743513461" lon="-4.3302792399437555"><ele>0.0</ele><time>2026-05-01T13:53:59.002Z</time></trkpt><trkpt lat="43.38482286595445" lon="-4.330269198083202"><ele>0.0</ele><time>2026-05-01T13:54:00.002Z</time></trkpt><trkpt lat="43.384899277153046" lon="-4.330217687587574"><ele>0.0</ele><time>2026-05-01T13:54:01.002Z</time></trkpt><trkpt lat="43.38497518289656" lon="-4.330173238057351"><ele>0.6</ele><time>2026-05-01T13:54:02.002Z</time></trkpt><trkpt lat="43.38505956108563" lon="-4.3301465757733695"><ele>1.2</ele><time>2026-05-01T13:54:03.002Z</time></trkpt><trkpt lat="43.38515209632874" lon="-4.330125309662398"><ele>1.7999999999999998</ele><time>2026-05-01T13:54:04.002Z</time></trkpt><trkpt lat="43.38524163680867" lon="-4.3300899098344745"><ele>2.4</ele><time>2026-05-01T13:54:05.002Z</time></trkpt><trkpt lat="43.385333189630316" lon="-4.3300527183042865"><ele>3.0</ele><time>2026-05-01T13:54:06.002Z</time></trkpt><trkpt lat="43.38542686241208" lon="-4.3300237385345115"><ele>4.0</ele><time>2026-05-01T13:54:07.002Z</time></trkpt><trkpt lat="43.385517196264885" lon="-4.330010629272853"><ele>5.0</ele><time>2026-05-01T13:54:08.002Z</time></trkpt><trkpt lat="43.38561092284436" lon="-4.330002157322233"><ele>6.000000000000001</ele><time>2026-05-01T13:54:09.002Z</time></trkpt><trkpt lat="43.38570489178549" lon="-4.330005830570303"><ele>7.0</ele><time>2026-05-01T13:54:10.001Z</time></trkpt><trkpt lat="43.38579928914872" lon="-4.330017702636324"><ele>8.0</ele><time>2026-05-01T13:54:11.001Z</time></trkpt><trkpt lat="43.38588760761018" lon="-4.330039114130175"><ele>8.0</ele><time>2026-05-01T13:54:12.001Z</time></trkpt><trkpt lat="43.38598390816754" lon="-4.330069058658919"><ele>8.0</ele><time>2026-05-01T13:54:13.001Z</time></trkpt><trkpt lat="43.38607867515708" lon="-4.3301105540955716"><ele>8.0</ele><time>2026-05-01T13:54:14.001Z</time></trkpt><trkpt lat="43.38617496712726" lon="-4.330153723883732"><ele>8.0</ele><time>2026-05-01T13:54:15.001Z</time></trkpt><trkpt lat="43.3862741740549" lon="-4.330203043394389"><ele>8.0</ele><time>2026-05-01T13:54:16.001Z</time></trkpt><trkpt lat="43.38637641167582" lon="-4.330244496335178"><ele>7.800000000000001</ele><time>2026-05-01T13:54:17.001Z</time></trkpt><trkpt lat="43.38648245680623" lon="-4.330265299073357"><ele>7.6000000000000005</ele><time>2026-05-01T13:54:18.001Z</time></trkpt><trkpt lat="43.38659764078959" lon="-4.33026860196436"><ele>7.3999999999999995</ele><time>2026-05-01T13:54:19.001Z</time></trkpt><trkpt lat="43.38671137013005" lon="-4.330259274936322"><ele>7.199999999999999</ele><time>2026-05-01T13:54:20.001Z</time></trkpt><trkpt lat="43.3868131488567" lon="-4.330222217740317"><ele>7.0</ele><time>2026-05-01T13:54:21.001Z</time></trkpt><trkpt lat="43.38690040589746" lon="-4.330176754464993"><ele>7.0</ele><time>2026-05-01T13:54:22.001Z</time></trkpt><trkpt lat="43.38697689931038" lon="-4.330095141724389"><ele>6.999999999999999</ele><time>2026-05-01T13:54:23.001Z</time></trkpt><trkpt lat="43.38705146232305" lon="-4.330002080548741"><ele>6.999999999999999</ele><time>2026-05-01T13:54:24.001Z</time></trkpt><trkpt lat="43.38711603859212" lon="-4.329902445665105"><ele>7.0</ele><time>2026-05-01T13:54:25.001Z</time></trkpt><trkpt lat="43.387178169805374" lon="-4.3297965226496276"><ele>7.0</ele><time>2026-05-01T13:54:26.001Z</time></trkpt><trkpt lat="43.387232351853186" lon="-4.329683456405259"><ele>6.8</ele><time>2026-05-01T13:54:27.001Z</time></trkpt><trkpt lat="43.38727680843543" lon="-4.329561111055288"><ele>6.6</ele><time>2026-05-01T13:54:28.001Z</time></trkpt><trkpt lat="43.38730854047115" lon="-4.329434817082578"><ele>6.3999999999999995</ele><time>2026-05-01T13:54:29.001Z</time></trkpt><trkpt lat="43.38732935099272" lon="-4.329308313817576"><ele>6.199999999999999</ele><time>2026-05-01T13:54:30.001Z</time></trkpt><trkpt lat="43.38734955451947" lon="-4.329185269688612"><ele>6.0</ele><time>2026-05-01T13:54:31.001Z</time></trkpt><trkpt lat="43.38737623216078" lon="-4.329063116701421"><ele>6.0</ele><time>2026-05-01T13:54:32.001Z</time></trkpt><trkpt lat="43.38740048736626" lon="-4.3289462121488125"><ele>6.0</ele><time>2026-05-01T13:54:33.001Z</time></trkpt><trkpt lat="43.38743003094565" lon="-4.328828134287172"><ele>6.0</ele><time>2026-05-01T13:54:34.001Z</time></trkpt><trkpt lat="43.38746266098869" lon="-4.3287071362547405"><ele>6.0</ele><time>2026-05-01T13:54:35.001Z</time></trkpt><trkpt lat="43.387500470649265" lon="-4.32858691792791"><ele>6.0</ele><time>2026-05-01T13:54:36.001Z</time></trkpt><trkpt lat="43.38754984925374" lon="-4.328475493113367"><ele>5.3999999999999995</ele><time>2026-05-01T13:54:37.001Z</time></trkpt><trkpt lat="43.38760935765697" lon="-4.328368201707309"><ele>4.8</ele><time>2026-05-01T13:54:38.001Z</time></trkpt><trkpt lat="43.38767922777303" lon="-4.328277024166463"><ele>4.199999999999999</ele><time>2026-05-01T13:54:39.001Z</time></trkpt><trkpt lat="43.38775167046376" lon="-4.3281914245548565"><ele>3.5999999999999996</ele><time>2026-05-01T13:54:40.001Z</time></trkpt><trkpt lat="43.38782984906039" lon="-4.328117552028808"><ele>3.0</ele><time>2026-05-01T13:54:41.001Z</time></trkpt><trkpt lat="43.387913585687066" lon="-4.328060371906871"><ele>3.2</ele><time>2026-05-01T13:54:42.001Z</time></trkpt><trkpt lat="43.38800203371322" lon="-4.328023771571306"><ele>3.4</ele><time>2026-05-01T13:54:43.001Z</time></trkpt><trkpt lat="43.388094193377626" lon="-4.328015846790453"><ele>3.6000000000000005</ele><time>2026-05-01T13:54:44.001Z</time></trkpt><trkpt lat="43.38819097891677" lon="-4.328034576549082"><ele>3.8000000000000003</ele><time>2026-05-01T13:54:45.001Z</time></trkpt><trkpt lat="43.38828258645355" lon="-4.328076167001368"><ele>4.0</ele><time>2026-05-01T13:54:46.001Z</time></trkpt><trkpt lat="43.38836470379319" lon="-4.3281405305850695"><ele>4.0</ele><time>2026-05-01T13:54:47.001Z</time></trkpt><trkpt lat="43.38843166576005" lon="-4.32823014781738"><ele>4.0</ele><time>2026-05-01T13:54:48.001Z</time></trkpt><trkpt lat="43.38848518582963" lon="-4.328331241800916"><ele>4.0</ele><time>2026-05-01T13:54:49.001Z</time></trkpt><trkpt lat="43.38853201022435" lon="-4.328439720315643"><ele>4.0</ele><time>2026-05-01T13:54:50.001Z</time></trkpt><trkpt lat="43.38857854927346" lon="-4.328545531776344"><ele>4.0</ele><time>2026-05-01T13:54:51.001Z</time></trkpt><trkpt lat="43.388623317210474" lon="-4.328647380710641"><ele>3.9999999999999996</ele><time>2026-05-01T13:54:52.001Z</time></trkpt><trkpt lat="43.38866596364413" lon="-4.328752677479293"><ele>4.0</ele><time>2026-05-01T13:54:53.001Z</time></trkpt><trkpt lat="43.38870356475372" lon="-4.328852498774614"><ele>4.0</ele><time>2026-05-01T13:54:54.001Z</time></trkpt><trkpt lat="43.38874177332618" lon="-4.328956111320455"><ele>4.0</ele><time>2026-05-01T13:54:55.001Z</time></trkpt><trkpt lat="43.388774493498644" lon="-4.3290629227707"><ele>3.9999999999999996</ele><time>2026-05-01T13:54:56.001Z</time></trkpt><trkpt lat="43.38880126521334" lon="-4.329172864174949"><ele>4.0</ele><time>2026-05-01T13:54:57.001Z</time></trkpt><trkpt lat="43.38882191289105" lon="-4.329287750745319"><ele>3.9999999999999996</ele><time>2026-05-01T13:54:58.001Z</time></trkpt><trkpt lat="43.3888434953733" lon="-4.329399745681467"><ele>4.0</ele><time>2026-05-01T13:54:59.001Z</time></trkpt><trkpt lat="43.38886539322858" lon="-4.329510490227899"><ele>4.0</ele><time>2026-05-01T13:55:00.001Z</time></trkpt><trkpt lat="43.38888701968692" lon="-4.329617691547563"><ele>4.0</ele><time>2026-05-01T13:55:01.001Z</time></trkpt><trkpt lat="43.388907339831675" lon="-4.329723163142416"><ele>3.9999999999999996</ele><time>2026-05-01T13:55:02.001Z</time></trkpt><trkpt lat="43.388929772793205" lon="-4.329822949209823"><ele>4.0</ele><time>2026-05-01T13:55:03.001Z</time></trkpt><trkpt lat="43.388950750951985" lon="-4.329921356090465"><ele>4.0</ele><time>2026-05-01T13:55:04.001Z</time></trkpt><trkpt lat="43.388973159043815" lon="-4.3300174722983"><ele>3.9999999999999996</ele><time>2026-05-01T13:55:05.001Z</time></trkpt><trkpt lat="43.388997987474255" lon="-4.330116768446766"><ele>4.0</ele><time>2026-05-01T13:55:06.001Z</time></trkpt><trkpt lat="43.38902179854243" lon="-4.330204696401933"><ele>4.0</ele><time>2026-05-01T13:55:07.001Z</time></trkpt><trkpt lat="43.38904754552301" lon="-4.330290772544174"><ele>3.9999999999999996</ele><time>2026-05-01T13:55:08.001Z</time></trkpt><trkpt lat="43.389081911299336" lon="-4.330371374013527"><ele>4.0</ele><time>2026-05-01T13:55:09.001Z</time></trkpt><trkpt lat="43.38912090805408" lon="-4.33045080171207"><ele>4.0</ele><time>2026-05-01T13:55:10.001Z</time></trkpt><trkpt lat="43.38915701357246" lon="-4.3305365591787455"><ele>3.9999999999999996</ele><time>2026-05-01T13:55:11.001Z</time></trkpt><trkpt lat="43.389193133136" lon="-4.33061864288895"><ele>4.0</ele><time>2026-05-01T13:55:12.001Z</time></trkpt><trkpt lat="43.389238909381724" lon="-4.330702728464048"><ele>4.0</ele><time>2026-05-01T13:55:13.001Z</time></trkpt><trkpt lat="43.389279821245474" lon="-4.330793712978857"><ele>4.0</ele><time>2026-05-01T13:55:14.001Z</time></trkpt><trkpt lat="43.3893289725484" lon="-4.330877670394689"><ele>3.9999999999999996</ele><time>2026-05-01T13:55:15.001Z</time></trkpt><trkpt lat="43.3893811832316" lon="-4.330960187971447"><ele>4.0</ele><time>2026-05-01T13:55:16.001Z</time></trkpt><trkpt lat="43.38943352689437" lon="-4.331048775272657"><ele>3.9999999999999996</ele><time>2026-05-01T13:55:17.001Z</time></trkpt><trkpt lat="43.389484230584465" lon="-4.331137883742549"><ele>4.0</ele><time>2026-05-01T13:55:18.001Z</time></trkpt><trkpt lat="43.38953188531854" lon="-4.331235406671335"><ele>4.0</ele><time>2026-05-01T13:55:19.001Z</time></trkpt><trkpt lat="43.3895764451732" lon="-4.331334425092781"><ele>4.0</ele><time>2026-05-01T13:55:20.001Z</time></trkpt><trkpt lat="43.38962247618669" lon="-4.331431307129216"><ele>3.9999999999999996</ele><time>2026-05-01T13:55:21.001Z</time></trkpt><trkpt lat="43.38966731116004" lon="-4.331532661362581"><ele>4.0</ele><time>2026-05-01T13:55:22.001Z</time></trkpt><trkpt lat="43.38971101502896" lon="-4.331635518942506"><ele>4.666666666666666</ele><time>2026-05-01T13:55:23.001Z</time></trkpt><trkpt lat="43.3897508613922" lon="-4.331737678335632"><ele>5.333333333333333</ele><time>2026-05-01T13:55:24.001Z</time></trkpt><trkpt lat="43.38979189532785" lon="-4.331843858054526"><ele>6.0</ele><time>2026-05-01T13:55:25.001Z</time></trkpt><trkpt lat="43.38983897178377" lon="-4.331951511739998"><ele>6.666666666666666</ele><time>2026-05-01T13:55:26.001Z</time></trkpt><trkpt lat="43.3898761345485" lon="-4.332064221573066"><ele>7.333333333333333</ele><time>2026-05-01T13:55:27.001Z</time></trkpt><trkpt lat="43.389918739597434" lon="-4.332170041705152"><ele>8.0</ele><time>2026-05-01T13:55:28.001Z</time></trkpt><trkpt lat="43.38996119159535" lon="-4.332274961581655"><ele>8.5</ele><time>2026-05-01T13:55:29.001Z</time></trkpt><trkpt lat="43.3899944123545" lon="-4.332386060124919"><ele>9.0</ele><time>2026-05-01T13:55:30.001Z</time></trkpt><trkpt lat="43.390036892807935" lon="-4.332496252937653"><ele>9.5</ele><time>2026-05-01T13:55:31.001Z</time></trkpt><trkpt lat="43.39007605684172" lon="-4.332603982342345"><ele>10.0</ele><time>2026-05-01T13:55:32.001Z</time></trkpt><trkpt lat="43.390120636465994" lon="-4.332706357565776"><ele>10.5</ele><time>2026-05-01T13:55:33.001Z</time></trkpt><trkpt lat="43.39016413051066" lon="-4.332813417454481"><ele>11.0</ele><time>2026-05-01T13:55:34.001Z</time></trkpt><trkpt lat="43.39020314469067" lon="-4.332924600938976"><ele>11.0</ele><time>2026-05-01T13:55:35.001Z</time></trkpt><trkpt lat="43.39024415390418" lon="-4.333037416487345"><ele>11.0</ele><time>2026-05-01T13:55:36.001Z</time></trkpt><trkpt lat="43.390282136644096" lon="-4.333147685480941"><ele>11.0</ele><time>2026-05-01T13:55:37.001Z</time></trkpt><trkpt lat="43.390320548944906" lon="-4.333260195135622"><ele>11.0</ele><time>2026-05-01T13:55:38.001Z</time></trkpt><trkpt lat="43.39035881035599" lon="-4.333371790375089"><ele>11.0</ele><time>2026-05-01T13:55:39.001Z</time></trkpt><trkpt lat="43.39039920765242" lon="-4.333483652410669"><ele>11.200000000000001</ele><time>2026-05-01T13:55:40.001Z</time></trkpt><trkpt lat="43.39043642051368" lon="-4.333595198154732"><ele>11.4</ele><time>2026-05-01T13:55:41.001Z</time></trkpt><trkpt lat="43.39047608478637" lon="-4.3337059385179755"><ele>11.6</ele><time>2026-05-01T13:55:42.001Z</time></trkpt><trkpt lat="43.39051686523585" lon="-4.333823055551706"><ele>11.8</ele><time>2026-05-01T13:55:43.001Z</time></trkpt><trkpt lat="43.39055721669111" lon="-4.333934261505082"><ele>12.0</ele><time>2026-05-01T13:55:44.001Z</time></trkpt><trkpt lat="43.39059596365184" lon="-4.334045384892405"><ele>13.6</ele><time>2026-05-01T13:55:45.001Z</time></trkpt><trkpt lat="43.39063634467228" lon="-4.334154966618545"><ele>15.2</ele><time>2026-05-01T13:55:46.001Z</time></trkpt><trkpt lat="43.39067740883576" lon="-4.334267676537695"><ele>16.8</ele><time>2026-05-01T13:55:47.001Z</time></trkpt><trkpt lat="43.390715823509446" lon="-4.3343766208992065"><ele>18.4</ele><time>2026-05-01T13:55:48.001Z</time></trkpt><trkpt lat="43.39075732511437" lon="-4.334490883569822"><ele>20.0</ele><time>2026-05-01T13:55:49.001Z</time></trkpt><trkpt lat="43.3907958894922" lon="-4.334599612951346"><ele>20.0</ele><time>2026-05-01T13:55:50.001Z</time></trkpt><trkpt lat="43.39083948604031" lon="-4.334713555674055"><ele>20.0</ele><time>2026-05-01T13:55:51.001Z</time></trkpt><trkpt lat="43.39088197280905" lon="-4.33482039788804"><ele>20.0</ele><time>2026-05-01T13:55:52.001Z</time></trkpt><trkpt lat="43.39092561793985" lon="-4.334937820447461"><ele>20.0</ele><time>2026-05-01T13:55:53.001Z</time></trkpt><trkpt lat="43.39097132268295" lon="-4.335048678472607"><ele>20.0</ele><time>2026-05-01T13:55:54.001Z</time></trkpt><trkpt lat="43.39101885550209" lon="-4.335160739170674"><ele>20.6</ele><time>2026-05-01T13:55:55.002Z</time></trkpt><trkpt lat="43.391067800981546" lon="-4.335271254941698"><ele>21.2</ele><time>2026-05-01T13:55:56.002Z</time></trkpt><trkpt lat="43.39111743899206" lon="-4.335380490286408"><ele>21.799999999999997</ele><time>2026-05-01T13:55:57.002Z</time></trkpt><trkpt lat="43.39116779539571" lon="-4.335496114362809"><ele>22.4</ele><time>2026-05-01T13:55:58.002Z</time></trkpt><trkpt lat="43.39121829634212" lon="-4.335610038415346"><ele>23.0</ele><time>2026-05-01T13:55:59.002Z</time></trkpt><trkpt lat="43.39126906536011" lon="-4.335726168942677"><ele>23.2</ele><time>2026-05-01T13:56:00.002Z</time></trkpt><trkpt lat="43.391318358550485" lon="-4.335845955102153"><ele>23.4</ele><time>2026-05-01T13:56:01.002Z</time></trkpt><trkpt lat="43.391369093457364" lon="-4.335968108080729"><ele>23.599999999999998</ele><time>2026-05-01T13:56:02.002Z</time></trkpt><trkpt lat="43.391418528562404" lon="-4.336088962055761"><ele>23.799999999999997</ele><time>2026-05-01T13:56:03.002Z</time></trkpt><trkpt lat="43.39147171636008" lon="-4.33620821335636"><ele>24.0</ele><time>2026-05-01T13:56:04.002Z</time></trkpt><trkpt lat="43.391520920117514" lon="-4.336331864165066"><ele>24.2</ele><time>2026-05-01T13:56:05.002Z</time></trkpt><trkpt lat="43.39157391638193" lon="-4.3364512711244405"><ele>24.4</ele><time>2026-05-01T13:56:06.002Z</time></trkpt><trkpt lat="43.39162571477076" lon="-4.3365755180412116"><ele>24.6</ele><time>2026-05-01T13:56:07.002Z</time></trkpt><trkpt lat="43.39167855781566" lon="-4.336698229348057"><ele>24.8</ele><time>2026-05-01T13:56:08.002Z</time></trkpt><trkpt lat="43.39173392275907" lon="-4.336829055672221"><ele>25.0</ele><time>2026-05-01T13:56:09.002Z</time></trkpt><trkpt lat="43.391790179759276" lon="-4.336949359990616"><ele>25.0</ele><time>2026-05-01T13:56:10.002Z</time></trkpt><trkpt lat="43.39183859320309" lon="-4.337064936552254"><ele>25.0</ele><time>2026-05-01T13:56:11.002Z</time></trkpt><trkpt lat="43.39189119848369" lon="-4.337177350038232"><ele>25.0</ele><time>2026-05-01T13:56:12.002Z</time></trkpt><trkpt lat="43.39194774420005" lon="-4.337324497090371"><ele>25.0</ele><time>2026-05-01T13:56:13.002Z</time></trkpt><trkpt lat="43.39199913283636" lon="-4.337452127775631"><ele>25.0</ele><time>2026-05-01T13:56:14.002Z</time></trkpt><trkpt lat="43.39205603185932" lon="-4.337579722469376"><ele>25.4</ele><time>2026-05-01T13:56:15.002Z</time></trkpt><trkpt lat="43.39211018510519" lon="-4.337695986363644"><ele>25.8</ele><time>2026-05-01T13:56:16.001Z</time></trkpt><trkpt lat="43.392163259446704" lon="-4.337812231423871"><ele>26.200000000000003</ele><time>2026-05-01T13:56:17.001Z</time></trkpt><trkpt lat="43.39221697127961" lon="-4.3379295818065025"><ele>26.6</ele><time>2026-05-01T13:56:18.001Z</time></trkpt><trkpt lat="43.392269028792406" lon="-4.338048503763789"><ele>27.0</ele><time>2026-05-01T13:56:19.001Z</time></trkpt><trkpt lat="43.39232119344003" lon="-4.33816662946697"><ele>27.8</ele><time>2026-05-01T13:56:20.001Z</time></trkpt><trkpt lat="43.39236990313599" lon="-4.338280145590276"><ele>28.6</ele><time>2026-05-01T13:56:21.001Z</time></trkpt><trkpt lat="43.392423807396206" lon="-4.338390008778616"><ele>29.400000000000002</ele><time>2026-05-01T13:56:22.001Z</time></trkpt><trkpt lat="43.392467988812086" lon="-4.338504336780825"><ele>30.200000000000003</ele><time>2026-05-01T13:56:23.001Z</time></trkpt><trkpt lat="43.39251482799129" lon="-4.338620031744968"><ele>31.0</ele><time>2026-05-01T13:56:24.001Z</time></trkpt><trkpt lat="43.39256103811036" lon="-4.338725674939814"><ele>31.0</ele><time>2026-05-01T13:56:25.001Z</time></trkpt><trkpt lat="43.39260672570667" lon="-4.338838431300515"><ele>31.0</ele><time>2026-05-01T13:56:26.001Z</time></trkpt><trkpt lat="43.392645243359375" lon="-4.338949996009469"><ele>31.0</ele><time>2026-05-01T13:56:27.001Z</time></trkpt><trkpt lat="43.392677899147216" lon="-4.339071055307136"><ele>31.0</ele><time>2026-05-01T13:56:28.001Z</time></trkpt><trkpt lat="43.39271092741712" lon="-4.339190861249115"><ele>31.0</ele><time>2026-05-01T13:56:29Z</time></trkpt><trkpt lat="43.392739106087966" lon="-4.339309934551078"><ele>32.2</ele><time>2026-05-01T13:56:30Z</time></trkpt><trkpt lat="43.39276496695315" lon="-4.339436016289153"><ele>33.400000000000006</ele><time>2026-05-01T13:56:31Z</time></trkpt><trkpt lat="43.392793485929694" lon="-4.3395613385281715"><ele>34.6</ele><time>2026-05-01T13:56:32Z</time></trkpt><trkpt lat="43.39282078914893" lon="-4.339690859363841"><ele>35.800000000000004</ele><time>2026-05-01T13:56:33Z</time></trkpt><trkpt lat="43.39284748963886" lon="-4.339821988697207"><ele>37.0</ele><time>2026-05-01T13:56:34.001Z</time></trkpt><trkpt lat="43.39287581858638" lon="-4.339956212832283"><ele>37.2</ele><time>2026-05-01T13:56:35.001Z</time></trkpt><trkpt lat="43.392915296309816" lon="-4.340080812084695"><ele>37.400000000000006</ele><time>2026-05-01T13:56:36.001Z</time></trkpt><trkpt lat="43.39295862703729" lon="-4.340203695582292"><ele>37.599999999999994</ele><time>2026-05-01T13:56:37.001Z</time></trkpt><trkpt lat="43.39300292209884" lon="-4.3403195237621395"><ele>37.8</ele><time>2026-05-01T13:56:38.001Z</time></trkpt><trkpt lat="43.39304993305373" lon="-4.340426107794338"><ele>38.0</ele><time>2026-05-01T13:56:39.001Z</time></trkpt><trkpt lat="43.39309864012401" lon="-4.340534860328715"><ele>38.599999999999994</ele><time>2026-05-01T13:56:40.001Z</time></trkpt><trkpt lat="43.39314942170579" lon="-4.340642367952332"><ele>39.199999999999996</ele><time>2026-05-01T13:56:41.001Z</time></trkpt><trkpt lat="43.39320023871597" lon="-4.340752902260202"><ele>39.8</ele><time>2026-05-01T13:56:42.001Z</time></trkpt><trkpt lat="43.3932524268907" lon="-4.340861913300334"><ele>40.4</ele><time>2026-05-01T13:56:43.001Z</time></trkpt><trkpt lat="43.393305625330456" lon="-4.340968346572555"><ele>41.0</ele><time>2026-05-01T13:56:44.001Z</time></trkpt><trkpt lat="43.39335918850721" lon="-4.341076935723481"><ele>41.0</ele><time>2026-05-01T13:56:45.001Z</time></trkpt><trkpt lat="43.39340988986318" lon="-4.3411894165522416"><ele>41.0</ele><time>2026-05-01T13:56:46.001Z</time></trkpt><trkpt lat="43.39345989123637" lon="-4.341303746811136"><ele>41.0</ele><time>2026-05-01T13:56:47.001Z</time></trkpt><trkpt lat="43.39351515735768" lon="-4.341411069864981"><ele>41.0</ele><time>2026-05-01T13:56:48.001Z</time></trkpt><trkpt lat="43.39358039426055" lon="-4.341510116560076"><ele>41.0</ele><time>2026-05-01T13:56:49.001Z</time></trkpt><trkpt lat="43.393651981663055" lon="-4.34159618743437"><ele>42.0</ele><time>2026-05-01T13:56:50.001Z</time></trkpt><trkpt lat="43.39373281275814" lon="-4.341666938952283"><ele>43.0</ele><time>2026-05-01T13:56:51.001Z</time></trkpt><trkpt lat="43.39381619899389" lon="-4.341715919558039"><ele>44.0</ele><time>2026-05-01T13:56:52.001Z</time></trkpt><trkpt lat="43.39390097109961" lon="-4.341755566065939"><ele>45.0</ele><time>2026-05-01T13:56:53.001Z</time></trkpt><trkpt lat="43.39398900736743" lon="-4.341771375722829"><ele>46.0</ele><time>2026-05-01T13:56:54.001Z</time></trkpt><trkpt lat="43.394074301541906" lon="-4.341784046508295"><ele>46.833333333333336</ele><time>2026-05-01T13:56:55.001Z</time></trkpt><trkpt lat="43.39415310074179" lon="-4.341795588784771"><ele>47.66666666666667</ele><time>2026-05-01T13:56:56.001Z</time></trkpt><trkpt lat="43.39423534508326" lon="-4.341804055141457"><ele>48.5</ele><time>2026-05-01T13:56:57.001Z</time></trkpt><trkpt lat="43.39431292097438" lon="-4.341818411853004"><ele>49.333333333333336</ele><time>2026-05-01T13:56:58.001Z</time></trkpt><trkpt lat="43.39439215731289" lon="-4.341840419696646"><ele>50.166666666666664</ele><time>2026-05-01T13:56:59.001Z</time></trkpt><trkpt lat="43.39446885632645" lon="-4.34187587805537"><ele>51.0</ele><time>2026-05-01T13:57:00.001Z</time></trkpt><trkpt lat="43.39454197143586" lon="-4.341925129596521"><ele>51.0</ele><time>2026-05-01T13:57:01.001Z</time></trkpt><trkpt lat="43.394610171945956" lon="-4.341991661885531"><ele>51.0</ele><time>2026-05-01T13:57:02.001Z</time></trkpt><trkpt lat="43.39466533822405" lon="-4.342070811369642"><ele>51.0</ele><time>2026-05-01T13:57:03.001Z</time></trkpt><trkpt lat="43.3947267451978" lon="-4.342155116848132"><ele>51.0</ele><time>2026-05-01T13:57:04.001Z</time></trkpt><trkpt lat="43.39477309820807" lon="-4.342244186938946"><ele>51.0</ele><time>2026-05-01T13:57:05.001Z</time></trkpt><trkpt lat="43.39480748937628" lon="-4.342347395871976"><ele>51.0</ele><time>2026-05-01T13:57:06.001Z</time></trkpt><trkpt lat="43.39483156075375" lon="-4.342457929951388"><ele>52.0</ele><time>2026-05-01T13:57:07.001Z</time></trkpt><trkpt lat="43.39484599843339" lon="-4.342574380923625"><ele>53.0</ele><time>2026-05-01T13:57:08.001Z</time></trkpt><trkpt lat="43.39484880360104" lon="-4.3426882673557206"><ele>54.0</ele><time>2026-05-01T13:57:09.001Z</time></trkpt><trkpt lat="43.39484903872573" lon="-4.3428067386080755"><ele>55.0</ele><time>2026-05-01T13:57:10.001Z</time></trkpt><trkpt lat="43.39484519112405" lon="-4.342924439630345"><ele>56.0</ele><time>2026-05-01T13:57:11.001Z</time></trkpt><trkpt lat="43.39484096993346" lon="-4.343043376918769"><ele>57.0</ele><time>2026-05-01T13:57:12.001Z</time></trkpt><trkpt lat="43.394836962382314" lon="-4.343162279410175"><ele>57.5</ele><time>2026-05-01T13:57:13.001Z</time></trkpt><trkpt lat="43.39483522416938" lon="-4.343278862068704"><ele>58.0</ele><time>2026-05-01T13:57:14.001Z</time></trkpt><trkpt lat="43.39483234878423" lon="-4.343395815123794"><ele>58.5</ele><time>2026-05-01T13:57:15.001Z</time></trkpt><trkpt lat="43.39482446895397" lon="-4.34351002685245"><ele>59.0</ele><time>2026-05-01T13:57:16.001Z</time></trkpt><trkpt lat="43.3948187633581" lon="-4.343624932746334"><ele>59.5</ele><time>2026-05-01T13:57:17.001Z</time></trkpt><trkpt lat="43.39481417387268" lon="-4.343738380906906"><ele>60.0</ele><time>2026-05-01T13:57:18.001Z</time></trkpt><trkpt lat="43.39481065108623" lon="-4.343851223094373"><ele>60.666666666666664</ele><time>2026-05-01T13:57:19.001Z</time></trkpt><trkpt lat="43.39480567544424" lon="-4.343960179669481"><ele>61.33333333333333</ele><time>2026-05-01T13:57:20.001Z</time></trkpt><trkpt lat="43.394800752793124" lon="-4.344071058105651"><ele>62.0</ele><time>2026-05-01T13:57:21.001Z</time></trkpt><trkpt lat="43.39479691067337" lon="-4.344180165938692"><ele>62.666666666666664</ele><time>2026-05-01T13:57:22.001Z</time></trkpt><trkpt lat="43.394793560897554" lon="-4.344285768240194"><ele>63.33333333333333</ele><time>2026-05-01T13:57:23.001Z</time></trkpt><trkpt lat="43.394789905287915" lon="-4.3443955548318005"><ele>64.0</ele><time>2026-05-01T13:57:24.001Z</time></trkpt><trkpt lat="43.39478641037195" lon="-4.344503905549445"><ele>63.99999999999999</ele><time>2026-05-01T13:57:25.001Z</time></trkpt><trkpt lat="43.39478090597337" lon="-4.344609011383438"><ele>64.0</ele><time>2026-05-01T13:57:26.001Z</time></trkpt><trkpt lat="43.39477809874809" lon="-4.34471681451774"><ele>64.0</ele><time>2026-05-01T13:57:27.001Z</time></trkpt><trkpt lat="43.39477548753726" lon="-4.3448229205771325"><ele>64.0</ele><time>2026-05-01T13:57:28.001Z</time></trkpt><trkpt lat="43.39477321334107" lon="-4.3449301495698025"><ele>63.99999999999999</ele><time>2026-05-01T13:57:29.001Z</time></trkpt><trkpt lat="43.39477103210953" lon="-4.345037891667262"><ele>64.0</ele><time>2026-05-01T13:57:30.001Z</time></trkpt><trkpt lat="43.39476881880069" lon="-4.345146666230275"><ele>65.0</ele><time>2026-05-01T13:57:31.001Z</time></trkpt><trkpt lat="43.39476601726142" lon="-4.345256948369919"><ele>66.0</ele><time>2026-05-01T13:57:32.001Z</time></trkpt><trkpt lat="43.39477030691349" lon="-4.345371718377642"><ele>67.0</ele><time>2026-05-01T13:57:33.001Z</time></trkpt><trkpt lat="43.3947718085038" lon="-4.345487781673522"><ele>68.0</ele><time>2026-05-01T13:57:34.001Z</time></trkpt><trkpt lat="43.39477073877014" lon="-4.345608550576089"><ele>69.0</ele><time>2026-05-01T13:57:35.001Z</time></trkpt><trkpt lat="43.39477444856977" lon="-4.345729059091462"><ele>70.0</ele><time>2026-05-01T13:57:36.001Z</time></trkpt><trkpt lat="43.39477721738375" lon="-4.345851816771725"><ele>70.2</ele><time>2026-05-01T13:57:37.001Z</time></trkpt><trkpt lat="43.39477928221205" lon="-4.345975228797791"><ele>70.4</ele><time>2026-05-01T13:57:38.001Z</time></trkpt><trkpt lat="43.394781437633426" lon="-4.346102484878321"><ele>70.6</ele><time>2026-05-01T13:57:39.001Z</time></trkpt><trkpt lat="43.394783495046184" lon="-4.3462321820812"><ele>70.8</ele><time>2026-05-01T13:57:40.001Z</time></trkpt><trkpt lat="43.39478498809762" lon="-4.3463635560195595"><ele>71.0</ele><time>2026-05-01T13:57:41.001Z</time></trkpt><trkpt lat="43.394788582875854" lon="-4.346495730073705"><ele>72.2</ele><time>2026-05-01T13:57:42.001Z</time></trkpt><trkpt lat="43.394791869534295" lon="-4.346629241697589"><ele>73.39999999999999</ele><time>2026-05-01T13:57:43.001Z</time></trkpt><trkpt lat="43.3947959668223" lon="-4.346764491753913"><ele>74.6</ele><time>2026-05-01T13:57:44.001Z</time></trkpt><trkpt lat="43.394799379389276" lon="-4.346899134132228"><ele>75.8</ele><time>2026-05-01T13:57:45.001Z</time></trkpt><trkpt lat="43.39480034821234" lon="-4.347036469763425"><ele>77.0</ele><time>2026-05-01T13:57:46.001Z</time></trkpt><trkpt lat="43.39480098732216" lon="-4.347174190801972"><ele>77.4</ele><time>2026-05-01T13:57:47.001Z</time></trkpt><trkpt lat="43.39479848401874" lon="-4.347311669525388"><ele>77.80000000000001</ele><time>2026-05-01T13:57:48.001Z</time></trkpt><trkpt lat="43.39479711218754" lon="-4.34744471613734"><ele>78.2</ele><time>2026-05-01T13:57:49.001Z</time></trkpt><trkpt lat="43.39479450693951" lon="-4.347578684210389"><ele>78.60000000000001</ele><time>2026-05-01T13:57:50.001Z</time></trkpt><trkpt lat="43.39479372260384" lon="-4.347712794013425"><ele>79.0</ele><time>2026-05-01T13:57:51.001Z</time></trkpt><trkpt lat="43.39479563077463" lon="-4.347850295189293"><ele>79.0</ele><time>2026-05-01T13:57:52.001Z</time></trkpt><trkpt lat="43.39479847171479" lon="-4.347991328117508"><ele>79.0</ele><time>2026-05-01T13:57:53.001Z</time></trkpt><trkpt lat="43.394804694984096" lon="-4.348131686310303"><ele>79.0</ele><time>2026-05-01T13:57:54.001Z</time></trkpt><trkpt lat="43.394810848760876" lon="-4.348273918540426"><ele>79.0</ele><time>2026-05-01T13:57:55.001Z</time></trkpt><trkpt lat="43.39481994542254" lon="-4.348417985887466"><ele>79.0</ele><time>2026-05-01T13:57:56.001Z</time></trkpt><trkpt lat="43.394835298401546" lon="-4.348569603467317"><ele>79.75</ele><time>2026-05-01T13:57:57.001Z</time></trkpt><trkpt lat="43.394847332586295" lon="-4.348691842437538"><ele>80.5</ele><time>2026-05-01T13:57:58.001Z</time></trkpt><trkpt lat="43.39484269023611" lon="-4.348892648167485"><ele>81.25</ele><time>2026-05-01T13:58:00.001Z</time></trkpt><trkpt lat="43.394918628417045" lon="-4.3491310763425926"><ele>82.0</ele><time>2026-05-01T13:58:01.001Z</time></trkpt><trkpt lat="43.39493578620819" lon="-4.349271699417074"><ele>82.6</ele><time>2026-05-01T13:58:02.001Z</time></trkpt><trkpt lat="43.39495472934966" lon="-4.349413068301531"><ele>83.19999999999999</ele><time>2026-05-01T13:58:03.001Z</time></trkpt><trkpt lat="43.39497724831762" lon="-4.349554645424465"><ele>83.8</ele><time>2026-05-01T13:58:04.001Z</time></trkpt><trkpt lat="43.394990049787815" lon="-4.349706669159967"><ele>84.4</ele><time>2026-05-01T13:58:05.001Z</time></trkpt><trkpt lat="43.39501114116111" lon="-4.349859503605948"><ele>85.0</ele><time>2026-05-01T13:58:06.001Z</time></trkpt><trkpt lat="43.39504543728782" lon="-4.350007678845218"><ele>85.2</ele><time>2026-05-01T13:58:07.001Z</time></trkpt><trkpt lat="43.39508966420966" lon="-4.350146236738083"><ele>85.4</ele><time>2026-05-01T13:58:08.001Z</time></trkpt><trkpt lat="43.39513675417103" lon="-4.3502731953719564"><ele>85.6</ele><time>2026-05-01T13:58:09.001Z</time></trkpt><trkpt lat="43.39517920393016" lon="-4.3503857481582875"><ele>85.8</ele><time>2026-05-01T13:58:10.002Z</time></trkpt><trkpt lat="43.395211081958436" lon="-4.350502536938227"><ele>86.0</ele><time>2026-05-01T13:58:11.002Z</time></trkpt><trkpt lat="43.39523618626153" lon="-4.350610905694341"><ele>85.33333333333334</ele><time>2026-05-01T13:58:12.002Z</time></trkpt><trkpt lat="43.39524321585925" lon="-4.35073133734888"><ele>84.66666666666667</ele><time>2026-05-01T13:58:13.002Z</time></trkpt><trkpt lat="43.39524654537946" lon="-4.350846153769492"><ele>84.0</ele><time>2026-05-01T13:58:14.002Z</time></trkpt><trkpt lat="43.39525400527846" lon="-4.350958272134801"><ele>83.33333333333333</ele><time>2026-05-01T13:58:15.002Z</time></trkpt><trkpt lat="43.395268526243285" lon="-4.351076298596979"><ele>82.66666666666666</ele><time>2026-05-01T13:58:16.002Z</time></trkpt><trkpt lat="43.395285495747984" lon="-4.351195509243748"><ele>82.0</ele><time>2026-05-01T13:58:17.002Z</time></trkpt><trkpt lat="43.39529575307123" lon="-4.351322336190748"><ele>81.0</ele><time>2026-05-01T13:58:18.002Z</time></trkpt><trkpt lat="43.39530324943826" lon="-4.351443667635746"><ele>80.0</ele><time>2026-05-01T13:58:19.002Z</time></trkpt><trkpt lat="43.395311054219746" lon="-4.351575913537824"><ele>79.0</ele><time>2026-05-01T13:58:20.002Z</time></trkpt><trkpt lat="43.39532347542651" lon="-4.351713094337059"><ele>78.0</ele><time>2026-05-01T13:58:21.002Z</time></trkpt><trkpt lat="43.39532732830826" lon="-4.351846738572061"><ele>77.0</ele><time>2026-05-01T13:58:22.001Z</time></trkpt><trkpt lat="43.395315325737" lon="-4.351984764983374"><ele>77.0</ele><time>2026-05-01T13:58:23.001Z</time></trkpt><trkpt lat="43.3953048858073" lon="-4.3521291210296775"><ele>77.0</ele><time>2026-05-01T13:58:24.001Z</time></trkpt><trkpt lat="43.395291000552255" lon="-4.352274791573567"><ele>77.0</ele><time>2026-05-01T13:58:25.001Z</time></trkpt><trkpt lat="43.395251629299956" lon="-4.352409479616454"><ele>77.0</ele><time>2026-05-01T13:58:26.001Z</time></trkpt><trkpt lat="43.39520166286532" lon="-4.352557755219365"><ele>77.0</ele><time>2026-05-01T13:58:27.001Z</time></trkpt><trkpt lat="43.39523754106607" lon="-4.352705250024179"><ele>76.0</ele><time>2026-05-01T13:58:28.001Z</time></trkpt><trkpt lat="43.39524705012911" lon="-4.352855076800775"><ele>75.0</ele><time>2026-05-01T13:58:29.001Z</time></trkpt><trkpt lat="43.395162375455584" lon="-4.352964626395764"><ele>74.0</ele><time>2026-05-01T13:58:30.001Z</time></trkpt><trkpt lat="43.39511587488484" lon="-4.353089843206532"><ele>73.0</ele><time>2026-05-01T13:58:31Z</time></trkpt><trkpt lat="43.39506647942856" lon="-4.353208838548791"><ele>72.0</ele><time>2026-05-01T13:58:32Z</time></trkpt><trkpt lat="43.39501767544213" lon="-4.353329403949478"><ele>71.0</ele><time>2026-05-01T13:58:33Z</time></trkpt><trkpt lat="43.394962378236094" lon="-4.353445293604549"><ele>70.0</ele><time>2026-05-01T13:58:34Z</time></trkpt><trkpt lat="43.39490811247881" lon="-4.353561938590838"><ele>69.0</ele><time>2026-05-01T13:58:35Z</time></trkpt><trkpt lat="43.39485490311786" lon="-4.353687643446535"><ele>68.0</ele><time>2026-05-01T13:58:36Z</time></trkpt><trkpt lat="43.394798511910686" lon="-4.353810407884237"><ele>67.0</ele><time>2026-05-01T13:58:37Z</time></trkpt><trkpt lat="43.39474129385259" lon="-4.353934095541362"><ele>67.0</ele><time>2026-05-01T13:58:38Z</time></trkpt><trkpt lat="43.39468683922716" lon="-4.354056743899109"><ele>67.0</ele><time>2026-05-01T13:58:39Z</time></trkpt><trkpt lat="43.39463472319374" lon="-4.3541828563571086"><ele>67.0</ele><time>2026-05-01T13:58:40Z</time></trkpt><trkpt lat="43.394578622223236" lon="-4.354307388623874"><ele>67.0</ele><time>2026-05-01T13:58:41Z</time></trkpt><trkpt lat="43.394523657112515" lon="-4.354429420135333"><ele>67.0</ele><time>2026-05-01T13:58:42Z</time></trkpt><trkpt lat="43.394468536604876" lon="-4.354553845925478"><ele>65.8</ele><time>2026-05-01T13:58:43Z</time></trkpt><trkpt lat="43.39441197560369" lon="-4.354681374948152"><ele>64.6</ele><time>2026-05-01T13:58:44Z</time></trkpt><trkpt lat="43.39435395041886" lon="-4.354805862686427"><ele>63.39999999999999</ele><time>2026-05-01T13:58:45Z</time></trkpt><trkpt lat="43.394297751783355" lon="-4.354930822775424"><ele>62.199999999999996</ele><time>2026-05-01T13:58:46Z</time></trkpt><trkpt lat="43.3942419410395" lon="-4.355059795498461"><ele>61.0</ele><time>2026-05-01T13:58:47Z</time></trkpt><trkpt lat="43.39418366475753" lon="-4.355180391452347"><ele>61.0</ele><time>2026-05-01T13:58:48Z</time></trkpt><trkpt lat="43.394114374339196" lon="-4.355292538664218"><ele>60.99999999999999</ele><time>2026-05-01T13:58:49Z</time></trkpt><trkpt lat="43.39403445884409" lon="-4.355391764011776"><ele>60.99999999999999</ele><time>2026-05-01T13:58:50Z</time></trkpt><trkpt lat="43.393951302479906" lon="-4.355489695596035"><ele>61.0</ele><time>2026-05-01T13:58:51Z</time></trkpt><trkpt lat="43.3938592434618" lon="-4.355568701914357"><ele>61.0</ele><time>2026-05-01T13:58:52Z</time></trkpt><trkpt lat="43.393762650376054" lon="-4.35563811667215"><ele>59.199999999999996</ele><time>2026-05-01T13:58:53Z</time></trkpt><trkpt lat="43.3936718721579" lon="-4.355712941682673"><ele>57.39999999999999</ele><time>2026-05-01T13:58:54Z</time></trkpt><trkpt lat="43.39358152929972" lon="-4.355791067538355"><ele>55.6</ele><time>2026-05-01T13:58:55Z</time></trkpt><trkpt lat="43.393495829297464" lon="-4.355880485844705"><ele>53.8</ele><time>2026-05-01T13:58:56Z</time></trkpt><trkpt lat="43.39341604980279" lon="-4.355979286652443"><ele>52.0</ele><time>2026-05-01T13:58:57Z</time></trkpt><trkpt lat="43.39334147752358" lon="-4.35608462803875"><ele>52.0</ele><time>2026-05-01T13:58:58Z</time></trkpt><trkpt lat="43.39327194196231" lon="-4.356202793752032"><ele>52.0</ele><time>2026-05-01T13:58:59Z</time></trkpt><trkpt lat="43.39320332501904" lon="-4.356312827283068"><ele>52.0</ele><time>2026-05-01T13:59:00Z</time></trkpt><trkpt lat="43.39313643506489" lon="-4.356425841872993"><ele>52.0</ele><time>2026-05-01T13:59:01Z</time></trkpt><trkpt lat="43.393068447014905" lon="-4.356546473223989"><ele>52.0</ele><time>2026-05-01T13:59:02.001Z</time></trkpt><trkpt lat="43.39299228614315" lon="-4.356648709263695"><ele>52.25</ele><time>2026-05-01T13:59:03.001Z</time></trkpt><trkpt lat="43.392932149473474" lon="-4.356779695285753"><ele>52.5</ele><time>2026-05-01T13:59:04.001Z</time></trkpt><trkpt lat="43.39285444483949" lon="-4.356887781558259"><ele>52.75</ele><time>2026-05-01T13:59:05.001Z</time></trkpt><trkpt lat="43.39293489586681" lon="-4.357083259185708"><ele>53.0</ele><time>2026-05-01T13:59:06.001Z</time></trkpt><trkpt lat="43.39300517434754" lon="-4.357241115562394"><ele>52.25</ele><time>2026-05-01T13:59:07.001Z</time></trkpt><trkpt lat="43.3930484311001" lon="-4.357390015584552"><ele>51.5</ele><time>2026-05-01T13:59:08.001Z</time></trkpt><trkpt lat="43.392974503560154" lon="-4.357535402867843"><ele>50.75</ele><time>2026-05-01T13:59:09.001Z</time></trkpt><trkpt lat="43.392940927412845" lon="-4.357673934921871"><ele>50.0</ele><time>2026-05-01T13:59:10.001Z</time></trkpt><trkpt lat="43.39292549266247" lon="-4.357819833918974"><ele>49.6</ele><time>2026-05-01T13:59:11.001Z</time></trkpt><trkpt lat="43.39293428842444" lon="-4.3579620143300986"><ele>49.2</ele><time>2026-05-01T13:59:12.001Z</time></trkpt><trkpt lat="43.39295091044568" lon="-4.358109375729714"><ele>48.8</ele><time>2026-05-01T13:59:13.001Z</time></trkpt><trkpt lat="43.39297587910792" lon="-4.358254792234201"><ele>48.4</ele><time>2026-05-01T13:59:14.001Z</time></trkpt><trkpt lat="43.393030112615634" lon="-4.358400125130981"><ele>48.0</ele><time>2026-05-01T13:59:15.001Z</time></trkpt><trkpt lat="43.3930760903985" lon="-4.358548295866245"><ele>48.0</ele><time>2026-05-01T13:59:16.001Z</time></trkpt><trkpt lat="43.393106824002935" lon="-4.358707238892477"><ele>48.0</ele><time>2026-05-01T13:59:17.001Z</time></trkpt><trkpt lat="43.393128023492665" lon="-4.358864031102059"><ele>48.0</ele><time>2026-05-01T13:59:18.001Z</time></trkpt><trkpt lat="43.39313401775978" lon="-4.359010685227192"><ele>48.0</ele><time>2026-05-01T13:59:19.001Z</time></trkpt><trkpt lat="43.393163534062495" lon="-4.359137994808898"><ele>48.0</ele><time>2026-05-01T13:59:20.001Z</time></trkpt><trkpt lat="43.393316255160606" lon="-4.359258496150652"><ele>46.75</ele><time>2026-05-01T13:59:21.001Z</time></trkpt><trkpt lat="43.39344335933473" lon="-4.359368997059421"><ele>45.5</ele><time>2026-05-01T13:59:22.001Z</time></trkpt><trkpt lat="43.393514868705346" lon="-4.359514639166773"><ele>44.25</ele><time>2026-05-01T13:59:23.001Z</time></trkpt><trkpt lat="43.39350632186928" lon="-4.359655680310066"><ele>43.0</ele><time>2026-05-01T13:59:24.001Z</time></trkpt><trkpt lat="43.39355660504641" lon="-4.359788677275087"><ele>42.199999999999996</ele><time>2026-05-01T13:59:25.001Z</time></trkpt><trkpt lat="43.393610116770176" lon="-4.359922276891588"><ele>41.4</ele><time>2026-05-01T13:59:26.001Z</time></trkpt><trkpt lat="43.39364104893999" lon="-4.36006757080848"><ele>40.599999999999994</ele><time>2026-05-01T13:59:27.001Z</time></trkpt><trkpt lat="43.39367231935824" lon="-4.360221284471409"><ele>39.8</ele><time>2026-05-01T13:59:28.001Z</time></trkpt><trkpt lat="43.393686302129964" lon="-4.360361601119332"><ele>39.0</ele><time>2026-05-01T13:59:29.001Z</time></trkpt><trkpt lat="43.39369819228587" lon="-4.36051697544402"><ele>38.2</ele><time>2026-05-01T13:59:30.001Z</time></trkpt><trkpt lat="43.39370743972996" lon="-4.360667067220173"><ele>37.4</ele><time>2026-05-01T13:59:31.001Z</time></trkpt><trkpt lat="43.393706889784745" lon="-4.3608227587054555"><ele>36.6</ele><time>2026-05-01T13:59:32.001Z</time></trkpt><trkpt lat="43.393710233604224" lon="-4.360975553510562"><ele>35.8</ele><time>2026-05-01T13:59:33.001Z</time></trkpt><trkpt lat="43.39372183853226" lon="-4.361127950657509"><ele>35.0</ele><time>2026-05-01T13:59:34.001Z</time></trkpt><trkpt lat="43.39373701693577" lon="-4.361284760352693"><ele>34.0</ele><time>2026-05-01T13:59:35.001Z</time></trkpt><trkpt lat="43.39374332111426" lon="-4.361437369205825"><ele>33.0</ele><time>2026-05-01T13:59:36.001Z</time></trkpt><trkpt lat="43.39374476284451" lon="-4.361593129840007"><ele>32.0</ele><time>2026-05-01T13:59:37.001Z</time></trkpt><trkpt lat="43.3937408173785" lon="-4.361749087707042"><ele>31.0</ele><time>2026-05-01T13:59:38.001Z</time></trkpt><trkpt lat="43.39373015161197" lon="-4.36190708011472"><ele>31.0</ele><time>2026-05-01T13:59:39.001Z</time></trkpt><trkpt lat="43.393714589570465" lon="-4.362061254185506"><ele>31.0</ele><time>2026-05-01T13:59:40.001Z</time></trkpt><trkpt lat="43.393690084164035" lon="-4.362220022192881"><ele>31.0</ele><time>2026-05-01T13:59:41.001Z</time></trkpt><trkpt lat="43.39366475151527" lon="-4.362375322861287"><ele>31.0</ele><time>2026-05-01T13:59:42.001Z</time></trkpt><trkpt lat="43.3936417576918" lon="-4.362533862319195"><ele>29.75</ele><time>2026-05-01T13:59:43.001Z</time></trkpt><trkpt lat="43.39361862968268" lon="-4.362689348336317"><ele>28.5</ele><time>2026-05-01T13:59:44.001Z</time></trkpt><trkpt lat="43.393596030200875" lon="-4.36284343168488"><ele>27.25</ele><time>2026-05-01T13:59:45.001Z</time></trkpt><trkpt lat="43.39357552725749" lon="-4.3629990071239675"><ele>26.0</ele><time>2026-05-01T13:59:46.001Z</time></trkpt><trkpt lat="43.393553407153" lon="-4.363154588786446"><ele>25.25</ele><time>2026-05-01T13:59:47.001Z</time></trkpt><trkpt lat="43.393529888883585" lon="-4.363309712200328"><ele>24.5</ele><time>2026-05-01T13:59:48.001Z</time></trkpt><trkpt lat="43.39350664383397" lon="-4.363464446748268"><ele>23.75</ele><time>2026-05-01T13:59:49.001Z</time></trkpt><trkpt lat="43.393482843663996" lon="-4.363617992494546"><ele>23.0</ele><time>2026-05-01T13:59:50.001Z</time></trkpt><trkpt lat="43.39346231433561" lon="-4.3637725838939465"><ele>22.0</ele><time>2026-05-01T13:59:51.001Z</time></trkpt><trkpt lat="43.393443346118424" lon="-4.363926398414691"><ele>21.0</ele><time>2026-05-01T13:59:52.001Z</time></trkpt><trkpt lat="43.39342306701843" lon="-4.364075509596232"><ele>20.0</ele><time>2026-05-01T13:59:53.001Z</time></trkpt><trkpt lat="43.393399214484354" lon="-4.364223431829907"><ele>19.0</ele><time>2026-05-01T13:59:54.001Z</time></trkpt><trkpt lat="43.39337824853632" lon="-4.364374356526282"><ele>18.0</ele><time>2026-05-01T13:59:55.001Z</time></trkpt><trkpt lat="43.39335870285379" lon="-4.364523440532544"><ele>18.0</ele><time>2026-05-01T13:59:56.001Z</time></trkpt><trkpt lat="43.393335871088176" lon="-4.364670506083963"><ele>18.0</ele><time>2026-05-01T13:59:57.001Z</time></trkpt><trkpt lat="43.393310436632696" lon="-4.364822676426753"><ele>18.0</ele><time>2026-05-01T13:59:58.001Z</time></trkpt><trkpt lat="43.393286353688175" lon="-4.364970502319675"><ele>18.0</ele><time>2026-05-01T13:59:59.001Z</time></trkpt><trkpt lat="43.393257578933635" lon="-4.36510585286353"><ele>18.0</ele><time>2026-05-01T14:00:00.001Z</time></trkpt><trkpt lat="43.39322650272614" lon="-4.365255435811228"><ele>17.0</ele><time>2026-05-01T14:00:01.001Z</time></trkpt><trkpt lat="43.39319697308419" lon="-4.365396142140684"><ele>16.0</ele><time>2026-05-01T14:00:02.001Z</time></trkpt><trkpt lat="43.3931616924428" lon="-4.3655553652070065"><ele>15.0</ele><time>2026-05-01T14:00:03.001Z</time></trkpt><trkpt lat="43.393143073196114" lon="-4.365768638333197"><ele>14.0</ele><time>2026-05-01T14:00:04.001Z</time></trkpt><trkpt lat="43.39310707959178" lon="-4.365982776793516"><ele>13.2</ele><time>2026-05-01T14:00:05.001Z</time></trkpt><trkpt lat="43.3930388417903" lon="-4.3660484637332075"><ele>12.399999999999999</ele><time>2026-05-01T14:00:06.001Z</time></trkpt><trkpt lat="43.392990756873225" lon="-4.366124225454136"><ele>11.6</ele><time>2026-05-01T14:00:07.001Z</time></trkpt><trkpt lat="43.39287419131717" lon="-4.366218118308849"><ele>10.8</ele><time>2026-05-01T14:00:09.001Z</time></trkpt><trkpt lat="43.392789514010936" lon="-4.366283738084979"><ele>10.0</ele><time>2026-05-01T14:00:10.001Z</time></trkpt><trkpt lat="43.39266534832115" lon="-4.3664850044994985"><ele>8.75</ele><time>2026-05-01T14:00:11.001Z</time></trkpt><trkpt lat="43.39256967015634" lon="-4.366572488930668"><ele>7.5</ele><time>2026-05-01T14:00:12.001Z</time></trkpt><trkpt lat="43.392467508053976" lon="-4.366627743047168"><ele>6.25</ele><time>2026-05-01T14:00:13.001Z</time></trkpt><trkpt lat="43.39235023702954" lon="-4.366652870233735"><ele>5.0</ele><time>2026-05-01T14:00:14.001Z</time></trkpt><trkpt lat="43.39224123909238" lon="-4.366683973614218"><ele>5.2</ele><time>2026-05-01T14:00:15.001Z</time></trkpt><trkpt lat="43.3921344061282" lon="-4.366738798630791"><ele>5.4</ele><time>2026-05-01T14:00:16.001Z</time></trkpt><trkpt lat="43.392040201342866" lon="-4.366794697825033"><ele>5.6</ele><time>2026-05-01T14:00:17.001Z</time></trkpt><trkpt lat="43.39193969330922" lon="-4.366841448895729"><ele>5.8</ele><time>2026-05-01T14:00:18.001Z</time></trkpt><trkpt lat="43.39184383833754" lon="-4.366880646618908"><ele>6.0</ele><time>2026-05-01T14:00:19.001Z</time></trkpt><trkpt lat="43.39174819718501" lon="-4.366921400194469"><ele>6.0</ele><time>2026-05-01T14:00:20.001Z</time></trkpt><trkpt lat="43.391654097660584" lon="-4.366991227872177"><ele>6.0</ele><time>2026-05-01T14:00:21.001Z</time></trkpt><trkpt lat="43.39158529327898" lon="-4.3670984175209"><ele>6.0</ele><time>2026-05-01T14:00:22.001Z</time></trkpt><trkpt lat="43.391542579824076" lon="-4.367221652336185"><ele>6.0</ele><time>2026-05-01T14:00:23.001Z</time></trkpt><trkpt lat="43.391527795023364" lon="-4.367349264749506"><ele>6.0</ele><time>2026-05-01T14:00:24.001Z</time></trkpt><trkpt lat="43.39153668164879" lon="-4.3674741017408945"><ele>7.0</ele><time>2026-05-01T14:00:25.001Z</time></trkpt><trkpt lat="43.391568227257075" lon="-4.367596367778828"><ele>8.0</ele><time>2026-05-01T14:00:26.001Z</time></trkpt><trkpt lat="43.39158737992262" lon="-4.367708176524984"><ele>9.0</ele><time>2026-05-01T14:00:27.001Z</time></trkpt><trkpt lat="43.39161749331085" lon="-4.3678143670859555"><ele>10.0</ele><time>2026-05-01T14:00:28Z</time></trkpt><trkpt lat="43.391640379133335" lon="-4.367923849681721"><ele>11.0</ele><time>2026-05-01T14:00:29Z</time></trkpt><trkpt lat="43.39165819934661" lon="-4.368036091426159"><ele>12.0</ele><time>2026-05-01T14:00:30Z</time></trkpt><trkpt lat="43.39167992302159" lon="-4.368139379942915"><ele>12.857142857142856</ele><time>2026-05-01T14:00:31Z</time></trkpt><trkpt lat="43.39170216584751" lon="-4.368234973584348"><ele>13.714285714285715</ele><time>2026-05-01T14:00:32Z</time></trkpt><trkpt lat="43.39172130099788" lon="-4.368336184088409"><ele>14.571428571428573</ele><time>2026-05-01T14:00:33Z</time></trkpt><trkpt lat="43.39172824919274" lon="-4.368433334181236"><ele>15.428571428571429</ele><time>2026-05-01T14:00:34Z</time></trkpt><trkpt lat="43.39171405663569" lon="-4.368546761518465"><ele>16.285714285714285</ele><time>2026-05-01T14:00:35Z</time></trkpt><trkpt lat="43.39169515295557" lon="-4.368639627322647"><ele>17.142857142857146</ele><time>2026-05-01T14:00:36Z</time></trkpt><trkpt lat="43.39166736608734" lon="-4.3687262732861445"><ele>18.0</ele><time>2026-05-01T14:00:37Z</time></trkpt><trkpt lat="43.39162276592929" lon="-4.368808305845762"><ele>17.714285714285715</ele><time>2026-05-01T14:00:38Z</time></trkpt><trkpt lat="43.39157241163727" lon="-4.368876486923638"><ele>17.42857142857143</ele><time>2026-05-01T14:00:39Z</time></trkpt><trkpt lat="43.39151307874999" lon="-4.368941779356928"><ele>17.142857142857142</ele><time>2026-05-01T14:00:40Z</time></trkpt><trkpt lat="43.39145701601277" lon="-4.369004406177477"><ele>16.857142857142858</ele><time>2026-05-01T14:00:41Z</time></trkpt><trkpt lat="43.39139766657545" lon="-4.36906998303777"><ele>16.57142857142857</ele><time>2026-05-01T14:00:42Z</time></trkpt><trkpt lat="43.39134097340368" lon="-4.36913474679866"><ele>16.285714285714285</ele><time>2026-05-01T14:00:43Z</time></trkpt><trkpt lat="43.39128118014602" lon="-4.369192608116378"><ele>16.0</ele><time>2026-05-01T14:00:44Z</time></trkpt><trkpt lat="43.39122150459693" lon="-4.369252512689132"><ele>18.833333333333332</ele><time>2026-05-01T14:00:45Z</time></trkpt><trkpt lat="43.39116211040064" lon="-4.36931996256698"><ele>21.666666666666664</ele><time>2026-05-01T14:00:46Z</time></trkpt><trkpt lat="43.39110298767244" lon="-4.369381808064319"><ele>24.5</ele><time>2026-05-01T14:00:47Z</time></trkpt><trkpt lat="43.39104133624009" lon="-4.369442635250744"><ele>27.333333333333332</ele><time>2026-05-01T14:00:48Z</time></trkpt><trkpt lat="43.390979988101584" lon="-4.369493984795487"><ele>30.166666666666668</ele><time>2026-05-01T14:00:49Z</time></trkpt><trkpt lat="43.39090917189716" lon="-4.369538693136401"><ele>33.0</ele><time>2026-05-01T14:00:50Z</time></trkpt><trkpt lat="43.390829577613545" lon="-4.369571126764044"><ele>33.0</ele><time>2026-05-01T14:00:51Z</time></trkpt><trkpt lat="43.39074750446529" lon="-4.369582925063557"><ele>33.0</ele><time>2026-05-01T14:00:52Z</time></trkpt><trkpt lat="43.390657405538335" lon="-4.369561431326032"><ele>33.0</ele><time>2026-05-01T14:00:53Z</time></trkpt><trkpt lat="43.390562786170925" lon="-4.369519879068529"><ele>33.0</ele><time>2026-05-01T14:00:54Z</time></trkpt><trkpt lat="43.39046917850059" lon="-4.36946223664763"><ele>33.0</ele><time>2026-05-01T14:00:55Z</time></trkpt><trkpt lat="43.390374158665104" lon="-4.369397213247382"><ele>33.75</ele><time>2026-05-01T14:00:56Z</time></trkpt><trkpt lat="43.39026922080011" lon="-4.369361339167297"><ele>34.5</ele><time>2026-05-01T14:00:57Z</time></trkpt><trkpt lat="43.39015435173124" lon="-4.3693967691047755"><ele>35.25</ele><time>2026-05-01T14:00:58Z</time></trkpt><trkpt lat="43.39006796050471" lon="-4.369502946099791"><ele>36.0</ele><time>2026-05-01T14:00:59Z</time></trkpt><trkpt lat="43.390006656691746" lon="-4.369640688852578"><ele>33.6</ele><time>2026-05-01T14:01:00Z</time></trkpt><trkpt lat="43.38997815376119" lon="-4.369785144870433"><ele>31.200000000000003</ele><time>2026-05-01T14:01:01Z</time></trkpt><trkpt lat="43.38996218765117" lon="-4.36993535323098"><ele>28.799999999999997</ele><time>2026-05-01T14:01:02Z</time></trkpt><trkpt lat="43.38993798813147" lon="-4.370073108568726"><ele>26.4</ele><time>2026-05-01T14:01:03Z</time></trkpt><trkpt lat="43.38990110453113" lon="-4.370206813741902"><ele>24.0</ele><time>2026-05-01T14:01:04Z</time></trkpt><trkpt lat="43.38985904656498" lon="-4.3703408642638015"><ele>24.0</ele><time>2026-05-01T14:01:05Z</time></trkpt><trkpt lat="43.38980917001738" lon="-4.370468937841933"><ele>24.0</ele><time>2026-05-01T14:01:06Z</time></trkpt><trkpt lat="43.38974451354465" lon="-4.370590058959945"><ele>24.0</ele><time>2026-05-01T14:01:07Z</time></trkpt><trkpt lat="43.38967745538054" lon="-4.370698674097344"><ele>24.0</ele><time>2026-05-01T14:01:08Z</time></trkpt><trkpt lat="43.389592620838854" lon="-4.370794513416508"><ele>24.0</ele><time>2026-05-01T14:01:09Z</time></trkpt><trkpt lat="43.38948594540935" lon="-4.370872107289282"><ele>23.25</ele><time>2026-05-01T14:01:10Z</time></trkpt><trkpt lat="43.389388638053425" lon="-4.37096433357489"><ele>22.5</ele><time>2026-05-01T14:01:11Z</time></trkpt><trkpt lat="43.38928464047895" lon="-4.371050907067546"><ele>21.75</ele><time>2026-05-01T14:01:12Z</time></trkpt><trkpt lat="43.389190059309755" lon="-4.371150916150091"><ele>21.0</ele><time>2026-05-01T14:01:13Z</time></trkpt><trkpt lat="43.38909042522813" lon="-4.371235453056226"><ele>21.0</ele><time>2026-05-01T14:01:14Z</time></trkpt><trkpt lat="43.38900633542473" lon="-4.371353859275054"><ele>21.0</ele><time>2026-05-01T14:01:15.001Z</time></trkpt><trkpt lat="43.388967045542024" lon="-4.371517251305164"><ele>21.0</ele><time>2026-05-01T14:01:16.001Z</time></trkpt><trkpt lat="43.38895344877704" lon="-4.3716900826205505"><ele>21.0</ele><time>2026-05-01T14:01:17.001Z</time></trkpt><trkpt lat="43.38895784138899" lon="-4.371860844322937"><ele>18.400000000000002</ele><time>2026-05-01T14:01:18.001Z</time></trkpt><trkpt lat="43.388958186531184" lon="-4.372015507908098"><ele>15.8</ele><time>2026-05-01T14:01:19.001Z</time></trkpt><trkpt lat="43.38895408627574" lon="-4.37215438367096"><ele>13.200000000000001</ele><time>2026-05-01T14:01:20.001Z</time></trkpt><trkpt lat="43.388956235731115" lon="-4.372300013917586"><ele>10.600000000000001</ele><time>2026-05-01T14:01:21.001Z</time></trkpt><trkpt lat="43.38896129820995" lon="-4.372435553295371"><ele>8.0</ele><time>2026-05-01T14:01:22.001Z</time></trkpt><trkpt lat="43.38897601779437" lon="-4.372561761405445"><ele>6.800000000000001</ele><time>2026-05-01T14:01:23.001Z</time></trkpt><trkpt lat="43.389011786424874" lon="-4.3726796098314935"><ele>5.6000000000000005</ele><time>2026-05-01T14:01:24.001Z</time></trkpt><trkpt lat="43.38906909635174" lon="-4.372785099784917"><ele>4.4</ele><time>2026-05-01T14:01:25.001Z</time></trkpt><trkpt lat="43.38914908952015" lon="-4.372864149255959"><ele>3.2</ele><time>2026-05-01T14:01:26.001Z</time></trkpt><trkpt lat="43.38923794105229" lon="-4.37291927518732"><ele>2.0</ele><time>2026-05-01T14:01:27.001Z</time></trkpt><trkpt lat="43.389324602446294" lon="-4.372976171810312"><ele>2.2</ele><time>2026-05-01T14:01:28.001Z</time></trkpt><trkpt lat="43.38941038673063" lon="-4.373037080178457"><ele>2.4000000000000004</ele><time>2026-05-01T14:01:29.001Z</time></trkpt><trkpt lat="43.389496058162756" lon="-4.37310290915111"><ele>2.5999999999999996</ele><time>2026-05-01T14:01:30.001Z</time></trkpt><trkpt lat="43.38957623778794" lon="-4.373175820148744"><ele>2.8</ele><time>2026-05-01T14:01:31.001Z</time></trkpt><trkpt lat="43.38964798465721" lon="-4.373265930877316"><ele>3.0</ele><time>2026-05-01T14:01:32.001Z</time></trkpt><trkpt lat="43.38970834128265" lon="-4.373370164676926"><ele>3.0</ele><time>2026-05-01T14:01:33.001Z</time></trkpt><trkpt lat="43.38975919593885" lon="-4.373486442574348"><ele>3.0</ele><time>2026-05-01T14:01:34.001Z</time></trkpt><trkpt lat="43.38980330702915" lon="-4.373606584974675"><ele>3.0</ele><time>2026-05-01T14:01:35.001Z</time></trkpt><trkpt lat="43.38983976889901" lon="-4.373729743636532"><ele>3.0</ele><time>2026-05-01T14:01:36.001Z</time></trkpt><trkpt lat="43.38987503290496" lon="-4.3738506845118215"><ele>3.0</ele><time>2026-05-01T14:01:37.001Z</time></trkpt><trkpt lat="43.38991028258586" lon="-4.373975752254772"><ele>3.0</ele><time>2026-05-01T14:01:38.001Z</time></trkpt><trkpt lat="43.389947467207804" lon="-4.374097001349597"><ele>3.0</ele><time>2026-05-01T14:01:39.001Z</time></trkpt><trkpt lat="43.389985397224784" lon="-4.374215122612528"><ele>3.0</ele><time>2026-05-01T14:01:40.001Z</time></trkpt><trkpt lat="43.39002308151666" lon="-4.374333626830837"><ele>3.0</ele><time>2026-05-01T14:01:41.001Z</time></trkpt><trkpt lat="43.39005900369351" lon="-4.374453253236868"><ele>3.0</ele><time>2026-05-01T14:01:42.001Z</time></trkpt><trkpt lat="43.3900936867117" lon="-4.3745718054742095"><ele>3.833333333333333</ele><time>2026-05-01T14:01:43.001Z</time></trkpt><trkpt lat="43.39012756928097" lon="-4.374689069471548"><ele>4.666666666666666</ele><time>2026-05-01T14:01:44.001Z</time></trkpt><trkpt lat="43.39016007126328" lon="-4.374807076901263"><ele>5.5</ele><time>2026-05-01T14:01:45.001Z</time></trkpt><trkpt lat="43.39018984965946" lon="-4.3749220569561045"><ele>6.333333333333333</ele><time>2026-05-01T14:01:46.001Z</time></trkpt><trkpt lat="43.390217874567284" lon="-4.375040036982184"><ele>7.166666666666666</ele><time>2026-05-01T14:01:47.001Z</time></trkpt><trkpt lat="43.39023645264332" lon="-4.375155110788114"><ele>8.0</ele><time>2026-05-01T14:01:48.001Z</time></trkpt><trkpt lat="43.39025267589593" lon="-4.37526997621667"><ele>7.999999999999999</ele><time>2026-05-01T14:01:49.001Z</time></trkpt><trkpt lat="43.390267662138015" lon="-4.3753867030214355"><ele>8.0</ele><time>2026-05-01T14:01:50.001Z</time></trkpt><trkpt lat="43.39027261691632" lon="-4.375504684601598"><ele>8.0</ele><time>2026-05-01T14:01:51.001Z</time></trkpt><trkpt lat="43.39027214225904" lon="-4.375618189105176"><ele>8.0</ele><time>2026-05-01T14:01:52.001Z</time></trkpt><trkpt lat="43.390267354754776" lon="-4.37573366661977"><ele>7.999999999999999</ele><time>2026-05-01T14:01:53.001Z</time></trkpt><trkpt lat="43.39025402938429" lon="-4.375849699836374"><ele>8.0</ele><time>2026-05-01T14:01:54.001Z</time></trkpt><trkpt lat="43.39023666846943" lon="-4.375967116751367"><ele>9.166666666666666</ele><time>2026-05-01T14:01:55.001Z</time></trkpt><trkpt lat="43.39021875522737" lon="-4.376082916936894"><ele>10.333333333333332</ele><time>2026-05-01T14:01:56.001Z</time></trkpt><trkpt lat="43.39019392258734" lon="-4.3761679142435215"><ele>11.5</ele><time>2026-05-01T14:01:57.001Z</time></trkpt><trkpt lat="43.39014846009797" lon="-4.37631148689587"><ele>12.666666666666666</ele><time>2026-05-01T14:01:59.001Z</time></trkpt><trkpt lat="43.390108640519124" lon="-4.3764305156294965"><ele>13.833333333333334</ele><time>2026-05-01T14:02:01.001Z</time></trkpt><trkpt lat="43.390068779489866" lon="-4.376534316137989"><ele>15.0</ele><time>2026-05-01T14:02:03.001Z</time></trkpt><trkpt lat="43.39003429694799" lon="-4.376632566361654"><ele>15.333333333333334</ele><time>2026-05-01T14:02:05.001Z</time></trkpt><trkpt lat="43.390005266324486" lon="-4.376717904883036"><ele>15.666666666666668</ele><time>2026-05-01T14:02:08.001Z</time></trkpt><trkpt lat="43.38997322358041" lon="-4.376800090073893"><ele>16.0</ele><time>2026-05-01T14:06:05.001Z</time></trkpt><trkpt lat="43.38993650761657" lon="-4.376900063632708"><ele>16.333333333333336</ele><time>2026-05-01T14:06:08.001Z</time></trkpt><trkpt lat="43.389892709395895" lon="-4.3770019873701065"><ele>16.666666666666668</ele><time>2026-05-01T14:06:10.001Z</time></trkpt><trkpt lat="43.389841009126116" lon="-4.377123895564978"><ele>17.0</ele><time>2026-05-01T14:06:12.001Z</time></trkpt><trkpt lat="43.389784482362444" lon="-4.3772783365792245"><ele>16.999999999999996</ele><time>2026-05-01T14:06:14.001Z</time></trkpt><trkpt lat="43.38975541310019" lon="-4.377363258047271"><ele>17.0</ele><time>2026-05-01T14:06:15.001Z</time></trkpt><trkpt lat="43.389723246592155" lon="-4.377450311930222"><ele>17.0</ele><time>2026-05-01T14:06:16.001Z</time></trkpt><trkpt lat="43.38969314044312" lon="-4.377538265160779"><ele>17.0</ele><time>2026-05-01T14:06:17.001Z</time></trkpt><trkpt lat="43.389663429602734" lon="-4.377625391057293"><ele>17.0</ele><time>2026-05-01T14:06:18.001Z</time></trkpt><trkpt lat="43.38963247476975" lon="-4.377710214139054"><ele>16.999999999999996</ele><time>2026-05-01T14:06:19.001Z</time></trkpt><trkpt lat="43.38960197233311" lon="-4.3777959430321625"><ele>17.0</ele><time>2026-05-01T14:06:20.001Z</time></trkpt><trkpt lat="43.38957089926152" lon="-4.377882943174207"><ele>17.857142857142854</ele><time>2026-05-01T14:06:21.001Z</time></trkpt><trkpt lat="43.38954137775468" lon="-4.377968890282829"><ele>18.714285714285715</ele><time>2026-05-01T14:06:22.001Z</time></trkpt><trkpt lat="43.389511064936926" lon="-4.378050947856101"><ele>19.57142857142857</ele><time>2026-05-01T14:06:23.001Z</time></trkpt><trkpt lat="43.38948292859624" lon="-4.378136473442751"><ele>20.428571428571427</ele><time>2026-05-01T14:06:24.001Z</time></trkpt><trkpt lat="43.3894538456331" lon="-4.378222421723507"><ele>21.285714285714285</ele><time>2026-05-01T14:06:25.001Z</time></trkpt><trkpt lat="43.389424362947324" lon="-4.378307747939793"><ele>22.142857142857142</ele><time>2026-05-01T14:06:26.001Z</time></trkpt><trkpt lat="43.38939568435964" lon="-4.378391643253357"><ele>23.0</ele><time>2026-05-01T14:06:27.001Z</time></trkpt><trkpt lat="43.389369453349026" lon="-4.378476699634781"><ele>23.571428571428573</ele><time>2026-05-01T14:06:28.001Z</time></trkpt><trkpt lat="43.38934375077868" lon="-4.378560529405134"><ele>24.142857142857142</ele><time>2026-05-01T14:06:29.001Z</time></trkpt><trkpt lat="43.389318209589355" lon="-4.378645863427031"><ele>24.714285714285715</ele><time>2026-05-01T14:06:30.001Z</time></trkpt><trkpt lat="43.389290412649416" lon="-4.378731359090835"><ele>25.285714285714285</ele><time>2026-05-01T14:06:31.001Z</time></trkpt><trkpt lat="43.38926311063053" lon="-4.37882063370379"><ele>25.857142857142854</ele><time>2026-05-01T14:06:32.001Z</time></trkpt><trkpt lat="43.38923611710978" lon="-4.378914323906816"><ele>26.428571428571427</ele><time>2026-05-01T14:06:33.001Z</time></trkpt><trkpt lat="43.38921047284192" lon="-4.379015514761349"><ele>27.0</ele><time>2026-05-01T14:06:34.001Z</time></trkpt><trkpt lat="43.389179075322595" lon="-4.379117871562593"><ele>27.333333333333332</ele><time>2026-05-01T14:06:35.001Z</time></trkpt><trkpt lat="43.389143845291564" lon="-4.379227052311608"><ele>27.666666666666664</ele><time>2026-05-01T14:06:36.001Z</time></trkpt><trkpt lat="43.38909973125824" lon="-4.379333955094548"><ele>28.0</ele><time>2026-05-01T14:06:37.001Z</time></trkpt><trkpt lat="43.38904601933229" lon="-4.379428617318571"><ele>28.333333333333332</ele><time>2026-05-01T14:06:38.001Z</time></trkpt><trkpt lat="43.38898768089995" lon="-4.379518571085835"><ele>28.666666666666664</ele><time>2026-05-01T14:06:39.001Z</time></trkpt><trkpt lat="43.388915844860804" lon="-4.379600602916637"><ele>29.0</ele><time>2026-05-01T14:06:40.001Z</time></trkpt><trkpt lat="43.38882988855566" lon="-4.379670149715873"><ele>30.6</ele><time>2026-05-01T14:06:41.001Z</time></trkpt><trkpt lat="43.388737812580466" lon="-4.379728653566775"><ele>32.2</ele><time>2026-05-01T14:06:42.001Z</time></trkpt><trkpt lat="43.38864814881696" lon="-4.379787766735404"><ele>33.800000000000004</ele><time>2026-05-01T14:06:43.001Z</time></trkpt><trkpt lat="43.38856010330659" lon="-4.37985334398876"><ele>35.4</ele><time>2026-05-01T14:06:44.001Z</time></trkpt><trkpt lat="43.3884693035074" lon="-4.379910911632188"><ele>37.0</ele><time>2026-05-01T14:06:45.001Z</time></trkpt><trkpt lat="43.38838357676765" lon="-4.379973417500414"><ele>37.0</ele><time>2026-05-01T14:06:46Z</time></trkpt><trkpt lat="43.388300592151246" lon="-4.380035245927524"><ele>37.0</ele><time>2026-05-01T14:06:47Z</time></trkpt><trkpt lat="43.388215944905134" lon="-4.380090660780352"><ele>37.0</ele><time>2026-05-01T14:06:48Z</time></trkpt><trkpt lat="43.388133070542345" lon="-4.380147963475707"><ele>37.0</ele><time>2026-05-01T14:06:49Z</time></trkpt><trkpt lat="43.38805067613736" lon="-4.380205567000921"><ele>37.0</ele><time>2026-05-01T14:06:50Z</time></trkpt><trkpt lat="43.38796662043673" lon="-4.380258522190655"><ele>37.333333333333336</ele><time>2026-05-01T14:06:51Z</time></trkpt><trkpt lat="43.38788850978496" lon="-4.380320906944964"><ele>37.66666666666667</ele><time>2026-05-01T14:06:52Z</time></trkpt><trkpt lat="43.38780740265729" lon="-4.380377491819194"><ele>38.0</ele><time>2026-05-01T14:06:53Z</time></trkpt><trkpt lat="43.38772876864583" lon="-4.380423979797765"><ele>38.333333333333336</ele><time>2026-05-01T14:06:54Z</time></trkpt><trkpt lat="43.38765092142951" lon="-4.380467366645208"><ele>38.666666666666664</ele><time>2026-05-01T14:06:55Z</time></trkpt><trkpt lat="43.387571487371126" lon="-4.380506295798919"><ele>39.0</ele><time>2026-05-01T14:06:56Z</time></trkpt><trkpt lat="43.387489093968476" lon="-4.380535724441562"><ele>40.0</ele><time>2026-05-01T14:06:57Z</time></trkpt><trkpt lat="43.38739918153609" lon="-4.380560506719914"><ele>41.0</ele><time>2026-05-01T14:06:58Z</time></trkpt><trkpt lat="43.38730464271205" lon="-4.380589432263201"><ele>42.0</ele><time>2026-05-01T14:06:59Z</time></trkpt><trkpt lat="43.38721264796349" lon="-4.380612160381009"><ele>43.0</ele><time>2026-05-01T14:07:00Z</time></trkpt><trkpt lat="43.387120172069096" lon="-4.380642019203494"><ele>44.0</ele><time>2026-05-01T14:07:01Z</time></trkpt><trkpt lat="43.38703080445446" lon="-4.380671514449218"><ele>45.0</ele><time>2026-05-01T14:07:02Z</time></trkpt><trkpt lat="43.38694034496614" lon="-4.380694877294281"><ele>46.0</ele><time>2026-05-01T14:07:03Z</time></trkpt><trkpt lat="43.38685032876433" lon="-4.38071350591385"><ele>47.0</ele><time>2026-05-01T14:07:04Z</time></trkpt><trkpt lat="43.38676081040249" lon="-4.380716970588861"><ele>48.0</ele><time>2026-05-01T14:07:05Z</time></trkpt><trkpt lat="43.386671347147576" lon="-4.380705958074265"><ele>49.0</ele><time>2026-05-01T14:07:06Z</time></trkpt><trkpt lat="43.38657894076749" lon="-4.380689109406234"><ele>48.99999999999999</ele><time>2026-05-01T14:07:07Z</time></trkpt><trkpt lat="43.386488592895624" lon="-4.380670869393025"><ele>49.0</ele><time>2026-05-01T14:07:08Z</time></trkpt><trkpt lat="43.38640184703104" lon="-4.380649918454717"><ele>49.0</ele><time>2026-05-01T14:07:09Z</time></trkpt><trkpt lat="43.386311409602364" lon="-4.380625756905841"><ele>49.0</ele><time>2026-05-01T14:07:10Z</time></trkpt><trkpt lat="43.386223047609505" lon="-4.380605917111984"><ele>48.99999999999999</ele><time>2026-05-01T14:07:11Z</time></trkpt><trkpt lat="43.386138772466374" lon="-4.380605233068713"><ele>49.0</ele><time>2026-05-01T14:07:12Z</time></trkpt><trkpt lat="43.38606055548185" lon="-4.380633064915946"><ele>49.83333333333333</ele><time>2026-05-01T14:07:13Z</time></trkpt><trkpt lat="43.38598704010757" lon="-4.380681241862892"><ele>50.666666666666664</ele><time>2026-05-01T14:07:14Z</time></trkpt><trkpt lat="43.38591811881112" lon="-4.3807500671773605"><ele>51.5</ele><time>2026-05-01T14:07:15Z</time></trkpt><trkpt lat="43.38586012139211" lon="-4.380838378529204"><ele>52.33333333333333</ele><time>2026-05-01T14:07:16Z</time></trkpt><trkpt lat="43.38582056646099" lon="-4.380946751823817"><ele>53.166666666666664</ele><time>2026-05-01T14:07:17Z</time></trkpt><trkpt lat="43.38579204737836" lon="-4.381063557013856"><ele>54.0</ele><time>2026-05-01T14:07:18Z</time></trkpt><trkpt lat="43.385774142398894" lon="-4.381184902256419"><ele>54.0</ele><time>2026-05-01T14:07:19Z</time></trkpt><trkpt lat="43.38575200614203" lon="-4.381308372765647"><ele>54.00000000000001</ele><time>2026-05-01T14:07:20Z</time></trkpt><trkpt lat="43.38571450954505" lon="-4.381424432677557"><ele>54.00000000000001</ele><time>2026-05-01T14:07:21Z</time></trkpt><trkpt lat="43.38566580989429" lon="-4.381534069018651"><ele>54.0</ele><time>2026-05-01T14:07:22Z</time></trkpt><trkpt lat="43.385612487247506" lon="-4.381640972489439"><ele>54.0</ele><time>2026-05-01T14:07:23Z</time></trkpt><trkpt lat="43.38555797135042" lon="-4.381748188618965"><ele>53.800000000000004</ele><time>2026-05-01T14:07:24Z</time></trkpt><trkpt lat="43.385506433678145" lon="-4.381854438763355"><ele>53.60000000000001</ele><time>2026-05-01T14:07:25Z</time></trkpt><trkpt lat="43.38545564199272" lon="-4.38196187909363"><ele>53.4</ele><time>2026-05-01T14:07:26Z</time></trkpt><trkpt lat="43.38540405221773" lon="-4.382068238297978"><ele>53.2</ele><time>2026-05-01T14:07:27Z</time></trkpt><trkpt lat="43.38535303098844" lon="-4.382173656777573"><ele>53.0</ele><time>2026-05-01T14:07:28Z</time></trkpt><trkpt lat="43.385302048729564" lon="-4.382284748946173"><ele>53.0</ele><time>2026-05-01T14:07:29Z</time></trkpt><trkpt lat="43.38525211539985" lon="-4.382396587372174"><ele>53.0</ele><time>2026-05-01T14:07:30Z</time></trkpt><trkpt lat="43.38520379631751" lon="-4.38250636525517"><ele>53.0</ele><time>2026-05-01T14:07:31Z</time></trkpt><trkpt lat="43.38516999922516" lon="-4.382624580683939"><ele>53.0</ele><time>2026-05-01T14:07:32Z</time></trkpt><trkpt lat="43.385138233559175" lon="-4.382743133362208"><ele>53.0</ele><time>2026-05-01T14:07:33Z</time></trkpt><trkpt lat="43.38510933162893" lon="-4.382863962346171"><ele>53.0</ele><time>2026-05-01T14:07:34Z</time></trkpt><trkpt lat="43.385079490862175" lon="-4.3829870914816365"><ele>53.0</ele><time>2026-05-01T14:07:35Z</time></trkpt><trkpt lat="43.385032265251354" lon="-4.383102276929581"><ele>53.0</ele><time>2026-05-01T14:07:36Z</time></trkpt><trkpt lat="43.38498171941246" lon="-4.383211969573152"><ele>53.0</ele><time>2026-05-01T14:07:37Z</time></trkpt><trkpt lat="43.38493502668227" lon="-4.383323573522354"><ele>53.0</ele><time>2026-05-01T14:07:38Z</time></trkpt><trkpt lat="43.384913012401235" lon="-4.3834514475121775"><ele>51.8</ele><time>2026-05-01T14:07:39Z</time></trkpt><trkpt lat="43.38491002267266" lon="-4.383595034187038"><ele>50.599999999999994</ele><time>2026-05-01T14:07:40Z</time></trkpt><trkpt lat="43.38491577765805" lon="-4.383732327869175"><ele>49.400000000000006</ele><time>2026-05-01T14:07:41Z</time></trkpt><trkpt lat="43.384928464011594" lon="-4.383872680333389"><ele>48.2</ele><time>2026-05-01T14:07:42Z</time></trkpt><trkpt lat="43.38494689355757" lon="-4.384011840067252"><ele>47.0</ele><time>2026-05-01T14:07:43Z</time></trkpt><trkpt lat="43.38497418499918" lon="-4.384147768839028"><ele>46.0</ele><time>2026-05-01T14:07:44Z</time></trkpt><trkpt lat="43.38499822955235" lon="-4.384283043368253"><ele>45.0</ele><time>2026-05-01T14:07:45Z</time></trkpt><trkpt lat="43.38501288200785" lon="-4.38441274265129"><ele>44.0</ele><time>2026-05-01T14:07:46Z</time></trkpt><trkpt lat="43.38501894651713" lon="-4.384544836059114"><ele>43.0</ele><time>2026-05-01T14:07:47Z</time></trkpt><trkpt lat="43.385014547905655" lon="-4.38467455649997"><ele>42.0</ele><time>2026-05-01T14:07:48Z</time></trkpt><trkpt lat="43.38500139341955" lon="-4.384803140965892"><ele>41.2</ele><time>2026-05-01T14:07:49Z</time></trkpt><trkpt lat="43.38498061474024" lon="-4.384925389966264"><ele>40.400000000000006</ele><time>2026-05-01T14:07:50Z</time></trkpt><trkpt lat="43.38495059952186" lon="-4.385046448470602"><ele>39.599999999999994</ele><time>2026-05-01T14:07:51Z</time></trkpt><trkpt lat="43.38491922661017" lon="-4.385167905370799"><ele>38.8</ele><time>2026-05-01T14:07:52Z</time></trkpt><trkpt lat="43.38488662355115" lon="-4.385287212900041"><ele>38.0</ele><time>2026-05-01T14:07:53Z</time></trkpt><trkpt lat="43.38486140116092" lon="-4.385410052907155"><ele>37.33333333333333</ele><time>2026-05-01T14:07:54Z</time></trkpt><trkpt lat="43.384841241540954" lon="-4.3855328785439625"><ele>36.666666666666664</ele><time>2026-05-01T14:07:55Z</time></trkpt><trkpt lat="43.38482706012464" lon="-4.385653589982949"><ele>36.0</ele><time>2026-05-01T14:07:56Z</time></trkpt><trkpt lat="43.384811497117624" lon="-4.385767473785326"><ele>35.333333333333336</ele><time>2026-05-01T14:07:57.001Z</time></trkpt><trkpt lat="43.38478521906167" lon="-4.385874734347443"><ele>34.66666666666667</ele><time>2026-05-01T14:07:58.001Z</time></trkpt><trkpt lat="43.38474867425668" lon="-4.385977408941185"><ele>34.0</ele><time>2026-05-01T14:07:59.001Z</time></trkpt><trkpt lat="43.38469979481401" lon="-4.386071521309856"><ele>33.4</ele><time>2026-05-01T14:08:00.001Z</time></trkpt><trkpt lat="43.38464550649359" lon="-4.38616444816279"><ele>32.8</ele><time>2026-05-01T14:08:01.001Z</time></trkpt><trkpt lat="43.38458878374615" lon="-4.386262015055131"><ele>32.2</ele><time>2026-05-01T14:08:02.001Z</time></trkpt><trkpt lat="43.38452499684126" lon="-4.38635520669216"><ele>31.6</ele><time>2026-05-01T14:08:03.001Z</time></trkpt><trkpt lat="43.38446335419017" lon="-4.386451566901656"><ele>31.0</ele><time>2026-05-01T14:08:04.001Z</time></trkpt><trkpt lat="43.38440364393496" lon="-4.386546376550986"><ele>31.0</ele><time>2026-05-01T14:08:05.001Z</time></trkpt><trkpt lat="43.38435007307066" lon="-4.386650815478698"><ele>31.0</ele><time>2026-05-01T14:08:06.001Z</time></trkpt><trkpt lat="43.38430070521561" lon="-4.386761202140782"><ele>31.0</ele><time>2026-05-01T14:08:07.001Z</time></trkpt><trkpt lat="43.38425655436615" lon="-4.386873298502433"><ele>31.0</ele><time>2026-05-01T14:08:08.001Z</time></trkpt><trkpt lat="43.38421891563743" lon="-4.386989592455482"><ele>31.0</ele><time>2026-05-01T14:08:09.001Z</time></trkpt><trkpt lat="43.38418824889149" lon="-4.387106825017993"><ele>30.500000000000004</ele><time>2026-05-01T14:08:10.001Z</time></trkpt><trkpt lat="43.38416075910186" lon="-4.3872287961725265"><ele>30.0</ele><time>2026-05-01T14:08:11.001Z</time></trkpt><trkpt lat="43.3841348441777" lon="-4.387346033024321"><ele>29.5</ele><time>2026-05-01T14:08:12.001Z</time></trkpt><trkpt lat="43.3841130262616" lon="-4.387462749611461"><ele>29.0</ele><time>2026-05-01T14:08:13.001Z</time></trkpt><trkpt lat="43.38408981230891" lon="-4.387573532844705"><ele>28.500000000000004</ele><time>2026-05-01T14:08:14.001Z</time></trkpt><trkpt lat="43.384066970150066" lon="-4.387687037602129"><ele>28.0</ele><time>2026-05-01T14:08:15.001Z</time></trkpt><trkpt lat="43.38404245711034" lon="-4.387797237792806"><ele>28.000000000000004</ele><time>2026-05-01T14:08:16.001Z</time></trkpt><trkpt lat="43.384018611787525" lon="-4.387908042800341"><ele>28.0</ele><time>2026-05-01T14:08:17.001Z</time></trkpt><trkpt lat="43.38399273172648" lon="-4.3880206545534515"><ele>28.0</ele><time>2026-05-01T14:08:18.001Z</time></trkpt><trkpt lat="43.383945464156184" lon="-4.388121772800679"><ele>28.0</ele><time>2026-05-01T14:08:19.001Z</time></trkpt><trkpt lat="43.38388304830372" lon="-4.388202014924186"><ele>28.000000000000004</ele><time>2026-05-01T14:08:20.001Z</time></trkpt><trkpt lat="43.38381148808332" lon="-4.388270242226428"><ele>28.0</ele><time>2026-05-01T14:08:21.001Z</time></trkpt><trkpt lat="43.38372941977644" lon="-4.388324895321443"><ele>24.799999999999997</ele><time>2026-05-01T14:08:22.001Z</time></trkpt><trkpt lat="43.38364122677808" lon="-4.3883714197941455"><ele>21.599999999999998</ele><time>2026-05-01T14:08:23.001Z</time></trkpt><trkpt lat="43.38355211283105" lon="-4.388418178064052"><ele>18.4</ele><time>2026-05-01T14:08:24.001Z</time></trkpt><trkpt lat="43.38346186412656" lon="-4.388466208155586"><ele>15.2</ele><time>2026-05-01T14:08:25.001Z</time></trkpt><trkpt lat="43.383374168345" lon="-4.388528557864032"><ele>12.0</ele><time>2026-05-01T14:08:26.001Z</time></trkpt><trkpt lat="43.383287129802774" lon="-4.388602811762099"><ele>12.0</ele><time>2026-05-01T14:08:27.001Z</time></trkpt><trkpt lat="43.383205138172194" lon="-4.388688146023628"><ele>12.0</ele><time>2026-05-01T14:08:28.001Z</time></trkpt><trkpt lat="43.383126182961135" lon="-4.388779420803567"><ele>12.0</ele><time>2026-05-01T14:08:29.001Z</time></trkpt><trkpt lat="43.38305593333191" lon="-4.38887322432064"><ele>12.0</ele><time>2026-05-01T14:08:30.001Z</time></trkpt><trkpt lat="43.382991918628264" lon="-4.388960640215291"><ele>12.0</ele><time>2026-05-01T14:08:31.001Z</time></trkpt><trkpt lat="43.38293238323942" lon="-4.3890363016236424"><ele>10.333333333333334</ele><time>2026-05-01T14:08:32.001Z</time></trkpt><trkpt lat="43.382882886137814" lon="-4.389108023166631"><ele>8.666666666666666</ele><time>2026-05-01T14:08:33.001Z</time></trkpt><trkpt lat="43.38285676335982" lon="-4.389186998954894"><ele>7.0</ele><time>2026-05-01T14:08:34.001Z</time></trkpt><trkpt lat="43.38286842034574" lon="-4.389327196597846"><ele>5.333333333333333</ele><time>2026-05-01T14:08:36.001Z</time></trkpt><trkpt lat="43.382907430409425" lon="-4.389416783586583"><ele>3.6666666666666665</ele><time>2026-05-01T14:08:38.001Z</time></trkpt><trkpt lat="43.38293091864675" lon="-4.38951425039636"><ele>2.0</ele><time>2026-05-01T14:08:40.001Z</time></trkpt><trkpt lat="43.382907509930675" lon="-4.389638737624258"><ele>1.6666666666666665</ele><time>2026-05-01T14:08:42.001Z</time></trkpt><trkpt lat="43.38284382888259" lon="-4.389762008932032"><ele>1.3333333333333333</ele><time>2026-05-01T14:08:44.001Z</time></trkpt><trkpt lat="43.38276141821961" lon="-4.389887918945607"><ele>1.0</ele><time>2026-05-01T14:08:46.001Z</time></trkpt><trkpt lat="43.38271616478311" lon="-4.389954775975302"><ele>0.6666666666666666</ele><time>2026-05-01T14:08:47.001Z</time></trkpt><trkpt lat="43.38265497835264" lon="-4.389998204135004"><ele>0.3333333333333333</ele><time>2026-05-01T14:08:48.001Z</time></trkpt><trkpt lat="43.38258595667787" lon="-4.390017214290293"><ele>0.0</ele><time>2026-05-01T14:08:49.001Z</time></trkpt><trkpt lat="43.38251872564326" lon="-4.390032336726435"><ele>0.0</ele><time>2026-05-01T14:08:50.001Z</time></trkpt><trkpt lat="43.382458819722494" lon="-4.390067574243814"><ele>0.0</ele><time>2026-05-01T14:08:51.001Z</time></trkpt><trkpt lat="43.38240155138282" lon="-4.390128073480718"><ele>0.0</ele><time>2026-05-01T14:08:52Z</time></trkpt><trkpt lat="43.38235648075475" lon="-4.390212032867723"><ele>0.0</ele><time>2026-05-01T14:08:53Z</time></trkpt><trkpt lat="43.38232243077341" lon="-4.390299617446319"><ele>0.0</ele><time>2026-05-01T14:08:54Z</time></trkpt><trkpt lat="43.382293868776195" lon="-4.390389167463481"><ele>0.0</ele><time>2026-05-01T14:08:55Z</time></trkpt><trkpt lat="43.382267516753664" lon="-4.390480208949177"><ele>0.0</ele><time>2026-05-01T14:08:56Z</time></trkpt><trkpt lat="43.382245526503674" lon="-4.390570892975531"><ele>0.0</ele><time>2026-05-01T14:08:57Z</time></trkpt><trkpt lat="43.382224016323505" lon="-4.390652697441244"><ele>0.0</ele><time>2026-05-01T14:08:58Z</time></trkpt><trkpt lat="43.38218783287416" lon="-4.390806118191711"><ele>0.0</ele><time>2026-05-01T14:09:00Z</time></trkpt><trkpt lat="43.382161208771855" lon="-4.390940589476906"><ele>0.0</ele><time>2026-05-01T14:09:02Z</time></trkpt><trkpt lat="43.38214618292772" lon="-4.391032179839912"><ele>0.0</ele><time>2026-05-01T14:09:04Z</time></trkpt><trkpt lat="43.38218784977963" lon="-4.391098554527512"><ele>0.0</ele><time>2026-05-01T14:12:39.001Z</time></trkpt><trkpt lat="43.38211924614809" lon="-4.391094275369603"><ele>0.0</ele><time>2026-05-01T14:17:00.001Z</time></trkpt><trkpt lat="43.382055394634186" lon="-4.391092429922462"><ele>0.0</ele><time>2026-05-01T14:17:06.001Z</time></trkpt><trkpt lat="43.38216503215648" lon="-4.391090409690971"><ele>0.0</ele><time>2026-05-01T14:22:28Z</time></trkpt><trkpt lat="43.38211396783501" lon="-4.391203442135206"><ele>0.0</ele><time>2026-05-01T14:24:41Z</time></trkpt><trkpt lat="43.38208612071617" lon="-4.391343078410864"><ele>0.0</ele><time>2026-05-01T14:24:43Z</time></trkpt><trkpt lat="43.38206278431911" lon="-4.391496390921122"><ele>0.0</ele><time>2026-05-01T14:24:45.001Z</time></trkpt><trkpt lat="43.38203987616931" lon="-4.391660208730867"><ele>0.0</ele><time>2026-05-01T14:24:47.001Z</time></trkpt><trkpt lat="43.38202441994104" lon="-4.391746226064152"><ele>0.0</ele><time>2026-05-01T14:24:48.001Z</time></trkpt><trkpt lat="43.381999934723375" lon="-4.3919202798921155"><ele>0.0</ele><time>2026-05-01T14:24:50.001Z</time></trkpt><trkpt lat="43.38198857987463" lon="-4.392013140220403"><ele>0.0</ele><time>2026-05-01T14:24:51.001Z</time></trkpt><trkpt lat="43.38197356464673" lon="-4.392109957989835"><ele>-0.14285714285714285</ele><time>2026-05-01T14:24:52.001Z</time></trkpt><trkpt lat="43.38195969383175" lon="-4.392208751629541"><ele>-0.2857142857142857</ele><time>2026-05-01T14:24:53.001Z</time></trkpt><trkpt lat="43.3819479408981" lon="-4.392304833189136"><ele>-0.42857142857142855</ele><time>2026-05-01T14:24:54.001Z</time></trkpt><trkpt lat="43.38193823903846" lon="-4.392402763688728"><ele>-0.5714285714285714</ele><time>2026-05-01T14:24:55.001Z</time></trkpt><trkpt lat="43.3819266845546" lon="-4.392501705997743"><ele>-0.7142857142857142</ele><time>2026-05-01T14:24:56.001Z</time></trkpt><trkpt lat="43.38191250669214" lon="-4.392602293956324"><ele>-0.8571428571428571</ele><time>2026-05-01T14:24:57.001Z</time></trkpt><trkpt lat="43.38189879790607" lon="-4.392703015620607"><ele>-1.0</ele><time>2026-05-01T14:24:58.001Z</time></trkpt><trkpt lat="43.38188360844588" lon="-4.3928041412259855"><ele>-1.0</ele><time>2026-05-01T14:24:59.001Z</time></trkpt><trkpt lat="43.381870352524324" lon="-4.392911127493585"><ele>-1.0</ele><time>2026-05-01T14:25:00.001Z</time></trkpt><trkpt lat="43.381841316266126" lon="-4.393120411355756"><ele>-1.0</ele><time>2026-05-01T14:25:02.001Z</time></trkpt><trkpt lat="43.381824313136825" lon="-4.393231257526725"><ele>-1.0</ele><time>2026-05-01T14:25:03.001Z</time></trkpt><trkpt lat="43.381809524068075" lon="-4.393340701527322"><ele>-1.0</ele><time>2026-05-01T14:25:04.001Z</time></trkpt><trkpt lat="43.3817949214761" lon="-4.393449263348975"><ele>-0.9999999999999999</ele><time>2026-05-01T14:25:05.001Z</time></trkpt><trkpt lat="43.38177959926904" lon="-4.39355725071423"><ele>-1.0</ele><time>2026-05-01T14:25:06.001Z</time></trkpt><trkpt lat="43.38176601730752" lon="-4.393666652208048"><ele>-1.0</ele><time>2026-05-01T14:25:07.001Z</time></trkpt><trkpt lat="43.38175071786735" lon="-4.393778993713788"><ele>-1.0</ele><time>2026-05-01T14:25:08.001Z</time></trkpt><trkpt lat="43.38173482534194" lon="-4.3938917525685435"><ele>-0.9999999999999999</ele><time>2026-05-01T14:25:09.001Z</time></trkpt><trkpt lat="43.38171868203258" lon="-4.394008485876202"><ele>-1.0</ele><time>2026-05-01T14:25:10.001Z</time></trkpt><trkpt lat="43.38170185261143" lon="-4.39412563319381"><ele>-1.0</ele><time>2026-05-01T14:25:11.001Z</time></trkpt><trkpt lat="43.38168532578934" lon="-4.394245137532616"><ele>-1.0</ele><time>2026-05-01T14:25:12.001Z</time></trkpt><trkpt lat="43.38166920384237" lon="-4.3943654726739485"><ele>-1.0</ele><time>2026-05-01T14:25:13.001Z</time></trkpt><trkpt lat="43.38165256636913" lon="-4.394488061967523"><ele>-1.0</ele><time>2026-05-01T14:25:14.001Z</time></trkpt><trkpt lat="43.38163583085028" lon="-4.394609834301524"><ele>-1.0</ele><time>2026-05-01T14:25:15.001Z</time></trkpt><trkpt lat="43.381618486998335" lon="-4.394733513885167"><ele>-1.2000000000000002</ele><time>2026-05-01T14:25:16.001Z</time></trkpt><trkpt lat="43.38160044159737" lon="-4.394858633761441"><ele>-1.4000000000000001</ele><time>2026-05-01T14:25:17.001Z</time></trkpt><trkpt lat="43.38158263628455" lon="-4.394980546119501"><ele>-1.6</ele><time>2026-05-01T14:25:18.001Z</time></trkpt><trkpt lat="43.38156801144908" lon="-4.395109692609254"><ele>-1.8</ele><time>2026-05-01T14:25:19.001Z</time></trkpt><trkpt lat="43.38155353140602" lon="-4.395238139168254"><ele>-2.0</ele><time>2026-05-01T14:25:20.001Z</time></trkpt><trkpt lat="43.381537830138186" lon="-4.395367004584459"><ele>-1.9999999999999998</ele><time>2026-05-01T14:25:21.001Z</time></trkpt><trkpt lat="43.381519901724666" lon="-4.3954935926731915"><ele>-2.0</ele><time>2026-05-01T14:25:22.001Z</time></trkpt><trkpt lat="43.38150221548595" lon="-4.3956188784230585"><ele>-2.0</ele><time>2026-05-01T14:25:23.001Z</time></trkpt><trkpt lat="43.381486841918424" lon="-4.395738566438208"><ele>-2.0</ele><time>2026-05-01T14:25:24.002Z</time></trkpt><trkpt lat="43.38147348642954" lon="-4.39585647566023"><ele>-1.9999999999999998</ele><time>2026-05-01T14:25:25.002Z</time></trkpt><trkpt lat="43.38145954186139" lon="-4.3959745640832635"><ele>-2.0</ele><time>2026-05-01T14:25:26.002Z</time></trkpt><trkpt lat="43.38144472298658" lon="-4.396087254044984"><ele>-1.9999999999999998</ele><time>2026-05-01T14:25:27.002Z</time></trkpt><trkpt lat="43.38143010541423" lon="-4.3961989261708965"><ele>-2.0</ele><time>2026-05-01T14:25:28.002Z</time></trkpt><trkpt lat="43.38141749695048" lon="-4.396310692238234"><ele>-2.0</ele><time>2026-05-01T14:25:29.002Z</time></trkpt><trkpt lat="43.38140298723421" lon="-4.396417350197198"><ele>-2.0</ele><time>2026-05-01T14:25:30.002Z</time></trkpt><trkpt lat="43.38138880716158" lon="-4.396521229012115"><ele>-1.9999999999999998</ele><time>2026-05-01T14:25:31.002Z</time></trkpt><trkpt lat="43.38137634869096" lon="-4.396620606134865"><ele>-2.0</ele><time>2026-05-01T14:25:32.002Z</time></trkpt><trkpt lat="43.38136664985012" lon="-4.396709920542565"><ele>-1.4000000000000001</ele><time>2026-05-01T14:25:33.002Z</time></trkpt><trkpt lat="43.38138023824669" lon="-4.396873697593679"><ele>-0.8000000000000002</ele><time>2026-05-01T14:25:35.002Z</time></trkpt><trkpt lat="43.38143020203698" lon="-4.396972652513244"><ele>-0.19999999999999996</ele><time>2026-05-01T14:25:37.002Z</time></trkpt><trkpt lat="43.38150772322768" lon="-4.397030707253821"><ele>0.4</ele><time>2026-05-01T14:25:38.002Z</time></trkpt><trkpt lat="43.38158608144708" lon="-4.397077303193505"><ele>1.0</ele><time>2026-05-01T14:25:39.002Z</time></trkpt><trkpt lat="43.38169928091817" lon="-4.397374903368116"><ele>1.8333333333333333</ele><time>2026-05-01T14:25:41Z</time></trkpt><trkpt lat="43.381763639380004" lon="-4.397443780855056"><ele>2.6666666666666665</ele><time>2026-05-01T14:25:42Z</time></trkpt><trkpt lat="43.381839886273845" lon="-4.397496879071698"><ele>3.5</ele><time>2026-05-01T14:25:43Z</time></trkpt><trkpt lat="43.381909354741744" lon="-4.397566020861645"><ele>4.333333333333333</ele><time>2026-05-01T14:25:44Z</time></trkpt><trkpt lat="43.38198308091439" lon="-4.397630669228518"><ele>5.166666666666667</ele><time>2026-05-01T14:25:45Z</time></trkpt><trkpt lat="43.38204490814387" lon="-4.397700520127495"><ele>6.0</ele><time>2026-05-01T14:25:46Z</time></trkpt><trkpt lat="43.38210804359656" lon="-4.397755646177505"><ele>5.999999999999999</ele><time>2026-05-01T14:25:47Z</time></trkpt><trkpt lat="43.38216844659458" lon="-4.397798749002067"><ele>6.0</ele><time>2026-05-01T14:25:48Z</time></trkpt><trkpt lat="43.38222859710081" lon="-4.397848238625874"><ele>6.0</ele><time>2026-05-01T14:25:49Z</time></trkpt><trkpt lat="43.38229014158081" lon="-4.397902356761665"><ele>6.0</ele><time>2026-05-01T14:25:50Z</time></trkpt><trkpt lat="43.3823499647838" lon="-4.39795443751026"><ele>6.0</ele><time>2026-05-01T14:25:51Z</time></trkpt><trkpt lat="43.38240618818678" lon="-4.398005778888638"><ele>5.999999999999999</ele><time>2026-05-01T14:25:52Z</time></trkpt><trkpt lat="43.38248544528411" lon="-4.398086769559768"><ele>6.0</ele><time>2026-05-01T14:25:54Z</time></trkpt><trkpt lat="43.38254994911432" lon="-4.39813163194379"><ele>6.0</ele><time>2026-05-01T14:25:56Z</time></trkpt><trkpt lat="43.38262257667667" lon="-4.398156766753522"><ele>6.0</ele><time>2026-05-01T14:26:22.001Z</time></trkpt><trkpt lat="43.38270138773525" lon="-4.398225740803668"><ele>6.0</ele><time>2026-05-01T14:26:24.001Z</time></trkpt><trkpt lat="43.38280190247539" lon="-4.39831438861578"><ele>6.0</ele><time>2026-05-01T14:26:26.001Z</time></trkpt><trkpt lat="43.382855122081594" lon="-4.398368004349537"><ele>6.0</ele><time>2026-05-01T14:26:27.001Z</time></trkpt><trkpt lat="43.382909116081926" lon="-4.398425074610242"><ele>6.0</ele><time>2026-05-01T14:26:28.001Z</time></trkpt><trkpt lat="43.382972558835235" lon="-4.398472265112328"><ele>5.857142857142857</ele><time>2026-05-01T14:26:29.001Z</time></trkpt><trkpt lat="43.3830296704835" lon="-4.39853181568512"><ele>5.714285714285714</ele><time>2026-05-01T14:26:30.001Z</time></trkpt><trkpt lat="43.383091717792546" lon="-4.398591220379256"><ele>5.571428571428571</ele><time>2026-05-01T14:26:31.001Z</time></trkpt><trkpt lat="43.383156310556096" lon="-4.398649566564758"><ele>5.428571428571429</ele><time>2026-05-01T14:26:32.001Z</time></trkpt><trkpt lat="43.383219849267135" lon="-4.398704963780143"><ele>5.285714285714286</ele><time>2026-05-01T14:26:33.001Z</time></trkpt><trkpt lat="43.38327312703589" lon="-4.398776033963972"><ele>5.142857142857142</ele><time>2026-05-01T14:26:34.001Z</time></trkpt><trkpt lat="43.38333553927407" lon="-4.398831007641431"><ele>5.0</ele><time>2026-05-01T14:26:35.001Z</time></trkpt><trkpt lat="43.38339741472655" lon="-4.398883345292657"><ele>5.0</ele><time>2026-05-01T14:26:36.001Z</time></trkpt><trkpt lat="43.383453073866825" lon="-4.398932294151466"><ele>5.0</ele><time>2026-05-01T14:26:37.001Z</time></trkpt><trkpt lat="43.38351770815974" lon="-4.398989495861889"><ele>5.0</ele><time>2026-05-01T14:26:39.001Z</time></trkpt><trkpt lat="43.38357333439365" lon="-4.399035972144421"><ele>5.0</ele><time>2026-05-01T14:26:42.001Z</time></trkpt><trkpt lat="43.3836545411912" lon="-4.399105308916483"><ele>5.0</ele><time>2026-05-01T14:26:45.001Z</time></trkpt><trkpt lat="43.383750275264426" lon="-4.399187513067626"><ele>5.0</ele><time>2026-05-01T14:26:47.001Z</time></trkpt><trkpt lat="43.38386079329234" lon="-4.399270791925588"><ele>4.714285714285714</ele><time>2026-05-01T14:26:49.001Z</time></trkpt><trkpt lat="43.38391657345923" lon="-4.3993209291253965"><ele>4.428571428571429</ele><time>2026-05-01T14:26:50.001Z</time></trkpt><trkpt lat="43.38397577692242" lon="-4.399362154920285"><ele>4.142857142857142</ele><time>2026-05-01T14:26:51.001Z</time></trkpt><trkpt lat="43.384036026398434" lon="-4.3994083488274045"><ele>3.8571428571428568</ele><time>2026-05-01T14:26:52.002Z</time></trkpt><trkpt lat="43.384098576297454" lon="-4.399459425948677"><ele>3.571428571428571</ele><time>2026-05-01T14:26:53.002Z</time></trkpt><trkpt lat="43.38416296667514" lon="-4.399509178686895"><ele>3.2857142857142856</ele><time>2026-05-01T14:26:54.002Z</time></trkpt><trkpt lat="43.38423207755788" lon="-4.3995536866874385"><ele>3.0</ele><time>2026-05-01T14:26:55.002Z</time></trkpt><trkpt lat="43.38429472928354" lon="-4.399603157176989"><ele>2.9999999999999996</ele><time>2026-05-01T14:26:56.002Z</time></trkpt><trkpt lat="43.38436361526124" lon="-4.399630639930251"><ele>3.0</ele><time>2026-05-01T14:26:57.002Z</time></trkpt><trkpt lat="43.3844361525775" lon="-4.399631932040789"><ele>3.0</ele><time>2026-05-01T14:26:58.002Z</time></trkpt><trkpt lat="43.38450344900318" lon="-4.399604928080111"><ele>3.0</ele><time>2026-05-01T14:26:59.002Z</time></trkpt><trkpt lat="43.384569660870085" lon="-4.399547568125548"><ele>3.0</ele><time>2026-05-01T14:27:00.002Z</time></trkpt><trkpt lat="43.384616818658394" lon="-4.399460376943539"><ele>2.9999999999999996</ele><time>2026-05-01T14:27:01.002Z</time></trkpt><trkpt lat="43.384670692327674" lon="-4.399390994875796"><ele>3.0</ele><time>2026-05-01T14:27:02.002Z</time></trkpt><trkpt lat="43.38473167371406" lon="-4.399313598861821"><ele>3.3333333333333335</ele><time>2026-05-01T14:27:03.002Z</time></trkpt><trkpt lat="43.38477970367312" lon="-4.399232623008678"><ele>3.666666666666667</ele><time>2026-05-01T14:27:04.002Z</time></trkpt><trkpt lat="43.38483453674055" lon="-4.399149039162657"><ele>4.0</ele><time>2026-05-01T14:27:05.002Z</time></trkpt><trkpt lat="43.384890160061204" lon="-4.399063135731445"><ele>4.333333333333334</ele><time>2026-05-01T14:27:06.002Z</time></trkpt><trkpt lat="43.384945638350196" lon="-4.398978125676861"><ele>4.666666666666667</ele><time>2026-05-01T14:27:07.002Z</time></trkpt><trkpt lat="43.38500082988162" lon="-4.398891858867179"><ele>5.0</ele><time>2026-05-01T14:27:08.002Z</time></trkpt><trkpt lat="43.38505984797826" lon="-4.39881202071939"><ele>5.0</ele><time>2026-05-01T14:27:09.002Z</time></trkpt><trkpt lat="43.385101402953005" lon="-4.39871480311373"><ele>5.0</ele><time>2026-05-01T14:27:10.002Z</time></trkpt><trkpt lat="43.38515880409096" lon="-4.3986261743640025"><ele>5.0</ele><time>2026-05-01T14:27:11.002Z</time></trkpt><trkpt lat="43.38521714451816" lon="-4.398544451867793"><ele>5.0</ele><time>2026-05-01T14:27:12.002Z</time></trkpt><trkpt lat="43.385276841911605" lon="-4.398458823472143"><ele>5.0</ele><time>2026-05-01T14:27:13.002Z</time></trkpt><trkpt lat="43.38532879440365" lon="-4.39836994386226"><ele>5.0</ele><time>2026-05-01T14:27:14.002Z</time></trkpt><trkpt lat="43.38539836801698" lon="-4.398294451538657"><ele>5.0</ele><time>2026-05-01T14:27:15.002Z</time></trkpt><trkpt lat="43.38545779378634" lon="-4.398213117329623"><ele>5.0</ele><time>2026-05-01T14:27:16.002Z</time></trkpt><trkpt lat="43.38551058725851" lon="-4.39812673995738"><ele>5.0</ele><time>2026-05-01T14:27:17.002Z</time></trkpt><trkpt lat="43.385579925508225" lon="-4.398063381892557"><ele>5.0</ele><time>2026-05-01T14:27:18.002Z</time></trkpt><trkpt lat="43.38565535357704" lon="-4.398034177060302"><ele>5.0</ele><time>2026-05-01T14:27:19.002Z</time></trkpt><trkpt lat="43.38572993144854" lon="-4.39800930763809"><ele>5.0</ele><time>2026-05-01T14:27:20.002Z</time></trkpt><trkpt lat="43.38580620193168" lon="-4.398034184298474"><ele>5.0</ele><time>2026-05-01T14:27:21.002Z</time></trkpt><trkpt lat="43.38588108094221" lon="-4.3980549180436395"><ele>5.0</ele><time>2026-05-01T14:27:22.002Z</time></trkpt><trkpt lat="43.38594236490215" lon="-4.398083123914786"><ele>5.0</ele><time>2026-05-01T14:27:23.002Z</time></trkpt><trkpt lat="43.38599950887366" lon="-4.398120602467626"><ele>5.0</ele><time>2026-05-01T14:27:24.002Z</time></trkpt><trkpt lat="43.38611368657751" lon="-4.398192779325623"><ele>5.0</ele><time>2026-05-01T14:27:26.002Z</time></trkpt><trkpt lat="43.38617256191585" lon="-4.3982306881822035"><ele>5.0</ele><time>2026-05-01T14:27:27.002Z</time></trkpt><trkpt lat="43.38623228253271" lon="-4.398265085181443"><ele>5.0</ele><time>2026-05-01T14:27:28.002Z</time></trkpt><trkpt lat="43.386294077305145" lon="-4.398292490119315"><ele>5.0</ele><time>2026-05-01T14:27:29.002Z</time></trkpt><trkpt lat="43.38635227204639" lon="-4.398326471307757"><ele>5.0</ele><time>2026-05-01T14:27:30.002Z</time></trkpt><trkpt lat="43.38641188174992" lon="-4.398363188220731"><ele>5.0</ele><time>2026-05-01T14:27:31.002Z</time></trkpt><trkpt lat="43.38647102381542" lon="-4.398400354145446"><ele>5.0</ele><time>2026-05-01T14:27:32.003Z</time></trkpt><trkpt lat="43.386533180947026" lon="-4.398435323802192"><ele>5.0</ele><time>2026-05-01T14:27:33.003Z</time></trkpt><trkpt lat="43.38659977199998" lon="-4.39846761631413"><ele>5.0</ele><time>2026-05-01T14:27:34.003Z</time></trkpt><trkpt lat="43.386666155518505" lon="-4.398508458750772"><ele>4.0</ele><time>2026-05-01T14:27:35.003Z</time></trkpt><trkpt lat="43.386732851578934" lon="-4.398543305307447"><ele>3.0</ele><time>2026-05-01T14:27:36.003Z</time></trkpt><trkpt lat="43.386801581783374" lon="-4.398582979854103"><ele>2.0</ele><time>2026-05-01T14:27:37.003Z</time></trkpt><trkpt lat="43.38686740909949" lon="-4.398620142231259"><ele>1.0</ele><time>2026-05-01T14:27:38.003Z</time></trkpt><trkpt lat="43.38692831562537" lon="-4.398657124821329"><ele>1.1102230246251565E-16</ele><time>2026-05-01T14:27:39.003Z</time></trkpt><trkpt lat="43.38703532073469" lon="-4.398731605878926"><ele>-1.0</ele><time>2026-05-01T14:27:41.003Z</time></trkpt><trkpt lat="43.387139439907095" lon="-4.398830653517736"><ele>1.75</ele><time>2026-05-01T14:27:43.003Z</time></trkpt><trkpt lat="43.38723615370414" lon="-4.398939169991915"><ele>4.5</ele><time>2026-05-01T14:27:45.003Z</time></trkpt><trkpt lat="43.387325937925674" lon="-4.39903957741237"><ele>7.25</ele><time>2026-05-01T14:27:47.002Z</time></trkpt><trkpt lat="43.38741322819741" lon="-4.399141710646868"><ele>10.0</ele><time>2026-05-01T14:27:49.002Z</time></trkpt><trkpt lat="43.38742345418143" lon="-4.399290000369628"><ele>10.0</ele><time>2026-05-01T14:27:51.002Z</time></trkpt><trkpt lat="43.38739633185068" lon="-4.399371902545338"><ele>10.0</ele><time>2026-05-01T14:27:52.002Z</time></trkpt><trkpt lat="43.387379809115096" lon="-4.39945821771157"><ele>10.0</ele><time>2026-05-01T14:27:53.002Z</time></trkpt><trkpt lat="43.387376506587984" lon="-4.399554589487095"><ele>10.0</ele><time>2026-05-01T14:27:54.001Z</time></trkpt><trkpt lat="43.38738289972882" lon="-4.399651009163115"><ele>10.0</ele><time>2026-05-01T14:27:55.001Z</time></trkpt><trkpt lat="43.38738165784947" lon="-4.3997561134905885"><ele>10.0</ele><time>2026-05-01T14:27:56.001Z</time></trkpt><trkpt lat="43.38737834516242" lon="-4.399860422664249"><ele>10.0</ele><time>2026-05-01T14:27:57.001Z</time></trkpt><trkpt lat="43.38737030339722" lon="-4.399963735634347"><ele>10.333333333333334</ele><time>2026-05-01T14:27:58.001Z</time></trkpt><trkpt lat="43.3873659220278" lon="-4.40007614111085"><ele>10.666666666666668</ele><time>2026-05-01T14:27:59.001Z</time></trkpt><trkpt lat="43.387360927956536" lon="-4.400183147529587"><ele>11.0</ele><time>2026-05-01T14:28:00.001Z</time></trkpt><trkpt lat="43.38735585455005" lon="-4.400294387227631"><ele>11.333333333333334</ele><time>2026-05-01T14:28:01.001Z</time></trkpt><trkpt lat="43.38735167223634" lon="-4.400407768184847"><ele>11.666666666666666</ele><time>2026-05-01T14:28:02.001Z</time></trkpt><trkpt lat="43.38735254678276" lon="-4.400518802849459"><ele>12.0</ele><time>2026-05-01T14:28:03.001Z</time></trkpt><trkpt lat="43.38735814736086" lon="-4.400631215998667"><ele>12.0</ele><time>2026-05-01T14:28:04.001Z</time></trkpt><trkpt lat="43.387370320707866" lon="-4.40074541884062"><ele>12.0</ele><time>2026-05-01T14:28:05.001Z</time></trkpt><trkpt lat="43.38738590548621" lon="-4.4008582659503634"><ele>12.0</ele><time>2026-05-01T14:28:06.001Z</time></trkpt><trkpt lat="43.38740522894917" lon="-4.400976850762629"><ele>12.0</ele><time>2026-05-01T14:28:07.001Z</time></trkpt><trkpt lat="43.38743069464231" lon="-4.401095673244831"><ele>12.0</ele><time>2026-05-01T14:28:08.001Z</time></trkpt><trkpt lat="43.38745562976344" lon="-4.401207540804495"><ele>12.0</ele><time>2026-05-01T14:28:09.001Z</time></trkpt><trkpt lat="43.38748876862211" lon="-4.401324440094039"><ele>12.0</ele><time>2026-05-01T14:28:10.001Z</time></trkpt><trkpt lat="43.38752828032999" lon="-4.401436234745781"><ele>12.0</ele><time>2026-05-01T14:28:11.001Z</time></trkpt><trkpt lat="43.38757278462668" lon="-4.4015460024967785"><ele>12.0</ele><time>2026-05-01T14:28:12.001Z</time></trkpt><trkpt lat="43.38761807497662" lon="-4.401647714704785"><ele>12.0</ele><time>2026-05-01T14:28:13.001Z</time></trkpt><trkpt lat="43.38767040951814" lon="-4.4017483072201085"><ele>12.0</ele><time>2026-05-01T14:28:14.001Z</time></trkpt><trkpt lat="43.38772281340846" lon="-4.4018523972169925"><ele>12.0</ele><time>2026-05-01T14:28:15.001Z</time></trkpt><trkpt lat="43.38777503681238" lon="-4.401956686284102"><ele>12.0</ele><time>2026-05-01T14:28:16.001Z</time></trkpt><trkpt lat="43.38782860453053" lon="-4.402059053976399"><ele>12.0</ele><time>2026-05-01T14:28:17.001Z</time></trkpt><trkpt lat="43.38788131384236" lon="-4.402158841384631"><ele>12.0</ele><time>2026-05-01T14:28:18.001Z</time></trkpt><trkpt lat="43.38793389040925" lon="-4.402259247983655"><ele>12.0</ele><time>2026-05-01T14:28:19.001Z</time></trkpt><trkpt lat="43.38798604856999" lon="-4.402363870557236"><ele>14.166666666666668</ele><time>2026-05-01T14:28:20.001Z</time></trkpt><trkpt lat="43.38804384024928" lon="-4.402463563827945"><ele>16.333333333333336</ele><time>2026-05-01T14:28:21.001Z</time></trkpt><trkpt lat="43.38809443151731" lon="-4.402563970621914"><ele>18.5</ele><time>2026-05-01T14:28:22.001Z</time></trkpt><trkpt lat="43.38814754039186" lon="-4.4026642198217"><ele>20.666666666666668</ele><time>2026-05-01T14:28:23.001Z</time></trkpt><trkpt lat="43.38819971033103" lon="-4.402764019100244"><ele>22.833333333333336</ele><time>2026-05-01T14:28:24.001Z</time></trkpt><trkpt lat="43.38824687738651" lon="-4.402866262756209"><ele>25.0</ele><time>2026-05-01T14:28:25.001Z</time></trkpt><trkpt lat="43.38828828937506" lon="-4.4029682264496595"><ele>24.666666666666668</ele><time>2026-05-01T14:28:26.001Z</time></trkpt><trkpt lat="43.38832521920733" lon="-4.403071087031192"><ele>24.333333333333336</ele><time>2026-05-01T14:28:27.001Z</time></trkpt><trkpt lat="43.388361407802066" lon="-4.403176605322773"><ele>24.0</ele><time>2026-05-01T14:28:28.001Z</time></trkpt><trkpt lat="43.38839342782452" lon="-4.403288751919099"><ele>23.666666666666668</ele><time>2026-05-01T14:28:29.001Z</time></trkpt><trkpt lat="43.38841479481963" lon="-4.403402854748589"><ele>23.333333333333336</ele><time>2026-05-01T14:28:30.001Z</time></trkpt><trkpt lat="43.38843265329602" lon="-4.403514275694223"><ele>23.0</ele><time>2026-05-01T14:28:31.001Z</time></trkpt><trkpt lat="43.38844895602517" lon="-4.403630192671229"><ele>23.0</ele><time>2026-05-01T14:28:32.001Z</time></trkpt><trkpt lat="43.388460007779706" lon="-4.4037487642963695"><ele>23.0</ele><time>2026-05-01T14:28:33.001Z</time></trkpt><trkpt lat="43.38846313146379" lon="-4.40387142060275"><ele>23.0</ele><time>2026-05-01T14:28:34.001Z</time></trkpt><trkpt lat="43.388463612618146" lon="-4.403991143259252"><ele>23.0</ele><time>2026-05-01T14:28:35.001Z</time></trkpt><trkpt lat="43.38845838311581" lon="-4.404111046142341"><ele>23.0</ele><time>2026-05-01T14:28:36.001Z</time></trkpt><trkpt lat="43.388449646739595" lon="-4.40422892083648"><ele>23.0</ele><time>2026-05-01T14:28:37.001Z</time></trkpt><trkpt lat="43.388435936207074" lon="-4.404344466650938"><ele>23.0</ele><time>2026-05-01T14:28:38.002Z</time></trkpt><trkpt lat="43.388419278443614" lon="-4.40445829549408"><ele>23.0</ele><time>2026-05-01T14:28:39.002Z</time></trkpt><trkpt lat="43.38840035361823" lon="-4.404570261114707"><ele>23.0</ele><time>2026-05-01T14:28:40.002Z</time></trkpt><trkpt lat="43.388378085325876" lon="-4.4046832351653595"><ele>23.0</ele><time>2026-05-01T14:28:41.002Z</time></trkpt><trkpt lat="43.388351942753545" lon="-4.4047977987477545"><ele>23.0</ele><time>2026-05-01T14:28:42.002Z</time></trkpt><trkpt lat="43.388325501983324" lon="-4.404910156294272"><ele>23.0</ele><time>2026-05-01T14:28:43.002Z</time></trkpt><trkpt lat="43.38829946397155" lon="-4.405025005968751"><ele>24.0</ele><time>2026-05-01T14:28:44.002Z</time></trkpt><trkpt lat="43.388273508030494" lon="-4.405141528258896"><ele>25.0</ele><time>2026-05-01T14:28:45.002Z</time></trkpt><trkpt lat="43.38824726981342" lon="-4.4052598335077295"><ele>26.0</ele><time>2026-05-01T14:28:46.002Z</time></trkpt><trkpt lat="43.3882234266069" lon="-4.405375116763492"><ele>27.0</ele><time>2026-05-01T14:28:47.002Z</time></trkpt><trkpt lat="43.388209008354885" lon="-4.405480148760352"><ele>27.999999999999996</ele><time>2026-05-01T14:28:48.002Z</time></trkpt><trkpt lat="43.38821620069011" lon="-4.405576014694949"><ele>29.0</ele><time>2026-05-01T14:28:49.002Z</time></trkpt><trkpt lat="43.38824163386833" lon="-4.405715099339311"><ele>29.0</ele><time>2026-05-01T14:28:51.002Z</time></trkpt><trkpt lat="43.38819273488874" lon="-4.405638847048015"><ele>29.0</ele><time>2026-05-01T14:32:50.001Z</time></trkpt><trkpt lat="43.38817793534007" lon="-4.405510944596755"><ele>29.0</ele><time>2026-05-01T14:32:54.001Z</time></trkpt><trkpt lat="43.38818109006943" lon="-4.4053948531068805"><ele>29.0</ele><time>2026-05-01T14:32:56.001Z</time></trkpt><trkpt lat="43.38820012029908" lon="-4.405262613715108"><ele>29.0</ele><time>2026-05-01T14:32:58.001Z</time></trkpt><trkpt lat="43.38823804284883" lon="-4.405108670495185"><ele>29.000000000000004</ele><time>2026-05-01T14:33:00.001Z</time></trkpt><trkpt lat="43.38825836695862" lon="-4.405021705635391"><ele>29.0</ele><time>2026-05-01T14:33:01.001Z</time></trkpt><trkpt lat="43.388279582011776" lon="-4.404930018309522"><ele>29.000000000000004</ele><time>2026-05-01T14:33:02.001Z</time></trkpt><trkpt lat="43.388305394607855" lon="-4.404824745219838"><ele>29.000000000000004</ele><time>2026-05-01T14:33:03.001Z</time></trkpt><trkpt lat="43.388323365273266" lon="-4.404738119669204"><ele>29.0</ele><time>2026-05-01T14:33:04.001Z</time></trkpt><trkpt lat="43.388345814714434" lon="-4.404637891699488"><ele>29.000000000000004</ele><time>2026-05-01T14:33:05.001Z</time></trkpt><trkpt lat="43.38836759728208" lon="-4.404536573335356"><ele>29.000000000000004</ele><time>2026-05-01T14:33:06.001Z</time></trkpt><trkpt lat="43.3883883032397" lon="-4.404427329495743"><ele>27.799999999999997</ele><time>2026-05-01T14:33:07.001Z</time></trkpt><trkpt lat="43.38840585207126" lon="-4.404313905933356"><ele>26.599999999999998</ele><time>2026-05-01T14:33:08.001Z</time></trkpt><trkpt lat="43.38841958194028" lon="-4.404195761070572"><ele>25.4</ele><time>2026-05-01T14:33:09.001Z</time></trkpt><trkpt lat="43.38843321543597" lon="-4.404003489087245"><ele>24.2</ele><time>2026-05-01T14:33:10.001Z</time></trkpt><trkpt lat="43.38842739197598" lon="-4.403843539881707"><ele>23.0</ele><time>2026-05-01T14:33:11.001Z</time></trkpt><trkpt lat="43.38841902444928" lon="-4.403715808227883"><ele>23.0</ele><time>2026-05-01T14:33:12.001Z</time></trkpt><trkpt lat="43.388405266047194" lon="-4.403584834792932"><ele>23.0</ele><time>2026-05-01T14:33:13.001Z</time></trkpt><trkpt lat="43.388385385950656" lon="-4.4034551709936585"><ele>23.0</ele><time>2026-05-01T14:33:14.001Z</time></trkpt><trkpt lat="43.38836041967315" lon="-4.403329336496523"><ele>23.0</ele><time>2026-05-01T14:33:15.001Z</time></trkpt><trkpt lat="43.388315351191466" lon="-4.403213949399193"><ele>23.0</ele><time>2026-05-01T14:33:16.001Z</time></trkpt><trkpt lat="43.38827990456748" lon="-4.403091476355994"><ele>23.4</ele><time>2026-05-01T14:33:17.001Z</time></trkpt><trkpt lat="43.388238499856726" lon="-4.402973242457088"><ele>23.799999999999997</ele><time>2026-05-01T14:33:18.001Z</time></trkpt><trkpt lat="43.388192114986396" lon="-4.402854579765161"><ele>24.2</ele><time>2026-05-01T14:33:19.001Z</time></trkpt><trkpt lat="43.388154415962866" lon="-4.402730089636322"><ele>24.6</ele><time>2026-05-01T14:33:20.001Z</time></trkpt><trkpt lat="43.38809818236366" lon="-4.402624982894904"><ele>25.0</ele><time>2026-05-01T14:33:21.002Z</time></trkpt><trkpt lat="43.38804440152646" lon="-4.402517215411314"><ele>22.4</ele><time>2026-05-01T14:33:22.002Z</time></trkpt><trkpt lat="43.38798619109509" lon="-4.402412637990585"><ele>19.8</ele><time>2026-05-01T14:33:23.002Z</time></trkpt><trkpt lat="43.38793148118296" lon="-4.402308773078689"><ele>17.2</ele><time>2026-05-01T14:33:24.002Z</time></trkpt><trkpt lat="43.38787596204972" lon="-4.402208674144096"><ele>14.6</ele><time>2026-05-01T14:33:25.002Z</time></trkpt><trkpt lat="43.387823431914455" lon="-4.4021136514303665"><ele>12.0</ele><time>2026-05-01T14:33:26.002Z</time></trkpt><trkpt lat="43.38777406194886" lon="-4.402022817791831"><ele>12.0</ele><time>2026-05-01T14:33:27.002Z</time></trkpt><trkpt lat="43.387727212791376" lon="-4.4019346089877525"><ele>12.0</ele><time>2026-05-01T14:33:28.002Z</time></trkpt><trkpt lat="43.38768307195659" lon="-4.401843411386742"><ele>12.0</ele><time>2026-05-01T14:33:29.002Z</time></trkpt><trkpt lat="43.38763409580576" lon="-4.40175251794879"><ele>12.0</ele><time>2026-05-01T14:33:30.002Z</time></trkpt><trkpt lat="43.38758611131281" lon="-4.401660780877245"><ele>12.0</ele><time>2026-05-01T14:33:31.002Z</time></trkpt><trkpt lat="43.387541787047" lon="-4.401560628211643"><ele>12.0</ele><time>2026-05-01T14:33:32.002Z</time></trkpt><trkpt lat="43.38749795973667" lon="-4.401463044395488"><ele>12.0</ele><time>2026-05-01T14:33:33.002Z</time></trkpt><trkpt lat="43.38746115838294" lon="-4.401364959022947"><ele>12.0</ele><time>2026-05-01T14:33:34.002Z</time></trkpt><trkpt lat="43.387429070231434" lon="-4.401266560209602"><ele>12.0</ele><time>2026-05-01T14:33:35.002Z</time></trkpt><trkpt lat="43.387401486570276" lon="-4.401167945348259"><ele>12.0</ele><time>2026-05-01T14:33:36.002Z</time></trkpt><trkpt lat="43.387377668828734" lon="-4.401068222817757"><ele>12.0</ele><time>2026-05-01T14:33:37.002Z</time></trkpt><trkpt lat="43.3873588271954" lon="-4.400968171373061"><ele>12.0</ele><time>2026-05-01T14:33:38.002Z</time></trkpt><trkpt lat="43.38734449380099" lon="-4.400868402728715"><ele>11.999999999999998</ele><time>2026-05-01T14:33:39.002Z</time></trkpt><trkpt lat="43.387328694657285" lon="-4.400764728643109"><ele>12.0</ele><time>2026-05-01T14:33:40.002Z</time></trkpt><trkpt lat="43.38731581748179" lon="-4.400655406725665"><ele>12.0</ele><time>2026-05-01T14:33:41.002Z</time></trkpt><trkpt lat="43.38731384309629" lon="-4.4005465835704705"><ele>12.0</ele><time>2026-05-01T14:33:42.002Z</time></trkpt><trkpt lat="43.38732037081064" lon="-4.400443142626544"><ele>12.0</ele><time>2026-05-01T14:33:43.002Z</time></trkpt><trkpt lat="43.38732533715177" lon="-4.400344586012233"><ele>11.999999999999998</ele><time>2026-05-01T14:33:44.002Z</time></trkpt><trkpt lat="43.38732211314594" lon="-4.400255315349111"><ele>12.0</ele><time>2026-05-01T14:33:45.002Z</time></trkpt><trkpt lat="43.38732020348116" lon="-4.400103109522028"><ele>12.166666666666666</ele><time>2026-05-01T14:33:47.002Z</time></trkpt><trkpt lat="43.38731287366826" lon="-4.399991700049288"><ele>12.333333333333332</ele><time>2026-05-01T14:33:49.002Z</time></trkpt><trkpt lat="43.38731280433427" lon="-4.399896152484889"><ele>12.5</ele><time>2026-05-01T14:33:52.002Z</time></trkpt><trkpt lat="43.387323479956514" lon="-4.399789885806064"><ele>12.666666666666666</ele><time>2026-05-01T14:33:55.002Z</time></trkpt><trkpt lat="43.38733549611792" lon="-4.399703881689551"><ele>12.833333333333332</ele><time>2026-05-01T14:33:57.002Z</time></trkpt><trkpt lat="43.38733775548209" lon="-4.39959344930935"><ele>13.0</ele><time>2026-05-01T14:33:59.002Z</time></trkpt><trkpt lat="43.38732853323081" lon="-4.399460530431757"><ele>12.4</ele><time>2026-05-01T14:34:01.002Z</time></trkpt><trkpt lat="43.38732014919905" lon="-4.399313202484947"><ele>11.8</ele><time>2026-05-01T14:34:03.002Z</time></trkpt><trkpt lat="43.387278223960536" lon="-4.399156195780457"><ele>11.2</ele><time>2026-05-01T14:34:05.001Z</time></trkpt><trkpt lat="43.38722280139897" lon="-4.399009798992561"><ele>10.6</ele><time>2026-05-01T14:34:07.001Z</time></trkpt><trkpt lat="43.38718592800765" lon="-4.398938921601056"><ele>10.0</ele><time>2026-05-01T14:34:08.001Z</time></trkpt><trkpt lat="43.3871043613487" lon="-4.398817452229194"><ele>8.428571428571429</ele><time>2026-05-01T14:34:10.001Z</time></trkpt><trkpt lat="43.387050969238885" lon="-4.398770930986201"><ele>6.857142857142858</ele><time>2026-05-01T14:34:11.001Z</time></trkpt><trkpt lat="43.38699360638593" lon="-4.398725673568212"><ele>5.285714285714286</ele><time>2026-05-01T14:34:12.001Z</time></trkpt><trkpt lat="43.38692986212869" lon="-4.398686222021898"><ele>3.7142857142857144</ele><time>2026-05-01T14:34:13.001Z</time></trkpt><trkpt lat="43.386864890102366" lon="-4.398649079816532"><ele>2.1428571428571432</ele><time>2026-05-01T14:34:14Z</time></trkpt><trkpt lat="43.3867964175386" lon="-4.3986115959909196"><ele>0.5714285714285715</ele><time>2026-05-01T14:34:15Z</time></trkpt><trkpt lat="43.38672835288898" lon="-4.39856980998458"><ele>-1.0</ele><time>2026-05-01T14:34:16Z</time></trkpt><trkpt lat="43.38665908854054" lon="-4.398527330723434"><ele>-0.9999999999999999</ele><time>2026-05-01T14:34:17Z</time></trkpt><trkpt lat="43.38658639413034" lon="-4.398485817293579"><ele>-1.0</ele><time>2026-05-01T14:34:18Z</time></trkpt><trkpt lat="43.38651413142211" lon="-4.398443393370407"><ele>-1.0</ele><time>2026-05-01T14:34:19Z</time></trkpt><trkpt lat="43.38644132054282" lon="-4.398400304203054"><ele>-1.0</ele><time>2026-05-01T14:34:20Z</time></trkpt><trkpt lat="43.38636441024388" lon="-4.3983564444116965"><ele>-0.9999999999999999</ele><time>2026-05-01T14:34:21Z</time></trkpt><trkpt lat="43.38628878422351" lon="-4.398314231581477"><ele>-1.0</ele><time>2026-05-01T14:34:22Z</time></trkpt><trkpt lat="43.38621416415724" lon="-4.398271233361592"><ele>1.1102230246251565E-16</ele><time>2026-05-01T14:34:23Z</time></trkpt><trkpt lat="43.38614100867832" lon="-4.398227571579922"><ele>1.0</ele><time>2026-05-01T14:34:24Z</time></trkpt><trkpt lat="43.38606693639776" lon="-4.398184803722546"><ele>2.0</ele><time>2026-05-01T14:34:25Z</time></trkpt><trkpt lat="43.38599545627589" lon="-4.3981420297244425"><ele>3.0</ele><time>2026-05-01T14:34:26Z</time></trkpt><trkpt lat="43.3859244811964" lon="-4.398101813249781"><ele>4.0</ele><time>2026-05-01T14:34:27Z</time></trkpt><trkpt lat="43.385852776180876" lon="-4.398064114721612"><ele>5.0</ele><time>2026-05-01T14:34:28Z</time></trkpt><trkpt lat="43.38577492284422" lon="-4.398041352658967"><ele>5.0</ele><time>2026-05-01T14:34:29Z</time></trkpt><trkpt lat="43.38569654117183" lon="-4.3980487558621295"><ele>5.0</ele><time>2026-05-01T14:34:30Z</time></trkpt><trkpt lat="43.385618294143036" lon="-4.398083217640981"><ele>5.0</ele><time>2026-05-01T14:34:31Z</time></trkpt><trkpt lat="43.38554435840115" lon="-4.398144579598362"><ele>5.0</ele><time>2026-05-01T14:34:32Z</time></trkpt><trkpt lat="43.38548410069233" lon="-4.398222393809198"><ele>5.0</ele><time>2026-05-01T14:34:33Z</time></trkpt><trkpt lat="43.38542705926416" lon="-4.398304401563234"><ele>5.0</ele><time>2026-05-01T14:34:34Z</time></trkpt><trkpt lat="43.385371181333326" lon="-4.398391925070789"><ele>5.0</ele><time>2026-05-01T14:34:35Z</time></trkpt><trkpt lat="43.3853167285265" lon="-4.3984767372148506"><ele>5.0</ele><time>2026-05-01T14:34:36Z</time></trkpt><trkpt lat="43.38526256639672" lon="-4.398558294521611"><ele>5.0</ele><time>2026-05-01T14:34:37Z</time></trkpt><trkpt lat="43.385205630095214" lon="-4.398634238216412"><ele>5.0</ele><time>2026-05-01T14:34:38Z</time></trkpt><trkpt lat="43.38514899260752" lon="-4.398708561582943"><ele>5.0</ele><time>2026-05-01T14:34:39Z</time></trkpt><trkpt lat="43.38509227716725" lon="-4.3987830782164"><ele>5.0</ele><time>2026-05-01T14:34:40Z</time></trkpt><trkpt lat="43.38504027637933" lon="-4.398867259326832"><ele>5.833333333333334</ele><time>2026-05-01T14:34:41Z</time></trkpt><trkpt lat="43.38498698237871" lon="-4.398953494353629"><ele>6.666666666666667</ele><time>2026-05-01T14:34:42Z</time></trkpt><trkpt lat="43.384933231352775" lon="-4.399035953843408"><ele>7.5</ele><time>2026-05-01T14:34:43Z</time></trkpt><trkpt lat="43.38487863390771" lon="-4.399117633098688"><ele>8.333333333333334</ele><time>2026-05-01T14:34:44.001Z</time></trkpt><trkpt lat="43.38482196037589" lon="-4.399190833332898"><ele>9.166666666666668</ele><time>2026-05-01T14:34:45.001Z</time></trkpt><trkpt lat="43.38477419098724" lon="-4.399275710944381"><ele>10.0</ele><time>2026-05-01T14:34:46.001Z</time></trkpt><trkpt lat="43.38472046940716" lon="-4.399351377139133"><ele>8.833333333333334</ele><time>2026-05-01T14:34:47.001Z</time></trkpt><trkpt lat="43.384666460690525" lon="-4.3994231982151195"><ele>7.666666666666667</ele><time>2026-05-01T14:34:48.001Z</time></trkpt><trkpt lat="43.38460706866452" lon="-4.399490410552607"><ele>6.5</ele><time>2026-05-01T14:34:49.001Z</time></trkpt><trkpt lat="43.38455287410958" lon="-4.399567264594169"><ele>5.333333333333334</ele><time>2026-05-01T14:34:50.001Z</time></trkpt><trkpt lat="43.384484024412224" lon="-4.399616825264592"><ele>4.166666666666667</ele><time>2026-05-01T14:34:51.001Z</time></trkpt><trkpt lat="43.38439626268252" lon="-4.399593073429042"><ele>3.0</ele><time>2026-05-01T14:34:52.001Z</time></trkpt><trkpt lat="43.3843233889266" lon="-4.399568550442345"><ele>3.0</ele><time>2026-05-01T14:34:53.001Z</time></trkpt><trkpt lat="43.38425434469537" lon="-4.399520817284982"><ele>3.0</ele><time>2026-05-01T14:34:54.001Z</time></trkpt><trkpt lat="43.38419131750443" lon="-4.399462359818573"><ele>3.0</ele><time>2026-05-01T14:34:55.001Z</time></trkpt><trkpt lat="43.38413223250209" lon="-4.399396071931013"><ele>3.0</ele><time>2026-05-01T14:34:56.001Z</time></trkpt><trkpt lat="43.38407293681312" lon="-4.39933812990403"><ele>3.0</ele><time>2026-05-01T14:34:57.001Z</time></trkpt><trkpt lat="43.38400351672496" lon="-4.3993049646642355"><ele>3.0</ele><time>2026-05-01T14:34:58.001Z</time></trkpt><trkpt lat="43.38395029615379" lon="-4.399224443637583"><ele>3.0</ele><time>2026-05-01T14:34:59.001Z</time></trkpt><trkpt lat="43.383884826671405" lon="-4.399167337745871"><ele>3.0</ele><time>2026-05-01T14:35:00.001Z</time></trkpt><trkpt lat="43.383818597635816" lon="-4.399108970518597"><ele>3.0</ele><time>2026-05-01T14:35:01.001Z</time></trkpt><trkpt lat="43.38375444750923" lon="-4.399055052069175"><ele>3.0</ele><time>2026-05-01T14:35:02.001Z</time></trkpt><trkpt lat="43.383691447119055" lon="-4.399000843356479"><ele>3.0</ele><time>2026-05-01T14:35:03.001Z</time></trkpt><trkpt lat="43.383634289555935" lon="-4.398943880619416"><ele>3.0</ele><time>2026-05-01T14:35:04.001Z</time></trkpt><trkpt lat="43.383535637628505" lon="-4.398845747260796"><ele>3.4</ele><time>2026-05-01T14:35:06.001Z</time></trkpt><trkpt lat="43.38343793344968" lon="-4.398759810132649"><ele>3.8</ele><time>2026-05-01T14:35:08.001Z</time></trkpt><trkpt lat="43.38334199672655" lon="-4.3986783125422635"><ele>4.2</ele><time>2026-05-01T14:35:10.001Z</time></trkpt><trkpt lat="43.38324664199075" lon="-4.398606711408775"><ele>4.6</ele><time>2026-05-01T14:35:12.001Z</time></trkpt><trkpt lat="43.38316081493203" lon="-4.3985395423384785"><ele>5.0</ele><time>2026-05-01T14:35:14.001Z</time></trkpt><trkpt lat="43.383078942033166" lon="-4.398456225175627"><ele>5.166666666666667</ele><time>2026-05-01T14:35:16.001Z</time></trkpt><trkpt lat="43.38298495563214" lon="-4.39838273033072"><ele>5.333333333333334</ele><time>2026-05-01T14:35:18.001Z</time></trkpt><trkpt lat="43.382909988849036" lon="-4.398324285843314"><ele>5.5</ele><time>2026-05-01T14:35:20.001Z</time></trkpt><trkpt lat="43.382848627042875" lon="-4.398275200328593"><ele>5.666666666666667</ele><time>2026-05-01T14:35:22.001Z</time></trkpt><trkpt lat="43.38278862205207" lon="-4.398221586554794"><ele>5.833333333333333</ele><time>2026-05-01T14:35:24.001Z</time></trkpt><trkpt lat="43.38272375307618" lon="-4.3981657642752685"><ele>6.0</ele><time>2026-05-01T14:35:26.001Z</time></trkpt><trkpt lat="43.38264530632962" lon="-4.3981005068873085"><ele>6.0</ele><time>2026-05-01T14:35:28.001Z</time></trkpt><trkpt lat="43.3825595789636" lon="-4.3980403546956754"><ele>6.0</ele><time>2026-05-01T14:35:30.001Z</time></trkpt><trkpt lat="43.382474682963796" lon="-4.397967621100101"><ele>6.0</ele><time>2026-05-01T14:35:32.001Z</time></trkpt><trkpt lat="43.38238479555483" lon="-4.397893784501234"><ele>6.0</ele><time>2026-05-01T14:35:34.001Z</time></trkpt><trkpt lat="43.382292610525056" lon="-4.397817341464566"><ele>6.0</ele><time>2026-05-01T14:35:36.001Z</time></trkpt><trkpt lat="43.38219327975795" lon="-4.397739013979296"><ele>6.0</ele><time>2026-05-01T14:35:38.001Z</time></trkpt><trkpt lat="43.38208945399485" lon="-4.397650328343236"><ele>6.0</ele><time>2026-05-01T14:35:40.001Z</time></trkpt><trkpt lat="43.381980885453586" lon="-4.397562044772123"><ele>6.0</ele><time>2026-05-01T14:35:42.001Z</time></trkpt><trkpt lat="43.38192428919522" lon="-4.3975141146605035"><ele>6.0</ele><time>2026-05-01T14:35:43.001Z</time></trkpt><trkpt lat="43.38186660701326" lon="-4.39746310824102"><ele>6.0</ele><time>2026-05-01T14:35:44.001Z</time></trkpt><trkpt lat="43.38180681047521" lon="-4.397414336171795"><ele>6.0</ele><time>2026-05-01T14:35:45.001Z</time></trkpt><trkpt lat="43.38174933721018" lon="-4.397374017125131"><ele>6.0</ele><time>2026-05-01T14:35:46.001Z</time></trkpt><trkpt lat="43.38169213314174" lon="-4.397326636003437"><ele>6.0</ele><time>2026-05-01T14:35:47.001Z</time></trkpt><trkpt lat="43.38163582445695" lon="-4.397280410375705"><ele>6.0</ele><time>2026-05-01T14:35:48.001Z</time></trkpt><trkpt lat="43.381579444703824" lon="-4.397238162530009"><ele>6.0</ele><time>2026-05-01T14:35:49.001Z</time></trkpt><trkpt lat="43.38147546471992" lon="-4.397189993369006"><ele>6.0</ele><time>2026-05-01T14:35:51.001Z</time></trkpt><trkpt lat="43.38137732298309" lon="-4.397180339323247"><ele>6.833333333333333</ele><time>2026-05-01T14:35:53.001Z</time></trkpt><trkpt lat="43.38128038930264" lon="-4.3971705213424155"><ele>7.666666666666666</ele><time>2026-05-01T14:35:55.001Z</time></trkpt><trkpt lat="43.381208756048004" lon="-4.397079345675742"><ele>8.5</ele><time>2026-05-01T14:35:57.001Z</time></trkpt><trkpt lat="43.38123248655515" lon="-4.396930962196392"><ele>9.333333333333332</ele><time>2026-05-01T14:35:59.001Z</time></trkpt><trkpt lat="43.38127816812326" lon="-4.396868876163407"><ele>10.166666666666666</ele><time>2026-05-01T14:36:00.001Z</time></trkpt><trkpt lat="43.38132125979431" lon="-4.39680218614023"><ele>11.0</ele><time>2026-05-01T14:36:01.001Z</time></trkpt><trkpt lat="43.38135243345595" lon="-4.396720211214661"><ele>9.333333333333332</ele><time>2026-05-01T14:36:02.001Z</time></trkpt><trkpt lat="43.38136677618652" lon="-4.396621828919958"><ele>7.666666666666666</ele><time>2026-05-01T14:36:03.001Z</time></trkpt><trkpt lat="43.381376491197194" lon="-4.396525044717852"><ele>6.0</ele><time>2026-05-01T14:36:04.001Z</time></trkpt><trkpt lat="43.38138341384036" lon="-4.3964208958651145"><ele>4.333333333333333</ele><time>2026-05-01T14:36:05.001Z</time></trkpt><trkpt lat="43.381394466160614" lon="-4.396316916939866"><ele>2.6666666666666665</ele><time>2026-05-01T14:36:06.001Z</time></trkpt><trkpt lat="43.38140666377385" lon="-4.396206488074692"><ele>1.0</ele><time>2026-05-01T14:36:07.001Z</time></trkpt><trkpt lat="43.381421159984214" lon="-4.396094666390499"><ele>0.49999999999999994</ele><time>2026-05-01T14:36:08.001Z</time></trkpt><trkpt lat="43.3814337182797" lon="-4.395981858326134"><ele>0.0</ele><time>2026-05-01T14:36:09.001Z</time></trkpt><trkpt lat="43.38145201225148" lon="-4.3958687422038665"><ele>-0.5</ele><time>2026-05-01T14:36:10Z</time></trkpt><trkpt lat="43.38146617902107" lon="-4.395756318486014"><ele>-1.0</ele><time>2026-05-01T14:36:11Z</time></trkpt><trkpt lat="43.38148221484003" lon="-4.3956405776804095"><ele>-1.4999999999999998</ele><time>2026-05-01T14:36:12Z</time></trkpt><trkpt lat="43.38149794655537" lon="-4.39552051457891"><ele>-2.0</ele><time>2026-05-01T14:36:13Z</time></trkpt><trkpt lat="43.381514468312865" lon="-4.3954006891457436"><ele>-2.0</ele><time>2026-05-01T14:36:14Z</time></trkpt><trkpt lat="43.38153069370296" lon="-4.395277187994148"><ele>-2.0</ele><time>2026-05-01T14:36:15Z</time></trkpt><trkpt lat="43.3815468426711" lon="-4.395153547935475"><ele>-2.0</ele><time>2026-05-01T14:36:16Z</time></trkpt><trkpt lat="43.3815657621949" lon="-4.395027743270975"><ele>-2.0</ele><time>2026-05-01T14:36:17Z</time></trkpt><trkpt lat="43.381580665385144" lon="-4.394901576261366"><ele>-2.0</ele><time>2026-05-01T14:36:18Z</time></trkpt><trkpt lat="43.381595462276906" lon="-4.394773746941139"><ele>-1.8</ele><time>2026-05-01T14:36:19Z</time></trkpt><trkpt lat="43.38161121713062" lon="-4.394647411503745"><ele>-1.6</ele><time>2026-05-01T14:36:20Z</time></trkpt><trkpt lat="43.38162773096042" lon="-4.394519322306397"><ele>-1.4000000000000001</ele><time>2026-05-01T14:36:21Z</time></trkpt><trkpt lat="43.38164410125029" lon="-4.394391041099129"><ele>-1.2000000000000002</ele><time>2026-05-01T14:36:22Z</time></trkpt><trkpt lat="43.38166344553224" lon="-4.394267189971962"><ele>-1.0</ele><time>2026-05-01T14:36:23Z</time></trkpt><trkpt lat="43.38168246031431" lon="-4.394138915434728"><ele>-1.0</ele><time>2026-05-01T14:36:24Z</time></trkpt><trkpt lat="43.38170001095217" lon="-4.394010757042073"><ele>-1.0</ele><time>2026-05-01T14:36:25Z</time></trkpt><trkpt lat="43.381717531096996" lon="-4.393882822206554"><ele>-1.0</ele><time>2026-05-01T14:36:26Z</time></trkpt><trkpt lat="43.38173594058464" lon="-4.393753729658936"><ele>-1.0</ele><time>2026-05-01T14:36:27Z</time></trkpt><trkpt lat="43.38175559510945" lon="-4.393625876058974"><ele>-1.0</ele><time>2026-05-01T14:36:28Z</time></trkpt><trkpt lat="43.38177429125896" lon="-4.39349597837215"><ele>-1.0</ele><time>2026-05-01T14:36:29Z</time></trkpt><trkpt lat="43.38179267924644" lon="-4.39336752659313"><ele>-1.0</ele><time>2026-05-01T14:36:30Z</time></trkpt><trkpt lat="43.38180858111481" lon="-4.393233025196134"><ele>-1.0</ele><time>2026-05-01T14:36:31Z</time></trkpt><trkpt lat="43.381826936569226" lon="-4.393102172383048"><ele>-1.0</ele><time>2026-05-01T14:36:32Z</time></trkpt><trkpt lat="43.381841755213486" lon="-4.39296612431073"><ele>-1.0</ele><time>2026-05-01T14:36:33Z</time></trkpt><trkpt lat="43.381858956022896" lon="-4.392834791222538"><ele>-1.0</ele><time>2026-05-01T14:36:34Z</time></trkpt><trkpt lat="43.38187905516462" lon="-4.392703546668674"><ele>-1.0</ele><time>2026-05-01T14:36:35Z</time></trkpt><trkpt lat="43.38189785666343" lon="-4.3925694780053925"><ele>-1.0</ele><time>2026-05-01T14:36:36Z</time></trkpt><trkpt lat="43.38192088848345" lon="-4.392437837319404"><ele>-1.0</ele><time>2026-05-01T14:36:37Z</time></trkpt><trkpt lat="43.38193928847399" lon="-4.392302515588311"><ele>-1.0</ele><time>2026-05-01T14:36:38Z</time></trkpt><trkpt lat="43.381954863419764" lon="-4.392168317322895"><ele>-0.8</ele><time>2026-05-01T14:36:39Z</time></trkpt><trkpt lat="43.38197147719978" lon="-4.392032574270697"><ele>-0.6000000000000001</ele><time>2026-05-01T14:36:40Z</time></trkpt><trkpt lat="43.38198910758787" lon="-4.391897031545149"><ele>-0.4</ele><time>2026-05-01T14:36:41Z</time></trkpt><trkpt lat="43.38200698335361" lon="-4.391759692865129"><ele>-0.2</ele><time>2026-05-01T14:36:42Z</time></trkpt><trkpt lat="43.38202739565876" lon="-4.391622069795207"><ele>0.0</ele><time>2026-05-01T14:36:43Z</time></trkpt><trkpt lat="43.3820450496563" lon="-4.391485824611902"><ele>0.0</ele><time>2026-05-01T14:36:44Z</time></trkpt><trkpt lat="43.38206413133946" lon="-4.39134958131942"><ele>0.0</ele><time>2026-05-01T14:36:45Z</time></trkpt><trkpt lat="43.38208381254435" lon="-4.391214938385225"><ele>0.0</ele><time>2026-05-01T14:36:46Z</time></trkpt><trkpt lat="43.38210573381336" lon="-4.391081860658322"><ele>0.0</ele><time>2026-05-01T14:36:47Z</time></trkpt><trkpt lat="43.382131517124776" lon="-4.390954750125837"><ele>0.0</ele><time>2026-05-01T14:36:48Z</time></trkpt><trkpt lat="43.38216032099841" lon="-4.390826819775801"><ele>0.0</ele><time>2026-05-01T14:36:49Z</time></trkpt><trkpt lat="43.38218907210959" lon="-4.39069926857944"><ele>0.0</ele><time>2026-05-01T14:36:50Z</time></trkpt><trkpt lat="43.382225835737735" lon="-4.390574607891736"><ele>0.0</ele><time>2026-05-01T14:36:51Z</time></trkpt><trkpt lat="43.38226725421954" lon="-4.39045224034795"><ele>0.0</ele><time>2026-05-01T14:36:52Z</time></trkpt><trkpt lat="43.38230653431633" lon="-4.390330307438038"><ele>0.0</ele><time>2026-05-01T14:36:53Z</time></trkpt><trkpt lat="43.38234897607229" lon="-4.390208223660964"><ele>0.0</ele><time>2026-05-01T14:36:54Z</time></trkpt><trkpt lat="43.38239716576818" lon="-4.390092565071495"><ele>0.0</ele><time>2026-05-01T14:36:55Z</time></trkpt><trkpt lat="43.3824418078567" lon="-4.389977707905513"><ele>0.0</ele><time>2026-05-01T14:36:56.001Z</time></trkpt><trkpt lat="43.382480470693" lon="-4.389859377146831"><ele>0.0</ele><time>2026-05-01T14:36:57.001Z</time></trkpt><trkpt lat="43.382516347949576" lon="-4.389741000894058"><ele>0.0</ele><time>2026-05-01T14:36:58.001Z</time></trkpt><trkpt lat="43.382550174215076" lon="-4.389623765940201"><ele>0.4</ele><time>2026-05-01T14:36:59.001Z</time></trkpt><trkpt lat="43.38258597788525" lon="-4.389503529578748"><ele>0.8</ele><time>2026-05-01T14:37:00.001Z</time></trkpt><trkpt lat="43.38261991103508" lon="-4.389383061324263"><ele>1.2000000000000002</ele><time>2026-05-01T14:37:01.001Z</time></trkpt><trkpt lat="43.382654257935684" lon="-4.389262323875891"><ele>1.6</ele><time>2026-05-01T14:37:02.001Z</time></trkpt><trkpt lat="43.382688561462466" lon="-4.389139174384007"><ele>2.0</ele><time>2026-05-01T14:37:03.001Z</time></trkpt><trkpt lat="43.38272416184089" lon="-4.389014041192014"><ele>2.0</ele><time>2026-05-01T14:37:04.001Z</time></trkpt><trkpt lat="43.38276261249744" lon="-4.388889345318395"><ele>2.0</ele><time>2026-05-01T14:37:05.001Z</time></trkpt><trkpt lat="43.38280498020142" lon="-4.3887647497716005"><ele>2.0</ele><time>2026-05-01T14:37:06.001Z</time></trkpt><trkpt lat="43.382841735896434" lon="-4.388635836368423"><ele>2.0</ele><time>2026-05-01T14:37:07.001Z</time></trkpt><trkpt lat="43.38288133820709" lon="-4.388504438367474"><ele>2.0</ele><time>2026-05-01T14:37:08.001Z</time></trkpt><trkpt lat="43.38292032859807" lon="-4.388373545518615"><ele>2.0</ele><time>2026-05-01T14:37:09.001Z</time></trkpt><trkpt lat="43.38295728921891" lon="-4.388233665971662"><ele>2.0</ele><time>2026-05-01T14:37:10.001Z</time></trkpt><trkpt lat="43.383007613518004" lon="-4.3881296144624296"><ele>2.0</ele><time>2026-05-01T14:37:11.001Z</time></trkpt><trkpt lat="43.383113004213634" lon="-4.3880952208200705"><ele>2.0</ele><time>2026-05-01T14:37:12.001Z</time></trkpt><trkpt lat="43.38323183867442" lon="-4.388144043801524"><ele>2.0</ele><time>2026-05-01T14:37:13.001Z</time></trkpt><trkpt lat="43.38339523084817" lon="-4.388223820660164"><ele>7.0</ele><time>2026-05-01T14:37:14.001Z</time></trkpt><trkpt lat="43.38358387440022" lon="-4.388309862534511"><ele>12.0</ele><time>2026-05-01T14:37:15.001Z</time></trkpt><trkpt lat="43.38321680541712" lon="-4.38744255428935"><ele>12.2</ele><time>2026-05-01T14:37:16.001Z</time></trkpt><trkpt lat="43.38325906713935" lon="-4.387315418552425"><ele>12.399999999999999</ele><time>2026-05-01T14:37:17.001Z</time></trkpt><trkpt lat="43.38329875602204" lon="-4.387190111417674"><ele>12.600000000000001</ele><time>2026-05-01T14:37:18.001Z</time></trkpt><trkpt lat="43.38334020236568" lon="-4.387059560571127"><ele>12.8</ele><time>2026-05-01T14:37:19.001Z</time></trkpt><trkpt lat="43.38338271439096" lon="-4.386927461215366"><ele>13.0</ele><time>2026-05-01T14:37:20.001Z</time></trkpt><trkpt lat="43.38342262056667" lon="-4.386793299935122"><ele>13.0</ele><time>2026-05-01T14:37:21.001Z</time></trkpt><trkpt lat="43.38345916980981" lon="-4.386662877775592"><ele>13.0</ele><time>2026-05-01T14:37:22.001Z</time></trkpt><trkpt lat="43.38349593212319" lon="-4.38653171818145"><ele>13.0</ele><time>2026-05-01T14:37:23.001Z</time></trkpt><trkpt lat="43.38352588552755" lon="-4.386391486836949"><ele>13.0</ele><time>2026-05-01T14:37:24.001Z</time></trkpt><trkpt lat="43.383532999140655" lon="-4.386246382821347"><ele>13.0</ele><time>2026-05-01T14:37:25.001Z</time></trkpt><trkpt lat="43.383517996919075" lon="-4.386106057992871"><ele>13.8</ele><time>2026-05-01T14:37:26.001Z</time></trkpt><trkpt lat="43.38349151978588" lon="-4.385972181051714"><ele>14.600000000000001</ele><time>2026-05-01T14:37:27.001Z</time></trkpt><trkpt lat="43.38345184926107" lon="-4.385848031580179"><ele>15.399999999999999</ele><time>2026-05-01T14:37:28.001Z</time></trkpt><trkpt lat="43.38340348352237" lon="-4.385727298248601"><ele>16.2</ele><time>2026-05-01T14:37:29.001Z</time></trkpt><trkpt lat="43.38336043599775" lon="-4.385612413088073"><ele>17.0</ele><time>2026-05-01T14:37:30.001Z</time></trkpt><trkpt lat="43.38331922089872" lon="-4.385497754879627"><ele>17.8</ele><time>2026-05-01T14:37:31.001Z</time></trkpt><trkpt lat="43.383277447405845" lon="-4.385370331547715"><ele>18.6</ele><time>2026-05-01T14:37:32.001Z</time></trkpt><trkpt lat="43.38324693224366" lon="-4.385266151735386"><ele>19.400000000000002</ele><time>2026-05-01T14:37:33.001Z</time></trkpt><trkpt lat="43.383212606524836" lon="-4.385146597535559"><ele>20.2</ele><time>2026-05-01T14:37:34.001Z</time></trkpt><trkpt lat="43.383192119933376" lon="-4.385019596720049"><ele>21.0</ele><time>2026-05-01T14:37:35.001Z</time></trkpt><trkpt lat="43.38318498326618" lon="-4.3848955859751975"><ele>21.0</ele><time>2026-05-01T14:37:36.001Z</time></trkpt><trkpt lat="43.383186162843316" lon="-4.38477333479369"><ele>21.0</ele><time>2026-05-01T14:37:37.001Z</time></trkpt><trkpt lat="43.38319000950842" lon="-4.384645990163835"><ele>21.0</ele><time>2026-05-01T14:37:38.001Z</time></trkpt><trkpt lat="43.383213115134424" lon="-4.384527935512967"><ele>21.0</ele><time>2026-05-01T14:37:39.001Z</time></trkpt><trkpt lat="43.383232439297956" lon="-4.384406611751376"><ele>21.0</ele><time>2026-05-01T14:37:40.001Z</time></trkpt><trkpt lat="43.38325583268082" lon="-4.38428611731586"><ele>22.0</ele><time>2026-05-01T14:37:41.001Z</time></trkpt><trkpt lat="43.383283868578545" lon="-4.3841666445572525"><ele>23.0</ele><time>2026-05-01T14:37:42.001Z</time></trkpt><trkpt lat="43.38331345146995" lon="-4.384048026501123"><ele>24.0</ele><time>2026-05-01T14:37:43.001Z</time></trkpt><trkpt lat="43.38334165109715" lon="-4.383928815358881"><ele>25.0</ele><time>2026-05-01T14:37:44.001Z</time></trkpt><trkpt lat="43.383367410157696" lon="-4.383807366395089"><ele>26.0</ele><time>2026-05-01T14:37:45.001Z</time></trkpt><trkpt lat="43.38338988574429" lon="-4.383680885152735"><ele>26.6</ele><time>2026-05-01T14:37:46.001Z</time></trkpt><trkpt lat="43.38339959583043" lon="-4.383547782255502"><ele>27.200000000000003</ele><time>2026-05-01T14:37:47.001Z</time></trkpt><trkpt lat="43.38339266450348" lon="-4.383413101762688"><ele>27.799999999999997</ele><time>2026-05-01T14:37:48.001Z</time></trkpt><trkpt lat="43.3833759961218" lon="-4.383280913539317"><ele>28.4</ele><time>2026-05-01T14:37:49.001Z</time></trkpt><trkpt lat="43.38334500918671" lon="-4.383151880795906"><ele>29.0</ele><time>2026-05-01T14:37:50.001Z</time></trkpt><trkpt lat="43.38330007878481" lon="-4.383028168847422"><ele>29.799999999999997</ele><time>2026-05-01T14:37:51.001Z</time></trkpt><trkpt lat="43.38323745179178" lon="-4.382917722972154"><ele>30.599999999999998</ele><time>2026-05-01T14:37:52.001Z</time></trkpt><trkpt lat="43.383168866711465" lon="-4.382816393686702"><ele>31.4</ele><time>2026-05-01T14:37:53.001Z</time></trkpt><trkpt lat="43.383088902717006" lon="-4.382729760398724"><ele>32.199999999999996</ele><time>2026-05-01T14:37:54.001Z</time></trkpt><trkpt lat="43.3829974671258" lon="-4.382665393801671"><ele>33.0</ele><time>2026-05-01T14:37:55.001Z</time></trkpt><trkpt lat="43.38290177820279" lon="-4.382618725390292"><ele>33.0</ele><time>2026-05-01T14:37:56.001Z</time></trkpt><trkpt lat="43.382801518399624" lon="-4.382582413950282"><ele>33.0</ele><time>2026-05-01T14:37:57.001Z</time></trkpt><trkpt lat="43.382705259112846" lon="-4.382542573026409"><ele>33.0</ele><time>2026-05-01T14:37:58.001Z</time></trkpt><trkpt lat="43.38261603658233" lon="-4.382495026739025"><ele>33.0</ele><time>2026-05-01T14:37:59.001Z</time></trkpt><trkpt lat="43.38252557806267" lon="-4.38243767294075"><ele>33.0</ele><time>2026-05-01T14:38:00.001Z</time></trkpt><trkpt lat="43.38244281385824" lon="-4.382376322896766"><ele>33.0</ele><time>2026-05-01T14:38:01.001Z</time></trkpt><trkpt lat="43.38236233913473" lon="-4.382297870533159"><ele>33.0</ele><time>2026-05-01T14:38:02.001Z</time></trkpt><trkpt lat="43.38229099647112" lon="-4.382204060847425"><ele>33.0</ele><time>2026-05-01T14:38:03.001Z</time></trkpt><trkpt lat="43.382229025842875" lon="-4.382099360173739"><ele>33.0</ele><time>2026-05-01T14:38:04.001Z</time></trkpt><trkpt lat="43.38217120500113" lon="-4.38198651065154"><ele>33.0</ele><time>2026-05-01T14:38:05.001Z</time></trkpt><trkpt lat="43.38212026040429" lon="-4.381872028536156"><ele>34.599999999999994</ele><time>2026-05-01T14:38:06.001Z</time></trkpt><trkpt lat="43.38206766184342" lon="-4.381754260663573"><ele>36.199999999999996</ele><time>2026-05-01T14:38:07.001Z</time></trkpt><trkpt lat="43.38201332047607" lon="-4.381636416203686"><ele>37.8</ele><time>2026-05-01T14:38:08.001Z</time></trkpt><trkpt lat="43.381953377814426" lon="-4.381523442101401"><ele>39.4</ele><time>2026-05-01T14:38:09.001Z</time></trkpt><trkpt lat="43.38188505875866" lon="-4.381414901540574"><ele>41.0</ele><time>2026-05-01T14:38:10.001Z</time></trkpt><trkpt lat="43.38180374110396" lon="-4.381320631398845"><ele>41.199999999999996</ele><time>2026-05-01T14:38:11.001Z</time></trkpt><trkpt lat="43.38171555583174" lon="-4.381240372429876"><ele>41.4</ele><time>2026-05-01T14:38:12.001Z</time></trkpt><trkpt lat="43.38162219679631" lon="-4.381167758958439"><ele>41.6</ele><time>2026-05-01T14:38:13.001Z</time></trkpt><trkpt lat="43.38152784156115" lon="-4.381111889928423"><ele>41.8</ele><time>2026-05-01T14:38:14.001Z</time></trkpt><trkpt lat="43.381415303117706" lon="-4.381074618170022"><ele>42.0</ele><time>2026-05-01T14:38:15.001Z</time></trkpt><trkpt lat="43.381275373779886" lon="-4.381083041267744"><ele>42.0</ele><time>2026-05-01T14:38:16Z</time></trkpt><trkpt lat="43.38110761602743" lon="-4.381092754929921"><ele>42.0</ele><time>2026-05-01T14:38:17Z</time></trkpt><trkpt lat="43.38094372928319" lon="-4.381118209693798"><ele>42.0</ele><time>2026-05-01T14:38:18Z</time></trkpt><trkpt lat="43.38101169454889" lon="-4.380896668621943"><ele>42.0</ele><time>2026-05-01T14:38:19Z</time></trkpt><trkpt lat="43.38091680630853" lon="-4.38083120145733"><ele>42.0</ele><time>2026-05-01T14:38:20Z</time></trkpt><trkpt lat="43.38083114279821" lon="-4.380755329854239"><ele>42.0</ele><time>2026-05-01T14:38:21Z</time></trkpt><trkpt lat="43.380757082172096" lon="-4.380654602245983"><ele>42.0</ele><time>2026-05-01T14:38:22Z</time></trkpt><trkpt lat="43.38068873569191" lon="-4.380548092063032"><ele>42.0</ele><time>2026-05-01T14:38:23Z</time></trkpt><trkpt lat="43.380630206041864" lon="-4.380433540893528"><ele>40.2</ele><time>2026-05-01T14:38:24Z</time></trkpt><trkpt lat="43.38057510069731" lon="-4.38031304500041"><ele>38.400000000000006</ele><time>2026-05-01T14:38:25Z</time></trkpt><trkpt lat="43.38053484073238" lon="-4.380175765609863"><ele>36.599999999999994</ele><time>2026-05-01T14:38:26Z</time></trkpt><trkpt lat="43.380496566355546" lon="-4.380043066746804"><ele>34.8</ele><time>2026-05-01T14:38:27Z</time></trkpt><trkpt lat="43.38046755323387" lon="-4.379906323317582"><ele>33.0</ele><time>2026-05-01T14:38:28Z</time></trkpt><trkpt lat="43.380437847463035" lon="-4.37976855591419"><ele>35.2</ele><time>2026-05-01T14:38:29Z</time></trkpt><trkpt lat="43.38040642220084" lon="-4.379629176795273"><ele>37.4</ele><time>2026-05-01T14:38:30Z</time></trkpt><trkpt lat="43.38037448518023" lon="-4.379492527520415"><ele>39.6</ele><time>2026-05-01T14:38:31Z</time></trkpt><trkpt lat="43.38034278109392" lon="-4.37935210077658"><ele>41.800000000000004</ele><time>2026-05-01T14:38:32Z</time></trkpt><trkpt lat="43.38030560625369" lon="-4.379217303742541"><ele>44.0</ele><time>2026-05-01T14:38:33Z</time></trkpt><trkpt lat="43.38026885153761" lon="-4.379088950469001"><ele>44.0</ele><time>2026-05-01T14:38:34Z</time></trkpt><trkpt lat="43.380234679161816" lon="-4.378953646552551"><ele>44.0</ele><time>2026-05-01T14:38:35Z</time></trkpt><trkpt lat="43.38019530426015" lon="-4.378818799889283"><ele>44.0</ele><time>2026-05-01T14:38:36Z</time></trkpt><trkpt lat="43.380155912807076" lon="-4.378684185099085"><ele>44.0</ele><time>2026-05-01T14:38:37Z</time></trkpt><trkpt lat="43.38011499047003" lon="-4.378555230974927"><ele>44.0</ele><time>2026-05-01T14:38:38Z</time></trkpt><trkpt lat="43.38007139597059" lon="-4.378420346262656"><ele>45.800000000000004</ele><time>2026-05-01T14:38:39Z</time></trkpt><trkpt lat="43.38002165113753" lon="-4.378291857423929"><ele>47.6</ele><time>2026-05-01T14:38:40Z</time></trkpt><trkpt lat="43.37996420810637" lon="-4.378164970919151"><ele>49.4</ele><time>2026-05-01T14:38:41Z</time></trkpt><trkpt lat="43.3799049034526" lon="-4.378044615005227"><ele>51.2</ele><time>2026-05-01T14:38:42Z</time></trkpt><trkpt lat="43.37984240352194" lon="-4.377899358034469"><ele>53.0</ele><time>2026-05-01T14:38:43Z</time></trkpt><trkpt lat="43.37982250951915" lon="-4.377806529806761"><ele>54.25</ele><time>2026-05-01T14:38:44Z</time></trkpt><trkpt lat="43.379781821017495" lon="-4.37772138302389"><ele>55.5</ele><time>2026-05-01T14:38:45Z</time></trkpt><trkpt lat="43.37964387450791" lon="-4.37766894865367"><ele>56.75</ele><time>2026-05-01T14:38:46Z</time></trkpt><trkpt lat="43.379521644352806" lon="-4.377579078691425"><ele>58.0</ele><time>2026-05-01T14:38:47Z</time></trkpt><trkpt lat="43.37942190438717" lon="-4.377516286045651"><ele>58.0</ele><time>2026-05-01T14:38:48Z</time></trkpt><trkpt lat="43.37932251588041" lon="-4.377467979922389"><ele>58.0</ele><time>2026-05-01T14:38:49Z</time></trkpt><trkpt lat="43.37922615523387" lon="-4.377437964388408"><ele>58.0</ele><time>2026-05-01T14:38:50Z</time></trkpt><trkpt lat="43.379128645184295" lon="-4.377413010939456"><ele>58.0</ele><time>2026-05-01T14:38:51Z</time></trkpt><trkpt lat="43.37903686041876" lon="-4.377383303037492"><ele>58.0</ele><time>2026-05-01T14:38:52Z</time></trkpt><trkpt lat="43.378941952331104" lon="-4.377341224766961"><ele>58.0</ele><time>2026-05-01T14:38:53Z</time></trkpt><trkpt lat="43.37885725126942" lon="-4.3772969968548345"><ele>58.0</ele><time>2026-05-01T14:38:54Z</time></trkpt><trkpt lat="43.37877041391317" lon="-4.377236436353143"><ele>58.0</ele><time>2026-05-01T14:38:55Z</time></trkpt><trkpt lat="43.37868917684487" lon="-4.377159420529111"><ele>58.0</ele><time>2026-05-01T14:38:56Z</time></trkpt><trkpt lat="43.37861817342179" lon="-4.377076365257602"><ele>58.0</ele><time>2026-05-01T14:38:57Z</time></trkpt><trkpt lat="43.37855291650949" lon="-4.376974986282101"><ele>59.0</ele><time>2026-05-01T14:38:58Z</time></trkpt><trkpt lat="43.37850149951507" lon="-4.3768643047637195"><ele>60.0</ele><time>2026-05-01T14:38:59Z</time></trkpt><trkpt lat="43.378458987537165" lon="-4.376746176636336"><ele>61.0</ele><time>2026-05-01T14:39:00Z</time></trkpt><trkpt lat="43.37842335613311" lon="-4.376620074404073"><ele>62.0</ele><time>2026-05-01T14:39:01Z</time></trkpt><trkpt lat="43.37840353614112" lon="-4.376482189848333"><ele>63.0</ele><time>2026-05-01T14:39:02Z</time></trkpt><trkpt lat="43.378390146836516" lon="-4.376344824816672"><ele>63.4</ele><time>2026-05-01T14:39:03Z</time></trkpt><trkpt lat="43.37837603321236" lon="-4.376206009590669"><ele>63.8</ele><time>2026-05-01T14:39:04Z</time></trkpt><trkpt lat="43.37836177663475" lon="-4.376068273756331"><ele>64.2</ele><time>2026-05-01T14:39:05Z</time></trkpt><trkpt lat="43.37835088916417" lon="-4.375923918802821"><ele>64.6</ele><time>2026-05-01T14:39:06Z</time></trkpt><trkpt lat="43.37833585074396" lon="-4.375775434798084"><ele>65.0</ele><time>2026-05-01T14:39:07.001Z</time></trkpt><trkpt lat="43.37832110659708" lon="-4.375636485521979"><ele>65.8</ele><time>2026-05-01T14:39:08.001Z</time></trkpt><trkpt lat="43.378308466268436" lon="-4.375491904784149"><ele>66.6</ele><time>2026-05-01T14:39:09.001Z</time></trkpt><trkpt lat="43.3782901835061" lon="-4.375349538050877"><ele>67.4</ele><time>2026-05-01T14:39:10.001Z</time></trkpt><trkpt lat="43.378267729646616" lon="-4.375207117587717"><ele>68.2</ele><time>2026-05-01T14:39:11.001Z</time></trkpt><trkpt lat="43.37823913088096" lon="-4.3750683522554406"><ele>69.0</ele><time>2026-05-01T14:39:12.001Z</time></trkpt><trkpt lat="43.37820529176258" lon="-4.374924498556173"><ele>69.0</ele><time>2026-05-01T14:39:13.001Z</time></trkpt><trkpt lat="43.378167573814494" lon="-4.374781867529951"><ele>69.0</ele><time>2026-05-01T14:39:14.001Z</time></trkpt><trkpt lat="43.378122425148774" lon="-4.374652800963577"><ele>69.0</ele><time>2026-05-01T14:39:15.001Z</time></trkpt><trkpt lat="43.37807208708989" lon="-4.37452299183549"><ele>69.0</ele><time>2026-05-01T14:39:16.001Z</time></trkpt><trkpt lat="43.37802036190235" lon="-4.374396349591544"><ele>69.0</ele><time>2026-05-01T14:39:17.001Z</time></trkpt><trkpt lat="43.37796205648038" lon="-4.374275186923913"><ele>68.4</ele><time>2026-05-01T14:39:18.001Z</time></trkpt><trkpt lat="43.377894407321115" lon="-4.37415650507488"><ele>67.80000000000001</ele><time>2026-05-01T14:39:19.001Z</time></trkpt><trkpt lat="43.37782949671259" lon="-4.374041119526522"><ele>67.19999999999999</ele><time>2026-05-01T14:39:20.001Z</time></trkpt><trkpt lat="43.37775604176874" lon="-4.373933190395837"><ele>66.6</ele><time>2026-05-01T14:39:21.001Z</time></trkpt><trkpt lat="43.37768057049782" lon="-4.373827929683241"><ele>66.0</ele><time>2026-05-01T14:39:22.001Z</time></trkpt><trkpt lat="43.37760370114336" lon="-4.373740510275533"><ele>67.6</ele><time>2026-05-01T14:39:23.001Z</time></trkpt><trkpt lat="43.37751584080747" lon="-4.373662526673106"><ele>69.19999999999999</ele><time>2026-05-01T14:39:24.001Z</time></trkpt><trkpt lat="43.37742545980477" lon="-4.3735860291211255"><ele>70.80000000000001</ele><time>2026-05-01T14:39:25.001Z</time></trkpt><trkpt lat="43.37732920291661" lon="-4.373512823123073"><ele>72.4</ele><time>2026-05-01T14:39:26.001Z</time></trkpt><trkpt lat="43.37722102017441" lon="-4.373470722732369"><ele>74.0</ele><time>2026-05-01T14:39:27.001Z</time></trkpt><trkpt lat="43.377135212101486" lon="-4.373376439539728"><ele>74.0</ele><time>2026-05-01T14:39:28.001Z</time></trkpt><trkpt lat="43.37703715185965" lon="-4.373313251847468"><ele>74.0</ele><time>2026-05-01T14:39:29.001Z</time></trkpt><trkpt lat="43.37693124463493" lon="-4.3732658237890485"><ele>74.0</ele><time>2026-05-01T14:39:30.001Z</time></trkpt><trkpt lat="43.37682125664031" lon="-4.3732344947521975"><ele>74.0</ele><time>2026-05-01T14:39:31.001Z</time></trkpt><trkpt lat="43.37671071302738" lon="-4.373204542763513"><ele>74.0</ele><time>2026-05-01T14:39:32.001Z</time></trkpt><trkpt lat="43.3766017649975" lon="-4.37318276726212"><ele>74.0</ele><time>2026-05-01T14:39:33.001Z</time></trkpt><trkpt lat="43.37649095041687" lon="-4.373170838140233"><ele>74.0</ele><time>2026-05-01T14:39:34.001Z</time></trkpt><trkpt lat="43.376379615126766" lon="-4.373166516765597"><ele>74.0</ele><time>2026-05-01T14:39:35.001Z</time></trkpt><trkpt lat="43.37626530796844" lon="-4.373171229442896"><ele>74.0</ele><time>2026-05-01T14:39:36.001Z</time></trkpt><trkpt lat="43.37615835247142" lon="-4.3731682515106955"><ele>74.0</ele><time>2026-05-01T14:39:37.001Z</time></trkpt><trkpt lat="43.376050994198984" lon="-4.373185959892777"><ele>74.0</ele><time>2026-05-01T14:39:38.001Z</time></trkpt><trkpt lat="43.37594299880568" lon="-4.37319698783607"><ele>74.0</ele><time>2026-05-01T14:39:39.001Z</time></trkpt><trkpt lat="43.37582772309004" lon="-4.373202692672273"><ele>74.0</ele><time>2026-05-01T14:39:40.001Z</time></trkpt><trkpt lat="43.37572275337906" lon="-4.373212634716149"><ele>74.0</ele><time>2026-05-01T14:39:41.001Z</time></trkpt><trkpt lat="43.37562310825428" lon="-4.373206735771957"><ele>74.0</ele><time>2026-05-01T14:39:42.001Z</time></trkpt><trkpt lat="43.37551539548695" lon="-4.373205043346166"><ele>74.2</ele><time>2026-05-01T14:39:43.001Z</time></trkpt><trkpt lat="43.37541071356315" lon="-4.373217607305724"><ele>74.4</ele><time>2026-05-01T14:39:44.001Z</time></trkpt><trkpt lat="43.37530404319407" lon="-4.3732255112157485"><ele>74.6</ele><time>2026-05-01T14:39:45.001Z</time></trkpt><trkpt lat="43.37520064786541" lon="-4.373239471134987"><ele>74.8</ele><time>2026-05-01T14:39:46.001Z</time></trkpt><trkpt lat="43.37509501286969" lon="-4.3732371578214115"><ele>75.0</ele><time>2026-05-01T14:39:47.001Z</time></trkpt><trkpt lat="43.374992340493755" lon="-4.373237692327247"><ele>75.0</ele><time>2026-05-01T14:39:48.001Z</time></trkpt><trkpt lat="43.374891138330675" lon="-4.373235444952725"><ele>75.0</ele><time>2026-05-01T14:39:49.001Z</time></trkpt><trkpt lat="43.374788803888634" lon="-4.373220810417801"><ele>75.0</ele><time>2026-05-01T14:39:50.001Z</time></trkpt><trkpt lat="43.374690356300185" lon="-4.373194920685025"><ele>75.0</ele><time>2026-05-01T14:39:51.001Z</time></trkpt><trkpt lat="43.37459109212792" lon="-4.373158620795436"><ele>75.0</ele><time>2026-05-01T14:39:52.001Z</time></trkpt><trkpt lat="43.374494034103876" lon="-4.373109854535908"><ele>75.4</ele><time>2026-05-01T14:39:53.001Z</time></trkpt><trkpt lat="43.37440001059553" lon="-4.3730496649293835"><ele>75.8</ele><time>2026-05-01T14:39:54.001Z</time></trkpt><trkpt lat="43.3743097506485" lon="-4.3729792348611225"><ele>76.2</ele><time>2026-05-01T14:39:55.001Z</time></trkpt><trkpt lat="43.37422773465541" lon="-4.3728971079398775"><ele>76.6</ele><time>2026-05-01T14:39:56.001Z</time></trkpt><trkpt lat="43.374152213916936" lon="-4.372800228409633"><ele>77.0</ele><time>2026-05-01T14:39:57.001Z</time></trkpt><trkpt lat="43.37408554502679" lon="-4.372686319730628"><ele>77.0</ele><time>2026-05-01T14:39:58.001Z</time></trkpt><trkpt lat="43.374028085407" lon="-4.372565158270665"><ele>77.0</ele><time>2026-05-01T14:39:59.001Z</time></trkpt><trkpt lat="43.37399172259751" lon="-4.372426883824659"><ele>77.0</ele><time>2026-05-01T14:40:00.001Z</time></trkpt><trkpt lat="43.37396768017178" lon="-4.372286181870777"><ele>77.0</ele><time>2026-05-01T14:40:01.001Z</time></trkpt><trkpt lat="43.373958444316244" lon="-4.372140686813633"><ele>77.0</ele><time>2026-05-01T14:40:02.001Z</time></trkpt><trkpt lat="43.37396448324827" lon="-4.3719976228244"><ele>77.5</ele><time>2026-05-01T14:40:03.001Z</time></trkpt><trkpt lat="43.37400495472515" lon="-4.371881714965506"><ele>78.0</ele><time>2026-05-01T14:40:04.001Z</time></trkpt><trkpt lat="43.37407327860559" lon="-4.3717858044215365"><ele>78.5</ele><time>2026-05-01T14:40:05.001Z</time></trkpt><trkpt lat="43.37413186881238" lon="-4.37165790978223"><ele>79.0</ele><time>2026-05-01T14:40:06.001Z</time></trkpt><trkpt lat="43.3741183181931" lon="-4.371416368259901"><ele>78.5</ele><time>2026-05-01T14:40:07.001Z</time></trkpt><trkpt lat="43.37418316423207" lon="-4.371159701359779"><ele>78.0</ele><time>2026-05-01T14:40:08.001Z</time></trkpt><trkpt lat="43.374190415423094" lon="-4.3710165048280105"><ele>77.5</ele><time>2026-05-01T14:40:10.001Z</time></trkpt><trkpt lat="43.37420567784285" lon="-4.370880024652439"><ele>77.0</ele><time>2026-05-01T14:40:11.001Z</time></trkpt><trkpt lat="43.374217627495966" lon="-4.370735601616205"><ele>77.0</ele><time>2026-05-01T14:40:12.001Z</time></trkpt><trkpt lat="43.374223018259094" lon="-4.370596695009596"><ele>77.0</ele><time>2026-05-01T14:40:13.001Z</time></trkpt><trkpt lat="43.37420824816974" lon="-4.370458015031985"><ele>77.0</ele><time>2026-05-01T14:40:14.001Z</time></trkpt><trkpt lat="43.37419515164786" lon="-4.370322836938902"><ele>77.0</ele><time>2026-05-01T14:40:15.001Z</time></trkpt><trkpt lat="43.374172823906044" lon="-4.37018413208561"><ele>77.0</ele><time>2026-05-01T14:40:16.001Z</time></trkpt><trkpt lat="43.37415063158583" lon="-4.370053941348032"><ele>77.33333333333334</ele><time>2026-05-01T14:40:17.001Z</time></trkpt><trkpt lat="43.374127331704635" lon="-4.369932216427344"><ele>77.66666666666667</ele><time>2026-05-01T14:40:18.001Z</time></trkpt><trkpt lat="43.37410621992304" lon="-4.3698182885948835"><ele>78.0</ele><time>2026-05-01T14:40:19.001Z</time></trkpt><trkpt lat="43.3740783101767" lon="-4.369712320201206"><ele>78.33333333333333</ele><time>2026-05-01T14:40:20.001Z</time></trkpt><trkpt lat="43.374051240938314" lon="-4.36960895519446"><ele>78.66666666666666</ele><time>2026-05-01T14:40:21.001Z</time></trkpt><trkpt lat="43.37402803817598" lon="-4.369509105154407"><ele>79.0</ele><time>2026-05-01T14:40:22Z</time></trkpt><trkpt lat="43.37400207478177" lon="-4.369423268963434"><ele>78.8</ele><time>2026-05-01T14:40:23Z</time></trkpt><trkpt lat="43.373972210776" lon="-4.369336209818954"><ele>78.60000000000001</ele><time>2026-05-01T14:40:24Z</time></trkpt><trkpt lat="43.373938054778385" lon="-4.369251399405251"><ele>78.4</ele><time>2026-05-01T14:40:25Z</time></trkpt><trkpt lat="43.373868908889335" lon="-4.369116017808864"><ele>78.2</ele><time>2026-05-01T14:40:27Z</time></trkpt><trkpt lat="43.373816183021326" lon="-4.368994406583929"><ele>78.0</ele><time>2026-05-01T14:40:29Z</time></trkpt><trkpt lat="43.37380239229597" lon="-4.368849875696746"><ele>78.0</ele><time>2026-05-01T14:40:31Z</time></trkpt><trkpt lat="43.373845334851126" lon="-4.36878173006098"><ele>78.0</ele><time>2026-05-01T14:40:32Z</time></trkpt><trkpt lat="43.3739313352432" lon="-4.3686454065444105"><ele>78.0</ele><time>2026-05-01T14:40:34Z</time></trkpt><trkpt lat="43.37396956811751" lon="-4.368563015338076"><ele>78.0</ele><time>2026-05-01T14:40:35Z</time></trkpt><trkpt lat="43.37399623619543" lon="-4.368469507092875"><ele>78.0</ele><time>2026-05-01T14:40:36Z</time></trkpt><trkpt lat="43.37402165384677" lon="-4.368373403057977"><ele>78.0</ele><time>2026-05-01T14:40:37Z</time></trkpt><trkpt lat="43.374046831612716" lon="-4.368269520130989"><ele>78.66666666666667</ele><time>2026-05-01T14:40:38Z</time></trkpt><trkpt lat="43.37407365897798" lon="-4.368164396507271"><ele>79.33333333333333</ele><time>2026-05-01T14:40:39Z</time></trkpt><trkpt lat="43.3740968433791" lon="-4.368054246092421"><ele>80.0</ele><time>2026-05-01T14:40:40Z</time></trkpt><trkpt lat="43.37412327889401" lon="-4.3679450773185176"><ele>80.66666666666666</ele><time>2026-05-01T14:40:41Z</time></trkpt><trkpt lat="43.374149495985094" lon="-4.36783702282318"><ele>81.33333333333333</ele><time>2026-05-01T14:40:42Z</time></trkpt><trkpt lat="43.37417942190089" lon="-4.367717477059433"><ele>82.0</ele><time>2026-05-01T14:40:43Z</time></trkpt><trkpt lat="43.37420252187282" lon="-4.367598354107604"><ele>82.0</ele><time>2026-05-01T14:40:44Z</time></trkpt><trkpt lat="43.37423119800863" lon="-4.3674758628995605"><ele>82.0</ele><time>2026-05-01T14:40:45Z</time></trkpt><trkpt lat="43.374260087164124" lon="-4.367352105253344"><ele>82.0</ele><time>2026-05-01T14:40:46Z</time></trkpt><trkpt lat="43.37429174744317" lon="-4.36723570899156"><ele>82.0</ele><time>2026-05-01T14:40:47Z</time></trkpt><trkpt lat="43.37432151201106" lon="-4.367108542835808"><ele>82.0</ele><time>2026-05-01T14:40:48Z</time></trkpt><trkpt lat="43.37434978639553" lon="-4.366987836030771"><ele>82.0</ele><time>2026-05-01T14:40:49Z</time></trkpt><trkpt lat="43.37438284137298" lon="-4.3668669676728475"><ele>82.0</ele><time>2026-05-01T14:40:50Z</time></trkpt><trkpt lat="43.37441989236869" lon="-4.366741626556116"><ele>82.0</ele><time>2026-05-01T14:40:51Z</time></trkpt><trkpt lat="43.37446215024185" lon="-4.366621904050704"><ele>82.0</ele><time>2026-05-01T14:40:52Z</time></trkpt><trkpt lat="43.37451021888882" lon="-4.366505814732458"><ele>82.0</ele><time>2026-05-01T14:40:53Z</time></trkpt><trkpt lat="43.37456422698726" lon="-4.366394666568424"><ele>81.19999999999999</ele><time>2026-05-01T14:40:54Z</time></trkpt><trkpt lat="43.37462378859677" lon="-4.3662837265598"><ele>80.39999999999999</ele><time>2026-05-01T14:40:55Z</time></trkpt><trkpt lat="43.37469185407272" lon="-4.366178437613878"><ele>79.6</ele><time>2026-05-01T14:40:56Z</time></trkpt><trkpt lat="43.37476091901104" lon="-4.3660744253713375"><ele>78.8</ele><time>2026-05-01T14:40:57Z</time></trkpt><trkpt lat="43.374820757080535" lon="-4.365968511274734"><ele>78.0</ele><time>2026-05-01T14:40:58Z</time></trkpt><trkpt lat="43.374897356238804" lon="-4.365864774481603"><ele>77.8</ele><time>2026-05-01T14:40:59Z</time></trkpt><trkpt lat="43.3749637699133" lon="-4.365749936284292"><ele>77.6</ele><time>2026-05-01T14:41:00Z</time></trkpt><trkpt lat="43.37503149531625" lon="-4.36564397042128"><ele>77.4</ele><time>2026-05-01T14:41:01Z</time></trkpt><trkpt lat="43.37510416988699" lon="-4.365537373725189"><ele>77.2</ele><time>2026-05-01T14:41:02Z</time></trkpt><trkpt lat="43.37517075739936" lon="-4.365427195789098"><ele>77.0</ele><time>2026-05-01T14:41:03Z</time></trkpt><trkpt lat="43.37523734796659" lon="-4.365320061444958"><ele>76.8</ele><time>2026-05-01T14:41:04Z</time></trkpt><trkpt lat="43.37530873031038" lon="-4.3652168679952785"><ele>76.6</ele><time>2026-05-01T14:41:05Z</time></trkpt><trkpt lat="43.375383619371696" lon="-4.365119214503805"><ele>76.39999999999999</ele><time>2026-05-01T14:41:06Z</time></trkpt><trkpt lat="43.3754638212606" lon="-4.365021111253426"><ele>76.2</ele><time>2026-05-01T14:41:07Z</time></trkpt><trkpt lat="43.375541860277174" lon="-4.364922487685632"><ele>76.0</ele><time>2026-05-01T14:41:08Z</time></trkpt><trkpt lat="43.37562072004162" lon="-4.364824486530408"><ele>76.0</ele><time>2026-05-01T14:41:09Z</time></trkpt><trkpt lat="43.375700637353724" lon="-4.3647301579942175"><ele>76.0</ele><time>2026-05-01T14:41:10Z</time></trkpt><trkpt lat="43.37578253602269" lon="-4.364638776087758"><ele>76.0</ele><time>2026-05-01T14:41:11Z</time></trkpt><trkpt lat="43.375864245809964" lon="-4.364547088172914"><ele>76.0</ele><time>2026-05-01T14:41:12Z</time></trkpt><trkpt lat="43.375944269998044" lon="-4.3644563450303595"><ele>76.0</ele><time>2026-05-01T14:41:13Z</time></trkpt><trkpt lat="43.3760246802683" lon="-4.36436477235921"><ele>75.8</ele><time>2026-05-01T14:41:14Z</time></trkpt><trkpt lat="43.376105376325874" lon="-4.364274569272992"><ele>75.6</ele><time>2026-05-01T14:41:15Z</time></trkpt><trkpt lat="43.37618579064935" lon="-4.364181100690133"><ele>75.4</ele><time>2026-05-01T14:41:16Z</time></trkpt><trkpt lat="43.37626655256956" lon="-4.364087044529074"><ele>75.2</ele><time>2026-05-01T14:41:17Z</time></trkpt><trkpt lat="43.376343959868045" lon="-4.363991285724843"><ele>75.0</ele><time>2026-05-01T14:41:18Z</time></trkpt><trkpt lat="43.3764211566093" lon="-4.363891077182668"><ele>74.4</ele><time>2026-05-01T14:41:19.001Z</time></trkpt><trkpt lat="43.37649305674867" lon="-4.363788500551786"><ele>73.8</ele><time>2026-05-01T14:41:20.001Z</time></trkpt><trkpt lat="43.37656416063736" lon="-4.363684899325186"><ele>73.2</ele><time>2026-05-01T14:41:21.001Z</time></trkpt><trkpt lat="43.37663453879706" lon="-4.363578529791654"><ele>72.6</ele><time>2026-05-01T14:41:22.001Z</time></trkpt><trkpt lat="43.3767079915635" lon="-4.363473063958608"><ele>72.0</ele><time>2026-05-01T14:41:23.001Z</time></trkpt><trkpt lat="43.376772451480754" lon="-4.363360302713011"><ele>72.0</ele><time>2026-05-01T14:41:24.001Z</time></trkpt><trkpt lat="43.37683489668726" lon="-4.363241790050491"><ele>72.0</ele><time>2026-05-01T14:41:25.001Z</time></trkpt><trkpt lat="43.376898472642864" lon="-4.363126555411732"><ele>72.0</ele><time>2026-05-01T14:41:26.001Z</time></trkpt><trkpt lat="43.37696136355892" lon="-4.363009074632559"><ele>72.0</ele><time>2026-05-01T14:41:27.001Z</time></trkpt><trkpt lat="43.37702352656913" lon="-4.362889801310293"><ele>72.0</ele><time>2026-05-01T14:41:28.001Z</time></trkpt><trkpt lat="43.377082188710226" lon="-4.362769893591861"><ele>71.6</ele><time>2026-05-01T14:41:29.001Z</time></trkpt><trkpt lat="43.3771395451687" lon="-4.362646861507098"><ele>71.2</ele><time>2026-05-01T14:41:30.001Z</time></trkpt><trkpt lat="43.37719346717774" lon="-4.362520468169068"><ele>70.8</ele><time>2026-05-01T14:41:31.001Z</time></trkpt><trkpt lat="43.37724392247721" lon="-4.362395911297044"><ele>70.4</ele><time>2026-05-01T14:41:32.001Z</time></trkpt><trkpt lat="43.37729289212553" lon="-4.362266346736419"><ele>70.0</ele><time>2026-05-01T14:41:33.001Z</time></trkpt><trkpt lat="43.37734012095823" lon="-4.362134715019433"><ele>69.4</ele><time>2026-05-01T14:41:34.001Z</time></trkpt><trkpt lat="43.37739029499489" lon="-4.362006478280221"><ele>68.8</ele><time>2026-05-01T14:41:35.001Z</time></trkpt><trkpt lat="43.37743993309288" lon="-4.361881228990955"><ele>68.2</ele><time>2026-05-01T14:41:36.001Z</time></trkpt><trkpt lat="43.377477765810326" lon="-4.361747389469117"><ele>67.6</ele><time>2026-05-01T14:41:37.001Z</time></trkpt><trkpt lat="43.377516499202606" lon="-4.361615534930527"><ele>67.0</ele><time>2026-05-01T14:41:38.001Z</time></trkpt><trkpt lat="43.377556642099016" lon="-4.361482337323378"><ele>66.8</ele><time>2026-05-01T14:41:39.001Z</time></trkpt><trkpt lat="43.37759451387415" lon="-4.361349182895118"><ele>66.6</ele><time>2026-05-01T14:41:40.001Z</time></trkpt><trkpt lat="43.37763153265447" lon="-4.361214882761426"><ele>66.39999999999999</ele><time>2026-05-01T14:41:41.001Z</time></trkpt><trkpt lat="43.377669179615836" lon="-4.36108331634698"><ele>66.2</ele><time>2026-05-01T14:41:42.001Z</time></trkpt><trkpt lat="43.377709833824014" lon="-4.3609574756501575"><ele>66.0</ele><time>2026-05-01T14:41:43.001Z</time></trkpt><trkpt lat="43.37775501267593" lon="-4.3608316684570605"><ele>66.0</ele><time>2026-05-01T14:41:44.001Z</time></trkpt><trkpt lat="43.37780517128314" lon="-4.360724849550602"><ele>66.0</ele><time>2026-05-01T14:41:45.001Z</time></trkpt><trkpt lat="43.37786189585528" lon="-4.360632484022226"><ele>66.0</ele><time>2026-05-01T14:41:46.001Z</time></trkpt><trkpt lat="43.37792965879705" lon="-4.3605543591397335"><ele>66.0</ele><time>2026-05-01T14:41:47.001Z</time></trkpt><trkpt lat="43.37800190119073" lon="-4.3604970663949665"><ele>66.0</ele><time>2026-05-01T14:41:48.001Z</time></trkpt><trkpt lat="43.378071248372315" lon="-4.360456649369711"><ele>66.0</ele><time>2026-05-01T14:41:49.001Z</time></trkpt><trkpt lat="43.37814060787278" lon="-4.360424329487759"><ele>66.66666666666667</ele><time>2026-05-01T14:41:50.001Z</time></trkpt><trkpt lat="43.37820818292105" lon="-4.360396617348365"><ele>67.33333333333333</ele><time>2026-05-01T14:41:51.001Z</time></trkpt><trkpt lat="43.37828734335335" lon="-4.360379437309091"><ele>68.0</ele><time>2026-05-01T14:41:52.001Z</time></trkpt><trkpt lat="43.37836922620108" lon="-4.360373423893884"><ele>68.66666666666666</ele><time>2026-05-01T14:41:53.001Z</time></trkpt><trkpt lat="43.37845682229373" lon="-4.360376850147642"><ele>69.33333333333333</ele><time>2026-05-01T14:41:54.001Z</time></trkpt><trkpt lat="43.37854744118787" lon="-4.360384804820817"><ele>70.0</ele><time>2026-05-01T14:41:55.001Z</time></trkpt><trkpt lat="43.37863773897423" lon="-4.360397284591053"><ele>70.0</ele><time>2026-05-01T14:41:56.001Z</time></trkpt><trkpt lat="43.37873503050893" lon="-4.360412305345494"><ele>70.0</ele><time>2026-05-01T14:41:57.001Z</time></trkpt><trkpt lat="43.37883484277994" lon="-4.3604242004225116"><ele>70.0</ele><time>2026-05-01T14:41:58.001Z</time></trkpt><trkpt lat="43.37893622608828" lon="-4.360431563548633"><ele>70.0</ele><time>2026-05-01T14:41:59.001Z</time></trkpt><trkpt lat="43.37903643791885" lon="-4.360432803051111"><ele>70.0</ele><time>2026-05-01T14:42:00.001Z</time></trkpt><trkpt lat="43.379136702348674" lon="-4.360432115712864"><ele>68.8</ele><time>2026-05-01T14:42:01.001Z</time></trkpt><trkpt lat="43.37924069927854" lon="-4.360431692904563"><ele>67.6</ele><time>2026-05-01T14:42:02.001Z</time></trkpt><trkpt lat="43.37934311715063" lon="-4.360430081251927"><ele>66.4</ele><time>2026-05-01T14:42:03.001Z</time></trkpt><trkpt lat="43.37944454791207" lon="-4.360431367153514"><ele>65.2</ele><time>2026-05-01T14:42:04.001Z</time></trkpt><trkpt lat="43.37954172306003" lon="-4.360423498691176"><ele>64.0</ele><time>2026-05-01T14:42:05.001Z</time></trkpt><trkpt lat="43.37964073799669" lon="-4.360402702170476"><ele>64.0</ele><time>2026-05-01T14:42:06.001Z</time></trkpt><trkpt lat="43.379740022008455" lon="-4.360367514541465"><ele>64.0</ele><time>2026-05-01T14:42:07.001Z</time></trkpt><trkpt lat="43.379837530953594" lon="-4.3603193472779225"><ele>64.0</ele><time>2026-05-01T14:42:08.001Z</time></trkpt><trkpt lat="43.37992689657482" lon="-4.360247636605945"><ele>64.0</ele><time>2026-05-01T14:42:09.001Z</time></trkpt><trkpt lat="43.380000462939506" lon="-4.360148797527735"><ele>64.0</ele><time>2026-05-01T14:42:10.001Z</time></trkpt><trkpt lat="43.3800673937408" lon="-4.36004360780773"><ele>64.0</ele><time>2026-05-01T14:42:11.001Z</time></trkpt><trkpt lat="43.380129589986815" lon="-4.359927117535929"><ele>64.0</ele><time>2026-05-01T14:42:12.001Z</time></trkpt><trkpt lat="43.3801749826959" lon="-4.359794751809084"><ele>64.0</ele><time>2026-05-01T14:42:13.001Z</time></trkpt><trkpt lat="43.38021097898129" lon="-4.359656548575695"><ele>64.0</ele><time>2026-05-01T14:42:14.001Z</time></trkpt><trkpt lat="43.380249060709275" lon="-4.3595225933345985"><ele>64.0</ele><time>2026-05-01T14:42:15.001Z</time></trkpt><trkpt lat="43.380296223214366" lon="-4.359393268939667"><ele>63.6</ele><time>2026-05-01T14:42:16.001Z</time></trkpt><trkpt lat="43.38034777560157" lon="-4.359265658168734"><ele>63.2</ele><time>2026-05-01T14:42:17.001Z</time></trkpt><trkpt lat="43.38039780723361" lon="-4.3591386324781"><ele>62.800000000000004</ele><time>2026-05-01T14:42:18.001Z</time></trkpt><trkpt lat="43.380447544162394" lon="-4.359012447703739"><ele>62.400000000000006</ele><time>2026-05-01T14:42:19.001Z</time></trkpt><trkpt lat="43.38049782407005" lon="-4.358884095396841"><ele>62.0</ele><time>2026-05-01T14:42:20.001Z</time></trkpt><trkpt lat="43.380551011950274" lon="-4.35875858721207"><ele>62.0</ele><time>2026-05-01T14:42:21.001Z</time></trkpt><trkpt lat="43.380605273146614" lon="-4.358632527524757"><ele>62.0</ele><time>2026-05-01T14:42:22.001Z</time></trkpt><trkpt lat="43.38065948185751" lon="-4.358508379159434"><ele>62.0</ele><time>2026-05-01T14:42:23.001Z</time></trkpt><trkpt lat="43.380716329252486" lon="-4.358386795151369"><ele>62.0</ele><time>2026-05-01T14:42:24.001Z</time></trkpt><trkpt lat="43.38077620567785" lon="-4.358265609296723"><ele>62.0</ele><time>2026-05-01T14:42:25.001Z</time></trkpt><trkpt lat="43.38083645967416" lon="-4.358136496709532"><ele>61.0</ele><time>2026-05-01T14:42:26.001Z</time></trkpt><trkpt lat="43.38089700367636" lon="-4.35801437446095"><ele>60.0</ele><time>2026-05-01T14:42:27.001Z</time></trkpt><trkpt lat="43.3809591350118" lon="-4.3578925716760475"><ele>59.0</ele><time>2026-05-01T14:42:28Z</time></trkpt><trkpt lat="43.381017090166495" lon="-4.3577789406910235"><ele>58.0</ele><time>2026-05-01T14:42:29Z</time></trkpt><trkpt lat="43.38107573944557" lon="-4.357646510506428"><ele>57.0</ele><time>2026-05-01T14:42:30Z</time></trkpt><trkpt lat="43.38113863128064" lon="-4.3575203149691095"><ele>57.0</ele><time>2026-05-01T14:42:31Z</time></trkpt><trkpt lat="43.38119321575116" lon="-4.357392408157667"><ele>57.0</ele><time>2026-05-01T14:42:32Z</time></trkpt><trkpt lat="43.381257899139285" lon="-4.357263316322358"><ele>57.0</ele><time>2026-05-01T14:42:33Z</time></trkpt><trkpt lat="43.38128240884965" lon="-4.357123988017561"><ele>57.0</ele><time>2026-05-01T14:42:34Z</time></trkpt><trkpt lat="43.38131728804802" lon="-4.356978734903543"><ele>57.0</ele><time>2026-05-01T14:42:35Z</time></trkpt><trkpt lat="43.38134132665008" lon="-4.356829317034381"><ele>57.0</ele><time>2026-05-01T14:42:36Z</time></trkpt><trkpt lat="43.381367992652514" lon="-4.356683727931222"><ele>57.0</ele><time>2026-05-01T14:42:37Z</time></trkpt><trkpt lat="43.381400253123786" lon="-4.356543150664623"><ele>57.0</ele><time>2026-05-01T14:42:38Z</time></trkpt><trkpt lat="43.38145406787344" lon="-4.35641547001339"><ele>57.0</ele><time>2026-05-01T14:42:39Z</time></trkpt><trkpt lat="43.3815049462548" lon="-4.356314002608412"><ele>57.0</ele><time>2026-05-01T14:42:40Z</time></trkpt><trkpt lat="43.3815086642756" lon="-4.356130391384692"><ele>57.0</ele><time>2026-05-01T14:42:41Z</time></trkpt><trkpt lat="43.38156003866833" lon="-4.3559899522948635"><ele>57.0</ele><time>2026-05-01T14:42:42Z</time></trkpt><trkpt lat="43.381536172249334" lon="-4.355810048906574"><ele>57.0</ele><time>2026-05-01T14:42:43Z</time></trkpt><trkpt lat="43.381566948933504" lon="-4.355669126978677"><ele>57.0</ele><time>2026-05-01T14:42:44Z</time></trkpt><trkpt lat="43.38159085457019" lon="-4.355524688621808"><ele>55.5</ele><time>2026-05-01T14:42:45Z</time></trkpt><trkpt lat="43.38161800983047" lon="-4.355371253382913"><ele>54.0</ele><time>2026-05-01T14:42:46Z</time></trkpt><trkpt lat="43.381643669821365" lon="-4.355218658502406"><ele>52.5</ele><time>2026-05-01T14:42:47Z</time></trkpt><trkpt lat="43.381673535196384" lon="-4.355068104867887"><ele>51.0</ele><time>2026-05-01T14:42:48Z</time></trkpt><trkpt lat="43.38170144224149" lon="-4.354920992098661"><ele>51.0</ele><time>2026-05-01T14:42:49Z</time></trkpt><trkpt lat="43.38172400743917" lon="-4.354775182252558"><ele>51.0</ele><time>2026-05-01T14:42:50Z</time></trkpt><trkpt lat="43.38175038372703" lon="-4.354637815703211"><ele>51.0</ele><time>2026-05-01T14:42:51Z</time></trkpt><trkpt lat="43.38177849745566" lon="-4.354509017320898"><ele>51.0</ele><time>2026-05-01T14:42:52Z</time></trkpt><trkpt lat="43.38181568508211" lon="-4.354391603364482"><ele>51.0</ele><time>2026-05-01T14:42:53Z</time></trkpt><trkpt lat="43.381850160644795" lon="-4.354287084495819"><ele>51.0</ele><time>2026-05-01T14:42:54Z</time></trkpt><trkpt lat="43.38188930604801" lon="-4.354194372468291"><ele>51.0</ele><time>2026-05-01T14:42:55Z</time></trkpt><trkpt lat="43.38193989364334" lon="-4.35411696294938"><ele>51.0</ele><time>2026-05-01T14:42:56Z</time></trkpt><trkpt lat="43.381989024447165" lon="-4.354052014294802"><ele>51.0</ele><time>2026-05-01T14:42:57Z</time></trkpt><trkpt lat="43.382084751247575" lon="-4.353951131038484"><ele>51.0</ele><time>2026-05-01T14:42:59Z</time></trkpt><trkpt lat="43.3821545566192" lon="-4.35394859844874"><ele>51.0</ele><time>2026-05-01T14:43:00Z</time></trkpt><trkpt lat="43.382225253397785" lon="-4.3539648649035625"><ele>51.0</ele><time>2026-05-01T14:43:01Z</time></trkpt><trkpt lat="43.382291940147745" lon="-4.354012179436974"><ele>51.0</ele><time>2026-05-01T14:43:02Z</time></trkpt><trkpt lat="43.38235515273363" lon="-4.354076498286663"><ele>51.0</ele><time>2026-05-01T14:43:03Z</time></trkpt><trkpt lat="43.38240715127106" lon="-4.354151168939922"><ele>51.0</ele><time>2026-05-01T14:43:04Z</time></trkpt><trkpt lat="43.38246258506205" lon="-4.354242026980115"><ele>51.0</ele><time>2026-05-01T14:43:05Z</time></trkpt><trkpt lat="43.38257929671483" lon="-4.354311013380139"><ele>51.0</ele><time>2026-05-01T14:43:07Z</time></trkpt><trkpt lat="43.38264590143045" lon="-4.354332732154425"><ele>51.0</ele><time>2026-05-01T14:43:08Z</time></trkpt><trkpt lat="43.38271475646642" lon="-4.354335258577539"><ele>51.0</ele><time>2026-05-01T14:43:09Z</time></trkpt><trkpt lat="43.38278355914464" lon="-4.354330715160006"><ele>51.0</ele><time>2026-05-01T14:43:10Z</time></trkpt><trkpt lat="43.382850870603036" lon="-4.354326370317409"><ele>51.0</ele><time>2026-05-01T14:43:11Z</time></trkpt><trkpt lat="43.382917068221126" lon="-4.354315433876536"><ele>51.0</ele><time>2026-05-01T14:43:12Z</time></trkpt><trkpt lat="43.38298552755522" lon="-4.3542907656096475"><ele>51.0</ele><time>2026-05-01T14:43:13Z</time></trkpt><trkpt lat="43.38305344441016" lon="-4.354255151075011"><ele>51.0</ele><time>2026-05-01T14:43:14Z</time></trkpt><trkpt lat="43.38311954187638" lon="-4.3542111861577935"><ele>51.166666666666664</ele><time>2026-05-01T14:43:15Z</time></trkpt><trkpt lat="43.383177581769786" lon="-4.354158850123811"><ele>51.33333333333333</ele><time>2026-05-01T14:43:16Z</time></trkpt><trkpt lat="43.38323524005357" lon="-4.354106606331962"><ele>51.5</ele><time>2026-05-01T14:43:17Z</time></trkpt><trkpt lat="43.38329848580351" lon="-4.354045271565829"><ele>51.666666666666664</ele><time>2026-05-01T14:43:18Z</time></trkpt><trkpt lat="43.3833630524567" lon="-4.353968912342785"><ele>51.83333333333333</ele><time>2026-05-01T14:43:19Z</time></trkpt><trkpt lat="43.383409902042054" lon="-4.353865949480181"><ele>52.0</ele><time>2026-05-01T14:43:20Z</time></trkpt><trkpt lat="43.38344307305357" lon="-4.353739605698116"><ele>52.2</ele><time>2026-05-01T14:43:21Z</time></trkpt><trkpt lat="43.3834680079066" lon="-4.35361006674306"><ele>52.400000000000006</ele><time>2026-05-01T14:43:22Z</time></trkpt><trkpt lat="43.38349140841946" lon="-4.353480215763571"><ele>52.599999999999994</ele><time>2026-05-01T14:43:23Z</time></trkpt><trkpt lat="43.38352660124798" lon="-4.3533427591596325"><ele>52.8</ele><time>2026-05-01T14:43:24Z</time></trkpt><trkpt lat="43.38355899056501" lon="-4.35321107048134"><ele>53.0</ele><time>2026-05-01T14:43:25Z</time></trkpt><trkpt lat="43.383589377739334" lon="-4.353069043307234"><ele>53.2</ele><time>2026-05-01T14:43:26Z</time></trkpt><trkpt lat="43.3836331783132" lon="-4.352929544337188"><ele>53.4</ele><time>2026-05-01T14:43:27Z</time></trkpt><trkpt lat="43.38367704293488" lon="-4.352791312970891"><ele>53.60000000000001</ele><time>2026-05-01T14:43:28Z</time></trkpt><trkpt lat="43.38371930584672" lon="-4.3526593585843445"><ele>53.800000000000004</ele><time>2026-05-01T14:43:29Z</time></trkpt><trkpt lat="43.38377148440202" lon="-4.352532985114292"><ele>54.0</ele><time>2026-05-01T14:43:30Z</time></trkpt><trkpt lat="43.383827192601586" lon="-4.352409746534203"><ele>53.800000000000004</ele><time>2026-05-01T14:43:31Z</time></trkpt><trkpt lat="43.3838839856177" lon="-4.3522874764034265"><ele>53.60000000000001</ele><time>2026-05-01T14:43:32Z</time></trkpt><trkpt lat="43.38393740461627" lon="-4.352178850042354"><ele>53.4</ele><time>2026-05-01T14:43:33Z</time></trkpt><trkpt lat="43.38399389178325" lon="-4.352086946339958"><ele>53.2</ele><time>2026-05-01T14:43:34Z</time></trkpt><trkpt lat="43.38405514924774" lon="-4.3520042686162155"><ele>53.0</ele><time>2026-05-01T14:43:35Z</time></trkpt><trkpt lat="43.38411505867895" lon="-4.351936109222874"><ele>53.00000000000001</ele><time>2026-05-01T14:43:36Z</time></trkpt><trkpt lat="43.384192902483946" lon="-4.351893401191247"><ele>53.0</ele><time>2026-05-01T14:43:37Z</time></trkpt><trkpt lat="43.38427852034527" lon="-4.351878564702361"><ele>53.0</ele><time>2026-05-01T14:43:38Z</time></trkpt><trkpt lat="43.384363348446854" lon="-4.351901978095804"><ele>53.0</ele><time>2026-05-01T14:43:39Z</time></trkpt><trkpt lat="43.38444342958426" lon="-4.35196471457671"><ele>53.00000000000001</ele><time>2026-05-01T14:43:40Z</time></trkpt><trkpt lat="43.384514728946044" lon="-4.352035320028813"><ele>53.0</ele><time>2026-05-01T14:43:41Z</time></trkpt><trkpt lat="43.38458300394761" lon="-4.3521073344013805"><ele>53.00000000000001</ele><time>2026-05-01T14:43:42Z</time></trkpt><trkpt lat="43.3846467417578" lon="-4.352182807005095"><ele>53.0</ele><time>2026-05-01T14:43:43Z</time></trkpt><trkpt lat="43.384710615989256" lon="-4.352262001698951"><ele>53.0</ele><time>2026-05-01T14:43:44Z</time></trkpt><trkpt lat="43.384777249343685" lon="-4.352337985872079"><ele>53.0</ele><time>2026-05-01T14:43:45.001Z</time></trkpt><trkpt lat="43.384841179756414" lon="-4.352410076502819"><ele>53.00000000000001</ele><time>2026-05-01T14:43:46.001Z</time></trkpt><trkpt lat="43.38490594243636" lon="-4.3524808125658785"><ele>53.0</ele><time>2026-05-01T14:43:47.001Z</time></trkpt><trkpt lat="43.38496749249007" lon="-4.352551566543331"><ele>55.00000000000001</ele><time>2026-05-01T14:43:48.001Z</time></trkpt><trkpt lat="43.38502934097721" lon="-4.352621660662309"><ele>57.0</ele><time>2026-05-01T14:43:49.001Z</time></trkpt><trkpt lat="43.38508671760879" lon="-4.352694899519272"><ele>59.0</ele><time>2026-05-01T14:43:50.001Z</time></trkpt><trkpt lat="43.385145890098606" lon="-4.3527616584317705"><ele>61.0</ele><time>2026-05-01T14:43:51.001Z</time></trkpt><trkpt lat="43.38520237443027" lon="-4.35282854103328"><ele>63.00000000000001</ele><time>2026-05-01T14:43:52.001Z</time></trkpt><trkpt lat="43.385258409562006" lon="-4.352894379071881"><ele>65.0</ele><time>2026-05-01T14:43:53.001Z</time></trkpt><trkpt lat="43.3853111195966" lon="-4.3529624618267855"><ele>65.00000000000001</ele><time>2026-05-01T14:43:54.001Z</time></trkpt><trkpt lat="43.38536402827147" lon="-4.3530286743881295"><ele>65.0</ele><time>2026-05-01T14:43:55.001Z</time></trkpt><trkpt lat="43.38541977628884" lon="-4.353092619252983"><ele>65.0</ele><time>2026-05-01T14:43:56.001Z</time></trkpt><trkpt lat="43.385477365360295" lon="-4.3531495282494355"><ele>65.0</ele><time>2026-05-01T14:43:57.001Z</time></trkpt><trkpt lat="43.38553887318362" lon="-4.353199927904713"><ele>65.0</ele><time>2026-05-01T14:43:58.001Z</time></trkpt><trkpt lat="43.385606263620716" lon="-4.353241855894171"><ele>65.00000000000001</ele><time>2026-05-01T14:43:59.001Z</time></trkpt><trkpt lat="43.38568116708092" lon="-4.353262184973229"><ele>65.0</ele><time>2026-05-01T14:44:00.001Z</time></trkpt><trkpt lat="43.38576163627664" lon="-4.353259493466426"><ele>65.66666666666667</ele><time>2026-05-01T14:44:01.001Z</time></trkpt><trkpt lat="43.385845845748484" lon="-4.353246806082267"><ele>66.33333333333334</ele><time>2026-05-01T14:44:02.001Z</time></trkpt><trkpt lat="43.385931863508446" lon="-4.35324551325226"><ele>67.0</ele><time>2026-05-01T14:44:03.001Z</time></trkpt><trkpt lat="43.38602229488514" lon="-4.353248940263101"><ele>67.66666666666667</ele><time>2026-05-01T14:44:04.001Z</time></trkpt><trkpt lat="43.38611619220705" lon="-4.353254546896654"><ele>68.33333333333333</ele><time>2026-05-01T14:44:05.001Z</time></trkpt><trkpt lat="43.38620622975731" lon="-4.353267498996596"><ele>69.0</ele><time>2026-05-01T14:44:06.001Z</time></trkpt><trkpt lat="43.386297113342714" lon="-4.353288579465544"><ele>70.5</ele><time>2026-05-01T14:44:07.001Z</time></trkpt><trkpt lat="43.38638688572598" lon="-4.353322430230126"><ele>72.0</ele><time>2026-05-01T14:44:08.001Z</time></trkpt><trkpt lat="43.386470523283414" lon="-4.353369117859058"><ele>73.5</ele><time>2026-05-01T14:44:09.001Z</time></trkpt><trkpt lat="43.386540120915505" lon="-4.353440534942613"><ele>75.0</ele><time>2026-05-01T14:44:10.001Z</time></trkpt><trkpt lat="43.38660646780248" lon="-4.35351458783139"><ele>76.5</ele><time>2026-05-01T14:44:11.001Z</time></trkpt><trkpt lat="43.38667087907348" lon="-4.353582387736178"><ele>78.0</ele><time>2026-05-01T14:44:12.001Z</time></trkpt><trkpt lat="43.3867426930711" lon="-4.353628263030734"><ele>78.0</ele><time>2026-05-01T14:44:13.001Z</time></trkpt><trkpt lat="43.38681851008236" lon="-4.35364728737105"><ele>78.0</ele><time>2026-05-01T14:44:14.001Z</time></trkpt><trkpt lat="43.38689238918168" lon="-4.353633635685707"><ele>78.0</ele><time>2026-05-01T14:44:15.001Z</time></trkpt><trkpt lat="43.386962200795345" lon="-4.35359631078937"><ele>78.0</ele><time>2026-05-01T14:44:16.001Z</time></trkpt><trkpt lat="43.38701391905029" lon="-4.353512565602552"><ele>78.0</ele><time>2026-05-01T14:44:17.001Z</time></trkpt><trkpt lat="43.387053449078934" lon="-4.3534103186125535"><ele>78.0</ele><time>2026-05-01T14:44:18.001Z</time></trkpt><trkpt lat="43.38709160754881" lon="-4.353304202647859"><ele>78.0</ele><time>2026-05-01T14:44:19.001Z</time></trkpt><trkpt lat="43.38712516493754" lon="-4.353189798002489"><ele>78.0</ele><time>2026-05-01T14:44:20.001Z</time></trkpt><trkpt lat="43.38715717439072" lon="-4.353063557694095"><ele>78.0</ele><time>2026-05-01T14:44:21.001Z</time></trkpt><trkpt lat="43.38718626960088" lon="-4.352931175664672"><ele>78.0</ele><time>2026-05-01T14:44:22.001Z</time></trkpt><trkpt lat="43.38721613889529" lon="-4.352796324699001"><ele>78.0</ele><time>2026-05-01T14:44:23.001Z</time></trkpt><trkpt lat="43.38725281389113" lon="-4.352655532174152"><ele>78.0</ele><time>2026-05-01T14:44:24.001Z</time></trkpt><trkpt lat="43.387294850649226" lon="-4.352524496001421"><ele>78.0</ele><time>2026-05-01T14:44:25.001Z</time></trkpt><trkpt lat="43.38734265591411" lon="-4.352397546904875"><ele>78.0</ele><time>2026-05-01T14:44:26.001Z</time></trkpt><trkpt lat="43.387397673973894" lon="-4.352273140532513"><ele>78.0</ele><time>2026-05-01T14:44:27.001Z</time></trkpt><trkpt lat="43.38746091174953" lon="-4.352154501104548"><ele>78.0</ele><time>2026-05-01T14:44:28.001Z</time></trkpt><trkpt lat="43.38752857490543" lon="-4.352043848544494"><ele>78.8</ele><time>2026-05-01T14:44:29.001Z</time></trkpt><trkpt lat="43.387596108673605" lon="-4.35193764995589"><ele>79.6</ele><time>2026-05-01T14:44:30.001Z</time></trkpt><trkpt lat="43.38766273918337" lon="-4.3518303832677665"><ele>80.39999999999999</ele><time>2026-05-01T14:44:31.001Z</time></trkpt><trkpt lat="43.387732613863186" lon="-4.3517247840598055"><ele>81.19999999999999</ele><time>2026-05-01T14:44:32.001Z</time></trkpt><trkpt lat="43.387803605595195" lon="-4.351617369700694"><ele>82.0</ele><time>2026-05-01T14:44:33.001Z</time></trkpt><trkpt lat="43.38787273556972" lon="-4.351507256356117"><ele>82.0</ele><time>2026-05-01T14:44:34Z</time></trkpt><trkpt lat="43.38793845357568" lon="-4.3513978843725605"><ele>82.0</ele><time>2026-05-01T14:44:35Z</time></trkpt><trkpt lat="43.388006233178835" lon="-4.351289370613725"><ele>82.0</ele><time>2026-05-01T14:44:36Z</time></trkpt><trkpt lat="43.388076731082016" lon="-4.351178561504524"><ele>82.0</ele><time>2026-05-01T14:44:37Z</time></trkpt><trkpt lat="43.38815013759491" lon="-4.351064401335163"><ele>82.0</ele><time>2026-05-01T14:44:38Z</time></trkpt><trkpt lat="43.38821460420144" lon="-4.350952842180963"><ele>82.0</ele><time>2026-05-01T14:44:39Z</time></trkpt><trkpt lat="43.388272496713206" lon="-4.350842650516975"><ele>82.0</ele><time>2026-05-01T14:44:40Z</time></trkpt><trkpt lat="43.38834429111399" lon="-4.350726175327203"><ele>82.0</ele><time>2026-05-01T14:44:41Z</time></trkpt><trkpt lat="43.38841762611243" lon="-4.350620414089979"><ele>82.0</ele><time>2026-05-01T14:44:42Z</time></trkpt><trkpt lat="43.38848753160185" lon="-4.350517414474786"><ele>82.0</ele><time>2026-05-01T14:44:43Z</time></trkpt><trkpt lat="43.38856274715129" lon="-4.350421986131861"><ele>82.39999999999999</ele><time>2026-05-01T14:44:44Z</time></trkpt><trkpt lat="43.388646717199826" lon="-4.350341361415959"><ele>82.8</ele><time>2026-05-01T14:44:45Z</time></trkpt><trkpt lat="43.38873817671408" lon="-4.350272888100311"><ele>83.2</ele><time>2026-05-01T14:44:46Z</time></trkpt><trkpt lat="43.38881578061596" lon="-4.3502070860481865"><ele>83.6</ele><time>2026-05-01T14:44:47Z</time></trkpt><trkpt lat="43.38890631869914" lon="-4.350142091374638"><ele>84.0</ele><time>2026-05-01T14:44:48Z</time></trkpt><trkpt lat="43.38899826700267" lon="-4.350086600689048"><ele>84.0</ele><time>2026-05-01T14:44:49Z</time></trkpt><trkpt lat="43.38909545264225" lon="-4.350037340148006"><ele>84.0</ele><time>2026-05-01T14:44:50Z</time></trkpt><trkpt lat="43.38919503990272" lon="-4.350003575305605"><ele>84.0</ele><time>2026-05-01T14:44:51Z</time></trkpt><trkpt lat="43.389295897406186" lon="-4.349980701594547"><ele>84.0</ele><time>2026-05-01T14:44:52Z</time></trkpt><trkpt lat="43.38939602497924" lon="-4.349957085636965"><ele>84.0</ele><time>2026-05-01T14:44:53Z</time></trkpt><trkpt lat="43.389495224174254" lon="-4.349933494806408"><ele>84.0</ele><time>2026-05-01T14:44:54Z</time></trkpt><trkpt lat="43.38959376844933" lon="-4.349906868521889"><ele>84.0</ele><time>2026-05-01T14:44:55Z</time></trkpt><trkpt lat="43.38969662623208" lon="-4.349876684302633"><ele>84.0</ele><time>2026-05-01T14:44:56Z</time></trkpt><trkpt lat="43.38979996181995" lon="-4.349848389836284"><ele>84.0</ele><time>2026-05-01T14:44:57Z</time></trkpt><trkpt lat="43.389904968997314" lon="-4.3498156337062825"><ele>84.0</ele><time>2026-05-01T14:44:58Z</time></trkpt><trkpt lat="43.39001327282711" lon="-4.349785428847464"><ele>83.80000000000001</ele><time>2026-05-01T14:44:59Z</time></trkpt><trkpt lat="43.39012717586201" lon="-4.3497574626047735"><ele>83.60000000000001</ele><time>2026-05-01T14:45:00Z</time></trkpt><trkpt lat="43.390230352539916" lon="-4.349730107834251"><ele>83.4</ele><time>2026-05-01T14:45:01Z</time></trkpt><trkpt lat="43.39033739972771" lon="-4.349699801840401"><ele>83.2</ele><time>2026-05-01T14:45:02Z</time></trkpt><trkpt lat="43.390444537543246" lon="-4.3496777289523365"><ele>83.0</ele><time>2026-05-01T14:45:03Z</time></trkpt><trkpt lat="43.39054627877222" lon="-4.349640493526674"><ele>84.0</ele><time>2026-05-01T14:45:04Z</time></trkpt><trkpt lat="43.3906527635161" lon="-4.349623674462776"><ele>85.0</ele><time>2026-05-01T14:45:05Z</time></trkpt><trkpt lat="43.39075954234799" lon="-4.349624387232099"><ele>86.0</ele><time>2026-05-01T14:45:06Z</time></trkpt><trkpt lat="43.39086673556475" lon="-4.349642277223397"><ele>87.0</ele><time>2026-05-01T14:45:07Z</time></trkpt><trkpt lat="43.39097480349777" lon="-4.3496721181114415"><ele>88.0</ele><time>2026-05-01T14:45:08Z</time></trkpt><trkpt lat="43.39108528044933" lon="-4.349698367121641"><ele>87.60000000000001</ele><time>2026-05-01T14:45:09Z</time></trkpt><trkpt lat="43.39118921735774" lon="-4.349753547853106"><ele>87.2</ele><time>2026-05-01T14:45:10Z</time></trkpt><trkpt lat="43.39131045400693" lon="-4.349814775084539"><ele>86.8</ele><time>2026-05-01T14:45:11Z</time></trkpt><trkpt lat="43.391382024800116" lon="-4.349805238498125"><ele>86.4</ele><time>2026-05-01T14:45:12Z</time></trkpt><trkpt lat="43.391478156814685" lon="-4.349827585914959"><ele>86.0</ele><time>2026-05-01T14:45:13Z</time></trkpt><trkpt lat="43.39157163223335" lon="-4.349851145211492"><ele>87.19999999999999</ele><time>2026-05-01T14:45:14Z</time></trkpt><trkpt lat="43.391666236579624" lon="-4.349879743576605"><ele>88.39999999999999</ele><time>2026-05-01T14:45:15Z</time></trkpt><trkpt lat="43.39175843769412" lon="-4.349898722851809"><ele>89.6</ele><time>2026-05-01T14:45:16Z</time></trkpt><trkpt lat="43.39185237505525" lon="-4.349910009357024"><ele>90.8</ele><time>2026-05-01T14:45:17Z</time></trkpt><trkpt lat="43.39194444612737" lon="-4.3499142498051775"><ele>92.0</ele><time>2026-05-01T14:45:18Z</time></trkpt><trkpt lat="43.39202504016527" lon="-4.3499186740790154"><ele>92.0</ele><time>2026-05-01T14:45:19Z</time></trkpt><trkpt lat="43.39210791546679" lon="-4.349924236552575"><ele>92.0</ele><time>2026-05-01T14:45:20Z</time></trkpt><trkpt lat="43.392192434031486" lon="-4.349925201586585"><ele>92.0</ele><time>2026-05-01T14:45:21Z</time></trkpt><trkpt lat="43.3922804176882" lon="-4.349927064084113"><ele>92.0</ele><time>2026-05-01T14:45:22Z</time></trkpt><trkpt lat="43.392368130631645" lon="-4.349927304120748"><ele>92.0</ele><time>2026-05-01T14:45:23Z</time></trkpt><trkpt lat="43.39245457117109" lon="-4.349937723697878"><ele>92.0</ele><time>2026-05-01T14:45:24Z</time></trkpt><trkpt lat="43.392540478037304" lon="-4.349944817395992"><ele>92.5</ele><time>2026-05-01T14:45:25Z</time></trkpt><trkpt lat="43.3926214130083" lon="-4.349947648216522"><ele>93.0</ele><time>2026-05-01T14:45:26Z</time></trkpt><trkpt lat="43.39270320813681" lon="-4.349950715841827"><ele>93.5</ele><time>2026-05-01T14:45:27Z</time></trkpt><trkpt lat="43.39278666915014" lon="-4.349950563279072"><ele>94.0</ele><time>2026-05-01T14:45:28Z</time></trkpt><trkpt lat="43.392872968693446" lon="-4.349942557654282"><ele>94.5</ele><time>2026-05-01T14:45:29Z</time></trkpt><trkpt lat="43.39295998822733" lon="-4.349925897298833"><ele>95.0</ele><time>2026-05-01T14:45:30Z</time></trkpt><trkpt lat="43.39304746768806" lon="-4.349899979308599"><ele>94.6</ele><time>2026-05-01T14:45:31Z</time></trkpt><trkpt lat="43.39313580742559" lon="-4.349856094190486"><ele>94.2</ele><time>2026-05-01T14:45:32Z</time></trkpt><trkpt lat="43.39322602183387" lon="-4.34980223301422"><ele>93.80000000000001</ele><time>2026-05-01T14:45:33Z</time></trkpt><trkpt lat="43.39331991163743" lon="-4.349752556812602"><ele>93.4</ele><time>2026-05-01T14:45:34Z</time></trkpt><trkpt lat="43.39341761451788" lon="-4.349704694433011"><ele>93.0</ele><time>2026-05-01T14:45:35Z</time></trkpt><trkpt lat="43.39351508905023" lon="-4.349655235727447"><ele>93.0</ele><time>2026-05-01T14:45:36Z</time></trkpt><trkpt lat="43.3936143527769" lon="-4.349604030154002"><ele>93.0</ele><time>2026-05-01T14:45:37Z</time></trkpt><trkpt lat="43.39371255434577" lon="-4.349553366290109"><ele>93.0</ele><time>2026-05-01T14:45:38Z</time></trkpt><trkpt lat="43.39380990944752" lon="-4.349500664349512"><ele>93.0</ele><time>2026-05-01T14:45:39Z</time></trkpt><trkpt lat="43.39390647219643" lon="-4.349449019611846"><ele>93.0</ele><time>2026-05-01T14:45:40Z</time></trkpt><trkpt lat="43.394001139581356" lon="-4.349400637030794"><ele>92.60000000000001</ele><time>2026-05-01T14:45:41Z</time></trkpt><trkpt lat="43.39409302276044" lon="-4.349362050763872"><ele>92.2</ele><time>2026-05-01T14:45:42Z</time></trkpt><trkpt lat="43.39418494398852" lon="-4.349332745066478"><ele>91.8</ele><time>2026-05-01T14:45:43Z</time></trkpt><trkpt lat="43.39427393596598" lon="-4.349305666176408"><ele>91.4</ele><time>2026-05-01T14:45:44Z</time></trkpt><trkpt lat="43.394362065607595" lon="-4.349279321104713"><ele>91.0</ele><time>2026-05-01T14:45:45Z</time></trkpt><trkpt lat="43.39444768604365" lon="-4.349266814105638"><ele>91.0</ele><time>2026-05-01T14:45:46Z</time></trkpt><trkpt lat="43.39453029901209" lon="-4.349276886379157"><ele>91.0</ele><time>2026-05-01T14:45:47Z</time></trkpt><trkpt lat="43.394607270980565" lon="-4.349307513283817"><ele>91.0</ele><time>2026-05-01T14:45:48Z</time></trkpt><trkpt lat="43.3946805867897" lon="-4.349338936595896"><ele>91.0</ele><time>2026-05-01T14:45:49Z</time></trkpt><trkpt lat="43.394750729024466" lon="-4.349366463448112"><ele>91.0</ele><time>2026-05-01T14:45:50Z</time></trkpt><trkpt lat="43.39481527446935" lon="-4.349395001955103"><ele>91.0</ele><time>2026-05-01T14:45:51Z</time></trkpt><trkpt lat="43.394899909270805" lon="-4.349398402745326"><ele>90.0</ele><time>2026-05-01T14:45:53Z</time></trkpt><trkpt lat="43.39492686834466" lon="-4.349300281648791"><ele>89.0</ele><time>2026-05-01T14:45:55Z</time></trkpt><trkpt lat="43.39489969857401" lon="-4.349140110194484"><ele>88.0</ele><time>2026-05-01T14:45:57Z</time></trkpt><trkpt lat="43.394882237595425" lon="-4.349047199964803"><ele>87.0</ele><time>2026-05-01T14:45:58Z</time></trkpt><trkpt lat="43.394869123200166" lon="-4.348947616617603"><ele>86.0</ele><time>2026-05-01T14:45:59Z</time></trkpt><trkpt lat="43.39485605063588" lon="-4.348839236715398"><ele>85.0</ele><time>2026-05-01T14:46:00Z</time></trkpt><trkpt lat="43.394840417561454" lon="-4.348726785496435"><ele>84.4</ele><time>2026-05-01T14:46:01.001Z</time></trkpt><trkpt lat="43.394824728252935" lon="-4.3486068160313245"><ele>83.8</ele><time>2026-05-01T14:46:02.001Z</time></trkpt><trkpt lat="43.39480776259451" lon="-4.348481715295838"><ele>83.19999999999999</ele><time>2026-05-01T14:46:03.001Z</time></trkpt><trkpt lat="43.3947927796489" lon="-4.348350584110519"><ele>82.6</ele><time>2026-05-01T14:46:04.001Z</time></trkpt><trkpt lat="43.39478424417866" lon="-4.34821594605173"><ele>82.0</ele><time>2026-05-01T14:46:05.001Z</time></trkpt><trkpt lat="43.39477872560485" lon="-4.348076143563003"><ele>81.39999999999999</ele><time>2026-05-01T14:46:06.001Z</time></trkpt><trkpt lat="43.39477656456774" lon="-4.347930446562614"><ele>80.8</ele><time>2026-05-01T14:46:07.001Z</time></trkpt><trkpt lat="43.394775371512246" lon="-4.347779311318339"><ele>80.2</ele><time>2026-05-01T14:46:08.001Z</time></trkpt><trkpt lat="43.39477771144961" lon="-4.347632407745578"><ele>79.6</ele><time>2026-05-01T14:46:09.001Z</time></trkpt><trkpt lat="43.394780855363685" lon="-4.3474873325244925"><ele>79.0</ele><time>2026-05-01T14:46:10.001Z</time></trkpt><trkpt lat="43.39478297988372" lon="-4.347345432446056"><ele>78.60000000000001</ele><time>2026-05-01T14:46:11.001Z</time></trkpt><trkpt lat="43.39478570432904" lon="-4.347198461402148"><ele>78.2</ele><time>2026-05-01T14:46:12.001Z</time></trkpt><trkpt lat="43.39478546705088" lon="-4.347053241052829"><ele>77.80000000000001</ele><time>2026-05-01T14:46:13.001Z</time></trkpt><trkpt lat="43.39477744385688" lon="-4.346904949793667"><ele>77.4</ele><time>2026-05-01T14:46:14.001Z</time></trkpt><trkpt lat="43.394770243080345" lon="-4.346758418309996"><ele>77.0</ele><time>2026-05-01T14:46:15.001Z</time></trkpt><trkpt lat="43.394775150090645" lon="-4.346613744453915"><ele>77.0</ele><time>2026-05-01T14:46:16.001Z</time></trkpt><trkpt lat="43.39477650561938" lon="-4.346462076622462"><ele>77.0</ele><time>2026-05-01T14:46:17.001Z</time></trkpt><trkpt lat="43.39476412748051" lon="-4.346297990616682"><ele>77.0</ele><time>2026-05-01T14:46:18.001Z</time></trkpt><trkpt lat="43.39474953407661" lon="-4.3461250836596665"><ele>77.0</ele><time>2026-05-01T14:46:19.001Z</time></trkpt><trkpt lat="43.39476286110364" lon="-4.346015161735502"><ele>77.0</ele><time>2026-05-01T14:46:20.001Z</time></trkpt><trkpt lat="43.39475883363897" lon="-4.345870612249233"><ele>75.8</ele><time>2026-05-01T14:46:21.001Z</time></trkpt><trkpt lat="43.39475661610377" lon="-4.345720430636551"><ele>74.6</ele><time>2026-05-01T14:46:22.001Z</time></trkpt><trkpt lat="43.39475187208453" lon="-4.345573997369721"><ele>73.39999999999999</ele><time>2026-05-01T14:46:23.001Z</time></trkpt><trkpt lat="43.39475131416676" lon="-4.345426047545616"><ele>72.2</ele><time>2026-05-01T14:46:24.001Z</time></trkpt><trkpt lat="43.3947511383782" lon="-4.345286007653917"><ele>71.0</ele><time>2026-05-01T14:46:25.001Z</time></trkpt><trkpt lat="43.39475125968735" lon="-4.345138397303661"><ele>70.8</ele><time>2026-05-01T14:46:26.001Z</time></trkpt><trkpt lat="43.394751045031725" lon="-4.344997673014708"><ele>70.6</ele><time>2026-05-01T14:46:27.001Z</time></trkpt><trkpt lat="43.394755325918375" lon="-4.3448570582455055"><ele>70.4</ele><time>2026-05-01T14:46:28.001Z</time></trkpt><trkpt lat="43.39475713509076" lon="-4.344705191877048"><ele>70.2</ele><time>2026-05-01T14:46:29.001Z</time></trkpt><trkpt lat="43.39476571975145" lon="-4.344552817464329"><ele>70.0</ele><time>2026-05-01T14:46:30.001Z</time></trkpt><trkpt lat="43.39477135083611" lon="-4.3443961492447185"><ele>68.8</ele><time>2026-05-01T14:46:31.001Z</time></trkpt><trkpt lat="43.3947767325467" lon="-4.344243194912383"><ele>67.6</ele><time>2026-05-01T14:46:32.001Z</time></trkpt><trkpt lat="43.39478089278067" lon="-4.344088438507758"><ele>66.4</ele><time>2026-05-01T14:46:33.001Z</time></trkpt><trkpt lat="43.39478684799914" lon="-4.343932721164776"><ele>65.2</ele><time>2026-05-01T14:46:34.001Z</time></trkpt><trkpt lat="43.394794133051406" lon="-4.343785135989602"><ele>64.0</ele><time>2026-05-01T14:46:35.001Z</time></trkpt><trkpt lat="43.39479800417405" lon="-4.3436328767785275"><ele>63.2</ele><time>2026-05-01T14:46:36.001Z</time></trkpt><trkpt lat="43.39480421888517" lon="-4.343480706620739"><ele>62.400000000000006</ele><time>2026-05-01T14:46:37.001Z</time></trkpt><trkpt lat="43.394808437585" lon="-4.343332672746054"><ele>61.6</ele><time>2026-05-01T14:46:38.001Z</time></trkpt><trkpt lat="43.39481316767448" lon="-4.343180421419728"><ele>60.8</ele><time>2026-05-01T14:46:39.001Z</time></trkpt><trkpt lat="43.39482330930828" lon="-4.343036406509294"><ele>60.0</ele><time>2026-05-01T14:46:40Z</time></trkpt><trkpt lat="43.394824131075765" lon="-4.342894437558519"><ele>59.4</ele><time>2026-05-01T14:46:41Z</time></trkpt><trkpt lat="43.39483365081274" lon="-4.342755250079305"><ele>58.8</ele><time>2026-05-01T14:46:42Z</time></trkpt><trkpt lat="43.394833764290446" lon="-4.3426136705124"><ele>58.2</ele><time>2026-05-01T14:46:43Z</time></trkpt><trkpt lat="43.39482054782892" lon="-4.342474020377591"><ele>57.6</ele><time>2026-05-01T14:46:44Z</time></trkpt><trkpt lat="43.39479010009978" lon="-4.342338217457264"><ele>57.0</ele><time>2026-05-01T14:46:45Z</time></trkpt><trkpt lat="43.394739346836694" lon="-4.342211574733136"><ele>55.8</ele><time>2026-05-01T14:46:46Z</time></trkpt><trkpt lat="43.39467877594274" lon="-4.3420970367596645"><ele>54.6</ele><time>2026-05-01T14:46:47Z</time></trkpt><trkpt lat="43.39460730500884" lon="-4.34199606002054"><ele>53.4</ele><time>2026-05-01T14:46:48Z</time></trkpt><trkpt lat="43.39451751045369" lon="-4.341912530784886"><ele>52.199999999999996</ele><time>2026-05-01T14:46:49Z</time></trkpt><trkpt lat="43.39441723017769" lon="-4.341854210005528"><ele>51.0</ele><time>2026-05-01T14:46:50Z</time></trkpt><trkpt lat="43.394311524104026" lon="-4.341814649700569"><ele>51.0</ele><time>2026-05-01T14:46:51Z</time></trkpt><trkpt lat="43.39420482000478" lon="-4.341801843968773"><ele>51.0</ele><time>2026-05-01T14:46:52Z</time></trkpt><trkpt lat="43.394097637107976" lon="-4.341796353827759"><ele>51.0</ele><time>2026-05-01T14:46:53Z</time></trkpt><trkpt lat="43.39399509895748" lon="-4.341790716305225"><ele>51.0</ele><time>2026-05-01T14:46:54Z</time></trkpt><trkpt lat="43.39389168295612" lon="-4.341773982121886"><ele>51.0</ele><time>2026-05-01T14:46:55Z</time></trkpt><trkpt lat="43.393789767705854" lon="-4.341732333632508"><ele>50.0</ele><time>2026-05-01T14:46:56Z</time></trkpt><trkpt lat="43.393694469934296" lon="-4.341666135630958"><ele>49.0</ele><time>2026-05-01T14:46:57Z</time></trkpt><trkpt lat="43.393608052803536" lon="-4.3415813290690535"><ele>48.0</ele><time>2026-05-01T14:46:58Z</time></trkpt><trkpt lat="43.39352981613164" lon="-4.341481232548215"><ele>47.0</ele><time>2026-05-01T14:46:59Z</time></trkpt><trkpt lat="43.39346234173402" lon="-4.341367984955212"><ele>46.0</ele><time>2026-05-01T14:47:00Z</time></trkpt><trkpt lat="43.39340742042628" lon="-4.341248002641936"><ele>45.0</ele><time>2026-05-01T14:47:01Z</time></trkpt><trkpt lat="43.39335509402492" lon="-4.341129448419077"><ele>44.0</ele><time>2026-05-01T14:47:02Z</time></trkpt><trkpt lat="43.393300774342734" lon="-4.341020810272907"><ele>43.0</ele><time>2026-05-01T14:47:03Z</time></trkpt><trkpt lat="43.39324825760429" lon="-4.340912062566951"><ele>42.0</ele><time>2026-05-01T14:47:04Z</time></trkpt><trkpt lat="43.39319954720927" lon="-4.340805500754801"><ele>41.0</ele><time>2026-05-01T14:47:05Z</time></trkpt><trkpt lat="43.393149480582785" lon="-4.3406987779032224"><ele>41.0</ele><time>2026-05-01T14:47:06Z</time></trkpt><trkpt lat="43.39310213871296" lon="-4.3405939210356905"><ele>41.0</ele><time>2026-05-01T14:47:07Z</time></trkpt><trkpt lat="43.393055460250004" lon="-4.340486307004264"><ele>41.0</ele><time>2026-05-01T14:47:08Z</time></trkpt><trkpt lat="43.39300917525672" lon="-4.34037823983714"><ele>41.0</ele><time>2026-05-01T14:47:09Z</time></trkpt><trkpt lat="43.392966288538375" lon="-4.340266582009834"><ele>41.0</ele><time>2026-05-01T14:47:10Z</time></trkpt><trkpt lat="43.39292586750975" lon="-4.340153057094785"><ele>40.5</ele><time>2026-05-01T14:47:11Z</time></trkpt><trkpt lat="43.39288919432614" lon="-4.340038404089025"><ele>40.0</ele><time>2026-05-01T14:47:12Z</time></trkpt><trkpt lat="43.39285815342454" lon="-4.339924628613304"><ele>39.5</ele><time>2026-05-01T14:47:13Z</time></trkpt><trkpt lat="43.392831924627004" lon="-4.339810015922324"><ele>39.0</ele><time>2026-05-01T14:47:14Z</time></trkpt><trkpt lat="43.39280690911897" lon="-4.339700050436824"><ele>38.5</ele><time>2026-05-01T14:47:15Z</time></trkpt><trkpt lat="43.39278206390328" lon="-4.339591150947173"><ele>38.0</ele><time>2026-05-01T14:47:16Z</time></trkpt><trkpt lat="43.392758982996085" lon="-4.339485895709393"><ele>37.83333333333333</ele><time>2026-05-01T14:47:17Z</time></trkpt><trkpt lat="43.39273815232879" lon="-4.339386951215162"><ele>37.666666666666664</ele><time>2026-05-01T14:47:18Z</time></trkpt><trkpt lat="43.392718955718124" lon="-4.339297471592811"><ele>37.5</ele><time>2026-05-01T14:47:19Z</time></trkpt><trkpt lat="43.39268855656487" lon="-4.339149411307203"><ele>37.333333333333336</ele><time>2026-05-01T14:47:21Z</time></trkpt><trkpt lat="43.392666914326206" lon="-4.339047395474184"><ele>37.16666666666667</ele><time>2026-05-01T14:47:23Z</time></trkpt><trkpt lat="43.39265948077454" lon="-4.338957281192372"><ele>37.0</ele><time>2026-05-01T14:47:26Z</time></trkpt><trkpt lat="43.39268938963651" lon="-4.339036857369558"><ele>37.0</ele><time>2026-05-01T14:47:30Z</time></trkpt><trkpt lat="43.39270742903111" lon="-4.339143485590021"><ele>37.0</ele><time>2026-05-01T14:47:44Z</time></trkpt><trkpt lat="43.3927227109455" lon="-4.3392348578722615"><ele>37.0</ele><time>2026-05-01T14:47:46Z</time></trkpt><trkpt lat="43.39275916548782" lon="-4.339319021328952"><ele>37.0</ele><time>2026-05-01T14:47:49Z</time></trkpt><trkpt lat="43.39278606786794" lon="-4.3394364462628205"><ele>37.0</ele><time>2026-05-01T14:47:55Z</time></trkpt><trkpt lat="43.39280972456451" lon="-4.339570021893554"><ele>37.0</ele><time>2026-05-01T14:47:57Z</time></trkpt><trkpt lat="43.39283962253537" lon="-4.339702304063243"><ele>37.142857142857146</ele><time>2026-05-01T14:47:59Z</time></trkpt><trkpt lat="43.39287055704705" lon="-4.339853399400574"><ele>37.285714285714285</ele><time>2026-05-01T14:48:01Z</time></trkpt><trkpt lat="43.3928921201658" lon="-4.339938158041869"><ele>37.42857142857143</ele><time>2026-05-01T14:48:02Z</time></trkpt><trkpt lat="43.39291654800393" lon="-4.340021763606745"><ele>37.57142857142857</ele><time>2026-05-01T14:48:03Z</time></trkpt><trkpt lat="43.392938919936974" lon="-4.340109070726001"><ele>37.714285714285715</ele><time>2026-05-01T14:48:04Z</time></trkpt><trkpt lat="43.39296248968968" lon="-4.340194457271265"><ele>37.857142857142854</ele><time>2026-05-01T14:48:05.001Z</time></trkpt><trkpt lat="43.392993640978275" lon="-4.340280689204081"><ele>38.0</ele><time>2026-05-01T14:48:06.001Z</time></trkpt><trkpt lat="43.39302826880726" lon="-4.340366217678093"><ele>37.666666666666664</ele><time>2026-05-01T14:48:07.001Z</time></trkpt><trkpt lat="43.39306563174845" lon="-4.3404561164577045"><ele>37.33333333333333</ele><time>2026-05-01T14:48:08.001Z</time></trkpt><trkpt lat="43.39310768735575" lon="-4.340548044680015"><ele>37.0</ele><time>2026-05-01T14:48:09.001Z</time></trkpt><trkpt lat="43.3931491706813" lon="-4.340639042428048"><ele>36.666666666666664</ele><time>2026-05-01T14:48:10.001Z</time></trkpt><trkpt lat="43.39319369324373" lon="-4.340734924840193"><ele>36.333333333333336</ele><time>2026-05-01T14:48:11.001Z</time></trkpt><trkpt lat="43.39324055165419" lon="-4.340831406550706"><ele>36.0</ele><time>2026-05-01T14:48:12.001Z</time></trkpt><trkpt lat="43.39328713557742" lon="-4.340928639633799"><ele>36.833333333333336</ele><time>2026-05-01T14:48:13.001Z</time></trkpt><trkpt lat="43.39333410266557" lon="-4.341027861639157"><ele>37.666666666666664</ele><time>2026-05-01T14:48:14.001Z</time></trkpt><trkpt lat="43.39338096907675" lon="-4.341127843513614"><ele>38.5</ele><time>2026-05-01T14:48:15.001Z</time></trkpt><trkpt lat="43.39342855332885" lon="-4.3412284946048745"><ele>39.33333333333333</ele><time>2026-05-01T14:48:16.001Z</time></trkpt><trkpt lat="43.39347592008697" lon="-4.341327166366908"><ele>40.166666666666664</ele><time>2026-05-01T14:48:17.001Z</time></trkpt><trkpt lat="43.39352474602451" lon="-4.34142589900514"><ele>41.0</ele><time>2026-05-01T14:48:18.001Z</time></trkpt><trkpt lat="43.39357955246645" lon="-4.341521803241736"><ele>41.83333333333333</ele><time>2026-05-01T14:48:19.001Z</time></trkpt><trkpt lat="43.39364615746086" lon="-4.341600698087792"><ele>42.666666666666664</ele><time>2026-05-01T14:48:20.001Z</time></trkpt><trkpt lat="43.39372249974735" lon="-4.341656415533257"><ele>43.5</ele><time>2026-05-01T14:48:21.001Z</time></trkpt><trkpt lat="43.39380007154345" lon="-4.3417002059382686"><ele>44.333333333333336</ele><time>2026-05-01T14:48:22.001Z</time></trkpt><trkpt lat="43.39387569458239" lon="-4.341739579219514"><ele>45.16666666666667</ele><time>2026-05-01T14:48:23.001Z</time></trkpt><trkpt lat="43.393953691950905" lon="-4.341768824678144"><ele>46.0</ele><time>2026-05-01T14:48:24.001Z</time></trkpt><trkpt lat="43.39403583360138" lon="-4.3417777794478996"><ele>46.833333333333336</ele><time>2026-05-01T14:48:25.001Z</time></trkpt><trkpt lat="43.394116744061016" lon="-4.34177827265365"><ele>47.66666666666667</ele><time>2026-05-01T14:48:26.001Z</time></trkpt><trkpt lat="43.394191761617144" lon="-4.341784791125526"><ele>48.5</ele><time>2026-05-01T14:48:27.001Z</time></trkpt><trkpt lat="43.394269123021076" lon="-4.34179944676834"><ele>49.333333333333336</ele><time>2026-05-01T14:48:28.001Z</time></trkpt><trkpt lat="43.39434721776786" lon="-4.341812746304961"><ele>50.166666666666664</ele><time>2026-05-01T14:48:29.001Z</time></trkpt><trkpt lat="43.39442382921906" lon="-4.341832844157513"><ele>51.0</ele><time>2026-05-01T14:48:30.001Z</time></trkpt><trkpt lat="43.394498134285996" lon="-4.341869483126946"><ele>51.0</ele><time>2026-05-01T14:48:31.001Z</time></trkpt><trkpt lat="43.39456891521697" lon="-4.341922595661802"><ele>51.0</ele><time>2026-05-01T14:48:32.001Z</time></trkpt><trkpt lat="43.39463574469128" lon="-4.3419902699500295"><ele>51.0</ele><time>2026-05-01T14:48:33.001Z</time></trkpt><trkpt lat="43.39469725276723" lon="-4.342071777758391"><ele>51.0</ele><time>2026-05-01T14:48:34.001Z</time></trkpt><trkpt lat="43.39474871030462" lon="-4.3421617745339836"><ele>51.0</ele><time>2026-05-01T14:48:35.001Z</time></trkpt><trkpt lat="43.39479367045797" lon="-4.342257490887325"><ele>51.0</ele><time>2026-05-01T14:48:36.001Z</time></trkpt><trkpt lat="43.39482148507531" lon="-4.342365970874157"><ele>52.0</ele><time>2026-05-01T14:48:37.001Z</time></trkpt><trkpt lat="43.3948420072757" lon="-4.342477474308091"><ele>53.0</ele><time>2026-05-01T14:48:38.001Z</time></trkpt><trkpt lat="43.394856927218655" lon="-4.342594713803167"><ele>54.0</ele><time>2026-05-01T14:48:39.001Z</time></trkpt><trkpt lat="43.39485750792685" lon="-4.342713268746999"><ele>55.0</ele><time>2026-05-01T14:48:40.001Z</time></trkpt><trkpt lat="43.394853629067924" lon="-4.3428319008910075"><ele>56.0</ele><time>2026-05-01T14:48:41.001Z</time></trkpt><trkpt lat="43.39484514958811" lon="-4.342950354399977"><ele>57.0</ele><time>2026-05-01T14:48:42.001Z</time></trkpt><trkpt lat="43.394842020069675" lon="-4.343071716992492"><ele>57.5</ele><time>2026-05-01T14:48:43.001Z</time></trkpt><trkpt lat="43.394841425139894" lon="-4.343189655161946"><ele>58.0</ele><time>2026-05-01T14:48:44.001Z</time></trkpt><trkpt lat="43.394835911682875" lon="-4.3433038008757485"><ele>58.5</ele><time>2026-05-01T14:48:45.001Z</time></trkpt><trkpt lat="43.39483207516173" lon="-4.343419679353897"><ele>59.0</ele><time>2026-05-01T14:48:46Z</time></trkpt><trkpt lat="43.394829584430745" lon="-4.343535636340722"><ele>59.5</ele><time>2026-05-01T14:48:47Z</time></trkpt><trkpt lat="43.39482384053885" lon="-4.343652720578333"><ele>60.0</ele><time>2026-05-01T14:48:48Z</time></trkpt><trkpt lat="43.39481945935686" lon="-4.343767651704377"><ele>60.0</ele><time>2026-05-01T14:48:49Z</time></trkpt><trkpt lat="43.394815374375305" lon="-4.343876984135067"><ele>60.0</ele><time>2026-05-01T14:48:50Z</time></trkpt><trkpt lat="43.39481069861106" lon="-4.3439876439885685"><ele>60.0</ele><time>2026-05-01T14:48:51Z</time></trkpt><trkpt lat="43.39480571921785" lon="-4.344099181255523"><ele>60.0</ele><time>2026-05-01T14:48:52Z</time></trkpt><trkpt lat="43.394800839025926" lon="-4.34420904753839"><ele>60.0</ele><time>2026-05-01T14:48:53Z</time></trkpt><trkpt lat="43.39479669159097" lon="-4.344315797699221"><ele>60.0</ele><time>2026-05-01T14:48:54Z</time></trkpt><trkpt lat="43.394792136691514" lon="-4.344426127815395"><ele>60.666666666666664</ele><time>2026-05-01T14:48:55Z</time></trkpt><trkpt lat="43.39478808307783" lon="-4.344536091013499"><ele>61.33333333333333</ele><time>2026-05-01T14:48:56Z</time></trkpt><trkpt lat="43.39478477783204" lon="-4.344644889280046"><ele>62.0</ele><time>2026-05-01T14:48:57Z</time></trkpt><trkpt lat="43.39478172060308" lon="-4.344751548053433"><ele>62.666666666666664</ele><time>2026-05-01T14:48:58Z</time></trkpt><trkpt lat="43.39477854145569" lon="-4.344863529209323"><ele>63.33333333333333</ele><time>2026-05-01T14:48:59Z</time></trkpt><trkpt lat="43.39477555327464" lon="-4.344976210425122"><ele>64.0</ele><time>2026-05-01T14:49:00Z</time></trkpt><trkpt lat="43.39477322749186" lon="-4.345087134658227"><ele>65.0</ele><time>2026-05-01T14:49:01Z</time></trkpt><trkpt lat="43.39477025187641" lon="-4.34519887663785"><ele>66.0</ele><time>2026-05-01T14:49:02Z</time></trkpt><trkpt lat="43.39476887495449" lon="-4.345314899739001"><ele>67.0</ele><time>2026-05-01T14:49:03Z</time></trkpt><trkpt lat="43.39477089352134" lon="-4.345430293567904"><ele>68.0</ele><time>2026-05-01T14:49:04Z</time></trkpt><trkpt lat="43.394775352811905" lon="-4.345546981547198"><ele>69.0</ele><time>2026-05-01T14:49:05Z</time></trkpt><trkpt lat="43.39477834724476" lon="-4.3456668474035345"><ele>70.0</ele><time>2026-05-01T14:49:06Z</time></trkpt><trkpt lat="43.394778814137304" lon="-4.345789901450578"><ele>70.2</ele><time>2026-05-01T14:49:07Z</time></trkpt><trkpt lat="43.39478103240823" lon="-4.345916570120944"><ele>70.4</ele><time>2026-05-01T14:49:08Z</time></trkpt><trkpt lat="43.39478553555988" lon="-4.34604391596135"><ele>70.6</ele><time>2026-05-01T14:49:09Z</time></trkpt><trkpt lat="43.39478977492552" lon="-4.34617244633868"><ele>70.8</ele><time>2026-05-01T14:49:10Z</time></trkpt><trkpt lat="43.39479389965806" lon="-4.346301117208008"><ele>71.0</ele><time>2026-05-01T14:49:11Z</time></trkpt><trkpt lat="43.39479684171926" lon="-4.346433897840162"><ele>72.2</ele><time>2026-05-01T14:49:12Z</time></trkpt><trkpt lat="43.394798304053836" lon="-4.3465687756223055"><ele>73.39999999999999</ele><time>2026-05-01T14:49:13Z</time></trkpt><trkpt lat="43.3948022957629" lon="-4.346702777049802"><ele>74.6</ele><time>2026-05-01T14:49:14Z</time></trkpt><trkpt lat="43.394804110894" lon="-4.346837417266158"><ele>75.8</ele><time>2026-05-01T14:49:15Z</time></trkpt><trkpt lat="43.394809570190574" lon="-4.346972773054303"><ele>77.0</ele><time>2026-05-01T14:49:16Z</time></trkpt><trkpt lat="43.3948130477662" lon="-4.347108919402981"><ele>77.4</ele><time>2026-05-01T14:49:17Z</time></trkpt><trkpt lat="43.39481526897029" lon="-4.347244762670688"><ele>77.80000000000001</ele><time>2026-05-01T14:49:18Z</time></trkpt><trkpt lat="43.39481552976689" lon="-4.347381731224441"><ele>78.2</ele><time>2026-05-01T14:49:19Z</time></trkpt><trkpt lat="43.39481109210942" lon="-4.3475185152039435"><ele>78.60000000000001</ele><time>2026-05-01T14:49:20Z</time></trkpt><trkpt lat="43.39480929761324" lon="-4.347655888171708"><ele>79.0</ele><time>2026-05-01T14:49:21Z</time></trkpt><trkpt lat="43.39481071104777" lon="-4.347796608598835"><ele>79.0</ele><time>2026-05-01T14:49:22Z</time></trkpt><trkpt lat="43.394811635737796" lon="-4.347940070534837"><ele>79.0</ele><time>2026-05-01T14:49:23Z</time></trkpt><trkpt lat="43.39481426967729" lon="-4.348089025190421"><ele>79.0</ele><time>2026-05-01T14:49:24Z</time></trkpt><trkpt lat="43.394831370454185" lon="-4.348249287140718"><ele>79.0</ele><time>2026-05-01T14:49:25Z</time></trkpt><trkpt lat="43.3948619180115" lon="-4.348363145584441"><ele>79.0</ele><time>2026-05-01T14:49:26Z</time></trkpt><trkpt lat="43.394904736372965" lon="-4.348459800081092"><ele>79.75</ele><time>2026-05-01T14:49:27Z</time></trkpt><trkpt lat="43.39498901413858" lon="-4.348629088517559"><ele>80.5</ele><time>2026-05-01T14:49:28Z</time></trkpt><trkpt lat="43.39487261707546" lon="-4.3488135932210845"><ele>81.25</ele><time>2026-05-01T14:49:29Z</time></trkpt><trkpt lat="43.39489442216662" lon="-4.34895475280438"><ele>82.0</ele><time>2026-05-01T14:49:30Z</time></trkpt><trkpt lat="43.39491365888658" lon="-4.349096487054206"><ele>82.6</ele><time>2026-05-01T14:49:31Z</time></trkpt><trkpt lat="43.39493099520591" lon="-4.349242322975513"><ele>83.19999999999999</ele><time>2026-05-01T14:49:32Z</time></trkpt><trkpt lat="43.3949508227726" lon="-4.349379901409965"><ele>83.8</ele><time>2026-05-01T14:49:33Z</time></trkpt><trkpt lat="43.39497341611392" lon="-4.349508580082839"><ele>84.4</ele><time>2026-05-01T14:49:34Z</time></trkpt><trkpt lat="43.3949931299902" lon="-4.349647366107629"><ele>85.0</ele><time>2026-05-01T14:49:35Z</time></trkpt><trkpt lat="43.39501358969583" lon="-4.349789041564214"><ele>85.2</ele><time>2026-05-01T14:49:36Z</time></trkpt><trkpt lat="43.39504037768655" lon="-4.34993239700765"><ele>85.4</ele><time>2026-05-01T14:49:37Z</time></trkpt><trkpt lat="43.39507545145679" lon="-4.350060147304683"><ele>85.6</ele><time>2026-05-01T14:49:38Z</time></trkpt><trkpt lat="43.39511342077778" lon="-4.350178233946054"><ele>85.8</ele><time>2026-05-01T14:49:39Z</time></trkpt><trkpt lat="43.39515030968495" lon="-4.350274925153781"><ele>86.0</ele><time>2026-05-01T14:49:40Z</time></trkpt><trkpt lat="43.39518425858296" lon="-4.350366081295856"><ele>86.0</ele><time>2026-05-01T14:49:41Z</time></trkpt><trkpt lat="43.39526380621437" lon="-4.350490662295403"><ele>86.0</ele><time>2026-05-01T14:49:43Z</time></trkpt><trkpt lat="43.395344798398646" lon="-4.350588621291129"><ele>86.0</ele><time>2026-05-01T14:49:45Z</time></trkpt><trkpt lat="43.39542354112703" lon="-4.35065862766902"><ele>86.0</ele><time>2026-05-01T14:49:47Z</time></trkpt><trkpt lat="43.395491950962544" lon="-4.35070826285098"><ele>86.0</ele><time>2026-05-01T14:49:49Z</time></trkpt><trkpt lat="43.395547238600194" lon="-4.350763709589099"><ele>86.16666666666667</ele><time>2026-05-01T14:49:51Z</time></trkpt><trkpt lat="43.39560011824521" lon="-4.350812676019763"><ele>86.33333333333334</ele><time>2026-05-01T14:49:53Z</time></trkpt><trkpt lat="43.39565749581819" lon="-4.350851556542705"><ele>86.5</ele><time>2026-05-01T14:49:55Z</time></trkpt><trkpt lat="43.395730224644055" lon="-4.35091024630525"><ele>86.66666666666667</ele><time>2026-05-01T14:49:57Z</time></trkpt><trkpt lat="43.39580549704959" lon="-4.350968350338063"><ele>86.83333333333333</ele><time>2026-05-01T14:49:59Z</time></trkpt><trkpt lat="43.39588429489973" lon="-4.351002626230148"><ele>87.0</ele><time>2026-05-01T14:50:01Z</time></trkpt><trkpt lat="43.395961647550045" lon="-4.351033327716662"><ele>87.0</ele><time>2026-05-01T14:50:03Z</time></trkpt><trkpt lat="43.39603533682334" lon="-4.351051131016457"><ele>87.0</ele><time>2026-05-01T14:50:05Z</time></trkpt><trkpt lat="43.396103044496684" lon="-4.351055872370547"><ele>87.0</ele><time>2026-05-01T14:50:08Z</time></trkpt><trkpt lat="43.39617196234563" lon="-4.351042920428008"><ele>87.0</ele><time>2026-05-01T14:50:11Z</time></trkpt><trkpt lat="43.39624238339541" lon="-4.351021897291805"><ele>87.0</ele><time>2026-05-01T14:50:14Z</time></trkpt><trkpt lat="43.39630308720645" lon="-4.350986014703827"><ele>87.0</ele><time>2026-05-01T14:50:17Z</time></trkpt><trkpt lat="43.39636264452881" lon="-4.350946744865789"><ele>87.0</ele><time>2026-05-01T14:50:21Z</time></trkpt><trkpt lat="43.39642374297601" lon="-4.350908303794576"><ele>85.33333333333333</ele><time>2026-05-01T14:50:26Z</time></trkpt><trkpt lat="43.39649540314319" lon="-4.350864010304047"><ele>83.66666666666667</ele><time>2026-05-01T14:50:29Z</time></trkpt><trkpt lat="43.396588976952906" lon="-4.350804940713746"><ele>82.0</ele><time>2026-05-01T14:50:31Z</time></trkpt><trkpt lat="43.39664715304304" lon="-4.3507634822207"><ele>80.33333333333334</ele><time>2026-05-01T14:50:32Z</time></trkpt><trkpt lat="43.396714146677255" lon="-4.350720309551813"><ele>78.66666666666667</ele><time>2026-05-01T14:50:33Z</time></trkpt><trkpt lat="43.39678519080708" lon="-4.350676432435145"><ele>77.0</ele><time>2026-05-01T14:50:34Z</time></trkpt><trkpt lat="43.396860642391516" lon="-4.350631899072109"><ele>77.0</ele><time>2026-05-01T14:50:35Z</time></trkpt><trkpt lat="43.39694043277159" lon="-4.35059149954885"><ele>77.0</ele><time>2026-05-01T14:50:36Z</time></trkpt><trkpt lat="43.39702204929221" lon="-4.35055687923195"><ele>77.0</ele><time>2026-05-01T14:50:37Z</time></trkpt><trkpt lat="43.39710641559655" lon="-4.350534362866367"><ele>77.0</ele><time>2026-05-01T14:50:38Z</time></trkpt><trkpt lat="43.397193181684415" lon="-4.350525466747755"><ele>77.0</ele><time>2026-05-01T14:50:39Z</time></trkpt><trkpt lat="43.397282069585366" lon="-4.350531465220451"><ele>77.0</ele><time>2026-05-01T14:50:40Z</time></trkpt><trkpt lat="43.39737365475206" lon="-4.350542891499586"><ele>76.6</ele><time>2026-05-01T14:50:41Z</time></trkpt><trkpt lat="43.39746472637652" lon="-4.3505490354575285"><ele>76.2</ele><time>2026-05-01T14:50:42Z</time></trkpt><trkpt lat="43.39755507483028" lon="-4.35055113142719"><ele>75.8</ele><time>2026-05-01T14:50:43Z</time></trkpt><trkpt lat="43.397647059987065" lon="-4.350557029843684"><ele>75.4</ele><time>2026-05-01T14:50:44Z</time></trkpt><trkpt lat="43.39773695207988" lon="-4.350562900931868"><ele>75.0</ele><time>2026-05-01T14:50:45Z</time></trkpt><trkpt lat="43.397826357532125" lon="-4.350564408090592"><ele>75.0</ele><time>2026-05-01T14:50:46Z</time></trkpt><trkpt lat="43.3979147437826" lon="-4.3505557095369705"><ele>75.0</ele><time>2026-05-01T14:50:47Z</time></trkpt><trkpt lat="43.39799833598029" lon="-4.350532394790139"><ele>75.0</ele><time>2026-05-01T14:50:48Z</time></trkpt><trkpt lat="43.39808233062269" lon="-4.350495574150176"><ele>75.0</ele><time>2026-05-01T14:50:49Z</time></trkpt><trkpt lat="43.39816580149131" lon="-4.350453605743163"><ele>75.0</ele><time>2026-05-01T14:50:50Z</time></trkpt><trkpt lat="43.39824662037424" lon="-4.350407950788446"><ele>75.0</ele><time>2026-05-01T14:50:51Z</time></trkpt><trkpt lat="43.39831900804764" lon="-4.3503689545324455"><ele>75.33333333333333</ele><time>2026-05-01T14:50:52Z</time></trkpt><trkpt lat="43.39838098593529" lon="-4.350342440147618"><ele>75.66666666666667</ele><time>2026-05-01T14:50:53Z</time></trkpt><trkpt lat="43.398490391628776" lon="-4.350347525904778"><ele>76.0</ele><time>2026-05-01T14:50:55Z</time></trkpt><trkpt lat="43.398577022526226" lon="-4.350429773869486"><ele>76.33333333333334</ele><time>2026-05-01T14:50:57Z</time></trkpt><trkpt lat="43.398635916246604" lon="-4.350467734794146"><ele>76.66666666666667</ele><time>2026-05-01T14:50:59Z</time></trkpt><trkpt lat="43.398715644729116" lon="-4.350511153391233"><ele>77.0</ele><time>2026-05-01T14:51:01Z</time></trkpt><trkpt lat="43.39882466419125" lon="-4.3505610270738355"><ele>77.33333333333334</ele><time>2026-05-01T14:51:03Z</time></trkpt><trkpt lat="43.39888718505461" lon="-4.350593876711067"><ele>77.66666666666667</ele><time>2026-05-01T14:51:04Z</time></trkpt><trkpt lat="43.39895448616888" lon="-4.350635132487097"><ele>78.0</ele><time>2026-05-01T14:51:05Z</time></trkpt><trkpt lat="43.399018126362606" lon="-4.350679930762366"><ele>78.33333333333333</ele><time>2026-05-01T14:51:06Z</time></trkpt><trkpt lat="43.39907425835063" lon="-4.350723781128429"><ele>78.66666666666666</ele><time>2026-05-01T14:51:07Z</time></trkpt><trkpt lat="43.39913037024175" lon="-4.350767290305489"><ele>79.0</ele><time>2026-05-01T14:51:08Z</time></trkpt><trkpt lat="43.3992431064257" lon="-4.350846999000622"><ele>79.0</ele><time>2026-05-01T14:51:10Z</time></trkpt><trkpt lat="43.399296337634205" lon="-4.350897177468977"><ele>79.0</ele><time>2026-05-01T14:51:11Z</time></trkpt><trkpt lat="43.399344434794806" lon="-4.3509551765799115"><ele>79.0</ele><time>2026-05-01T14:51:12Z</time></trkpt><trkpt lat="43.39942571294122" lon="-4.351088611658637"><ele>79.0</ele><time>2026-05-01T14:51:14Z</time></trkpt><trkpt lat="43.39949656644127" lon="-4.351199678524287"><ele>79.0</ele><time>2026-05-01T14:51:16Z</time></trkpt><trkpt lat="43.39955702270868" lon="-4.3512587882266445"><ele>79.0</ele><time>2026-05-01T14:51:18Z</time></trkpt><trkpt lat="43.3996259231016" lon="-4.351286374932529"><ele>78.14285714285715</ele><time>2026-05-01T14:51:21Z</time></trkpt><trkpt lat="43.39970235458751" lon="-4.351293713955145"><ele>77.28571428571429</ele><time>2026-05-01T14:51:24Z</time></trkpt><trkpt lat="43.39977076067501" lon="-4.3512857774724365"><ele>76.42857142857143</ele><time>2026-05-01T14:51:26Z</time></trkpt><trkpt lat="43.39984236762261" lon="-4.351274351489646"><ele>75.57142857142858</ele><time>2026-05-01T14:51:28Z</time></trkpt><trkpt lat="43.399916006310335" lon="-4.35126064654459"><ele>74.71428571428572</ele><time>2026-05-01T14:51:30Z</time></trkpt><trkpt lat="43.39999045103334" lon="-4.3512422981753875"><ele>73.85714285714286</ele><time>2026-05-01T14:51:32Z</time></trkpt><trkpt lat="43.4000561713331" lon="-4.351215865968123"><ele>73.0</ele><time>2026-05-01T14:51:34Z</time></trkpt><trkpt lat="43.400119040972356" lon="-4.35117145914853"><ele>73.0</ele><time>2026-05-01T14:51:36Z</time></trkpt><trkpt lat="43.40016851839073" lon="-4.351105628794874"><ele>73.0</ele><time>2026-05-01T14:51:38Z</time></trkpt><trkpt lat="43.40021022440237" lon="-4.351039513626955"><ele>73.0</ele><time>2026-05-01T14:51:40Z</time></trkpt><trkpt lat="43.400248911755874" lon="-4.350968746634048"><ele>73.0</ele><time>2026-05-01T14:51:42Z</time></trkpt><trkpt lat="43.40029164522621" lon="-4.350873708697211"><ele>73.0</ele><time>2026-05-01T14:51:44Z</time></trkpt><trkpt lat="43.40034544489637" lon="-4.350762493318355"><ele>73.0</ele><time>2026-05-01T14:51:46Z</time></trkpt><trkpt lat="43.40039565450805" lon="-4.35067705558905"><ele>73.0</ele><time>2026-05-01T14:51:48Z</time></trkpt><trkpt lat="43.40047453388914" lon="-4.350636051208216"><ele>73.0</ele><time>2026-05-01T14:51:50Z</time></trkpt><trkpt lat="43.40057019901988" lon="-4.350630844204166"><ele>73.0</ele><time>2026-05-01T14:51:52Z</time></trkpt><trkpt lat="43.40064742020937" lon="-4.350659287519359"><ele>73.0</ele><time>2026-05-01T14:51:54Z</time></trkpt><trkpt lat="43.40072127365612" lon="-4.350680984153642"><ele>73.0</ele><time>2026-05-01T14:51:56Z</time></trkpt><trkpt lat="43.40078774048676" lon="-4.3506985165048935"><ele>73.0</ele><time>2026-05-01T14:51:58Z</time></trkpt><trkpt lat="43.40086616973437" lon="-4.350715465190726"><ele>69.8</ele><time>2026-05-01T14:52:00Z</time></trkpt><trkpt lat="43.400996909431846" lon="-4.350748788071242"><ele>66.6</ele><time>2026-05-01T14:52:02Z</time></trkpt><trkpt lat="43.40108334769531" lon="-4.350791855188984"><ele>63.400000000000006</ele><time>2026-05-01T14:52:03Z</time></trkpt><trkpt lat="43.401176941949736" lon="-4.350860019883877"><ele>60.2</ele><time>2026-05-01T14:52:04Z</time></trkpt><trkpt lat="43.401260845817255" lon="-4.3509317744945255"><ele>57.0</ele><time>2026-05-01T14:52:05Z</time></trkpt><trkpt lat="43.40134374340522" lon="-4.351004271178831"><ele>55.2</ele><time>2026-05-01T14:52:06Z</time></trkpt><trkpt lat="43.40143561843851" lon="-4.351035184352213"><ele>53.400000000000006</ele><time>2026-05-01T14:52:07Z</time></trkpt><trkpt lat="43.40152757540089" lon="-4.351107326277491"><ele>51.599999999999994</ele><time>2026-05-01T14:52:08Z</time></trkpt><trkpt lat="43.40162593485958" lon="-4.351149558342513"><ele>49.8</ele><time>2026-05-01T14:52:09Z</time></trkpt><trkpt lat="43.40172140907763" lon="-4.351207945664489"><ele>48.0</ele><time>2026-05-01T14:52:10Z</time></trkpt><trkpt lat="43.401811635917475" lon="-4.3512760684774126"><ele>48.0</ele><time>2026-05-01T14:52:11Z</time></trkpt><trkpt lat="43.40189732090562" lon="-4.351359020746624"><ele>48.0</ele><time>2026-05-01T14:52:12Z</time></trkpt><trkpt lat="43.40198693507134" lon="-4.3514452356683675"><ele>48.0</ele><time>2026-05-01T14:52:13Z</time></trkpt><trkpt lat="43.40207159243712" lon="-4.351513957219087"><ele>48.0</ele><time>2026-05-01T14:52:14Z</time></trkpt><trkpt lat="43.402149764753936" lon="-4.351592423757834"><ele>48.0</ele><time>2026-05-01T14:52:15Z</time></trkpt><trkpt lat="43.40221117161174" lon="-4.351684738209396"><ele>46.166666666666664</ele><time>2026-05-01T14:52:16Z</time></trkpt><trkpt lat="43.40227444831937" lon="-4.351770798154363"><ele>44.333333333333336</ele><time>2026-05-01T14:52:17Z</time></trkpt><trkpt lat="43.40233623514892" lon="-4.351849403834266"><ele>42.5</ele><time>2026-05-01T14:52:18Z</time></trkpt><trkpt lat="43.402399014574016" lon="-4.3519312691794365"><ele>40.66666666666667</ele><time>2026-05-01T14:52:19Z</time></trkpt><trkpt lat="43.4024565512583" lon="-4.352008867680051"><ele>38.833333333333336</ele><time>2026-05-01T14:52:20Z</time></trkpt><trkpt lat="43.4025047532886" lon="-4.352098568652795"><ele>37.0</ele><time>2026-05-01T14:52:21Z</time></trkpt><trkpt lat="43.40253147254059" lon="-4.352191573302312"><ele>36.833333333333336</ele><time>2026-05-01T14:52:22Z</time></trkpt><trkpt lat="43.40254982979116" lon="-4.352291196009698"><ele>36.66666666666667</ele><time>2026-05-01T14:52:23Z</time></trkpt><trkpt lat="43.402563629077434" lon="-4.352395057185259"><ele>36.5</ele><time>2026-05-01T14:52:24Z</time></trkpt><trkpt lat="43.402571868773684" lon="-4.352493711583769"><ele>36.333333333333336</ele><time>2026-05-01T14:52:25Z</time></trkpt><trkpt lat="43.40257714508067" lon="-4.352651691364193"><ele>36.166666666666664</ele><time>2026-05-01T14:52:27Z</time></trkpt><trkpt lat="43.40255851951296" lon="-4.35273715869665"><ele>36.0</ele><time>2026-05-01T14:52:28Z</time></trkpt><trkpt lat="43.40249972795032" lon="-4.3528626403738"><ele>36.0</ele><time>2026-05-01T14:52:30Z</time></trkpt><trkpt lat="43.402453324118646" lon="-4.352953860906617"><ele>36.0</ele><time>2026-05-01T14:52:32Z</time></trkpt><trkpt lat="43.40241087549124" lon="-4.35303283151075"><ele>36.0</ele><time>2026-05-01T14:52:34Z</time></trkpt><trkpt lat="43.402351115207836" lon="-4.353105545342379"><ele>36.0</ele><time>2026-05-01T14:52:36Z</time></trkpt><trkpt lat="43.402325969662535" lon="-4.353201367112039"><ele>36.0</ele><time>2026-05-01T14:52:38Z</time></trkpt><trkpt lat="43.40227325679281" lon="-4.353271235284469"><ele>36.0</ele><time>2026-05-01T14:52:40Z</time></trkpt><trkpt lat="43.40224017382195" lon="-4.353360985256319"><ele>35.833333333333336</ele><time>2026-05-01T14:52:42Z</time></trkpt><trkpt lat="43.40220777009728" lon="-4.353447777863307"><ele>35.666666666666664</ele><time>2026-05-01T14:52:44Z</time></trkpt><trkpt lat="43.402165685077435" lon="-4.353524665456039"><ele>35.5</ele><time>2026-05-01T14:52:46Z</time></trkpt><trkpt lat="43.402105348752336" lon="-4.353616649838274"><ele>35.33333333333333</ele><time>2026-05-01T14:52:49Z</time></trkpt><trkpt lat="43.40204620620173" lon="-4.353685013048597"><ele>35.166666666666664</ele><time>2026-05-01T14:53:59Z</time></trkpt><trkpt lat="43.4019610698326" lon="-4.35376498766263"><ele>35.0</ele><time>2026-05-01T14:54:01Z</time></trkpt><trkpt lat="43.40184666943945" lon="-4.353802611659346"><ele>33.4</ele><time>2026-05-01T14:54:03Z</time></trkpt><trkpt lat="43.401744143704214" lon="-4.353801570265819"><ele>31.8</ele><time>2026-05-01T14:54:05Z</time></trkpt><trkpt lat="43.40165669989341" lon="-4.3537634120451605"><ele>30.200000000000003</ele><time>2026-05-01T14:54:07Z</time></trkpt><trkpt lat="43.4015939728295" lon="-4.353696951164238"><ele>28.6</ele><time>2026-05-01T14:54:09Z</time></trkpt><trkpt lat="43.4015173245608" lon="-4.353633701064745"><ele>27.0</ele><time>2026-05-01T14:54:12Z</time></trkpt><trkpt lat="43.40162767212164" lon="-4.353726040194772"><ele>27.0</ele><time>2026-05-01T14:54:32Z</time></trkpt><trkpt lat="43.40159921233685" lon="-4.35392829324029"><ele>27.0</ele><time>2026-05-01T14:57:46Z</time></trkpt><trkpt lat="43.40157924655884" lon="-4.353843538870025"><ele>27.0</ele><time>2026-05-01T15:12:04.999Z</time></trkpt><trkpt lat="43.401520219226036" lon="-4.3537954348685055"><ele>27.0</ele><time>2026-05-01T15:12:09Z</time></trkpt><trkpt lat="43.401487893397885" lon="-4.353701420672604"><ele>27.0</ele><time>2026-05-01T15:12:12Z</time></trkpt><trkpt lat="43.401487379099336" lon="-4.35360665283431"><ele>27.0</ele><time>2026-05-01T15:12:15Z</time></trkpt><trkpt lat="43.40148879056086" lon="-4.353703813070991"><ele>27.0</ele><time>2026-05-01T15:12:44Z</time></trkpt><trkpt lat="43.40149129640211" lon="-4.3536033726965515"><ele>27.000000000000004</ele><time>2026-05-01T15:12:53Z</time></trkpt><trkpt lat="43.40157467993589" lon="-4.353616478276092"><ele>27.000000000000004</ele><time>2026-05-01T15:12:55Z</time></trkpt><trkpt lat="43.40165322176388" lon="-4.353687631093267"><ele>27.0</ele><time>2026-05-01T15:12:57Z</time></trkpt><trkpt lat="43.401749094673626" lon="-4.353752160665461"><ele>27.0</ele><time>2026-05-01T15:12:59Z</time></trkpt><trkpt lat="43.401859814934696" lon="-4.3537703639104155"><ele>27.0</ele><time>2026-05-01T15:13:01Z</time></trkpt><trkpt lat="43.40197742908826" lon="-4.353716975596215"><ele>27.000000000000004</ele><time>2026-05-01T15:13:03Z</time></trkpt><trkpt lat="43.40207035671819" lon="-4.353623195476245"><ele>27.000000000000004</ele><time>2026-05-01T15:13:05Z</time></trkpt><trkpt lat="43.40213870632316" lon="-4.3535131769739275"><ele>27.0</ele><time>2026-05-01T15:13:07Z</time></trkpt><trkpt lat="43.40219597978204" lon="-4.353419072356793"><ele>27.0</ele><time>2026-05-01T15:13:09Z</time></trkpt><trkpt lat="43.40224728565774" lon="-4.35331556615243"><ele>28.333333333333332</ele><time>2026-05-01T15:13:11Z</time></trkpt><trkpt lat="43.402290674746176" lon="-4.353222008563449"><ele>29.666666666666664</ele><time>2026-05-01T15:13:13Z</time></trkpt><trkpt lat="43.4023408412207" lon="-4.353124355653631"><ele>31.0</ele><time>2026-05-01T15:13:15Z</time></trkpt><trkpt lat="43.40239914967421" lon="-4.3530164126872455"><ele>32.33333333333333</ele><time>2026-05-01T15:13:17Z</time></trkpt><trkpt lat="43.402452858257405" lon="-4.352951255198407"><ele>33.666666666666664</ele><time>2026-05-01T15:13:20Z</time></trkpt><trkpt lat="43.40247081003983" lon="-4.352864684867132"><ele>35.0</ele><time>2026-05-01T15:13:47Z</time></trkpt><trkpt lat="43.40253294544245" lon="-4.352785631820093"><ele>35.142857142857146</ele><time>2026-05-01T15:13:50Z</time></trkpt><trkpt lat="43.40247962228235" lon="-4.35285953274795"><ele>35.285714285714285</ele><time>2026-05-01T15:14:09.999Z</time></trkpt><trkpt lat="43.4024329278858" lon="-4.352927993872104"><ele>35.42857142857143</ele><time>2026-05-01T15:14:13.999Z</time></trkpt><trkpt lat="43.40239210748634" lon="-4.353021745739927"><ele>35.57142857142857</ele><time>2026-05-01T15:17:21Z</time></trkpt><trkpt lat="43.40243088748771" lon="-4.352945575544574"><ele>35.714285714285715</ele><time>2026-05-01T15:17:32.001Z</time></trkpt><trkpt lat="43.40248349686932" lon="-4.352863489625709"><ele>35.85714285714286</ele><time>2026-05-01T15:18:14Z</time></trkpt><trkpt lat="43.40253504643667" lon="-4.352785965583951"><ele>36.0</ele><time>2026-05-01T15:18:18Z</time></trkpt><trkpt lat="43.40257846916145" lon="-4.352709726127536"><ele>36.00000000000001</ele><time>2026-05-01T15:18:22Z</time></trkpt><trkpt lat="43.402598948262174" lon="-4.352624104158724"><ele>36.0</ele><time>2026-05-01T15:18:26Z</time></trkpt><trkpt lat="43.40258827996631" lon="-4.352530094283457"><ele>36.0</ele><time>2026-05-01T15:18:30Z</time></trkpt><trkpt lat="43.402566115852785" lon="-4.352431189195777"><ele>36.0</ele><time>2026-05-01T15:18:34Z</time></trkpt><trkpt lat="43.40256523131044" lon="-4.3523442372680226"><ele>36.0</ele><time>2026-05-01T15:18:37Z</time></trkpt><trkpt lat="43.40254362609276" lon="-4.352242176331424"><ele>36.00000000000001</ele><time>2026-05-01T15:18:41Z</time></trkpt><trkpt lat="43.402518784308576" lon="-4.352159299258757"><ele>36.0</ele><time>2026-05-01T15:18:44Z</time></trkpt><trkpt lat="43.40248299650916" lon="-4.352077006407473"><ele>36.142857142857146</ele><time>2026-05-01T15:18:47Z</time></trkpt><trkpt lat="43.40244062193253" lon="-4.351990053686292"><ele>36.285714285714285</ele><time>2026-05-01T15:18:50Z</time></trkpt><trkpt lat="43.40239548284652" lon="-4.351918194721139"><ele>36.42857142857143</ele><time>2026-05-01T15:18:53Z</time></trkpt><trkpt lat="43.402345770355616" lon="-4.351851716082172"><ele>36.57142857142857</ele><time>2026-05-01T15:18:56Z</time></trkpt><trkpt lat="43.40229548881941" lon="-4.351798515082173"><ele>36.714285714285715</ele><time>2026-05-01T15:19:14.001Z</time></trkpt><trkpt lat="43.4022453271322" lon="-4.351738894978301"><ele>36.85714285714286</ele><time>2026-05-01T15:19:22.001Z</time></trkpt><trkpt lat="43.40220288214013" lon="-4.351671307597541"><ele>37.0</ele><time>2026-05-01T15:19:25.001Z</time></trkpt><trkpt lat="43.402163791214456" lon="-4.351585325281138"><ele>38.400000000000006</ele><time>2026-05-01T15:19:28.001Z</time></trkpt><trkpt lat="43.40209727085096" lon="-4.351535485892993"><ele>39.800000000000004</ele><time>2026-05-01T15:19:31.001Z</time></trkpt><trkpt lat="43.402003662430175" lon="-4.351438120340778"><ele>41.2</ele><time>2026-05-01T15:19:34.001Z</time></trkpt><trkpt lat="43.40187783644537" lon="-4.351373133048556"><ele>42.6</ele><time>2026-05-01T15:19:36.001Z</time></trkpt><trkpt lat="43.401818001590144" lon="-4.351314635572126"><ele>44.0</ele><time>2026-05-01T15:19:37.001Z</time></trkpt><trkpt lat="43.40175669244008" lon="-4.351257378070687"><ele>44.800000000000004</ele><time>2026-05-01T15:19:38.001Z</time></trkpt><trkpt lat="43.401696034965475" lon="-4.351217678882263"><ele>45.6</ele><time>2026-05-01T15:19:39.001Z</time></trkpt><trkpt lat="43.401627109994635" lon="-4.351185956694211"><ele>46.4</ele><time>2026-05-01T15:19:40.001Z</time></trkpt><trkpt lat="43.40157289617043" lon="-4.351136223400063"><ele>47.2</ele><time>2026-05-01T15:19:41.001Z</time></trkpt><trkpt lat="43.401446839705144" lon="-4.351089411422123"><ele>48.0</ele><time>2026-05-01T15:19:43.001Z</time></trkpt><trkpt lat="43.401334176106516" lon="-4.351024172336733"><ele>49.5</ele><time>2026-05-01T15:19:45.001Z</time></trkpt><trkpt lat="43.40128243761394" lon="-4.350966946864084"><ele>51.0</ele><time>2026-05-01T15:19:46.001Z</time></trkpt><trkpt lat="43.401172208441544" lon="-4.350879907979731"><ele>52.5</ele><time>2026-05-01T15:19:48.001Z</time></trkpt><trkpt lat="43.401110997373" lon="-4.350834252042674"><ele>54.0</ele><time>2026-05-01T15:19:49.001Z</time></trkpt><trkpt lat="43.40104877428837" lon="-4.350787689598828"><ele>55.5</ele><time>2026-05-01T15:19:50.001Z</time></trkpt><trkpt lat="43.40098103932174" lon="-4.350759568026155"><ele>57.0</ele><time>2026-05-01T15:19:51.001Z</time></trkpt><trkpt lat="43.40091005481897" lon="-4.350746688067507"><ele>57.0</ele><time>2026-05-01T15:19:52.001Z</time></trkpt><trkpt lat="43.40084168189491" lon="-4.350723765345682"><ele>57.0</ele><time>2026-05-01T15:19:53.001Z</time></trkpt><trkpt lat="43.40077404117408" lon="-4.350712708385548"><ele>57.0</ele><time>2026-05-01T15:19:54.001Z</time></trkpt><trkpt lat="43.40071038313077" lon="-4.350693917311351"><ele>57.0</ele><time>2026-05-01T15:19:55.001Z</time></trkpt><trkpt lat="43.400605445643016" lon="-4.350665514613475"><ele>57.0</ele><time>2026-05-01T15:19:57.001Z</time></trkpt><trkpt lat="43.40049448074779" lon="-4.350669136798889"><ele>57.0</ele><time>2026-05-01T15:19:59.001Z</time></trkpt><trkpt lat="43.40040158866684" lon="-4.350699031521322"><ele>60.2</ele><time>2026-05-01T15:20:01.001Z</time></trkpt><trkpt lat="43.4003344723707" lon="-4.3508017687268286"><ele>63.400000000000006</ele><time>2026-05-01T15:20:03.001Z</time></trkpt><trkpt lat="43.400276312885296" lon="-4.350937832766855"><ele>66.6</ele><time>2026-05-01T15:20:05.001Z</time></trkpt><trkpt lat="43.40020527184033" lon="-4.3510696071045585"><ele>69.8</ele><time>2026-05-01T15:20:07.001Z</time></trkpt><trkpt lat="43.40016579299532" lon="-4.351137802856048"><ele>73.0</ele><time>2026-05-01T15:20:08.001Z</time></trkpt><trkpt lat="43.400115507628065" lon="-4.351198705169762"><ele>73.0</ele><time>2026-05-01T15:20:09.001Z</time></trkpt><trkpt lat="43.400052012474205" lon="-4.351247474264105"><ele>73.0</ele><time>2026-05-01T15:20:10.001Z</time></trkpt><trkpt lat="43.39998619018993" lon="-4.351272255795614"><ele>73.0</ele><time>2026-05-01T15:20:11.001Z</time></trkpt><trkpt lat="43.399918716354804" lon="-4.351283540555953"><ele>73.0</ele><time>2026-05-01T15:20:12.001Z</time></trkpt><trkpt lat="43.39985008491063" lon="-4.35128686910267"><ele>73.0</ele><time>2026-05-01T15:20:13.001Z</time></trkpt><trkpt lat="43.399781657901805" lon="-4.351295504396067"><ele>73.0</ele><time>2026-05-01T15:20:14.001Z</time></trkpt><trkpt lat="43.39967277396294" lon="-4.351316678664803"><ele>74.2</ele><time>2026-05-01T15:20:16Z</time></trkpt><trkpt lat="43.399593234722644" lon="-4.3513140242865616"><ele>75.4</ele><time>2026-05-01T15:20:18Z</time></trkpt><trkpt lat="43.399519406660936" lon="-4.351266575312229"><ele>76.60000000000001</ele><time>2026-05-01T15:20:20Z</time></trkpt><trkpt lat="43.39945572512048" lon="-4.351177816679229"><ele>77.8</ele><time>2026-05-01T15:20:22Z</time></trkpt><trkpt lat="43.39938520898836" lon="-4.35105474149672"><ele>79.0</ele><time>2026-05-01T15:20:24Z</time></trkpt><trkpt lat="43.39930377659408" lon="-4.350927941760174"><ele>79.0</ele><time>2026-05-01T15:20:26Z</time></trkpt><trkpt lat="43.399262191732625" lon="-4.350859313648809"><ele>79.0</ele><time>2026-05-01T15:20:27Z</time></trkpt><trkpt lat="43.39920039634237" lon="-4.350808991816869"><ele>79.0</ele><time>2026-05-01T15:20:28Z</time></trkpt><trkpt lat="43.3991301504275" lon="-4.350771953216544"><ele>79.0</ele><time>2026-05-01T15:20:29Z</time></trkpt><trkpt lat="43.399058441774066" lon="-4.350735925375934"><ele>79.0</ele><time>2026-05-01T15:20:30Z</time></trkpt><trkpt lat="43.39898694209795" lon="-4.350689681488954"><ele>79.0</ele><time>2026-05-01T15:20:31Z</time></trkpt><trkpt lat="43.39891246929999" lon="-4.350633315812665"><ele>79.0</ele><time>2026-05-01T15:20:32Z</time></trkpt><trkpt lat="43.398834900788195" lon="-4.350582520083771"><ele>79.0</ele><time>2026-05-01T15:20:33Z</time></trkpt><trkpt lat="43.39875086976621" lon="-4.350528129973797"><ele>79.0</ele><time>2026-05-01T15:20:34Z</time></trkpt><trkpt lat="43.39867660791369" lon="-4.350481236136033"><ele>79.0</ele><time>2026-05-01T15:20:35Z</time></trkpt><trkpt lat="43.39860614719822" lon="-4.350441087470055"><ele>79.0</ele><time>2026-05-01T15:20:36Z</time></trkpt><trkpt lat="43.398539902910876" lon="-4.350411706713963"><ele>79.0</ele><time>2026-05-01T15:20:37Z</time></trkpt><trkpt lat="43.398455208065855" lon="-4.350347352797776"><ele>78.33333333333333</ele><time>2026-05-01T15:20:39Z</time></trkpt><trkpt lat="43.398367374157374" lon="-4.350359303680146"><ele>77.66666666666666</ele><time>2026-05-01T15:20:41Z</time></trkpt><trkpt lat="43.398260013048734" lon="-4.350418018148702"><ele>77.0</ele><time>2026-05-01T15:20:43Z</time></trkpt><trkpt lat="43.398197223162974" lon="-4.350445390501129"><ele>76.33333333333333</ele><time>2026-05-01T15:20:44Z</time></trkpt><trkpt lat="43.398119855384124" lon="-4.350474458510655"><ele>75.66666666666667</ele><time>2026-05-01T15:20:45Z</time></trkpt><trkpt lat="43.39804690159826" lon="-4.350511876731496"><ele>75.0</ele><time>2026-05-01T15:20:46Z</time></trkpt><trkpt lat="43.39796503805006" lon="-4.350547620920725"><ele>75.0</ele><time>2026-05-01T15:20:47Z</time></trkpt><trkpt lat="43.39787233887432" lon="-4.350573836114616"><ele>75.0</ele><time>2026-05-01T15:20:48Z</time></trkpt><trkpt lat="43.397778911779085" lon="-4.350582420574351"><ele>75.0</ele><time>2026-05-01T15:20:49Z</time></trkpt><trkpt lat="43.39767896838965" lon="-4.350582027983306"><ele>75.0</ele><time>2026-05-01T15:20:50Z</time></trkpt><trkpt lat="43.39757819412115" lon="-4.350577414247822"><ele>75.0</ele><time>2026-05-01T15:20:51Z</time></trkpt><trkpt lat="43.397476755457305" lon="-4.350570973192071"><ele>75.0</ele><time>2026-05-01T15:20:52Z</time></trkpt><trkpt lat="43.397373052789575" lon="-4.350563364708713"><ele>75.0</ele><time>2026-05-01T15:20:53Z</time></trkpt><trkpt lat="43.397271717833036" lon="-4.350557902207383"><ele>75.0</ele><time>2026-05-01T15:20:54Z</time></trkpt><trkpt lat="43.39717167379284" lon="-4.350558108433277"><ele>75.0</ele><time>2026-05-01T15:20:55Z</time></trkpt><trkpt lat="43.39707301937193" lon="-4.350569374282111"><ele>75.0</ele><time>2026-05-01T15:20:56Z</time></trkpt><trkpt lat="43.3969769198531" lon="-4.350596169127456"><ele>75.4</ele><time>2026-05-01T15:20:57Z</time></trkpt><trkpt lat="43.39688511673942" lon="-4.350635814151203"><ele>75.8</ele><time>2026-05-01T15:20:58Z</time></trkpt><trkpt lat="43.396796903853236" lon="-4.350693508251101"><ele>76.2</ele><time>2026-05-01T15:20:59Z</time></trkpt><trkpt lat="43.396709016922564" lon="-4.35075623359264"><ele>76.6</ele><time>2026-05-01T15:21:00Z</time></trkpt><trkpt lat="43.39662451954086" lon="-4.350819038731731"><ele>77.0</ele><time>2026-05-01T15:21:01Z</time></trkpt><trkpt lat="43.39654014505021" lon="-4.350878199356836"><ele>77.0</ele><time>2026-05-01T15:21:02Z</time></trkpt><trkpt lat="43.39645661312179" lon="-4.350934955380782"><ele>77.0</ele><time>2026-05-01T15:21:03Z</time></trkpt><trkpt lat="43.396374135922414" lon="-4.350982849224984"><ele>77.0</ele><time>2026-05-01T15:21:04Z</time></trkpt><trkpt lat="43.39629563126763" lon="-4.35101721276464"><ele>77.0</ele><time>2026-05-01T15:21:05Z</time></trkpt><trkpt lat="43.396225507134" lon="-4.3510719376726055"><ele>77.0</ele><time>2026-05-01T15:21:06Z</time></trkpt><trkpt lat="43.39614526235949" lon="-4.351067279594305"><ele>77.0</ele><time>2026-05-01T15:21:07Z</time></trkpt><trkpt lat="43.39606920395016" lon="-4.351069674992252"><ele>78.66666666666667</ele><time>2026-05-01T15:21:08Z</time></trkpt><trkpt lat="43.39598890554339" lon="-4.351077518703584"><ele>80.33333333333334</ele><time>2026-05-01T15:21:09Z</time></trkpt><trkpt lat="43.39590907077039" lon="-4.3510558793365055"><ele>82.0</ele><time>2026-05-01T15:21:10Z</time></trkpt><trkpt lat="43.39582987720121" lon="-4.351022837992829"><ele>83.66666666666667</ele><time>2026-05-01T15:21:11Z</time></trkpt><trkpt lat="43.39575860047071" lon="-4.3509790630582845"><ele>85.33333333333333</ele><time>2026-05-01T15:21:12Z</time></trkpt><trkpt lat="43.39569886390442" lon="-4.350937420804806"><ele>87.0</ele><time>2026-05-01T15:21:13Z</time></trkpt><trkpt lat="43.395641940928215" lon="-4.350893420156293"><ele>87.0</ele><time>2026-05-01T15:21:14Z</time></trkpt><trkpt lat="43.39558668172219" lon="-4.350845392763744"><ele>87.0</ele><time>2026-05-01T15:21:15Z</time></trkpt><trkpt lat="43.395533411499116" lon="-4.350791320569422"><ele>87.0</ele><time>2026-05-01T15:21:16Z</time></trkpt><trkpt lat="43.395482211330624" lon="-4.350737484925295"><ele>87.0</ele><time>2026-05-01T15:21:17Z</time></trkpt><trkpt lat="43.39539809235821" lon="-4.350625461994029"><ele>87.0</ele><time>2026-05-01T15:21:19Z</time></trkpt><trkpt lat="43.39532616918059" lon="-4.35055533917855"><ele>87.0</ele><time>2026-05-01T15:21:21Z</time></trkpt><trkpt lat="43.395226904499495" lon="-4.350730757570192"><ele>86.16666666666667</ele><time>2026-05-01T15:21:30.001Z</time></trkpt><trkpt lat="43.395252792205206" lon="-4.35089088726723"><ele>85.33333333333333</ele><time>2026-05-01T15:21:32.001Z</time></trkpt><trkpt lat="43.39526452197936" lon="-4.350989107537493"><ele>84.5</ele><time>2026-05-01T15:21:33.001Z</time></trkpt><trkpt lat="43.395270856602934" lon="-4.351096379525129"><ele>83.66666666666666</ele><time>2026-05-01T15:21:34.001Z</time></trkpt><trkpt lat="43.39527905363753" lon="-4.351210991000343"><ele>82.83333333333333</ele><time>2026-05-01T15:21:35.001Z</time></trkpt><trkpt lat="43.39529364673006" lon="-4.351332446835833"><ele>82.0</ele><time>2026-05-01T15:21:36.001Z</time></trkpt><trkpt lat="43.39530741844322" lon="-4.351460634204434"><ele>81.0</ele><time>2026-05-01T15:21:37.001Z</time></trkpt><trkpt lat="43.395316992018934" lon="-4.351594974184442"><ele>80.0</ele><time>2026-05-01T15:21:38.001Z</time></trkpt><trkpt lat="43.395320109815856" lon="-4.351733482333705"><ele>79.0</ele><time>2026-05-01T15:21:39.001Z</time></trkpt><trkpt lat="43.39531941729974" lon="-4.351882457226618"><ele>78.0</ele><time>2026-05-01T15:21:40.001Z</time></trkpt><trkpt lat="43.39531463459013" lon="-4.35203216374103"><ele>77.0</ele><time>2026-05-01T15:21:41.001Z</time></trkpt><trkpt lat="43.39531640807454" lon="-4.352215064218212"><ele>75.33333333333334</ele><time>2026-05-01T15:21:42.001Z</time></trkpt><trkpt lat="43.395318463200105" lon="-4.352478026365516"><ele>73.66666666666667</ele><time>2026-05-01T15:21:43.001Z</time></trkpt><trkpt lat="43.39527452010955" lon="-4.352742960322308"><ele>72.0</ele><time>2026-05-01T15:21:44.001Z</time></trkpt><trkpt lat="43.395250170746344" lon="-4.352651966916609"><ele>72.0</ele><time>2026-05-01T15:21:45.001Z</time></trkpt><trkpt lat="43.39521327077204" lon="-4.3528020664304625"><ele>72.0</ele><time>2026-05-01T15:21:46.001Z</time></trkpt><trkpt lat="43.395171983938866" lon="-4.35294263988366"><ele>72.0</ele><time>2026-05-01T15:21:47.001Z</time></trkpt><trkpt lat="43.39512633941506" lon="-4.3530867975536545"><ele>72.0</ele><time>2026-05-01T15:21:48.001Z</time></trkpt><trkpt lat="43.39507772231485" lon="-4.353218262512175"><ele>72.0</ele><time>2026-05-01T15:21:49.001Z</time></trkpt><trkpt lat="43.39502244458991" lon="-4.353339026500627"><ele>71.0</ele><time>2026-05-01T15:21:50.001Z</time></trkpt><trkpt lat="43.39496115977577" lon="-4.353461404784656"><ele>70.0</ele><time>2026-05-01T15:21:51.001Z</time></trkpt><trkpt lat="43.39489966696864" lon="-4.353590317433187"><ele>69.0</ele><time>2026-05-01T15:21:52.001Z</time></trkpt><trkpt lat="43.39483898946742" lon="-4.353720154302142"><ele>68.0</ele><time>2026-05-01T15:21:53.001Z</time></trkpt><trkpt lat="43.394780165454236" lon="-4.353851824192473"><ele>67.0</ele><time>2026-05-01T15:21:54.001Z</time></trkpt><trkpt lat="43.39472057798582" lon="-4.353981258100298"><ele>65.0</ele><time>2026-05-01T15:21:55.001Z</time></trkpt><trkpt lat="43.39465983569735" lon="-4.354119933153952"><ele>63.0</ele><time>2026-05-01T15:21:56.001Z</time></trkpt><trkpt lat="43.394599078274936" lon="-4.354248587265403"><ele>61.0</ele><time>2026-05-01T15:21:57.001Z</time></trkpt><trkpt lat="43.39453989298254" lon="-4.354377241229178"><ele>59.0</ele><time>2026-05-01T15:21:58.001Z</time></trkpt><trkpt lat="43.394481069014034" lon="-4.354506176220494"><ele>59.0</ele><time>2026-05-01T15:21:59.001Z</time></trkpt><trkpt lat="43.3944245496295" lon="-4.3546389784905"><ele>59.0</ele><time>2026-05-01T15:22:00.001Z</time></trkpt><trkpt lat="43.39436208382691" lon="-4.354772920856404"><ele>59.0</ele><time>2026-05-01T15:22:01.001Z</time></trkpt><trkpt lat="43.394304820786864" lon="-4.354900364626592"><ele>59.0</ele><time>2026-05-01T15:22:02.001Z</time></trkpt><trkpt lat="43.394249501457885" lon="-4.355036880990649"><ele>59.5</ele><time>2026-05-01T15:22:03.001Z</time></trkpt><trkpt lat="43.39419119713588" lon="-4.355164582896419"><ele>60.0</ele><time>2026-05-01T15:22:04.001Z</time></trkpt><trkpt lat="43.39412166902794" lon="-4.355284015082753"><ele>60.5</ele><time>2026-05-01T15:22:05.001Z</time></trkpt><trkpt lat="43.39404259098175" lon="-4.355398273467818"><ele>61.0</ele><time>2026-05-01T15:22:06.001Z</time></trkpt><trkpt lat="43.3939567668919" lon="-4.355505802160122"><ele>61.0</ele><time>2026-05-01T15:22:07.001Z</time></trkpt><trkpt lat="43.39386206340199" lon="-4.355600259615655"><ele>61.0</ele><time>2026-05-01T15:22:08.001Z</time></trkpt><trkpt lat="43.39375599426797" lon="-4.355670364689198"><ele>61.0</ele><time>2026-05-01T15:22:09.001Z</time></trkpt><trkpt lat="43.39365422180145" lon="-4.355750475243528"><ele>61.0</ele><time>2026-05-01T15:22:10.001Z</time></trkpt><trkpt lat="43.39355077508185" lon="-4.355830325598822"><ele>58.75</ele><time>2026-05-01T15:22:11.001Z</time></trkpt><trkpt lat="43.39345462669412" lon="-4.355921090777563"><ele>56.5</ele><time>2026-05-01T15:22:12.001Z</time></trkpt><trkpt lat="43.39337036437162" lon="-4.356025618660796"><ele>54.25</ele><time>2026-05-01T15:22:13.001Z</time></trkpt><trkpt lat="43.39329756686662" lon="-4.35614744317611"><ele>52.0</ele><time>2026-05-01T15:22:14.001Z</time></trkpt><trkpt lat="43.39322642815366" lon="-4.356269615575442"><ele>52.2</ele><time>2026-05-01T15:22:15.001Z</time></trkpt><trkpt lat="43.39315327299305" lon="-4.356391068617292"><ele>52.400000000000006</ele><time>2026-05-01T15:22:16.001Z</time></trkpt><trkpt lat="43.393085134407535" lon="-4.356508265244647"><ele>52.599999999999994</ele><time>2026-05-01T15:22:17.001Z</time></trkpt><trkpt lat="43.39301316909015" lon="-4.356623645762205"><ele>52.8</ele><time>2026-05-01T15:22:18.001Z</time></trkpt><trkpt lat="43.392949851424326" lon="-4.356748872762921"><ele>53.0</ele><time>2026-05-01T15:22:19.001Z</time></trkpt><trkpt lat="43.39294286176271" lon="-4.356900842761704"><ele>53.0</ele><time>2026-05-01T15:22:20.001Z</time></trkpt><trkpt lat="43.39293849637063" lon="-4.357050829541533"><ele>53.0</ele><time>2026-05-01T15:22:21.001Z</time></trkpt><trkpt lat="43.39292087463948" lon="-4.3572083005801705"><ele>53.0</ele><time>2026-05-01T15:22:22Z</time></trkpt><trkpt lat="43.39292728020527" lon="-4.357357089823727"><ele>53.0</ele><time>2026-05-01T15:22:23Z</time></trkpt><trkpt lat="43.392920438299555" lon="-4.357499250009583"><ele>53.0</ele><time>2026-05-01T15:22:24Z</time></trkpt><trkpt lat="43.39291262817504" lon="-4.357652194221954"><ele>53.599999999999994</ele><time>2026-05-01T15:22:25Z</time></trkpt><trkpt lat="43.39291230717719" lon="-4.357801899748773"><ele>54.199999999999996</ele><time>2026-05-01T15:22:26Z</time></trkpt><trkpt lat="43.39293320001817" lon="-4.35794020801594"><ele>54.8</ele><time>2026-05-01T15:22:27Z</time></trkpt><trkpt lat="43.39295225945153" lon="-4.358091224420422"><ele>55.4</ele><time>2026-05-01T15:22:28Z</time></trkpt><trkpt lat="43.392966191349664" lon="-4.358236670214716"><ele>56.0</ele><time>2026-05-01T15:22:29Z</time></trkpt><trkpt lat="43.39301531020357" lon="-4.358390007465028"><ele>54.0</ele><time>2026-05-01T15:22:30Z</time></trkpt><trkpt lat="43.39309362402843" lon="-4.358544913438022"><ele>52.0</ele><time>2026-05-01T15:22:31Z</time></trkpt><trkpt lat="43.393087838199605" lon="-4.358683939177179"><ele>50.0</ele><time>2026-05-01T15:22:32Z</time></trkpt><trkpt lat="43.39312735480668" lon="-4.358834121994407"><ele>48.0</ele><time>2026-05-01T15:22:33Z</time></trkpt><trkpt lat="43.39317504105782" lon="-4.358982540225969"><ele>46.75</ele><time>2026-05-01T15:22:34Z</time></trkpt><trkpt lat="43.39323666428307" lon="-4.359119567681446"><ele>45.5</ele><time>2026-05-01T15:22:35Z</time></trkpt><trkpt lat="43.39330410623943" lon="-4.35924660298472"><ele>44.25</ele><time>2026-05-01T15:22:36Z</time></trkpt><trkpt lat="43.393370461785565" lon="-4.359377556145906"><ele>43.0</ele><time>2026-05-01T15:22:37Z</time></trkpt><trkpt lat="43.39343636019787" lon="-4.35951296004772"><ele>43.0</ele><time>2026-05-01T15:22:38Z</time></trkpt><trkpt lat="43.39349443862238" lon="-4.359649707900802"><ele>43.0</ele><time>2026-05-01T15:22:39Z</time></trkpt><trkpt lat="43.39355015738126" lon="-4.359781506672537"><ele>43.0</ele><time>2026-05-01T15:22:40Z</time></trkpt><trkpt lat="43.39359849339454" lon="-4.359922426653241"><ele>43.0</ele><time>2026-05-01T15:22:41Z</time></trkpt><trkpt lat="43.39363760846778" lon="-4.360069829877931"><ele>42.0</ele><time>2026-05-01T15:22:42Z</time></trkpt><trkpt lat="43.39366574794019" lon="-4.3602215277239775"><ele>41.0</ele><time>2026-05-01T15:22:43Z</time></trkpt><trkpt lat="43.393684519250925" lon="-4.360372433755683"><ele>40.0</ele><time>2026-05-01T15:22:44Z</time></trkpt><trkpt lat="43.393692949854184" lon="-4.36052907676598"><ele>39.0</ele><time>2026-05-01T15:22:45Z</time></trkpt><trkpt lat="43.39370121826869" lon="-4.360681467497613"><ele>38.0</ele><time>2026-05-01T15:22:46Z</time></trkpt><trkpt lat="43.39370730633546" lon="-4.360834560920796"><ele>37.0</ele><time>2026-05-01T15:22:47Z</time></trkpt><trkpt lat="43.39371424965492" lon="-4.360992408110426"><ele>36.0</ele><time>2026-05-01T15:22:48Z</time></trkpt><trkpt lat="43.3937190787761" lon="-4.361148663488956"><ele>35.0</ele><time>2026-05-01T15:22:49Z</time></trkpt><trkpt lat="43.393725528141296" lon="-4.3613046433369735"><ele>34.0</ele><time>2026-05-01T15:22:50Z</time></trkpt><trkpt lat="43.39373598396543" lon="-4.361457653576975"><ele>33.0</ele><time>2026-05-01T15:22:51Z</time></trkpt><trkpt lat="43.393743289674994" lon="-4.3615973275195445"><ele>32.0</ele><time>2026-05-01T15:22:52Z</time></trkpt><trkpt lat="43.393741478292455" lon="-4.361772571843282"><ele>31.0</ele><time>2026-05-01T15:22:53Z</time></trkpt><trkpt lat="43.39372660021016" lon="-4.361934260354022"><ele>31.0</ele><time>2026-05-01T15:22:54Z</time></trkpt><trkpt lat="43.393706683487885" lon="-4.362095173472366"><ele>31.0</ele><time>2026-05-01T15:22:55Z</time></trkpt><trkpt lat="43.39368177367523" lon="-4.3622549243152795"><ele>31.0</ele><time>2026-05-01T15:22:56Z</time></trkpt><trkpt lat="43.39365735240203" lon="-4.362413965296616"><ele>31.0</ele><time>2026-05-01T15:22:57Z</time></trkpt><trkpt lat="43.39363275119471" lon="-4.362570979824362"><ele>29.75</ele><time>2026-05-01T15:22:58Z</time></trkpt><trkpt lat="43.393609507881024" lon="-4.362727001387688"><ele>28.5</ele><time>2026-05-01T15:22:59Z</time></trkpt><trkpt lat="43.39358531512604" lon="-4.362887743584565"><ele>27.25</ele><time>2026-05-01T15:23:00Z</time></trkpt><trkpt lat="43.39356317661417" lon="-4.363043528917158"><ele>26.0</ele><time>2026-05-01T15:23:01Z</time></trkpt><trkpt lat="43.39354374328731" lon="-4.363199922788973"><ele>25.25</ele><time>2026-05-01T15:23:02Z</time></trkpt><trkpt lat="43.39352031390912" lon="-4.3633587012072494"><ele>24.5</ele><time>2026-05-01T15:23:03Z</time></trkpt><trkpt lat="43.39349571515765" lon="-4.363515703536304"><ele>23.75</ele><time>2026-05-01T15:23:04Z</time></trkpt><trkpt lat="43.393471590877326" lon="-4.363671649895708"><ele>23.0</ele><time>2026-05-01T15:23:05Z</time></trkpt><trkpt lat="43.39344954419365" lon="-4.363825244798442"><ele>21.75</ele><time>2026-05-01T15:23:06Z</time></trkpt><trkpt lat="43.39342687516624" lon="-4.363981566183333"><ele>20.5</ele><time>2026-05-01T15:23:07Z</time></trkpt><trkpt lat="43.393406259312776" lon="-4.364137016200331"><ele>19.25</ele><time>2026-05-01T15:23:08Z</time></trkpt><trkpt lat="43.393383388128896" lon="-4.3642893932662306"><ele>18.0</ele><time>2026-05-01T15:23:09Z</time></trkpt><trkpt lat="43.39336137973138" lon="-4.364442364055913"><ele>18.0</ele><time>2026-05-01T15:23:10Z</time></trkpt><trkpt lat="43.39334024809561" lon="-4.364595663240324"><ele>18.0</ele><time>2026-05-01T15:23:11Z</time></trkpt><trkpt lat="43.3933194973883" lon="-4.364746539251012"><ele>18.0</ele><time>2026-05-01T15:23:12Z</time></trkpt><trkpt lat="43.39329685467259" lon="-4.364895731377369"><ele>18.0</ele><time>2026-05-01T15:23:13Z</time></trkpt><trkpt lat="43.393266667170906" lon="-4.3650370925574125"><ele>18.0</ele><time>2026-05-01T15:23:14Z</time></trkpt><trkpt lat="43.39324011226649" lon="-4.365179356992866"><ele>17.2</ele><time>2026-05-01T15:23:15Z</time></trkpt><trkpt lat="43.39320599167415" lon="-4.3653205539082185"><ele>16.4</ele><time>2026-05-01T15:23:16Z</time></trkpt><trkpt lat="43.39316970574185" lon="-4.365456639832241"><ele>15.599999999999998</ele><time>2026-05-01T15:23:17Z</time></trkpt><trkpt lat="43.39313502790272" lon="-4.36558293621928"><ele>14.799999999999999</ele><time>2026-05-01T15:23:18Z</time></trkpt><trkpt lat="43.393103579481405" lon="-4.365707935495284"><ele>14.0</ele><time>2026-05-01T15:23:19Z</time></trkpt><trkpt lat="43.39306985693124" lon="-4.365831178716593"><ele>13.2</ele><time>2026-05-01T15:23:20Z</time></trkpt><trkpt lat="43.39303444381552" lon="-4.365951880172347"><ele>12.399999999999999</ele><time>2026-05-01T15:23:21Z</time></trkpt><trkpt lat="43.392995673227865" lon="-4.366067266607735"><ele>11.6</ele><time>2026-05-01T15:23:22Z</time></trkpt><trkpt lat="43.3929527711668" lon="-4.366176709599888"><ele>10.8</ele><time>2026-05-01T15:23:23Z</time></trkpt><trkpt lat="43.39289880639305" lon="-4.366275110876387"><ele>10.0</ele><time>2026-05-01T15:23:24Z</time></trkpt><trkpt lat="43.39283569205017" lon="-4.366363889006136"><ele>9.0</ele><time>2026-05-01T15:23:25Z</time></trkpt><trkpt lat="43.39276487742964" lon="-4.366437541595961"><ele>8.0</ele><time>2026-05-01T15:23:26Z</time></trkpt><trkpt lat="43.39268714350858" lon="-4.366502377104352"><ele>7.0</ele><time>2026-05-01T15:23:27Z</time></trkpt><trkpt lat="43.39260356030997" lon="-4.366558275704233"><ele>6.0</ele><time>2026-05-01T15:23:28Z</time></trkpt><trkpt lat="43.39251741173667" lon="-4.366599076818198"><ele>5.0</ele><time>2026-05-01T15:23:29Z</time></trkpt><trkpt lat="43.39242204796835" lon="-4.366622575951931"><ele>5.0</ele><time>2026-05-01T15:23:30Z</time></trkpt><trkpt lat="43.3923295202971" lon="-4.3666498314929605"><ele>5.0</ele><time>2026-05-01T15:23:31Z</time></trkpt><trkpt lat="43.39223709142978" lon="-4.366682201725983"><ele>5.0</ele><time>2026-05-01T15:23:32.001Z</time></trkpt><trkpt lat="43.39214824644943" lon="-4.366723697143328"><ele>5.0</ele><time>2026-05-01T15:23:33.001Z</time></trkpt><trkpt lat="43.39206180864404" lon="-4.366768829958251"><ele>5.0</ele><time>2026-05-01T15:23:34.001Z</time></trkpt><trkpt lat="43.39197404975278" lon="-4.366814197465127"><ele>5.2</ele><time>2026-05-01T15:23:35.001Z</time></trkpt><trkpt lat="43.39188599404326" lon="-4.366860585520553"><ele>5.4</ele><time>2026-05-01T15:23:36.001Z</time></trkpt><trkpt lat="43.3917961565638" lon="-4.366906421596044"><ele>5.6</ele><time>2026-05-01T15:23:37.001Z</time></trkpt><trkpt lat="43.39170994673795" lon="-4.366961648619425"><ele>5.8</ele><time>2026-05-01T15:23:38.001Z</time></trkpt><trkpt lat="43.391628008326805" lon="-4.367033025291531"><ele>6.0</ele><time>2026-05-01T15:23:39.001Z</time></trkpt><trkpt lat="43.3915654107768" lon="-4.367135474510074"><ele>7.0</ele><time>2026-05-01T15:23:40.001Z</time></trkpt><trkpt lat="43.39154650736876" lon="-4.367268577546015"><ele>8.0</ele><time>2026-05-01T15:23:41.001Z</time></trkpt><trkpt lat="43.39153474949382" lon="-4.367385893217625"><ele>9.0</ele><time>2026-05-01T15:23:42.001Z</time></trkpt><trkpt lat="43.391528319684255" lon="-4.367501152867646"><ele>10.0</ele><time>2026-05-01T15:23:43.001Z</time></trkpt><trkpt lat="43.3915501249305" lon="-4.367619222640741"><ele>11.0</ele><time>2026-05-01T15:23:44.001Z</time></trkpt><trkpt lat="43.39158133988288" lon="-4.367730404124795"><ele>12.0</ele><time>2026-05-01T15:23:45.001Z</time></trkpt><trkpt lat="43.39161384130637" lon="-4.367838607981777"><ele>12.0</ele><time>2026-05-01T15:23:46.001Z</time></trkpt><trkpt lat="43.39165018783938" lon="-4.3679413462153684"><ele>12.0</ele><time>2026-05-01T15:23:47.001Z</time></trkpt><trkpt lat="43.39166735932849" lon="-4.368044753586797"><ele>12.0</ele><time>2026-05-01T15:23:48.001Z</time></trkpt><trkpt lat="43.391686104077365" lon="-4.368150355551112"><ele>12.0</ele><time>2026-05-01T15:23:49.001Z</time></trkpt><trkpt lat="43.39170864506667" lon="-4.368250656948922"><ele>12.0</ele><time>2026-05-01T15:23:50.001Z</time></trkpt><trkpt lat="43.391722928533184" lon="-4.368353600347068"><ele>12.0</ele><time>2026-05-01T15:23:51.001Z</time></trkpt><trkpt lat="43.39172720520846" lon="-4.368457818379462"><ele>12.666666666666666</ele><time>2026-05-01T15:23:52.001Z</time></trkpt><trkpt lat="43.39172029733504" lon="-4.368560289459566"><ele>13.333333333333332</ele><time>2026-05-01T15:23:53.001Z</time></trkpt><trkpt lat="43.391694793306044" lon="-4.368658101956247"><ele>14.0</ele><time>2026-05-01T15:23:54.001Z</time></trkpt><trkpt lat="43.391654627568336" lon="-4.368743999341688"><ele>14.666666666666666</ele><time>2026-05-01T15:23:55.001Z</time></trkpt><trkpt lat="43.391603790118964" lon="-4.3688188501367"><ele>15.333333333333332</ele><time>2026-05-01T15:23:56.001Z</time></trkpt><trkpt lat="43.39154875399602" lon="-4.368890712041267"><ele>16.0</ele><time>2026-05-01T15:23:57.001Z</time></trkpt><trkpt lat="43.39149122507353" lon="-4.368956876256205"><ele>15.999999999999998</ele><time>2026-05-01T15:23:58.001Z</time></trkpt><trkpt lat="43.391436226923474" lon="-4.369023926853859"><ele>16.0</ele><time>2026-05-01T15:23:59.001Z</time></trkpt><trkpt lat="43.39137917720771" lon="-4.369094107342177"><ele>16.0</ele><time>2026-05-01T15:24:00.001Z</time></trkpt><trkpt lat="43.391321275486675" lon="-4.369158063520644"><ele>16.0</ele><time>2026-05-01T15:24:01.001Z</time></trkpt><trkpt lat="43.391262874552616" lon="-4.369223252166905"><ele>15.999999999999998</ele><time>2026-05-01T15:24:02.001Z</time></trkpt><trkpt lat="43.39120434193135" lon="-4.369292850843074"><ele>16.0</ele><time>2026-05-01T15:24:03.001Z</time></trkpt><trkpt lat="43.39114686130062" lon="-4.369360493420534"><ele>18.833333333333332</ele><time>2026-05-01T15:24:04.001Z</time></trkpt><trkpt lat="43.391087087740566" lon="-4.36942569612854"><ele>21.666666666666664</ele><time>2026-05-01T15:24:05.001Z</time></trkpt><trkpt lat="43.39102892879122" lon="-4.369493260857507"><ele>24.5</ele><time>2026-05-01T15:24:06.001Z</time></trkpt><trkpt lat="43.39095738007543" lon="-4.369542518615063"><ele>27.333333333333332</ele><time>2026-05-01T15:24:07.001Z</time></trkpt><trkpt lat="43.390879126052006" lon="-4.369573477209319"><ele>30.166666666666668</ele><time>2026-05-01T15:24:08.001Z</time></trkpt><trkpt lat="43.3907947192833" lon="-4.369590444067491"><ele>33.0</ele><time>2026-05-01T15:24:09.001Z</time></trkpt><trkpt lat="43.39070299030716" lon="-4.3695730207625"><ele>33.0</ele><time>2026-05-01T15:24:10.001Z</time></trkpt><trkpt lat="43.390608155431984" lon="-4.369527295879782"><ele>33.0</ele><time>2026-05-01T15:24:11.001Z</time></trkpt><trkpt lat="43.390514869187136" lon="-4.36946913083582"><ele>33.0</ele><time>2026-05-01T15:24:12.001Z</time></trkpt><trkpt lat="43.39042813363069" lon="-4.369402840674446"><ele>33.0</ele><time>2026-05-01T15:24:13.001Z</time></trkpt><trkpt lat="43.3903209604671" lon="-4.369395686219509"><ele>33.0</ele><time>2026-05-01T15:24:14.001Z</time></trkpt><trkpt lat="43.3902270166273" lon="-4.369408590050802"><ele>33.6</ele><time>2026-05-01T15:24:15.001Z</time></trkpt><trkpt lat="43.390136902263166" lon="-4.369469209239518"><ele>34.199999999999996</ele><time>2026-05-01T15:24:16.001Z</time></trkpt><trkpt lat="43.39005712075643" lon="-4.369571347578391"><ele>34.8</ele><time>2026-05-01T15:24:17.001Z</time></trkpt><trkpt lat="43.39002896531113" lon="-4.369706405958885"><ele>35.4</ele><time>2026-05-01T15:24:18.001Z</time></trkpt><trkpt lat="43.38999789875447" lon="-4.369846152491712"><ele>36.0</ele><time>2026-05-01T15:24:19.001Z</time></trkpt><trkpt lat="43.38996121101845" lon="-4.36997991261958"><ele>33.6</ele><time>2026-05-01T15:24:20.001Z</time></trkpt><trkpt lat="43.38993200835016" lon="-4.370113257616598"><ele>31.200000000000003</ele><time>2026-05-01T15:24:21.001Z</time></trkpt><trkpt lat="43.389902077987244" lon="-4.370244486900978"><ele>28.799999999999997</ele><time>2026-05-01T15:24:22.001Z</time></trkpt><trkpt lat="43.38986063947694" lon="-4.370373156288225"><ele>26.4</ele><time>2026-05-01T15:24:23.001Z</time></trkpt><trkpt lat="43.38981790326191" lon="-4.370488644306894"><ele>24.0</ele><time>2026-05-01T15:24:24.001Z</time></trkpt><trkpt lat="43.3897497085278" lon="-4.370607627852661"><ele>23.4</ele><time>2026-05-01T15:24:25.001Z</time></trkpt><trkpt lat="43.3896650518211" lon="-4.3707212934339585"><ele>22.799999999999997</ele><time>2026-05-01T15:24:26.001Z</time></trkpt><trkpt lat="43.38958053536425" lon="-4.370812605187964"><ele>22.200000000000003</ele><time>2026-05-01T15:24:27.001Z</time></trkpt><trkpt lat="43.38949118803702" lon="-4.370901028127185"><ele>21.6</ele><time>2026-05-01T15:24:28Z</time></trkpt><trkpt lat="43.38939053089895" lon="-4.3709692004562966"><ele>21.0</ele><time>2026-05-01T15:24:29Z</time></trkpt><trkpt lat="43.389305143658774" lon="-4.3710675158560965"><ele>21.0</ele><time>2026-05-01T15:24:30Z</time></trkpt><trkpt lat="43.38921605199555" lon="-4.371161894105329"><ele>21.0</ele><time>2026-05-01T15:24:31Z</time></trkpt><trkpt lat="43.389126319477086" lon="-4.371250820192077"><ele>21.0</ele><time>2026-05-01T15:24:32Z</time></trkpt><trkpt lat="43.389058620720405" lon="-4.371367127838189"><ele>21.0</ele><time>2026-05-01T15:24:33Z</time></trkpt><trkpt lat="43.38900623030554" lon="-4.371498025978594"><ele>21.0</ele><time>2026-05-01T15:24:34Z</time></trkpt><trkpt lat="43.38899243598135" lon="-4.371646483259057"><ele>18.400000000000002</ele><time>2026-05-01T15:24:35Z</time></trkpt><trkpt lat="43.388987075490306" lon="-4.371757655134194"><ele>15.8</ele><time>2026-05-01T15:24:36Z</time></trkpt><trkpt lat="43.38896686969943" lon="-4.3718571743687775"><ele>13.200000000000001</ele><time>2026-05-01T15:24:37Z</time></trkpt><trkpt lat="43.38897762562668" lon="-4.372094215320353"><ele>10.600000000000001</ele><time>2026-05-01T15:24:38Z</time></trkpt><trkpt lat="43.388976223358085" lon="-4.372234945710833"><ele>8.0</ele><time>2026-05-01T15:24:39Z</time></trkpt><trkpt lat="43.388977691927536" lon="-4.372367924693387"><ele>6.999999999999999</ele><time>2026-05-01T15:24:40Z</time></trkpt><trkpt lat="43.38898391823991" lon="-4.372484715479667"><ele>6.0</ele><time>2026-05-01T15:24:41Z</time></trkpt><trkpt lat="43.38899611218707" lon="-4.372603702322156"><ele>5.0</ele><time>2026-05-01T15:24:42Z</time></trkpt><trkpt lat="43.389035060180795" lon="-4.372697406027274"><ele>4.0</ele><time>2026-05-01T15:24:43Z</time></trkpt><trkpt lat="43.389089000669294" lon="-4.372785826898513"><ele>3.0</ele><time>2026-05-01T15:24:44Z</time></trkpt><trkpt lat="43.38916086113338" lon="-4.37284977746381"><ele>2.0</ele><time>2026-05-01T15:24:45Z</time></trkpt><trkpt lat="43.389240755339436" lon="-4.372905094965197"><ele>2.0</ele><time>2026-05-01T15:24:46Z</time></trkpt><trkpt lat="43.389327296619754" lon="-4.37297132686867"><ele>2.0</ele><time>2026-05-01T15:24:47Z</time></trkpt><trkpt lat="43.38941242745209" lon="-4.373035878664238"><ele>2.0</ele><time>2026-05-01T15:24:48Z</time></trkpt><trkpt lat="43.38949693024143" lon="-4.373105538163858"><ele>2.0</ele><time>2026-05-01T15:24:49Z</time></trkpt><trkpt lat="43.38956026819837" lon="-4.373194287585536"><ele>2.0</ele><time>2026-05-01T15:24:50Z</time></trkpt><trkpt lat="43.38962989510984" lon="-4.373271874232545"><ele>1.8333333333333333</ele><time>2026-05-01T15:24:51Z</time></trkpt><trkpt lat="43.38969005782452" lon="-4.373365375917348"><ele>1.6666666666666665</ele><time>2026-05-01T15:24:52Z</time></trkpt><trkpt lat="43.38973915483717" lon="-4.3734593666215416"><ele>1.5</ele><time>2026-05-01T15:24:53Z</time></trkpt><trkpt lat="43.38978516570896" lon="-4.373567462728441"><ele>1.3333333333333333</ele><time>2026-05-01T15:24:54Z</time></trkpt><trkpt lat="43.38982064475514" lon="-4.373680527643098"><ele>1.1666666666666665</ele><time>2026-05-01T15:24:55Z</time></trkpt><trkpt lat="43.389856446905235" lon="-4.37379253477541"><ele>1.0</ele><time>2026-05-01T15:24:56Z</time></trkpt><trkpt lat="43.389893436319795" lon="-4.373904117968278"><ele>1.4</ele><time>2026-05-01T15:24:57Z</time></trkpt><trkpt lat="43.38992856402683" lon="-4.374019503834035"><ele>1.8</ele><time>2026-05-01T15:24:58Z</time></trkpt><trkpt lat="43.389967431308925" lon="-4.374134166692376"><ele>2.1999999999999997</ele><time>2026-05-01T15:24:59Z</time></trkpt><trkpt lat="43.39000128580818" lon="-4.37424715772472"><ele>2.6</ele><time>2026-05-01T15:25:00Z</time></trkpt><trkpt lat="43.39003584567814" lon="-4.374367720411833"><ele>3.0</ele><time>2026-05-01T15:25:01Z</time></trkpt><trkpt lat="43.390072590875775" lon="-4.374482755297865"><ele>3.0</ele><time>2026-05-01T15:25:02Z</time></trkpt><trkpt lat="43.39010593274921" lon="-4.374599578389857"><ele>3.0</ele><time>2026-05-01T15:25:03Z</time></trkpt><trkpt lat="43.3901384426379" lon="-4.3747145834346455"><ele>3.0</ele><time>2026-05-01T15:25:04Z</time></trkpt><trkpt lat="43.39017231560266" lon="-4.374831235971158"><ele>3.0</ele><time>2026-05-01T15:25:05Z</time></trkpt><trkpt lat="43.390198645646564" lon="-4.37494260250335"><ele>3.0</ele><time>2026-05-01T15:25:06Z</time></trkpt><trkpt lat="43.39022662705407" lon="-4.3750646043637476"><ele>3.833333333333333</ele><time>2026-05-01T15:25:07Z</time></trkpt><trkpt lat="43.39024534835097" lon="-4.375176545969102"><ele>4.666666666666666</ele><time>2026-05-01T15:25:08Z</time></trkpt><trkpt lat="43.390260783529" lon="-4.375297402734743"><ele>5.5</ele><time>2026-05-01T15:25:09Z</time></trkpt><trkpt lat="43.39026869791344" lon="-4.375416447611075"><ele>6.333333333333333</ele><time>2026-05-01T15:25:10Z</time></trkpt><trkpt lat="43.39026810320087" lon="-4.375534528358624"><ele>7.166666666666666</ele><time>2026-05-01T15:25:11Z</time></trkpt><trkpt lat="43.39026326546343" lon="-4.375653849050282"><ele>8.0</ele><time>2026-05-01T15:25:12Z</time></trkpt><trkpt lat="43.39025660444801" lon="-4.375780787533976"><ele>9.4</ele><time>2026-05-01T15:25:13Z</time></trkpt><trkpt lat="43.39023996825019" lon="-4.375901155931726"><ele>10.8</ele><time>2026-05-01T15:25:14Z</time></trkpt><trkpt lat="43.39021846740915" lon="-4.376020852386967"><ele>12.2</ele><time>2026-05-01T15:25:15Z</time></trkpt><trkpt lat="43.39019086311472" lon="-4.376138369169723"><ele>13.6</ele><time>2026-05-01T15:25:16Z</time></trkpt><trkpt lat="43.3901602258138" lon="-4.376259734232689"><ele>15.0</ele><time>2026-05-01T15:25:17Z</time></trkpt><trkpt lat="43.39012237879493" lon="-4.376378461035025"><ele>16.0</ele><time>2026-05-01T15:25:18Z</time></trkpt><trkpt lat="43.39007952635022" lon="-4.3764958388337325"><ele>17.0</ele><time>2026-05-01T15:25:19.001Z</time></trkpt><trkpt lat="43.39003739349262" lon="-4.376617327922181"><ele>18.0</ele><time>2026-05-01T15:25:20.001Z</time></trkpt><trkpt lat="43.389995521770636" lon="-4.37673859569928"><ele>19.0</ele><time>2026-05-01T15:25:21.001Z</time></trkpt><trkpt lat="43.38995023220675" lon="-4.3768643669508"><ele>20.0</ele><time>2026-05-01T15:25:22.001Z</time></trkpt><trkpt lat="43.389906437227346" lon="-4.37698603753491"><ele>20.0</ele><time>2026-05-01T15:25:23.001Z</time></trkpt><trkpt lat="43.38986378679098" lon="-4.377104512845509"><ele>20.0</ele><time>2026-05-01T15:25:24.001Z</time></trkpt><trkpt lat="43.38981956526234" lon="-4.377237385097797"><ele>20.0</ele><time>2026-05-01T15:25:25.001Z</time></trkpt><trkpt lat="43.38976651585889" lon="-4.377371554164771"><ele>20.0</ele><time>2026-05-01T15:25:26.001Z</time></trkpt><trkpt lat="43.38972010725248" lon="-4.377500904536586"><ele>20.0</ele><time>2026-05-01T15:25:27.001Z</time></trkpt><trkpt lat="43.38967218336746" lon="-4.3776335474506665"><ele>20.6</ele><time>2026-05-01T15:25:28.001Z</time></trkpt><trkpt lat="43.38962881871395" lon="-4.377765302908729"><ele>21.2</ele><time>2026-05-01T15:25:29.001Z</time></trkpt><trkpt lat="43.38958448871617" lon="-4.3778806383240125"><ele>21.799999999999997</ele><time>2026-05-01T15:25:30.001Z</time></trkpt><trkpt lat="43.38954260359502" lon="-4.377996905246784"><ele>22.4</ele><time>2026-05-01T15:25:31.001Z</time></trkpt><trkpt lat="43.38950086989538" lon="-4.378107667078641"><ele>23.0</ele><time>2026-05-01T15:25:32.001Z</time></trkpt><trkpt lat="43.38946428387326" lon="-4.37821832525729"><ele>23.666666666666668</ele><time>2026-05-01T15:25:33.001Z</time></trkpt><trkpt lat="43.389428605231615" lon="-4.378328209782535"><ele>24.333333333333336</ele><time>2026-05-01T15:25:34.001Z</time></trkpt><trkpt lat="43.38939337377815" lon="-4.378433142514644"><ele>25.0</ele><time>2026-05-01T15:25:35.001Z</time></trkpt><trkpt lat="43.38935817371977" lon="-4.378537322038274"><ele>25.666666666666668</ele><time>2026-05-01T15:25:36.001Z</time></trkpt><trkpt lat="43.38932851660255" lon="-4.378634516974237"><ele>26.333333333333332</ele><time>2026-05-01T15:25:37.001Z</time></trkpt><trkpt lat="43.38929981846308" lon="-4.378735530317312"><ele>27.0</ele><time>2026-05-01T15:25:38.001Z</time></trkpt><trkpt lat="43.389270103848595" lon="-4.378839349568139"><ele>27.666666666666668</ele><time>2026-05-01T15:25:39.001Z</time></trkpt><trkpt lat="43.389243107346324" lon="-4.3789432141930895"><ele>28.333333333333336</ele><time>2026-05-01T15:25:40.001Z</time></trkpt><trkpt lat="43.38921202321064" lon="-4.379050574125003"><ele>29.0</ele><time>2026-05-01T15:25:41.001Z</time></trkpt><trkpt lat="43.38917615431007" lon="-4.379162596253221"><ele>29.666666666666668</ele><time>2026-05-01T15:25:42.001Z</time></trkpt><trkpt lat="43.3891339721985" lon="-4.379274871879766"><ele>30.333333333333336</ele><time>2026-05-01T15:25:43.001Z</time></trkpt><trkpt lat="43.38908141256672" lon="-4.379387040519269"><ele>31.0</ele><time>2026-05-01T15:25:44.001Z</time></trkpt><trkpt lat="43.38901345486966" lon="-4.37949068683661"><ele>31.0</ele><time>2026-05-01T15:25:45.001Z</time></trkpt><trkpt lat="43.388935529174766" lon="-4.379586486460802"><ele>31.0</ele><time>2026-05-01T15:25:46.001Z</time></trkpt><trkpt lat="43.38884230055903" lon="-4.379672003231535"><ele>31.0</ele><time>2026-05-01T15:25:47.001Z</time></trkpt><trkpt lat="43.38874001274373" lon="-4.379739137970494"><ele>31.0</ele><time>2026-05-01T15:25:48.001Z</time></trkpt><trkpt lat="43.388632155137465" lon="-4.379798319003668"><ele>31.0</ele><time>2026-05-01T15:25:49.001Z</time></trkpt><trkpt lat="43.38853166687698" lon="-4.379861708710887"><ele>32.2</ele><time>2026-05-01T15:25:50.001Z</time></trkpt><trkpt lat="43.38843293324069" lon="-4.379930469898436"><ele>33.400000000000006</ele><time>2026-05-01T15:25:51.001Z</time></trkpt><trkpt lat="43.38833858652768" lon="-4.3800041397285785"><ele>34.6</ele><time>2026-05-01T15:25:52.001Z</time></trkpt><trkpt lat="43.38824438647897" lon="-4.380069477043101"><ele>35.800000000000004</ele><time>2026-05-01T15:25:53.001Z</time></trkpt><trkpt lat="43.38814869695696" lon="-4.380137074969704"><ele>37.0</ele><time>2026-05-01T15:25:54.001Z</time></trkpt><trkpt lat="43.388057547223596" lon="-4.380200588536592"><ele>37.4</ele><time>2026-05-01T15:25:55.001Z</time></trkpt><trkpt lat="43.38797260109272" lon="-4.380255643450489"><ele>37.800000000000004</ele><time>2026-05-01T15:25:56.001Z</time></trkpt><trkpt lat="43.38788391403339" lon="-4.380313297585332"><ele>38.2</ele><time>2026-05-01T15:25:57.001Z</time></trkpt><trkpt lat="43.3877977667026" lon="-4.3803717630300225"><ele>38.6</ele><time>2026-05-01T15:25:58.001Z</time></trkpt><trkpt lat="43.387712070596436" lon="-4.380431924020118"><ele>39.0</ele><time>2026-05-01T15:25:59.001Z</time></trkpt><trkpt lat="43.38762490590383" lon="-4.3804824459061"><ele>40.0</ele><time>2026-05-01T15:26:00.001Z</time></trkpt><trkpt lat="43.38753753200406" lon="-4.380528019420808"><ele>41.0</ele><time>2026-05-01T15:26:01.001Z</time></trkpt><trkpt lat="43.3874471672272" lon="-4.380557785525817"><ele>42.0</ele><time>2026-05-01T15:26:02.001Z</time></trkpt><trkpt lat="43.387353031426215" lon="-4.380580864697341"><ele>43.0</ele><time>2026-05-01T15:26:03.001Z</time></trkpt><trkpt lat="43.387260053581265" lon="-4.380607019148472"><ele>44.0</ele><time>2026-05-01T15:26:04.001Z</time></trkpt><trkpt lat="43.3871660377738" lon="-4.380635502182095"><ele>45.0</ele><time>2026-05-01T15:26:05.001Z</time></trkpt><trkpt lat="43.38707215938507" lon="-4.380666130933832"><ele>46.0</ele><time>2026-05-01T15:26:06.001Z</time></trkpt><trkpt lat="43.386979529410766" lon="-4.380693471760389"><ele>47.0</ele><time>2026-05-01T15:26:07.001Z</time></trkpt><trkpt lat="43.386882057136965" lon="-4.380715649390924"><ele>48.0</ele><time>2026-05-01T15:26:08.001Z</time></trkpt><trkpt lat="43.38678842964703" lon="-4.380725381594827"><ele>49.0</ele><time>2026-05-01T15:26:09.001Z</time></trkpt><trkpt lat="43.38669173299124" lon="-4.3807177483644555"><ele>49.0</ele><time>2026-05-01T15:26:10.001Z</time></trkpt><trkpt lat="43.386596934629715" lon="-4.380701603907266"><ele>49.0</ele><time>2026-05-01T15:26:11.001Z</time></trkpt><trkpt lat="43.38650624377347" lon="-4.380682572366437"><ele>49.0</ele><time>2026-05-01T15:26:12.001Z</time></trkpt><trkpt lat="43.38641352973009" lon="-4.380662348830602"><ele>49.0</ele><time>2026-05-01T15:26:13.001Z</time></trkpt><trkpt lat="43.38632538617449" lon="-4.380638171289547"><ele>49.0</ele><time>2026-05-01T15:26:14.001Z</time></trkpt><trkpt lat="43.38623336229003" lon="-4.38061342794987"><ele>50.0</ele><time>2026-05-01T15:26:15.001Z</time></trkpt><trkpt lat="43.3861451498137" lon="-4.380600401667089"><ele>51.0</ele><time>2026-05-01T15:26:16.001Z</time></trkpt><trkpt lat="43.386056791451864" lon="-4.380619992796411"><ele>52.00000000000001</ele><time>2026-05-01T15:26:17.001Z</time></trkpt><trkpt lat="43.38597339096537" lon="-4.380671571900468"><ele>53.0</ele><time>2026-05-01T15:26:18.001Z</time></trkpt><trkpt lat="43.385901359526926" lon="-4.380755380800852"><ele>54.0</ele><time>2026-05-01T15:26:19.001Z</time></trkpt><trkpt lat="43.38584521642405" lon="-4.380855817697153"><ele>54.0</ele><time>2026-05-01T15:26:20.001Z</time></trkpt><trkpt lat="43.38580712454481" lon="-4.380974956352447"><ele>54.00000000000001</ele><time>2026-05-01T15:26:21.001Z</time></trkpt><trkpt lat="43.385788215859044" lon="-4.381108878627582"><ele>54.00000000000001</ele><time>2026-05-01T15:26:22.001Z</time></trkpt><trkpt lat="43.38577947432404" lon="-4.381247990803895"><ele>54.0</ele><time>2026-05-01T15:26:23.001Z</time></trkpt><trkpt lat="43.385746796545384" lon="-4.381383101742975"><ele>54.0</ele><time>2026-05-01T15:26:24.001Z</time></trkpt><trkpt lat="43.38569510637578" lon="-4.381527018270683"><ele>54.400000000000006</ele><time>2026-05-01T15:26:25.001Z</time></trkpt><trkpt lat="43.385638672993075" lon="-4.381641798270174"><ele>54.800000000000004</ele><time>2026-05-01T15:26:26.001Z</time></trkpt><trkpt lat="43.385576394303335" lon="-4.38175490278469"><ele>55.199999999999996</ele><time>2026-05-01T15:26:27.001Z</time></trkpt><trkpt lat="43.385518189985724" lon="-4.381873541779356"><ele>55.599999999999994</ele><time>2026-05-01T15:26:28.001Z</time></trkpt><trkpt lat="43.38545505607942" lon="-4.382011008484572"><ele>56.0</ele><time>2026-05-01T15:26:29.001Z</time></trkpt><trkpt lat="43.385392822965215" lon="-4.382140099428783"><ele>55.4</ele><time>2026-05-01T15:26:30.001Z</time></trkpt><trkpt lat="43.38533599799678" lon="-4.382249373131311"><ele>54.8</ele><time>2026-05-01T15:26:31.001Z</time></trkpt><trkpt lat="43.38527912970752" lon="-4.382363545130876"><ele>54.199999999999996</ele><time>2026-05-01T15:26:32.001Z</time></trkpt><trkpt lat="43.3852257648828" lon="-4.382484516235979"><ele>53.599999999999994</ele><time>2026-05-01T15:26:33.001Z</time></trkpt><trkpt lat="43.3851815921311" lon="-4.382614230084509"><ele>53.0</ele><time>2026-05-01T15:26:34Z</time></trkpt><trkpt lat="43.385147110832165" lon="-4.382750276970845"><ele>53.0</ele><time>2026-05-01T15:26:35Z</time></trkpt><trkpt lat="43.38512529427776" lon="-4.382888629141872"><ele>53.0</ele><time>2026-05-01T15:26:36Z</time></trkpt><trkpt lat="43.38508748916837" lon="-4.383025124446994"><ele>53.0</ele><time>2026-05-01T15:26:37Z</time></trkpt><trkpt lat="43.38504136831084" lon="-4.383147722727982"><ele>53.0</ele><time>2026-05-01T15:26:38Z</time></trkpt><trkpt lat="43.38497572570152" lon="-4.3832569502648715"><ele>53.0</ele><time>2026-05-01T15:26:39Z</time></trkpt><trkpt lat="43.38491903597658" lon="-4.383380109489399"><ele>51.5</ele><time>2026-05-01T15:26:40Z</time></trkpt><trkpt lat="43.38492086133246" lon="-4.383528109965912"><ele>50.0</ele><time>2026-05-01T15:26:41Z</time></trkpt><trkpt lat="43.384914614983174" lon="-4.3836999072410086"><ele>48.5</ele><time>2026-05-01T15:26:42Z</time></trkpt><trkpt lat="43.38494333046678" lon="-4.383921018499765"><ele>47.0</ele><time>2026-05-01T15:26:43Z</time></trkpt><trkpt lat="43.38495924736965" lon="-4.3840605948338185"><ele>46.0</ele><time>2026-05-01T15:26:44Z</time></trkpt><trkpt lat="43.38497440065247" lon="-4.384154365315346"><ele>45.0</ele><time>2026-05-01T15:26:45Z</time></trkpt><trkpt lat="43.38501179648235" lon="-4.384289959773235"><ele>44.0</ele><time>2026-05-01T15:26:46Z</time></trkpt><trkpt lat="43.38503018011131" lon="-4.384433502672028"><ele>43.0</ele><time>2026-05-01T15:26:47Z</time></trkpt><trkpt lat="43.38501892047453" lon="-4.384623180116397"><ele>42.0</ele><time>2026-05-01T15:26:49Z</time></trkpt><trkpt lat="43.38500419967375" lon="-4.384871960992784"><ele>41.2</ele><time>2026-05-01T15:26:50Z</time></trkpt><trkpt lat="43.38497267241572" lon="-4.3850226295435055"><ele>40.400000000000006</ele><time>2026-05-01T15:26:51Z</time></trkpt><trkpt lat="43.384931348124105" lon="-4.385146362332246"><ele>39.599999999999994</ele><time>2026-05-01T15:26:52Z</time></trkpt><trkpt lat="43.384893850333" lon="-4.38527380823842"><ele>38.8</ele><time>2026-05-01T15:26:53Z</time></trkpt><trkpt lat="43.38486432724081" lon="-4.385405687792567"><ele>38.0</ele><time>2026-05-01T15:26:54Z</time></trkpt><trkpt lat="43.38484162143716" lon="-4.385543035515429"><ele>37.199999999999996</ele><time>2026-05-01T15:26:55Z</time></trkpt><trkpt lat="43.38482249762635" lon="-4.385673495861478"><ele>36.4</ele><time>2026-05-01T15:26:56Z</time></trkpt><trkpt lat="43.38480549980858" lon="-4.3857996096349146"><ele>35.599999999999994</ele><time>2026-05-01T15:26:57Z</time></trkpt><trkpt lat="43.38478556804046" lon="-4.385920377508946"><ele>34.8</ele><time>2026-05-01T15:26:58Z</time></trkpt><trkpt lat="43.38474543129325" lon="-4.386039567726524"><ele>34.0</ele><time>2026-05-01T15:26:59Z</time></trkpt><trkpt lat="43.38461697412007" lon="-4.386243782805933"><ele>33.4</ele><time>2026-05-01T15:27:01Z</time></trkpt><trkpt lat="43.38455087817864" lon="-4.386335950002122"><ele>32.8</ele><time>2026-05-01T15:27:02Z</time></trkpt><trkpt lat="43.384483699363614" lon="-4.3864309649121465"><ele>32.2</ele><time>2026-05-01T15:27:03Z</time></trkpt><trkpt lat="43.38441853604923" lon="-4.386531917851747"><ele>31.6</ele><time>2026-05-01T15:27:04Z</time></trkpt><trkpt lat="43.38435471487166" lon="-4.386642735177962"><ele>31.0</ele><time>2026-05-01T15:27:05Z</time></trkpt><trkpt lat="43.38429835839645" lon="-4.386762627302235"><ele>31.0</ele><time>2026-05-01T15:27:06Z</time></trkpt><trkpt lat="43.384245601572914" lon="-4.386889886716334"><ele>31.0</ele><time>2026-05-01T15:27:07Z</time></trkpt><trkpt lat="43.38420106409922" lon="-4.387020116501517"><ele>31.0</ele><time>2026-05-01T15:27:08Z</time></trkpt><trkpt lat="43.384162345867644" lon="-4.387151317507552"><ele>31.0</ele><time>2026-05-01T15:27:09Z</time></trkpt><trkpt lat="43.38412948215375" lon="-4.387287599881579"><ele>31.0</ele><time>2026-05-01T15:27:10Z</time></trkpt><trkpt lat="43.38410763050919" lon="-4.387419685241824"><ele>30.4</ele><time>2026-05-01T15:27:11Z</time></trkpt><trkpt lat="43.3840863904149" lon="-4.387545781333372"><ele>29.8</ele><time>2026-05-01T15:27:12Z</time></trkpt><trkpt lat="43.38406733480842" lon="-4.387675318864199"><ele>29.199999999999996</ele><time>2026-05-01T15:27:13Z</time></trkpt><trkpt lat="43.38404599945127" lon="-4.38780019375354"><ele>28.599999999999998</ele><time>2026-05-01T15:27:14Z</time></trkpt><trkpt lat="43.38402423292759" lon="-4.387920157127655"><ele>28.0</ele><time>2026-05-01T15:27:15Z</time></trkpt><trkpt lat="43.38399364019942" lon="-4.388037542724377"><ele>25.0</ele><time>2026-05-01T15:27:16Z</time></trkpt><trkpt lat="43.383943592984814" lon="-4.388149624301553"><ele>21.999999999999996</ele><time>2026-05-01T15:27:17Z</time></trkpt><trkpt lat="43.38386979657986" lon="-4.3882360456555904"><ele>19.0</ele><time>2026-05-01T15:27:18Z</time></trkpt><trkpt lat="43.38378698743315" lon="-4.388304684904129"><ele>16.0</ele><time>2026-05-01T15:27:19Z</time></trkpt><trkpt lat="43.383688740688086" lon="-4.388351831710754"><ele>13.0</ele><time>2026-05-01T15:27:20Z</time></trkpt><trkpt lat="43.383589047135196" lon="-4.388397272285121"><ele>12.8</ele><time>2026-05-01T15:27:21Z</time></trkpt><trkpt lat="43.38349678546815" lon="-4.388450351574742"><ele>12.600000000000001</ele><time>2026-05-01T15:27:22Z</time></trkpt><trkpt lat="43.38340977851612" lon="-4.388514717639086"><ele>12.399999999999999</ele><time>2026-05-01T15:27:23Z</time></trkpt><trkpt lat="43.38332691176021" lon="-4.388583168464516"><ele>12.2</ele><time>2026-05-01T15:27:24.001Z</time></trkpt><trkpt lat="43.38324352124581" lon="-4.388660917179564"><ele>12.0</ele><time>2026-05-01T15:27:25.001Z</time></trkpt><trkpt lat="43.38318005642146" lon="-4.38876114252117"><ele>12.0</ele><time>2026-05-01T15:27:26.001Z</time></trkpt><trkpt lat="43.383108849257326" lon="-4.388828155816548"><ele>12.0</ele><time>2026-05-01T15:27:27.001Z</time></trkpt><trkpt lat="43.38305503937299" lon="-4.388899775346167"><ele>12.0</ele><time>2026-05-01T15:27:28.001Z</time></trkpt><trkpt lat="43.382998272451516" lon="-4.388956041176585"><ele>12.0</ele><time>2026-05-01T15:27:29.001Z</time></trkpt><trkpt lat="43.38295856997359" lon="-4.389028461797758"><ele>12.0</ele><time>2026-05-01T15:27:30.001Z</time></trkpt><trkpt lat="43.38290722861875" lon="-4.389091122932408"><ele>12.0</ele><time>2026-05-01T15:27:31.001Z</time></trkpt><trkpt lat="43.38284609990176" lon="-4.389202320825694"><ele>10.571428571428571</ele><time>2026-05-01T15:27:33.001Z</time></trkpt><trkpt lat="43.38284203817153" lon="-4.389289655553961"><ele>9.142857142857142</ele><time>2026-05-01T15:27:35.001Z</time></trkpt><trkpt lat="43.38286936158556" lon="-4.389369879506926"><ele>7.7142857142857135</ele><time>2026-05-01T15:27:41.001Z</time></trkpt><trkpt lat="43.38291408996576" lon="-4.389459630264164"><ele>6.285714285714285</ele><time>2026-05-01T15:27:49.001Z</time></trkpt><trkpt lat="43.3829421184784" lon="-4.389557598735926"><ele>4.857142857142857</ele><time>2026-05-01T15:27:51.001Z</time></trkpt><trkpt lat="43.382888078992224" lon="-4.389654778846106"><ele>3.4285714285714284</ele><time>2026-05-01T15:27:52.001Z</time></trkpt><trkpt lat="43.382857436134756" lon="-4.3897332695912965"><ele>2.0</ele><time>2026-05-01T15:27:53.001Z</time></trkpt><trkpt lat="43.38281607075731" lon="-4.389803193446071"><ele>1.6</ele><time>2026-05-01T15:27:54.001Z</time></trkpt><trkpt lat="43.38277271377128" lon="-4.389866919638262"><ele>1.2000000000000002</ele><time>2026-05-01T15:27:55.001Z</time></trkpt><trkpt lat="43.38268440410152" lon="-4.389974258844268"><ele>0.8</ele><time>2026-05-01T15:27:57.001Z</time></trkpt><trkpt lat="43.38261304637903" lon="-4.3900250147799476"><ele>0.4</ele><time>2026-05-01T15:27:59.001Z</time></trkpt><trkpt lat="43.382542755360504" lon="-4.390027737046143"><ele>0.0</ele><time>2026-05-01T15:28:08.001Z</time></trkpt><trkpt lat="43.382383956389" lon="-4.39019557940942"><ele>0.0</ele><time>2026-05-01T15:28:23.001Z</time></trkpt><trkpt lat="43.382331514265154" lon="-4.390327777412481"><ele>0.0</ele><time>2026-05-01T15:28:25.001Z</time></trkpt><trkpt lat="43.38230380108551" lon="-4.3904067715271955"><ele>0.0</ele><time>2026-05-01T15:28:26.001Z</time></trkpt><trkpt lat="43.382276467844" lon="-4.390492373829245"><ele>0.0</ele><time>2026-05-01T15:28:27.001Z</time></trkpt><trkpt lat="43.38225129178465" lon="-4.390583488702235"><ele>0.0</ele><time>2026-05-01T15:28:28.001Z</time></trkpt><trkpt lat="43.38222703176886" lon="-4.3906716543705375"><ele>0.0</ele><time>2026-05-01T15:28:29.001Z</time></trkpt><trkpt lat="43.382205548746136" lon="-4.390757419415737"><ele>0.0</ele><time>2026-05-01T15:28:30.001Z</time></trkpt><trkpt lat="43.382186208413415" lon="-4.390842059450618"><ele>0.0</ele><time>2026-05-01T15:28:31.001Z</time></trkpt><trkpt lat="43.38215378022452" lon="-4.391000285099149"><ele>0.0</ele><time>2026-05-01T15:28:33.001Z</time></trkpt><trkpt lat="43.382120674064495" lon="-4.391129107360642"><ele>0.0</ele><time>2026-05-01T15:28:35.001Z</time></trkpt><trkpt lat="43.38209009945785" lon="-4.39126380279454"><ele>0.0</ele><time>2026-05-01T15:28:37.001Z</time></trkpt><trkpt lat="43.38206726786657" lon="-4.391424096070707"><ele>0.0</ele><time>2026-05-01T15:28:39.001Z</time></trkpt><trkpt lat="43.38205636222005" lon="-4.391511725635764"><ele>0.0</ele><time>2026-05-01T15:28:40Z</time></trkpt><trkpt lat="43.38204484443325" lon="-4.391601613102678"><ele>0.0</ele><time>2026-05-01T15:28:41Z</time></trkpt><trkpt lat="43.38203230447289" lon="-4.391696541430797"><ele>0.0</ele><time>2026-05-01T15:28:42Z</time></trkpt><trkpt lat="43.382020222527785" lon="-4.3917953893750346"><ele>0.0</ele><time>2026-05-01T15:28:43Z</time></trkpt><trkpt lat="43.38200753704883" lon="-4.391893469950592"><ele>0.0</ele><time>2026-05-01T15:28:44Z</time></trkpt><trkpt lat="43.38199218838224" lon="-4.391992322109661"><ele>0.0</ele><time>2026-05-01T15:28:45Z</time></trkpt><trkpt lat="43.38198135688023" lon="-4.392094752856138"><ele>0.0</ele><time>2026-05-01T15:28:46Z</time></trkpt><trkpt lat="43.38196898743927" lon="-4.392202798629474"><ele>-0.16666666666666666</ele><time>2026-05-01T15:28:47Z</time></trkpt><trkpt lat="43.381953833041194" lon="-4.39231097460402"><ele>-0.3333333333333333</ele><time>2026-05-01T15:28:48Z</time></trkpt><trkpt lat="43.381937390488574" lon="-4.3924204400140665"><ele>-0.5</ele><time>2026-05-01T15:28:49Z</time></trkpt><trkpt lat="43.38192191954864" lon="-4.392532868564008"><ele>-0.6666666666666666</ele><time>2026-05-01T15:28:50Z</time></trkpt><trkpt lat="43.381905682020424" lon="-4.392644737013857"><ele>-0.8333333333333333</ele><time>2026-05-01T15:28:51Z</time></trkpt><trkpt lat="43.38189101117107" lon="-4.39275507019669"><ele>-1.0</ele><time>2026-05-01T15:28:52Z</time></trkpt><trkpt lat="43.38187648976262" lon="-4.392866541442782"><ele>-0.9999999999999999</ele><time>2026-05-01T15:28:53Z</time></trkpt><trkpt lat="43.381861909059275" lon="-4.392979058118887"><ele>-1.0</ele><time>2026-05-01T15:28:54Z</time></trkpt><trkpt lat="43.38184701294494" lon="-4.393091047154287"><ele>-1.0</ele><time>2026-05-01T15:28:55Z</time></trkpt><trkpt lat="43.381831463761195" lon="-4.393203496471687"><ele>-1.0</ele><time>2026-05-01T15:28:56Z</time></trkpt><trkpt lat="43.38181599766599" lon="-4.393318683061111"><ele>-0.9999999999999999</ele><time>2026-05-01T15:28:57Z</time></trkpt><trkpt lat="43.38179842873614" lon="-4.393436344054995"><ele>-1.0</ele><time>2026-05-01T15:28:58Z</time></trkpt><trkpt lat="43.381782716459675" lon="-4.393553740192134"><ele>-0.9999999999999999</ele><time>2026-05-01T15:28:59Z</time></trkpt><trkpt lat="43.38176787920856" lon="-4.393669694708567"><ele>-1.0</ele><time>2026-05-01T15:29:00Z</time></trkpt><trkpt lat="43.38175294852875" lon="-4.393783855263846"><ele>-1.0</ele><time>2026-05-01T15:29:01Z</time></trkpt><trkpt lat="43.381737822077575" lon="-4.393896787071371"><ele>-1.0</ele><time>2026-05-01T15:29:02Z</time></trkpt><trkpt lat="43.381721413271414" lon="-4.3940101162903895"><ele>-0.9999999999999999</ele><time>2026-05-01T15:29:03Z</time></trkpt><trkpt lat="43.381705586982434" lon="-4.394127274604996"><ele>-1.0</ele><time>2026-05-01T15:29:04Z</time></trkpt><trkpt lat="43.38168964475225" lon="-4.394249748365514"><ele>-1.0</ele><time>2026-05-01T15:29:05Z</time></trkpt><trkpt lat="43.38167336013609" lon="-4.394376172393465"><ele>-1.0</ele><time>2026-05-01T15:29:06Z</time></trkpt><trkpt lat="43.381654263472136" lon="-4.394505454355781"><ele>-1.0</ele><time>2026-05-01T15:29:07Z</time></trkpt><trkpt lat="43.38163580114798" lon="-4.394637250246353"><ele>-1.0</ele><time>2026-05-01T15:29:08Z</time></trkpt><trkpt lat="43.38161829574799" lon="-4.394769276692891"><ele>-1.0</ele><time>2026-05-01T15:29:09Z</time></trkpt><trkpt lat="43.38159973095421" lon="-4.394900751672995"><ele>-1.2000000000000002</ele><time>2026-05-01T15:29:10Z</time></trkpt><trkpt lat="43.3815821039698" lon="-4.395035495191318"><ele>-1.4000000000000001</ele><time>2026-05-01T15:29:11Z</time></trkpt><trkpt lat="43.38156462923885" lon="-4.395171730191463"><ele>-1.6</ele><time>2026-05-01T15:29:12Z</time></trkpt><trkpt lat="43.38154817716678" lon="-4.39530414770273"><ele>-1.8</ele><time>2026-05-01T15:29:13Z</time></trkpt><trkpt lat="43.381529893657714" lon="-4.395432513229233"><ele>-2.0</ele><time>2026-05-01T15:29:14Z</time></trkpt><trkpt lat="43.38151366324124" lon="-4.395566707867945"><ele>-1.9999999999999998</ele><time>2026-05-01T15:29:15Z</time></trkpt><trkpt lat="43.38149754085941" lon="-4.395694601399109"><ele>-2.0</ele><time>2026-05-01T15:29:16Z</time></trkpt><trkpt lat="43.38148127948077" lon="-4.395816580114504"><ele>-2.0</ele><time>2026-05-01T15:29:17Z</time></trkpt><trkpt lat="43.38146566616641" lon="-4.3959390189218395"><ele>-2.0</ele><time>2026-05-01T15:29:18Z</time></trkpt><trkpt lat="43.38145177218812" lon="-4.396059941759494"><ele>-1.9999999999999998</ele><time>2026-05-01T15:29:19Z</time></trkpt><trkpt lat="43.381439782073734" lon="-4.396173679532471"><ele>-2.0</ele><time>2026-05-01T15:29:20Z</time></trkpt><trkpt lat="43.38142758301466" lon="-4.396280981463423"><ele>-1.5714285714285714</ele><time>2026-05-01T15:29:21Z</time></trkpt><trkpt lat="43.38141490929792" lon="-4.396381871932593"><ele>-1.1428571428571428</ele><time>2026-05-01T15:29:22Z</time></trkpt><trkpt lat="43.38140301847388" lon="-4.39647562802895"><ele>-0.7142857142857142</ele><time>2026-05-01T15:29:23Z</time></trkpt><trkpt lat="43.38139399962705" lon="-4.3965651156697065"><ele>-0.2857142857142857</ele><time>2026-05-01T15:29:24Z</time></trkpt><trkpt lat="43.3813862118438" lon="-4.396653557316739"><ele>0.1428571428571428</ele><time>2026-05-01T15:29:25Z</time></trkpt><trkpt lat="43.38137863396898" lon="-4.396746646673597"><ele>0.5714285714285714</ele><time>2026-05-01T15:29:26Z</time></trkpt><trkpt lat="43.38138008857398" lon="-4.396885663129727"><ele>1.0</ele><time>2026-05-01T15:29:28.001Z</time></trkpt><trkpt lat="43.38140782855932" lon="-4.397003369243635"><ele>1.0</ele><time>2026-05-01T15:29:30.001Z</time></trkpt><trkpt lat="43.38149567160443" lon="-4.397106810845618"><ele>1.0</ele><time>2026-05-01T15:29:32.001Z</time></trkpt><trkpt lat="43.381599391739215" lon="-4.397198456996922"><ele>1.0</ele><time>2026-05-01T15:29:34.001Z</time></trkpt><trkpt lat="43.38168199836843" lon="-4.397262541173743"><ele>1.0</ele><time>2026-05-01T15:29:36.001Z</time></trkpt><trkpt lat="43.38173941512063" lon="-4.397324628160716"><ele>1.0</ele><time>2026-05-01T15:29:38.001Z</time></trkpt><trkpt lat="43.38183487348337" lon="-4.397396197691642"><ele>1.2000000000000002</ele><time>2026-05-01T15:29:40.001Z</time></trkpt><trkpt lat="43.381929941239996" lon="-4.397487893007286"><ele>1.4000000000000001</ele><time>2026-05-01T15:29:42.001Z</time></trkpt><trkpt lat="43.38202824604371" lon="-4.397577983685697"><ele>1.6</ele><time>2026-05-01T15:29:44.001Z</time></trkpt><trkpt lat="43.38211581073374" lon="-4.39764616458741"><ele>1.8</ele><time>2026-05-01T15:29:46.001Z</time></trkpt><trkpt lat="43.382196321985504" lon="-4.397714268021735"><ele>2.0</ele><time>2026-05-01T15:29:48.001Z</time></trkpt><trkpt lat="43.382291848365554" lon="-4.397793775360619"><ele>2.0</ele><time>2026-05-01T15:29:50.001Z</time></trkpt><trkpt lat="43.38239083732651" lon="-4.397876238272925"><ele>1.9999999999999998</ele><time>2026-05-01T15:29:52.001Z</time></trkpt><trkpt lat="43.382445138086645" lon="-4.397921554788782"><ele>2.0</ele><time>2026-05-01T15:29:53.001Z</time></trkpt><trkpt lat="43.38250029120867" lon="-4.397967582643447"><ele>2.0</ele><time>2026-05-01T15:29:54.001Z</time></trkpt><trkpt lat="43.38255470222467" lon="-4.398013059775168"><ele>1.9999999999999998</ele><time>2026-05-01T15:29:55.001Z</time></trkpt><trkpt lat="43.38261353002336" lon="-4.398062242751684"><ele>2.0</ele><time>2026-05-01T15:29:56.001Z</time></trkpt><trkpt lat="43.382675826540826" lon="-4.398114429590286"><ele>2.0</ele><time>2026-05-01T15:29:57.001Z</time></trkpt><trkpt lat="43.38274000952533" lon="-4.398168139998202"><ele>2.5</ele><time>2026-05-01T15:29:58.001Z</time></trkpt><trkpt lat="43.38280652689533" lon="-4.398223793942376"><ele>3.0</ele><time>2026-05-01T15:29:59.001Z</time></trkpt><trkpt lat="43.38287285688402" lon="-4.39827913830467"><ele>3.5</ele><time>2026-05-01T15:30:00.001Z</time></trkpt><trkpt lat="43.382941360106294" lon="-4.398336295977056"><ele>4.0</ele><time>2026-05-01T15:30:01.001Z</time></trkpt><trkpt lat="43.383010697538055" lon="-4.398394149691763"><ele>4.5</ele><time>2026-05-01T15:30:02.001Z</time></trkpt><trkpt lat="43.38307689756686" lon="-4.398449385624431"><ele>5.0</ele><time>2026-05-01T15:30:03.001Z</time></trkpt><trkpt lat="43.383143240597676" lon="-4.398504740874829"><ele>5.0</ele><time>2026-05-01T15:30:04.001Z</time></trkpt><trkpt lat="43.38320994860372" lon="-4.398560567183131"><ele>5.0</ele><time>2026-05-01T15:30:05.001Z</time></trkpt><trkpt lat="43.383276504256926" lon="-4.398616591793713"><ele>5.0</ele><time>2026-05-01T15:30:06.001Z</time></trkpt><trkpt lat="43.383344063453755" lon="-4.398673896046058"><ele>5.0</ele><time>2026-05-01T15:30:07.001Z</time></trkpt><trkpt lat="43.38340970416726" lon="-4.398729651374138"><ele>5.0</ele><time>2026-05-01T15:30:08.001Z</time></trkpt><trkpt lat="43.38347214141041" lon="-4.398782972924535"><ele>5.0</ele><time>2026-05-01T15:30:09.001Z</time></trkpt><trkpt lat="43.38353679523957" lon="-4.3988381874369855"><ele>5.0</ele><time>2026-05-01T15:30:10.001Z</time></trkpt><trkpt lat="43.38359804587531" lon="-4.3988903965973325"><ele>5.0</ele><time>2026-05-01T15:30:11.001Z</time></trkpt><trkpt lat="43.38365957014809" lon="-4.3989426893555965"><ele>5.0</ele><time>2026-05-01T15:30:12.001Z</time></trkpt><trkpt lat="43.38372069345272" lon="-4.398996760218176"><ele>5.0</ele><time>2026-05-01T15:30:13.001Z</time></trkpt><trkpt lat="43.38378016482133" lon="-4.399048267706335"><ele>5.0</ele><time>2026-05-01T15:30:14.001Z</time></trkpt><trkpt lat="43.38384059751769" lon="-4.399100607791103"><ele>5.0</ele><time>2026-05-01T15:30:15.001Z</time></trkpt><trkpt lat="43.38389883083278" lon="-4.399151043028295"><ele>5.0</ele><time>2026-05-01T15:30:16.001Z</time></trkpt><trkpt lat="43.38395333482313" lon="-4.399198248327408"><ele>4.5</ele><time>2026-05-01T15:30:17.001Z</time></trkpt><trkpt lat="43.384050637925455" lon="-4.399282521466661"><ele>4.0</ele><time>2026-05-01T15:30:19.001Z</time></trkpt><trkpt lat="43.38413854380393" lon="-4.399360161673502"><ele>3.5</ele><time>2026-05-01T15:30:21.001Z</time></trkpt><trkpt lat="43.3842277000757" lon="-4.399439030713991"><ele>3.0</ele><time>2026-05-01T15:30:23.001Z</time></trkpt><trkpt lat="43.38438425010109" lon="-4.39955247721719"><ele>3.0</ele><time>2026-05-01T15:30:26.001Z</time></trkpt><trkpt lat="43.38448215425619" lon="-4.399550525727152"><ele>3.0</ele><time>2026-05-01T15:30:28.001Z</time></trkpt><trkpt lat="43.38459101581135" lon="-4.3994709559046425"><ele>3.0</ele><time>2026-05-01T15:30:30.001Z</time></trkpt><trkpt lat="43.3846512556857" lon="-4.39941443413701"><ele>3.0</ele><time>2026-05-01T15:30:31.001Z</time></trkpt><trkpt lat="43.384695830817584" lon="-4.399348130091203"><ele>3.0</ele><time>2026-05-01T15:30:32.001Z</time></trkpt><trkpt lat="43.38474515937453" lon="-4.399279651642326"><ele>3.0</ele><time>2026-05-01T15:30:33.001Z</time></trkpt><trkpt lat="43.38479362471168" lon="-4.399198845359813"><ele>3.3333333333333335</ele><time>2026-05-01T15:30:34.001Z</time></trkpt><trkpt lat="43.384843349424365" lon="-4.3991250565972315"><ele>3.666666666666667</ele><time>2026-05-01T15:30:35.001Z</time></trkpt><trkpt lat="43.38489681308609" lon="-4.39904576288295"><ele>4.0</ele><time>2026-05-01T15:30:36.001Z</time></trkpt><trkpt lat="43.384950957815306" lon="-4.398964302407597"><ele>4.333333333333334</ele><time>2026-05-01T15:30:37.001Z</time></trkpt><trkpt lat="43.38500333610511" lon="-4.398882752291502"><ele>4.666666666666667</ele><time>2026-05-01T15:30:38.001Z</time></trkpt><trkpt lat="43.38505762014713" lon="-4.398804258244862"><ele>5.0</ele><time>2026-05-01T15:30:39.001Z</time></trkpt><trkpt lat="43.3851101355879" lon="-4.398718379544921"><ele>5.0</ele><time>2026-05-01T15:30:40.001Z</time></trkpt><trkpt lat="43.38516423049726" lon="-4.398636693956486"><ele>5.0</ele><time>2026-05-01T15:30:41.001Z</time></trkpt><trkpt lat="43.38521840874249" lon="-4.398552882429653"><ele>5.0</ele><time>2026-05-01T15:30:42.001Z</time></trkpt><trkpt lat="43.38527210315354" lon="-4.398471052282454"><ele>5.0</ele><time>2026-05-01T15:30:43.001Z</time></trkpt><trkpt lat="43.38532912186484" lon="-4.398390425302827"><ele>5.0</ele><time>2026-05-01T15:30:44.001Z</time></trkpt><trkpt lat="43.3853853879847" lon="-4.398311341453028"><ele>5.0</ele><time>2026-05-01T15:30:45.001Z</time></trkpt><trkpt lat="43.38544292839584" lon="-4.39823713237138"><ele>5.0</ele><time>2026-05-01T15:30:46Z</time></trkpt><trkpt lat="43.385495995749096" lon="-4.398149536819049"><ele>5.0</ele><time>2026-05-01T15:30:47Z</time></trkpt><trkpt lat="43.38555440189386" lon="-4.398084096402458"><ele>5.0</ele><time>2026-05-01T15:30:48Z</time></trkpt><trkpt lat="43.38561444218153" lon="-4.3980208618048895"><ele>5.0</ele><time>2026-05-01T15:30:49Z</time></trkpt><trkpt lat="43.385693388207464" lon="-4.397989487275227"><ele>5.0</ele><time>2026-05-01T15:30:50Z</time></trkpt><trkpt lat="43.38577644601911" lon="-4.397989642527036"><ele>5.0</ele><time>2026-05-01T15:30:51Z</time></trkpt><trkpt lat="43.385853822784334" lon="-4.398013033489766"><ele>5.0</ele><time>2026-05-01T15:30:52Z</time></trkpt><trkpt lat="43.38592448385822" lon="-4.398051686548166"><ele>5.0</ele><time>2026-05-01T15:30:53Z</time></trkpt><trkpt lat="43.38599179473364" lon="-4.398087101314463"><ele>5.0</ele><time>2026-05-01T15:30:54Z</time></trkpt><trkpt lat="43.38605755004821" lon="-4.398126385134373"><ele>5.0</ele><time>2026-05-01T15:30:55Z</time></trkpt><trkpt lat="43.38612388237305" lon="-4.39816542009906"><ele>5.0</ele><time>2026-05-01T15:30:56Z</time></trkpt><trkpt lat="43.386195330593935" lon="-4.398207465655055"><ele>5.0</ele><time>2026-05-01T15:30:57Z</time></trkpt><trkpt lat="43.38626828339363" lon="-4.398250396613325"><ele>5.0</ele><time>2026-05-01T15:30:58Z</time></trkpt><trkpt lat="43.38634493726384" lon="-4.398294850141214"><ele>4.0</ele><time>2026-05-01T15:30:59Z</time></trkpt><trkpt lat="43.38642394752825" lon="-4.398340093256174"><ele>3.0</ele><time>2026-05-01T15:31:00Z</time></trkpt><trkpt lat="43.38650327187658" lon="-4.398385516219708"><ele>2.0</ele><time>2026-05-01T15:31:01Z</time></trkpt><trkpt lat="43.386584231788234" lon="-4.398431711147648"><ele>1.0</ele><time>2026-05-01T15:31:02Z</time></trkpt><trkpt lat="43.38666643723366" lon="-4.39847853112002"><ele>1.1102230246251565E-16</ele><time>2026-05-01T15:31:03Z</time></trkpt><trkpt lat="43.386748634812264" lon="-4.398525346610839"><ele>-1.0</ele><time>2026-05-01T15:31:04Z</time></trkpt><trkpt lat="43.38683011853939" lon="-4.398571755528947"><ele>-0.9999999999999999</ele><time>2026-05-01T15:31:05Z</time></trkpt><trkpt lat="43.386910467290555" lon="-4.398618527437021"><ele>-1.0</ele><time>2026-05-01T15:31:06Z</time></trkpt><trkpt lat="43.386990143091715" lon="-4.398666274097455"><ele>-1.0</ele><time>2026-05-01T15:31:07Z</time></trkpt><trkpt lat="43.38706563325746" lon="-4.398717896867237"><ele>-1.0</ele><time>2026-05-01T15:31:08Z</time></trkpt><trkpt lat="43.387132138791145" lon="-4.3987889744804445"><ele>-0.9999999999999999</ele><time>2026-05-01T15:31:09Z</time></trkpt><trkpt lat="43.38718600478836" lon="-4.398854249960902"><ele>-1.0</ele><time>2026-05-01T15:31:10Z</time></trkpt><trkpt lat="43.38723402615404" lon="-4.398917929296274"><ele>1.2</ele><time>2026-05-01T15:31:11Z</time></trkpt><trkpt lat="43.387268709505214" lon="-4.398993881118357"><ele>3.4</ele><time>2026-05-01T15:31:12Z</time></trkpt><trkpt lat="43.38735708280717" lon="-4.3990479715346025"><ele>5.6</ele><time>2026-05-01T15:31:14Z</time></trkpt><trkpt lat="43.387489652987384" lon="-4.39897416466447"><ele>7.8</ele><time>2026-05-01T15:33:24Z</time></trkpt><trkpt lat="43.38755239903192" lon="-4.399062190089803"><ele>10.0</ele><time>2026-05-01T15:33:29Z</time></trkpt><trkpt lat="43.387525781569266" lon="-4.399147445468074"><ele>10.0</ele><time>2026-05-01T15:33:31Z</time></trkpt><trkpt lat="43.387491995972276" lon="-4.399254964802497"><ele>10.0</ele><time>2026-05-01T15:33:34Z</time></trkpt><trkpt lat="43.387436853743964" lon="-4.399367812919358"><ele>10.0</ele><time>2026-05-01T15:33:36Z</time></trkpt><trkpt lat="43.38742140228747" lon="-4.399540131287206"><ele>10.0</ele><time>2026-05-01T15:33:38Z</time></trkpt><trkpt lat="43.387424300878145" lon="-4.399636429308928"><ele>10.0</ele><time>2026-05-01T15:33:39Z</time></trkpt><trkpt lat="43.38742612339226" lon="-4.399735887047355"><ele>10.5</ele><time>2026-05-01T15:33:40Z</time></trkpt><trkpt lat="43.387423529153146" lon="-4.399838629266933"><ele>11.0</ele><time>2026-05-01T15:33:41Z</time></trkpt><trkpt lat="43.387412197463746" lon="-4.399945651869173"><ele>11.5</ele><time>2026-05-01T15:33:42Z</time></trkpt><trkpt lat="43.38740300162573" lon="-4.400053962508131"><ele>12.0</ele><time>2026-05-01T15:33:43Z</time></trkpt><trkpt lat="43.3873960273104" lon="-4.400167164027373"><ele>12.499999999999998</ele><time>2026-05-01T15:33:44Z</time></trkpt><trkpt lat="43.38739334057745" lon="-4.400282339502521"><ele>13.0</ele><time>2026-05-01T15:33:45Z</time></trkpt><trkpt lat="43.38739009403822" lon="-4.400398748699541"><ele>12.833333333333332</ele><time>2026-05-01T15:33:46Z</time></trkpt><trkpt lat="43.387388276522415" lon="-4.400514775992922"><ele>12.666666666666666</ele><time>2026-05-01T15:33:47Z</time></trkpt><trkpt lat="43.387391817256145" lon="-4.400632845986776"><ele>12.5</ele><time>2026-05-01T15:33:48Z</time></trkpt><trkpt lat="43.38740220620636" lon="-4.400750973220743"><ele>12.333333333333332</ele><time>2026-05-01T15:33:49Z</time></trkpt><trkpt lat="43.38741849412782" lon="-4.4008674729295585"><ele>12.166666666666666</ele><time>2026-05-01T15:33:50Z</time></trkpt><trkpt lat="43.38743861250211" lon="-4.400982089043771"><ele>12.0</ele><time>2026-05-01T15:33:51Z</time></trkpt><trkpt lat="43.38745952701516" lon="-4.401095541411432"><ele>12.0</ele><time>2026-05-01T15:33:52Z</time></trkpt><trkpt lat="43.3874847151172" lon="-4.401210787265029"><ele>12.0</ele><time>2026-05-01T15:33:53Z</time></trkpt><trkpt lat="43.387516155592444" lon="-4.401323715385898"><ele>12.0</ele><time>2026-05-01T15:33:54Z</time></trkpt><trkpt lat="43.387552862483936" lon="-4.401432998492217"><ele>12.0</ele><time>2026-05-01T15:33:55Z</time></trkpt><trkpt lat="43.38759392712629" lon="-4.401539317693975"><ele>12.0</ele><time>2026-05-01T15:33:56Z</time></trkpt><trkpt lat="43.387641796118366" lon="-4.401641518164108"><ele>12.0</ele><time>2026-05-01T15:33:57Z</time></trkpt><trkpt lat="43.38768750907773" lon="-4.401735459407811"><ele>12.0</ele><time>2026-05-01T15:33:58Z</time></trkpt><trkpt lat="43.38772880666776" lon="-4.401825538537237"><ele>12.0</ele><time>2026-05-01T15:33:59Z</time></trkpt><trkpt lat="43.38776622462981" lon="-4.401912683933852"><ele>12.0</ele><time>2026-05-01T15:34:00Z</time></trkpt><trkpt lat="43.387802090117475" lon="-4.401993370364822"><ele>12.0</ele><time>2026-05-01T15:34:01Z</time></trkpt><trkpt lat="43.38790392666745" lon="-4.402176352199639"><ele>12.0</ele><time>2026-05-01T15:34:02Z</time></trkpt><trkpt lat="43.38794439810515" lon="-4.402259022438764"><ele>11.0</ele><time>2026-05-01T15:34:03Z</time></trkpt><trkpt lat="43.388007273307245" lon="-4.402363689590574"><ele>10.0</ele><time>2026-05-01T15:34:04Z</time></trkpt><trkpt lat="43.38806627918969" lon="-4.4024697349542645"><ele>9.0</ele><time>2026-05-01T15:34:05Z</time></trkpt><trkpt lat="43.38812315946726" lon="-4.40257531574445"><ele>8.0</ele><time>2026-05-01T15:34:06Z</time></trkpt><trkpt lat="43.38817731071378" lon="-4.402683915293102"><ele>7.0</ele><time>2026-05-01T15:34:07Z</time></trkpt><trkpt lat="43.38823199725638" lon="-4.4027923977807255"><ele>10.2</ele><time>2026-05-01T15:34:08Z</time></trkpt><trkpt lat="43.388282575681274" lon="-4.402902929547199"><ele>13.399999999999999</ele><time>2026-05-01T15:34:09Z</time></trkpt><trkpt lat="43.38832527991535" lon="-4.4030165441564115"><ele>16.599999999999998</ele><time>2026-05-01T15:34:10Z</time></trkpt><trkpt lat="43.38836466760577" lon="-4.403134706802121"><ele>19.799999999999997</ele><time>2026-05-01T15:34:11Z</time></trkpt><trkpt lat="43.38839625935981" lon="-4.403251960667908"><ele>23.0</ele><time>2026-05-01T15:34:12Z</time></trkpt><trkpt lat="43.38842500764243" lon="-4.40337422701676"><ele>23.0</ele><time>2026-05-01T15:34:13Z</time></trkpt><trkpt lat="43.38844634969432" lon="-4.403498980429966"><ele>23.0</ele><time>2026-05-01T15:34:14.001Z</time></trkpt><trkpt lat="43.388463667457735" lon="-4.403623403139599"><ele>23.0</ele><time>2026-05-01T15:34:15.001Z</time></trkpt><trkpt lat="43.388478311297796" lon="-4.403749493258855"><ele>23.0</ele><time>2026-05-01T15:34:16.001Z</time></trkpt><trkpt lat="43.38849744738668" lon="-4.403879471605264"><ele>23.0</ele><time>2026-05-01T15:34:17.001Z</time></trkpt><trkpt lat="43.38848582258126" lon="-4.403993116966443"><ele>23.0</ele><time>2026-05-01T15:34:18.001Z</time></trkpt><trkpt lat="43.38848570048663" lon="-4.404117643285086"><ele>23.0</ele><time>2026-05-01T15:34:19.001Z</time></trkpt><trkpt lat="43.38847770596577" lon="-4.404240677308874"><ele>23.0</ele><time>2026-05-01T15:34:20.001Z</time></trkpt><trkpt lat="43.38846200642402" lon="-4.404361245649874"><ele>23.0</ele><time>2026-05-01T15:34:21.001Z</time></trkpt><trkpt lat="43.388440826190404" lon="-4.404479598990887"><ele>23.0</ele><time>2026-05-01T15:34:22.001Z</time></trkpt><trkpt lat="43.38841422523599" lon="-4.404600864511552"><ele>24.2</ele><time>2026-05-01T15:34:23.001Z</time></trkpt><trkpt lat="43.388381769970614" lon="-4.404729143674853"><ele>25.4</ele><time>2026-05-01T15:34:24.001Z</time></trkpt><trkpt lat="43.3883500667429" lon="-4.404850202631843"><ele>26.599999999999998</ele><time>2026-05-01T15:34:25.001Z</time></trkpt><trkpt lat="43.38831866716618" lon="-4.404970689710633"><ele>27.799999999999997</ele><time>2026-05-01T15:34:26.001Z</time></trkpt><trkpt lat="43.38828765650949" lon="-4.405096339357266"><ele>29.0</ele><time>2026-05-01T15:34:27.001Z</time></trkpt><trkpt lat="43.38825885917503" lon="-4.405226723758013"><ele>29.0</ele><time>2026-05-01T15:34:28.001Z</time></trkpt><trkpt lat="43.38822647182966" lon="-4.405352390539927"><ele>29.0</ele><time>2026-05-01T15:34:29.001Z</time></trkpt><trkpt lat="43.38820209255575" lon="-4.405484535245613"><ele>29.0</ele><time>2026-05-01T15:34:30.001Z</time></trkpt><trkpt lat="43.38818737421364" lon="-4.405616927186363"><ele>29.0</ele><time>2026-05-01T15:34:31.001Z</time></trkpt><trkpt lat="43.38818587711738" lon="-4.405753881261425"><ele>29.0</ele><time>2026-05-01T15:34:32.001Z</time></trkpt><trkpt lat="43.38818862448541" lon="-4.405888138251694"><ele>30.0</ele><time>2026-05-01T15:34:33.001Z</time></trkpt><trkpt lat="43.38819902457063" lon="-4.406025808585793"><ele>31.0</ele><time>2026-05-01T15:34:34.001Z</time></trkpt><trkpt lat="43.38821508788096" lon="-4.406161139504708"><ele>32.0</ele><time>2026-05-01T15:34:35.001Z</time></trkpt><trkpt lat="43.38823347189903" lon="-4.406293706649654"><ele>33.0</ele><time>2026-05-01T15:34:36.001Z</time></trkpt><trkpt lat="43.3882467472424" lon="-4.406428466944131"><ele>34.0</ele><time>2026-05-01T15:34:37.001Z</time></trkpt><trkpt lat="43.38825880652945" lon="-4.406564778868063"><ele>34.8</ele><time>2026-05-01T15:34:38.001Z</time></trkpt><trkpt lat="43.38827110846075" lon="-4.406698447465132"><ele>35.599999999999994</ele><time>2026-05-01T15:34:39.001Z</time></trkpt><trkpt lat="43.38828060793395" lon="-4.406832456837388"><ele>36.4</ele><time>2026-05-01T15:34:40.001Z</time></trkpt><trkpt lat="43.38829966260674" lon="-4.406954920830266"><ele>37.199999999999996</ele><time>2026-05-01T15:34:41.001Z</time></trkpt><trkpt lat="43.3883112111323" lon="-4.407085704254617"><ele>38.0</ele><time>2026-05-01T15:34:42.001Z</time></trkpt><trkpt lat="43.38832188572615" lon="-4.407220356667984"><ele>38.0</ele><time>2026-05-01T15:34:43.001Z</time></trkpt><trkpt lat="43.38833042242788" lon="-4.407357190087503"><ele>38.0</ele><time>2026-05-01T15:34:44.001Z</time></trkpt><trkpt lat="43.38834501964142" lon="-4.407492968848953"><ele>38.0</ele><time>2026-05-01T15:34:45.001Z</time></trkpt><trkpt lat="43.388360999749196" lon="-4.4076249403436"><ele>38.0</ele><time>2026-05-01T15:34:46.001Z</time></trkpt><trkpt lat="43.38838097485052" lon="-4.407757331443276"><ele>38.0</ele><time>2026-05-01T15:34:47.001Z</time></trkpt><trkpt lat="43.38840279686988" lon="-4.407891297232551"><ele>38.0</ele><time>2026-05-01T15:34:48.001Z</time></trkpt><trkpt lat="43.38842119293391" lon="-4.4080161814878815"><ele>38.0</ele><time>2026-05-01T15:34:49.001Z</time></trkpt><trkpt lat="43.38843843954429" lon="-4.408138850924291"><ele>38.0</ele><time>2026-05-01T15:34:50.001Z</time></trkpt><trkpt lat="43.38845367027877" lon="-4.408265959897212"><ele>38.0</ele><time>2026-05-01T15:34:51.001Z</time></trkpt><trkpt lat="43.388470383410166" lon="-4.408396308788417"><ele>38.0</ele><time>2026-05-01T15:34:52.001Z</time></trkpt><trkpt lat="43.38847940824535" lon="-4.40852515354193"><ele>38.0</ele><time>2026-05-01T15:34:53.001Z</time></trkpt><trkpt lat="43.38848551388439" lon="-4.40866254548766"><ele>38.0</ele><time>2026-05-01T15:34:54.001Z</time></trkpt><trkpt lat="43.38847384705965" lon="-4.408784256088054"><ele>38.0</ele><time>2026-05-01T15:34:55.001Z</time></trkpt><trkpt lat="43.388444972458025" lon="-4.4089096779267525"><ele>38.0</ele><time>2026-05-01T15:34:56.001Z</time></trkpt><trkpt lat="43.388409626257726" lon="-4.409025306939959"><ele>38.0</ele><time>2026-05-01T15:34:57.001Z</time></trkpt><trkpt lat="43.38836703299566" lon="-4.409144286919367"><ele>39.8</ele><time>2026-05-01T15:34:57.999Z</time></trkpt><trkpt lat="43.388327757056786" lon="-4.409266420148924"><ele>41.599999999999994</ele><time>2026-05-01T15:34:58.999Z</time></trkpt><trkpt lat="43.388269750274375" lon="-4.409373238658208"><ele>43.400000000000006</ele><time>2026-05-01T15:34:59.999Z</time></trkpt><trkpt lat="43.38821585642951" lon="-4.409474155786874"><ele>45.2</ele><time>2026-05-01T15:35:00.999Z</time></trkpt><trkpt lat="43.38816181632461" lon="-4.409581332628179"><ele>47.0</ele><time>2026-05-01T15:35:01.999Z</time></trkpt><trkpt lat="43.388112491163014" lon="-4.409696074816737"><ele>45.6</ele><time>2026-05-01T15:35:02.999Z</time></trkpt><trkpt lat="43.38806267892763" lon="-4.409813566754303"><ele>44.2</ele><time>2026-05-01T15:35:03.999Z</time></trkpt><trkpt lat="43.38801647736658" lon="-4.409922822329724"><ele>42.8</ele><time>2026-05-01T15:35:04.999Z</time></trkpt><trkpt lat="43.3879768797963" lon="-4.41004540603742"><ele>41.4</ele><time>2026-05-01T15:35:05.999Z</time></trkpt><trkpt lat="43.38794181692793" lon="-4.410166891434977"><ele>40.0</ele><time>2026-05-01T15:35:06.999Z</time></trkpt><trkpt lat="43.387909971723744" lon="-4.410285916621173"><ele>40.0</ele><time>2026-05-01T15:35:07.999Z</time></trkpt><trkpt lat="43.38788908327962" lon="-4.410415153342925"><ele>40.0</ele><time>2026-05-01T15:35:08.999Z</time></trkpt><trkpt lat="43.387873349753235" lon="-4.410550136960086"><ele>40.0</ele><time>2026-05-01T15:35:09.999Z</time></trkpt><trkpt lat="43.38784918210456" lon="-4.410670290320363"><ele>40.0</ele><time>2026-05-01T15:35:10.999Z</time></trkpt><trkpt lat="43.38782835879931" lon="-4.410795093957946"><ele>40.0</ele><time>2026-05-01T15:35:11.999Z</time></trkpt><trkpt lat="43.38780771743826" lon="-4.410929766447616"><ele>41.6</ele><time>2026-05-01T15:35:13Z</time></trkpt><trkpt lat="43.3877852937952" lon="-4.411059936413198"><ele>43.2</ele><time>2026-05-01T15:35:14Z</time></trkpt><trkpt lat="43.38776238533268" lon="-4.4111921938918455"><ele>44.8</ele><time>2026-05-01T15:35:15Z</time></trkpt><trkpt lat="43.387738509028836" lon="-4.411324606765151"><ele>46.4</ele><time>2026-05-01T15:35:16Z</time></trkpt><trkpt lat="43.38771564606084" lon="-4.411454931683058"><ele>48.0</ele><time>2026-05-01T15:35:17Z</time></trkpt><trkpt lat="43.3876956318751" lon="-4.41158865679537"><ele>49.0</ele><time>2026-05-01T15:35:18Z</time></trkpt><trkpt lat="43.38767498896612" lon="-4.411721242229082"><ele>50.0</ele><time>2026-05-01T15:35:19Z</time></trkpt><trkpt lat="43.38765131542011" lon="-4.411850660315094"><ele>51.0</ele><time>2026-05-01T15:35:20Z</time></trkpt><trkpt lat="43.3876213493839" lon="-4.411979469702186"><ele>52.0</ele><time>2026-05-01T15:35:21Z</time></trkpt><trkpt lat="43.38760221011658" lon="-4.412110316760978"><ele>53.0</ele><time>2026-05-01T15:35:22Z</time></trkpt><trkpt lat="43.387565378401675" lon="-4.412235856670258"><ele>54.0</ele><time>2026-05-01T15:35:23Z</time></trkpt><trkpt lat="43.387513424712004" lon="-4.412346149688055"><ele>55.0</ele><time>2026-05-01T15:35:24Z</time></trkpt><trkpt lat="43.38746154077025" lon="-4.412466165660096"><ele>56.0</ele><time>2026-05-01T15:35:25Z</time></trkpt><trkpt lat="43.387407593408724" lon="-4.412585686942686"><ele>57.0</ele><time>2026-05-01T15:35:26Z</time></trkpt><trkpt lat="43.387347706173486" lon="-4.41269659248055"><ele>58.0</ele><time>2026-05-01T15:35:27Z</time></trkpt><trkpt lat="43.387275928723426" lon="-4.412792464644506"><ele>58.0</ele><time>2026-05-01T15:35:28Z</time></trkpt><trkpt lat="43.387203907419426" lon="-4.4128858397779664"><ele>58.0</ele><time>2026-05-01T15:35:29Z</time></trkpt><trkpt lat="43.38713185946457" lon="-4.412981429376687"><ele>58.0</ele><time>2026-05-01T15:35:30Z</time></trkpt><trkpt lat="43.38705390749517" lon="-4.413060228552402"><ele>58.0</ele><time>2026-05-01T15:35:31Z</time></trkpt><trkpt lat="43.38696897671057" lon="-4.413130288221908"><ele>58.0</ele><time>2026-05-01T15:35:32Z</time></trkpt><trkpt lat="43.38688040048985" lon="-4.413194932698157"><ele>58.599999999999994</ele><time>2026-05-01T15:35:33Z</time></trkpt><trkpt lat="43.38679388889106" lon="-4.413254516852831"><ele>59.199999999999996</ele><time>2026-05-01T15:35:34Z</time></trkpt><trkpt lat="43.38670392347889" lon="-4.413303963996122"><ele>59.8</ele><time>2026-05-01T15:35:35Z</time></trkpt><trkpt lat="43.3866082606576" lon="-4.413335833646651"><ele>60.4</ele><time>2026-05-01T15:35:36Z</time></trkpt><trkpt lat="43.38651323557745" lon="-4.413363171475385"><ele>61.0</ele><time>2026-05-01T15:35:37Z</time></trkpt><trkpt lat="43.386415210600624" lon="-4.413380400109101"><ele>62.199999999999996</ele><time>2026-05-01T15:35:38Z</time></trkpt><trkpt lat="43.38631853913524" lon="-4.413388149205699"><ele>63.39999999999999</ele><time>2026-05-01T15:35:39Z</time></trkpt><trkpt lat="43.386221067950586" lon="-4.413390086159427"><ele>64.6</ele><time>2026-05-01T15:35:40Z</time></trkpt><trkpt lat="43.38612426129517" lon="-4.413391264621562"><ele>65.8</ele><time>2026-05-01T15:35:41Z</time></trkpt><trkpt lat="43.38602614867427" lon="-4.413402031569015"><ele>67.0</ele><time>2026-05-01T15:35:42Z</time></trkpt><trkpt lat="43.38593138882307" lon="-4.4134165806315275"><ele>67.0</ele><time>2026-05-01T15:35:43Z</time></trkpt><trkpt lat="43.38583710161897" lon="-4.413454609965581"><ele>67.0</ele><time>2026-05-01T15:35:44Z</time></trkpt><trkpt lat="43.385754576957346" lon="-4.413520228975577"><ele>67.0</ele><time>2026-05-01T15:35:45Z</time></trkpt><trkpt lat="43.38566962286957" lon="-4.413584849485314"><ele>67.0</ele><time>2026-05-01T15:35:46Z</time></trkpt><trkpt lat="43.38559563787794" lon="-4.413676644773169"><ele>67.0</ele><time>2026-05-01T15:35:47Z</time></trkpt><trkpt lat="43.385530595435526" lon="-4.413761452304549"><ele>66.4</ele><time>2026-05-01T15:35:48Z</time></trkpt><trkpt lat="43.385466292002924" lon="-4.413850396682239"><ele>65.80000000000001</ele><time>2026-05-01T15:35:49Z</time></trkpt><trkpt lat="43.38542935034821" lon="-4.413962594983105"><ele>65.2</ele><time>2026-05-01T15:35:50Z</time></trkpt><trkpt lat="43.38538376059283" lon="-4.4140778676051395"><ele>64.60000000000001</ele><time>2026-05-01T15:35:51Z</time></trkpt><trkpt lat="43.385344079726" lon="-4.414194486679079"><ele>64.0</ele><time>2026-05-01T15:35:52Z</time></trkpt><trkpt lat="43.38530388303498" lon="-4.414311789008523"><ele>64.0</ele><time>2026-05-01T15:35:53Z</time></trkpt><trkpt lat="43.38526920578745" lon="-4.414427557092472"><ele>64.0</ele><time>2026-05-01T15:35:54Z</time></trkpt><trkpt lat="43.38523027627196" lon="-4.414548518649313"><ele>64.0</ele><time>2026-05-01T15:35:55Z</time></trkpt><trkpt lat="43.38518898178296" lon="-4.414670159876451"><ele>64.0</ele><time>2026-05-01T15:35:56Z</time></trkpt><trkpt lat="43.38515151080466" lon="-4.414791467619051"><ele>64.0</ele><time>2026-05-01T15:35:57Z</time></trkpt><trkpt lat="43.385112114763686" lon="-4.414914617073501"><ele>65.60000000000001</ele><time>2026-05-01T15:35:58Z</time></trkpt><trkpt lat="43.38507255928174" lon="-4.415038519599599"><ele>67.2</ele><time>2026-05-01T15:35:59Z</time></trkpt><trkpt lat="43.38502700013605" lon="-4.415166673895397"><ele>68.80000000000001</ele><time>2026-05-01T15:36:00Z</time></trkpt><trkpt lat="43.38498662632112" lon="-4.415293598173233"><ele>70.4</ele><time>2026-05-01T15:36:01Z</time></trkpt><trkpt lat="43.384942809697286" lon="-4.415415841690566"><ele>72.0</ele><time>2026-05-01T15:36:02Z</time></trkpt><trkpt lat="43.38489636396862" lon="-4.415541551005393"><ele>71.2</ele><time>2026-05-01T15:36:03Z</time></trkpt><trkpt lat="43.38485089325778" lon="-4.415664783492479"><ele>70.4</ele><time>2026-05-01T15:36:04Z</time></trkpt><trkpt lat="43.38479980189866" lon="-4.41578583168297"><ele>69.6</ele><time>2026-05-01T15:36:05Z</time></trkpt><trkpt lat="43.38474405939658" lon="-4.415904760110069"><ele>68.8</ele><time>2026-05-01T15:36:06Z</time></trkpt><trkpt lat="43.384692209581154" lon="-4.416024507866315"><ele>68.0</ele><time>2026-05-01T15:36:07Z</time></trkpt><trkpt lat="43.3846376980603" lon="-4.416142278515252"><ele>68.0</ele><time>2026-05-01T15:36:08Z</time></trkpt><trkpt lat="43.38458426564713" lon="-4.41626142100049"><ele>68.0</ele><time>2026-05-01T15:36:09Z</time></trkpt><trkpt lat="43.38453015906163" lon="-4.4163803935442365"><ele>68.0</ele><time>2026-05-01T15:36:10Z</time></trkpt><trkpt lat="43.38447589467619" lon="-4.416496654990392"><ele>68.0</ele><time>2026-05-01T15:36:11Z</time></trkpt><trkpt lat="43.38442116551368" lon="-4.416607324819893"><ele>68.0</ele><time>2026-05-01T15:36:12Z</time></trkpt><trkpt lat="43.384359860782155" lon="-4.416722573669901"><ele>70.2</ele><time>2026-05-01T15:36:13Z</time></trkpt><trkpt lat="43.38430442543756" lon="-4.416833162293243"><ele>72.4</ele><time>2026-05-01T15:36:14Z</time></trkpt><trkpt lat="43.384250267562244" lon="-4.416944403109439"><ele>74.60000000000001</ele><time>2026-05-01T15:36:15Z</time></trkpt><trkpt lat="43.38419327730357" lon="-4.41705561532739"><ele>76.8</ele><time>2026-05-01T15:36:16Z</time></trkpt><trkpt lat="43.3841361007216" lon="-4.417169115367204"><ele>79.0</ele><time>2026-05-01T15:36:17.001Z</time></trkpt><trkpt lat="43.38408396494455" lon="-4.4172832083627345"><ele>80.80000000000001</ele><time>2026-05-01T15:36:18.001Z</time></trkpt><trkpt lat="43.384032323062115" lon="-4.417400432364392"><ele>82.60000000000001</ele><time>2026-05-01T15:36:19.001Z</time></trkpt><trkpt lat="43.38398637977623" lon="-4.417520763585144"><ele>84.4</ele><time>2026-05-01T15:36:20.001Z</time></trkpt><trkpt lat="43.383947509698764" lon="-4.417642368211471"><ele>86.2</ele><time>2026-05-01T15:36:21.001Z</time></trkpt><trkpt lat="43.38391351730062" lon="-4.417769987810637"><ele>88.0</ele><time>2026-05-01T15:36:22.001Z</time></trkpt><trkpt lat="43.38388690637354" lon="-4.417901409665056"><ele>88.4</ele><time>2026-05-01T15:36:23.001Z</time></trkpt><trkpt lat="43.38386907751211" lon="-4.4180333735409"><ele>88.80000000000001</ele><time>2026-05-01T15:36:24.001Z</time></trkpt><trkpt lat="43.38385659534743" lon="-4.418169040076969"><ele>89.2</ele><time>2026-05-01T15:36:25.001Z</time></trkpt><trkpt lat="43.383852936260325" lon="-4.418304427689344"><ele>89.6</ele><time>2026-05-01T15:36:26.001Z</time></trkpt><trkpt lat="43.38385450901616" lon="-4.418437455894118"><ele>90.0</ele><time>2026-05-01T15:36:27.001Z</time></trkpt><trkpt lat="43.383855249074934" lon="-4.418573729733758"><ele>90.0</ele><time>2026-05-01T15:36:28.001Z</time></trkpt><trkpt lat="43.38385942931158" lon="-4.418710352208065"><ele>90.0</ele><time>2026-05-01T15:36:29.001Z</time></trkpt><trkpt lat="43.38386400602811" lon="-4.418848289948635"><ele>90.0</ele><time>2026-05-01T15:36:30.001Z</time></trkpt><trkpt lat="43.383868691039716" lon="-4.418984729990499"><ele>90.0</ele><time>2026-05-01T15:36:31.001Z</time></trkpt><trkpt lat="43.3838742683342" lon="-4.419126374296458"><ele>90.0</ele><time>2026-05-01T15:36:32.001Z</time></trkpt><trkpt lat="43.3838812745383" lon="-4.419267380621079"><ele>90.4</ele><time>2026-05-01T15:36:33.001Z</time></trkpt><trkpt lat="43.383887675959215" lon="-4.419409769026107"><ele>90.8</ele><time>2026-05-01T15:36:34.001Z</time></trkpt><trkpt lat="43.38389152549471" lon="-4.419552077261605"><ele>91.19999999999999</ele><time>2026-05-01T15:36:35.001Z</time></trkpt><trkpt lat="43.38389494461406" lon="-4.41969470739873"><ele>91.6</ele><time>2026-05-01T15:36:36.001Z</time></trkpt><trkpt lat="43.3838990389068" lon="-4.4198440292394805"><ele>92.0</ele><time>2026-05-01T15:36:37.001Z</time></trkpt><trkpt lat="43.383901650496114" lon="-4.419984928922083"><ele>92.8</ele><time>2026-05-01T15:36:38.001Z</time></trkpt><trkpt lat="43.383905995474535" lon="-4.4201322295633405"><ele>93.6</ele><time>2026-05-01T15:36:39.001Z</time></trkpt><trkpt lat="43.383907519246584" lon="-4.42027077220572"><ele>94.39999999999999</ele><time>2026-05-01T15:36:40.001Z</time></trkpt><trkpt lat="43.38391355214168" lon="-4.420412754456924"><ele>95.19999999999999</ele><time>2026-05-01T15:36:41.001Z</time></trkpt><trkpt lat="43.38391903494127" lon="-4.420555761322681"><ele>96.0</ele><time>2026-05-01T15:36:42.001Z</time></trkpt><trkpt lat="43.38392799196867" lon="-4.4207080369298595"><ele>96.4</ele><time>2026-05-01T15:36:43.001Z</time></trkpt><trkpt lat="43.38392747799596" lon="-4.420837441634767"><ele>96.8</ele><time>2026-05-01T15:36:44.001Z</time></trkpt><trkpt lat="43.38392274766506" lon="-4.420957072882667"><ele>97.2</ele><time>2026-05-01T15:36:45.001Z</time></trkpt><trkpt lat="43.383936491854605" lon="-4.421146476099191"><ele>97.60000000000001</ele><time>2026-05-01T15:36:46.001Z</time></trkpt><trkpt lat="43.38394147069474" lon="-4.421294853540218"><ele>98.0</ele><time>2026-05-01T15:36:47.001Z</time></trkpt><trkpt lat="43.38395008159969" lon="-4.421448579906854"><ele>98.0</ele><time>2026-05-01T15:36:48.001Z</time></trkpt><trkpt lat="43.38395615805954" lon="-4.421602492551541"><ele>98.0</ele><time>2026-05-01T15:36:49.001Z</time></trkpt><trkpt lat="43.38396973185387" lon="-4.421756460458631"><ele>98.0</ele><time>2026-05-01T15:36:50.001Z</time></trkpt><trkpt lat="43.383987806287976" lon="-4.42191274658487"><ele>98.0</ele><time>2026-05-01T15:36:51.001Z</time></trkpt><trkpt lat="43.38400533498928" lon="-4.422064492782317"><ele>98.4</ele><time>2026-05-01T15:36:52.001Z</time></trkpt><trkpt lat="43.384027573146795" lon="-4.422213533733788"><ele>98.80000000000001</ele><time>2026-05-01T15:36:53.001Z</time></trkpt><trkpt lat="43.384047032818216" lon="-4.422364849894981"><ele>99.2</ele><time>2026-05-01T15:36:54.001Z</time></trkpt><trkpt lat="43.384069394858514" lon="-4.4225090518805175"><ele>99.6</ele><time>2026-05-01T15:36:55.001Z</time></trkpt><trkpt lat="43.384089403622916" lon="-4.422658076769935"><ele>100.0</ele><time>2026-05-01T15:36:56.001Z</time></trkpt><trkpt lat="43.384111162517286" lon="-4.422804388210327"><ele>100.0</ele><time>2026-05-01T15:36:57.001Z</time></trkpt><trkpt lat="43.38413226856019" lon="-4.422956409668278"><ele>100.0</ele><time>2026-05-01T15:36:58.001Z</time></trkpt><trkpt lat="43.38415184167584" lon="-4.423105450322426"><ele>100.0</ele><time>2026-05-01T15:36:59.001Z</time></trkpt><trkpt lat="43.38417264980888" lon="-4.42325197881546"><ele>100.0</ele><time>2026-05-01T15:37:00.001Z</time></trkpt><trkpt lat="43.38419487931416" lon="-4.423400929492594"><ele>100.0</ele><time>2026-05-01T15:37:01.001Z</time></trkpt><trkpt lat="43.38421710993707" lon="-4.423547705394226"><ele>99.8</ele><time>2026-05-01T15:37:02.001Z</time></trkpt><trkpt lat="43.38423662016968" lon="-4.423688002095581"><ele>99.6</ele><time>2026-05-01T15:37:03.001Z</time></trkpt><trkpt lat="43.38425572065272" lon="-4.423838852406585"><ele>99.4</ele><time>2026-05-01T15:37:04Z</time></trkpt><trkpt lat="43.38427400885627" lon="-4.423979262458612"><ele>99.2</ele><time>2026-05-01T15:37:05Z</time></trkpt><trkpt lat="43.38430502281826" lon="-4.424128319385925"><ele>99.0</ele><time>2026-05-01T15:37:06Z</time></trkpt><trkpt lat="43.38432277489077" lon="-4.424275586241041"><ele>98.0</ele><time>2026-05-01T15:37:07Z</time></trkpt><trkpt lat="43.38434611584977" lon="-4.424422381092894"><ele>97.0</ele><time>2026-05-01T15:37:08Z</time></trkpt><trkpt lat="43.384353998479455" lon="-4.424536415520868"><ele>96.0</ele><time>2026-05-01T15:37:09Z</time></trkpt><trkpt lat="43.384387596705785" lon="-4.4247060713114665"><ele>95.0</ele><time>2026-05-01T15:37:10Z</time></trkpt><trkpt lat="43.384406461717305" lon="-4.424852204404497"><ele>94.0</ele><time>2026-05-01T15:37:11Z</time></trkpt><trkpt lat="43.3844246834743" lon="-4.42499682032602"><ele>93.4</ele><time>2026-05-01T15:37:12Z</time></trkpt><trkpt lat="43.38444511010474" lon="-4.425145095014177"><ele>92.80000000000001</ele><time>2026-05-01T15:37:13Z</time></trkpt><trkpt lat="43.38445743314388" lon="-4.42529279717011"><ele>92.19999999999999</ele><time>2026-05-01T15:37:14Z</time></trkpt><trkpt lat="43.38446765296719" lon="-4.425439113930962"><ele>91.6</ele><time>2026-05-01T15:37:15Z</time></trkpt><trkpt lat="43.3844733046689" lon="-4.425586987576894"><ele>91.0</ele><time>2026-05-01T15:37:16Z</time></trkpt><trkpt lat="43.38447792625325" lon="-4.425732938517897"><ele>91.25</ele><time>2026-05-01T15:37:17Z</time></trkpt><trkpt lat="43.384483362935406" lon="-4.425886152356984"><ele>91.5</ele><time>2026-05-01T15:37:18Z</time></trkpt><trkpt lat="43.384478670197474" lon="-4.426023267563279"><ele>91.75</ele><time>2026-05-01T15:37:19Z</time></trkpt><trkpt lat="43.384473484371" lon="-4.426185369536565"><ele>92.0</ele><time>2026-05-01T15:37:20Z</time></trkpt><trkpt lat="43.384436690646886" lon="-4.426393222359551"><ele>92.0</ele><time>2026-05-01T15:37:21Z</time></trkpt><trkpt lat="43.38441693073661" lon="-4.426606725836649"><ele>92.0</ele><time>2026-05-01T15:37:22Z</time></trkpt><trkpt lat="43.384423556731136" lon="-4.426741794113705"><ele>92.0</ele><time>2026-05-01T15:37:24Z</time></trkpt><trkpt lat="43.384402281607244" lon="-4.42688360198275"><ele>92.0</ele><time>2026-05-01T15:37:25Z</time></trkpt><trkpt lat="43.38437620079398" lon="-4.4270167370241165"><ele>92.39999999999999</ele><time>2026-05-01T15:37:26Z</time></trkpt><trkpt lat="43.384347798014936" lon="-4.427151525641041"><ele>92.8</ele><time>2026-05-01T15:37:27Z</time></trkpt><trkpt lat="43.384313371212706" lon="-4.427289494630387"><ele>93.2</ele><time>2026-05-01T15:37:28Z</time></trkpt><trkpt lat="43.38427206751042" lon="-4.427422325373783"><ele>93.6</ele><time>2026-05-01T15:37:29Z</time></trkpt><trkpt lat="43.38422908297542" lon="-4.427564164503587"><ele>94.0</ele><time>2026-05-01T15:37:30Z</time></trkpt><trkpt lat="43.38418261149642" lon="-4.427697299097476"><ele>94.0</ele><time>2026-05-01T15:37:31Z</time></trkpt><trkpt lat="43.38413368291981" lon="-4.427828282659166"><ele>94.0</ele><time>2026-05-01T15:37:32Z</time></trkpt><trkpt lat="43.38407825676057" lon="-4.427969512228361"><ele>94.0</ele><time>2026-05-01T15:37:33Z</time></trkpt><trkpt lat="43.384015786244355" lon="-4.428104948403392"><ele>94.0</ele><time>2026-05-01T15:37:34Z</time></trkpt><trkpt lat="43.38395260617186" lon="-4.428241979025546"><ele>93.75</ele><time>2026-05-01T15:37:35Z</time></trkpt><trkpt lat="43.38388905468356" lon="-4.428374016911651"><ele>93.5</ele><time>2026-05-01T15:37:36Z</time></trkpt><trkpt lat="43.38382213467036" lon="-4.42850410895038"><ele>93.25</ele><time>2026-05-01T15:37:37Z</time></trkpt><trkpt lat="43.38375259708158" lon="-4.428625778856305"><ele>93.0</ele><time>2026-05-01T15:37:38Z</time></trkpt><trkpt lat="43.38367827897172" lon="-4.428747247741383"><ele>93.0</ele><time>2026-05-01T15:37:39Z</time></trkpt><trkpt lat="43.3836065103397" lon="-4.428869687672061"><ele>93.0</ele><time>2026-05-01T15:37:40Z</time></trkpt><trkpt lat="43.3835369542277" lon="-4.4289890307892685"><ele>93.0</ele><time>2026-05-01T15:37:41Z</time></trkpt><trkpt lat="43.38346758801165" lon="-4.429109709078683"><ele>93.0</ele><time>2026-05-01T15:37:42Z</time></trkpt><trkpt lat="43.3833942546657" lon="-4.429238383798209"><ele>93.0</ele><time>2026-05-01T15:37:43Z</time></trkpt><trkpt lat="43.38332360649588" lon="-4.429360035145905"><ele>93.0</ele><time>2026-05-01T15:37:44Z</time></trkpt><trkpt lat="43.38325182358889" lon="-4.429491079948875"><ele>93.0</ele><time>2026-05-01T15:37:45Z</time></trkpt><trkpt lat="43.38317851428984" lon="-4.429618741613291"><ele>93.0</ele><time>2026-05-01T15:37:46Z</time></trkpt><trkpt lat="43.38310789028225" lon="-4.429753035357208"><ele>91.5</ele><time>2026-05-01T15:37:47Z</time></trkpt><trkpt lat="43.38303839528116" lon="-4.429888656808439"><ele>90.0</ele><time>2026-05-01T15:37:48Z</time></trkpt><trkpt lat="43.38296972095118" lon="-4.430015400994155"><ele>88.5</ele><time>2026-05-01T15:37:49Z</time></trkpt><trkpt lat="43.38290198800872" lon="-4.430143569863589"><ele>87.0</ele><time>2026-05-01T15:37:50Z</time></trkpt><trkpt lat="43.38283766805828" lon="-4.430278766398784"><ele>85.5</ele><time>2026-05-01T15:37:51Z</time></trkpt><trkpt lat="43.38277412878781" lon="-4.430418692315704"><ele>84.0</ele><time>2026-05-01T15:37:52Z</time></trkpt><trkpt lat="43.382712761587754" lon="-4.4305607513925"><ele>82.5</ele><time>2026-05-01T15:37:53Z</time></trkpt><trkpt lat="43.382658794915656" lon="-4.430699151499618"><ele>81.0</ele><time>2026-05-01T15:37:54Z</time></trkpt><trkpt lat="43.38260213539872" lon="-4.430835264825759"><ele>81.0</ele><time>2026-05-01T15:37:55Z</time></trkpt><trkpt lat="43.382546553668945" lon="-4.43097755230603"><ele>81.0</ele><time>2026-05-01T15:37:56.001Z</time></trkpt><trkpt lat="43.38249132802811" lon="-4.431116037183833"><ele>81.0</ele><time>2026-05-01T15:37:57.001Z</time></trkpt><trkpt lat="43.38243860841712" lon="-4.431253917726358"><ele>81.0</ele><time>2026-05-01T15:37:58.001Z</time></trkpt><trkpt lat="43.382385247294856" lon="-4.4313930015984155"><ele>82.5</ele><time>2026-05-01T15:37:59.001Z</time></trkpt><trkpt lat="43.38233113625748" lon="-4.431530389095215"><ele>84.0</ele><time>2026-05-01T15:38:00.001Z</time></trkpt><trkpt lat="43.382277022450815" lon="-4.431672294672837"><ele>85.5</ele><time>2026-05-01T15:38:01.001Z</time></trkpt><trkpt lat="43.38223050717914" lon="-4.431808779574602"><ele>87.0</ele><time>2026-05-01T15:38:02.001Z</time></trkpt><trkpt lat="43.38218448907495" lon="-4.431950380877069"><ele>84.6</ele><time>2026-05-01T15:38:03.001Z</time></trkpt><trkpt lat="43.382147575215605" lon="-4.43210047932485"><ele>82.19999999999999</ele><time>2026-05-01T15:38:04.001Z</time></trkpt><trkpt lat="43.38211293288604" lon="-4.432243087591451"><ele>79.8</ele><time>2026-05-01T15:38:05.001Z</time></trkpt><trkpt lat="43.382081789338535" lon="-4.43239076202502"><ele>77.4</ele><time>2026-05-01T15:38:06.001Z</time></trkpt><trkpt lat="43.38206514074381" lon="-4.432540282053533"><ele>75.0</ele><time>2026-05-01T15:38:07.001Z</time></trkpt><trkpt lat="43.38204989527351" lon="-4.432692538865455"><ele>75.0</ele><time>2026-05-01T15:38:08.001Z</time></trkpt><trkpt lat="43.38203255615363" lon="-4.432842832046109"><ele>75.0</ele><time>2026-05-01T15:38:09.001Z</time></trkpt><trkpt lat="43.38201518455666" lon="-4.432997934929346"><ele>75.0</ele><time>2026-05-01T15:38:10.001Z</time></trkpt><trkpt lat="43.38199704356366" lon="-4.43314899768585"><ele>75.0</ele><time>2026-05-01T15:38:11.001Z</time></trkpt><trkpt lat="43.381981505252604" lon="-4.433301325506677"><ele>75.0</ele><time>2026-05-01T15:38:12.001Z</time></trkpt><trkpt lat="43.38196433339735" lon="-4.433453526597787"><ele>75.5</ele><time>2026-05-01T15:38:13.001Z</time></trkpt><trkpt lat="43.38194826405411" lon="-4.433605387772311"><ele>76.0</ele><time>2026-05-01T15:38:14.001Z</time></trkpt><trkpt lat="43.381930066559704" lon="-4.433756981169459"><ele>76.5</ele><time>2026-05-01T15:38:15.001Z</time></trkpt><trkpt lat="43.381912467238315" lon="-4.433911415253412"><ele>77.0</ele><time>2026-05-01T15:38:16.001Z</time></trkpt><trkpt lat="43.38189829100792" lon="-4.4340656715688676"><ele>77.0</ele><time>2026-05-01T15:38:17.001Z</time></trkpt><trkpt lat="43.38188090282622" lon="-4.434215719297376"><ele>77.0</ele><time>2026-05-01T15:38:18.001Z</time></trkpt><trkpt lat="43.381866619135046" lon="-4.434366347476583"><ele>77.0</ele><time>2026-05-01T15:38:19.001Z</time></trkpt><trkpt lat="43.38185121838973" lon="-4.434516471836007"><ele>77.0</ele><time>2026-05-01T15:38:20.001Z</time></trkpt><trkpt lat="43.3818341274158" lon="-4.434665675376112"><ele>77.0</ele><time>2026-05-01T15:38:21.001Z</time></trkpt><trkpt lat="43.38181744641326" lon="-4.434813031705478"><ele>77.6</ele><time>2026-05-01T15:38:22.001Z</time></trkpt><trkpt lat="43.38179972526191" lon="-4.434962358915753"><ele>78.2</ele><time>2026-05-01T15:38:23.001Z</time></trkpt><trkpt lat="43.38178330320265" lon="-4.435112258923715"><ele>78.8</ele><time>2026-05-01T15:38:24.001Z</time></trkpt><trkpt lat="43.381755891837095" lon="-4.435251688549782"><ele>79.4</ele><time>2026-05-01T15:38:25.001Z</time></trkpt><trkpt lat="43.38172173918913" lon="-4.435393673746468"><ele>80.0</ele><time>2026-05-01T15:38:26.001Z</time></trkpt><trkpt lat="43.38167053806469" lon="-4.435527292750437"><ele>81.2</ele><time>2026-05-01T15:38:27.001Z</time></trkpt><trkpt lat="43.38160604935992" lon="-4.435649250064373"><ele>82.4</ele><time>2026-05-01T15:38:28.001Z</time></trkpt><trkpt lat="43.381532624206706" lon="-4.4357661270182085"><ele>83.6</ele><time>2026-05-01T15:38:29.001Z</time></trkpt><trkpt lat="43.381454555615065" lon="-4.435874011864745"><ele>84.8</ele><time>2026-05-01T15:38:30.001Z</time></trkpt><trkpt lat="43.38137394005003" lon="-4.4359764975089275"><ele>86.0</ele><time>2026-05-01T15:38:31.001Z</time></trkpt><trkpt lat="43.3812910087746" lon="-4.436076139114485"><ele>85.19999999999999</ele><time>2026-05-01T15:38:32.001Z</time></trkpt><trkpt lat="43.38121113975895" lon="-4.4361761247393305"><ele>84.39999999999999</ele><time>2026-05-01T15:38:33.001Z</time></trkpt><trkpt lat="43.38113049974604" lon="-4.43627662279871"><ele>83.6</ele><time>2026-05-01T15:38:34.001Z</time></trkpt><trkpt lat="43.38104879492656" lon="-4.436380545802619"><ele>82.8</ele><time>2026-05-01T15:38:35.001Z</time></trkpt><trkpt lat="43.38097236654097" lon="-4.436479069025265"><ele>82.0</ele><time>2026-05-01T15:38:36.001Z</time></trkpt><trkpt lat="43.380907858669474" lon="-4.43657990098609"><ele>82.0</ele><time>2026-05-01T15:38:37.001Z</time></trkpt><trkpt lat="43.380838809182364" lon="-4.436686425673144"><ele>82.0</ele><time>2026-05-01T15:38:38.001Z</time></trkpt><trkpt lat="43.380774318425075" lon="-4.436804622403416"><ele>82.0</ele><time>2026-05-01T15:38:39.001Z</time></trkpt><trkpt lat="43.38071487949639" lon="-4.43693306954553"><ele>82.0</ele><time>2026-05-01T15:38:40.001Z</time></trkpt><trkpt lat="43.38067163398686" lon="-4.437062638877864"><ele>82.0</ele><time>2026-05-01T15:38:41.001Z</time></trkpt><trkpt lat="43.38062550874954" lon="-4.437187007342108"><ele>83.39999999999999</ele><time>2026-05-01T15:38:42.001Z</time></trkpt><trkpt lat="43.38058534596048" lon="-4.437322229884448"><ele>84.8</ele><time>2026-05-01T15:38:43.001Z</time></trkpt><trkpt lat="43.38053674648935" lon="-4.437455984786356"><ele>86.2</ele><time>2026-05-01T15:38:44.001Z</time></trkpt><trkpt lat="43.38049974318042" lon="-4.437588787686893"><ele>87.6</ele><time>2026-05-01T15:38:45.001Z</time></trkpt><trkpt lat="43.380461833384146" lon="-4.437726272375792"><ele>89.0</ele><time>2026-05-01T15:38:46.001Z</time></trkpt><trkpt lat="43.380424897440626" lon="-4.437869191389356"><ele>86.8</ele><time>2026-05-01T15:38:47.001Z</time></trkpt><trkpt lat="43.380388603816186" lon="-4.43800164237414"><ele>84.60000000000001</ele><time>2026-05-01T15:38:48.001Z</time></trkpt><trkpt lat="43.38035025026034" lon="-4.4381324664575965"><ele>82.4</ele><time>2026-05-01T15:38:49.001Z</time></trkpt><trkpt lat="43.38030784269945" lon="-4.4382648392855755"><ele>80.2</ele><time>2026-05-01T15:38:50.001Z</time></trkpt><trkpt lat="43.38026300680765" lon="-4.438399602306204"><ele>78.0</ele><time>2026-05-01T15:38:51.001Z</time></trkpt><trkpt lat="43.38021849353906" lon="-4.4385294377120434"><ele>78.0</ele><time>2026-05-01T15:38:52.001Z</time></trkpt><trkpt lat="43.38017178831088" lon="-4.438659714953624"><ele>78.0</ele><time>2026-05-01T15:38:53.001Z</time></trkpt><trkpt lat="43.38012393365126" lon="-4.43878793823209"><ele>78.0</ele><time>2026-05-01T15:38:54.001Z</time></trkpt><trkpt lat="43.380076018105875" lon="-4.438917817866597"><ele>78.0</ele><time>2026-05-01T15:38:55.001Z</time></trkpt><trkpt lat="43.38002862273477" lon="-4.439054697292578"><ele>78.0</ele><time>2026-05-01T15:38:56.001Z</time></trkpt><trkpt lat="43.379981467476064" lon="-4.439190692856183"><ele>78.8</ele><time>2026-05-01T15:38:57.001Z</time></trkpt><trkpt lat="43.37993780256849" lon="-4.439323406444895"><ele>79.6</ele><time>2026-05-01T15:38:58.001Z</time></trkpt><trkpt lat="43.37989377813666" lon="-4.4394543968145985"><ele>80.39999999999999</ele><time>2026-05-01T15:38:59.001Z</time></trkpt><trkpt lat="43.37985400565297" lon="-4.4395837637508135"><ele>81.19999999999999</ele><time>2026-05-01T15:39:00.001Z</time></trkpt><trkpt lat="43.37981848545938" lon="-4.439711715938841"><ele>82.0</ele><time>2026-05-01T15:39:01.001Z</time></trkpt><trkpt lat="43.379797155811005" lon="-4.439843834495317"><ele>82.0</ele><time>2026-05-01T15:39:02.001Z</time></trkpt><trkpt lat="43.37977423429249" lon="-4.439978313107991"><ele>82.0</ele><time>2026-05-01T15:39:03.001Z</time></trkpt><trkpt lat="43.37976238194732" lon="-4.440124813528877"><ele>82.0</ele><time>2026-05-01T15:39:04.001Z</time></trkpt><trkpt lat="43.37975689192302" lon="-4.440271906023969"><ele>82.0</ele><time>2026-05-01T15:39:05.001Z</time></trkpt><trkpt lat="43.37975267462242" lon="-4.440421360718208"><ele>82.0</ele><time>2026-05-01T15:39:06.001Z</time></trkpt><trkpt lat="43.379760862425194" lon="-4.44057684052661"><ele>80.75</ele><time>2026-05-01T15:39:07.001Z</time></trkpt><trkpt lat="43.37976910167158" lon="-4.44073545447447"><ele>79.5</ele><time>2026-05-01T15:39:08.001Z</time></trkpt><trkpt lat="43.3797863689517" lon="-4.440886912872915"><ele>78.25</ele><time>2026-05-01T15:39:09.001Z</time></trkpt><trkpt lat="43.37980011754583" lon="-4.44104199190342"><ele>77.0</ele><time>2026-05-01T15:39:10.001Z</time></trkpt><trkpt lat="43.379819129177605" lon="-4.441191482320969"><ele>76.25</ele><time>2026-05-01T15:39:11.001Z</time></trkpt><trkpt lat="43.379834264856854" lon="-4.441346164871372"><ele>75.5</ele><time>2026-05-01T15:39:12.001Z</time></trkpt><trkpt lat="43.37984910472546" lon="-4.441502307342056"><ele>74.75</ele><time>2026-05-01T15:39:13.001Z</time></trkpt><trkpt lat="43.37986519164228" lon="-4.441656871453485"><ele>74.0</ele><time>2026-05-01T15:39:14.001Z</time></trkpt><trkpt lat="43.37988323490684" lon="-4.441811358951307"><ele>74.0</ele><time>2026-05-01T15:39:15.001Z</time></trkpt><trkpt lat="43.37989636211344" lon="-4.441962733731655"><ele>74.0</ele><time>2026-05-01T15:39:16.001Z</time></trkpt><trkpt lat="43.379906925775714" lon="-4.442114156825038"><ele>74.0</ele><time>2026-05-01T15:39:17.001Z</time></trkpt><trkpt lat="43.379915681920515" lon="-4.442262428719041"><ele>74.0</ele><time>2026-05-01T15:39:18.001Z</time></trkpt><trkpt lat="43.37992047122703" lon="-4.442415478443697"><ele>74.0</ele><time>2026-05-01T15:39:19.001Z</time></trkpt><trkpt lat="43.37991471472832" lon="-4.442569061220855"><ele>73.2</ele><time>2026-05-01T15:39:20.001Z</time></trkpt><trkpt lat="43.379902350935524" lon="-4.442717299241315"><ele>72.4</ele><time>2026-05-01T15:39:21.001Z</time></trkpt><trkpt lat="43.37986302270949" lon="-4.442864616596827"><ele>71.6</ele><time>2026-05-01T15:39:22.001Z</time></trkpt><trkpt lat="43.379881603398495" lon="-4.443003693432529"><ele>70.8</ele><time>2026-05-01T15:39:23.001Z</time></trkpt><trkpt lat="43.3798643231473" lon="-4.443146011875749"><ele>70.0</ele><time>2026-05-01T15:39:24.001Z</time></trkpt><trkpt lat="43.379842368918254" lon="-4.443288800194439"><ele>70.0</ele><time>2026-05-01T15:39:25.001Z</time></trkpt><trkpt lat="43.379814762203196" lon="-4.443431606234084"><ele>70.0</ele><time>2026-05-01T15:39:26.001Z</time></trkpt><trkpt lat="43.37978179342933" lon="-4.443575502639982"><ele>70.0</ele><time>2026-05-01T15:39:27.001Z</time></trkpt><trkpt lat="43.37974935281733" lon="-4.443719697527279"><ele>70.0</ele><time>2026-05-01T15:39:28.001Z</time></trkpt><trkpt lat="43.37971553541328" lon="-4.443863941325199"><ele>70.0</ele><time>2026-05-01T15:39:29.001Z</time></trkpt><trkpt lat="43.379686141423186" lon="-4.444008030958655"><ele>66.5</ele><time>2026-05-01T15:39:30.001Z</time></trkpt><trkpt lat="43.379648803918904" lon="-4.444152238550386"><ele>63.0</ele><time>2026-05-01T15:39:31.001Z</time></trkpt><trkpt lat="43.3796185247817" lon="-4.444301557793159"><ele>59.5</ele><time>2026-05-01T15:39:32.001Z</time></trkpt><trkpt lat="43.379594037331245" lon="-4.444455456163915"><ele>56.0</ele><time>2026-05-01T15:39:33.001Z</time></trkpt><trkpt lat="43.379552569953866" lon="-4.444675247149296"><ele>56.0</ele><time>2026-05-01T15:39:34.001Z</time></trkpt><trkpt lat="43.37951172187243" lon="-4.4448841862905315"><ele>56.0</ele><time>2026-05-01T15:39:35.001Z</time></trkpt><trkpt lat="43.37952660946459" lon="-4.444969760284128"><ele>56.0</ele><time>2026-05-01T15:39:37.001Z</time></trkpt><trkpt lat="43.37954515013047" lon="-4.445071610438557"><ele>56.0</ele><time>2026-05-01T15:39:38.001Z</time></trkpt><trkpt lat="43.37953129385293" lon="-4.445324228723361"><ele>55.4</ele><time>2026-05-01T15:39:39.001Z</time></trkpt><trkpt lat="43.37953634040178" lon="-4.445473675597666"><ele>54.8</ele><time>2026-05-01T15:39:40.001Z</time></trkpt><trkpt lat="43.379538305808154" lon="-4.445623547780104"><ele>54.199999999999996</ele><time>2026-05-01T15:39:41.001Z</time></trkpt><trkpt lat="43.37954564251908" lon="-4.445769257849102"><ele>53.599999999999994</ele><time>2026-05-01T15:39:42.001Z</time></trkpt><trkpt lat="43.379550397620136" lon="-4.445919502081327"><ele>53.0</ele><time>2026-05-01T15:39:43.001Z</time></trkpt><trkpt lat="43.37955005285519" lon="-4.446066121410717"><ele>53.0</ele><time>2026-05-01T15:39:44.001Z</time></trkpt><trkpt lat="43.379551446131565" lon="-4.446207904260432"><ele>53.0</ele><time>2026-05-01T15:39:45.001Z</time></trkpt><trkpt lat="43.37954233821688" lon="-4.446363208197887"><ele>53.0</ele><time>2026-05-01T15:39:46.001Z</time></trkpt><trkpt lat="43.379531255575124" lon="-4.446517230456653"><ele>53.0</ele><time>2026-05-01T15:39:47.001Z</time></trkpt><trkpt lat="43.37951700522736" lon="-4.446668095594432"><ele>53.0</ele><time>2026-05-01T15:39:48.001Z</time></trkpt><trkpt lat="43.37949775566041" lon="-4.446821051173231"><ele>53.0</ele><time>2026-05-01T15:39:49.001Z</time></trkpt><trkpt lat="43.37947461517532" lon="-4.44697280925785"><ele>53.0</ele><time>2026-05-01T15:39:50.001Z</time></trkpt><trkpt lat="43.3794515606017" lon="-4.447124008555811"><ele>53.0</ele><time>2026-05-01T15:39:51.001Z</time></trkpt><trkpt lat="43.379424669761555" lon="-4.447275246216026"><ele>53.0</ele><time>2026-05-01T15:39:52.001Z</time></trkpt><trkpt lat="43.379392371062885" lon="-4.447424723002921"><ele>53.0</ele><time>2026-05-01T15:39:53.001Z</time></trkpt><trkpt lat="43.379354066351226" lon="-4.447571425402617"><ele>53.0</ele><time>2026-05-01T15:39:54.001Z</time></trkpt><trkpt lat="43.37932295155671" lon="-4.447723479646052"><ele>53.0</ele><time>2026-05-01T15:39:55.001Z</time></trkpt><trkpt lat="43.37928927182625" lon="-4.447878557802608"><ele>53.0</ele><time>2026-05-01T15:39:56.001Z</time></trkpt><trkpt lat="43.37925660564844" lon="-4.448032813694882"><ele>53.0</ele><time>2026-05-01T15:39:57.001Z</time></trkpt><trkpt lat="43.37922577066957" lon="-4.4481842836196686"><ele>53.0</ele><time>2026-05-01T15:39:58.001Z</time></trkpt><trkpt lat="43.37919793746079" lon="-4.44833467113754"><ele>53.0</ele><time>2026-05-01T15:39:59.001Z</time></trkpt><trkpt lat="43.37917301585944" lon="-4.4484847193125"><ele>53.0</ele><time>2026-05-01T15:40:00.001Z</time></trkpt><trkpt lat="43.379146556007534" lon="-4.448637959702678"><ele>53.0</ele><time>2026-05-01T15:40:01.001Z</time></trkpt><trkpt lat="43.37911891946521" lon="-4.448792805032999"><ele>53.0</ele><time>2026-05-01T15:40:02.001Z</time></trkpt><trkpt lat="43.37909189270981" lon="-4.448946543793067"><ele>53.0</ele><time>2026-05-01T15:40:03.001Z</time></trkpt><trkpt lat="43.37906387767" lon="-4.449104990717855"><ele>53.0</ele><time>2026-05-01T15:40:04.001Z</time></trkpt><trkpt lat="43.37903610204077" lon="-4.449262260063695"><ele>53.0</ele><time>2026-05-01T15:40:05.001Z</time></trkpt><trkpt lat="43.37900250246677" lon="-4.449416902728213"><ele>53.0</ele><time>2026-05-01T15:40:06.001Z</time></trkpt><trkpt lat="43.37896626603087" lon="-4.449570369183925"><ele>53.0</ele><time>2026-05-01T15:40:07.001Z</time></trkpt><trkpt lat="43.378925702339465" lon="-4.449727024419809"><ele>53.0</ele><time>2026-05-01T15:40:08.001Z</time></trkpt><trkpt lat="43.37888048857043" lon="-4.449880535816255"><ele>50.25</ele><time>2026-05-01T15:40:09.001Z</time></trkpt><trkpt lat="43.37883433082694" lon="-4.4500328984293365"><ele>47.5</ele><time>2026-05-01T15:40:10.001Z</time></trkpt><trkpt lat="43.37878583369693" lon="-4.4501867150392656"><ele>44.75</ele><time>2026-05-01T15:40:11.001Z</time></trkpt><trkpt lat="43.378735796677766" lon="-4.4503317472999795"><ele>42.0</ele><time>2026-05-01T15:40:12.001Z</time></trkpt><trkpt lat="43.37869005566327" lon="-4.450471600969092"><ele>42.0</ele><time>2026-05-01T15:40:13.001Z</time></trkpt><trkpt lat="43.37864237080941" lon="-4.450607198810761"><ele>42.0</ele><time>2026-05-01T15:40:14.001Z</time></trkpt><trkpt lat="43.37859706083752" lon="-4.450746117390004"><ele>42.0</ele><time>2026-05-01T15:40:15.001Z</time></trkpt><trkpt lat="43.37855051557652" lon="-4.450878449084822"><ele>42.0</ele><time>2026-05-01T15:40:16.001Z</time></trkpt><trkpt lat="43.37850344014963" lon="-4.451016067533087"><ele>42.0</ele><time>2026-05-01T15:40:17.001Z</time></trkpt><trkpt lat="43.378455111516324" lon="-4.45115824516828"><ele>41.75</ele><time>2026-05-01T15:40:18.001Z</time></trkpt><trkpt lat="43.37840782443951" lon="-4.451302726263222"><ele>41.5</ele><time>2026-05-01T15:40:19.001Z</time></trkpt><trkpt lat="43.378358756191986" lon="-4.451448531595329"><ele>41.25</ele><time>2026-05-01T15:40:20.001Z</time></trkpt><trkpt lat="43.37830879242295" lon="-4.451593349188199"><ele>41.0</ele><time>2026-05-01T15:40:21.001Z</time></trkpt><trkpt lat="43.3782589879299" lon="-4.451739310867674"><ele>41.0</ele><time>2026-05-01T15:40:22.001Z</time></trkpt><trkpt lat="43.3782119150357" lon="-4.451891249540543"><ele>41.0</ele><time>2026-05-01T15:40:23.001Z</time></trkpt><trkpt lat="43.3781600839851" lon="-4.452036781433481"><ele>41.0</ele><time>2026-05-01T15:40:24.001Z</time></trkpt><trkpt lat="43.37810699606892" lon="-4.452185858592733"><ele>41.0</ele><time>2026-05-01T15:40:25.001Z</time></trkpt><trkpt lat="43.378049545609464" lon="-4.452329853204801"><ele>38.5</ele><time>2026-05-01T15:40:26.001Z</time></trkpt><trkpt lat="43.37799038683684" lon="-4.452474538601794"><ele>36.0</ele><time>2026-05-01T15:40:27.001Z</time></trkpt><trkpt lat="43.37792720719006" lon="-4.45261718901206"><ele>33.5</ele><time>2026-05-01T15:40:28.001Z</time></trkpt><trkpt lat="43.37786114994005" lon="-4.452758225654344"><ele>31.0</ele><time>2026-05-01T15:40:29.001Z</time></trkpt><trkpt lat="43.37779149587502" lon="-4.4528934463296475"><ele>31.0</ele><time>2026-05-01T15:40:30.001Z</time></trkpt><trkpt lat="43.37772166968696" lon="-4.453026605694319"><ele>31.0</ele><time>2026-05-01T15:40:31.001Z</time></trkpt><trkpt lat="43.37764944527325" lon="-4.453160616464878"><ele>31.0</ele><time>2026-05-01T15:40:32.001Z</time></trkpt><trkpt lat="43.37757484680479" lon="-4.4532948350399035"><ele>31.0</ele><time>2026-05-01T15:40:33.001Z</time></trkpt><trkpt lat="43.37750005360572" lon="-4.453428485627257"><ele>31.0</ele><time>2026-05-01T15:40:34.001Z</time></trkpt><trkpt lat="43.37742391355146" lon="-4.453563003595536"><ele>31.0</ele><time>2026-05-01T15:40:35.001Z</time></trkpt><trkpt lat="43.37735127714569" lon="-4.453696945219942"><ele>31.0</ele><time>2026-05-01T15:40:36.001Z</time></trkpt><trkpt lat="43.377276205540404" lon="-4.45383141686695"><ele>31.0</ele><time>2026-05-01T15:40:37.001Z</time></trkpt><trkpt lat="43.37720465800144" lon="-4.45396249156764"><ele>29.0</ele><time>2026-05-01T15:40:38.001Z</time></trkpt><trkpt lat="43.37713043835708" lon="-4.454097063023349"><ele>27.0</ele><time>2026-05-01T15:40:39.001Z</time></trkpt><trkpt lat="43.377055443258776" lon="-4.4542309472189805"><ele>25.0</ele><time>2026-05-01T15:40:40.001Z</time></trkpt><trkpt lat="43.37698152416206" lon="-4.454360173951547"><ele>23.0</ele><time>2026-05-01T15:40:41.001Z</time></trkpt><trkpt lat="43.37690930633912" lon="-4.454489430305027"><ele>23.0</ele><time>2026-05-01T15:40:42.001Z</time></trkpt><trkpt lat="43.37683362218464" lon="-4.454619795425664"><ele>23.0</ele><time>2026-05-01T15:40:43.001Z</time></trkpt><trkpt lat="43.3767605381438" lon="-4.454747472457866"><ele>23.0</ele><time>2026-05-01T15:40:44.001Z</time></trkpt><trkpt lat="43.37668552760146" lon="-4.454877078347439"><ele>23.0</ele><time>2026-05-01T15:40:45.001Z</time></trkpt><trkpt lat="43.376612360026634" lon="-4.455007966232347"><ele>22.75</ele><time>2026-05-01T15:40:46.001Z</time></trkpt><trkpt lat="43.37653960006356" lon="-4.455140844989669"><ele>22.5</ele><time>2026-05-01T15:40:47.001Z</time></trkpt><trkpt lat="43.37646865785368" lon="-4.455268881326971"><ele>22.25</ele><time>2026-05-01T15:40:48.001Z</time></trkpt><trkpt lat="43.37639395218991" lon="-4.4553992036419405"><ele>22.0</ele><time>2026-05-01T15:40:49.001Z</time></trkpt><trkpt lat="43.37632317014705" lon="-4.455527110602555"><ele>20.75</ele><time>2026-05-01T15:40:50.001Z</time></trkpt><trkpt lat="43.37625246573395" lon="-4.455656875196141"><ele>19.5</ele><time>2026-05-01T15:40:51.001Z</time></trkpt><trkpt lat="43.37618095673792" lon="-4.4557864454225395"><ele>18.25</ele><time>2026-05-01T15:40:52.001Z</time></trkpt><trkpt lat="43.37611069223035" lon="-4.455914332270889"><ele>17.0</ele><time>2026-05-01T15:40:53.001Z</time></trkpt><trkpt lat="43.376040602419266" lon="-4.4560423358477745"><ele>17.0</ele><time>2026-05-01T15:40:54.001Z</time></trkpt><trkpt lat="43.375968179415565" lon="-4.456169964046309"><ele>17.0</ele><time>2026-05-01T15:40:55.001Z</time></trkpt><trkpt lat="43.37589634015207" lon="-4.456297276351297"><ele>17.0</ele><time>2026-05-01T15:40:56.001Z</time></trkpt><trkpt lat="43.37582393916774" lon="-4.456426564572925"><ele>17.0</ele><time>2026-05-01T15:40:57.001Z</time></trkpt><trkpt lat="43.3757550339743" lon="-4.4565548281039"><ele>17.25</ele><time>2026-05-01T15:40:58.001Z</time></trkpt><trkpt lat="43.37568244221868" lon="-4.456681720569159"><ele>17.5</ele><time>2026-05-01T15:40:59.001Z</time></trkpt><trkpt lat="43.3756108158863" lon="-4.4568069867034055"><ele>17.75</ele><time>2026-05-01T15:41:00.001Z</time></trkpt><trkpt lat="43.37554051048069" lon="-4.456934483063259"><ele>18.0</ele><time>2026-05-01T15:41:01.001Z</time></trkpt><trkpt lat="43.37547182257507" lon="-4.4570663662504275"><ele>16.75</ele><time>2026-05-01T15:41:02.001Z</time></trkpt><trkpt lat="43.37540407468401" lon="-4.4571990450327945"><ele>15.5</ele><time>2026-05-01T15:41:03.001Z</time></trkpt><trkpt lat="43.37534395013948" lon="-4.457336399581487"><ele>14.25</ele><time>2026-05-01T15:41:04.001Z</time></trkpt><trkpt lat="43.37528297378337" lon="-4.457475173433211"><ele>13.0</ele><time>2026-05-01T15:41:05.001Z</time></trkpt><trkpt lat="43.37522650201334" lon="-4.457615328844002"><ele>13.0</ele><time>2026-05-01T15:41:06.001Z</time></trkpt><trkpt lat="43.37517328282153" lon="-4.457751625469498"><ele>13.0</ele><time>2026-05-01T15:41:07.001Z</time></trkpt><trkpt lat="43.37511959724921" lon="-4.457896545520894"><ele>13.0</ele><time>2026-05-01T15:41:08.001Z</time></trkpt><trkpt lat="43.37506727372851" lon="-4.458042606469337"><ele>13.0</ele><time>2026-05-01T15:41:09.001Z</time></trkpt><trkpt lat="43.37503123480469" lon="-4.458195519504331"><ele>13.0</ele><time>2026-05-01T15:41:10.001Z</time></trkpt><trkpt lat="43.37496927442302" lon="-4.458331851011589"><ele>13.0</ele><time>2026-05-01T15:41:11.001Z</time></trkpt><trkpt lat="43.37492142065348" lon="-4.458477423030016"><ele>13.0</ele><time>2026-05-01T15:41:12.001Z</time></trkpt><trkpt lat="43.37487467878564" lon="-4.458620478316865"><ele>13.0</ele><time>2026-05-01T15:41:13.001Z</time></trkpt><trkpt lat="43.374825752322685" lon="-4.458760908063459"><ele>13.0</ele><time>2026-05-01T15:41:14.001Z</time></trkpt><trkpt lat="43.374775306452584" lon="-4.45890360415625"><ele>13.0</ele><time>2026-05-01T15:41:15.001Z</time></trkpt><trkpt lat="43.37472710288063" lon="-4.459046305190637"><ele>13.0</ele><time>2026-05-01T15:41:16.001Z</time></trkpt><trkpt lat="43.374679990026486" lon="-4.459189478661753"><ele>13.0</ele><time>2026-05-01T15:41:17.001Z</time></trkpt><trkpt lat="43.37463376137164" lon="-4.459334111866433"><ele>12.75</ele><time>2026-05-01T15:41:18.001Z</time></trkpt><trkpt lat="43.374588134024485" lon="-4.459477381737836"><ele>12.5</ele><time>2026-05-01T15:41:19.001Z</time></trkpt><trkpt lat="43.37453916303659" lon="-4.459619667834232"><ele>12.25</ele><time>2026-05-01T15:41:20.001Z</time></trkpt><trkpt lat="43.3744884647844" lon="-4.459763827787984"><ele>12.0</ele><time>2026-05-01T15:41:21.001Z</time></trkpt><trkpt lat="43.37444088570623" lon="-4.459903874153192"><ele>12.0</ele><time>2026-05-01T15:41:22.001Z</time></trkpt><trkpt lat="43.37439076301024" lon="-4.4600487802479165"><ele>12.0</ele><time>2026-05-01T15:41:23.001Z</time></trkpt><trkpt lat="43.3743438258561" lon="-4.460191486205879"><ele>12.0</ele><time>2026-05-01T15:41:24.001Z</time></trkpt><trkpt lat="43.374295104177946" lon="-4.460334344008621"><ele>12.0</ele><time>2026-05-01T15:41:25.001Z</time></trkpt><trkpt lat="43.37424609763376" lon="-4.460476404601655"><ele>11.25</ele><time>2026-05-01T15:41:26.001Z</time></trkpt><trkpt lat="43.37419796765511" lon="-4.46061961709312"><ele>10.5</ele><time>2026-05-01T15:41:27.001Z</time></trkpt><trkpt lat="43.374153195424356" lon="-4.460762374103601"><ele>9.75</ele><time>2026-05-01T15:41:28.001Z</time></trkpt><trkpt lat="43.37410419256011" lon="-4.460906579525994"><ele>9.0</ele><time>2026-05-01T15:41:29.001Z</time></trkpt><trkpt lat="43.37405661714866" lon="-4.461047906712046"><ele>9.0</ele><time>2026-05-01T15:41:30.001Z</time></trkpt><trkpt lat="43.37400744206361" lon="-4.461189770142286"><ele>9.0</ele><time>2026-05-01T15:41:31.001Z</time></trkpt><trkpt lat="43.37395870883117" lon="-4.461330279618241"><ele>9.0</ele><time>2026-05-01T15:41:32.001Z</time></trkpt><trkpt lat="43.37391335902635" lon="-4.461467250506957"><ele>9.0</ele><time>2026-05-01T15:41:33.001Z</time></trkpt><trkpt lat="43.37386583288627" lon="-4.461604434301087"><ele>9.0</ele><time>2026-05-01T15:41:34.001Z</time></trkpt><trkpt lat="43.373817522724195" lon="-4.461742001804218"><ele>9.0</ele><time>2026-05-01T15:41:35.001Z</time></trkpt><trkpt lat="43.37376942233602" lon="-4.461879440290278"><ele>9.0</ele><time>2026-05-01T15:41:36.001Z</time></trkpt><trkpt lat="43.37372145627883" lon="-4.462016978436343"><ele>9.0</ele><time>2026-05-01T15:41:37.001Z</time></trkpt><trkpt lat="43.37367656972622" lon="-4.462155000942029"><ele>9.0</ele><time>2026-05-01T15:41:38.001Z</time></trkpt><trkpt lat="43.37362851889398" lon="-4.462292261986975"><ele>9.0</ele><time>2026-05-01T15:41:39.001Z</time></trkpt><trkpt lat="43.37358494692842" lon="-4.462432924912942"><ele>9.0</ele><time>2026-05-01T15:41:40.001Z</time></trkpt><trkpt lat="43.37353811099143" lon="-4.462572083763756"><ele>9.0</ele><time>2026-05-01T15:41:41.001Z</time></trkpt><trkpt lat="43.37349858123131" lon="-4.462712875259655"><ele>9.0</ele><time>2026-05-01T15:41:42.001Z</time></trkpt><trkpt lat="43.373455326015716" lon="-4.462829627305332"><ele>9.0</ele><time>2026-05-01T15:41:43.001Z</time></trkpt><trkpt lat="43.37342219395079" lon="-4.4629439284754895"><ele>9.0</ele><time>2026-05-01T15:41:44.001Z</time></trkpt><trkpt lat="43.373384417484075" lon="-4.463052134979983"><ele>9.0</ele><time>2026-05-01T15:41:45.001Z</time></trkpt><trkpt lat="43.373351424236084" lon="-4.463152193601051"><ele>9.0</ele><time>2026-05-01T15:41:46.001Z</time></trkpt><trkpt lat="43.373319456354686" lon="-4.463241469490399"><ele>9.0</ele><time>2026-05-01T15:41:47.001Z</time></trkpt><trkpt lat="43.37329152209652" lon="-4.463333066453103"><ele>9.0</ele><time>2026-05-01T15:41:48.001Z</time></trkpt><trkpt lat="43.37325863171098" lon="-4.463436674180347"><ele>9.0</ele><time>2026-05-01T15:41:49.001Z</time></trkpt><trkpt lat="43.37322371467045" lon="-4.463544740335223"><ele>9.0</ele><time>2026-05-01T15:41:50.001Z</time></trkpt><trkpt lat="43.37318744831757" lon="-4.463659911208981"><ele>9.0</ele><time>2026-05-01T15:41:51.001Z</time></trkpt><trkpt lat="43.373158755651566" lon="-4.463773730439912"><ele>9.0</ele><time>2026-05-01T15:41:52.001Z</time></trkpt><trkpt lat="43.37313558086651" lon="-4.46388754063969"><ele>9.0</ele><time>2026-05-01T15:41:53.001Z</time></trkpt><trkpt lat="43.373105044019255" lon="-4.464009712924676"><ele>9.0</ele><time>2026-05-01T15:41:54.001Z</time></trkpt><trkpt lat="43.37306009177191" lon="-4.464134553334988"><ele>9.0</ele><time>2026-05-01T15:41:55.001Z</time></trkpt><trkpt lat="43.373007558046915" lon="-4.464258990923042"><ele>9.8</ele><time>2026-05-01T15:41:56.001Z</time></trkpt><trkpt lat="43.37295917924451" lon="-4.4643805103248315"><ele>10.600000000000001</ele><time>2026-05-01T15:41:57.001Z</time></trkpt><trkpt lat="43.37290612553722" lon="-4.464499334877173"><ele>11.4</ele><time>2026-05-01T15:41:58.001Z</time></trkpt><trkpt lat="43.37290478829859" lon="-4.464667910579629"><ele>12.200000000000001</ele><time>2026-05-01T15:41:59.001Z</time></trkpt><trkpt lat="43.37288820743586" lon="-4.464816573683506"><ele>13.0</ele><time>2026-05-01T15:42:00.001Z</time></trkpt><trkpt lat="43.37287835852295" lon="-4.464968786750635"><ele>13.0</ele><time>2026-05-01T15:42:01.001Z</time></trkpt><trkpt lat="43.37286296954783" lon="-4.465123897656408"><ele>13.0</ele><time>2026-05-01T15:42:02.001Z</time></trkpt><trkpt lat="43.3728475853109" lon="-4.465279197385127"><ele>13.0</ele><time>2026-05-01T15:42:03.001Z</time></trkpt><trkpt lat="43.37283015098017" lon="-4.465437070737555"><ele>13.0</ele><time>2026-05-01T15:42:04.001Z</time></trkpt><trkpt lat="43.37281334540934" lon="-4.465592764268178"><ele>13.0</ele><time>2026-05-01T15:42:05.001Z</time></trkpt><trkpt lat="43.37280258282866" lon="-4.465748096754129"><ele>13.0</ele><time>2026-05-01T15:42:06.001Z</time></trkpt><trkpt lat="43.372789484537826" lon="-4.465903481160314"><ele>13.0</ele><time>2026-05-01T15:42:07.001Z</time></trkpt><trkpt lat="43.372772138300135" lon="-4.46606249433429"><ele>13.0</ele><time>2026-05-01T15:42:08.001Z</time></trkpt><trkpt lat="43.372755986676914" lon="-4.466219909630019"><ele>13.25</ele><time>2026-05-01T15:42:09.001Z</time></trkpt><trkpt lat="43.372738513082325" lon="-4.466378155180836"><ele>13.5</ele><time>2026-05-01T15:42:10.001Z</time></trkpt><trkpt lat="43.37272285899241" lon="-4.4665398316586975"><ele>13.75</ele><time>2026-05-01T15:42:11.001Z</time></trkpt><trkpt lat="43.37270558293753" lon="-4.466702491393474"><ele>14.0</ele><time>2026-05-01T15:42:12.001Z</time></trkpt><trkpt lat="43.37268839158568" lon="-4.4668567549026825"><ele>14.0</ele><time>2026-05-01T15:42:13.001Z</time></trkpt><trkpt lat="43.37267480731186" lon="-4.467016133324561"><ele>14.0</ele><time>2026-05-01T15:42:14.001Z</time></trkpt><trkpt lat="43.37266360965567" lon="-4.467171684402101"><ele>14.0</ele><time>2026-05-01T15:42:15.001Z</time></trkpt><trkpt lat="43.37264427445592" lon="-4.467324657920394"><ele>14.0</ele><time>2026-05-01T15:42:16.001Z</time></trkpt><trkpt lat="43.372628225813" lon="-4.467477205454001"><ele>14.0</ele><time>2026-05-01T15:42:17.001Z</time></trkpt><trkpt lat="43.372611863237346" lon="-4.467634854592329"><ele>14.0</ele><time>2026-05-01T15:42:18.001Z</time></trkpt><trkpt lat="43.37259487522215" lon="-4.467790813538091"><ele>14.0</ele><time>2026-05-01T15:42:19.001Z</time></trkpt><trkpt lat="43.372577539033664" lon="-4.467944343666582"><ele>14.0</ele><time>2026-05-01T15:42:20.001Z</time></trkpt><trkpt lat="43.37255763849184" lon="-4.468098979803604"><ele>13.0</ele><time>2026-05-01T15:42:21.001Z</time></trkpt><trkpt lat="43.37253311528526" lon="-4.468253670931228"><ele>12.0</ele><time>2026-05-01T15:42:22.001Z</time></trkpt><trkpt lat="43.37250400604292" lon="-4.468408567770245"><ele>11.0</ele><time>2026-05-01T15:42:23.001Z</time></trkpt><trkpt lat="43.372469902948176" lon="-4.468562922826581"><ele>10.0</ele><time>2026-05-01T15:42:24.001Z</time></trkpt><trkpt lat="43.37243437027041" lon="-4.468719333020295"><ele>9.0</ele><time>2026-05-01T15:42:25.001Z</time></trkpt><trkpt lat="43.37239582959713" lon="-4.468868847096416"><ele>8.0</ele><time>2026-05-01T15:42:26.001Z</time></trkpt><trkpt lat="43.37235381932823" lon="-4.4690178639353455"><ele>7.0</ele><time>2026-05-01T15:42:27.001Z</time></trkpt><trkpt lat="43.37231155005486" lon="-4.469164652742726"><ele>6.0</ele><time>2026-05-01T15:42:28.001Z</time></trkpt><trkpt lat="43.372269276771156" lon="-4.46931675491303"><ele>6.0</ele><time>2026-05-01T15:42:29.001Z</time></trkpt><trkpt lat="43.37222686843179" lon="-4.469459472593461"><ele>6.0</ele><time>2026-05-01T15:42:30.001Z</time></trkpt><trkpt lat="43.372186498693374" lon="-4.469607681287433"><ele>6.0</ele><time>2026-05-01T15:42:31.001Z</time></trkpt><trkpt lat="43.37214569875919" lon="-4.469760591080893"><ele>6.0</ele><time>2026-05-01T15:42:32.001Z</time></trkpt><trkpt lat="43.37210570617205" lon="-4.469907634280125"><ele>7.25</ele><time>2026-05-01T15:42:33.001Z</time></trkpt><trkpt lat="43.372060504703605" lon="-4.470057198730797"><ele>8.5</ele><time>2026-05-01T15:42:34.001Z</time></trkpt><trkpt lat="43.37201830137188" lon="-4.470205309623683"><ele>9.75</ele><time>2026-05-01T15:42:35.001Z</time></trkpt><trkpt lat="43.37197643573589" lon="-4.470354349688724"><ele>11.0</ele><time>2026-05-01T15:42:36.001Z</time></trkpt><trkpt lat="43.371933380527274" lon="-4.470495708181935"><ele>11.25</ele><time>2026-05-01T15:42:37.001Z</time></trkpt><trkpt lat="43.37189266624901" lon="-4.470644293183045"><ele>11.5</ele><time>2026-05-01T15:42:38.001Z</time></trkpt><trkpt lat="43.37185321039764" lon="-4.470788234338826"><ele>11.75</ele><time>2026-05-01T15:42:39.001Z</time></trkpt><trkpt lat="43.371812688225525" lon="-4.470931890270334"><ele>12.0</ele><time>2026-05-01T15:42:40.001Z</time></trkpt><trkpt lat="43.37176686271922" lon="-4.471073741405306"><ele>12.0</ele><time>2026-05-01T15:42:41.001Z</time></trkpt><trkpt lat="43.3717299192509" lon="-4.4712222342944425"><ele>12.0</ele><time>2026-05-01T15:42:42.001Z</time></trkpt><trkpt lat="43.3716915021547" lon="-4.4713633561138515"><ele>12.0</ele><time>2026-05-01T15:42:43.001Z</time></trkpt><trkpt lat="43.37164838931553" lon="-4.471508147306085"><ele>12.0</ele><time>2026-05-01T15:42:44.001Z</time></trkpt><trkpt lat="43.37161195561887" lon="-4.471652939006796"><ele>12.0</ele><time>2026-05-01T15:42:45.001Z</time></trkpt><trkpt lat="43.37156999458949" lon="-4.471801061598217"><ele>11.5</ele><time>2026-05-01T15:42:46.001Z</time></trkpt><trkpt lat="43.371529700343544" lon="-4.471950041575802"><ele>11.0</ele><time>2026-05-01T15:42:47.001Z</time></trkpt><trkpt lat="43.371493630137174" lon="-4.472099281815969"><ele>10.5</ele><time>2026-05-01T15:42:48.001Z</time></trkpt><trkpt lat="43.371454003536456" lon="-4.472247820625366"><ele>10.0</ele><time>2026-05-01T15:42:49.001Z</time></trkpt><trkpt lat="43.37141814378545" lon="-4.472399899843558"><ele>9.25</ele><time>2026-05-01T15:42:50.001Z</time></trkpt><trkpt lat="43.37138918854833" lon="-4.472556596639624"><ele>8.5</ele><time>2026-05-01T15:42:51.001Z</time></trkpt><trkpt lat="43.37137041659024" lon="-4.472718762681627"><ele>7.75</ele><time>2026-05-01T15:42:52.001Z</time></trkpt><trkpt lat="43.371357689089365" lon="-4.472877450136845"><ele>7.0</ele><time>2026-05-01T15:42:53.001Z</time></trkpt><trkpt lat="43.371355558287775" lon="-4.473040245914264"><ele>6.25</ele><time>2026-05-01T15:42:54.001Z</time></trkpt><trkpt lat="43.371376895114686" lon="-4.47320122510158"><ele>5.5</ele><time>2026-05-01T15:42:55.001Z</time></trkpt><trkpt lat="43.37137328016605" lon="-4.473362965449925"><ele>4.75</ele><time>2026-05-01T15:42:56.001Z</time></trkpt><trkpt lat="43.371388397222674" lon="-4.473517538485021"><ele>4.0</ele><time>2026-05-01T15:42:57.001Z</time></trkpt><trkpt lat="43.3714031970791" lon="-4.4736728945163104"><ele>4.5</ele><time>2026-05-01T15:42:58.001Z</time></trkpt><trkpt lat="43.37141133655853" lon="-4.473833120528458"><ele>5.0</ele><time>2026-05-01T15:42:59.001Z</time></trkpt><trkpt lat="43.37141804320791" lon="-4.473987597440839"><ele>5.5</ele><time>2026-05-01T15:43:00.001Z</time></trkpt><trkpt lat="43.37143052318971" lon="-4.47414621527852"><ele>6.0</ele><time>2026-05-01T15:43:01.001Z</time></trkpt><trkpt lat="43.371441209897895" lon="-4.474302398723868"><ele>6.0</ele><time>2026-05-01T15:43:02.001Z</time></trkpt><trkpt lat="43.37145141700084" lon="-4.474459636709295"><ele>6.0</ele><time>2026-05-01T15:43:03.001Z</time></trkpt><trkpt lat="43.37145936321897" lon="-4.474617041669968"><ele>6.0</ele><time>2026-05-01T15:43:04.001Z</time></trkpt><trkpt lat="43.37146632125173" lon="-4.47477499799443"><ele>6.0</ele><time>2026-05-01T15:43:05.001Z</time></trkpt><trkpt lat="43.3714779397728" lon="-4.474928995957059"><ele>6.25</ele><time>2026-05-01T15:43:06.001Z</time></trkpt><trkpt lat="43.3714849580879" lon="-4.475083583883149"><ele>6.5</ele><time>2026-05-01T15:43:07.001Z</time></trkpt><trkpt lat="43.37149937403416" lon="-4.475237806289489"><ele>6.75</ele><time>2026-05-01T15:43:08.001Z</time></trkpt><trkpt lat="43.37150878175309" lon="-4.475394246792156"><ele>7.0</ele><time>2026-05-01T15:43:09.001Z</time></trkpt><trkpt lat="43.371527855983196" lon="-4.475552108819261"><ele>6.25</ele><time>2026-05-01T15:43:10.001Z</time></trkpt><trkpt lat="43.37154467259521" lon="-4.4757102441151275"><ele>5.5</ele><time>2026-05-01T15:43:11.001Z</time></trkpt><trkpt lat="43.371563207472576" lon="-4.4758662739526685"><ele>4.75</ele><time>2026-05-01T15:43:12.001Z</time></trkpt><trkpt lat="43.37159257796483" lon="-4.4760213106946845"><ele>4.0</ele><time>2026-05-01T15:43:13.001Z</time></trkpt><trkpt lat="43.371625437753636" lon="-4.476173431338186"><ele>3.5</ele><time>2026-05-01T15:43:14.001Z</time></trkpt><trkpt lat="43.371663324935724" lon="-4.476323201982196"><ele>3.0</ele><time>2026-05-01T15:43:15.001Z</time></trkpt><trkpt lat="43.37170486077255" lon="-4.476474240339179"><ele>2.5</ele><time>2026-05-01T15:43:16.001Z</time></trkpt><trkpt lat="43.37175036549288" lon="-4.476620959460664"><ele>2.0</ele><time>2026-05-01T15:43:17.001Z</time></trkpt><trkpt lat="43.3718006650893" lon="-4.4767658793404985"><ele>2.0</ele><time>2026-05-01T15:43:18.001Z</time></trkpt><trkpt lat="43.37185725748395" lon="-4.47690608969661"><ele>2.0</ele><time>2026-05-01T15:43:19.001Z</time></trkpt><trkpt lat="43.3719179384249" lon="-4.47704435182348"><ele>2.0</ele><time>2026-05-01T15:43:20.001Z</time></trkpt><trkpt lat="43.37197990379347" lon="-4.477182958871817"><ele>2.0</ele><time>2026-05-01T15:43:21.001Z</time></trkpt><trkpt lat="43.372045043829644" lon="-4.477308730808025"><ele>2.0</ele><time>2026-05-01T15:43:22.001Z</time></trkpt><trkpt lat="43.3721094618389" lon="-4.477442035868771"><ele>2.0</ele><time>2026-05-01T15:43:23.001Z</time></trkpt><trkpt lat="43.37217648097236" lon="-4.4775660663595405"><ele>2.0</ele><time>2026-05-01T15:43:24.001Z</time></trkpt><trkpt lat="43.37224460411409" lon="-4.477689854124728"><ele>2.0</ele><time>2026-05-01T15:43:25.001Z</time></trkpt><trkpt lat="43.37231373490649" lon="-4.477814122014678"><ele>2.0</ele><time>2026-05-01T15:43:26.001Z</time></trkpt><trkpt lat="43.372379128217084" lon="-4.4779378069281375"><ele>2.0</ele><time>2026-05-01T15:43:27.001Z</time></trkpt><trkpt lat="43.37244483971215" lon="-4.478063959210927"><ele>2.0</ele><time>2026-05-01T15:43:28.001Z</time></trkpt><trkpt lat="43.372511349513964" lon="-4.478188670426939"><ele>2.0</ele><time>2026-05-01T15:43:29.001Z</time></trkpt><trkpt lat="43.372579180655556" lon="-4.4783133691436685"><ele>2.0</ele><time>2026-05-01T15:43:30.001Z</time></trkpt><trkpt lat="43.37264319708296" lon="-4.478435721519601"><ele>2.0</ele><time>2026-05-01T15:43:31.001Z</time></trkpt><trkpt lat="43.3727095975855" lon="-4.4785633893497385"><ele>2.0</ele><time>2026-05-01T15:43:32.001Z</time></trkpt><trkpt lat="43.372777149274334" lon="-4.4786874097698215"><ele>2.0</ele><time>2026-05-01T15:43:33.001Z</time></trkpt><trkpt lat="43.37284617955057" lon="-4.4788069518638505"><ele>2.0</ele><time>2026-05-01T15:43:34Z</time></trkpt><trkpt lat="43.372915384456924" lon="-4.4789258554655005"><ele>2.8</ele><time>2026-05-01T15:43:35Z</time></trkpt><trkpt lat="43.37298723707548" lon="-4.479043336752685"><ele>3.6</ele><time>2026-05-01T15:43:36Z</time></trkpt><trkpt lat="43.37306299009079" lon="-4.479155535513242"><ele>4.3999999999999995</ele><time>2026-05-01T15:43:37Z</time></trkpt><trkpt lat="43.37313731923681" lon="-4.479264718277903"><ele>5.2</ele><time>2026-05-01T15:43:38Z</time></trkpt><trkpt lat="43.37321516081336" lon="-4.479375648950929"><ele>6.0</ele><time>2026-05-01T15:43:39Z</time></trkpt><trkpt lat="43.37329738786121" lon="-4.47947282340045"><ele>6.4</ele><time>2026-05-01T15:43:40Z</time></trkpt><trkpt lat="43.373377088780614" lon="-4.479565116635355"><ele>6.8</ele><time>2026-05-01T15:43:41Z</time></trkpt><trkpt lat="43.37346169107733" lon="-4.479651967407776"><ele>7.200000000000001</ele><time>2026-05-01T15:43:42Z</time></trkpt><trkpt lat="43.37354570275152" lon="-4.479727074249923"><ele>7.6000000000000005</ele><time>2026-05-01T15:43:43Z</time></trkpt><trkpt lat="43.37363340571737" lon="-4.479801725545461"><ele>8.0</ele><time>2026-05-01T15:43:44Z</time></trkpt><trkpt lat="43.373720413746476" lon="-4.479867944015259"><ele>9.4</ele><time>2026-05-01T15:43:45Z</time></trkpt><trkpt lat="43.37380744053301" lon="-4.47993397155547"><ele>10.8</ele><time>2026-05-01T15:43:46Z</time></trkpt><trkpt lat="43.37389778602673" lon="-4.479990766221989"><ele>12.2</ele><time>2026-05-01T15:43:47Z</time></trkpt><trkpt lat="43.37399194219773" lon="-4.480037458320316"><ele>13.6</ele><time>2026-05-01T15:43:48Z</time></trkpt><trkpt lat="43.37408839565513" lon="-4.480079313282762"><ele>15.0</ele><time>2026-05-01T15:43:49Z</time></trkpt><trkpt lat="43.37418011453511" lon="-4.480127980431385"><ele>15.0</ele><time>2026-05-01T15:43:50Z</time></trkpt><trkpt lat="43.374272114982666" lon="-4.480173976758983"><ele>15.0</ele><time>2026-05-01T15:43:51Z</time></trkpt><trkpt lat="43.37437220565653" lon="-4.480210314978396"><ele>15.0</ele><time>2026-05-01T15:43:52Z</time></trkpt><trkpt lat="43.374468887264975" lon="-4.4802516629418845"><ele>15.0</ele><time>2026-05-01T15:43:53Z</time></trkpt><trkpt lat="43.37456818538711" lon="-4.480289483059525"><ele>15.0</ele><time>2026-05-01T15:43:54Z</time></trkpt><trkpt lat="43.374668504513764" lon="-4.480322152143308"><ele>14.4</ele><time>2026-05-01T15:43:55Z</time></trkpt><trkpt lat="43.37476598080362" lon="-4.480364385105416"><ele>13.8</ele><time>2026-05-01T15:43:56Z</time></trkpt><trkpt lat="43.37487077830732" lon="-4.480398882024105"><ele>13.2</ele><time>2026-05-01T15:43:57Z</time></trkpt><trkpt lat="43.37496653351365" lon="-4.480439174647485"><ele>12.6</ele><time>2026-05-01T15:43:58Z</time></trkpt><trkpt lat="43.3750666360465" lon="-4.480475385773401"><ele>12.0</ele><time>2026-05-01T15:43:59Z</time></trkpt><trkpt lat="43.3751632110129" lon="-4.480517223888005"><ele>14.0</ele><time>2026-05-01T15:44:00Z</time></trkpt><trkpt lat="43.37525657354259" lon="-4.480560693649128"><ele>16.0</ele><time>2026-05-01T15:44:01Z</time></trkpt><trkpt lat="43.37535332219884" lon="-4.480597495220922"><ele>18.0</ele><time>2026-05-01T15:44:02Z</time></trkpt><trkpt lat="43.37544568363644" lon="-4.480636541019065"><ele>20.0</ele><time>2026-05-01T15:44:03Z</time></trkpt><trkpt lat="43.37553638043802" lon="-4.480678416501266"><ele>22.0</ele><time>2026-05-01T15:44:04Z</time></trkpt><trkpt lat="43.375615055889874" lon="-4.480721183060527"><ele>22.0</ele><time>2026-05-01T15:44:05Z</time></trkpt><trkpt lat="43.37568035134008" lon="-4.4807608699901"><ele>22.0</ele><time>2026-05-01T15:44:06Z</time></trkpt><trkpt lat="43.375756907382296" lon="-4.480801662532799"><ele>22.0</ele><time>2026-05-01T15:44:08Z</time></trkpt><trkpt lat="43.37581561628316" lon="-4.480854349866417"><ele>22.0</ele><time>2026-05-01T15:44:13Z</time></trkpt><trkpt lat="43.37587528315084" lon="-4.480886353144007"><ele>22.0</ele><time>2026-05-01T15:44:15Z</time></trkpt><trkpt lat="43.37591440400901" lon="-4.480799968229982"><ele>22.0</ele><time>2026-05-01T15:44:17Z</time></trkpt><trkpt lat="43.37596813708229" lon="-4.480735084210313"><ele>22.0</ele><time>2026-05-01T15:44:19Z</time></trkpt><trkpt lat="43.376081277225765" lon="-4.480732928761571"><ele>22.0</ele><time>2026-05-01T15:44:21Z</time></trkpt><trkpt lat="43.37614400477223" lon="-4.480747445727271"><ele>22.0</ele><time>2026-05-01T15:44:22Z</time></trkpt><trkpt lat="43.376268191962815" lon="-4.4807201070889615"><ele>22.0</ele><time>2026-05-01T15:44:24.001Z</time></trkpt><trkpt lat="43.37633577814316" lon="-4.4807154626761765"><ele>22.0</ele><time>2026-05-01T15:44:25.001Z</time></trkpt><trkpt lat="43.37640241792426" lon="-4.480696102858042"><ele>22.0</ele><time>2026-05-01T15:44:26.001Z</time></trkpt><trkpt lat="43.37647605503363" lon="-4.480687182725499"><ele>22.0</ele><time>2026-05-01T15:44:27.001Z</time></trkpt><trkpt lat="43.37655264731455" lon="-4.480691596302019"><ele>21.833333333333332</ele><time>2026-05-01T15:44:28.001Z</time></trkpt><trkpt lat="43.376625696028384" lon="-4.480766906637524"><ele>21.666666666666664</ele><time>2026-05-01T15:44:29.001Z</time></trkpt><trkpt lat="43.37670157165981" lon="-4.480799623763952"><ele>21.5</ele><time>2026-05-01T15:44:30.001Z</time></trkpt><trkpt lat="43.37677747475247" lon="-4.480850477726904"><ele>21.333333333333332</ele><time>2026-05-01T15:44:31.001Z</time></trkpt><trkpt lat="43.376851171296565" lon="-4.480905957566771"><ele>21.166666666666668</ele><time>2026-05-01T15:44:32.001Z</time></trkpt><trkpt lat="43.37694413646965" lon="-4.48092120192982"><ele>21.0</ele><time>2026-05-01T15:44:33.001Z</time></trkpt><trkpt lat="43.37700431848489" lon="-4.481004560274438"><ele>21.0</ele><time>2026-05-01T15:44:34.001Z</time></trkpt><trkpt lat="43.37705277529772" lon="-4.481109061259802"><ele>21.0</ele><time>2026-05-01T15:44:35.001Z</time></trkpt><trkpt lat="43.377091353007145" lon="-4.481229451034893"><ele>21.0</ele><time>2026-05-01T15:44:36.001Z</time></trkpt><trkpt lat="43.37711025160853" lon="-4.481362621079382"><ele>21.0</ele><time>2026-05-01T15:44:37.001Z</time></trkpt><trkpt lat="43.37711992530262" lon="-4.4814928981965725"><ele>21.0</ele><time>2026-05-01T15:44:38.001Z</time></trkpt><trkpt lat="43.37709811721134" lon="-4.481618243202058"><ele>22.166666666666668</ele><time>2026-05-01T15:44:39.001Z</time></trkpt><trkpt lat="43.37707557312425" lon="-4.4817354677068275"><ele>23.333333333333336</ele><time>2026-05-01T15:44:40.001Z</time></trkpt><trkpt lat="43.377029795929005" lon="-4.481833491634147"><ele>24.5</ele><time>2026-05-01T15:44:41.001Z</time></trkpt><trkpt lat="43.37702243297783" lon="-4.481938094141835"><ele>25.666666666666668</ele><time>2026-05-01T15:44:42.001Z</time></trkpt><trkpt lat="43.37702175159681" lon="-4.482039037751797"><ele>26.833333333333336</ele><time>2026-05-01T15:44:43.001Z</time></trkpt><trkpt lat="43.377047687763124" lon="-4.482145187269225"><ele>28.0</ele><time>2026-05-01T15:44:44.001Z</time></trkpt><trkpt lat="43.377095848746684" lon="-4.482252513489739"><ele>28.0</ele><time>2026-05-01T15:44:45.001Z</time></trkpt><trkpt lat="43.37717935261498" lon="-4.4823279062392745"><ele>28.0</ele><time>2026-05-01T15:44:46.001Z</time></trkpt><trkpt lat="43.377262062654346" lon="-4.482412831150612"><ele>28.0</ele><time>2026-05-01T15:44:47.001Z</time></trkpt><trkpt lat="43.377360138574495" lon="-4.482519622993025"><ele>28.0</ele><time>2026-05-01T15:44:48.001Z</time></trkpt><trkpt lat="43.377513914355106" lon="-4.482582473843479"><ele>26.25</ele><time>2026-05-01T15:44:49.001Z</time></trkpt><trkpt lat="43.37769923130802" lon="-4.482618065756003"><ele>24.5</ele><time>2026-05-01T15:44:50.001Z</time></trkpt><trkpt lat="43.377596476807796" lon="-4.482619363279093"><ele>22.75</ele><time>2026-05-01T15:44:51.001Z</time></trkpt><trkpt lat="43.37768516288965" lon="-4.482617672199404"><ele>21.0</ele><time>2026-05-01T15:44:52.001Z</time></trkpt><trkpt lat="43.37776056599847" lon="-4.482590476332778"><ele>21.0</ele><time>2026-05-01T15:44:53.001Z</time></trkpt><trkpt lat="43.377828287116515" lon="-4.482540343813901"><ele>21.0</ele><time>2026-05-01T15:44:54.001Z</time></trkpt><trkpt lat="43.37787622074823" lon="-4.4824515644390095"><ele>21.0</ele><time>2026-05-01T15:44:55.001Z</time></trkpt><trkpt lat="43.37792637639503" lon="-4.482339447124301"><ele>21.0</ele><time>2026-05-01T15:44:56.001Z</time></trkpt><trkpt lat="43.37796595858029" lon="-4.482227109533004"><ele>21.0</ele><time>2026-05-01T15:44:57.001Z</time></trkpt><trkpt lat="43.37800417075836" lon="-4.482109892772557"><ele>21.0</ele><time>2026-05-01T15:44:58.001Z</time></trkpt><trkpt lat="43.378039778870225" lon="-4.481994462223104"><ele>22.0</ele><time>2026-05-01T15:44:59.001Z</time></trkpt><trkpt lat="43.37807822763021" lon="-4.4818769439565"><ele>23.0</ele><time>2026-05-01T15:45:00.001Z</time></trkpt><trkpt lat="43.37811892620872" lon="-4.481767911262449"><ele>24.0</ele><time>2026-05-01T15:45:01.001Z</time></trkpt><trkpt lat="43.37817873893051" lon="-4.4816681776810166"><ele>25.0</ele><time>2026-05-01T15:45:02.001Z</time></trkpt><trkpt lat="43.3782643368034" lon="-4.481603069059933"><ele>26.0</ele><time>2026-05-01T15:45:03.001Z</time></trkpt><trkpt lat="43.37834524884201" lon="-4.481557651153782"><ele>25.999999999999996</ele><time>2026-05-01T15:45:04.001Z</time></trkpt><trkpt lat="43.378432840018554" lon="-4.481540816728293"><ele>26.0</ele><time>2026-05-01T15:45:05.001Z</time></trkpt><trkpt lat="43.37851316614304" lon="-4.48154904833597"><ele>26.0</ele><time>2026-05-01T15:45:06.001Z</time></trkpt><trkpt lat="43.37859387543116" lon="-4.481553468252654"><ele>26.0</ele><time>2026-05-01T15:45:07.001Z</time></trkpt><trkpt lat="43.37867762131579" lon="-4.481542276311182"><ele>25.999999999999996</ele><time>2026-05-01T15:45:08.001Z</time></trkpt><trkpt lat="43.37875597119987" lon="-4.481544234541143"><ele>26.0</ele><time>2026-05-01T15:45:09.001Z</time></trkpt><trkpt lat="43.37883337617764" lon="-4.481575081531136"><ele>27.166666666666664</ele><time>2026-05-01T15:45:10.001Z</time></trkpt><trkpt lat="43.3789041667679" lon="-4.481637883860316"><ele>28.333333333333332</ele><time>2026-05-01T15:45:11.001Z</time></trkpt><trkpt lat="43.37897422458701" lon="-4.481704865535502"><ele>29.5</ele><time>2026-05-01T15:45:12.001Z</time></trkpt><trkpt lat="43.37904158770048" lon="-4.481780276574853"><ele>30.666666666666664</ele><time>2026-05-01T15:45:13.001Z</time></trkpt><trkpt lat="43.37912273944517" lon="-4.4818291691524195"><ele>31.833333333333332</ele><time>2026-05-01T15:45:14.001Z</time></trkpt><trkpt lat="43.37919660090593" lon="-4.481915542981454"><ele>33.0</ele><time>2026-05-01T15:45:15.001Z</time></trkpt><trkpt lat="43.37926343610872" lon="-4.481987165289042"><ele>33.0</ele><time>2026-05-01T15:45:16.001Z</time></trkpt><trkpt lat="43.37932474047122" lon="-4.482051209605832"><ele>33.0</ele><time>2026-05-01T15:45:17.001Z</time></trkpt><trkpt lat="43.37939048194527" lon="-4.482111281104953"><ele>33.0</ele><time>2026-05-01T15:45:18.001Z</time></trkpt><trkpt lat="43.37945529447038" lon="-4.482142726440217"><ele>33.0</ele><time>2026-05-01T15:45:19.001Z</time></trkpt><trkpt lat="43.37952842091707" lon="-4.482148056639293"><ele>33.0</ele><time>2026-05-01T15:45:20.001Z</time></trkpt><trkpt lat="43.37960724123288" lon="-4.482132097449698"><ele>33.0</ele><time>2026-05-01T15:45:21.001Z</time></trkpt><trkpt lat="43.37967729242972" lon="-4.482095991828745"><ele>35.4</ele><time>2026-05-01T15:45:22.001Z</time></trkpt><trkpt lat="43.37975389188145" lon="-4.482040842489421"><ele>37.8</ele><time>2026-05-01T15:45:23.001Z</time></trkpt><trkpt lat="43.37987181593781" lon="-4.481914910371692"><ele>40.2</ele><time>2026-05-01T15:45:25.001Z</time></trkpt><trkpt lat="43.37994143324573" lon="-4.481849456305228"><ele>42.6</ele><time>2026-05-01T15:45:26.001Z</time></trkpt><trkpt lat="43.380002355362436" lon="-4.4817936825284965"><ele>45.0</ele><time>2026-05-01T15:45:27.001Z</time></trkpt><trkpt lat="43.38007020438428" lon="-4.48174517067645"><ele>45.0</ele><time>2026-05-01T15:45:28Z</time></trkpt><trkpt lat="43.38014093693389" lon="-4.481676345249315"><ele>45.0</ele><time>2026-05-01T15:45:29Z</time></trkpt><trkpt lat="43.38020634123417" lon="-4.4816162593475175"><ele>45.0</ele><time>2026-05-01T15:45:30Z</time></trkpt><trkpt lat="43.380275400010184" lon="-4.481536384360303"><ele>45.0</ele><time>2026-05-01T15:45:31Z</time></trkpt><trkpt lat="43.38033958347781" lon="-4.481472815889298"><ele>45.0</ele><time>2026-05-01T15:45:32Z</time></trkpt><trkpt lat="43.38041253144595" lon="-4.481420769329372"><ele>45.0</ele><time>2026-05-01T15:45:33Z</time></trkpt><trkpt lat="43.38047057412026" lon="-4.481347625279901"><ele>45.666666666666664</ele><time>2026-05-01T15:45:34Z</time></trkpt><trkpt lat="43.38053745271243" lon="-4.481285086279041"><ele>46.33333333333333</ele><time>2026-05-01T15:45:35Z</time></trkpt><trkpt lat="43.380601747187015" lon="-4.481226974501998"><ele>47.0</ele><time>2026-05-01T15:45:36Z</time></trkpt><trkpt lat="43.38067001839976" lon="-4.481171849160048"><ele>47.666666666666664</ele><time>2026-05-01T15:45:37Z</time></trkpt><trkpt lat="43.380748789218835" lon="-4.481130738641138"><ele>48.33333333333333</ele><time>2026-05-01T15:45:38Z</time></trkpt><trkpt lat="43.3808067934507" lon="-4.481092836609276"><ele>49.0</ele><time>2026-05-01T15:45:39Z</time></trkpt><trkpt lat="43.38087749020243" lon="-4.481046729728982"><ele>48.99999999999999</ele><time>2026-05-01T15:45:40Z</time></trkpt><trkpt lat="43.380914322508055" lon="-4.4809685938469705"><ele>49.0</ele><time>2026-05-01T15:45:41Z</time></trkpt><trkpt lat="43.38095870560422" lon="-4.48088055083368"><ele>49.0</ele><time>2026-05-01T15:45:42Z</time></trkpt><trkpt lat="43.381006127871316" lon="-4.480808440505265"><ele>49.0</ele><time>2026-05-01T15:45:43Z</time></trkpt><trkpt lat="43.38107330994767" lon="-4.480746905836415"><ele>48.99999999999999</ele><time>2026-05-01T15:45:44Z</time></trkpt><trkpt lat="43.38114083312864" lon="-4.480687281303201"><ele>49.0</ele><time>2026-05-01T15:45:45Z</time></trkpt><trkpt lat="43.38120507144252" lon="-4.480624492141953"><ele>48.99999999999999</ele><time>2026-05-01T15:45:46Z</time></trkpt><trkpt lat="43.38126991771982" lon="-4.480556144094195"><ele>49.0</ele><time>2026-05-01T15:45:47Z</time></trkpt><trkpt lat="43.381346585880024" lon="-4.480512848994274"><ele>49.0</ele><time>2026-05-01T15:45:48Z</time></trkpt><trkpt lat="43.38140463653274" lon="-4.480433025599827"><ele>49.0</ele><time>2026-05-01T15:45:49Z</time></trkpt><trkpt lat="43.38146871701073" lon="-4.480374150871279"><ele>48.99999999999999</ele><time>2026-05-01T15:45:50Z</time></trkpt><trkpt lat="43.38153279903152" lon="-4.480315274745442"><ele>49.0</ele><time>2026-05-01T15:45:51Z</time></trkpt><trkpt lat="43.381595964125545" lon="-4.4802572410646135"><ele>49.83333333333333</ele><time>2026-05-01T15:45:52Z</time></trkpt><trkpt lat="43.38166367692616" lon="-4.480195029076169"><ele>50.666666666666664</ele><time>2026-05-01T15:45:53Z</time></trkpt><trkpt lat="43.38174083176312" lon="-4.480122883834497"><ele>51.5</ele><time>2026-05-01T15:45:54Z</time></trkpt><trkpt lat="43.38180577711489" lon="-4.480059566645007"><ele>52.33333333333333</ele><time>2026-05-01T15:45:55Z</time></trkpt><trkpt lat="43.38186567673732" lon="-4.479991796269774"><ele>53.166666666666664</ele><time>2026-05-01T15:45:56Z</time></trkpt><trkpt lat="43.38192398068529" lon="-4.479916760308064"><ele>54.0</ele><time>2026-05-01T15:45:57Z</time></trkpt><trkpt lat="43.38197903644666" lon="-4.479839197258204"><ele>54.0</ele><time>2026-05-01T15:45:58Z</time></trkpt><trkpt lat="43.382029425044855" lon="-4.479753333954618"><ele>54.0</ele><time>2026-05-01T15:45:59Z</time></trkpt><trkpt lat="43.38208260738759" lon="-4.479666322338124"><ele>54.0</ele><time>2026-05-01T15:46:00Z</time></trkpt><trkpt lat="43.38214372418772" lon="-4.479582639167711"><ele>54.0</ele><time>2026-05-01T15:46:01Z</time></trkpt><trkpt lat="43.382217648183556" lon="-4.479520665135584"><ele>54.0</ele><time>2026-05-01T15:46:02Z</time></trkpt><trkpt lat="43.3822984107818" lon="-4.479477124004032"><ele>54.0</ele><time>2026-05-01T15:46:03Z</time></trkpt><trkpt lat="43.382363709143654" lon="-4.4794416499843335"><ele>53.0</ele><time>2026-05-01T15:46:04Z</time></trkpt><trkpt lat="43.38244201025822" lon="-4.479406033197134"><ele>52.0</ele><time>2026-05-01T15:46:05Z</time></trkpt><trkpt lat="43.3825125615473" lon="-4.479387124377136"><ele>51.0</ele><time>2026-05-01T15:46:06Z</time></trkpt><trkpt lat="43.38258968201178" lon="-4.479383976118827"><ele>50.0</ele><time>2026-05-01T15:46:07Z</time></trkpt><trkpt lat="43.38267389840831" lon="-4.479429850788335"><ele>49.0</ele><time>2026-05-01T15:46:08Z</time></trkpt><trkpt lat="43.38273251937041" lon="-4.47954665682285"><ele>48.0</ele><time>2026-05-01T15:46:09Z</time></trkpt><trkpt lat="43.38278230655426" lon="-4.479634169404306"><ele>54.166666666666664</ele><time>2026-05-01T15:46:10Z</time></trkpt><trkpt lat="43.382818295199314" lon="-4.4797572687252405"><ele>60.33333333333333</ele><time>2026-05-01T15:46:11Z</time></trkpt><trkpt lat="43.38287620369931" lon="-4.479845315921738"><ele>66.5</ele><time>2026-05-01T15:46:12Z</time></trkpt><trkpt lat="43.38292615751267" lon="-4.479932169580143"><ele>72.66666666666666</ele><time>2026-05-01T15:46:13Z</time></trkpt><trkpt lat="43.383018174312404" lon="-4.479912522697578"><ele>78.83333333333333</ele><time>2026-05-01T15:46:14Z</time></trkpt><trkpt lat="43.383094424907604" lon="-4.479904082657369"><ele>85.0</ele><time>2026-05-01T15:46:15Z</time></trkpt><trkpt lat="43.38316203697115" lon="-4.479848288934074"><ele>81.8</ele><time>2026-05-01T15:46:16Z</time></trkpt><trkpt lat="43.38319569417066" lon="-4.479728949673736"><ele>78.6</ele><time>2026-05-01T15:46:17Z</time></trkpt><trkpt lat="43.383223248258936" lon="-4.479615090599658"><ele>75.4</ele><time>2026-05-01T15:46:18Z</time></trkpt><trkpt lat="43.383253607338204" lon="-4.479495164024911"><ele>72.2</ele><time>2026-05-01T15:46:19Z</time></trkpt><trkpt lat="43.38328938111852" lon="-4.47937117112244"><ele>69.0</ele><time>2026-05-01T15:46:20Z</time></trkpt><trkpt lat="43.38332725318133" lon="-4.479255989100407"><ele>69.0</ele><time>2026-05-01T15:46:21Z</time></trkpt><trkpt lat="43.383382891729426" lon="-4.479135548541403"><ele>69.0</ele><time>2026-05-01T15:46:22Z</time></trkpt><trkpt lat="43.38347730179165" lon="-4.479072831251564"><ele>69.0</ele><time>2026-05-01T15:46:23Z</time></trkpt><trkpt lat="43.383562403918354" lon="-4.479006754409071"><ele>69.0</ele><time>2026-05-01T15:46:24Z</time></trkpt><trkpt lat="43.383643406933054" lon="-4.478939694170584"><ele>69.0</ele><time>2026-05-01T15:46:25Z</time></trkpt><trkpt lat="43.383733437336076" lon="-4.478878008143235"><ele>69.0</ele><time>2026-05-01T15:46:26Z</time></trkpt><trkpt lat="43.38381615409314" lon="-4.478821454693108"><ele>69.0</ele><time>2026-05-01T15:46:27Z</time></trkpt><trkpt lat="43.38389490678066" lon="-4.478769790272369"><ele>69.0</ele><time>2026-05-01T15:46:28Z</time></trkpt><trkpt lat="43.38397693494415" lon="-4.478715976998268"><ele>69.0</ele><time>2026-05-01T15:46:29Z</time></trkpt><trkpt lat="43.38405758590316" lon="-4.478663854384828"><ele>69.0</ele><time>2026-05-01T15:46:30Z</time></trkpt><trkpt lat="43.38414312253052" lon="-4.478620354860448"><ele>68.5</ele><time>2026-05-01T15:46:31Z</time></trkpt><trkpt lat="43.384209543243415" lon="-4.478554374840349"><ele>68.0</ele><time>2026-05-01T15:46:32Z</time></trkpt><trkpt lat="43.38428805131064" lon="-4.47849937223397"><ele>67.5</ele><time>2026-05-01T15:46:33Z</time></trkpt><trkpt lat="43.38437436051824" lon="-4.478458567226267"><ele>67.0</ele><time>2026-05-01T15:46:34Z</time></trkpt><trkpt lat="43.38445377421115" lon="-4.478469995647827"><ele>66.5</ele><time>2026-05-01T15:46:35Z</time></trkpt><trkpt lat="43.38452904023602" lon="-4.478417352166295"><ele>66.0</ele><time>2026-05-01T15:46:36Z</time></trkpt><trkpt lat="43.384616780722276" lon="-4.478387078783289"><ele>66.0</ele><time>2026-05-01T15:46:37Z</time></trkpt><trkpt lat="43.38465459805121" lon="-4.478268064739972"><ele>66.0</ele><time>2026-05-01T15:46:38Z</time></trkpt><trkpt lat="43.3846964667579" lon="-4.478147241288622"><ele>66.0</ele><time>2026-05-01T15:46:39Z</time></trkpt><trkpt lat="43.38473138813325" lon="-4.478016241259148"><ele>66.0</ele><time>2026-05-01T15:46:40Z</time></trkpt><trkpt lat="43.384774241136654" lon="-4.47791173459852"><ele>66.0</ele><time>2026-05-01T15:46:41Z</time></trkpt><trkpt lat="43.384828437138886" lon="-4.477806926731739"><ele>69.0</ele><time>2026-05-01T15:46:42Z</time></trkpt><trkpt lat="43.384877221114344" lon="-4.4777116336830565"><ele>72.0</ele><time>2026-05-01T15:46:43Z</time></trkpt><trkpt lat="43.38497621132004" lon="-4.477641134281036"><ele>75.0</ele><time>2026-05-01T15:46:44Z</time></trkpt><trkpt lat="43.38506792805957" lon="-4.477599411553835"><ele>78.0</ele><time>2026-05-01T15:46:45Z</time></trkpt><trkpt lat="43.38515474229378" lon="-4.477535090442572"><ele>81.0</ele><time>2026-05-01T15:46:46Z</time></trkpt><trkpt lat="43.385208272600316" lon="-4.477434024112397"><ele>81.0</ele><time>2026-05-01T15:46:47Z</time></trkpt><trkpt lat="43.38521380738867" lon="-4.477306675928927"><ele>81.0</ele><time>2026-05-01T15:46:48Z</time></trkpt><trkpt lat="43.38526712340862" lon="-4.477207128213694"><ele>81.0</ele><time>2026-05-01T15:46:49Z</time></trkpt><trkpt lat="43.385317329884195" lon="-4.47709844700315"><ele>81.0</ele><time>2026-05-01T15:46:50Z</time></trkpt><trkpt lat="43.38537317611572" lon="-4.477005888714065"><ele>81.0</ele><time>2026-05-01T15:46:51Z</time></trkpt><trkpt lat="43.38544351038013" lon="-4.476925823776196"><ele>84.83333333333333</ele><time>2026-05-01T15:46:52Z</time></trkpt><trkpt lat="43.38548960716622" lon="-4.476841494043982"><ele>88.66666666666666</ele><time>2026-05-01T15:46:53.001Z</time></trkpt><trkpt lat="43.385531763191345" lon="-4.4767328827405946"><ele>92.5</ele><time>2026-05-01T15:46:54.001Z</time></trkpt><trkpt lat="43.385607407828694" lon="-4.476673915329934"><ele>96.33333333333333</ele><time>2026-05-01T15:46:55.001Z</time></trkpt><trkpt lat="43.38566624906797" lon="-4.476633869003697"><ele>100.16666666666666</ele><time>2026-05-01T15:46:56.001Z</time></trkpt><trkpt lat="43.38573537284529" lon="-4.476556386242486"><ele>104.0</ele><time>2026-05-01T15:46:57.001Z</time></trkpt><trkpt lat="43.385832851780236" lon="-4.476439253910666"><ele>100.0</ele><time>2026-05-01T15:46:58.001Z</time></trkpt><trkpt lat="43.38589341934089" lon="-4.47625001511426"><ele>96.0</ele><time>2026-05-01T15:47:00.001Z</time></trkpt><trkpt lat="43.3859258106675" lon="-4.476140513811068"><ele>92.0</ele><time>2026-05-01T15:47:01.001Z</time></trkpt><trkpt lat="43.38595614584376" lon="-4.4760442274416725"><ele>88.0</ele><time>2026-05-01T15:47:02.001Z</time></trkpt><trkpt lat="43.386010153141854" lon="-4.475951048917244"><ele>84.0</ele><time>2026-05-01T15:47:03.001Z</time></trkpt><trkpt lat="43.38604953549624" lon="-4.475861901365804"><ele>84.0</ele><time>2026-05-01T15:47:04.001Z</time></trkpt><trkpt lat="43.386084095957266" lon="-4.475758047314052"><ele>84.0</ele><time>2026-05-01T15:47:05.001Z</time></trkpt><trkpt lat="43.38614381484545" lon="-4.47568955719804"><ele>84.0</ele><time>2026-05-01T15:47:06.001Z</time></trkpt><trkpt lat="43.386197047786176" lon="-4.475567070584087"><ele>84.0</ele><time>2026-05-01T15:47:07.001Z</time></trkpt><trkpt lat="43.3862441961689" lon="-4.475491305612481"><ele>84.0</ele><time>2026-05-01T15:47:08.001Z</time></trkpt><trkpt lat="43.38627773265787" lon="-4.475414939906054"><ele>84.0</ele><time>2026-05-01T15:47:09.001Z</time></trkpt><trkpt lat="43.38633679948801" lon="-4.475326704790758"><ele>85.33333333333333</ele><time>2026-05-01T15:47:10.001Z</time></trkpt><trkpt lat="43.38639966824855" lon="-4.475214928804144"><ele>86.66666666666667</ele><time>2026-05-01T15:47:11.001Z</time></trkpt><trkpt lat="43.386460813095866" lon="-4.475116468755574"><ele>88.0</ele><time>2026-05-01T15:47:12.001Z</time></trkpt><trkpt lat="43.38650004096395" lon="-4.475023279208728"><ele>89.33333333333334</ele><time>2026-05-01T15:47:13.001Z</time></trkpt><trkpt lat="43.386561205224766" lon="-4.474934909527916"><ele>90.66666666666667</ele><time>2026-05-01T15:47:14.001Z</time></trkpt><trkpt lat="43.386630395343495" lon="-4.474874477216641"><ele>92.0</ele><time>2026-05-01T15:47:15.001Z</time></trkpt><trkpt lat="43.3866968628573" lon="-4.474858869889421"><ele>92.0</ele><time>2026-05-01T15:47:16.001Z</time></trkpt><trkpt lat="43.38684940701472" lon="-4.474877862910957"><ele>92.0</ele><time>2026-05-01T15:47:18.001Z</time></trkpt><trkpt lat="43.386933512459066" lon="-4.474978779607043"><ele>92.0</ele><time>2026-05-01T15:47:19.001Z</time></trkpt><trkpt lat="43.38700772757967" lon="-4.47507983276766"><ele>92.0</ele><time>2026-05-01T15:47:20.001Z</time></trkpt><trkpt lat="43.38706164371194" lon="-4.475185199602464"><ele>92.0</ele><time>2026-05-01T15:47:21.001Z</time></trkpt><trkpt lat="43.38714194593041" lon="-4.4752630421100195"><ele>92.0</ele><time>2026-05-01T15:47:22.001Z</time></trkpt><trkpt lat="43.387237424666736" lon="-4.475295054804297"><ele>92.0</ele><time>2026-05-01T15:47:23.001Z</time></trkpt><trkpt lat="43.387337415382774" lon="-4.475281670931415"><ele>92.0</ele><time>2026-05-01T15:47:24.001Z</time></trkpt><trkpt lat="43.387426619652075" lon="-4.475246836976544"><ele>92.0</ele><time>2026-05-01T15:47:25.001Z</time></trkpt><trkpt lat="43.387516850373" lon="-4.475212447690972"><ele>91.39999999999999</ele><time>2026-05-01T15:47:26.001Z</time></trkpt><trkpt lat="43.387587929210746" lon="-4.475206131105995"><ele>90.8</ele><time>2026-05-01T15:47:27.001Z</time></trkpt><trkpt lat="43.387668143461454" lon="-4.475279819162401"><ele>90.2</ele><time>2026-05-01T15:47:28.001Z</time></trkpt><trkpt lat="43.387760833749354" lon="-4.4753566199295065"><ele>89.6</ele><time>2026-05-01T15:47:29.001Z</time></trkpt><trkpt lat="43.38784847284583" lon="-4.475419816923428"><ele>89.0</ele><time>2026-05-01T15:47:30.001Z</time></trkpt><trkpt lat="43.38791980637379" lon="-4.475487970216217"><ele>91.66666666666667</ele><time>2026-05-01T15:47:31.001Z</time></trkpt><trkpt lat="43.38797121182167" lon="-4.475578688170776"><ele>94.33333333333334</ele><time>2026-05-01T15:47:32.001Z</time></trkpt><trkpt lat="43.38804273380454" lon="-4.475656813513381"><ele>97.0</ele><time>2026-05-01T15:47:33.001Z</time></trkpt><trkpt lat="43.38810542296671" lon="-4.475702765683153"><ele>99.66666666666667</ele><time>2026-05-01T15:47:34Z</time></trkpt><trkpt lat="43.38819341009907" lon="-4.47569163511411"><ele>102.33333333333333</ele><time>2026-05-01T15:47:35Z</time></trkpt><trkpt lat="43.388257279147204" lon="-4.475667548003191"><ele>105.0</ele><time>2026-05-01T15:47:36Z</time></trkpt><trkpt lat="43.38832077106261" lon="-4.475664594160123"><ele>105.0</ele><time>2026-05-01T15:47:37Z</time></trkpt><trkpt lat="43.38838925489051" lon="-4.475682759218867"><ele>105.0</ele><time>2026-05-01T15:47:39Z</time></trkpt><trkpt lat="43.38847241386268" lon="-4.475735060698937"><ele>105.0</ele><time>2026-05-01T15:47:41Z</time></trkpt><trkpt lat="43.38852491218975" lon="-4.475839116726472"><ele>105.0</ele><time>2026-05-01T15:47:43Z</time></trkpt><trkpt lat="43.38858177861287" lon="-4.475964818661867"><ele>105.0</ele><time>2026-05-01T15:47:45Z</time></trkpt><trkpt lat="43.3886263353452" lon="-4.476030628611917"><ele>105.0</ele><time>2026-05-01T15:47:46Z</time></trkpt><trkpt lat="43.388673991785865" lon="-4.476104051909506"><ele>105.0</ele><time>2026-05-01T15:47:47Z</time></trkpt><trkpt lat="43.388718504961574" lon="-4.476173325547723"><ele>105.0</ele><time>2026-05-01T15:47:48Z</time></trkpt><trkpt lat="43.38881585556718" lon="-4.476253092760495"><ele>105.0</ele><time>2026-05-01T15:47:50Z</time></trkpt><trkpt lat="43.38890550316399" lon="-4.476325573817237"><ele>105.0</ele><time>2026-05-01T15:47:52Z</time></trkpt><trkpt lat="43.38897535948592" lon="-4.4762914560915075"><ele>105.0</ele><time>2026-05-01T15:47:55Z</time></trkpt><trkpt lat="43.38902735132598" lon="-4.476217890836193"><ele>105.0</ele><time>2026-05-01T16:51:01Z</time></trkpt><trkpt lat="43.389054079913954" lon="-4.476310396482126"><ele>102.66666666666667</ele><time>2026-05-01T16:51:23Z</time></trkpt><trkpt lat="43.3890099425025" lon="-4.476377588450256"><ele>100.33333333333333</ele><time>2026-05-01T16:51:39Z</time></trkpt><trkpt lat="43.389071586412605" lon="-4.476480374132906"><ele>98.0</ele><time>2026-05-01T16:51:42Z</time></trkpt><trkpt lat="43.389099306267376" lon="-4.476591413779637"><ele>95.66666666666666</ele><time>2026-05-01T16:51:44Z</time></trkpt><trkpt lat="43.38912143791077" lon="-4.4767544090474445"><ele>93.33333333333333</ele><time>2026-05-01T16:51:46Z</time></trkpt><trkpt lat="43.389126144305905" lon="-4.47684547372079"><ele>91.0</ele><time>2026-05-01T16:51:47Z</time></trkpt><trkpt lat="43.38913599128506" lon="-4.4769394411278824"><ele>91.0</ele><time>2026-05-01T16:51:48Z</time></trkpt><trkpt lat="43.38914689097685" lon="-4.477037673403748"><ele>91.0</ele><time>2026-05-01T16:51:49Z</time></trkpt><trkpt lat="43.38915200115855" lon="-4.477136039697593"><ele>91.0</ele><time>2026-05-01T16:51:50Z</time></trkpt><trkpt lat="43.389161350023926" lon="-4.477241166358702"><ele>91.0</ele><time>2026-05-01T16:51:51Z</time></trkpt><trkpt lat="43.389167572036435" lon="-4.477363064039344"><ele>91.0</ele><time>2026-05-01T16:51:52Z</time></trkpt><trkpt lat="43.389179008142264" lon="-4.477479740582622"><ele>91.0</ele><time>2026-05-01T16:51:53Z</time></trkpt><trkpt lat="43.38918366946285" lon="-4.477603161749195"><ele>91.33333333333333</ele><time>2026-05-01T16:51:54Z</time></trkpt><trkpt lat="43.38919899287766" lon="-4.477723624934675"><ele>91.66666666666666</ele><time>2026-05-01T16:51:55Z</time></trkpt><trkpt lat="43.389207164553675" lon="-4.47784752520142"><ele>92.0</ele><time>2026-05-01T16:51:56Z</time></trkpt><trkpt lat="43.38921946872568" lon="-4.477969434385795"><ele>92.33333333333333</ele><time>2026-05-01T16:51:57Z</time></trkpt><trkpt lat="43.389226388192306" lon="-4.478093269934033"><ele>92.66666666666667</ele><time>2026-05-01T16:51:58Z</time></trkpt><trkpt lat="43.389236230635454" lon="-4.478215926501732"><ele>93.0</ele><time>2026-05-01T16:51:59Z</time></trkpt><trkpt lat="43.38924467882137" lon="-4.478333840899261"><ele>93.16666666666667</ele><time>2026-05-01T16:52:00Z</time></trkpt><trkpt lat="43.389258098050895" lon="-4.478443962263848"><ele>93.33333333333333</ele><time>2026-05-01T16:52:01Z</time></trkpt><trkpt lat="43.38925606639464" lon="-4.478562502048127"><ele>93.5</ele><time>2026-05-01T16:52:02Z</time></trkpt><trkpt lat="43.38925645086445" lon="-4.478675077645547"><ele>93.66666666666666</ele><time>2026-05-01T16:52:03Z</time></trkpt><trkpt lat="43.38924989448823" lon="-4.4787825427663615"><ele>93.83333333333333</ele><time>2026-05-01T16:52:04Z</time></trkpt><trkpt lat="43.389235553912314" lon="-4.478883431532757"><ele>94.0</ele><time>2026-05-01T16:52:05Z</time></trkpt><trkpt lat="43.38921385935445" lon="-4.478997726193049"><ele>94.0</ele><time>2026-05-01T16:52:06Z</time></trkpt><trkpt lat="43.38919687017401" lon="-4.47912067670656"><ele>94.0</ele><time>2026-05-01T16:52:07Z</time></trkpt><trkpt lat="43.38918016494118" lon="-4.4792379065506305"><ele>94.0</ele><time>2026-05-01T16:52:08Z</time></trkpt><trkpt lat="43.38916554322444" lon="-4.4793577420377115"><ele>94.0</ele><time>2026-05-01T16:52:09Z</time></trkpt><trkpt lat="43.38914726258212" lon="-4.479473757138556"><ele>94.0</ele><time>2026-05-01T16:52:10Z</time></trkpt><trkpt lat="43.389129426275886" lon="-4.479588250435553"><ele>94.0</ele><time>2026-05-01T16:52:11Z</time></trkpt><trkpt lat="43.38911300555761" lon="-4.47969997304214"><ele>93.33333333333333</ele><time>2026-05-01T16:52:12Z</time></trkpt><trkpt lat="43.38910200595364" lon="-4.479809405295739"><ele>92.66666666666666</ele><time>2026-05-01T16:52:13Z</time></trkpt><trkpt lat="43.38909463541409" lon="-4.479919372697824"><ele>92.0</ele><time>2026-05-01T16:52:14Z</time></trkpt><trkpt lat="43.3890977197885" lon="-4.480031288165612"><ele>91.33333333333333</ele><time>2026-05-01T16:52:15Z</time></trkpt><trkpt lat="43.38910642337073" lon="-4.480145044917599"><ele>90.66666666666667</ele><time>2026-05-01T16:52:16Z</time></trkpt><trkpt lat="43.389121227697444" lon="-4.4802589893480125"><ele>90.0</ele><time>2026-05-01T16:52:17Z</time></trkpt><trkpt lat="43.38914158116153" lon="-4.480374031233339"><ele>90.16666666666667</ele><time>2026-05-01T16:52:18Z</time></trkpt><trkpt lat="43.389158509283575" lon="-4.480493441169951"><ele>90.33333333333333</ele><time>2026-05-01T16:52:19Z</time></trkpt><trkpt lat="43.38917490492073" lon="-4.480609102131811"><ele>90.5</ele><time>2026-05-01T16:52:20Z</time></trkpt><trkpt lat="43.38919034726337" lon="-4.480726529292448"><ele>90.66666666666666</ele><time>2026-05-01T16:52:21Z</time></trkpt><trkpt lat="43.38919634893864" lon="-4.480841696034474"><ele>90.83333333333333</ele><time>2026-05-01T16:52:22Z</time></trkpt><trkpt lat="43.38919847554087" lon="-4.480954680195946"><ele>91.0</ele><time>2026-05-01T16:52:23Z</time></trkpt><trkpt lat="43.38919591491244" lon="-4.4810713968234195"><ele>91.0</ele><time>2026-05-01T16:52:24Z</time></trkpt><trkpt lat="43.38916064065665" lon="-4.4811768785325"><ele>91.0</ele><time>2026-05-01T16:52:25Z</time></trkpt><trkpt lat="43.389109234158745" lon="-4.481271313779292"><ele>91.0</ele><time>2026-05-01T16:52:26Z</time></trkpt><trkpt lat="43.38904464311059" lon="-4.481350842667213"><ele>91.0</ele><time>2026-05-01T16:52:27Z</time></trkpt><trkpt lat="43.38898853560513" lon="-4.481429272465581"><ele>91.0</ele><time>2026-05-01T16:52:28Z</time></trkpt><trkpt lat="43.3889378500782" lon="-4.481515413180809"><ele>91.0</ele><time>2026-05-01T16:52:29Z</time></trkpt><trkpt lat="43.388891646517585" lon="-4.4816149828876854"><ele>89.0</ele><time>2026-05-01T16:52:30Z</time></trkpt><trkpt lat="43.388879442564594" lon="-4.481749393721522"><ele>87.0</ele><time>2026-05-01T16:52:31Z</time></trkpt><trkpt lat="43.388890761977095" lon="-4.481878749758227"><ele>85.0</ele><time>2026-05-01T16:52:32Z</time></trkpt><trkpt lat="43.38892235301982" lon="-4.482007093558409"><ele>83.0</ele><time>2026-05-01T16:52:33Z</time></trkpt><trkpt lat="43.388958929462326" lon="-4.48211793081219"><ele>81.0</ele><time>2026-05-01T16:52:34Z</time></trkpt><trkpt lat="43.38898682394016" lon="-4.482223963176962"><ele>80.83333333333333</ele><time>2026-05-01T16:52:35Z</time></trkpt><trkpt lat="43.38900128922394" lon="-4.48233616273841"><ele>80.66666666666667</ele><time>2026-05-01T16:52:36Z</time></trkpt><trkpt lat="43.38901133744819" lon="-4.482453162941709"><ele>80.5</ele><time>2026-05-01T16:52:37Z</time></trkpt><trkpt lat="43.389019461772676" lon="-4.482575523560411"><ele>80.33333333333334</ele><time>2026-05-01T16:52:38Z</time></trkpt><trkpt lat="43.3890260760878" lon="-4.482702413310206"><ele>80.16666666666667</ele><time>2026-05-01T16:52:39Z</time></trkpt><trkpt lat="43.3890386230633" lon="-4.482827673044401"><ele>80.0</ele><time>2026-05-01T16:52:40Z</time></trkpt><trkpt lat="43.38904726106943" lon="-4.482951562529363"><ele>80.0</ele><time>2026-05-01T16:52:41Z</time></trkpt><trkpt lat="43.38905552291122" lon="-4.483078107725422"><ele>80.0</ele><time>2026-05-01T16:52:42Z</time></trkpt><trkpt lat="43.38906366596658" lon="-4.4832056894893"><ele>80.0</ele><time>2026-05-01T16:52:43Z</time></trkpt><trkpt lat="43.3890700223541" lon="-4.483333627698351"><ele>80.0</ele><time>2026-05-01T16:52:44Z</time></trkpt><trkpt lat="43.38907957859963" lon="-4.483463281494555"><ele>80.0</ele><time>2026-05-01T16:52:45Z</time></trkpt><trkpt lat="43.38908752636118" lon="-4.483592996372749"><ele>80.0</ele><time>2026-05-01T16:52:46Z</time></trkpt><trkpt lat="43.38909540950522" lon="-4.4837266259038735"><ele>80.0</ele><time>2026-05-01T16:52:47Z</time></trkpt><trkpt lat="43.38910966636731" lon="-4.48385661040226"><ele>80.0</ele><time>2026-05-01T16:52:48Z</time></trkpt><trkpt lat="43.389121163375826" lon="-4.483991474606335"><ele>80.0</ele><time>2026-05-01T16:52:49Z</time></trkpt><trkpt lat="43.38913080710118" lon="-4.484127927994916"><ele>80.0</ele><time>2026-05-01T16:52:50Z</time></trkpt><trkpt lat="43.389151021082604" lon="-4.484256706734804"><ele>78.6</ele><time>2026-05-01T16:52:51Z</time></trkpt><trkpt lat="43.389156481415604" lon="-4.484387120488179"><ele>77.2</ele><time>2026-05-01T16:52:52Z</time></trkpt><trkpt lat="43.38916569849783" lon="-4.48451262752142"><ele>75.8</ele><time>2026-05-01T16:52:53Z</time></trkpt><trkpt lat="43.38917208450147" lon="-4.484638815163516"><ele>74.4</ele><time>2026-05-01T16:52:54Z</time></trkpt><trkpt lat="43.38918127916715" lon="-4.484761831603223"><ele>73.0</ele><time>2026-05-01T16:52:55Z</time></trkpt><trkpt lat="43.38918635159362" lon="-4.484882790867338"><ele>72.33333333333333</ele><time>2026-05-01T16:52:56Z</time></trkpt><trkpt lat="43.389191823032235" lon="-4.484996175704879"><ele>71.66666666666666</ele><time>2026-05-01T16:52:57Z</time></trkpt><trkpt lat="43.38920371083555" lon="-4.485107062802145"><ele>71.0</ele><time>2026-05-01T16:52:58Z</time></trkpt><trkpt lat="43.38922586441359" lon="-4.4852189332827095"><ele>70.33333333333333</ele><time>2026-05-01T16:52:59Z</time></trkpt><trkpt lat="43.389266381726635" lon="-4.485328375267292"><ele>69.66666666666667</ele><time>2026-05-01T16:53:00Z</time></trkpt><trkpt lat="43.389339600523094" lon="-4.485418470978649"><ele>69.0</ele><time>2026-05-01T16:53:01Z</time></trkpt><trkpt lat="43.389419009441724" lon="-4.485497213854881"><ele>69.0</ele><time>2026-05-01T16:53:02Z</time></trkpt><trkpt lat="43.38950242916514" lon="-4.485567836789189"><ele>69.0</ele><time>2026-05-01T16:53:03Z</time></trkpt><trkpt lat="43.38957343160383" lon="-4.48565242591581"><ele>69.0</ele><time>2026-05-01T16:53:04Z</time></trkpt><trkpt lat="43.3896394715487" lon="-4.485748761736492"><ele>69.0</ele><time>2026-05-01T16:53:05Z</time></trkpt><trkpt lat="43.38970001315387" lon="-4.48585076948901"><ele>69.0</ele><time>2026-05-01T16:53:06Z</time></trkpt><trkpt lat="43.38975980348938" lon="-4.485949207722042"><ele>66.60000000000001</ele><time>2026-05-01T16:53:07Z</time></trkpt><trkpt lat="43.38981522355533" lon="-4.486054392146031"><ele>64.2</ele><time>2026-05-01T16:53:08Z</time></trkpt><trkpt lat="43.38987584294169" lon="-4.486152747938207"><ele>61.800000000000004</ele><time>2026-05-01T16:53:09Z</time></trkpt><trkpt lat="43.389930150759646" lon="-4.486260831070313"><ele>59.400000000000006</ele><time>2026-05-01T16:53:10Z</time></trkpt><trkpt lat="43.3899771446425" lon="-4.486366880735344"><ele>57.0</ele><time>2026-05-01T16:53:11Z</time></trkpt><trkpt lat="43.3900128132458" lon="-4.486473265415966"><ele>57.0</ele><time>2026-05-01T16:53:12Z</time></trkpt><trkpt lat="43.390032440954535" lon="-4.486588614557805"><ele>56.99999999999999</ele><time>2026-05-01T16:53:13Z</time></trkpt><trkpt lat="43.39004004006934" lon="-4.486695759386585"><ele>57.0</ele><time>2026-05-01T16:53:14Z</time></trkpt><trkpt lat="43.39004997835267" lon="-4.48678704184819"><ele>57.0</ele><time>2026-05-01T16:53:15Z</time></trkpt><trkpt lat="43.39008911762858" lon="-4.48687297459803"><ele>56.99999999999999</ele><time>2026-05-01T16:53:16Z</time></trkpt><trkpt lat="43.390111322075576" lon="-4.486960523777372"><ele>57.0</ele><time>2026-05-01T16:53:17Z</time></trkpt><trkpt lat="43.390172043160675" lon="-4.4870205640536875"><ele>57.0</ele><time>2026-05-01T16:53:18Z</time></trkpt><trkpt lat="43.39022010629848" lon="-4.487104857205665"><ele>57.166666666666664</ele><time>2026-05-01T16:53:19Z</time></trkpt><trkpt lat="43.39028211458013" lon="-4.487175882934821"><ele>57.33333333333333</ele><time>2026-05-01T16:53:20Z</time></trkpt><trkpt lat="43.390338797801725" lon="-4.487254489092301"><ele>57.5</ele><time>2026-05-01T16:53:21Z</time></trkpt><trkpt lat="43.390388426498376" lon="-4.487341918515794"><ele>57.666666666666664</ele><time>2026-05-01T16:53:22Z</time></trkpt><trkpt lat="43.390424443265495" lon="-4.487438425931598"><ele>57.83333333333333</ele><time>2026-05-01T16:53:23Z</time></trkpt><trkpt lat="43.390448319097004" lon="-4.487548309383163"><ele>58.0</ele><time>2026-05-01T16:53:24Z</time></trkpt><trkpt lat="43.39045900008924" lon="-4.487656733362765"><ele>57.99999999999999</ele><time>2026-05-01T16:53:25Z</time></trkpt><trkpt lat="43.390460205996156" lon="-4.487765766444461"><ele>58.0</ele><time>2026-05-01T16:53:26Z</time></trkpt><trkpt lat="43.39044920603388" lon="-4.487877126579859"><ele>58.0</ele><time>2026-05-01T16:53:27Z</time></trkpt><trkpt lat="43.390426284395836" lon="-4.487986312980677"><ele>58.0</ele><time>2026-05-01T16:53:28Z</time></trkpt><trkpt lat="43.39039886911789" lon="-4.488091324600705"><ele>57.99999999999999</ele><time>2026-05-01T16:53:29Z</time></trkpt><trkpt lat="43.39037695850647" lon="-4.488210266818657"><ele>58.0</ele><time>2026-05-01T16:53:30Z</time></trkpt><trkpt lat="43.390358264091525" lon="-4.4883315130130885"><ele>58.166666666666664</ele><time>2026-05-01T16:53:31Z</time></trkpt><trkpt lat="43.390344194915365" lon="-4.488455462414232"><ele>58.33333333333333</ele><time>2026-05-01T16:53:32Z</time></trkpt><trkpt lat="43.39032676039472" lon="-4.488575560966437"><ele>58.5</ele><time>2026-05-01T16:53:33Z</time></trkpt><trkpt lat="43.39030986088712" lon="-4.4886973893198165"><ele>58.66666666666667</ele><time>2026-05-01T16:53:34Z</time></trkpt><trkpt lat="43.39029588661127" lon="-4.488814335933381"><ele>58.833333333333336</ele><time>2026-05-01T16:53:35Z</time></trkpt><trkpt lat="43.39028426611502" lon="-4.4889281988556675"><ele>59.0</ele><time>2026-05-01T16:53:36Z</time></trkpt><trkpt lat="43.39027495878691" lon="-4.489044353702244"><ele>58.6</ele><time>2026-05-01T16:53:37Z</time></trkpt><trkpt lat="43.39026605427278" lon="-4.4891631781891705"><ele>58.2</ele><time>2026-05-01T16:53:38Z</time></trkpt><trkpt lat="43.390252121471555" lon="-4.489286534349807"><ele>57.800000000000004</ele><time>2026-05-01T16:53:39Z</time></trkpt><trkpt lat="43.39023676242112" lon="-4.489413553119379"><ele>57.400000000000006</ele><time>2026-05-01T16:53:40Z</time></trkpt><trkpt lat="43.39024441052986" lon="-4.489542680649043"><ele>57.0</ele><time>2026-05-01T16:53:41Z</time></trkpt><trkpt lat="43.390242089936805" lon="-4.4896674742370095"><ele>57.666666666666664</ele><time>2026-05-01T16:53:42Z</time></trkpt><trkpt lat="43.390245484010855" lon="-4.48978795122867"><ele>58.33333333333333</ele><time>2026-05-01T16:53:43Z</time></trkpt><trkpt lat="43.390250083919184" lon="-4.489912737544896"><ele>59.0</ele><time>2026-05-01T16:53:44Z</time></trkpt><trkpt lat="43.390232416092815" lon="-4.490027345937371"><ele>59.666666666666664</ele><time>2026-05-01T16:53:45Z</time></trkpt><trkpt lat="43.39023637036792" lon="-4.490155506370624"><ele>60.33333333333333</ele><time>2026-05-01T16:53:46Z</time></trkpt><trkpt lat="43.3902296395053" lon="-4.490263303837212"><ele>61.0</ele><time>2026-05-01T16:53:47Z</time></trkpt><trkpt lat="43.39020775326892" lon="-4.490365119413795"><ele>61.71428571428571</ele><time>2026-05-01T16:53:48Z</time></trkpt><trkpt lat="43.390206781217756" lon="-4.490464307875499"><ele>62.42857142857143</ele><time>2026-05-01T16:53:49Z</time></trkpt><trkpt lat="43.39020413426358" lon="-4.490559330434665"><ele>63.14285714285714</ele><time>2026-05-01T16:53:50Z</time></trkpt><trkpt lat="43.390203073690564" lon="-4.490657678083028"><ele>63.857142857142854</ele><time>2026-05-01T16:53:51Z</time></trkpt><trkpt lat="43.390211945322605" lon="-4.490758501787595"><ele>64.57142857142857</ele><time>2026-05-01T16:53:52Z</time></trkpt><trkpt lat="43.390223886921184" lon="-4.49086236689525"><ele>65.28571428571428</ele><time>2026-05-01T16:53:53Z</time></trkpt><trkpt lat="43.39023582135425" lon="-4.490971831278239"><ele>66.0</ele><time>2026-05-01T16:53:54Z</time></trkpt><trkpt lat="43.39024325797633" lon="-4.4910808455563815"><ele>66.0</ele><time>2026-05-01T16:53:55Z</time></trkpt><trkpt lat="43.39024852742706" lon="-4.491193317405834"><ele>66.0</ele><time>2026-05-01T16:53:56Z</time></trkpt><trkpt lat="43.39025404522083" lon="-4.491308145825052"><ele>66.0</ele><time>2026-05-01T16:53:57Z</time></trkpt><trkpt lat="43.39025276849387" lon="-4.491420356271486"><ele>66.0</ele><time>2026-05-01T16:53:58Z</time></trkpt><trkpt lat="43.39025525555035" lon="-4.491531455083419"><ele>66.0</ele><time>2026-05-01T16:53:59Z</time></trkpt><trkpt lat="43.39026007339856" lon="-4.491640428393095"><ele>66.0</ele><time>2026-05-01T16:54:00Z</time></trkpt><trkpt lat="43.3902637453916" lon="-4.4917467499804"><ele>67.33333333333333</ele><time>2026-05-01T16:54:01Z</time></trkpt><trkpt lat="43.39027057098817" lon="-4.491852439685944"><ele>68.66666666666667</ele><time>2026-05-01T16:54:02Z</time></trkpt><trkpt lat="43.390273246137674" lon="-4.491960045195961"><ele>70.0</ele><time>2026-05-01T16:54:03Z</time></trkpt><trkpt lat="43.39027574401876" lon="-4.492069038073542"><ele>71.33333333333334</ele><time>2026-05-01T16:54:04Z</time></trkpt><trkpt lat="43.39028238222267" lon="-4.492181809966204"><ele>72.66666666666667</ele><time>2026-05-01T16:54:05Z</time></trkpt><trkpt lat="43.390287996880275" lon="-4.492296347376517"><ele>74.0</ele><time>2026-05-01T16:54:06Z</time></trkpt><trkpt lat="43.3902935508798" lon="-4.492413871543915"><ele>74.0</ele><time>2026-05-01T16:54:07Z</time></trkpt><trkpt lat="43.39030046264345" lon="-4.492530742672084"><ele>74.0</ele><time>2026-05-01T16:54:08Z</time></trkpt><trkpt lat="43.39030871840812" lon="-4.492649640518177"><ele>74.0</ele><time>2026-05-01T16:54:09Z</time></trkpt><trkpt lat="43.39031550907926" lon="-4.492771721809029"><ele>74.0</ele><time>2026-05-01T16:54:10Z</time></trkpt><trkpt lat="43.39032088347189" lon="-4.492892774825203"><ele>74.0</ele><time>2026-05-01T16:54:11Z</time></trkpt><trkpt lat="43.39032305386951" lon="-4.49301818202602"><ele>74.0</ele><time>2026-05-01T16:54:12Z</time></trkpt><trkpt lat="43.39032367708581" lon="-4.49314161505601"><ele>73.5</ele><time>2026-05-01T16:54:13Z</time></trkpt><trkpt lat="43.39032714217337" lon="-4.493266645298338"><ele>73.0</ele><time>2026-05-01T16:54:14Z</time></trkpt><trkpt lat="43.39033161953874" lon="-4.493391967176273"><ele>72.5</ele><time>2026-05-01T16:54:15Z</time></trkpt><trkpt lat="43.39034012398283" lon="-4.493514563601264"><ele>72.0</ele><time>2026-05-01T16:54:16Z</time></trkpt><trkpt lat="43.39035065882836" lon="-4.49363252827889"><ele>71.5</ele><time>2026-05-01T16:54:17Z</time></trkpt><trkpt lat="43.39035675998797" lon="-4.493750667614009"><ele>71.0</ele><time>2026-05-01T16:54:18Z</time></trkpt><trkpt lat="43.390364381499815" lon="-4.493874752215662"><ele>71.0</ele><time>2026-05-01T16:54:19Z</time></trkpt><trkpt lat="43.390370420037826" lon="-4.4940033723880575"><ele>71.0</ele><time>2026-05-01T16:54:20Z</time></trkpt><trkpt lat="43.390376468566075" lon="-4.494137155782576"><ele>71.0</ele><time>2026-05-01T16:54:21Z</time></trkpt><trkpt lat="43.39038278059047" lon="-4.494271343229974"><ele>71.0</ele><time>2026-05-01T16:54:22Z</time></trkpt><trkpt lat="43.39038826079859" lon="-4.494407288335496"><ele>71.0</ele><time>2026-05-01T16:54:23Z</time></trkpt><trkpt lat="43.39039144617039" lon="-4.494540162739207"><ele>71.0</ele><time>2026-05-01T16:54:24Z</time></trkpt><trkpt lat="43.390395721351446" lon="-4.49467413951234"><ele>71.0</ele><time>2026-05-01T16:54:25Z</time></trkpt><trkpt lat="43.3904009253449" lon="-4.4948103724689"><ele>71.0</ele><time>2026-05-01T16:54:26Z</time></trkpt><trkpt lat="43.39040816075861" lon="-4.4949475105423735"><ele>71.0</ele><time>2026-05-01T16:54:27Z</time></trkpt><trkpt lat="43.39041933807728" lon="-4.495086521918172"><ele>71.0</ele><time>2026-05-01T16:54:28Z</time></trkpt><trkpt lat="43.39042653993096" lon="-4.4952239935240295"><ele>71.0</ele><time>2026-05-01T16:54:29Z</time></trkpt><trkpt lat="43.390433436798084" lon="-4.495361447117559"><ele>71.0</ele><time>2026-05-01T16:54:30Z</time></trkpt><trkpt lat="43.39043993924086" lon="-4.495499773537532"><ele>71.0</ele><time>2026-05-01T16:54:31Z</time></trkpt><trkpt lat="43.390447819436666" lon="-4.4956382721028785"><ele>71.0</ele><time>2026-05-01T16:54:32Z</time></trkpt><trkpt lat="43.39045426633366" lon="-4.495777170047355"><ele>71.0</ele><time>2026-05-01T16:54:33Z</time></trkpt><trkpt lat="43.390459767764696" lon="-4.495917438485062"><ele>71.2</ele><time>2026-05-01T16:54:34Z</time></trkpt><trkpt lat="43.39046524777211" lon="-4.496057249828526"><ele>71.39999999999999</ele><time>2026-05-01T16:54:35Z</time></trkpt><trkpt lat="43.390473788795894" lon="-4.496197803254602"><ele>71.6</ele><time>2026-05-01T16:54:36Z</time></trkpt><trkpt lat="43.39048621581656" lon="-4.496338542226098"><ele>71.8</ele><time>2026-05-01T16:54:37Z</time></trkpt><trkpt lat="43.39049579459794" lon="-4.496476339380471"><ele>72.0</ele><time>2026-05-01T16:54:38Z</time></trkpt><trkpt lat="43.390501449457396" lon="-4.496616581437981"><ele>70.4</ele><time>2026-05-01T16:54:39Z</time></trkpt><trkpt lat="43.39050931460674" lon="-4.496754248625399"><ele>68.80000000000001</ele><time>2026-05-01T16:54:40Z</time></trkpt><trkpt lat="43.390518326974714" lon="-4.496891130450746"><ele>67.2</ele><time>2026-05-01T16:54:41Z</time></trkpt><trkpt lat="43.39052768465239" lon="-4.497027310508735"><ele>65.60000000000001</ele><time>2026-05-01T16:54:42Z</time></trkpt><trkpt lat="43.390539006104135" lon="-4.497162734201037"><ele>64.0</ele><time>2026-05-01T16:54:43Z</time></trkpt><trkpt lat="43.39054862896237" lon="-4.497299623718596"><ele>64.0</ele><time>2026-05-01T16:54:44Z</time></trkpt><trkpt lat="43.390554979983435" lon="-4.497439631441058"><ele>64.0</ele><time>2026-05-01T16:54:45Z</time></trkpt><trkpt lat="43.39055660990324" lon="-4.497579892556481"><ele>64.0</ele><time>2026-05-01T16:54:46Z</time></trkpt><trkpt lat="43.39055324055427" lon="-4.4977191890267765"><ele>64.0</ele><time>2026-05-01T16:54:47Z</time></trkpt><trkpt lat="43.39054991811441" lon="-4.497859526750313"><ele>64.0</ele><time>2026-05-01T16:54:48Z</time></trkpt><trkpt lat="43.390562564873576" lon="-4.4979991926142215"><ele>64.60000000000001</ele><time>2026-05-01T16:54:49Z</time></trkpt><trkpt lat="43.39055897726511" lon="-4.49814267819662"><ele>65.2</ele><time>2026-05-01T16:54:50Z</time></trkpt><trkpt lat="43.39052561981703" lon="-4.498298191580828"><ele>65.80000000000001</ele><time>2026-05-01T16:54:51Z</time></trkpt><trkpt lat="43.39045315069234" lon="-4.498424290063874"><ele>66.4</ele><time>2026-05-01T16:54:52Z</time></trkpt><trkpt lat="43.39036440552895" lon="-4.498511119119567"><ele>67.0</ele><time>2026-05-01T16:54:53Z</time></trkpt><trkpt lat="43.39028068293173" lon="-4.498584188689484"><ele>68.4</ele><time>2026-05-01T16:54:54Z</time></trkpt><trkpt lat="43.39021014560192" lon="-4.4986800760050025"><ele>69.80000000000001</ele><time>2026-05-01T16:54:55Z</time></trkpt><trkpt lat="43.39014101090252" lon="-4.498781892410396"><ele>71.2</ele><time>2026-05-01T16:54:56Z</time></trkpt><trkpt lat="43.390075824061114" lon="-4.498886853522279"><ele>72.60000000000001</ele><time>2026-05-01T16:54:57Z</time></trkpt><trkpt lat="43.39002101525576" lon="-4.498998654987111"><ele>74.0</ele><time>2026-05-01T16:54:58Z</time></trkpt><trkpt lat="43.389979848861024" lon="-4.4991172345755155"><ele>74.2</ele><time>2026-05-01T16:54:59Z</time></trkpt><trkpt lat="43.38995234966309" lon="-4.499240953695352"><ele>74.4</ele><time>2026-05-01T16:55:00Z</time></trkpt><trkpt lat="43.389931395377594" lon="-4.499364526988556"><ele>74.6</ele><time>2026-05-01T16:55:01Z</time></trkpt><trkpt lat="43.38992690286297" lon="-4.499495519195185"><ele>74.8</ele><time>2026-05-01T16:55:02Z</time></trkpt><trkpt lat="43.38995010968426" lon="-4.499617349083657"><ele>75.0</ele><time>2026-05-01T16:55:03Z</time></trkpt><trkpt lat="43.38996972264621" lon="-4.4997422218132"><ele>75.4</ele><time>2026-05-01T16:55:04Z</time></trkpt><trkpt lat="43.389984640365554" lon="-4.49986745439696"><ele>75.8</ele><time>2026-05-01T16:55:05Z</time></trkpt><trkpt lat="43.3899925373056" lon="-4.499997700022298"><ele>76.2</ele><time>2026-05-01T16:55:06Z</time></trkpt><trkpt lat="43.38997745302326" lon="-4.500129821745131"><ele>76.6</ele><time>2026-05-01T16:55:07Z</time></trkpt><trkpt lat="43.389946764761724" lon="-4.5002535580020835"><ele>77.0</ele><time>2026-05-01T16:55:08Z</time></trkpt><trkpt lat="43.38990987049356" lon="-4.500373289991795"><ele>77.5</ele><time>2026-05-01T16:55:09Z</time></trkpt><trkpt lat="43.38987058115335" lon="-4.5004892717588865"><ele>78.0</ele><time>2026-05-01T16:55:10Z</time></trkpt><trkpt lat="43.38983077992628" lon="-4.500600949562153"><ele>78.5</ele><time>2026-05-01T16:55:11Z</time></trkpt><trkpt lat="43.38979840014306" lon="-4.5007083673404855"><ele>79.0</ele><time>2026-05-01T16:55:12Z</time></trkpt><trkpt lat="43.38976528860364" lon="-4.500816459876536"><ele>79.5</ele><time>2026-05-01T16:55:13Z</time></trkpt><trkpt lat="43.38979650450986" lon="-4.500936382412258"><ele>80.0</ele><time>2026-05-01T16:55:14Z</time></trkpt><trkpt lat="43.389801070416084" lon="-4.5010621492045635"><ele>80.0</ele><time>2026-05-01T16:55:15Z</time></trkpt><trkpt lat="43.38983948012583" lon="-4.501183935754166"><ele>80.0</ele><time>2026-05-01T16:55:16Z</time></trkpt><trkpt lat="43.389880985285714" lon="-4.501309282887518"><ele>80.0</ele><time>2026-05-01T16:55:17Z</time></trkpt><trkpt lat="43.38990661528468" lon="-4.501440746023187"><ele>80.0</ele><time>2026-05-01T16:55:18Z</time></trkpt><trkpt lat="43.38993453735499" lon="-4.501568635390896"><ele>80.0</ele><time>2026-05-01T16:55:19Z</time></trkpt><trkpt lat="43.38996723959856" lon="-4.501707136238687"><ele>79.4</ele><time>2026-05-01T16:55:20Z</time></trkpt><trkpt lat="43.38999845842685" lon="-4.501840409120561"><ele>78.8</ele><time>2026-05-01T16:55:21Z</time></trkpt><trkpt lat="43.39002984464553" lon="-4.501965199153366"><ele>78.2</ele><time>2026-05-01T16:55:22Z</time></trkpt><trkpt lat="43.39006253797788" lon="-4.502087566120444"><ele>77.6</ele><time>2026-05-01T16:55:23Z</time></trkpt><trkpt lat="43.390086077928345" lon="-4.502220634238285"><ele>77.0</ele><time>2026-05-01T16:55:24Z</time></trkpt><trkpt lat="43.3900950813231" lon="-4.502358695952428"><ele>76.8</ele><time>2026-05-01T16:55:25Z</time></trkpt><trkpt lat="43.390090534919" lon="-4.502503722564522"><ele>76.6</ele><time>2026-05-01T16:55:26Z</time></trkpt><trkpt lat="43.39008008008936" lon="-4.5026480578177885"><ele>76.39999999999999</ele><time>2026-05-01T16:55:27Z</time></trkpt><trkpt lat="43.39006472052273" lon="-4.502788845701091"><ele>76.2</ele><time>2026-05-01T16:55:28Z</time></trkpt><trkpt lat="43.39005588251401" lon="-4.502926629833042"><ele>76.0</ele><time>2026-05-01T16:55:29Z</time></trkpt><trkpt lat="43.39004476734453" lon="-4.503050752106131"><ele>75.39999999999999</ele><time>2026-05-01T16:55:30Z</time></trkpt><trkpt lat="43.3900435060648" lon="-4.50318773805422"><ele>74.8</ele><time>2026-05-01T16:55:31Z</time></trkpt><trkpt lat="43.39005053711702" lon="-4.503321888242517"><ele>74.19999999999999</ele><time>2026-05-01T16:55:32Z</time></trkpt><trkpt lat="43.390076109109344" lon="-4.503454279055205"><ele>73.6</ele><time>2026-05-01T16:55:33Z</time></trkpt><trkpt lat="43.39010699890331" lon="-4.50357937168825"><ele>73.0</ele><time>2026-05-01T16:55:34Z</time></trkpt><trkpt lat="43.390136531347835" lon="-4.503709309686446"><ele>72.0</ele><time>2026-05-01T16:55:35Z</time></trkpt><trkpt lat="43.39016106515116" lon="-4.503846777508083"><ele>71.0</ele><time>2026-05-01T16:55:36Z</time></trkpt><trkpt lat="43.390193476603876" lon="-4.50398059403742"><ele>70.0</ele><time>2026-05-01T16:55:37Z</time></trkpt><trkpt lat="43.39022853362632" lon="-4.504110674433671"><ele>69.0</ele><time>2026-05-01T16:55:38Z</time></trkpt><trkpt lat="43.39025695811136" lon="-4.5042410233211685"><ele>68.0</ele><time>2026-05-01T16:55:39Z</time></trkpt><trkpt lat="43.39027127882742" lon="-4.504379201029652"><ele>68.0</ele><time>2026-05-01T16:55:40Z</time></trkpt><trkpt lat="43.39026204110145" lon="-4.504522364922757"><ele>68.0</ele><time>2026-05-01T16:55:41Z</time></trkpt><trkpt lat="43.39024376340684" lon="-4.504661223611939"><ele>68.0</ele><time>2026-05-01T16:55:42Z</time></trkpt><trkpt lat="43.390209795739445" lon="-4.504791005070613"><ele>68.0</ele><time>2026-05-01T16:55:43Z</time></trkpt><trkpt lat="43.39016543452119" lon="-4.504915027387735"><ele>68.0</ele><time>2026-05-01T16:55:44Z</time></trkpt><trkpt lat="43.39011641245119" lon="-4.505036968756593"><ele>67.8</ele><time>2026-05-01T16:55:45Z</time></trkpt><trkpt lat="43.390080144075405" lon="-4.505166380356216"><ele>67.6</ele><time>2026-05-01T16:55:46Z</time></trkpt><trkpt lat="43.39006476473634" lon="-4.505298012925738"><ele>67.4</ele><time>2026-05-01T16:55:47Z</time></trkpt><trkpt lat="43.39008155042847" lon="-4.505441318389003"><ele>67.2</ele><time>2026-05-01T16:55:48Z</time></trkpt><trkpt lat="43.39009786562798" lon="-4.505577402338685"><ele>67.0</ele><time>2026-05-01T16:55:49Z</time></trkpt><trkpt lat="43.39012596787708" lon="-4.5057121655335095"><ele>67.0</ele><time>2026-05-01T16:55:50Z</time></trkpt><trkpt lat="43.39016163912122" lon="-4.505843034785517"><ele>67.0</ele><time>2026-05-01T16:55:51Z</time></trkpt><trkpt lat="43.3902009542931" lon="-4.50597119393329"><ele>67.0</ele><time>2026-05-01T16:55:52Z</time></trkpt><trkpt lat="43.39023731521225" lon="-4.506100962968782"><ele>67.0</ele><time>2026-05-01T16:55:53Z</time></trkpt><trkpt lat="43.39026255430012" lon="-4.506238235721392"><ele>67.0</ele><time>2026-05-01T16:55:54Z</time></trkpt><trkpt lat="43.390281113425615" lon="-4.506374372354223"><ele>67.6</ele><time>2026-05-01T16:55:55Z</time></trkpt><trkpt lat="43.39029633007059" lon="-4.506516761921432"><ele>68.2</ele><time>2026-05-01T16:55:56Z</time></trkpt><trkpt lat="43.390314307987914" lon="-4.506658632082792"><ele>68.8</ele><time>2026-05-01T16:55:57Z</time></trkpt><trkpt lat="43.390335352659825" lon="-4.506803747715091"><ele>69.4</ele><time>2026-05-01T16:55:58Z</time></trkpt><trkpt lat="43.39035547986524" lon="-4.506942918835234"><ele>70.0</ele><time>2026-05-01T16:55:59Z</time></trkpt><trkpt lat="43.39037334317852" lon="-4.507080226669756"><ele>70.2</ele><time>2026-05-01T16:56:00Z</time></trkpt><trkpt lat="43.39038269878123" lon="-4.507216323371795"><ele>70.4</ele><time>2026-05-01T16:56:01Z</time></trkpt><trkpt lat="43.390388614566895" lon="-4.5073579349085975"><ele>70.6</ele><time>2026-05-01T16:56:02Z</time></trkpt><trkpt lat="43.390391271432335" lon="-4.5074990851392265"><ele>70.8</ele><time>2026-05-01T16:56:03Z</time></trkpt><trkpt lat="43.390391248471914" lon="-4.507644125690617"><ele>71.0</ele><time>2026-05-01T16:56:04Z</time></trkpt><trkpt lat="43.3904061854755" lon="-4.507816931669188"><ele>71.39999999999999</ele><time>2026-05-01T16:56:05Z</time></trkpt><trkpt lat="43.390433365755364" lon="-4.507994166295043"><ele>71.8</ele><time>2026-05-01T16:56:06Z</time></trkpt><trkpt lat="43.39047239533412" lon="-4.5081394067055465"><ele>72.19999999999999</ele><time>2026-05-01T16:56:07Z</time></trkpt><trkpt lat="43.39048544133645" lon="-4.508261623809834"><ele>72.6</ele><time>2026-05-01T16:56:08Z</time></trkpt><trkpt lat="43.39050358773713" lon="-4.508378809027744"><ele>73.0</ele><time>2026-05-01T16:56:09Z</time></trkpt><trkpt lat="43.390520716558854" lon="-4.508489425049426"><ele>68.4</ele><time>2026-05-01T16:56:10Z</time></trkpt><trkpt lat="43.39053594801946" lon="-4.508584308265754"><ele>63.8</ele><time>2026-05-01T16:56:11Z</time></trkpt><trkpt lat="43.390563261120874" lon="-4.508774996344567"><ele>59.2</ele><time>2026-05-01T16:56:12Z</time></trkpt><trkpt lat="43.390617592238826" lon="-4.508918045770907"><ele>54.6</ele><time>2026-05-01T16:56:13Z</time></trkpt><trkpt lat="43.39067028539516" lon="-4.509018837562254"><ele>50.0</ele><time>2026-05-01T16:56:14Z</time></trkpt><trkpt lat="43.39067535968657" lon="-4.509165354197298"><ele>50.0</ele><time>2026-05-01T16:56:15Z</time></trkpt><trkpt lat="43.39073969052881" lon="-4.5092617928673"><ele>50.0</ele><time>2026-05-01T16:56:16Z</time></trkpt><trkpt lat="43.39079672983058" lon="-4.509362574240646"><ele>50.0</ele><time>2026-05-01T16:56:17Z</time></trkpt><trkpt lat="43.390848544613505" lon="-4.509481098795967"><ele>50.0</ele><time>2026-05-01T16:56:18Z</time></trkpt><trkpt lat="43.39089414894931" lon="-4.509605897043888"><ele>50.0</ele><time>2026-05-01T16:56:19Z</time></trkpt><trkpt lat="43.39090819470238" lon="-4.509742839812212"><ele>50.6</ele><time>2026-05-01T16:56:20Z</time></trkpt><trkpt lat="43.390904087299404" lon="-4.50988437197108"><ele>51.2</ele><time>2026-05-01T16:56:21Z</time></trkpt><trkpt lat="43.390884839337176" lon="-4.51002076194864"><ele>51.8</ele><time>2026-05-01T16:56:22Z</time></trkpt><trkpt lat="43.39086408857843" lon="-4.510150502188679"><ele>52.4</ele><time>2026-05-01T16:56:23Z</time></trkpt><trkpt lat="43.39083356701552" lon="-4.510270238323426"><ele>53.0</ele><time>2026-05-01T16:56:24Z</time></trkpt><trkpt lat="43.39078838608211" lon="-4.510370113441814"><ele>52.00000000000001</ele><time>2026-05-01T16:56:25Z</time></trkpt><trkpt lat="43.39073249552095" lon="-4.5104584474694"><ele>51.0</ele><time>2026-05-01T16:56:26Z</time></trkpt><trkpt lat="43.39065359230849" lon="-4.510505390804413"><ele>50.0</ele><time>2026-05-01T16:56:27Z</time></trkpt><trkpt lat="43.39056031274056" lon="-4.510491853041197"><ele>49.0</ele><time>2026-05-01T16:56:28Z</time></trkpt><trkpt lat="43.39048143860663" lon="-4.510436203280916"><ele>48.0</ele><time>2026-05-01T16:56:29Z</time></trkpt><trkpt lat="43.390405504784006" lon="-4.51036996606816"><ele>47.0</ele><time>2026-05-01T16:56:30Z</time></trkpt><trkpt lat="43.39032078759249" lon="-4.510324790789887"><ele>47.0</ele><time>2026-05-01T16:56:31Z</time></trkpt><trkpt lat="43.39023272815509" lon="-4.510328436688504"><ele>47.0</ele><time>2026-05-01T16:56:32Z</time></trkpt><trkpt lat="43.39014593297614" lon="-4.510375643802413"><ele>47.0</ele><time>2026-05-01T16:56:33Z</time></trkpt><trkpt lat="43.3900724221404" lon="-4.510464924807368"><ele>47.0</ele><time>2026-05-01T16:56:34Z</time></trkpt><trkpt lat="43.39003697241048" lon="-4.510590983477964"><ele>47.0</ele><time>2026-05-01T16:56:35Z</time></trkpt><trkpt lat="43.38997361235537" lon="-4.510705127153429"><ele>47.0</ele><time>2026-05-01T16:56:36Z</time></trkpt><trkpt lat="43.389913976358876" lon="-4.510820343349445"><ele>47.0</ele><time>2026-05-01T16:56:37Z</time></trkpt><trkpt lat="43.38983836513026" lon="-4.510901159412258"><ele>47.0</ele><time>2026-05-01T16:56:38Z</time></trkpt><trkpt lat="43.38975423552197" lon="-4.510965669251802"><ele>47.0</ele><time>2026-05-01T16:56:39Z</time></trkpt><trkpt lat="43.389646383393284" lon="-4.510965169278664"><ele>47.0</ele><time>2026-05-01T16:56:40Z</time></trkpt><trkpt lat="43.38957558093859" lon="-4.511085420685311"><ele>50.8</ele><time>2026-05-01T16:56:41Z</time></trkpt><trkpt lat="43.38949795922388" lon="-4.511141769428974"><ele>54.6</ele><time>2026-05-01T16:56:42Z</time></trkpt><trkpt lat="43.38939386976104" lon="-4.511177265515753"><ele>58.39999999999999</ele><time>2026-05-01T16:56:43Z</time></trkpt><trkpt lat="43.389297070981655" lon="-4.511214422234071"><ele>62.199999999999996</ele><time>2026-05-01T16:56:44Z</time></trkpt><trkpt lat="43.38920431118365" lon="-4.511267736289136"><ele>66.0</ele><time>2026-05-01T16:56:45Z</time></trkpt><trkpt lat="43.389109129970066" lon="-4.511312336677723"><ele>58.0</ele><time>2026-05-01T16:56:46Z</time></trkpt><trkpt lat="43.389016875296726" lon="-4.51134224918703"><ele>49.99999999999999</ele><time>2026-05-01T16:56:47Z</time></trkpt><trkpt lat="43.388925561197794" lon="-4.511380659086906"><ele>42.0</ele><time>2026-05-01T16:56:48Z</time></trkpt><trkpt lat="43.38882758697451" lon="-4.511404535063176"><ele>34.0</ele><time>2026-05-01T16:56:49Z</time></trkpt><trkpt lat="43.388722771300564" lon="-4.511400576311018"><ele>26.0</ele><time>2026-05-01T16:56:50Z</time></trkpt><trkpt lat="43.38862821506331" lon="-4.511413331330948"><ele>26.0</ele><time>2026-05-01T16:56:51Z</time></trkpt><trkpt lat="43.38853150128978" lon="-4.511401628072191"><ele>26.0</ele><time>2026-05-01T16:56:52Z</time></trkpt><trkpt lat="43.388435881332605" lon="-4.511399582110594"><ele>26.0</ele><time>2026-05-01T16:56:53Z</time></trkpt><trkpt lat="43.38834278376152" lon="-4.511392307356152"><ele>26.0</ele><time>2026-05-01T16:56:54Z</time></trkpt><trkpt lat="43.38824813529556" lon="-4.5113791433338"><ele>26.0</ele><time>2026-05-01T16:56:55Z</time></trkpt><trkpt lat="43.38815632982969" lon="-4.511338568276974"><ele>26.0</ele><time>2026-05-01T16:56:56Z</time></trkpt><trkpt lat="43.388063692227746" lon="-4.511282393856535"><ele>26.0</ele><time>2026-05-01T16:56:57Z</time></trkpt><trkpt lat="43.38797321810873" lon="-4.511209025775391"><ele>26.0</ele><time>2026-05-01T16:56:58Z</time></trkpt><trkpt lat="43.38788068902565" lon="-4.511135133084669"><ele>26.0</ele><time>2026-05-01T16:56:59Z</time></trkpt><trkpt lat="43.387787830466834" lon="-4.511072069620644"><ele>26.0</ele><time>2026-05-01T16:57:00Z</time></trkpt><trkpt lat="43.387691592066204" lon="-4.5110176026310675"><ele>27.8</ele><time>2026-05-01T16:57:01Z</time></trkpt><trkpt lat="43.38759819426627" lon="-4.510967040028435"><ele>29.6</ele><time>2026-05-01T16:57:02Z</time></trkpt><trkpt lat="43.38750393031368" lon="-4.510917861687267"><ele>31.4</ele><time>2026-05-01T16:57:03Z</time></trkpt><trkpt lat="43.387406375006826" lon="-4.510879168687685"><ele>33.2</ele><time>2026-05-01T16:57:04Z</time></trkpt><trkpt lat="43.38731108124779" lon="-4.51082618502914"><ele>35.0</ele><time>2026-05-01T16:57:05Z</time></trkpt><trkpt lat="43.387215655806514" lon="-4.5107837347187605"><ele>30.0</ele><time>2026-05-01T16:57:06Z</time></trkpt><trkpt lat="43.38712659051285" lon="-4.510706468711858"><ele>25.0</ele><time>2026-05-01T16:57:07Z</time></trkpt><trkpt lat="43.38705107122834" lon="-4.510616004363798"><ele>20.0</ele><time>2026-05-01T16:57:08Z</time></trkpt><trkpt lat="43.386969001730556" lon="-4.5105257976612565"><ele>15.0</ele><time>2026-05-01T16:57:09Z</time></trkpt><trkpt lat="43.3868739744176" lon="-4.510478010815973"><ele>10.0</ele><time>2026-05-01T16:57:10Z</time></trkpt><trkpt lat="43.38676915762174" lon="-4.510469230172728"><ele>10.0</ele><time>2026-05-01T16:57:11Z</time></trkpt><trkpt lat="43.38666761033067" lon="-4.510450337445197"><ele>10.0</ele><time>2026-05-01T16:57:12Z</time></trkpt><trkpt lat="43.38656692068475" lon="-4.510417445459477"><ele>10.0</ele><time>2026-05-01T16:57:13Z</time></trkpt><trkpt lat="43.386467444269975" lon="-4.510381250309654"><ele>10.0</ele><time>2026-05-01T16:57:14Z</time></trkpt><trkpt lat="43.386364965692074" lon="-4.510345608244935"><ele>10.0</ele><time>2026-05-01T16:57:15Z</time></trkpt><trkpt lat="43.386267125017234" lon="-4.510301672909558"><ele>15.2</ele><time>2026-05-01T16:57:16Z</time></trkpt><trkpt lat="43.38617072477357" lon="-4.510253646656191"><ele>20.4</ele><time>2026-05-01T16:57:17Z</time></trkpt><trkpt lat="43.3860874873646" lon="-4.5101797729798045"><ele>25.6</ele><time>2026-05-01T16:57:18Z</time></trkpt><trkpt lat="43.38601861956356" lon="-4.510086656517083"><ele>30.8</ele><time>2026-05-01T16:57:19Z</time></trkpt><trkpt lat="43.38596245309971" lon="-4.509978050720126"><ele>36.0</ele><time>2026-05-01T16:57:20Z</time></trkpt><trkpt lat="43.38589305005675" lon="-4.509897382445942"><ele>36.0</ele><time>2026-05-01T16:57:21Z</time></trkpt><trkpt lat="43.38580131847734" lon="-4.50989553616342"><ele>36.0</ele><time>2026-05-01T16:57:22Z</time></trkpt><trkpt lat="43.38572059511665" lon="-4.509968506840925"><ele>36.0</ele><time>2026-05-01T16:57:23Z</time></trkpt><trkpt lat="43.38568374642966" lon="-4.510102746463093"><ele>36.0</ele><time>2026-05-01T16:57:24Z</time></trkpt><trkpt lat="43.38560757498279" lon="-4.5101804519781306"><ele>36.0</ele><time>2026-05-01T16:57:25Z</time></trkpt><trkpt lat="43.38551729320185" lon="-4.510208379591982"><ele>33.2</ele><time>2026-05-01T16:57:26Z</time></trkpt><trkpt lat="43.3854189380008" lon="-4.510167479160634"><ele>30.400000000000002</ele><time>2026-05-01T16:57:27Z</time></trkpt><trkpt lat="43.385310763701135" lon="-4.510100675216154"><ele>27.6</ele><time>2026-05-01T16:57:28Z</time></trkpt><trkpt lat="43.3852142686608" lon="-4.510039902770126"><ele>24.8</ele><time>2026-05-01T16:57:29Z</time></trkpt><trkpt lat="43.38512071477145" lon="-4.510008760679164"><ele>22.0</ele><time>2026-05-01T16:57:30Z</time></trkpt><trkpt lat="43.38501673860324" lon="-4.509987881012138"><ele>22.0</ele><time>2026-05-01T16:57:31Z</time></trkpt><trkpt lat="43.38491259237544" lon="-4.509976586723126"><ele>22.0</ele><time>2026-05-01T16:57:32Z</time></trkpt><trkpt lat="43.38480815250942" lon="-4.5099701038485716"><ele>22.0</ele><time>2026-05-01T16:57:33Z</time></trkpt><trkpt lat="43.38470935494852" lon="-4.50998489270249"><ele>22.0</ele><time>2026-05-01T16:57:34Z</time></trkpt><trkpt lat="43.384605013180234" lon="-4.510009513713955"><ele>22.0</ele><time>2026-05-01T16:57:35Z</time></trkpt><trkpt lat="43.38450684355784" lon="-4.51002960893073"><ele>21.8</ele><time>2026-05-01T16:57:36Z</time></trkpt><trkpt lat="43.38440246232156" lon="-4.5100584767169245"><ele>21.6</ele><time>2026-05-01T16:57:37Z</time></trkpt><trkpt lat="43.384306536295796" lon="-4.510096576330663"><ele>21.400000000000002</ele><time>2026-05-01T16:57:38Z</time></trkpt><trkpt lat="43.384201290446455" lon="-4.5101176844923625"><ele>21.200000000000003</ele><time>2026-05-01T16:57:39Z</time></trkpt><trkpt lat="43.3841061522676" lon="-4.510096780589029"><ele>21.0</ele><time>2026-05-01T16:57:40Z</time></trkpt><trkpt lat="43.383988583073624" lon="-4.510085978040997"><ele>21.0</ele><time>2026-05-01T16:57:41Z</time></trkpt><trkpt lat="43.383885115306406" lon="-4.510070381885651"><ele>21.0</ele><time>2026-05-01T16:57:42Z</time></trkpt><trkpt lat="43.383773848972304" lon="-4.510020609888758"><ele>21.0</ele><time>2026-05-01T16:57:43Z</time></trkpt><trkpt lat="43.383683829450995" lon="-4.509980863490439"><ele>21.0</ele><time>2026-05-01T16:57:44Z</time></trkpt><trkpt lat="43.38357166667627" lon="-4.5099417299649"><ele>21.0</ele><time>2026-05-01T16:57:45Z</time></trkpt><trkpt lat="43.38346565855755" lon="-4.5099158886149695"><ele>20.0</ele><time>2026-05-01T16:57:46Z</time></trkpt><trkpt lat="43.38335956355756" lon="-4.509948120818111"><ele>19.0</ele><time>2026-05-01T16:57:47Z</time></trkpt><trkpt lat="43.38327139214318" lon="-4.510016228633891"><ele>18.0</ele><time>2026-05-01T16:57:48Z</time></trkpt><trkpt lat="43.38317521460264" lon="-4.510068159698281"><ele>17.0</ele><time>2026-05-01T16:57:49Z</time></trkpt><trkpt lat="43.38308528801861" lon="-4.510107283094006"><ele>16.0</ele><time>2026-05-01T16:57:50Z</time></trkpt><trkpt lat="43.38299091331351" lon="-4.51009948207379"><ele>15.200000000000001</ele><time>2026-05-01T16:57:51Z</time></trkpt><trkpt lat="43.38288719875978" lon="-4.510079508581137"><ele>14.400000000000002</ele><time>2026-05-01T16:57:52Z</time></trkpt><trkpt lat="43.382788832857266" lon="-4.510045544549312"><ele>13.6</ele><time>2026-05-01T16:57:53Z</time></trkpt><trkpt lat="43.38268461807271" lon="-4.510016229976108"><ele>12.8</ele><time>2026-05-01T16:57:54Z</time></trkpt><trkpt lat="43.38258639397438" lon="-4.509981041115268"><ele>12.0</ele><time>2026-05-01T16:57:55Z</time></trkpt><trkpt lat="43.38249752870815" lon="-4.509920440598128"><ele>12.0</ele><time>2026-05-01T16:57:56Z</time></trkpt><trkpt lat="43.38240608869109" lon="-4.509855072996635"><ele>12.0</ele><time>2026-05-01T16:57:57Z</time></trkpt><trkpt lat="43.382314053410276" lon="-4.509787426269103"><ele>12.0</ele><time>2026-05-01T16:57:58Z</time></trkpt><trkpt lat="43.38222268361753" lon="-4.509716914247255"><ele>12.0</ele><time>2026-05-01T16:57:59Z</time></trkpt><trkpt lat="43.38213227078645" lon="-4.509641644834089"><ele>12.0</ele><time>2026-05-01T16:58:00Z</time></trkpt><trkpt lat="43.38204103787985" lon="-4.509571625626698"><ele>15.2</ele><time>2026-05-01T16:58:01Z</time></trkpt><trkpt lat="43.38194852416827" lon="-4.509501722377153"><ele>18.4</ele><time>2026-05-01T16:58:02Z</time></trkpt><trkpt lat="43.38185411449691" lon="-4.509444971431485"><ele>21.599999999999998</ele><time>2026-05-01T16:58:03Z</time></trkpt><trkpt lat="43.381752121938156" lon="-4.5094025762632315"><ele>24.799999999999997</ele><time>2026-05-01T16:58:04Z</time></trkpt><trkpt lat="43.38165249851052" lon="-4.509360460305006"><ele>28.0</ele><time>2026-05-01T16:58:05Z</time></trkpt><trkpt lat="43.38155642239309" lon="-4.509330879718456"><ele>28.0</ele><time>2026-05-01T16:58:06Z</time></trkpt><trkpt lat="43.38145426690916" lon="-4.509307048086411"><ele>27.999999999999996</ele><time>2026-05-01T16:58:07Z</time></trkpt><trkpt lat="43.38134190169007" lon="-4.50931911211705"><ele>27.999999999999996</ele><time>2026-05-01T16:58:08Z</time></trkpt><trkpt lat="43.38123571853362" lon="-4.509346238618422"><ele>28.0</ele><time>2026-05-01T16:58:09Z</time></trkpt><trkpt lat="43.381139041371206" lon="-4.509345892110279"><ele>28.0</ele><time>2026-05-01T16:58:10Z</time></trkpt><trkpt lat="43.381044718037295" lon="-4.509299111454254"><ele>25.5</ele><time>2026-05-01T16:58:11Z</time></trkpt><trkpt lat="43.38094547615454" lon="-4.509188589409959"><ele>23.0</ele><time>2026-05-01T16:58:12Z</time></trkpt><trkpt lat="43.38083086041863" lon="-4.509148428699368"><ele>20.5</ele><time>2026-05-01T16:58:13Z</time></trkpt><trkpt lat="43.38073235208189" lon="-4.509064015945056"><ele>18.0</ele><time>2026-05-01T16:58:14Z</time></trkpt><trkpt lat="43.38065000182041" lon="-4.508954021917444"><ele>18.0</ele><time>2026-05-01T16:58:15Z</time></trkpt><trkpt lat="43.38056123548012" lon="-4.5088619166145625"><ele>18.0</ele><time>2026-05-01T16:58:16Z</time></trkpt><trkpt lat="43.38048007154438" lon="-4.508753810201862"><ele>18.0</ele><time>2026-05-01T16:58:17Z</time></trkpt><trkpt lat="43.3804220077648" lon="-4.508626964306392"><ele>18.0</ele><time>2026-05-01T16:58:18Z</time></trkpt><trkpt lat="43.380371029297" lon="-4.508486048076844"><ele>18.0</ele><time>2026-05-01T16:58:19Z</time></trkpt><trkpt lat="43.380315402585495" lon="-4.508360371041522"><ele>16.6</ele><time>2026-05-01T16:58:20Z</time></trkpt><trkpt lat="43.38025971807195" lon="-4.50822786032676"><ele>15.200000000000001</ele><time>2026-05-01T16:58:21Z</time></trkpt><trkpt lat="43.38021013263158" lon="-4.508096300793902"><ele>13.8</ele><time>2026-05-01T16:58:22Z</time></trkpt><trkpt lat="43.38017527409533" lon="-4.507952569210783"><ele>12.4</ele><time>2026-05-01T16:58:23Z</time></trkpt><trkpt lat="43.38014979173666" lon="-4.507807996604044"><ele>11.0</ele><time>2026-05-01T16:58:24Z</time></trkpt><trkpt lat="43.38012181506605" lon="-4.507666124245437"><ele>11.0</ele><time>2026-05-01T16:58:25Z</time></trkpt><trkpt lat="43.380102258141164" lon="-4.507523676710636"><ele>11.0</ele><time>2026-05-01T16:58:26Z</time></trkpt><trkpt lat="43.38007372655879" lon="-4.507363094126917"><ele>11.0</ele><time>2026-05-01T16:58:27Z</time></trkpt><trkpt lat="43.38005954439168" lon="-4.507167055510513"><ele>11.0</ele><time>2026-05-01T16:58:28Z</time></trkpt><trkpt lat="43.38005011460098" lon="-4.506953703948717"><ele>13.4</ele><time>2026-05-01T16:58:29Z</time></trkpt><trkpt lat="43.38005223997456" lon="-4.5068049498175125"><ele>15.8</ele><time>2026-05-01T16:58:30Z</time></trkpt><trkpt lat="43.380051054761786" lon="-4.5066616904435755"><ele>18.2</ele><time>2026-05-01T16:58:31Z</time></trkpt><trkpt lat="43.37998481412654" lon="-4.5066233020958455"><ele>20.599999999999998</ele><time>2026-05-01T16:58:32Z</time></trkpt><trkpt lat="43.37993845759173" lon="-4.506478668012627"><ele>23.0</ele><time>2026-05-01T16:58:33Z</time></trkpt><trkpt lat="43.37991626926798" lon="-4.506349460745819"><ele>25.799999999999997</ele><time>2026-05-01T16:58:34Z</time></trkpt><trkpt lat="43.37987987708734" lon="-4.50623039777622"><ele>28.6</ele><time>2026-05-01T16:58:35Z</time></trkpt><trkpt lat="43.37981923710872" lon="-4.506132953981742"><ele>31.400000000000002</ele><time>2026-05-01T16:58:36Z</time></trkpt><trkpt lat="43.37974448051837" lon="-4.506043526601332"><ele>34.2</ele><time>2026-05-01T16:58:37Z</time></trkpt><trkpt lat="43.37967680618241" lon="-4.505945974632327"><ele>37.0</ele><time>2026-05-01T16:58:38Z</time></trkpt><trkpt lat="43.37960913992998" lon="-4.505848317923867"><ele>32.6</ele><time>2026-05-01T16:58:39Z</time></trkpt><trkpt lat="43.3795420524789" lon="-4.505752698302451"><ele>28.200000000000003</ele><time>2026-05-01T16:58:40Z</time></trkpt><trkpt lat="43.37947054358645" lon="-4.505651884631682"><ele>23.8</ele><time>2026-05-01T16:58:41Z</time></trkpt><trkpt lat="43.37939239756571" lon="-4.505554867861743"><ele>19.4</ele><time>2026-05-01T16:58:42Z</time></trkpt><trkpt lat="43.37931533445156" lon="-4.505453615473224"><ele>15.0</ele><time>2026-05-01T16:58:43Z</time></trkpt><trkpt lat="43.379250559169215" lon="-4.505340103366927"><ele>15.0</ele><time>2026-05-01T16:58:44Z</time></trkpt><trkpt lat="43.37920031765645" lon="-4.5051990563721835"><ele>15.0</ele><time>2026-05-01T16:58:45Z</time></trkpt><trkpt lat="43.37913571417802" lon="-4.505069925025872"><ele>15.0</ele><time>2026-05-01T16:58:46Z</time></trkpt><trkpt lat="43.37897531758216" lon="-4.505054366171726"><ele>15.0</ele><time>2026-05-01T16:58:47Z</time></trkpt><trkpt lat="43.37884880174344" lon="-4.505006649180434"><ele>16.0</ele><time>2026-05-01T16:58:48Z</time></trkpt><trkpt lat="43.37872356874268" lon="-4.504944400261047"><ele>17.0</ele><time>2026-05-01T16:58:49Z</time></trkpt><trkpt lat="43.378668895430145" lon="-4.504852677395761"><ele>18.0</ele><time>2026-05-01T16:58:50Z</time></trkpt><trkpt lat="43.37862406170786" lon="-4.504736074155808"><ele>19.0</ele><time>2026-05-01T16:58:51.001Z</time></trkpt><trkpt lat="43.37857819219708" lon="-4.504632059966578"><ele>20.0</ele><time>2026-05-01T16:58:52.001Z</time></trkpt><trkpt lat="43.37849832629873" lon="-4.504538491292892"><ele>20.0</ele><time>2026-05-01T16:58:53.001Z</time></trkpt><trkpt lat="43.378322152774224" lon="-4.504594277148704"><ele>20.0</ele><time>2026-05-01T16:58:54.001Z</time></trkpt><trkpt lat="43.37820300847703" lon="-4.504588730349359"><ele>20.0</ele><time>2026-05-01T16:58:55.001Z</time></trkpt><trkpt lat="43.37809651159843" lon="-4.504579003056156"><ele>20.0</ele><time>2026-05-01T16:58:56.001Z</time></trkpt><trkpt lat="43.37799759180584" lon="-4.504549255979779"><ele>18.0</ele><time>2026-05-01T16:58:57.001Z</time></trkpt><trkpt lat="43.37790205128493" lon="-4.504519314430883"><ele>16.0</ele><time>2026-05-01T16:58:58Z</time></trkpt><trkpt lat="43.377803269503296" lon="-4.504497666947768"><ele>14.0</ele><time>2026-05-01T16:58:59Z</time></trkpt><trkpt lat="43.377706429742936" lon="-4.504474230081869"><ele>12.0</ele><time>2026-05-01T16:59:00Z</time></trkpt><trkpt lat="43.377613329720766" lon="-4.504445885120323"><ele>10.0</ele><time>2026-05-01T16:59:01Z</time></trkpt><trkpt lat="43.37753435264234" lon="-4.5043974087479235"><ele>10.0</ele><time>2026-05-01T16:59:02Z</time></trkpt><trkpt lat="43.37745703224066" lon="-4.504338722061741"><ele>10.0</ele><time>2026-05-01T16:59:03Z</time></trkpt><trkpt lat="43.37737886342735" lon="-4.50427384179842"><ele>10.0</ele><time>2026-05-01T16:59:04Z</time></trkpt><trkpt lat="43.377309339919314" lon="-4.504211861133691"><ele>10.0</ele><time>2026-05-01T16:59:05Z</time></trkpt><trkpt lat="43.37723576143294" lon="-4.5041715725455065"><ele>10.0</ele><time>2026-05-01T16:59:06Z</time></trkpt><trkpt lat="43.377159481750915" lon="-4.504158512576204"><ele>10.0</ele><time>2026-05-01T16:59:07Z</time></trkpt><trkpt lat="43.377079841156124" lon="-4.504176089217059"><ele>8.666666666666668</ele><time>2026-05-01T16:59:08Z</time></trkpt><trkpt lat="43.377007344786826" lon="-4.504216333706622"><ele>7.333333333333334</ele><time>2026-05-01T16:59:09Z</time></trkpt><trkpt lat="43.37693907648537" lon="-4.504242490113808"><ele>6.0</ele><time>2026-05-01T16:59:10Z</time></trkpt><trkpt lat="43.37687135748186" lon="-4.504261967254006"><ele>4.666666666666667</ele><time>2026-05-01T16:59:11Z</time></trkpt><trkpt lat="43.37679164598748" lon="-4.5042380038284735"><ele>3.333333333333333</ele><time>2026-05-01T16:59:12Z</time></trkpt><trkpt lat="43.3767183919545" lon="-4.504180410760132"><ele>2.0</ele><time>2026-05-01T16:59:13Z</time></trkpt><trkpt lat="43.37665601114659" lon="-4.50411205246032"><ele>1.9999999999999998</ele><time>2026-05-01T16:59:14Z</time></trkpt><trkpt lat="43.376585411190746" lon="-4.5040597760928724"><ele>2.0</ele><time>2026-05-01T16:59:15Z</time></trkpt><trkpt lat="43.37650405669681" lon="-4.504048040797337"><ele>2.0</ele><time>2026-05-01T16:59:16Z</time></trkpt><trkpt lat="43.37642180861527" lon="-4.504060756992665"><ele>2.0</ele><time>2026-05-01T16:59:17Z</time></trkpt><trkpt lat="43.3763547387746" lon="-4.50408054334367"><ele>1.9999999999999998</ele><time>2026-05-01T16:59:18Z</time></trkpt><trkpt lat="43.376283733034136" lon="-4.504091451632625"><ele>2.0</ele><time>2026-05-01T16:59:19Z</time></trkpt><trkpt lat="43.37622223238664" lon="-4.504125734872137"><ele>2.2</ele><time>2026-05-01T16:59:20Z</time></trkpt><trkpt lat="43.376124729279695" lon="-4.504153776908357"><ele>2.4000000000000004</ele><time>2026-05-01T16:59:21Z</time></trkpt><trkpt lat="43.376017486705244" lon="-4.504178500800636"><ele>2.5999999999999996</ele><time>2026-05-01T16:59:22Z</time></trkpt><trkpt lat="43.375947600311605" lon="-4.504208230265383"><ele>2.8</ele><time>2026-05-01T16:59:23Z</time></trkpt><trkpt lat="43.37589843001152" lon="-4.504268228562976"><ele>3.0</ele><time>2026-05-01T16:59:24Z</time></trkpt><trkpt lat="43.375848397475075" lon="-4.504401214727656"><ele>3.0</ele><time>2026-05-01T16:59:26Z</time></trkpt><trkpt lat="43.375785801952915" lon="-4.504529649863299"><ele>3.0</ele><time>2026-05-01T16:59:28Z</time></trkpt><trkpt lat="43.37573985571172" lon="-4.504595254229512"><ele>3.0</ele><time>2026-05-01T16:59:29Z</time></trkpt><trkpt lat="43.3757013536451" lon="-4.504674039533253"><ele>3.0</ele><time>2026-05-01T16:59:30Z</time></trkpt><trkpt lat="43.375685689507435" lon="-4.504780389358186"><ele>3.0</ele><time>2026-05-01T16:59:31Z</time></trkpt><trkpt lat="43.37569187761521" lon="-4.504884280992483"><ele>3.0</ele><time>2026-05-01T16:59:32Z</time></trkpt><trkpt lat="43.37571456425262" lon="-4.504994870341133"><ele>2.8</ele><time>2026-05-01T16:59:33Z</time></trkpt><trkpt lat="43.375733689034035" lon="-4.505112130787203"><ele>2.5999999999999996</ele><time>2026-05-01T16:59:34Z</time></trkpt><trkpt lat="43.375753405255956" lon="-4.505237806678407"><ele>2.4000000000000004</ele><time>2026-05-01T16:59:35Z</time></trkpt><trkpt lat="43.375767062829134" lon="-4.505369551430625"><ele>2.2</ele><time>2026-05-01T16:59:36Z</time></trkpt><trkpt lat="43.375785919801174" lon="-4.505502464167312"><ele>2.0</ele><time>2026-05-01T16:59:37Z</time></trkpt><trkpt lat="43.37580561780213" lon="-4.505635567536791"><ele>1.8</ele><time>2026-05-01T16:59:38Z</time></trkpt><trkpt lat="43.375827570502224" lon="-4.505770520793223"><ele>1.6</ele><time>2026-05-01T16:59:39Z</time></trkpt><trkpt lat="43.375847809567844" lon="-4.50590721004429"><ele>1.4000000000000001</ele><time>2026-05-01T16:59:40Z</time></trkpt><trkpt lat="43.375863204815786" lon="-4.506047002574531"><ele>1.2000000000000002</ele><time>2026-05-01T16:59:41Z</time></trkpt><trkpt lat="43.37587845587522" lon="-4.506187458835199"><ele>1.0</ele><time>2026-05-01T16:59:42Z</time></trkpt><trkpt lat="43.375891832710735" lon="-4.506331718341231"><ele>0.6666666666666666</ele><time>2026-05-01T16:59:43Z</time></trkpt><trkpt lat="43.37590410464209" lon="-4.506479450180045"><ele>0.3333333333333333</ele><time>2026-05-01T16:59:44Z</time></trkpt><trkpt lat="43.375885014502664" lon="-4.506601329275861"><ele>0.0</ele><time>2026-05-01T16:59:45Z</time></trkpt><trkpt lat="43.37564183438702" lon="-4.506719171253238"><ele>0.0</ele><time>2026-05-01T16:59:47Z</time></trkpt><trkpt lat="43.37545177115391" lon="-4.506767094767301"><ele>0.0</ele><time>2026-05-01T16:59:48Z</time></trkpt><trkpt lat="43.375893320240884" lon="-4.5072233409730185"><ele>0.0</ele><time>2026-05-01T16:59:49Z</time></trkpt><trkpt lat="43.37588680232987" lon="-4.50737426926438"><ele>0.0</ele><time>2026-05-01T16:59:50Z</time></trkpt><trkpt lat="43.3758746221747" lon="-4.507530876143132"><ele>0.0</ele><time>2026-05-01T16:59:51Z</time></trkpt><trkpt lat="43.37586750349234" lon="-4.507686781663535"><ele>0.0</ele><time>2026-05-01T16:59:52Z</time></trkpt><trkpt lat="43.3758624154427" lon="-4.507839166081364"><ele>0.0</ele><time>2026-05-01T16:59:53Z</time></trkpt><trkpt lat="43.375853122391895" lon="-4.507990326023884"><ele>0.0</ele><time>2026-05-01T16:59:54Z</time></trkpt><trkpt lat="43.375845073973785" lon="-4.508135645445219"><ele>0.0</ele><time>2026-05-01T16:59:55Z</time></trkpt><trkpt lat="43.37583395022394" lon="-4.508284082183121"><ele>0.0</ele><time>2026-05-01T16:59:56Z</time></trkpt><trkpt lat="43.37582124012999" lon="-4.5084307240316575"><ele>0.0</ele><time>2026-05-01T16:59:57Z</time></trkpt><trkpt lat="43.37580554461279" lon="-4.508572977770874"><ele>0.0</ele><time>2026-05-01T16:59:58Z</time></trkpt><trkpt lat="43.375792039803514" lon="-4.508720841442698"><ele>0.0</ele><time>2026-05-01T16:59:59Z</time></trkpt><trkpt lat="43.3757789215998" lon="-4.508865770534875"><ele>0.0</ele><time>2026-05-01T17:00:00Z</time></trkpt><trkpt lat="43.37576262150413" lon="-4.509010170954336"><ele>0.0</ele><time>2026-05-01T17:00:01Z</time></trkpt><trkpt lat="43.37574533814068" lon="-4.509156409045345"><ele>0.0</ele><time>2026-05-01T17:00:02Z</time></trkpt><trkpt lat="43.37572705172554" lon="-4.509299527515053"><ele>0.0</ele><time>2026-05-01T17:00:03Z</time></trkpt><trkpt lat="43.375704541788345" lon="-4.5094420935774036"><ele>0.2</ele><time>2026-05-01T17:00:04Z</time></trkpt><trkpt lat="43.375681544493936" lon="-4.509584096655522"><ele>0.4</ele><time>2026-05-01T17:00:05Z</time></trkpt><trkpt lat="43.375661984688335" lon="-4.509728177020356"><ele>0.6000000000000001</ele><time>2026-05-01T17:00:06Z</time></trkpt><trkpt lat="43.37563707798673" lon="-4.50987272619106"><ele>0.8</ele><time>2026-05-01T17:00:07Z</time></trkpt><trkpt lat="43.375613545311985" lon="-4.51001695814545"><ele>1.0</ele><time>2026-05-01T17:00:08Z</time></trkpt><trkpt lat="43.37559180385585" lon="-4.510162448574673"><ele>1.0</ele><time>2026-05-01T17:00:09Z</time></trkpt><trkpt lat="43.375567424613266" lon="-4.510306542694449"><ele>1.0</ele><time>2026-05-01T17:00:10Z</time></trkpt><trkpt lat="43.375547251298066" lon="-4.510455853642485"><ele>1.0</ele><time>2026-05-01T17:00:11Z</time></trkpt><trkpt lat="43.375525008085845" lon="-4.510606280885867"><ele>1.0</ele><time>2026-05-01T17:00:12Z</time></trkpt><trkpt lat="43.37550480942077" lon="-4.510753522779782"><ele>1.0</ele><time>2026-05-01T17:00:13Z</time></trkpt><trkpt lat="43.37548352101835" lon="-4.5108988307912234"><ele>1.4</ele><time>2026-05-01T17:00:14Z</time></trkpt><trkpt lat="43.37546383780228" lon="-4.511044447948662"><ele>1.8</ele><time>2026-05-01T17:00:15Z</time></trkpt><trkpt lat="43.37544765341891" lon="-4.511195676181111"><ele>2.1999999999999997</ele><time>2026-05-01T17:00:16Z</time></trkpt><trkpt lat="43.375433076654836" lon="-4.511341245352028"><ele>2.6</ele><time>2026-05-01T17:00:17Z</time></trkpt><trkpt lat="43.37542068926862" lon="-4.511489106549924"><ele>3.0</ele><time>2026-05-01T17:00:18Z</time></trkpt><trkpt lat="43.37541047113278" lon="-4.51163932710736"><ele>3.0</ele><time>2026-05-01T17:00:19Z</time></trkpt><trkpt lat="43.37540118979761" lon="-4.511788996034098"><ele>3.0</ele><time>2026-05-01T17:00:20Z</time></trkpt><trkpt lat="43.37539761102469" lon="-4.511937376630218"><ele>3.0</ele><time>2026-05-01T17:00:21Z</time></trkpt><trkpt lat="43.375397580628466" lon="-4.512090680557381"><ele>3.0</ele><time>2026-05-01T17:00:22Z</time></trkpt><trkpt lat="43.37539553690825" lon="-4.512238387138165"><ele>3.0</ele><time>2026-05-01T17:00:23Z</time></trkpt><trkpt lat="43.375398354396154" lon="-4.512385643824335"><ele>3.0</ele><time>2026-05-01T17:00:24Z</time></trkpt><trkpt lat="43.37540043634977" lon="-4.512526217137597"><ele>3.0</ele><time>2026-05-01T17:00:25Z</time></trkpt><trkpt lat="43.37540935048717" lon="-4.512672315367487"><ele>3.0</ele><time>2026-05-01T17:00:26Z</time></trkpt><trkpt lat="43.37541813459985" lon="-4.512818917052003"><ele>3.0</ele><time>2026-05-01T17:00:27Z</time></trkpt><trkpt lat="43.375503145662435" lon="-4.513074041355753"><ele>3.0</ele><time>2026-05-01T17:00:28Z</time></trkpt><trkpt lat="43.37548640127446" lon="-4.513201457972787"><ele>3.0</ele><time>2026-05-01T17:00:29Z</time></trkpt><trkpt lat="43.37547589061425" lon="-4.513414606656509"><ele>3.0</ele><time>2026-05-01T17:00:31Z</time></trkpt><trkpt lat="43.375500914027896" lon="-4.513564106714304"><ele>3.0</ele><time>2026-05-01T17:00:32Z</time></trkpt><trkpt lat="43.375524360793065" lon="-4.513714248452718"><ele>2.8</ele><time>2026-05-01T17:00:33Z</time></trkpt><trkpt lat="43.37555262661696" lon="-4.513860926704729"><ele>2.5999999999999996</ele><time>2026-05-01T17:00:34Z</time></trkpt><trkpt lat="43.37558142557076" lon="-4.514004598823554"><ele>2.4000000000000004</ele><time>2026-05-01T17:00:35Z</time></trkpt><trkpt lat="43.37561258097794" lon="-4.514145602493533"><ele>2.2</ele><time>2026-05-01T17:00:36Z</time></trkpt><trkpt lat="43.375646878932756" lon="-4.514288643664633"><ele>2.0</ele><time>2026-05-01T17:00:37Z</time></trkpt><trkpt lat="43.37568237188687" lon="-4.514431608808221"><ele>2.4000000000000004</ele><time>2026-05-01T17:00:38Z</time></trkpt><trkpt lat="43.37572166156519" lon="-4.5145723508818785"><ele>2.8000000000000003</ele><time>2026-05-01T17:00:39Z</time></trkpt><trkpt lat="43.37576271794601" lon="-4.514715743377217"><ele>3.2</ele><time>2026-05-01T17:00:40Z</time></trkpt><trkpt lat="43.37580582527046" lon="-4.514856159414168"><ele>3.6</ele><time>2026-05-01T17:00:41Z</time></trkpt><trkpt lat="43.375850541282894" lon="-4.514996575034241"><ele>4.0</ele><time>2026-05-01T17:00:42Z</time></trkpt><trkpt lat="43.37589729871438" lon="-4.515133629416383"><ele>4.0</ele><time>2026-05-01T17:00:43Z</time></trkpt><trkpt lat="43.3759479482568" lon="-4.515268246165785"><ele>4.0</ele><time>2026-05-01T17:00:44Z</time></trkpt><trkpt lat="43.37599746650164" lon="-4.515402714997595"><ele>4.0</ele><time>2026-05-01T17:00:45Z</time></trkpt><trkpt lat="43.376047096359514" lon="-4.51554215092129"><ele>4.0</ele><time>2026-05-01T17:00:46Z</time></trkpt><trkpt lat="43.37609934963869" lon="-4.515676892528799"><ele>4.0</ele><time>2026-05-01T17:00:47Z</time></trkpt><trkpt lat="43.37615170721962" lon="-4.5158089590478045"><ele>3.8000000000000003</ele><time>2026-05-01T17:00:48Z</time></trkpt><trkpt lat="43.37620369454184" lon="-4.515940839624314"><ele>3.6000000000000005</ele><time>2026-05-01T17:00:49Z</time></trkpt><trkpt lat="43.37625565278921" lon="-4.516077394267605"><ele>3.4</ele><time>2026-05-01T17:00:50Z</time></trkpt><trkpt lat="43.37630894929049" lon="-4.516211993894611"><ele>3.2</ele><time>2026-05-01T17:00:51Z</time></trkpt><trkpt lat="43.376360137125296" lon="-4.5163482539602215"><ele>3.0</ele><time>2026-05-01T17:00:52Z</time></trkpt><trkpt lat="43.37641665249852" lon="-4.516484133847536"><ele>2.25</ele><time>2026-05-01T17:00:53Z</time></trkpt><trkpt lat="43.37648131695274" lon="-4.516609795846249"><ele>1.5</ele><time>2026-05-01T17:00:54Z</time></trkpt><trkpt lat="43.376541189689746" lon="-4.516739589564574"><ele>0.75</ele><time>2026-05-01T17:00:55Z</time></trkpt><trkpt lat="43.37660031693018" lon="-4.516871101386946"><ele>0.0</ele><time>2026-05-01T17:00:56Z</time></trkpt><trkpt lat="43.37665794693156" lon="-4.517007042244416"><ele>0.75</ele><time>2026-05-01T17:00:57Z</time></trkpt><trkpt lat="43.37671549727635" lon="-4.517137391782153"><ele>1.5</ele><time>2026-05-01T17:00:58Z</time></trkpt><trkpt lat="43.37677158545236" lon="-4.517271128437815"><ele>2.25</ele><time>2026-05-01T17:00:59Z</time></trkpt><trkpt lat="43.3768270208031" lon="-4.517407302266775"><ele>3.0</ele><time>2026-05-01T17:01:00Z</time></trkpt><trkpt lat="43.376885908603995" lon="-4.517542361065719"><ele>3.0</ele><time>2026-05-01T17:01:01Z</time></trkpt><trkpt lat="43.37694095066024" lon="-4.517678149638324"><ele>3.0</ele><time>2026-05-01T17:01:02Z</time></trkpt><trkpt lat="43.37699484006783" lon="-4.51781655493419"><ele>3.0</ele><time>2026-05-01T17:01:03Z</time></trkpt><trkpt lat="43.377044444638194" lon="-4.5179555355033365"><ele>3.0</ele><time>2026-05-01T17:01:04Z</time></trkpt><trkpt lat="43.37709097546279" lon="-4.518096508756317"><ele>3.25</ele><time>2026-05-01T17:01:05Z</time></trkpt><trkpt lat="43.37713545510987" lon="-4.518243138393236"><ele>3.5</ele><time>2026-05-01T17:01:06Z</time></trkpt><trkpt lat="43.37717647477609" lon="-4.51838639731713"><ele>3.75</ele><time>2026-05-01T17:01:07Z</time></trkpt><trkpt lat="43.377215426236475" lon="-4.518533827887645"><ele>4.0</ele><time>2026-05-01T17:01:08Z</time></trkpt><trkpt lat="43.377248831289876" lon="-4.51868594550817"><ele>4.0</ele><time>2026-05-01T17:01:09Z</time></trkpt><trkpt lat="43.37728081648188" lon="-4.518835941366259"><ele>4.0</ele><time>2026-05-01T17:01:10Z</time></trkpt><trkpt lat="43.37730931737854" lon="-4.51898695303681"><ele>4.0</ele><time>2026-05-01T17:01:11Z</time></trkpt><trkpt lat="43.377330669535766" lon="-4.519138384470962"><ele>4.0</ele><time>2026-05-01T17:01:12Z</time></trkpt><trkpt lat="43.37734615134925" lon="-4.519290747118544"><ele>4.0</ele><time>2026-05-01T17:01:13Z</time></trkpt><trkpt lat="43.37735930755877" lon="-4.519447773410542"><ele>4.0</ele><time>2026-05-01T17:01:14Z</time></trkpt><trkpt lat="43.37736539385593" lon="-4.519604985367632"><ele>4.0</ele><time>2026-05-01T17:01:15Z</time></trkpt><trkpt lat="43.37736646298947" lon="-4.519760017962248"><ele>4.0</ele><time>2026-05-01T17:01:16Z</time></trkpt><trkpt lat="43.37736492218605" lon="-4.519908732385524"><ele>4.6</ele><time>2026-05-01T17:01:17Z</time></trkpt><trkpt lat="43.377358085352355" lon="-4.520060136749734"><ele>5.2</ele><time>2026-05-01T17:01:18Z</time></trkpt><trkpt lat="43.37734201136741" lon="-4.520210862403903"><ele>5.799999999999999</ele><time>2026-05-01T17:01:19Z</time></trkpt><trkpt lat="43.37732229388611" lon="-4.5203611558984385"><ele>6.3999999999999995</ele><time>2026-05-01T17:01:20Z</time></trkpt><trkpt lat="43.377302052652254" lon="-4.520510800842942"><ele>7.0</ele><time>2026-05-01T17:01:21Z</time></trkpt><trkpt lat="43.377279032985555" lon="-4.520659223099682"><ele>8.0</ele><time>2026-05-01T17:01:22Z</time></trkpt><trkpt lat="43.37725014911477" lon="-4.520806581162243"><ele>9.0</ele><time>2026-05-01T17:01:23Z</time></trkpt><trkpt lat="43.377216464449965" lon="-4.520955295013086"><ele>10.0</ele><time>2026-05-01T17:01:24Z</time></trkpt><trkpt lat="43.37717813882762" lon="-4.521097056524582"><ele>11.0</ele><time>2026-05-01T17:01:25Z</time></trkpt><trkpt lat="43.377135374327686" lon="-4.521237592421486"><ele>12.0</ele><time>2026-05-01T17:01:26Z</time></trkpt><trkpt lat="43.37708801962268" lon="-4.521376601322937"><ele>13.5</ele><time>2026-05-01T17:01:27Z</time></trkpt><trkpt lat="43.37703965162306" lon="-4.521517333956028"><ele>15.0</ele><time>2026-05-01T17:01:28Z</time></trkpt><trkpt lat="43.37698648393371" lon="-4.521651423034247"><ele>16.5</ele><time>2026-05-01T17:01:29Z</time></trkpt><trkpt lat="43.37692806125197" lon="-4.5217873748010255"><ele>18.0</ele><time>2026-05-01T17:01:30Z</time></trkpt><trkpt lat="43.376870764364284" lon="-4.52191768345902"><ele>18.0</ele><time>2026-05-01T17:01:31Z</time></trkpt><trkpt lat="43.37680934443236" lon="-4.522046431828592"><ele>18.0</ele><time>2026-05-01T17:01:32Z</time></trkpt><trkpt lat="43.37674925260965" lon="-4.522178091944926"><ele>18.0</ele><time>2026-05-01T17:01:33Z</time></trkpt><trkpt lat="43.3766875827721" lon="-4.522310587101109"><ele>18.0</ele><time>2026-05-01T17:01:34Z</time></trkpt><trkpt lat="43.37663080344817" lon="-4.522442435554973"><ele>17.0</ele><time>2026-05-01T17:01:35Z</time></trkpt><trkpt lat="43.37657621544184" lon="-4.522578048589638"><ele>16.0</ele><time>2026-05-01T17:01:36Z</time></trkpt><trkpt lat="43.376519825098946" lon="-4.522713196325373"><ele>15.0</ele><time>2026-05-01T17:01:37Z</time></trkpt><trkpt lat="43.37646881996126" lon="-4.522852913483242"><ele>14.0</ele><time>2026-05-01T17:01:38Z</time></trkpt><trkpt lat="43.376424207685545" lon="-4.522996657424803"><ele>13.75</ele><time>2026-05-01T17:01:39Z</time></trkpt><trkpt lat="43.37638401264939" lon="-4.5231407186141"><ele>13.5</ele><time>2026-05-01T17:01:40Z</time></trkpt><trkpt lat="43.376346541074035" lon="-4.523287255225607"><ele>13.25</ele><time>2026-05-01T17:01:41Z</time></trkpt><trkpt lat="43.37631043551004" lon="-4.523437820012003"><ele>13.0</ele><time>2026-05-01T17:01:42Z</time></trkpt><trkpt lat="43.37628565563157" lon="-4.523588029748181"><ele>18.0</ele><time>2026-05-01T17:01:43Z</time></trkpt><trkpt lat="43.37626271482207" lon="-4.523741028452037"><ele>23.0</ele><time>2026-05-01T17:01:44Z</time></trkpt><trkpt lat="43.376238467619785" lon="-4.523894988163718"><ele>28.0</ele><time>2026-05-01T17:01:45Z</time></trkpt><trkpt lat="43.37622228394815" lon="-4.524046967931037"><ele>33.0</ele><time>2026-05-01T17:01:46Z</time></trkpt><trkpt lat="43.37621082308029" lon="-4.524197397517408"><ele>33.0</ele><time>2026-05-01T17:01:47Z</time></trkpt><trkpt lat="43.3762019368598" lon="-4.524350473925009"><ele>33.0</ele><time>2026-05-01T17:01:48Z</time></trkpt><trkpt lat="43.376193844961136" lon="-4.5245069487906235"><ele>33.0</ele><time>2026-05-01T17:01:49Z</time></trkpt><trkpt lat="43.376187936369874" lon="-4.524662478351902"><ele>33.0</ele><time>2026-05-01T17:01:50Z</time></trkpt><trkpt lat="43.37617696267619" lon="-4.524816881189615"><ele>33.5</ele><time>2026-05-01T17:01:51Z</time></trkpt><trkpt lat="43.376165145646425" lon="-4.5249705333694195"><ele>34.0</ele><time>2026-05-01T17:01:52Z</time></trkpt><trkpt lat="43.376150765417265" lon="-4.525122053285201"><ele>34.5</ele><time>2026-05-01T17:01:53Z</time></trkpt><trkpt lat="43.376136676089295" lon="-4.525278924175203"><ele>35.0</ele><time>2026-05-01T17:01:54Z</time></trkpt><trkpt lat="43.376114573830705" lon="-4.525434492040023"><ele>35.0</ele><time>2026-05-01T17:01:55Z</time></trkpt><trkpt lat="43.376090825562194" lon="-4.52558292764961"><ele>35.0</ele><time>2026-05-01T17:01:56Z</time></trkpt><trkpt lat="43.376065307184206" lon="-4.525730120886847"><ele>35.0</ele><time>2026-05-01T17:01:57Z</time></trkpt><trkpt lat="43.376039057497316" lon="-4.525883576523686"><ele>35.0</ele><time>2026-05-01T17:01:58Z</time></trkpt><trkpt lat="43.37600522866975" lon="-4.5260321068370954"><ele>35.0</ele><time>2026-05-01T17:01:59Z</time></trkpt><trkpt lat="43.3759707039255" lon="-4.526180524399953"><ele>33.5</ele><time>2026-05-01T17:02:00Z</time></trkpt><trkpt lat="43.3759384298773" lon="-4.52633077713782"><ele>32.0</ele><time>2026-05-01T17:02:01Z</time></trkpt><trkpt lat="43.37590685581057" lon="-4.526479843060053"><ele>30.5</ele><time>2026-05-01T17:02:02Z</time></trkpt><trkpt lat="43.375873927723624" lon="-4.526627438428527"><ele>29.0</ele><time>2026-05-01T17:02:03Z</time></trkpt><trkpt lat="43.37584170077747" lon="-4.526776907033884"><ele>29.0</ele><time>2026-05-01T17:02:04Z</time></trkpt><trkpt lat="43.37580999045168" lon="-4.526928136243377"><ele>29.0</ele><time>2026-05-01T17:02:05Z</time></trkpt><trkpt lat="43.37578456943783" lon="-4.527080190802181"><ele>29.0</ele><time>2026-05-01T17:02:06Z</time></trkpt><trkpt lat="43.37576346271108" lon="-4.5272309929515"><ele>29.0</ele><time>2026-05-01T17:02:07Z</time></trkpt><trkpt lat="43.37574502325689" lon="-4.527386967000378"><ele>28.0</ele><time>2026-05-01T17:02:08Z</time></trkpt><trkpt lat="43.37573574346932" lon="-4.527536209591107"><ele>27.0</ele><time>2026-05-01T17:02:09Z</time></trkpt><trkpt lat="43.37573034026825" lon="-4.527693405296453"><ele>26.0</ele><time>2026-05-01T17:02:10Z</time></trkpt><trkpt lat="43.375726053527366" lon="-4.527845486550058"><ele>25.0</ele><time>2026-05-01T17:02:11Z</time></trkpt><trkpt lat="43.375728493920015" lon="-4.527998282591581"><ele>24.0</ele><time>2026-05-01T17:02:12Z</time></trkpt><trkpt lat="43.375735531155506" lon="-4.5281486378935805"><ele>26.2</ele><time>2026-05-01T17:02:13Z</time></trkpt><trkpt lat="43.37574619204023" lon="-4.5282950297018125"><ele>28.4</ele><time>2026-05-01T17:02:14Z</time></trkpt><trkpt lat="43.37575913783316" lon="-4.528442919863139"><ele>30.6</ele><time>2026-05-01T17:02:15Z</time></trkpt><trkpt lat="43.375774096630906" lon="-4.528583517277875"><ele>32.8</ele><time>2026-05-01T17:02:16Z</time></trkpt><trkpt lat="43.37578929951846" lon="-4.528734157847661"><ele>35.0</ele><time>2026-05-01T17:02:17Z</time></trkpt><trkpt lat="43.375798491751695" lon="-4.5288637338554825"><ele>37.8</ele><time>2026-05-01T17:02:18Z</time></trkpt><trkpt lat="43.37580935891317" lon="-4.529003521254803"><ele>40.6</ele><time>2026-05-01T17:02:19Z</time></trkpt><trkpt lat="43.37581897608776" lon="-4.529142819915965"><ele>43.400000000000006</ele><time>2026-05-01T17:02:20Z</time></trkpt><trkpt lat="43.37582727285746" lon="-4.529279157093272"><ele>46.2</ele><time>2026-05-01T17:02:21Z</time></trkpt><trkpt lat="43.375833372308605" lon="-4.529415704358912"><ele>49.0</ele><time>2026-05-01T17:02:22Z</time></trkpt><trkpt lat="43.37583734068816" lon="-4.529554728699371"><ele>49.400000000000006</ele><time>2026-05-01T17:02:23Z</time></trkpt><trkpt lat="43.37584025309438" lon="-4.529688922387222"><ele>49.8</ele><time>2026-05-01T17:02:24Z</time></trkpt><trkpt lat="43.375842434283875" lon="-4.5298297133011625"><ele>50.2</ele><time>2026-05-01T17:02:25Z</time></trkpt><trkpt lat="43.37584977989836" lon="-4.5299697627237645"><ele>50.599999999999994</ele><time>2026-05-01T17:02:26Z</time></trkpt><trkpt lat="43.37585513407956" lon="-4.530112743190992"><ele>51.0</ele><time>2026-05-01T17:02:27Z</time></trkpt><trkpt lat="43.37585969794237" lon="-4.530260510529972"><ele>50.8</ele><time>2026-05-01T17:02:28Z</time></trkpt><trkpt lat="43.375865977098805" lon="-4.530403860962531"><ele>50.599999999999994</ele><time>2026-05-01T17:02:29Z</time></trkpt><trkpt lat="43.37587437961113" lon="-4.530547513787686"><ele>50.4</ele><time>2026-05-01T17:02:30Z</time></trkpt><trkpt lat="43.37588074242855" lon="-4.530694150725801"><ele>50.2</ele><time>2026-05-01T17:02:31Z</time></trkpt><trkpt lat="43.37588878445309" lon="-4.530847547695124"><ele>50.0</ele><time>2026-05-01T17:02:32Z</time></trkpt><trkpt lat="43.37589672854615" lon="-4.530998626484315"><ele>50.0</ele><time>2026-05-01T17:02:33Z</time></trkpt><trkpt lat="43.375906979564064" lon="-4.5311539733010555"><ele>50.0</ele><time>2026-05-01T17:02:34Z</time></trkpt><trkpt lat="43.37591671825292" lon="-4.531308624919525"><ele>50.0</ele><time>2026-05-01T17:02:35Z</time></trkpt><trkpt lat="43.37593090920636" lon="-4.5314629078947855"><ele>50.0</ele><time>2026-05-01T17:02:36Z</time></trkpt><trkpt lat="43.3759401671227" lon="-4.531628885460282"><ele>49.5</ele><time>2026-05-01T17:02:37Z</time></trkpt><trkpt lat="43.37594670489735" lon="-4.531791848955571"><ele>49.0</ele><time>2026-05-01T17:02:38Z</time></trkpt><trkpt lat="43.37594850930301" lon="-4.531956609390238"><ele>48.5</ele><time>2026-05-01T17:02:39Z</time></trkpt><trkpt lat="43.3759501075098" lon="-4.532118947687011"><ele>48.0</ele><time>2026-05-01T17:02:40Z</time></trkpt><trkpt lat="43.37595632036355" lon="-4.53227824738408"><ele>49.0</ele><time>2026-05-01T17:02:41Z</time></trkpt><trkpt lat="43.37596076375749" lon="-4.532440299890865"><ele>50.0</ele><time>2026-05-01T17:02:42Z</time></trkpt><trkpt lat="43.37597657017875" lon="-4.532595965233578"><ele>51.0</ele><time>2026-05-01T17:02:43Z</time></trkpt><trkpt lat="43.3760010586599" lon="-4.53274855396298"><ele>52.0</ele><time>2026-05-01T17:02:44Z</time></trkpt><trkpt lat="43.376019129473875" lon="-4.532904051754013"><ele>53.8</ele><time>2026-05-01T17:02:45Z</time></trkpt><trkpt lat="43.37603732635058" lon="-4.5330602159245945"><ele>55.6</ele><time>2026-05-01T17:02:46Z</time></trkpt><trkpt lat="43.376053480365144" lon="-4.5332128451035825"><ele>57.39999999999999</ele><time>2026-05-01T17:02:47Z</time></trkpt><trkpt lat="43.37607252582794" lon="-4.533364752756959"><ele>59.199999999999996</ele><time>2026-05-01T17:02:48Z</time></trkpt><trkpt lat="43.37609435024295" lon="-4.533509428598378"><ele>61.0</ele><time>2026-05-01T17:02:49Z</time></trkpt><trkpt lat="43.376116477744446" lon="-4.533654332046635"><ele>63.199999999999996</ele><time>2026-05-01T17:02:50Z</time></trkpt><trkpt lat="43.376138274976995" lon="-4.533798729673468"><ele>65.39999999999999</ele><time>2026-05-01T17:02:51Z</time></trkpt><trkpt lat="43.37615922179675" lon="-4.533938081684068"><ele>67.6</ele><time>2026-05-01T17:02:52Z</time></trkpt><trkpt lat="43.37617370317942" lon="-4.534063409361666"><ele>69.8</ele><time>2026-05-01T17:02:53Z</time></trkpt><trkpt lat="43.37619154733634" lon="-4.534155431463392"><ele>72.0</ele><time>2026-05-01T17:02:54Z</time></trkpt><trkpt lat="43.3762585919293" lon="-4.534309432364631"><ele>72.0</ele><time>2026-05-01T17:02:55Z</time></trkpt><trkpt lat="43.37626063568664" lon="-4.5345018774357735"><ele>72.0</ele><time>2026-05-01T17:02:56Z</time></trkpt><trkpt lat="43.376288813353234" lon="-4.534649221508988"><ele>72.0</ele><time>2026-05-01T17:02:57Z</time></trkpt><trkpt lat="43.37631534858104" lon="-4.534784514093674"><ele>72.0</ele><time>2026-05-01T17:02:58Z</time></trkpt><trkpt lat="43.37634296740424" lon="-4.53492494503838"><ele>68.0</ele><time>2026-05-01T17:02:59Z</time></trkpt><trkpt lat="43.37637184840871" lon="-4.535063774537298"><ele>64.0</ele><time>2026-05-01T17:03:00Z</time></trkpt><trkpt lat="43.376397531781535" lon="-4.535200760537835"><ele>60.0</ele><time>2026-05-01T17:03:01Z</time></trkpt><trkpt lat="43.376432900208556" lon="-4.535331818575751"><ele>56.0</ele><time>2026-05-01T17:03:02Z</time></trkpt><trkpt lat="43.37643728153264" lon="-4.535475107720805"><ele>52.0</ele><time>2026-05-01T17:03:04Z</time></trkpt><trkpt lat="43.37651728376387" lon="-4.535760080219937"><ele>52.0</ele><time>2026-05-01T17:03:05Z</time></trkpt><trkpt lat="43.37655361485763" lon="-4.535909405319431"><ele>52.0</ele><time>2026-05-01T17:03:06.001Z</time></trkpt><trkpt lat="43.37658691237807" lon="-4.536053925840633"><ele>52.0</ele><time>2026-05-01T17:03:07.001Z</time></trkpt><trkpt lat="43.376620308438525" lon="-4.53619832936992"><ele>52.0</ele><time>2026-05-01T17:03:08.001Z</time></trkpt><trkpt lat="43.37665766906625" lon="-4.536344621693074"><ele>52.0</ele><time>2026-05-01T17:03:09.001Z</time></trkpt><trkpt lat="43.37669361238588" lon="-4.536495685046168"><ele>54.5</ele><time>2026-05-01T17:03:10Z</time></trkpt><trkpt lat="43.376732213928776" lon="-4.536645371268874"><ele>57.0</ele><time>2026-05-01T17:03:11Z</time></trkpt><trkpt lat="43.37677149776522" lon="-4.536794659928238"><ele>59.5</ele><time>2026-05-01T17:03:12Z</time></trkpt><trkpt lat="43.37680957270164" lon="-4.536946475931881"><ele>62.0</ele><time>2026-05-01T17:03:13Z</time></trkpt><trkpt lat="43.37685110100353" lon="-4.537090395262238"><ele>65.75</ele><time>2026-05-01T17:03:14Z</time></trkpt><trkpt lat="43.37689061400053" lon="-4.537242456939367"><ele>69.5</ele><time>2026-05-01T17:03:15Z</time></trkpt><trkpt lat="43.37692749289087" lon="-4.537394561073776"><ele>73.25</ele><time>2026-05-01T17:03:16Z</time></trkpt><trkpt lat="43.37697031441045" lon="-4.537541210840808"><ele>77.0</ele><time>2026-05-01T17:03:17Z</time></trkpt><trkpt lat="43.37700806609246" lon="-4.537693897955966"><ele>77.0</ele><time>2026-05-01T17:03:18Z</time></trkpt><trkpt lat="43.37704523271083" lon="-4.53784529609148"><ele>77.0</ele><time>2026-05-01T17:03:19Z</time></trkpt><trkpt lat="43.377085214990935" lon="-4.537995723818788"><ele>77.0</ele><time>2026-05-01T17:03:20Z</time></trkpt><trkpt lat="43.377125960966616" lon="-4.538143636914566"><ele>77.0</ele><time>2026-05-01T17:03:21Z</time></trkpt><trkpt lat="43.37716320822665" lon="-4.538294881530892"><ele>73.0</ele><time>2026-05-01T17:03:22Z</time></trkpt><trkpt lat="43.377200798484814" lon="-4.538447574284865"><ele>69.0</ele><time>2026-05-01T17:03:23Z</time></trkpt><trkpt lat="43.377239402877095" lon="-4.538597513057121"><ele>65.0</ele><time>2026-05-01T17:03:24Z</time></trkpt><trkpt lat="43.377278326017276" lon="-4.538747961177729"><ele>61.0</ele><time>2026-05-01T17:03:25Z</time></trkpt><trkpt lat="43.3773132418887" lon="-4.53890017940953"><ele>61.0</ele><time>2026-05-01T17:03:26Z</time></trkpt><trkpt lat="43.37735061712905" lon="-4.539051565086928"><ele>61.0</ele><time>2026-05-01T17:03:27Z</time></trkpt><trkpt lat="43.377386450632514" lon="-4.539200664346809"><ele>61.0</ele><time>2026-05-01T17:03:28Z</time></trkpt><trkpt lat="43.377421189431615" lon="-4.539349590347128"><ele>61.0</ele><time>2026-05-01T17:03:29Z</time></trkpt><trkpt lat="43.37745802173981" lon="-4.539496706572881"><ele>64.2</ele><time>2026-05-01T17:03:30Z</time></trkpt><trkpt lat="43.37749113536025" lon="-4.539645714531938"><ele>67.39999999999999</ele><time>2026-05-01T17:03:31Z</time></trkpt><trkpt lat="43.377529151888666" lon="-4.539791533847997"><ele>70.6</ele><time>2026-05-01T17:03:32Z</time></trkpt><trkpt lat="43.37756141719188" lon="-4.539937309260378"><ele>73.8</ele><time>2026-05-01T17:03:33Z</time></trkpt><trkpt lat="43.377592477832614" lon="-4.5400788789047954"><ele>77.0</ele><time>2026-05-01T17:03:34Z</time></trkpt><trkpt lat="43.37762317741226" lon="-4.540227266863165"><ele>77.0</ele><time>2026-05-01T17:03:35Z</time></trkpt><trkpt lat="43.37765787881483" lon="-4.540365305630077"><ele>77.0</ele><time>2026-05-01T17:03:36Z</time></trkpt><trkpt lat="43.37768562190918" lon="-4.540508711665612"><ele>77.0</ele><time>2026-05-01T17:03:37Z</time></trkpt><trkpt lat="43.37771708226481" lon="-4.5406520669437604"><ele>77.0</ele><time>2026-05-01T17:03:38Z</time></trkpt><trkpt lat="43.37774773353075" lon="-4.540788193345668"><ele>77.0</ele><time>2026-05-01T17:03:39Z</time></trkpt><trkpt lat="43.377789460299866" lon="-4.540921102609649"><ele>78.8</ele><time>2026-05-01T17:03:40Z</time></trkpt><trkpt lat="43.37780630854993" lon="-4.541060120125202"><ele>80.6</ele><time>2026-05-01T17:03:41Z</time></trkpt><trkpt lat="43.377834359129835" lon="-4.541197039528727"><ele>82.39999999999999</ele><time>2026-05-01T17:03:42Z</time></trkpt><trkpt lat="43.3778627777721" lon="-4.54133531825799"><ele>84.2</ele><time>2026-05-01T17:03:43Z</time></trkpt><trkpt lat="43.37789415080531" lon="-4.541474928021938"><ele>86.0</ele><time>2026-05-01T17:03:44Z</time></trkpt><trkpt lat="43.37792385738255" lon="-4.541623953391504"><ele>87.8</ele><time>2026-05-01T17:03:45Z</time></trkpt><trkpt lat="43.377956722605354" lon="-4.541758842934514"><ele>89.6</ele><time>2026-05-01T17:03:46Z</time></trkpt><trkpt lat="43.37798475042218" lon="-4.54190478402945"><ele>91.4</ele><time>2026-05-01T17:03:47Z</time></trkpt><trkpt lat="43.378013439194184" lon="-4.5420485086308995"><ele>93.2</ele><time>2026-05-01T17:03:48Z</time></trkpt><trkpt lat="43.37804261017097" lon="-4.542194613596661"><ele>95.0</ele><time>2026-05-01T17:03:49Z</time></trkpt><trkpt lat="43.37807150537511" lon="-4.542343782398386"><ele>89.2</ele><time>2026-05-01T17:03:50Z</time></trkpt><trkpt lat="43.37809804141246" lon="-4.542492235775746"><ele>83.4</ele><time>2026-05-01T17:03:51Z</time></trkpt><trkpt lat="43.37812202423574" lon="-4.542640475329474"><ele>77.6</ele><time>2026-05-01T17:03:52Z</time></trkpt><trkpt lat="43.37814478374255" lon="-4.54279080946288"><ele>71.8</ele><time>2026-05-01T17:03:53Z</time></trkpt><trkpt lat="43.37816993886787" lon="-4.542937894558588"><ele>66.0</ele><time>2026-05-01T17:03:54Z</time></trkpt><trkpt lat="43.3781853382887" lon="-4.543094034141388"><ele>66.0</ele><time>2026-05-01T17:03:55Z</time></trkpt><trkpt lat="43.37820298385652" lon="-4.54324277515852"><ele>66.0</ele><time>2026-05-01T17:03:56Z</time></trkpt><trkpt lat="43.3782163446522" lon="-4.543395802292003"><ele>66.0</ele><time>2026-05-01T17:03:57Z</time></trkpt><trkpt lat="43.3782318590574" lon="-4.543553574725207"><ele>66.0</ele><time>2026-05-01T17:03:58Z</time></trkpt><trkpt lat="43.37824383019357" lon="-4.543709986429581"><ele>67.0</ele><time>2026-05-01T17:03:59Z</time></trkpt><trkpt lat="43.37825832335345" lon="-4.54386775032043"><ele>68.0</ele><time>2026-05-01T17:04:00Z</time></trkpt><trkpt lat="43.37827791083377" lon="-4.544020747859743"><ele>69.0</ele><time>2026-05-01T17:04:01Z</time></trkpt><trkpt lat="43.37830103512821" lon="-4.544174115352974"><ele>70.0</ele><time>2026-05-01T17:04:02Z</time></trkpt><trkpt lat="43.37832818048599" lon="-4.544322843686526"><ele>70.0</ele><time>2026-05-01T17:04:03Z</time></trkpt><trkpt lat="43.378361221113195" lon="-4.544468001380674"><ele>70.0</ele><time>2026-05-01T17:04:04Z</time></trkpt><trkpt lat="43.378396874814456" lon="-4.544612615490383"><ele>70.0</ele><time>2026-05-01T17:04:05Z</time></trkpt><trkpt lat="43.37843265787704" lon="-4.544762439161815"><ele>70.0</ele><time>2026-05-01T17:04:06Z</time></trkpt><trkpt lat="43.378477467196895" lon="-4.5449069794122705"><ele>71.0</ele><time>2026-05-01T17:04:07Z</time></trkpt><trkpt lat="43.37852213299914" lon="-4.545049341090029"><ele>72.0</ele><time>2026-05-01T17:04:08Z</time></trkpt><trkpt lat="43.378569226912504" lon="-4.5451924957033905"><ele>73.0</ele><time>2026-05-01T17:04:09Z</time></trkpt><trkpt lat="43.37861916337851" lon="-4.545326204748272"><ele>74.0</ele><time>2026-05-01T17:04:10Z</time></trkpt><trkpt lat="43.37866199237254" lon="-4.545469456833553"><ele>75.0</ele><time>2026-05-01T17:04:11Z</time></trkpt><trkpt lat="43.378700145444924" lon="-4.545614920079076"><ele>76.4</ele><time>2026-05-01T17:04:12Z</time></trkpt><trkpt lat="43.37873791252469" lon="-4.545757393665069"><ele>77.8</ele><time>2026-05-01T17:04:13Z</time></trkpt><trkpt lat="43.37877710201803" lon="-4.545899657808761"><ele>79.19999999999999</ele><time>2026-05-01T17:04:14Z</time></trkpt><trkpt lat="43.378816980180936" lon="-4.546042477723919"><ele>80.6</ele><time>2026-05-01T17:04:15Z</time></trkpt><trkpt lat="43.37885727552625" lon="-4.546185534173918"><ele>82.0</ele><time>2026-05-01T17:04:16Z</time></trkpt><trkpt lat="43.37889281111239" lon="-4.546326760610785"><ele>79.6</ele><time>2026-05-01T17:04:17Z</time></trkpt><trkpt lat="43.37892604416926" lon="-4.546469113196497"><ele>77.19999999999999</ele><time>2026-05-01T17:04:18Z</time></trkpt><trkpt lat="43.378964550644625" lon="-4.546612737934495"><ele>74.8</ele><time>2026-05-01T17:04:19Z</time></trkpt><trkpt lat="43.37899945998023" lon="-4.546755141006682"><ele>72.4</ele><time>2026-05-01T17:04:20Z</time></trkpt><trkpt lat="43.37903416620822" lon="-4.546899473808111"><ele>70.0</ele><time>2026-05-01T17:04:21Z</time></trkpt><trkpt lat="43.37906975288751" lon="-4.547046208839556"><ele>70.0</ele><time>2026-05-01T17:04:22Z</time></trkpt><trkpt lat="43.37910584540776" lon="-4.547188847884833"><ele>70.0</ele><time>2026-05-01T17:04:23Z</time></trkpt><trkpt lat="43.37913779327038" lon="-4.547332761052711"><ele>70.0</ele><time>2026-05-01T17:04:24Z</time></trkpt><trkpt lat="43.37916969763845" lon="-4.547476890528987"><ele>70.0</ele><time>2026-05-01T17:04:25Z</time></trkpt><trkpt lat="43.379200051915305" lon="-4.547623171207387"><ele>70.0</ele><time>2026-05-01T17:04:26Z</time></trkpt><trkpt lat="43.379232947938256" lon="-4.547770909059799"><ele>70.8</ele><time>2026-05-01T17:04:27Z</time></trkpt><trkpt lat="43.37926145570855" lon="-4.547919963146862"><ele>71.6</ele><time>2026-05-01T17:04:28Z</time></trkpt><trkpt lat="43.37929234005757" lon="-4.548066968840404"><ele>72.4</ele><time>2026-05-01T17:04:29Z</time></trkpt><trkpt lat="43.37932458678616" lon="-4.548213964797846"><ele>73.2</ele><time>2026-05-01T17:04:30Z</time></trkpt><trkpt lat="43.37935284288535" lon="-4.548364114857938"><ele>74.0</ele><time>2026-05-01T17:04:31Z</time></trkpt><trkpt lat="43.379381854657304" lon="-4.548515131496584"><ele>74.0</ele><time>2026-05-01T17:04:32Z</time></trkpt><trkpt lat="43.37940975071643" lon="-4.5486630809132365"><ele>74.0</ele><time>2026-05-01T17:04:33Z</time></trkpt><trkpt lat="43.37944514923035" lon="-4.5488115166130285"><ele>74.0</ele><time>2026-05-01T17:04:34Z</time></trkpt><trkpt lat="43.379466089346785" lon="-4.548963837925663"><ele>74.0</ele><time>2026-05-01T17:04:35Z</time></trkpt><trkpt lat="43.37949505483909" lon="-4.549115927605857"><ele>75.5</ele><time>2026-05-01T17:04:36Z</time></trkpt><trkpt lat="43.37952152976901" lon="-4.549265290850762"><ele>77.0</ele><time>2026-05-01T17:04:37Z</time></trkpt><trkpt lat="43.37954990640462" lon="-4.549419263862475"><ele>78.5</ele><time>2026-05-01T17:04:38Z</time></trkpt><trkpt lat="43.37957697034347" lon="-4.549569291507668"><ele>80.0</ele><time>2026-05-01T17:04:39Z</time></trkpt><trkpt lat="43.379602297947116" lon="-4.549720512527292"><ele>80.0</ele><time>2026-05-01T17:04:40Z</time></trkpt><trkpt lat="43.379628263698976" lon="-4.54987116032425"><ele>80.0</ele><time>2026-05-01T17:04:41Z</time></trkpt><trkpt lat="43.37965229183087" lon="-4.5500201512709975"><ele>80.0</ele><time>2026-05-01T17:04:42Z</time></trkpt><trkpt lat="43.37967863272935" lon="-4.550170902168787"><ele>80.0</ele><time>2026-05-01T17:04:43Z</time></trkpt><trkpt lat="43.37970328673427" lon="-4.55031836891177"><ele>80.0</ele><time>2026-05-01T17:04:44Z</time></trkpt><trkpt lat="43.379728219501594" lon="-4.550469288230414"><ele>78.75</ele><time>2026-05-01T17:04:45Z</time></trkpt><trkpt lat="43.379756464811656" lon="-4.550622133008968"><ele>77.5</ele><time>2026-05-01T17:04:46Z</time></trkpt><trkpt lat="43.379784581124" lon="-4.550773129464911"><ele>76.25</ele><time>2026-05-01T17:04:47Z</time></trkpt><trkpt lat="43.379811353333324" lon="-4.550926585352872"><ele>75.0</ele><time>2026-05-01T17:04:48Z</time></trkpt><trkpt lat="43.37983878161764" lon="-4.551078880782124"><ele>75.0</ele><time>2026-05-01T17:04:49Z</time></trkpt><trkpt lat="43.37986737969392" lon="-4.551227910559115"><ele>75.0</ele><time>2026-05-01T17:04:50Z</time></trkpt><trkpt lat="43.379903188345516" lon="-4.551381389493575"><ele>75.0</ele><time>2026-05-01T17:04:51Z</time></trkpt><trkpt lat="43.37993506819837" lon="-4.551531262131489"><ele>75.0</ele><time>2026-05-01T17:04:52Z</time></trkpt><trkpt lat="43.379976633268875" lon="-4.5516808149095365"><ele>75.0</ele><time>2026-05-01T17:04:53Z</time></trkpt><trkpt lat="43.380019238388705" lon="-4.551827572689649"><ele>75.0</ele><time>2026-05-01T17:04:54Z</time></trkpt><trkpt lat="43.38006305187004" lon="-4.551976810943454"><ele>75.0</ele><time>2026-05-01T17:04:55Z</time></trkpt><trkpt lat="43.38010655350641" lon="-4.552123797406149"><ele>75.0</ele><time>2026-05-01T17:04:56Z</time></trkpt><trkpt lat="43.38015224550484" lon="-4.552273476434914"><ele>74.25</ele><time>2026-05-01T17:04:57Z</time></trkpt><trkpt lat="43.38020180771342" lon="-4.552423070673193"><ele>73.5</ele><time>2026-05-01T17:04:58Z</time></trkpt><trkpt lat="43.380244395785695" lon="-4.552574508229265"><ele>72.75</ele><time>2026-05-01T17:04:59Z</time></trkpt><trkpt lat="43.380294275503665" lon="-4.552726123312552"><ele>72.0</ele><time>2026-05-01T17:05:00Z</time></trkpt><trkpt lat="43.3803388947791" lon="-4.552880189558173"><ele>71.0</ele><time>2026-05-01T17:05:01Z</time></trkpt><trkpt lat="43.38038873012938" lon="-4.553033341700442"><ele>70.0</ele><time>2026-05-01T17:05:02Z</time></trkpt><trkpt lat="43.38043493316174" lon="-4.5531845424141615"><ele>69.0</ele><time>2026-05-01T17:05:03Z</time></trkpt><trkpt lat="43.380483244864" lon="-4.553337730792274"><ele>68.0</ele><time>2026-05-01T17:05:04Z</time></trkpt><trkpt lat="43.380528109308514" lon="-4.553487660696023"><ele>68.0</ele><time>2026-05-01T17:05:05Z</time></trkpt><trkpt lat="43.380576206479056" lon="-4.553649167260635"><ele>68.0</ele><time>2026-05-01T17:05:06Z</time></trkpt><trkpt lat="43.38062399067638" lon="-4.553797489830113"><ele>68.0</ele><time>2026-05-01T17:05:07Z</time></trkpt><trkpt lat="43.380671369266246" lon="-4.553947906988952"><ele>68.0</ele><time>2026-05-01T17:05:08Z</time></trkpt><trkpt lat="43.380716325706004" lon="-4.554107557040559"><ele>67.75</ele><time>2026-05-01T17:05:09Z</time></trkpt><trkpt lat="43.380765844485424" lon="-4.554255449426147"><ele>67.5</ele><time>2026-05-01T17:05:10Z</time></trkpt><trkpt lat="43.38081525232716" lon="-4.554407450050136"><ele>67.25</ele><time>2026-05-01T17:05:11Z</time></trkpt><trkpt lat="43.38086326997182" lon="-4.55456210689894"><ele>67.0</ele><time>2026-05-01T17:05:12Z</time></trkpt><trkpt lat="43.38090986941922" lon="-4.554715083455804"><ele>65.25</ele><time>2026-05-01T17:05:13Z</time></trkpt><trkpt lat="43.380959500960024" lon="-4.554866766594489"><ele>63.5</ele><time>2026-05-01T17:05:14Z</time></trkpt><trkpt lat="43.38100932834546" lon="-4.555012538360169"><ele>61.75</ele><time>2026-05-01T17:05:15Z</time></trkpt><trkpt lat="43.38105396922464" lon="-4.555168942287331"><ele>60.0</ele><time>2026-05-01T17:05:16Z</time></trkpt><trkpt lat="43.38110058446782" lon="-4.555321274878251"><ele>59.75</ele><time>2026-05-01T17:05:17Z</time></trkpt><trkpt lat="43.38114902900125" lon="-4.5554730900307625"><ele>59.5</ele><time>2026-05-01T17:05:18Z</time></trkpt><trkpt lat="43.38119710210185" lon="-4.555617140625549"><ele>59.25</ele><time>2026-05-01T17:05:19Z</time></trkpt><trkpt lat="43.381241237599404" lon="-4.5557645839868774"><ele>59.0</ele><time>2026-05-01T17:05:20Z</time></trkpt><trkpt lat="43.38128302039967" lon="-4.555903208411402"><ele>59.0</ele><time>2026-05-01T17:05:21Z</time></trkpt><trkpt lat="43.381325458100086" lon="-4.5560460987052"><ele>59.00000000000001</ele><time>2026-05-01T17:05:22Z</time></trkpt><trkpt lat="43.38137746484755" lon="-4.556174284248819"><ele>59.00000000000001</ele><time>2026-05-01T17:05:23Z</time></trkpt><trkpt lat="43.38142654680946" lon="-4.556314948481852"><ele>59.0</ele><time>2026-05-01T17:05:24Z</time></trkpt><trkpt lat="43.38146013691515" lon="-4.556434230025525"><ele>59.0</ele><time>2026-05-01T17:05:25Z</time></trkpt><trkpt lat="43.38148762001504" lon="-4.556571709445805"><ele>59.16666666666667</ele><time>2026-05-01T17:05:26Z</time></trkpt><trkpt lat="43.381534032584135" lon="-4.556670077559586"><ele>59.333333333333336</ele><time>2026-05-01T17:05:27Z</time></trkpt><trkpt lat="43.38158677011187" lon="-4.556757265434425"><ele>59.5</ele><time>2026-05-01T17:05:28Z</time></trkpt><trkpt lat="43.381639723384346" lon="-4.556828175576762"><ele>59.66666666666667</ele><time>2026-05-01T17:05:29Z</time></trkpt><trkpt lat="43.38169027065959" lon="-4.556882435660702"><ele>59.833333333333336</ele><time>2026-05-01T17:05:30Z</time></trkpt><trkpt lat="43.381760514763805" lon="-4.556969602960751"><ele>60.0</ele><time>2026-05-01T17:05:32Z</time></trkpt><trkpt lat="43.38179756196458" lon="-4.557043523201663"><ele>60.85714285714286</ele><time>2026-05-01T17:05:34Z</time></trkpt><trkpt lat="43.38182834483575" lon="-4.557120855840515"><ele>61.71428571428571</ele><time>2026-05-01T17:05:48Z</time></trkpt><trkpt lat="43.38187068677412" lon="-4.557185136153341"><ele>62.57142857142857</ele><time>2026-05-01T17:12:56Z</time></trkpt><trkpt lat="43.3818650405802" lon="-4.557283571657608"><ele>63.42857142857143</ele><time>2026-05-01T17:12:59Z</time></trkpt><trkpt lat="43.38184134387157" lon="-4.557388881118319"><ele>64.28571428571429</ele><time>2026-05-01T17:15:14Z</time></trkpt><trkpt lat="43.38183078739437" lon="-4.557486251505126"><ele>65.14285714285714</ele><time>2026-05-01T17:15:16Z</time></trkpt><trkpt lat="43.38181254324682" lon="-4.557598572399475"><ele>66.0</ele><time>2026-05-01T17:15:18Z</time></trkpt><trkpt lat="43.381819590827035" lon="-4.55772478751259"><ele>66.6</ele><time>2026-05-01T17:15:20Z</time></trkpt><trkpt lat="43.381846410819534" lon="-4.557870461208813"><ele>67.19999999999999</ele><time>2026-05-01T17:15:22Z</time></trkpt><trkpt lat="43.38187912856162" lon="-4.558038005269797"><ele>67.80000000000001</ele><time>2026-05-01T17:15:24Z</time></trkpt><trkpt lat="43.38189768637488" lon="-4.5581302737986675"><ele>68.4</ele><time>2026-05-01T17:15:25Z</time></trkpt><trkpt lat="43.38191560937963" lon="-4.5582301780286105"><ele>69.0</ele><time>2026-05-01T17:15:26Z</time></trkpt><trkpt lat="43.38193337373943" lon="-4.558333463904529"><ele>69.0</ele><time>2026-05-01T17:15:27Z</time></trkpt><trkpt lat="43.38194961644737" lon="-4.558441248437629"><ele>69.0</ele><time>2026-05-01T17:15:28Z</time></trkpt><trkpt lat="43.38196454230376" lon="-4.558555096018913"><ele>69.0</ele><time>2026-05-01T17:15:29Z</time></trkpt><trkpt lat="43.381979099378796" lon="-4.558674216811021"><ele>69.0</ele><time>2026-05-01T17:15:30Z</time></trkpt><trkpt lat="43.381991136595246" lon="-4.558793335437298"><ele>69.0</ele><time>2026-05-01T17:15:31Z</time></trkpt><trkpt lat="43.38200247778969" lon="-4.558917057431814"><ele>69.0</ele><time>2026-05-01T17:15:32Z</time></trkpt><trkpt lat="43.38201525873857" lon="-4.559044511168095"><ele>68.8</ele><time>2026-05-01T17:15:33Z</time></trkpt><trkpt lat="43.38202848766548" lon="-4.559177817893317"><ele>68.60000000000001</ele><time>2026-05-01T17:15:34Z</time></trkpt><trkpt lat="43.382036933557785" lon="-4.559307445389206"><ele>68.4</ele><time>2026-05-01T17:15:35Z</time></trkpt><trkpt lat="43.38205037426068" lon="-4.559437065508691"><ele>68.2</ele><time>2026-05-01T17:15:36Z</time></trkpt><trkpt lat="43.38206127308111" lon="-4.559562579912085"><ele>68.0</ele><time>2026-05-01T17:15:37Z</time></trkpt><trkpt lat="43.38207805847976" lon="-4.559701573142091"><ele>68.0</ele><time>2026-05-01T17:15:38Z</time></trkpt><trkpt lat="43.38209085899711" lon="-4.559836680458448"><ele>68.0</ele><time>2026-05-01T17:15:39Z</time></trkpt><trkpt lat="43.38210378609721" lon="-4.559969760820295"><ele>68.0</ele><time>2026-05-01T17:15:40Z</time></trkpt><trkpt lat="43.382116449226935" lon="-4.5601022539938265"><ele>68.0</ele><time>2026-05-01T17:15:41Z</time></trkpt><trkpt lat="43.38212961094484" lon="-4.560227884844441"><ele>68.0</ele><time>2026-05-01T17:15:42Z</time></trkpt><trkpt lat="43.38214429897337" lon="-4.560351251134478"><ele>67.6</ele><time>2026-05-01T17:15:43Z</time></trkpt><trkpt lat="43.382158250206864" lon="-4.560474086993058"><ele>67.19999999999999</ele><time>2026-05-01T17:15:44Z</time></trkpt><trkpt lat="43.382172846906506" lon="-4.560599248554256"><ele>66.8</ele><time>2026-05-01T17:15:45Z</time></trkpt><trkpt lat="43.382188708531544" lon="-4.560729415481176"><ele>66.39999999999999</ele><time>2026-05-01T17:15:46Z</time></trkpt><trkpt lat="43.38220053389887" lon="-4.560866313663028"><ele>66.0</ele><time>2026-05-01T17:15:47Z</time></trkpt><trkpt lat="43.38221100644777" lon="-4.560999340811467"><ele>65.0</ele><time>2026-05-01T17:15:48Z</time></trkpt><trkpt lat="43.38222674672593" lon="-4.561136793357913"><ele>63.99999999999999</ele><time>2026-05-01T17:15:49Z</time></trkpt><trkpt lat="43.38224141553959" lon="-4.5612778004719825"><ele>62.99999999999999</ele><time>2026-05-01T17:15:50Z</time></trkpt><trkpt lat="43.3822549266375" lon="-4.561415113229806"><ele>62.0</ele><time>2026-05-01T17:15:51Z</time></trkpt><trkpt lat="43.38226909449176" lon="-4.5615546405254825"><ele>61.0</ele><time>2026-05-01T17:15:52Z</time></trkpt><trkpt lat="43.38228172623031" lon="-4.561690664017185"><ele>61.0</ele><time>2026-05-01T17:15:53Z</time></trkpt><trkpt lat="43.382293731370815" lon="-4.561826916001761"><ele>60.99999999999999</ele><time>2026-05-01T17:15:54Z</time></trkpt><trkpt lat="43.38231085189094" lon="-4.561964966532438"><ele>60.99999999999999</ele><time>2026-05-01T17:15:55Z</time></trkpt><trkpt lat="43.382326086282156" lon="-4.5621108674946536"><ele>61.0</ele><time>2026-05-01T17:15:56Z</time></trkpt><trkpt lat="43.382343986110435" lon="-4.562256479595732"><ele>61.0</ele><time>2026-05-01T17:15:57Z</time></trkpt><trkpt lat="43.38234614960257" lon="-4.562399494417113"><ele>61.0</ele><time>2026-05-01T17:15:58Z</time></trkpt><trkpt lat="43.38236246377404" lon="-4.562515193063091"><ele>60.99999999999999</ele><time>2026-05-01T17:15:59Z</time></trkpt><trkpt lat="43.382373513922396" lon="-4.5626182870552965"><ele>60.99999999999999</ele><time>2026-05-01T17:16:00Z</time></trkpt><trkpt lat="43.38238533842058" lon="-4.562728605527681"><ele>61.0</ele><time>2026-05-01T17:16:01Z</time></trkpt><trkpt lat="43.38241218210215" lon="-4.5629999412094495"><ele>61.0</ele><time>2026-05-01T17:16:02Z</time></trkpt><trkpt lat="43.38242225719701" lon="-4.563149975249246"><ele>61.0</ele><time>2026-05-01T17:16:03Z</time></trkpt><trkpt lat="43.382431370436215" lon="-4.563304382149977"><ele>61.0</ele><time>2026-05-01T17:16:04Z</time></trkpt><trkpt lat="43.382437881128254" lon="-4.563463971142025"><ele>61.0</ele><time>2026-05-01T17:16:05Z</time></trkpt><trkpt lat="43.38244057796721" lon="-4.5636229752965844"><ele>61.0</ele><time>2026-05-01T17:16:06Z</time></trkpt><trkpt lat="43.38243995838674" lon="-4.563779016615996"><ele>60.8</ele><time>2026-05-01T17:16:07Z</time></trkpt><trkpt lat="43.382437672500586" lon="-4.563933612124371"><ele>60.599999999999994</ele><time>2026-05-01T17:16:08Z</time></trkpt><trkpt lat="43.38242205174008" lon="-4.564080281367998"><ele>60.4</ele><time>2026-05-01T17:16:09Z</time></trkpt><trkpt lat="43.382404458079776" lon="-4.564227036168613"><ele>60.2</ele><time>2026-05-01T17:16:10Z</time></trkpt><trkpt lat="43.38238114289052" lon="-4.564367702522295"><ele>60.0</ele><time>2026-05-01T17:16:11Z</time></trkpt><trkpt lat="43.382354595715434" lon="-4.564515056966695"><ele>59.4</ele><time>2026-05-01T17:16:12Z</time></trkpt><trkpt lat="43.382319115516914" lon="-4.564648059798858"><ele>58.8</ele><time>2026-05-01T17:16:13Z</time></trkpt><trkpt lat="43.382283351433365" lon="-4.564775605553263"><ele>58.2</ele><time>2026-05-01T17:16:14Z</time></trkpt><trkpt lat="43.382249755353655" lon="-4.5648962928920485"><ele>57.6</ele><time>2026-05-01T17:16:15Z</time></trkpt><trkpt lat="43.38221743045032" lon="-4.565014379649762"><ele>57.0</ele><time>2026-05-01T17:16:16Z</time></trkpt><trkpt lat="43.38220176572719" lon="-4.565124332432982"><ele>57.0</ele><time>2026-05-01T17:16:17Z</time></trkpt><trkpt lat="43.38221639675839" lon="-4.565243146993739"><ele>57.0</ele><time>2026-05-01T17:16:18Z</time></trkpt><trkpt lat="43.38225665846489" lon="-4.565356584595746"><ele>57.0</ele><time>2026-05-01T17:16:19Z</time></trkpt><trkpt lat="43.38229756943437" lon="-4.565464718011696"><ele>57.0</ele><time>2026-05-01T17:16:20Z</time></trkpt><trkpt lat="43.38234776300277" lon="-4.5655622816207915"><ele>57.0</ele><time>2026-05-01T17:16:21Z</time></trkpt><trkpt lat="43.382426613113886" lon="-4.565645809711239"><ele>55.8</ele><time>2026-05-01T17:16:22Z</time></trkpt><trkpt lat="43.38253788621984" lon="-4.565644370395082"><ele>54.6</ele><time>2026-05-01T17:16:23Z</time></trkpt><trkpt lat="43.382638282773875" lon="-4.565687196642877"><ele>53.4</ele><time>2026-05-01T17:16:24Z</time></trkpt><trkpt lat="43.382751130019656" lon="-4.565738783931925"><ele>52.199999999999996</ele><time>2026-05-01T17:16:25Z</time></trkpt><trkpt lat="43.382843165751794" lon="-4.565810558596238"><ele>51.0</ele><time>2026-05-01T17:16:26Z</time></trkpt><trkpt lat="43.38294278310987" lon="-4.56583994442305"><ele>51.8</ele><time>2026-05-01T17:16:27Z</time></trkpt><trkpt lat="43.383030214456284" lon="-4.565873973556763"><ele>52.599999999999994</ele><time>2026-05-01T17:16:28Z</time></trkpt><trkpt lat="43.38307962729625" lon="-4.565949578113939"><ele>53.4</ele><time>2026-05-01T17:16:29Z</time></trkpt><trkpt lat="43.383181833590676" lon="-4.565943746388093"><ele>54.2</ele><time>2026-05-01T17:16:30Z</time></trkpt><trkpt lat="43.38327139229927" lon="-4.5658940367834955"><ele>55.0</ele><time>2026-05-01T17:16:31Z</time></trkpt><trkpt lat="43.38335579724306" lon="-4.565840792385403"><ele>54.99999999999999</ele><time>2026-05-01T17:16:32Z</time></trkpt><trkpt lat="43.383440947003514" lon="-4.565827647732306"><ele>55.0</ele><time>2026-05-01T17:16:33Z</time></trkpt><trkpt lat="43.38352616233362" lon="-4.565862333357161"><ele>55.0</ele><time>2026-05-01T17:16:34Z</time></trkpt><trkpt lat="43.383592860757716" lon="-4.565945779664068"><ele>55.0</ele><time>2026-05-01T17:16:35Z</time></trkpt><trkpt lat="43.383643348301064" lon="-4.5660506911450645"><ele>54.99999999999999</ele><time>2026-05-01T17:16:36Z</time></trkpt><trkpt lat="43.383672886469" lon="-4.566170293313934"><ele>55.0</ele><time>2026-05-01T17:16:37Z</time></trkpt><trkpt lat="43.38368739698275" lon="-4.566298995164974"><ele>54.0</ele><time>2026-05-01T17:16:38Z</time></trkpt><trkpt lat="43.38371448440881" lon="-4.566426933750873"><ele>53.0</ele><time>2026-05-01T17:16:39Z</time></trkpt><trkpt lat="43.383785577634015" lon="-4.566529946932366"><ele>52.0</ele><time>2026-05-01T17:16:40Z</time></trkpt><trkpt lat="43.38383223864394" lon="-4.566661589172766"><ele>51.0</ele><time>2026-05-01T17:16:41Z</time></trkpt><trkpt lat="43.38389239335106" lon="-4.566785316561132"><ele>50.0</ele><time>2026-05-01T17:16:42Z</time></trkpt><trkpt lat="43.383947636588786" lon="-4.56692637671605"><ele>49.25</ele><time>2026-05-01T17:16:43Z</time></trkpt><trkpt lat="43.38403357699892" lon="-4.567106015920315"><ele>48.5</ele><time>2026-05-01T17:16:44Z</time></trkpt><trkpt lat="43.384092127274485" lon="-4.567304884087436"><ele>47.75</ele><time>2026-05-01T17:16:45Z</time></trkpt><trkpt lat="43.38410266580889" lon="-4.5674862356066965"><ele>47.0</ele><time>2026-05-01T17:16:47Z</time></trkpt><trkpt lat="43.38416390697087" lon="-4.567638377826033"><ele>47.0</ele><time>2026-05-01T17:16:48Z</time></trkpt><trkpt lat="43.38421320268725" lon="-4.56777531855694"><ele>47.0</ele><time>2026-05-01T17:16:49Z</time></trkpt><trkpt lat="43.38426330082693" lon="-4.567911988529464"><ele>47.0</ele><time>2026-05-01T17:16:50Z</time></trkpt><trkpt lat="43.384312857773196" lon="-4.568045981460225"><ele>47.0</ele><time>2026-05-01T17:16:51Z</time></trkpt><trkpt lat="43.384362524615184" lon="-4.568179277432975"><ele>47.0</ele><time>2026-05-01T17:16:52Z</time></trkpt><trkpt lat="43.38440791824412" lon="-4.568316769939366"><ele>46.6</ele><time>2026-05-01T17:16:53Z</time></trkpt><trkpt lat="43.38445628920404" lon="-4.5684534478455765"><ele>46.2</ele><time>2026-05-01T17:16:54Z</time></trkpt><trkpt lat="43.38450474266964" lon="-4.568589143951967"><ele>45.8</ele><time>2026-05-01T17:16:55Z</time></trkpt><trkpt lat="43.38455283769659" lon="-4.568725650411092"><ele>45.4</ele><time>2026-05-01T17:16:56Z</time></trkpt><trkpt lat="43.384602615795444" lon="-4.5688602454442515"><ele>45.0</ele><time>2026-05-01T17:16:57Z</time></trkpt><trkpt lat="43.38465129030918" lon="-4.568997074481677"><ele>45.0</ele><time>2026-05-01T17:16:58Z</time></trkpt><trkpt lat="43.38470029214311" lon="-4.569131495972401"><ele>45.0</ele><time>2026-05-01T17:16:59Z</time></trkpt><trkpt lat="43.38474510615508" lon="-4.569267080925818"><ele>45.0</ele><time>2026-05-01T17:17:00Z</time></trkpt><trkpt lat="43.384791606634124" lon="-4.569401708524321"><ele>45.0</ele><time>2026-05-01T17:17:01Z</time></trkpt><trkpt lat="43.38484269726232" lon="-4.569540801676536"><ele>45.0</ele><time>2026-05-01T17:17:02Z</time></trkpt><trkpt lat="43.38488593944827" lon="-4.569670183987986"><ele>45.25</ele><time>2026-05-01T17:17:03Z</time></trkpt><trkpt lat="43.3849401298558" lon="-4.5698126135778745"><ele>45.5</ele><time>2026-05-01T17:17:04Z</time></trkpt><trkpt lat="43.385022266657344" lon="-4.56997272208581"><ele>45.75</ele><time>2026-05-01T17:17:05Z</time></trkpt><trkpt lat="43.38508942996791" lon="-4.5701251968237635"><ele>46.0</ele><time>2026-05-01T17:17:06Z</time></trkpt><trkpt lat="43.385083528315796" lon="-4.570226718851416"><ele>46.4</ele><time>2026-05-01T17:17:07Z</time></trkpt><trkpt lat="43.38512247994382" lon="-4.5703621072282745"><ele>46.8</ele><time>2026-05-01T17:17:08Z</time></trkpt><trkpt lat="43.38516247132858" lon="-4.570507680892654"><ele>47.199999999999996</ele><time>2026-05-01T17:17:09Z</time></trkpt><trkpt lat="43.38520251166675" lon="-4.570641257693784"><ele>47.599999999999994</ele><time>2026-05-01T17:17:10Z</time></trkpt><trkpt lat="43.38524173924078" lon="-4.570780384514877"><ele>48.0</ele><time>2026-05-01T17:17:11Z</time></trkpt><trkpt lat="43.38527976919785" lon="-4.570927730209382"><ele>48.0</ele><time>2026-05-01T17:17:12Z</time></trkpt><trkpt lat="43.38531732975182" lon="-4.5710626091957245"><ele>48.0</ele><time>2026-05-01T17:17:13Z</time></trkpt><trkpt lat="43.385352061606206" lon="-4.571204751842106"><ele>48.0</ele><time>2026-05-01T17:17:14Z</time></trkpt><trkpt lat="43.38538781213297" lon="-4.5713474027450705"><ele>48.0</ele><time>2026-05-01T17:17:15Z</time></trkpt><trkpt lat="43.38542589154268" lon="-4.5714884442338075"><ele>48.0</ele><time>2026-05-01T17:17:16Z</time></trkpt><trkpt lat="43.385461198806695" lon="-4.571631898022984"><ele>48.2</ele><time>2026-05-01T17:17:17Z</time></trkpt><trkpt lat="43.38549613047591" lon="-4.571775667307333"><ele>48.4</ele><time>2026-05-01T17:17:18Z</time></trkpt><trkpt lat="43.38552759303611" lon="-4.571922100693723"><ele>48.6</ele><time>2026-05-01T17:17:19Z</time></trkpt><trkpt lat="43.385562283320844" lon="-4.572068401234437"><ele>48.800000000000004</ele><time>2026-05-01T17:17:20Z</time></trkpt><trkpt lat="43.38560004281575" lon="-4.572211200172119"><ele>49.0</ele><time>2026-05-01T17:17:21Z</time></trkpt><trkpt lat="43.38563614405198" lon="-4.572356454754844"><ele>47.400000000000006</ele><time>2026-05-01T17:17:22Z</time></trkpt><trkpt lat="43.38567277107257" lon="-4.572503740288658"><ele>45.8</ele><time>2026-05-01T17:17:23Z</time></trkpt><trkpt lat="43.38571173515655" lon="-4.572647648359855"><ele>44.2</ele><time>2026-05-01T17:17:24Z</time></trkpt><trkpt lat="43.38574969599079" lon="-4.572793052422026"><ele>42.599999999999994</ele><time>2026-05-01T17:17:25Z</time></trkpt><trkpt lat="43.38579021963158" lon="-4.57293530489819"><ele>41.0</ele><time>2026-05-01T17:17:26Z</time></trkpt><trkpt lat="43.38582896951212" lon="-4.573081288654404"><ele>40.599999999999994</ele><time>2026-05-01T17:17:27Z</time></trkpt><trkpt lat="43.38586856285893" lon="-4.5732239217765525"><ele>40.199999999999996</ele><time>2026-05-01T17:17:28Z</time></trkpt><trkpt lat="43.38591324419712" lon="-4.573364923765091"><ele>39.8</ele><time>2026-05-01T17:17:29Z</time></trkpt><trkpt lat="43.38595692999268" lon="-4.573501912863199"><ele>39.4</ele><time>2026-05-01T17:17:30Z</time></trkpt><trkpt lat="43.386004341467206" lon="-4.573639339547018"><ele>39.0</ele><time>2026-05-01T17:17:31Z</time></trkpt><trkpt lat="43.38605260951743" lon="-4.573775440157973"><ele>38.6</ele><time>2026-05-01T17:17:32Z</time></trkpt><trkpt lat="43.38609880682206" lon="-4.573911352516683"><ele>38.2</ele><time>2026-05-01T17:17:33Z</time></trkpt><trkpt lat="43.38614654820199" lon="-4.574047337608759"><ele>37.800000000000004</ele><time>2026-05-01T17:17:34Z</time></trkpt><trkpt lat="43.38619373986659" lon="-4.574184032574645"><ele>37.4</ele><time>2026-05-01T17:17:35Z</time></trkpt><trkpt lat="43.38624334329707" lon="-4.57431674885165"><ele>37.0</ele><time>2026-05-01T17:17:36Z</time></trkpt><trkpt lat="43.38629324519393" lon="-4.574453602897843"><ele>37.2</ele><time>2026-05-01T17:17:37Z</time></trkpt><trkpt lat="43.38634126077167" lon="-4.574590629254437"><ele>37.400000000000006</ele><time>2026-05-01T17:17:38Z</time></trkpt><trkpt lat="43.38639326287879" lon="-4.574726431238849"><ele>37.599999999999994</ele><time>2026-05-01T17:17:39Z</time></trkpt><trkpt lat="43.38644644054192" lon="-4.574860829716418"><ele>37.8</ele><time>2026-05-01T17:17:40Z</time></trkpt><trkpt lat="43.386501048798564" lon="-4.574996840279421"><ele>38.0</ele><time>2026-05-01T17:17:41Z</time></trkpt><trkpt lat="43.386558728909925" lon="-4.575133531852969"><ele>38.0</ele><time>2026-05-01T17:17:42Z</time></trkpt><trkpt lat="43.386618712538535" lon="-4.575269039966047"><ele>38.0</ele><time>2026-05-01T17:17:43Z</time></trkpt><trkpt lat="43.38668169299355" lon="-4.575403198864913"><ele>38.0</ele><time>2026-05-01T17:17:44Z</time></trkpt><trkpt lat="43.386743836892066" lon="-4.575536228137733"><ele>38.0</ele><time>2026-05-01T17:17:45Z</time></trkpt><trkpt lat="43.3868084522265" lon="-4.575669734749867"><ele>37.0</ele><time>2026-05-01T17:17:46Z</time></trkpt><trkpt lat="43.38687556352263" lon="-4.575795924060085"><ele>36.0</ele><time>2026-05-01T17:17:47Z</time></trkpt><trkpt lat="43.38694597125699" lon="-4.575921238544802"><ele>35.0</ele><time>2026-05-01T17:17:48Z</time></trkpt><trkpt lat="43.38702026900325" lon="-4.576040350298207"><ele>34.0</ele><time>2026-05-01T17:17:49Z</time></trkpt><trkpt lat="43.387095051992844" lon="-4.576161760600385"><ele>34.25</ele><time>2026-05-01T17:17:50Z</time></trkpt><trkpt lat="43.387173179758236" lon="-4.576279914599026"><ele>34.5</ele><time>2026-05-01T17:17:51Z</time></trkpt><trkpt lat="43.38725113491938" lon="-4.576399227135827"><ele>34.75</ele><time>2026-05-01T17:17:52Z</time></trkpt><trkpt lat="43.38733205162037" lon="-4.5765090010852445"><ele>35.0</ele><time>2026-05-01T17:17:53Z</time></trkpt><trkpt lat="43.38741287160524" lon="-4.576627136633995"><ele>35.0</ele><time>2026-05-01T17:17:54Z</time></trkpt><trkpt lat="43.38748970150025" lon="-4.576742092161245"><ele>35.0</ele><time>2026-05-01T17:17:55Z</time></trkpt><trkpt lat="43.38757306349074" lon="-4.576852878739947"><ele>35.0</ele><time>2026-05-01T17:17:56Z</time></trkpt><trkpt lat="43.387653817636924" lon="-4.576966619621906"><ele>35.0</ele><time>2026-05-01T17:17:57Z</time></trkpt><trkpt lat="43.38773311992605" lon="-4.577083230537608"><ele>35.25</ele><time>2026-05-01T17:17:58Z</time></trkpt><trkpt lat="43.387812832060746" lon="-4.577197621930228"><ele>35.5</ele><time>2026-05-01T17:17:59Z</time></trkpt><trkpt lat="43.38789486239569" lon="-4.577311124080958"><ele>35.75</ele><time>2026-05-01T17:18:00Z</time></trkpt><trkpt lat="43.38797225656158" lon="-4.57742327577708"><ele>36.0</ele><time>2026-05-01T17:18:01Z</time></trkpt><trkpt lat="43.38805150799975" lon="-4.577539997299659"><ele>35.0</ele><time>2026-05-01T17:18:02Z</time></trkpt><trkpt lat="43.38813110528169" lon="-4.577652943763111"><ele>34.0</ele><time>2026-05-01T17:18:03Z</time></trkpt><trkpt lat="43.388210982916995" lon="-4.577767005864187"><ele>33.0</ele><time>2026-05-01T17:18:04Z</time></trkpt><trkpt lat="43.38829219634498" lon="-4.577879806167305"><ele>32.0</ele><time>2026-05-01T17:18:05Z</time></trkpt><trkpt lat="43.38837296043391" lon="-4.577992528860592"><ele>30.25</ele><time>2026-05-01T17:18:06Z</time></trkpt><trkpt lat="43.388453599373705" lon="-4.578106983214203"><ele>28.5</ele><time>2026-05-01T17:18:07Z</time></trkpt><trkpt lat="43.388536509525245" lon="-4.5782117058473455"><ele>26.75</ele><time>2026-05-01T17:18:08Z</time></trkpt><trkpt lat="43.38862555906318" lon="-4.578313696779371"><ele>25.0</ele><time>2026-05-01T17:18:09Z</time></trkpt><trkpt lat="43.38871679235663" lon="-4.578407935336289"><ele>25.0</ele><time>2026-05-01T17:18:10Z</time></trkpt><trkpt lat="43.3888128671095" lon="-4.578503382599342"><ele>25.0</ele><time>2026-05-01T17:18:11Z</time></trkpt><trkpt lat="43.38890989904746" lon="-4.57858779790166"><ele>25.0</ele><time>2026-05-01T17:18:12Z</time></trkpt><trkpt lat="43.3890122459764" lon="-4.5786574976390115"><ele>25.0</ele><time>2026-05-01T17:18:13Z</time></trkpt><trkpt lat="43.389112871366436" lon="-4.578729364553059"><ele>25.2</ele><time>2026-05-01T17:18:14Z</time></trkpt><trkpt lat="43.38921999031319" lon="-4.578778975576123"><ele>25.4</ele><time>2026-05-01T17:18:15Z</time></trkpt><trkpt lat="43.389325452614095" lon="-4.578844907637128"><ele>25.6</ele><time>2026-05-01T17:18:16Z</time></trkpt><trkpt lat="43.38943196963183" lon="-4.578888522489602"><ele>25.8</ele><time>2026-05-01T17:18:17Z</time></trkpt><trkpt lat="43.38953523589398" lon="-4.57893670854234"><ele>26.0</ele><time>2026-05-01T17:18:18Z</time></trkpt><trkpt lat="43.389646335015456" lon="-4.578988138689174"><ele>22.75</ele><time>2026-05-01T17:18:19Z</time></trkpt><trkpt lat="43.38975440166176" lon="-4.579042002624333"><ele>19.5</ele><time>2026-05-01T17:18:20Z</time></trkpt><trkpt lat="43.389862187691755" lon="-4.579096443525568"><ele>16.25</ele><time>2026-05-01T17:18:21Z</time></trkpt><trkpt lat="43.38997115961743" lon="-4.579149660759835"><ele>13.0</ele><time>2026-05-01T17:18:22Z</time></trkpt><trkpt lat="43.39006575933376" lon="-4.579237673948629"><ele>13.0</ele><time>2026-05-01T17:18:23Z</time></trkpt><trkpt lat="43.390176616948644" lon="-4.579293827656308"><ele>13.0</ele><time>2026-05-01T17:18:24Z</time></trkpt><trkpt lat="43.39027376503893" lon="-4.579374575961938"><ele>13.0</ele><time>2026-05-01T17:18:25Z</time></trkpt><trkpt lat="43.39036443398048" lon="-4.579470153482756"><ele>13.0</ele><time>2026-05-01T17:18:26Z</time></trkpt><trkpt lat="43.39045053303678" lon="-4.579568770795371"><ele>11.8</ele><time>2026-05-01T17:18:27Z</time></trkpt><trkpt lat="43.39053133328664" lon="-4.579679658698853"><ele>10.600000000000001</ele><time>2026-05-01T17:18:28Z</time></trkpt><trkpt lat="43.39060927187015" lon="-4.57979103057739"><ele>9.399999999999999</ele><time>2026-05-01T17:18:29Z</time></trkpt><trkpt lat="43.39068636589727" lon="-4.579901837896975"><ele>8.2</ele><time>2026-05-01T17:18:30Z</time></trkpt><trkpt lat="43.3907567392664" lon="-4.580016005181943"><ele>7.0</ele><time>2026-05-01T17:18:31Z</time></trkpt><trkpt lat="43.3908251504338" lon="-4.580131922920348"><ele>7.0</ele><time>2026-05-01T17:18:32Z</time></trkpt><trkpt lat="43.39089070029579" lon="-4.580251155108404"><ele>6.999999999999999</ele><time>2026-05-01T17:18:33Z</time></trkpt><trkpt lat="43.390952054206416" lon="-4.580369499177832"><ele>6.999999999999999</ele><time>2026-05-01T17:18:34Z</time></trkpt><trkpt lat="43.391015008261405" lon="-4.580480808221239"><ele>7.0</ele><time>2026-05-01T17:18:35Z</time></trkpt><trkpt lat="43.39108363691806" lon="-4.580594850959504"><ele>7.0</ele><time>2026-05-01T17:18:36Z</time></trkpt><trkpt lat="43.391144693377804" lon="-4.580706082925439"><ele>7.8</ele><time>2026-05-01T17:18:37Z</time></trkpt><trkpt lat="43.39120690375796" lon="-4.580819563932746"><ele>8.6</ele><time>2026-05-01T17:18:38Z</time></trkpt><trkpt lat="43.391266956568856" lon="-4.580930177437927"><ele>9.4</ele><time>2026-05-01T17:18:39Z</time></trkpt><trkpt lat="43.39133091652114" lon="-4.5810343332787316"><ele>10.200000000000001</ele><time>2026-05-01T17:18:40Z</time></trkpt><trkpt lat="43.391392157579524" lon="-4.581139201951368"><ele>11.0</ele><time>2026-05-01T17:18:41Z</time></trkpt><trkpt lat="43.39145110209252" lon="-4.581247519657875"><ele>14.600000000000001</ele><time>2026-05-01T17:18:42Z</time></trkpt><trkpt lat="43.39150956116768" lon="-4.581354884927156"><ele>18.2</ele><time>2026-05-01T17:18:43Z</time></trkpt><trkpt lat="43.39156689398502" lon="-4.581461118323777"><ele>21.799999999999997</ele><time>2026-05-01T17:18:44Z</time></trkpt><trkpt lat="43.39162194569727" lon="-4.581565543257308"><ele>25.4</ele><time>2026-05-01T17:18:45Z</time></trkpt><trkpt lat="43.39167919636419" lon="-4.581673349944559"><ele>29.0</ele><time>2026-05-01T17:18:46Z</time></trkpt><trkpt lat="43.39173941568936" lon="-4.581770874679018"><ele>29.0</ele><time>2026-05-01T17:18:47Z</time></trkpt><trkpt lat="43.391793680919605" lon="-4.581867210666756"><ele>29.0</ele><time>2026-05-01T17:18:48Z</time></trkpt><trkpt lat="43.39184994302477" lon="-4.5819658590744705"><ele>29.0</ele><time>2026-05-01T17:18:49Z</time></trkpt><trkpt lat="43.391902657834606" lon="-4.5820677101885545"><ele>29.0</ele><time>2026-05-01T17:18:50Z</time></trkpt><trkpt lat="43.39195742445227" lon="-4.582167137610485"><ele>29.0</ele><time>2026-05-01T17:18:51Z</time></trkpt><trkpt lat="43.392012718814854" lon="-4.5822681013983075"><ele>30.2</ele><time>2026-05-01T17:18:52Z</time></trkpt><trkpt lat="43.3920676245132" lon="-4.582372098853467"><ele>31.4</ele><time>2026-05-01T17:18:53Z</time></trkpt><trkpt lat="43.39212033522912" lon="-4.582473920809578"><ele>32.6</ele><time>2026-05-01T17:18:54Z</time></trkpt><trkpt lat="43.3921709701535" lon="-4.582582450246309"><ele>33.8</ele><time>2026-05-01T17:18:55Z</time></trkpt><trkpt lat="43.39222019996984" lon="-4.58269060679224"><ele>35.0</ele><time>2026-05-01T17:18:56Z</time></trkpt><trkpt lat="43.39226988259575" lon="-4.582795890432264"><ele>36.4</ele><time>2026-05-01T17:18:57Z</time></trkpt><trkpt lat="43.39231795365385" lon="-4.582906901008806"><ele>37.8</ele><time>2026-05-01T17:18:58Z</time></trkpt><trkpt lat="43.392363135185406" lon="-4.583012758040911"><ele>39.2</ele><time>2026-05-01T17:18:59Z</time></trkpt><trkpt lat="43.39241084918585" lon="-4.583119115736572"><ele>40.6</ele><time>2026-05-01T17:19:00Z</time></trkpt><trkpt lat="43.39246010200554" lon="-4.583222370456918"><ele>42.0</ele><time>2026-05-01T17:19:01Z</time></trkpt><trkpt lat="43.39250158547355" lon="-4.583334878294306"><ele>42.0</ele><time>2026-05-01T17:19:02Z</time></trkpt><trkpt lat="43.39254691979506" lon="-4.583441911952302"><ele>42.0</ele><time>2026-05-01T17:19:03Z</time></trkpt><trkpt lat="43.392593871658974" lon="-4.5835473867470125"><ele>42.0</ele><time>2026-05-01T17:19:04Z</time></trkpt><trkpt lat="43.392640146307436" lon="-4.583655072922507"><ele>42.0</ele><time>2026-05-01T17:19:05Z</time></trkpt><trkpt lat="43.392686738675145" lon="-4.583761368254747"><ele>42.0</ele><time>2026-05-01T17:19:06Z</time></trkpt><trkpt lat="43.39273371157133" lon="-4.583870263431262"><ele>42.0</ele><time>2026-05-01T17:19:07Z</time></trkpt><trkpt lat="43.39277444431965" lon="-4.583974106949011"><ele>42.0</ele><time>2026-05-01T17:19:08Z</time></trkpt><trkpt lat="43.39282196139583" lon="-4.584084070166296"><ele>42.0</ele><time>2026-05-01T17:19:09Z</time></trkpt><trkpt lat="43.39286646162578" lon="-4.58418898671056"><ele>42.0</ele><time>2026-05-01T17:19:10Z</time></trkpt><trkpt lat="43.39291416450958" lon="-4.584293619574561"><ele>42.0</ele><time>2026-05-01T17:19:11Z</time></trkpt><trkpt lat="43.39296114487786" lon="-4.584396884735528"><ele>42.0</ele><time>2026-05-01T17:19:12Z</time></trkpt><trkpt lat="43.39300387742389" lon="-4.584505931176087"><ele>43.2</ele><time>2026-05-01T17:19:13Z</time></trkpt><trkpt lat="43.393049300535836" lon="-4.584611115420616"><ele>44.400000000000006</ele><time>2026-05-01T17:19:14Z</time></trkpt><trkpt lat="43.39309505390826" lon="-4.584718009608982"><ele>45.599999999999994</ele><time>2026-05-01T17:19:15Z</time></trkpt><trkpt lat="43.39314049054703" lon="-4.584823256423271"><ele>46.8</ele><time>2026-05-01T17:19:16Z</time></trkpt><trkpt lat="43.39318749152899" lon="-4.584928928566304"><ele>48.0</ele><time>2026-05-01T17:19:17Z</time></trkpt><trkpt lat="43.393235827936856" lon="-4.585037234440699"><ele>48.0</ele><time>2026-05-01T17:19:18Z</time></trkpt><trkpt lat="43.39328234497377" lon="-4.585145118828214"><ele>48.0</ele><time>2026-05-01T17:19:19Z</time></trkpt><trkpt lat="43.39332867375697" lon="-4.585257776864862"><ele>48.0</ele><time>2026-05-01T17:19:20Z</time></trkpt><trkpt lat="43.39337509838964" lon="-4.585368899733131"><ele>48.0</ele><time>2026-05-01T17:19:21Z</time></trkpt><trkpt lat="43.393424666043906" lon="-4.585483064652405"><ele>48.0</ele><time>2026-05-01T17:19:22Z</time></trkpt><trkpt lat="43.39347278376932" lon="-4.585596080644439"><ele>47.4</ele><time>2026-05-01T17:19:23Z</time></trkpt><trkpt lat="43.39352257703451" lon="-4.585712869810676"><ele>46.8</ele><time>2026-05-01T17:19:24Z</time></trkpt><trkpt lat="43.39357246214643" lon="-4.585831086720098"><ele>46.2</ele><time>2026-05-01T17:19:25Z</time></trkpt><trkpt lat="43.39362209733466" lon="-4.5859504713897605"><ele>45.6</ele><time>2026-05-01T17:19:26Z</time></trkpt><trkpt lat="43.393674406285086" lon="-4.586072268724755"><ele>45.0</ele><time>2026-05-01T17:19:27Z</time></trkpt><trkpt lat="43.393726188733076" lon="-4.586196092474143"><ele>45.0</ele><time>2026-05-01T17:19:28Z</time></trkpt><trkpt lat="43.3937832688062" lon="-4.586321642844036"><ele>45.0</ele><time>2026-05-01T17:19:29Z</time></trkpt><trkpt lat="43.39384043106024" lon="-4.586449976951655"><ele>45.0</ele><time>2026-05-01T17:19:30Z</time></trkpt><trkpt lat="43.393886561658206" lon="-4.586558288752799"><ele>45.0</ele><time>2026-05-01T17:19:31Z</time></trkpt><trkpt lat="43.39393537334344" lon="-4.586700454579576"><ele>45.0</ele><time>2026-05-01T17:19:33Z</time></trkpt><trkpt lat="43.39405151734258" lon="-4.586961600710543"><ele>45.8</ele><time>2026-05-01T17:19:34Z</time></trkpt><trkpt lat="43.39410262594823" lon="-4.587097749112103"><ele>46.6</ele><time>2026-05-01T17:19:35Z</time></trkpt><trkpt lat="43.39415346852559" lon="-4.587230799460069"><ele>47.400000000000006</ele><time>2026-05-01T17:19:36Z</time></trkpt><trkpt lat="43.3942082881725" lon="-4.587363380616709"><ele>48.2</ele><time>2026-05-01T17:19:37Z</time></trkpt><trkpt lat="43.39426227418075" lon="-4.587497178001998"><ele>49.0</ele><time>2026-05-01T17:19:38Z</time></trkpt><trkpt lat="43.39431969062096" lon="-4.587623553728831"><ele>49.0</ele><time>2026-05-01T17:19:39Z</time></trkpt><trkpt lat="43.39437054042155" lon="-4.587755245007983"><ele>49.0</ele><time>2026-05-01T17:19:40Z</time></trkpt><trkpt lat="43.39442775643477" lon="-4.587883038111338"><ele>49.0</ele><time>2026-05-01T17:19:41Z</time></trkpt><trkpt lat="43.39448346080525" lon="-4.588016686125083"><ele>49.0</ele><time>2026-05-01T17:19:42Z</time></trkpt><trkpt lat="43.39453764270944" lon="-4.588152839819956"><ele>49.0</ele><time>2026-05-01T17:19:43Z</time></trkpt><trkpt lat="43.39459018927313" lon="-4.588286556248159"><ele>49.800000000000004</ele><time>2026-05-01T17:19:44Z</time></trkpt><trkpt lat="43.394641697154704" lon="-4.588421845353987"><ele>50.6</ele><time>2026-05-01T17:19:45Z</time></trkpt><trkpt lat="43.39468472641047" lon="-4.588560023018985"><ele>51.4</ele><time>2026-05-01T17:19:46Z</time></trkpt><trkpt lat="43.39472888414327" lon="-4.588696156519989"><ele>52.2</ele><time>2026-05-01T17:19:47Z</time></trkpt><trkpt lat="43.3947755511573" lon="-4.588838499381513"><ele>53.0</ele><time>2026-05-01T17:19:48Z</time></trkpt><trkpt lat="43.39481285519106" lon="-4.58897538932585"><ele>51.75</ele><time>2026-05-01T17:19:49Z</time></trkpt><trkpt lat="43.39485434722273" lon="-4.5891181582132825"><ele>50.5</ele><time>2026-05-01T17:19:50Z</time></trkpt><trkpt lat="43.394888730002805" lon="-4.589262970584383"><ele>49.25</ele><time>2026-05-01T17:19:51Z</time></trkpt><trkpt lat="43.394952002232074" lon="-4.589408848637352"><ele>48.0</ele><time>2026-05-01T17:19:52Z</time></trkpt><trkpt lat="43.39495974265699" lon="-4.589556766703276"><ele>48.0</ele><time>2026-05-01T17:19:53Z</time></trkpt><trkpt lat="43.394988441030605" lon="-4.589701234680099"><ele>48.0</ele><time>2026-05-01T17:19:54Z</time></trkpt><trkpt lat="43.39501274775308" lon="-4.589848046388532"><ele>48.0</ele><time>2026-05-01T17:19:55Z</time></trkpt><trkpt lat="43.3950254442358" lon="-4.590005458009274"><ele>48.0</ele><time>2026-05-01T17:19:56Z</time></trkpt><trkpt lat="43.395047029775334" lon="-4.5901547079714975"><ele>48.0</ele><time>2026-05-01T17:19:57Z</time></trkpt><trkpt lat="43.395066700802715" lon="-4.590306317984869"><ele>48.599999999999994</ele><time>2026-05-01T17:19:58Z</time></trkpt><trkpt lat="43.395081132791546" lon="-4.590454258175303"><ele>49.199999999999996</ele><time>2026-05-01T17:19:59Z</time></trkpt><trkpt lat="43.39508790684168" lon="-4.590602068638682"><ele>49.8</ele><time>2026-05-01T17:20:00Z</time></trkpt><trkpt lat="43.39509327189357" lon="-4.590752463582809"><ele>50.4</ele><time>2026-05-01T17:20:01Z</time></trkpt><trkpt lat="43.39509538755301" lon="-4.590900872635479"><ele>51.0</ele><time>2026-05-01T17:20:02Z</time></trkpt><trkpt lat="43.395105248936794" lon="-4.591028548458931"><ele>51.0</ele><time>2026-05-01T17:20:03Z</time></trkpt><trkpt lat="43.39510674889804" lon="-4.591141603552409"><ele>51.0</ele><time>2026-05-01T17:20:04Z</time></trkpt><trkpt lat="43.39510421842862" lon="-4.591242769344984"><ele>51.0</ele><time>2026-05-01T17:20:05Z</time></trkpt><trkpt lat="43.395096477330114" lon="-4.591468113680515"><ele>51.0</ele><time>2026-05-01T17:20:06Z</time></trkpt><trkpt lat="43.39509709688586" lon="-4.591635147195743"><ele>51.0</ele><time>2026-05-01T17:20:07Z</time></trkpt><trkpt lat="43.39508083422428" lon="-4.591761456655085"><ele>51.0</ele><time>2026-05-01T17:20:08Z</time></trkpt><trkpt lat="43.39505257454344" lon="-4.591905056297721"><ele>51.0</ele><time>2026-05-01T17:20:09Z</time></trkpt><trkpt lat="43.39504069178003" lon="-4.592049725563836"><ele>51.0</ele><time>2026-05-01T17:20:10Z</time></trkpt><trkpt lat="43.395040387597646" lon="-4.592196070438313"><ele>51.0</ele><time>2026-05-01T17:20:11Z</time></trkpt><trkpt lat="43.395005411616204" lon="-4.592349184370794"><ele>51.0</ele><time>2026-05-01T17:20:12Z</time></trkpt><trkpt lat="43.39500236981826" lon="-4.592490011442248"><ele>51.0</ele><time>2026-05-01T17:20:13Z</time></trkpt><trkpt lat="43.39498144880031" lon="-4.592635813551303"><ele>51.0</ele><time>2026-05-01T17:20:14Z</time></trkpt><trkpt lat="43.3949462030344" lon="-4.592771271829558"><ele>51.0</ele><time>2026-05-01T17:20:15Z</time></trkpt><trkpt lat="43.39493623658096" lon="-4.5929258252984315"><ele>51.0</ele><time>2026-05-01T17:20:16Z</time></trkpt><trkpt lat="43.39491309278904" lon="-4.593071752760536"><ele>51.0</ele><time>2026-05-01T17:20:17Z</time></trkpt><trkpt lat="43.39488975010012" lon="-4.593218354072227"><ele>50.8</ele><time>2026-05-01T17:20:18Z</time></trkpt><trkpt lat="43.394865511612046" lon="-4.593363376953337"><ele>50.599999999999994</ele><time>2026-05-01T17:20:19Z</time></trkpt><trkpt lat="43.39484089413641" lon="-4.593510667359544"><ele>50.4</ele><time>2026-05-01T17:20:20Z</time></trkpt><trkpt lat="43.39481543515352" lon="-4.593659274562612"><ele>50.2</ele><time>2026-05-01T17:20:21Z</time></trkpt><trkpt lat="43.39478981139873" lon="-4.593806873973813"><ele>50.0</ele><time>2026-05-01T17:20:22Z</time></trkpt><trkpt lat="43.394763764334705" lon="-4.593956911725685"><ele>49.6</ele><time>2026-05-01T17:20:23Z</time></trkpt><trkpt lat="43.394736897091285" lon="-4.594105764166222"><ele>49.2</ele><time>2026-05-01T17:20:24Z</time></trkpt><trkpt lat="43.394708020107664" lon="-4.594252769516476"><ele>48.8</ele><time>2026-05-01T17:20:25Z</time></trkpt><trkpt lat="43.39467683990295" lon="-4.59439825610845"><ele>48.4</ele><time>2026-05-01T17:20:26Z</time></trkpt><trkpt lat="43.39464487855123" lon="-4.594545262308408"><ele>48.0</ele><time>2026-05-01T17:20:27Z</time></trkpt><trkpt lat="43.39459844572341" lon="-4.594683071133604"><ele>48.599999999999994</ele><time>2026-05-01T17:20:28Z</time></trkpt><trkpt lat="43.39458013235545" lon="-4.594835282990373"><ele>49.199999999999996</ele><time>2026-05-01T17:20:29Z</time></trkpt><trkpt lat="43.39454463719496" lon="-4.594983361936656"><ele>49.8</ele><time>2026-05-01T17:20:30Z</time></trkpt><trkpt lat="43.39450789413691" lon="-4.595127413548372"><ele>50.4</ele><time>2026-05-01T17:20:31Z</time></trkpt><trkpt lat="43.39447085356761" lon="-4.595271092532665"><ele>51.0</ele><time>2026-05-01T17:20:32Z</time></trkpt><trkpt lat="43.3944325687249" lon="-4.5954157491839425"><ele>51.0</ele><time>2026-05-01T17:20:33Z</time></trkpt><trkpt lat="43.39439452607636" lon="-4.59555949067078"><ele>51.0</ele><time>2026-05-01T17:20:34Z</time></trkpt><trkpt lat="43.39435649036012" lon="-4.595703206044877"><ele>51.0</ele><time>2026-05-01T17:20:35Z</time></trkpt><trkpt lat="43.39431888824761" lon="-4.59584649903329"><ele>51.0</ele><time>2026-05-01T17:20:36Z</time></trkpt><trkpt lat="43.39428189531145" lon="-4.595990867520157"><ele>51.0</ele><time>2026-05-01T17:20:37Z</time></trkpt><trkpt lat="43.394244963261976" lon="-4.596133370899595"><ele>50.199999999999996</ele><time>2026-05-01T17:20:38Z</time></trkpt><trkpt lat="43.39420666341471" lon="-4.596273521765111"><ele>49.4</ele><time>2026-05-01T17:20:39Z</time></trkpt><trkpt lat="43.39416940212524" lon="-4.596415150848978"><ele>48.6</ele><time>2026-05-01T17:20:40Z</time></trkpt><trkpt lat="43.394132584420305" lon="-4.5965601830180525"><ele>47.8</ele><time>2026-05-01T17:20:41Z</time></trkpt><trkpt lat="43.394096189785586" lon="-4.596703548655683"><ele>47.0</ele><time>2026-05-01T17:20:42Z</time></trkpt><trkpt lat="43.39404528209427" lon="-4.596837203049113"><ele>47.0</ele><time>2026-05-01T17:20:43Z</time></trkpt><trkpt lat="43.394012427074934" lon="-4.596982300406854"><ele>47.0</ele><time>2026-05-01T17:20:44Z</time></trkpt><trkpt lat="43.393979113022034" lon="-4.597126447648928"><ele>47.0</ele><time>2026-05-01T17:20:45Z</time></trkpt><trkpt lat="43.39394279135486" lon="-4.5972722342916414"><ele>47.0</ele><time>2026-05-01T17:20:46Z</time></trkpt><trkpt lat="43.393910557194026" lon="-4.597416403145808"><ele>47.0</ele><time>2026-05-01T17:20:47Z</time></trkpt><trkpt lat="43.39387707312329" lon="-4.597558640646517"><ele>46.6</ele><time>2026-05-01T17:20:48Z</time></trkpt><trkpt lat="43.39384532088924" lon="-4.597704852200623"><ele>46.2</ele><time>2026-05-01T17:20:49Z</time></trkpt><trkpt lat="43.39381587953057" lon="-4.59784817843291"><ele>45.8</ele><time>2026-05-01T17:20:50Z</time></trkpt><trkpt lat="43.39379193644835" lon="-4.597997885511782"><ele>45.4</ele><time>2026-05-01T17:20:51Z</time></trkpt><trkpt lat="43.39375681865026" lon="-4.598139855906109"><ele>45.0</ele><time>2026-05-01T17:20:52Z</time></trkpt><trkpt lat="43.393729621798386" lon="-4.598285264214107"><ele>47.0</ele><time>2026-05-01T17:20:53Z</time></trkpt><trkpt lat="43.39370363736793" lon="-4.598430370551223"><ele>49.0</ele><time>2026-05-01T17:20:54Z</time></trkpt><trkpt lat="43.393677561008886" lon="-4.598575798248377"><ele>51.0</ele><time>2026-05-01T17:20:55Z</time></trkpt><trkpt lat="43.3936527004693" lon="-4.598721618869962"><ele>53.0</ele><time>2026-05-01T17:20:56Z</time></trkpt><trkpt lat="43.39362715826656" lon="-4.598868031729724"><ele>55.0</ele><time>2026-05-01T17:20:57Z</time></trkpt><trkpt lat="43.393606708158174" lon="-4.599016513723732"><ele>55.0</ele><time>2026-05-01T17:20:58Z</time></trkpt><trkpt lat="43.393581440416426" lon="-4.599160680989592"><ele>55.0</ele><time>2026-05-01T17:20:59Z</time></trkpt><trkpt lat="43.39356429379019" lon="-4.599306928945831"><ele>55.0</ele><time>2026-05-01T17:21:00Z</time></trkpt><trkpt lat="43.393539403540935" lon="-4.59945689144722"><ele>55.0</ele><time>2026-05-01T17:21:01Z</time></trkpt><trkpt lat="43.393517726515796" lon="-4.599604022425534"><ele>55.0</ele><time>2026-05-01T17:21:02Z</time></trkpt><trkpt lat="43.3934967999977" lon="-4.599750488280718"><ele>54.6</ele><time>2026-05-01T17:21:03Z</time></trkpt><trkpt lat="43.39347782774052" lon="-4.599898128627255"><ele>54.2</ele><time>2026-05-01T17:21:04Z</time></trkpt><trkpt lat="43.39345961307226" lon="-4.6000474324258525"><ele>53.8</ele><time>2026-05-01T17:21:05Z</time></trkpt><trkpt lat="43.393440830323215" lon="-4.600195049895402"><ele>53.4</ele><time>2026-05-01T17:21:06Z</time></trkpt><trkpt lat="43.39342093821378" lon="-4.600343797127111"><ele>53.0</ele><time>2026-05-01T17:21:07Z</time></trkpt><trkpt lat="43.393401133716644" lon="-4.600492678377965"><ele>52.4</ele><time>2026-05-01T17:21:08Z</time></trkpt><trkpt lat="43.39338593380858" lon="-4.600641062764549"><ele>51.8</ele><time>2026-05-01T17:21:09Z</time></trkpt><trkpt lat="43.3933708920416" lon="-4.600791193429956"><ele>51.2</ele><time>2026-05-01T17:21:10Z</time></trkpt><trkpt lat="43.39335680812936" lon="-4.60094172320879"><ele>50.6</ele><time>2026-05-01T17:21:11Z</time></trkpt><trkpt lat="43.39334271188599" lon="-4.601092890962933"><ele>50.0</ele><time>2026-05-01T17:21:12Z</time></trkpt><trkpt lat="43.39333011443754" lon="-4.601246070444275"><ele>49.8</ele><time>2026-05-01T17:21:13Z</time></trkpt><trkpt lat="43.393314015581694" lon="-4.601397303258061"><ele>49.6</ele><time>2026-05-01T17:21:14Z</time></trkpt><trkpt lat="43.39330811624937" lon="-4.6015517304169204"><ele>49.400000000000006</ele><time>2026-05-01T17:21:15Z</time></trkpt><trkpt lat="43.39329641857509" lon="-4.60170554828466"><ele>49.2</ele><time>2026-05-01T17:21:16Z</time></trkpt><trkpt lat="43.3932859923631" lon="-4.601860164175965"><ele>49.0</ele><time>2026-05-01T17:21:17Z</time></trkpt><trkpt lat="43.39327540794578" lon="-4.602015852328255"><ele>49.5</ele><time>2026-05-01T17:21:18Z</time></trkpt><trkpt lat="43.39327361301155" lon="-4.602170503117942"><ele>50.0</ele><time>2026-05-01T17:21:19Z</time></trkpt><trkpt lat="43.39327129234537" lon="-4.602327336975618"><ele>50.5</ele><time>2026-05-01T17:21:20Z</time></trkpt><trkpt lat="43.39326528451338" lon="-4.602484762994828"><ele>51.0</ele><time>2026-05-01T17:21:21Z</time></trkpt><trkpt lat="43.393259079863746" lon="-4.602637665569169"><ele>51.0</ele><time>2026-05-01T17:21:22Z</time></trkpt><trkpt lat="43.393256676115286" lon="-4.602797419933678"><ele>51.0</ele><time>2026-05-01T17:21:23Z</time></trkpt><trkpt lat="43.39325413290522" lon="-4.602955972754876"><ele>51.0</ele><time>2026-05-01T17:21:24Z</time></trkpt><trkpt lat="43.39324981506811" lon="-4.6031124162703545"><ele>51.0</ele><time>2026-05-01T17:21:25Z</time></trkpt><trkpt lat="43.39324881736667" lon="-4.603271321455981"><ele>50.0</ele><time>2026-05-01T17:21:26Z</time></trkpt><trkpt lat="43.39325172212778" lon="-4.6034308400501365"><ele>49.0</ele><time>2026-05-01T17:21:27Z</time></trkpt><trkpt lat="43.393249210033424" lon="-4.603587337825814"><ele>48.0</ele><time>2026-05-01T17:21:28Z</time></trkpt><trkpt lat="43.39325177159927" lon="-4.6037474490470345"><ele>47.0</ele><time>2026-05-01T17:21:29Z</time></trkpt><trkpt lat="43.39325289209941" lon="-4.603906021698872"><ele>47.0</ele><time>2026-05-01T17:21:30Z</time></trkpt><trkpt lat="43.3932585979396" lon="-4.604065863624662"><ele>47.0</ele><time>2026-05-01T17:21:31Z</time></trkpt><trkpt lat="43.39326377890592" lon="-4.604229325886442"><ele>47.0</ele><time>2026-05-01T17:21:32Z</time></trkpt><trkpt lat="43.393271143603364" lon="-4.604382934528502"><ele>47.0</ele><time>2026-05-01T17:21:33Z</time></trkpt><trkpt lat="43.39327811927012" lon="-4.604540013471287"><ele>46.75</ele><time>2026-05-01T17:21:34Z</time></trkpt><trkpt lat="43.39328512604674" lon="-4.604697018788347"><ele>46.5</ele><time>2026-05-01T17:21:35Z</time></trkpt><trkpt lat="43.393295371252755" lon="-4.604853737440328"><ele>46.25</ele><time>2026-05-01T17:21:36Z</time></trkpt><trkpt lat="43.39329854260446" lon="-4.605008121839856"><ele>46.0</ele><time>2026-05-01T17:21:37Z</time></trkpt><trkpt lat="43.39330524474167" lon="-4.6051636115307195"><ele>46.0</ele><time>2026-05-01T17:21:38Z</time></trkpt><trkpt lat="43.393308704257315" lon="-4.605318686071147"><ele>46.0</ele><time>2026-05-01T17:21:39Z</time></trkpt><trkpt lat="43.39331454014003" lon="-4.605471689785652"><ele>46.0</ele><time>2026-05-01T17:21:40Z</time></trkpt><trkpt lat="43.39331653860819" lon="-4.605629387091372"><ele>46.0</ele><time>2026-05-01T17:21:41Z</time></trkpt><trkpt lat="43.39331340827194" lon="-4.60578268339011"><ele>45.0</ele><time>2026-05-01T17:21:42Z</time></trkpt><trkpt lat="43.3933047721149" lon="-4.6059401554142125"><ele>44.0</ele><time>2026-05-01T17:21:43Z</time></trkpt><trkpt lat="43.39329126181036" lon="-4.606092096975772"><ele>43.0</ele><time>2026-05-01T17:21:44Z</time></trkpt><trkpt lat="43.393279872170204" lon="-4.606245741116311"><ele>42.0</ele><time>2026-05-01T17:21:45Z</time></trkpt><trkpt lat="43.393265487271066" lon="-4.606397754299554"><ele>41.8</ele><time>2026-05-01T17:21:46Z</time></trkpt><trkpt lat="43.39324562348532" lon="-4.606549430447527"><ele>41.6</ele><time>2026-05-01T17:21:47Z</time></trkpt><trkpt lat="43.393225369322266" lon="-4.606699120752175"><ele>41.4</ele><time>2026-05-01T17:21:48Z</time></trkpt><trkpt lat="43.393204560537924" lon="-4.606850772660629"><ele>41.199999999999996</ele><time>2026-05-01T17:21:49Z</time></trkpt><trkpt lat="43.39317395241849" lon="-4.60700268765663"><ele>41.0</ele><time>2026-05-01T17:21:50Z</time></trkpt><trkpt lat="43.39313764037157" lon="-4.6071476247603185"><ele>40.8</ele><time>2026-05-01T17:21:51Z</time></trkpt><trkpt lat="43.39310705015793" lon="-4.607294216878857"><ele>40.599999999999994</ele><time>2026-05-01T17:21:52Z</time></trkpt><trkpt lat="43.39307403501933" lon="-4.607445699481001"><ele>40.4</ele><time>2026-05-01T17:21:53Z</time></trkpt><trkpt lat="43.393039653131545" lon="-4.607588123091311"><ele>40.2</ele><time>2026-05-01T17:21:54Z</time></trkpt><trkpt lat="43.39300697788034" lon="-4.607733197430152"><ele>40.0</ele><time>2026-05-01T17:21:55Z</time></trkpt><trkpt lat="43.39297306514292" lon="-4.607881373753862"><ele>43.0</ele><time>2026-05-01T17:21:56Z</time></trkpt><trkpt lat="43.39293468794427" lon="-4.608027365208826"><ele>46.0</ele><time>2026-05-01T17:21:57Z</time></trkpt><trkpt lat="43.392900803021185" lon="-4.608176341828757"><ele>49.0</ele><time>2026-05-01T17:21:58Z</time></trkpt><trkpt lat="43.3928773978651" lon="-4.608321186744329"><ele>52.0</ele><time>2026-05-01T17:21:59Z</time></trkpt><trkpt lat="43.392845831837874" lon="-4.608473240008695"><ele>55.0</ele><time>2026-05-01T17:22:00Z</time></trkpt><trkpt lat="43.39280941560764" lon="-4.608622498933085"><ele>53.25</ele><time>2026-05-01T17:22:01Z</time></trkpt><trkpt lat="43.39277283161144" lon="-4.608769595969411"><ele>51.5</ele><time>2026-05-01T17:22:02Z</time></trkpt><trkpt lat="43.392738196646505" lon="-4.608912576964654"><ele>49.75</ele><time>2026-05-01T17:22:03Z</time></trkpt><trkpt lat="43.392700905387045" lon="-4.609058383418391"><ele>48.0</ele><time>2026-05-01T17:22:04Z</time></trkpt><trkpt lat="43.39266724808507" lon="-4.609212066474467"><ele>48.0</ele><time>2026-05-01T17:22:05Z</time></trkpt><trkpt lat="43.39263831214794" lon="-4.609359317967716"><ele>48.0</ele><time>2026-05-01T17:22:06Z</time></trkpt><trkpt lat="43.39261186135111" lon="-4.60950670294859"><ele>48.0</ele><time>2026-05-01T17:22:07Z</time></trkpt><trkpt lat="43.392582311625645" lon="-4.609656712070092"><ele>48.0</ele><time>2026-05-01T17:22:08Z</time></trkpt><trkpt lat="43.392555205052965" lon="-4.609812049430588"><ele>47.5</ele><time>2026-05-01T17:22:09Z</time></trkpt><trkpt lat="43.39253025212044" lon="-4.609963543540364"><ele>47.0</ele><time>2026-05-01T17:22:10Z</time></trkpt><trkpt lat="43.392509395813114" lon="-4.610115798052534"><ele>46.5</ele><time>2026-05-01T17:22:11Z</time></trkpt><trkpt lat="43.392487722042816" lon="-4.610267967365688"><ele>46.0</ele><time>2026-05-01T17:22:12Z</time></trkpt><trkpt lat="43.39246845167616" lon="-4.610419665822467"><ele>45.0</ele><time>2026-05-01T17:22:13Z</time></trkpt><trkpt lat="43.392451097133055" lon="-4.610573026858421"><ele>44.0</ele><time>2026-05-01T17:22:14Z</time></trkpt><trkpt lat="43.392434909671074" lon="-4.6107263342997085"><ele>43.0</ele><time>2026-05-01T17:22:15Z</time></trkpt><trkpt lat="43.39241857958956" lon="-4.610878638132496"><ele>42.0</ele><time>2026-05-01T17:22:16Z</time></trkpt><trkpt lat="43.39240145344901" lon="-4.611031854076433"><ele>41.2</ele><time>2026-05-01T17:22:17Z</time></trkpt><trkpt lat="43.39238869311798" lon="-4.611184653152735"><ele>40.400000000000006</ele><time>2026-05-01T17:22:18Z</time></trkpt><trkpt lat="43.392372116839454" lon="-4.611338855125744"><ele>39.599999999999994</ele><time>2026-05-01T17:22:19Z</time></trkpt><trkpt lat="43.39236004831146" lon="-4.611492981038608"><ele>38.8</ele><time>2026-05-01T17:22:20Z</time></trkpt><trkpt lat="43.39234465607179" lon="-4.6116446946816225"><ele>38.0</ele><time>2026-05-01T17:22:21Z</time></trkpt><trkpt lat="43.392328457678964" lon="-4.611802235081221"><ele>38.0</ele><time>2026-05-01T17:22:22Z</time></trkpt><trkpt lat="43.39231468546781" lon="-4.611956269695361"><ele>38.0</ele><time>2026-05-01T17:22:23Z</time></trkpt><trkpt lat="43.39229970527047" lon="-4.612111259489416"><ele>38.0</ele><time>2026-05-01T17:22:24Z</time></trkpt><trkpt lat="43.39228467643242" lon="-4.612264285765971"><ele>38.0</ele><time>2026-05-01T17:22:25Z</time></trkpt><trkpt lat="43.392270825180255" lon="-4.612416227852403"><ele>38.199999999999996</ele><time>2026-05-01T17:22:26Z</time></trkpt><trkpt lat="43.39225565650705" lon="-4.612569297414613"><ele>38.4</ele><time>2026-05-01T17:22:27Z</time></trkpt><trkpt lat="43.392241689803434" lon="-4.612721213854258"><ele>38.599999999999994</ele><time>2026-05-01T17:22:28Z</time></trkpt><trkpt lat="43.39222695937271" lon="-4.61287335987202"><ele>38.8</ele><time>2026-05-01T17:22:29Z</time></trkpt><trkpt lat="43.392211499524" lon="-4.613022726063446"><ele>39.0</ele><time>2026-05-01T17:22:30Z</time></trkpt><trkpt lat="43.39219635351163" lon="-4.613172464940405"><ele>40.0</ele><time>2026-05-01T17:22:31Z</time></trkpt><trkpt lat="43.39218034500034" lon="-4.6133207398916465"><ele>41.0</ele><time>2026-05-01T17:22:32Z</time></trkpt><trkpt lat="43.39216575644488" lon="-4.613468514136323"><ele>42.0</ele><time>2026-05-01T17:22:33Z</time></trkpt><trkpt lat="43.39216153704266" lon="-4.613629549376264"><ele>43.0</ele><time>2026-05-01T17:22:34Z</time></trkpt><trkpt lat="43.39214021315183" lon="-4.6138664633002"><ele>48.25</ele><time>2026-05-01T17:22:35Z</time></trkpt><trkpt lat="43.3921175320119" lon="-4.614131697141779"><ele>53.5</ele><time>2026-05-01T17:22:36Z</time></trkpt><trkpt lat="43.392117459432924" lon="-4.61403906199957"><ele>58.75</ele><time>2026-05-01T17:22:37Z</time></trkpt><trkpt lat="43.392107238649096" lon="-4.614183274087968"><ele>64.0</ele><time>2026-05-01T17:22:38Z</time></trkpt><trkpt lat="43.392097138552224" lon="-4.614318754755932"><ele>64.0</ele><time>2026-05-01T17:22:39Z</time></trkpt><trkpt lat="43.3920877496989" lon="-4.614455835021553"><ele>64.0</ele><time>2026-05-01T17:22:40Z</time></trkpt><trkpt lat="43.39210467471791" lon="-4.614590642206585"><ele>64.0</ele><time>2026-05-01T17:22:41Z</time></trkpt><trkpt lat="43.392109760457494" lon="-4.614726039399774"><ele>64.0</ele><time>2026-05-01T17:22:42Z</time></trkpt><trkpt lat="43.39211835587559" lon="-4.614857483479183"><ele>64.0</ele><time>2026-05-01T17:22:43Z</time></trkpt><trkpt lat="43.3921304471089" lon="-4.614989284477932"><ele>66.2</ele><time>2026-05-01T17:22:44Z</time></trkpt><trkpt lat="43.39214403591871" lon="-4.615117038810905"><ele>68.4</ele><time>2026-05-01T17:22:45Z</time></trkpt><trkpt lat="43.3921598632909" lon="-4.615247145192981"><ele>70.6</ele><time>2026-05-01T17:22:46Z</time></trkpt><trkpt lat="43.3921766679039" lon="-4.615378134442379"><ele>72.8</ele><time>2026-05-01T17:22:47Z</time></trkpt><trkpt lat="43.392194867463054" lon="-4.615510548631332"><ele>75.0</ele><time>2026-05-01T17:22:48Z</time></trkpt><trkpt lat="43.39221204403549" lon="-4.615649028509763"><ele>69.8</ele><time>2026-05-01T17:22:49Z</time></trkpt><trkpt lat="43.39221203265392" lon="-4.615792568034842"><ele>64.6</ele><time>2026-05-01T17:22:50Z</time></trkpt><trkpt lat="43.392220500101644" lon="-4.615933253582372"><ele>59.400000000000006</ele><time>2026-05-01T17:22:51Z</time></trkpt><trkpt lat="43.39222036216927" lon="-4.616086210613471"><ele>54.2</ele><time>2026-05-01T17:22:52Z</time></trkpt><trkpt lat="43.39221008699262" lon="-4.616234347097037"><ele>49.0</ele><time>2026-05-01T17:22:53Z</time></trkpt><trkpt lat="43.39219033576315" lon="-4.616383085019628"><ele>51.400000000000006</ele><time>2026-05-01T17:22:54Z</time></trkpt><trkpt lat="43.39216524602885" lon="-4.616532902389619"><ele>53.8</ele><time>2026-05-01T17:22:55Z</time></trkpt><trkpt lat="43.39214002749466" lon="-4.616681300334263"><ele>56.199999999999996</ele><time>2026-05-01T17:22:56Z</time></trkpt><trkpt lat="43.39213206193105" lon="-4.6168319326749145"><ele>58.599999999999994</ele><time>2026-05-01T17:22:57Z</time></trkpt><trkpt lat="43.39209361817172" lon="-4.616973006135555"><ele>61.0</ele><time>2026-05-01T17:22:58Z</time></trkpt><trkpt lat="43.39207195074886" lon="-4.617115936716461"><ele>61.0</ele><time>2026-05-01T17:22:59Z</time></trkpt><trkpt lat="43.39205801107194" lon="-4.617264339749341"><ele>60.99999999999999</ele><time>2026-05-01T17:23:00Z</time></trkpt><trkpt lat="43.39204309353497" lon="-4.617409830360487"><ele>60.99999999999999</ele><time>2026-05-01T17:23:01Z</time></trkpt><trkpt lat="43.39203844221201" lon="-4.617557115218765"><ele>61.0</ele><time>2026-05-01T17:23:02Z</time></trkpt><trkpt lat="43.39203783651578" lon="-4.617709834117155"><ele>61.0</ele><time>2026-05-01T17:23:03Z</time></trkpt><trkpt lat="43.39204320353506" lon="-4.617862175503575"><ele>62.0</ele><time>2026-05-01T17:23:04Z</time></trkpt><trkpt lat="43.39205030309043" lon="-4.618011419280833"><ele>62.99999999999999</ele><time>2026-05-01T17:23:05Z</time></trkpt><trkpt lat="43.392061776381205" lon="-4.6181609057115365"><ele>63.99999999999999</ele><time>2026-05-01T17:23:06Z</time></trkpt><trkpt lat="43.39207589378216" lon="-4.618308008568599"><ele>65.0</ele><time>2026-05-01T17:23:07Z</time></trkpt><trkpt lat="43.39209034076369" lon="-4.618458399157008"><ele>66.0</ele><time>2026-05-01T17:23:08Z</time></trkpt><trkpt lat="43.39209924665097" lon="-4.6186122478761185"><ele>65.39999999999999</ele><time>2026-05-01T17:23:09Z</time></trkpt><trkpt lat="43.39210820749157" lon="-4.618762622267604"><ele>64.8</ele><time>2026-05-01T17:23:10Z</time></trkpt><trkpt lat="43.39211843227517" lon="-4.618918791548317"><ele>64.19999999999999</ele><time>2026-05-01T17:23:11Z</time></trkpt><trkpt lat="43.3921242279523" lon="-4.619069311732041"><ele>63.599999999999994</ele><time>2026-05-01T17:23:12Z</time></trkpt><trkpt lat="43.39212491527502" lon="-4.619223144372694"><ele>63.0</ele><time>2026-05-01T17:23:13Z</time></trkpt><trkpt lat="43.39212256599244" lon="-4.619381902188756"><ele>62.25</ele><time>2026-05-01T17:23:14Z</time></trkpt><trkpt lat="43.392122868216916" lon="-4.619537705801201"><ele>61.5</ele><time>2026-05-01T17:23:15Z</time></trkpt><trkpt lat="43.39212329355506" lon="-4.619691843454231"><ele>60.75</ele><time>2026-05-01T17:23:16Z</time></trkpt><trkpt lat="43.39212220849968" lon="-4.6198493028210645"><ele>60.0</ele><time>2026-05-01T17:23:17Z</time></trkpt><trkpt lat="43.39212279296382" lon="-4.620006933196403"><ele>60.0</ele><time>2026-05-01T17:23:18Z</time></trkpt><trkpt lat="43.39212319406435" lon="-4.6201605965413135"><ele>60.0</ele><time>2026-05-01T17:23:19Z</time></trkpt><trkpt lat="43.39212381729437" lon="-4.620317434047405"><ele>60.0</ele><time>2026-05-01T17:23:20Z</time></trkpt><trkpt lat="43.39212203101996" lon="-4.620471865965242"><ele>60.0</ele><time>2026-05-01T17:23:21Z</time></trkpt><trkpt lat="43.39211995462748" lon="-4.620626855777022"><ele>60.5</ele><time>2026-05-01T17:23:22Z</time></trkpt><trkpt lat="43.392118422614516" lon="-4.6207845740827995"><ele>61.0</ele><time>2026-05-01T17:23:23Z</time></trkpt><trkpt lat="43.39211691457874" lon="-4.620936111537082"><ele>61.5</ele><time>2026-05-01T17:23:24Z</time></trkpt><trkpt lat="43.39211592072089" lon="-4.6210938756567135"><ele>62.0</ele><time>2026-05-01T17:23:25Z</time></trkpt><trkpt lat="43.39211525041373" lon="-4.621245653300426"><ele>60.75</ele><time>2026-05-01T17:23:26Z</time></trkpt><trkpt lat="43.392115712667376" lon="-4.6214021091363975"><ele>59.5</ele><time>2026-05-01T17:23:27Z</time></trkpt><trkpt lat="43.392114324623876" lon="-4.62155816221719"><ele>58.25</ele><time>2026-05-01T17:23:28Z</time></trkpt><trkpt lat="43.392112057799686" lon="-4.621714325154326"><ele>57.0</ele><time>2026-05-01T17:23:29Z</time></trkpt><trkpt lat="43.39211154981097" lon="-4.621870515725904"><ele>57.5</ele><time>2026-05-01T17:23:30Z</time></trkpt><trkpt lat="43.39211102039776" lon="-4.622029915839874"><ele>58.0</ele><time>2026-05-01T17:23:31Z</time></trkpt><trkpt lat="43.392111151255875" lon="-4.622185714500514"><ele>58.5</ele><time>2026-05-01T17:23:32Z</time></trkpt><trkpt lat="43.39211057650237" lon="-4.622341981857935"><ele>59.0</ele><time>2026-05-01T17:23:33Z</time></trkpt><trkpt lat="43.392110250983094" lon="-4.622498478450976"><ele>59.0</ele><time>2026-05-01T17:23:34Z</time></trkpt><trkpt lat="43.392107272422905" lon="-4.622656619616403"><ele>59.0</ele><time>2026-05-01T17:23:35Z</time></trkpt><trkpt lat="43.39210675029677" lon="-4.622815250707413"><ele>59.0</ele><time>2026-05-01T17:23:36Z</time></trkpt><trkpt lat="43.39210523523314" lon="-4.622973349819626"><ele>59.0</ele><time>2026-05-01T17:23:37Z</time></trkpt><trkpt lat="43.39210350590547" lon="-4.623130772353652"><ele>60.0</ele><time>2026-05-01T17:23:38Z</time></trkpt><trkpt lat="43.392104239411005" lon="-4.623292034843531"><ele>61.0</ele><time>2026-05-01T17:23:39Z</time></trkpt><trkpt lat="43.39210278172804" lon="-4.623445946440246"><ele>62.0</ele><time>2026-05-01T17:23:40Z</time></trkpt><trkpt lat="43.3921039828655" lon="-4.623608456340451"><ele>63.0</ele><time>2026-05-01T17:23:41Z</time></trkpt><trkpt lat="43.392104047511566" lon="-4.623763262602228"><ele>63.0</ele><time>2026-05-01T17:23:42Z</time></trkpt><trkpt lat="43.39210214794445" lon="-4.623920477831626"><ele>63.0</ele><time>2026-05-01T17:23:43Z</time></trkpt><trkpt lat="43.39210103374496" lon="-4.62408270880171"><ele>63.0</ele><time>2026-05-01T17:23:44Z</time></trkpt><trkpt lat="43.39209919256097" lon="-4.624238010838038"><ele>63.0</ele><time>2026-05-01T17:23:45Z</time></trkpt><trkpt lat="43.39209723456806" lon="-4.624399198693134"><ele>63.5</ele><time>2026-05-01T17:23:46Z</time></trkpt><trkpt lat="43.39209604132383" lon="-4.62455568908826"><ele>64.0</ele><time>2026-05-01T17:23:47Z</time></trkpt><trkpt lat="43.392096943991056" lon="-4.624716271310891"><ele>64.5</ele><time>2026-05-01T17:23:48Z</time></trkpt><trkpt lat="43.392097027309205" lon="-4.624870874427674"><ele>65.0</ele><time>2026-05-01T17:23:49Z</time></trkpt><trkpt lat="43.392096961434106" lon="-4.625031864118742"><ele>65.0</ele><time>2026-05-01T17:23:50Z</time></trkpt><trkpt lat="43.39210052885841" lon="-4.625190502731696"><ele>65.0</ele><time>2026-05-01T17:23:51Z</time></trkpt><trkpt lat="43.3921053583604" lon="-4.625347340972825"><ele>65.0</ele><time>2026-05-01T17:23:52Z</time></trkpt><trkpt lat="43.39210792759195" lon="-4.625504059488416"><ele>65.0</ele><time>2026-05-01T17:23:53Z</time></trkpt><trkpt lat="43.392113348587344" lon="-4.625663788469889"><ele>66.0</ele><time>2026-05-01T17:23:54Z</time></trkpt><trkpt lat="43.39211866914933" lon="-4.6258201766375135"><ele>67.0</ele><time>2026-05-01T17:23:55Z</time></trkpt><trkpt lat="43.39212591902711" lon="-4.625981420055198"><ele>68.0</ele><time>2026-05-01T17:23:56Z</time></trkpt><trkpt lat="43.39213098312477" lon="-4.6261363892613865"><ele>69.0</ele><time>2026-05-01T17:23:57Z</time></trkpt><trkpt lat="43.39214351633694" lon="-4.626292341695486"><ele>73.0</ele><time>2026-05-01T17:23:58Z</time></trkpt><trkpt lat="43.392158335051434" lon="-4.626453730792755"><ele>77.0</ele><time>2026-05-01T17:23:59Z</time></trkpt><trkpt lat="43.39216924590962" lon="-4.626607928575195"><ele>81.0</ele><time>2026-05-01T17:24:00Z</time></trkpt><trkpt lat="43.39218146945958" lon="-4.626768206327832"><ele>85.0</ele><time>2026-05-01T17:24:01Z</time></trkpt><trkpt lat="43.39219801246992" lon="-4.626922307930287"><ele>74.75</ele><time>2026-05-01T17:24:02Z</time></trkpt><trkpt lat="43.392217942600226" lon="-4.627072821380764"><ele>64.5</ele><time>2026-05-01T17:24:03Z</time></trkpt><trkpt lat="43.392230968302655" lon="-4.627234549130318"><ele>54.25</ele><time>2026-05-01T17:24:04Z</time></trkpt><trkpt lat="43.39224803551396" lon="-4.627390120855628"><ele>44.0</ele><time>2026-05-01T17:24:05Z</time></trkpt><trkpt lat="43.39226405646447" lon="-4.6275462320419"><ele>44.0</ele><time>2026-05-01T17:24:06Z</time></trkpt><trkpt lat="43.39227771181209" lon="-4.627705094703631"><ele>44.0</ele><time>2026-05-01T17:24:07Z</time></trkpt><trkpt lat="43.39229460054413" lon="-4.627860797072692"><ele>44.0</ele><time>2026-05-01T17:24:08Z</time></trkpt><trkpt lat="43.39230799809956" lon="-4.62801757630835"><ele>44.0</ele><time>2026-05-01T17:24:09Z</time></trkpt><trkpt lat="43.392325402389055" lon="-4.628169091484172"><ele>45.5</ele><time>2026-05-01T17:24:10Z</time></trkpt><trkpt lat="43.39234459732856" lon="-4.628327298033702"><ele>47.0</ele><time>2026-05-01T17:24:11Z</time></trkpt><trkpt lat="43.39236539237907" lon="-4.628483171669701"><ele>48.5</ele><time>2026-05-01T17:24:12Z</time></trkpt><trkpt lat="43.39237487846907" lon="-4.6286374798503935"><ele>50.0</ele><time>2026-05-01T17:24:13Z</time></trkpt><trkpt lat="43.392391920510754" lon="-4.628792835652838"><ele>50.0</ele><time>2026-05-01T17:24:14Z</time></trkpt><trkpt lat="43.392407487175376" lon="-4.6289481053523795"><ele>50.0</ele><time>2026-05-01T17:24:15Z</time></trkpt><trkpt lat="43.39242634195064" lon="-4.629099604499001"><ele>50.0</ele><time>2026-05-01T17:24:16Z</time></trkpt><trkpt lat="43.39244214630987" lon="-4.62925568576258"><ele>50.0</ele><time>2026-05-01T17:24:17Z</time></trkpt><trkpt lat="43.392460471438504" lon="-4.629410637748756"><ele>51.2</ele><time>2026-05-01T17:24:18Z</time></trkpt><trkpt lat="43.39247482384177" lon="-4.629564494135025"><ele>52.4</ele><time>2026-05-01T17:24:19Z</time></trkpt><trkpt lat="43.392494781130175" lon="-4.629711853516475"><ele>53.599999999999994</ele><time>2026-05-01T17:24:20Z</time></trkpt><trkpt lat="43.39250720544162" lon="-4.629866113937446"><ele>54.8</ele><time>2026-05-01T17:24:21Z</time></trkpt><trkpt lat="43.39252759809328" lon="-4.63001518919357"><ele>56.0</ele><time>2026-05-01T17:24:22Z</time></trkpt><trkpt lat="43.392546940011904" lon="-4.630167809526897"><ele>58.0</ele><time>2026-05-01T17:24:23Z</time></trkpt><trkpt lat="43.39256078892475" lon="-4.630318945839391"><ele>59.99999999999999</ele><time>2026-05-01T17:24:24Z</time></trkpt><trkpt lat="43.39257417772841" lon="-4.6304748638765405"><ele>61.99999999999999</ele><time>2026-05-01T17:24:25Z</time></trkpt><trkpt lat="43.39259269915478" lon="-4.630624552894393"><ele>64.0</ele><time>2026-05-01T17:24:26Z</time></trkpt><trkpt lat="43.39261028150467" lon="-4.630772961640315"><ele>66.0</ele><time>2026-05-01T17:24:27Z</time></trkpt><trkpt lat="43.392631587926346" lon="-4.630924129223488"><ele>66.0</ele><time>2026-05-01T17:24:28Z</time></trkpt><trkpt lat="43.39265400513303" lon="-4.631072700844244"><ele>66.0</ele><time>2026-05-01T17:24:29Z</time></trkpt><trkpt lat="43.392675396708825" lon="-4.6312218707365504"><ele>66.0</ele><time>2026-05-01T17:24:30Z</time></trkpt><trkpt lat="43.39269798906693" lon="-4.631375326827266"><ele>66.0</ele><time>2026-05-01T17:24:31Z</time></trkpt><trkpt lat="43.3927208694058" lon="-4.631521975808267"><ele>66.0</ele><time>2026-05-01T17:24:32Z</time></trkpt><trkpt lat="43.392747027691286" lon="-4.631666848933513"><ele>67.6</ele><time>2026-05-01T17:24:33Z</time></trkpt><trkpt lat="43.39277267787179" lon="-4.631812997366406"><ele>69.19999999999999</ele><time>2026-05-01T17:24:34Z</time></trkpt><trkpt lat="43.39280088790464" lon="-4.631963465751815"><ele>70.80000000000001</ele><time>2026-05-01T17:24:35Z</time></trkpt><trkpt lat="43.39283302813569" lon="-4.6321081693299915"><ele>72.4</ele><time>2026-05-01T17:24:36Z</time></trkpt><trkpt lat="43.39286426509691" lon="-4.632248656606082"><ele>74.0</ele><time>2026-05-01T17:24:37Z</time></trkpt><trkpt lat="43.39289099869865" lon="-4.632397026068696"><ele>75.4</ele><time>2026-05-01T17:24:38Z</time></trkpt><trkpt lat="43.39292721155814" lon="-4.632541700564731"><ele>76.80000000000001</ele><time>2026-05-01T17:24:39Z</time></trkpt><trkpt lat="43.3929623623297" lon="-4.632683378988626"><ele>78.19999999999999</ele><time>2026-05-01T17:24:40Z</time></trkpt><trkpt lat="43.39299286075777" lon="-4.632824991159826"><ele>79.6</ele><time>2026-05-01T17:24:41Z</time></trkpt><trkpt lat="43.39302977460308" lon="-4.632969487367627"><ele>81.0</ele><time>2026-05-01T17:24:42Z</time></trkpt><trkpt lat="43.393063587180066" lon="-4.633110939906973"><ele>76.0</ele><time>2026-05-01T17:24:43Z</time></trkpt><trkpt lat="43.3930975347917" lon="-4.633256348961911"><ele>71.0</ele><time>2026-05-01T17:24:44Z</time></trkpt><trkpt lat="43.3931340454997" lon="-4.633400300188776"><ele>66.0</ele><time>2026-05-01T17:24:45Z</time></trkpt><trkpt lat="43.39317084707935" lon="-4.633536675083451"><ele>61.0</ele><time>2026-05-01T17:24:46Z</time></trkpt><trkpt lat="43.393205945044635" lon="-4.633681527141799"><ele>56.0</ele><time>2026-05-01T17:24:47Z</time></trkpt><trkpt lat="43.39324551072083" lon="-4.63382266592917"><ele>56.0</ele><time>2026-05-01T17:24:48Z</time></trkpt><trkpt lat="43.39328571863883" lon="-4.633960108705761"><ele>55.99999999999999</ele><time>2026-05-01T17:24:49Z</time></trkpt><trkpt lat="43.393326960931475" lon="-4.634096693811628"><ele>55.99999999999999</ele><time>2026-05-01T17:24:50Z</time></trkpt><trkpt lat="43.39335581031451" lon="-4.634241161396238"><ele>56.0</ele><time>2026-05-01T17:24:51Z</time></trkpt><trkpt lat="43.39338768516607" lon="-4.634381823284778"><ele>56.0</ele><time>2026-05-01T17:24:52Z</time></trkpt><trkpt lat="43.39342496162248" lon="-4.634523541890128"><ele>57.8</ele><time>2026-05-01T17:24:53Z</time></trkpt><trkpt lat="43.393454876190646" lon="-4.634666110099154"><ele>59.599999999999994</ele><time>2026-05-01T17:24:54Z</time></trkpt><trkpt lat="43.3934853302755" lon="-4.634811951371869"><ele>61.4</ele><time>2026-05-01T17:24:55Z</time></trkpt><trkpt lat="43.39351472421499" lon="-4.634952472798601"><ele>63.2</ele><time>2026-05-01T17:24:56Z</time></trkpt><trkpt lat="43.393540925414136" lon="-4.635098806512233"><ele>65.0</ele><time>2026-05-01T17:24:57Z</time></trkpt><trkpt lat="43.39356387104493" lon="-4.635248316037541"><ele>64.8</ele><time>2026-05-01T17:24:58Z</time></trkpt><trkpt lat="43.39358312763489" lon="-4.635400409483663"><ele>64.6</ele><time>2026-05-01T17:24:59Z</time></trkpt><trkpt lat="43.393600385349735" lon="-4.635549698046589"><ele>64.4</ele><time>2026-05-01T17:25:00Z</time></trkpt><trkpt lat="43.393615528728326" lon="-4.6356967902731565"><ele>64.2</ele><time>2026-05-01T17:25:01Z</time></trkpt><trkpt lat="43.39362963956739" lon="-4.63584801605873"><ele>64.0</ele><time>2026-05-01T17:25:02Z</time></trkpt><trkpt lat="43.393639239567264" lon="-4.636000036861845"><ele>64.4</ele><time>2026-05-01T17:25:03Z</time></trkpt><trkpt lat="43.39364641843634" lon="-4.636149701379564"><ele>64.80000000000001</ele><time>2026-05-01T17:25:04Z</time></trkpt><trkpt lat="43.393650711974196" lon="-4.636297825531617"><ele>65.19999999999999</ele><time>2026-05-01T17:25:05Z</time></trkpt><trkpt lat="43.393651206229826" lon="-4.636453505564738"><ele>65.6</ele><time>2026-05-01T17:25:06Z</time></trkpt><trkpt lat="43.39365799255469" lon="-4.636607237939175"><ele>66.0</ele><time>2026-05-01T17:25:07Z</time></trkpt><trkpt lat="43.39366192652985" lon="-4.636755396608734"><ele>66.0</ele><time>2026-05-01T17:25:08Z</time></trkpt><trkpt lat="43.393666710811935" lon="-4.636909663154712"><ele>66.0</ele><time>2026-05-01T17:25:09Z</time></trkpt><trkpt lat="43.39367342409688" lon="-4.637062158120616"><ele>66.0</ele><time>2026-05-01T17:25:10Z</time></trkpt><trkpt lat="43.39367702979719" lon="-4.63721626903352"><ele>66.0</ele><time>2026-05-01T17:25:11Z</time></trkpt><trkpt lat="43.393683763439675" lon="-4.637368111144327"><ele>66.0</ele><time>2026-05-01T17:25:12Z</time></trkpt><trkpt lat="43.39368813904831" lon="-4.637520435218143"><ele>66.0</ele><time>2026-05-01T17:25:13Z</time></trkpt><trkpt lat="43.393692936541" lon="-4.6376765727616345"><ele>66.0</ele><time>2026-05-01T17:25:14Z</time></trkpt><trkpt lat="43.39370136807301" lon="-4.637828604512195"><ele>66.0</ele><time>2026-05-01T17:25:15Z</time></trkpt><trkpt lat="43.39371095293046" lon="-4.637979807355674"><ele>66.0</ele><time>2026-05-01T17:25:16Z</time></trkpt><trkpt lat="43.39371660890944" lon="-4.638133816493771"><ele>66.0</ele><time>2026-05-01T17:25:17Z</time></trkpt><trkpt lat="43.39372543216183" lon="-4.638284833678983"><ele>67.0</ele><time>2026-05-01T17:25:18Z</time></trkpt><trkpt lat="43.3937279571686" lon="-4.638435496438261"><ele>68.0</ele><time>2026-05-01T17:25:19Z</time></trkpt><trkpt lat="43.393730222311795" lon="-4.638589950829843"><ele>69.0</ele><time>2026-05-01T17:25:20Z</time></trkpt><trkpt lat="43.39373927885469" lon="-4.638744678449177"><ele>70.0</ele><time>2026-05-01T17:25:21Z</time></trkpt><trkpt lat="43.39374074010839" lon="-4.63889590225818"><ele>71.0</ele><time>2026-05-01T17:25:22Z</time></trkpt><trkpt lat="43.393749486955905" lon="-4.639053476808564"><ele>72.8</ele><time>2026-05-01T17:25:23Z</time></trkpt><trkpt lat="43.39375341706398" lon="-4.639207883160397"><ele>74.6</ele><time>2026-05-01T17:25:24Z</time></trkpt><trkpt lat="43.39375710829784" lon="-4.639360555162548"><ele>76.4</ele><time>2026-05-01T17:25:25Z</time></trkpt><trkpt lat="43.39376263593291" lon="-4.6395161569443495"><ele>78.2</ele><time>2026-05-01T17:25:26Z</time></trkpt><trkpt lat="43.39376983540868" lon="-4.639668017682815"><ele>80.0</ele><time>2026-05-01T17:25:27Z</time></trkpt><trkpt lat="43.39377523536735" lon="-4.6398196337493305"><ele>80.4</ele><time>2026-05-01T17:25:28Z</time></trkpt><trkpt lat="43.39378148185548" lon="-4.639973010405866"><ele>80.8</ele><time>2026-05-01T17:25:29Z</time></trkpt><trkpt lat="43.39378469293245" lon="-4.640127374871232"><ele>81.19999999999999</ele><time>2026-05-01T17:25:30Z</time></trkpt><trkpt lat="43.39378794927491" lon="-4.640279877602931"><ele>81.6</ele><time>2026-05-01T17:25:31Z</time></trkpt><trkpt lat="43.3937938067619" lon="-4.640432749852572"><ele>82.0</ele><time>2026-05-01T17:25:32Z</time></trkpt><trkpt lat="43.39380037123396" lon="-4.640585593363141"><ele>81.19999999999999</ele><time>2026-05-01T17:25:33Z</time></trkpt><trkpt lat="43.39380607008389" lon="-4.640739914763355"><ele>80.39999999999999</ele><time>2026-05-01T17:25:34Z</time></trkpt><trkpt lat="43.39380988727772" lon="-4.640895636373435"><ele>79.6</ele><time>2026-05-01T17:25:35Z</time></trkpt><trkpt lat="43.39381456534003" lon="-4.641048611008709"><ele>78.8</ele><time>2026-05-01T17:25:36Z</time></trkpt><trkpt lat="43.39381930041873" lon="-4.641202527980711"><ele>78.0</ele><time>2026-05-01T17:25:37Z</time></trkpt><trkpt lat="43.393822413370245" lon="-4.641354239053888"><ele>78.0</ele><time>2026-05-01T17:25:38Z</time></trkpt><trkpt lat="43.3938255647438" lon="-4.64150319357963"><ele>78.0</ele><time>2026-05-01T17:25:39Z</time></trkpt><trkpt lat="43.39383070111689" lon="-4.641655567384071"><ele>78.0</ele><time>2026-05-01T17:25:40Z</time></trkpt><trkpt lat="43.39383944314485" lon="-4.641810935811028"><ele>78.0</ele><time>2026-05-01T17:25:41Z</time></trkpt><trkpt lat="43.39384569690501" lon="-4.641963759016692"><ele>78.0</ele><time>2026-05-01T17:25:42Z</time></trkpt><trkpt lat="43.39385197775581" lon="-4.6421194867984745"><ele>74.0</ele><time>2026-05-01T17:25:43Z</time></trkpt><trkpt lat="43.39385946092167" lon="-4.642275039276731"><ele>70.0</ele><time>2026-05-01T17:25:44Z</time></trkpt><trkpt lat="43.39386512189872" lon="-4.642432595538458"><ele>66.0</ele><time>2026-05-01T17:25:45Z</time></trkpt><trkpt lat="43.393870776291116" lon="-4.642586943094136"><ele>62.0</ele><time>2026-05-01T17:25:46Z</time></trkpt><trkpt lat="43.39387749677204" lon="-4.642742770925052"><ele>62.5</ele><time>2026-05-01T17:25:47Z</time></trkpt><trkpt lat="43.393884130416254" lon="-4.642896705193419"><ele>63.0</ele><time>2026-05-01T17:25:48Z</time></trkpt><trkpt lat="43.393886764884485" lon="-4.643056566486331"><ele>63.5</ele><time>2026-05-01T17:25:49Z</time></trkpt><trkpt lat="43.39389386146045" lon="-4.643211962005008"><ele>64.0</ele><time>2026-05-01T17:25:50Z</time></trkpt><trkpt lat="43.39390163323304" lon="-4.643365680787014"><ele>64.0</ele><time>2026-05-01T17:25:51Z</time></trkpt><trkpt lat="43.39391157963375" lon="-4.643518889853312"><ele>64.0</ele><time>2026-05-01T17:25:52Z</time></trkpt><trkpt lat="43.39392424422318" lon="-4.643672725571788"><ele>64.0</ele><time>2026-05-01T17:25:53Z</time></trkpt><trkpt lat="43.39393644058361" lon="-4.643827344060348"><ele>64.0</ele><time>2026-05-01T17:25:54Z</time></trkpt><trkpt lat="43.39394850585513" lon="-4.643981272498667"><ele>64.75</ele><time>2026-05-01T17:25:55Z</time></trkpt><trkpt lat="43.393962194016716" lon="-4.644137988956238"><ele>65.5</ele><time>2026-05-01T17:25:56Z</time></trkpt><trkpt lat="43.39397895638464" lon="-4.644294234551721"><ele>66.25</ele><time>2026-05-01T17:25:57Z</time></trkpt><trkpt lat="43.39399689810774" lon="-4.644453264716985"><ele>67.0</ele><time>2026-05-01T17:25:58Z</time></trkpt><trkpt lat="43.39401490138653" lon="-4.644610541251984"><ele>67.0</ele><time>2026-05-01T17:25:59Z</time></trkpt><trkpt lat="43.39403329785419" lon="-4.644765417763408"><ele>67.0</ele><time>2026-05-01T17:26:00Z</time></trkpt><trkpt lat="43.39405393355272" lon="-4.644921164233145"><ele>67.0</ele><time>2026-05-01T17:26:01Z</time></trkpt><trkpt lat="43.394073931657935" lon="-4.645076432918474"><ele>67.0</ele><time>2026-05-01T17:26:02Z</time></trkpt><trkpt lat="43.39409385483419" lon="-4.645231520356176"><ele>66.0</ele><time>2026-05-01T17:26:03Z</time></trkpt><trkpt lat="43.39411775678912" lon="-4.6453874430740925"><ele>65.0</ele><time>2026-05-01T17:26:04Z</time></trkpt><trkpt lat="43.394144399768884" lon="-4.645544552518172"><ele>64.0</ele><time>2026-05-01T17:26:05Z</time></trkpt><trkpt lat="43.39416855249601" lon="-4.645699310966635"><ele>63.0</ele><time>2026-05-01T17:26:06Z</time></trkpt><trkpt lat="43.39419567763904" lon="-4.645853650385719"><ele>63.0</ele><time>2026-05-01T17:26:07Z</time></trkpt><trkpt lat="43.394225482215894" lon="-4.64600835031195"><ele>63.0</ele><time>2026-05-01T17:26:08Z</time></trkpt><trkpt lat="43.394253571589715" lon="-4.646161592283667"><ele>63.0</ele><time>2026-05-01T17:26:09Z</time></trkpt><trkpt lat="43.39428402322447" lon="-4.646313391718935"><ele>63.0</ele><time>2026-05-01T17:26:10Z</time></trkpt><trkpt lat="43.39431551175095" lon="-4.646468410978052"><ele>62.5</ele><time>2026-05-01T17:26:11Z</time></trkpt><trkpt lat="43.39434731002645" lon="-4.646622130806182"><ele>62.0</ele><time>2026-05-01T17:26:12Z</time></trkpt><trkpt lat="43.39438128818951" lon="-4.646778050281768"><ele>61.5</ele><time>2026-05-01T17:26:13Z</time></trkpt><trkpt lat="43.394415864961076" lon="-4.646929327026809"><ele>61.0</ele><time>2026-05-01T17:26:14Z</time></trkpt><trkpt lat="43.394453773744424" lon="-4.647082947203684"><ele>59.0</ele><time>2026-05-01T17:26:15Z</time></trkpt><trkpt lat="43.394492750052244" lon="-4.647238436178105"><ele>57.0</ele><time>2026-05-01T17:26:16Z</time></trkpt><trkpt lat="43.394534880477565" lon="-4.647394673069388"><ele>55.0</ele><time>2026-05-01T17:26:17Z</time></trkpt><trkpt lat="43.394575440395506" lon="-4.647549311746125"><ele>53.0</ele><time>2026-05-01T17:26:18Z</time></trkpt><trkpt lat="43.39461676163373" lon="-4.647705646552405"><ele>52.25</ele><time>2026-05-01T17:26:19Z</time></trkpt><trkpt lat="43.3946581207301" lon="-4.647857458640615"><ele>51.5</ele><time>2026-05-01T17:26:20Z</time></trkpt><trkpt lat="43.39470287372734" lon="-4.648010583614404"><ele>50.75</ele><time>2026-05-01T17:26:21Z</time></trkpt><trkpt lat="43.39474781808856" lon="-4.648167137087024"><ele>50.0</ele><time>2026-05-01T17:26:22Z</time></trkpt><trkpt lat="43.394791786304644" lon="-4.648318814351664"><ele>49.0</ele><time>2026-05-01T17:26:23Z</time></trkpt><trkpt lat="43.39483916218604" lon="-4.648468157051014"><ele>48.0</ele><time>2026-05-01T17:26:24Z</time></trkpt><trkpt lat="43.39488925704938" lon="-4.64861687702874"><ele>47.0</ele><time>2026-05-01T17:26:25Z</time></trkpt><trkpt lat="43.39493952615388" lon="-4.6487619952648656"><ele>46.0</ele><time>2026-05-01T17:26:26Z</time></trkpt><trkpt lat="43.394987145150566" lon="-4.648904519228216"><ele>46.0</ele><time>2026-05-01T17:26:27Z</time></trkpt><trkpt lat="43.39503867228768" lon="-4.649045788735093"><ele>46.0</ele><time>2026-05-01T17:26:28Z</time></trkpt><trkpt lat="43.395091700274875" lon="-4.649185074996743"><ele>46.0</ele><time>2026-05-01T17:26:29Z</time></trkpt><trkpt lat="43.395142948229726" lon="-4.649326103331689"><ele>46.0</ele><time>2026-05-01T17:26:30Z</time></trkpt><trkpt lat="43.395194314099854" lon="-4.649465222050849"><ele>48.0</ele><time>2026-05-01T17:26:31Z</time></trkpt><trkpt lat="43.39524539104582" lon="-4.649604310844894"><ele>50.0</ele><time>2026-05-01T17:26:32Z</time></trkpt><trkpt lat="43.39529739614255" lon="-4.649742129721928"><ele>52.0</ele><time>2026-05-01T17:26:33Z</time></trkpt><trkpt lat="43.39535041556982" lon="-4.649880509882862"><ele>54.0</ele><time>2026-05-01T17:26:34Z</time></trkpt><trkpt lat="43.39540460756764" lon="-4.650017324740797"><ele>54.0</ele><time>2026-05-01T17:26:35Z</time></trkpt><trkpt lat="43.3954547954595" lon="-4.650153291956254"><ele>54.00000000000001</ele><time>2026-05-01T17:26:36Z</time></trkpt><trkpt lat="43.39550566701106" lon="-4.650288689464228"><ele>54.00000000000001</ele><time>2026-05-01T17:26:37Z</time></trkpt><trkpt lat="43.39556039072368" lon="-4.65042391478843"><ele>54.0</ele><time>2026-05-01T17:26:38Z</time></trkpt><trkpt lat="43.39561524335506" lon="-4.6505560997583135"><ele>54.0</ele><time>2026-05-01T17:26:39Z</time></trkpt><trkpt lat="43.39567152317347" lon="-4.650686159514365"><ele>53.2</ele><time>2026-05-01T17:26:40Z</time></trkpt><trkpt lat="43.395730017899695" lon="-4.65081626585296"><ele>52.400000000000006</ele><time>2026-05-01T17:26:41Z</time></trkpt><trkpt lat="43.39579125487358" lon="-4.6509458025890655"><ele>51.6</ele><time>2026-05-01T17:26:42Z</time></trkpt><trkpt lat="43.39585399355403" lon="-4.651077904112662"><ele>50.8</ele><time>2026-05-01T17:26:43Z</time></trkpt><trkpt lat="43.39592189016742" lon="-4.651195282433823"><ele>50.0</ele><time>2026-05-01T17:26:44Z</time></trkpt><trkpt lat="43.395989751835245" lon="-4.6513228870773204"><ele>50.0</ele><time>2026-05-01T17:26:45Z</time></trkpt><trkpt lat="43.396052481240595" lon="-4.6514577300032585"><ele>50.0</ele><time>2026-05-01T17:26:46Z</time></trkpt><trkpt lat="43.3961212915012" lon="-4.651588160201643"><ele>50.0</ele><time>2026-05-01T17:26:47Z</time></trkpt><trkpt lat="43.39618913216578" lon="-4.651723869571911"><ele>50.0</ele><time>2026-05-01T17:26:48Z</time></trkpt><trkpt lat="43.39624758549335" lon="-4.651857826707086"><ele>49.6</ele><time>2026-05-01T17:26:49Z</time></trkpt><trkpt lat="43.3962901418405" lon="-4.652002929549517"><ele>49.2</ele><time>2026-05-01T17:26:50Z</time></trkpt><trkpt lat="43.39632050638593" lon="-4.652146636174048"><ele>48.8</ele><time>2026-05-01T17:26:51Z</time></trkpt><trkpt lat="43.396335213512174" lon="-4.652280637735663"><ele>48.4</ele><time>2026-05-01T17:26:52Z</time></trkpt><trkpt lat="43.39633666148769" lon="-4.652368444030454"><ele>48.0</ele><time>2026-05-01T17:26:53Z</time></trkpt><trkpt lat="43.396349297027136" lon="-4.652471861534252"><ele>46.25</ele><time>2026-05-01T17:26:55Z</time></trkpt><trkpt lat="43.39651388681697" lon="-4.6527736707436045"><ele>44.5</ele><time>2026-05-01T17:26:56Z</time></trkpt><trkpt lat="43.39649182009173" lon="-4.652889685851619"><ele>42.75</ele><time>2026-05-01T17:26:57Z</time></trkpt><trkpt lat="43.3964387500656" lon="-4.652981658918491"><ele>41.0</ele><time>2026-05-01T17:26:58Z</time></trkpt><trkpt lat="43.396382070640165" lon="-4.653045446938412"><ele>42.5</ele><time>2026-05-01T17:26:59Z</time></trkpt><trkpt lat="43.39631255218106" lon="-4.653036072422982"><ele>44.0</ele><time>2026-05-01T17:27:00Z</time></trkpt><trkpt lat="43.39624596543749" lon="-4.6530132770824295"><ele>45.5</ele><time>2026-05-01T17:27:01Z</time></trkpt><trkpt lat="43.39620154094813" lon="-4.653148362417968"><ele>47.0</ele><time>2026-05-01T17:27:02Z</time></trkpt><trkpt lat="43.39617529767275" lon="-4.65325282996524"><ele>48.50000000000001</ele><time>2026-05-01T17:27:03Z</time></trkpt><trkpt lat="43.39616358305248" lon="-4.653373907950763"><ele>50.0</ele><time>2026-05-01T17:27:04Z</time></trkpt><trkpt lat="43.396154315577505" lon="-4.65350178438214"><ele>49.8</ele><time>2026-05-01T17:27:05Z</time></trkpt><trkpt lat="43.396145288574324" lon="-4.653636549888656"><ele>49.6</ele><time>2026-05-01T17:27:06Z</time></trkpt><trkpt lat="43.396128767631836" lon="-4.65378193754034"><ele>49.400000000000006</ele><time>2026-05-01T17:27:07Z</time></trkpt><trkpt lat="43.396103118967105" lon="-4.653957035437112"><ele>49.2</ele><time>2026-05-01T17:27:08Z</time></trkpt><trkpt lat="43.39609156373288" lon="-4.65409015381061"><ele>49.0</ele><time>2026-05-01T17:27:09Z</time></trkpt><trkpt lat="43.396075016046645" lon="-4.654254534026605"><ele>49.0</ele><time>2026-05-01T17:27:10Z</time></trkpt><trkpt lat="43.396068094468205" lon="-4.654347222344706"><ele>49.0</ele><time>2026-05-01T17:27:11Z</time></trkpt><trkpt lat="43.39604758230287" lon="-4.654514735419167"><ele>49.0</ele><time>2026-05-01T17:27:12Z</time></trkpt><trkpt lat="43.396032483717114" lon="-4.654658163245087"><ele>49.0</ele><time>2026-05-01T17:27:13Z</time></trkpt><trkpt lat="43.39601903581806" lon="-4.654810015960996"><ele>49.0</ele><time>2026-05-01T17:27:14Z</time></trkpt><trkpt lat="43.39600432889227" lon="-4.654960897682046"><ele>50.2</ele><time>2026-05-01T17:27:15Z</time></trkpt><trkpt lat="43.39599042793329" lon="-4.655100030825785"><ele>51.400000000000006</ele><time>2026-05-01T17:27:16Z</time></trkpt><trkpt lat="43.39597040024457" lon="-4.655229252941268"><ele>52.6</ele><time>2026-05-01T17:27:17Z</time></trkpt><trkpt lat="43.395953001215666" lon="-4.655365463558188"><ele>53.8</ele><time>2026-05-01T17:27:18Z</time></trkpt><trkpt lat="43.39592277828303" lon="-4.655493433388546"><ele>55.0</ele><time>2026-05-01T17:27:19Z</time></trkpt><trkpt lat="43.39589285368595" lon="-4.655621401039527"><ele>55.0</ele><time>2026-05-01T17:27:20Z</time></trkpt><trkpt lat="43.39585826209809" lon="-4.655744793257652"><ele>55.0</ele><time>2026-05-01T17:27:21Z</time></trkpt><trkpt lat="43.39581752656255" lon="-4.655865770424936"><ele>55.0</ele><time>2026-05-01T17:27:22Z</time></trkpt><trkpt lat="43.395801591652145" lon="-4.655997323844278"><ele>55.0</ele><time>2026-05-01T17:27:23Z</time></trkpt><trkpt lat="43.395817104029405" lon="-4.656132451972569"><ele>55.0</ele><time>2026-05-01T17:27:24Z</time></trkpt><trkpt lat="43.39583245412788" lon="-4.656268939066358"><ele>55.0</ele><time>2026-05-01T17:27:25Z</time></trkpt><trkpt lat="43.39581888590879" lon="-4.656400623260819"><ele>55.0</ele><time>2026-05-01T17:27:26Z</time></trkpt><trkpt lat="43.395770145339995" lon="-4.656526335134013"><ele>55.0</ele><time>2026-05-01T17:27:27Z</time></trkpt><trkpt lat="43.39570648017488" lon="-4.6566379516488"><ele>55.0</ele><time>2026-05-01T17:27:28Z</time></trkpt><trkpt lat="43.39565730318356" lon="-4.656768836688688"><ele>55.0</ele><time>2026-05-01T17:27:29Z</time></trkpt><trkpt lat="43.39562718387586" lon="-4.6569000222746215"><ele>54.4</ele><time>2026-05-01T17:27:30Z</time></trkpt><trkpt lat="43.39563000051327" lon="-4.6570326376792535"><ele>53.8</ele><time>2026-05-01T17:27:31Z</time></trkpt><trkpt lat="43.39561260983515" lon="-4.657201506207606"><ele>53.2</ele><time>2026-05-01T17:27:32Z</time></trkpt><trkpt lat="43.39560367979535" lon="-4.657356031915021"><ele>52.6</ele><time>2026-05-01T17:27:33Z</time></trkpt><trkpt lat="43.395588281263315" lon="-4.657507065902702"><ele>52.0</ele><time>2026-05-01T17:27:34Z</time></trkpt><trkpt lat="43.39557602854338" lon="-4.657661054686558"><ele>51.8</ele><time>2026-05-01T17:27:35Z</time></trkpt><trkpt lat="43.39555896395752" lon="-4.657812671679793"><ele>51.6</ele><time>2026-05-01T17:27:36Z</time></trkpt><trkpt lat="43.39554151685204" lon="-4.657965275140961"><ele>51.4</ele><time>2026-05-01T17:27:37Z</time></trkpt><trkpt lat="43.39553000877233" lon="-4.658115848344277"><ele>51.199999999999996</ele><time>2026-05-01T17:27:38Z</time></trkpt><trkpt lat="43.39551387939553" lon="-4.6582666702960305"><ele>51.0</ele><time>2026-05-01T17:27:39Z</time></trkpt><trkpt lat="43.395495958585876" lon="-4.658418127517931"><ele>52.599999999999994</ele><time>2026-05-01T17:27:40Z</time></trkpt><trkpt lat="43.39548774907924" lon="-4.658573583013537"><ele>54.2</ele><time>2026-05-01T17:27:41Z</time></trkpt><trkpt lat="43.39547612031813" lon="-4.65872797050214"><ele>55.800000000000004</ele><time>2026-05-01T17:27:42Z</time></trkpt><trkpt lat="43.395464276937545" lon="-4.658876602354455"><ele>57.400000000000006</ele><time>2026-05-01T17:27:43Z</time></trkpt><trkpt lat="43.395455070428355" lon="-4.659024339867831"><ele>59.0</ele><time>2026-05-01T17:27:44Z</time></trkpt><trkpt lat="43.39544510854007" lon="-4.659176896589852"><ele>59.0</ele><time>2026-05-01T17:27:45Z</time></trkpt><trkpt lat="43.39544245008075" lon="-4.659332314707176"><ele>59.00000000000001</ele><time>2026-05-01T17:27:46Z</time></trkpt><trkpt lat="43.395437597165355" lon="-4.659483817798678"><ele>59.00000000000001</ele><time>2026-05-01T17:27:47Z</time></trkpt><trkpt lat="43.39543366689637" lon="-4.659637030222328"><ele>59.0</ele><time>2026-05-01T17:27:48Z</time></trkpt><trkpt lat="43.39543025688712" lon="-4.659790656493961"><ele>59.0</ele><time>2026-05-01T17:27:49Z</time></trkpt><trkpt lat="43.395422396794025" lon="-4.659943547777311"><ele>59.800000000000004</ele><time>2026-05-01T17:27:50Z</time></trkpt><trkpt lat="43.39542534863443" lon="-4.660094385409356"><ele>60.60000000000001</ele><time>2026-05-01T17:27:51Z</time></trkpt><trkpt lat="43.3954251193164" lon="-4.660245207786427"><ele>61.4</ele><time>2026-05-01T17:27:52Z</time></trkpt><trkpt lat="43.39542658329639" lon="-4.66039748327314"><ele>62.2</ele><time>2026-05-01T17:27:53Z</time></trkpt><trkpt lat="43.39542618561467" lon="-4.66054783160229"><ele>63.0</ele><time>2026-05-01T17:27:54Z</time></trkpt><trkpt lat="43.39542732901935" lon="-4.660699468948657"><ele>63.2</ele><time>2026-05-01T17:27:55Z</time></trkpt><trkpt lat="43.39542893416593" lon="-4.660848350373893"><ele>63.4</ele><time>2026-05-01T17:27:56Z</time></trkpt><trkpt lat="43.395430069372125" lon="-4.660998213766237"><ele>63.60000000000001</ele><time>2026-05-01T17:27:57Z</time></trkpt><trkpt lat="43.39543026037677" lon="-4.661151794555296"><ele>63.800000000000004</ele><time>2026-05-01T17:27:58Z</time></trkpt><trkpt lat="43.395431376397916" lon="-4.661304244360127"><ele>64.0</ele><time>2026-05-01T17:27:59Z</time></trkpt><trkpt lat="43.395433682808" lon="-4.661451818498685"><ele>64.0</ele><time>2026-05-01T17:28:00Z</time></trkpt><trkpt lat="43.39543604093389" lon="-4.66160199189877"><ele>64.0</ele><time>2026-05-01T17:28:01Z</time></trkpt><trkpt lat="43.39543564921296" lon="-4.66175256016559"><ele>64.0</ele><time>2026-05-01T17:28:02Z</time></trkpt><trkpt lat="43.395436810911434" lon="-4.661899497566685"><ele>64.0</ele><time>2026-05-01T17:28:03Z</time></trkpt><trkpt lat="43.39543935838563" lon="-4.662049086733504"><ele>64.0</ele><time>2026-05-01T17:28:04Z</time></trkpt><trkpt lat="43.39543946985076" lon="-4.662201777661022"><ele>64.0</ele><time>2026-05-01T17:28:05Z</time></trkpt><trkpt lat="43.39544577546305" lon="-4.662349040203675"><ele>64.0</ele><time>2026-05-01T17:28:06Z</time></trkpt><trkpt lat="43.39544098028266" lon="-4.662498216409103"><ele>64.0</ele><time>2026-05-01T17:28:07Z</time></trkpt><trkpt lat="43.39544863970103" lon="-4.6626496485221045"><ele>64.0</ele><time>2026-05-01T17:28:08Z</time></trkpt><trkpt lat="43.395445634103446" lon="-4.662799242439414"><ele>64.0</ele><time>2026-05-01T17:28:09Z</time></trkpt><trkpt lat="43.39544654641358" lon="-4.662950713031609"><ele>64.0</ele><time>2026-05-01T17:28:10Z</time></trkpt><trkpt lat="43.39544911349222" lon="-4.663097449515857"><ele>64.0</ele><time>2026-05-01T17:28:11Z</time></trkpt><trkpt lat="43.39544835393897" lon="-4.663244883077321"><ele>64.0</ele><time>2026-05-01T17:28:12Z</time></trkpt><trkpt lat="43.39544428988704" lon="-4.66339277108914"><ele>64.0</ele><time>2026-05-01T17:28:13Z</time></trkpt><trkpt lat="43.39545262224447" lon="-4.663543244016821"><ele>64.0</ele><time>2026-05-01T17:28:14Z</time></trkpt><trkpt lat="43.39543803852829" lon="-4.66368810676888"><ele>64.60000000000001</ele><time>2026-05-01T17:28:15Z</time></trkpt><trkpt lat="43.395437101527754" lon="-4.663836676409276"><ele>65.2</ele><time>2026-05-01T17:28:16Z</time></trkpt><trkpt lat="43.395441307562216" lon="-4.663986011255153"><ele>65.80000000000001</ele><time>2026-05-01T17:28:17Z</time></trkpt><trkpt lat="43.39545379928726" lon="-4.664142606072221"><ele>66.4</ele><time>2026-05-01T17:28:18Z</time></trkpt><trkpt lat="43.395462821702004" lon="-4.664289015043376"><ele>67.0</ele><time>2026-05-01T17:28:19Z</time></trkpt><trkpt lat="43.395471463183505" lon="-4.664439632599699"><ele>66.75</ele><time>2026-05-01T17:28:20Z</time></trkpt><trkpt lat="43.39548476189434" lon="-4.66459343720224"><ele>66.5</ele><time>2026-05-01T17:28:21Z</time></trkpt><trkpt lat="43.39550433569164" lon="-4.664746097356616"><ele>66.25</ele><time>2026-05-01T17:28:22Z</time></trkpt><trkpt lat="43.39553341673838" lon="-4.66489216776722"><ele>66.0</ele><time>2026-05-01T17:28:23Z</time></trkpt><trkpt lat="43.39557102670796" lon="-4.665042596222778"><ele>63.25</ele><time>2026-05-01T17:28:24Z</time></trkpt><trkpt lat="43.39561160986611" lon="-4.665188816432154"><ele>60.5</ele><time>2026-05-01T17:28:25Z</time></trkpt><trkpt lat="43.39568020563992" lon="-4.66532227282611"><ele>57.75</ele><time>2026-05-01T17:28:26Z</time></trkpt><trkpt lat="43.39571060222914" lon="-4.665472150860834"><ele>55.0</ele><time>2026-05-01T17:28:27Z</time></trkpt><trkpt lat="43.39575977335333" lon="-4.665618560679713"><ele>54.5</ele><time>2026-05-01T17:28:28Z</time></trkpt><trkpt lat="43.39580861377442" lon="-4.665760425016386"><ele>54.0</ele><time>2026-05-01T17:28:29Z</time></trkpt><trkpt lat="43.39585619808367" lon="-4.665906180828779"><ele>53.5</ele><time>2026-05-01T17:28:30Z</time></trkpt><trkpt lat="43.395905426679214" lon="-4.66605140137679"><ele>53.0</ele><time>2026-05-01T17:28:31Z</time></trkpt><trkpt lat="43.39595241888676" lon="-4.666196961280517"><ele>52.0</ele><time>2026-05-01T17:28:32Z</time></trkpt><trkpt lat="43.39600101793105" lon="-4.66634549483696"><ele>51.0</ele><time>2026-05-01T17:28:33Z</time></trkpt><trkpt lat="43.39604686953364" lon="-4.666490454966408"><ele>50.0</ele><time>2026-05-01T17:28:34Z</time></trkpt><trkpt lat="43.39610023420891" lon="-4.6666334111403724"><ele>49.0</ele><time>2026-05-01T17:28:35Z</time></trkpt><trkpt lat="43.39614604462635" lon="-4.666803840396939"><ele>49.0</ele><time>2026-05-01T17:28:36Z</time></trkpt><trkpt lat="43.39619225225095" lon="-4.6669392804891565"><ele>49.0</ele><time>2026-05-01T17:28:37Z</time></trkpt><trkpt lat="43.396233294456366" lon="-4.667079063440678"><ele>49.0</ele><time>2026-05-01T17:28:38Z</time></trkpt><trkpt lat="43.396265358699424" lon="-4.667224762193331"><ele>49.0</ele><time>2026-05-01T17:28:39Z</time></trkpt><trkpt lat="43.39629757401832" lon="-4.667374433952111"><ele>49.0</ele><time>2026-05-01T17:28:40Z</time></trkpt><trkpt lat="43.39632453501198" lon="-4.667529672449315"><ele>47.75</ele><time>2026-05-01T17:28:41Z</time></trkpt><trkpt lat="43.39633957445263" lon="-4.667689573742178"><ele>46.5</ele><time>2026-05-01T17:28:42Z</time></trkpt><trkpt lat="43.39635539370708" lon="-4.667849344510322"><ele>45.25</ele><time>2026-05-01T17:28:43Z</time></trkpt><trkpt lat="43.39636840169922" lon="-4.668010058660323"><ele>44.0</ele><time>2026-05-01T17:28:44Z</time></trkpt><trkpt lat="43.39637907061392" lon="-4.6681683887784615"><ele>43.0</ele><time>2026-05-01T17:28:45Z</time></trkpt><trkpt lat="43.39638836348319" lon="-4.668326913165494"><ele>42.0</ele><time>2026-05-01T17:28:46Z</time></trkpt><trkpt lat="43.396393492750256" lon="-4.668486944986056"><ele>41.0</ele><time>2026-05-01T17:28:47Z</time></trkpt><trkpt lat="43.39639935169583" lon="-4.668644900452786"><ele>40.0</ele><time>2026-05-01T17:28:48Z</time></trkpt><trkpt lat="43.3964073165342" lon="-4.668803826082581"><ele>39.5</ele><time>2026-05-01T17:28:49Z</time></trkpt><trkpt lat="43.39641035888364" lon="-4.668966136365804"><ele>39.0</ele><time>2026-05-01T17:28:50Z</time></trkpt><trkpt lat="43.396413933119376" lon="-4.6691261234293515"><ele>38.5</ele><time>2026-05-01T17:28:51Z</time></trkpt><trkpt lat="43.396416236115826" lon="-4.669282522203456"><ele>38.0</ele><time>2026-05-01T17:28:52Z</time></trkpt><trkpt lat="43.39640514787176" lon="-4.669444782457409"><ele>37.75</ele><time>2026-05-01T17:28:53Z</time></trkpt><trkpt lat="43.39639818366078" lon="-4.669604771127986"><ele>37.5</ele><time>2026-05-01T17:28:54Z</time></trkpt><trkpt lat="43.3963884587882" lon="-4.669758364422126"><ele>37.25</ele><time>2026-05-01T17:28:55Z</time></trkpt><trkpt lat="43.39636953869494" lon="-4.6699105338227715"><ele>37.0</ele><time>2026-05-01T17:28:56Z</time></trkpt><trkpt lat="43.39635517068016" lon="-4.670064661382567"><ele>37.0</ele><time>2026-05-01T17:28:57Z</time></trkpt><trkpt lat="43.396337153523234" lon="-4.670219043958517"><ele>37.0</ele><time>2026-05-01T17:28:58Z</time></trkpt><trkpt lat="43.39631939603303" lon="-4.670371550185139"><ele>37.0</ele><time>2026-05-01T17:28:59Z</time></trkpt><trkpt lat="43.39630209378298" lon="-4.670520638601199"><ele>37.0</ele><time>2026-05-01T17:29:00Z</time></trkpt><trkpt lat="43.39628409205564" lon="-4.670672706813082"><ele>37.0</ele><time>2026-05-01T17:29:01Z</time></trkpt><trkpt lat="43.39626437420393" lon="-4.670827089953183"><ele>37.8</ele><time>2026-05-01T17:29:02Z</time></trkpt><trkpt lat="43.39624418854675" lon="-4.6709784340557885"><ele>38.6</ele><time>2026-05-01T17:29:03Z</time></trkpt><trkpt lat="43.39622555003265" lon="-4.671125868082282"><ele>39.4</ele><time>2026-05-01T17:29:04Z</time></trkpt><trkpt lat="43.396208060708005" lon="-4.671279669519398"><ele>40.199999999999996</ele><time>2026-05-01T17:29:05Z</time></trkpt><trkpt lat="43.396187386546636" lon="-4.671433925498605"><ele>41.0</ele><time>2026-05-01T17:29:06Z</time></trkpt><trkpt lat="43.396169754226676" lon="-4.671583592590662"><ele>41.0</ele><time>2026-05-01T17:29:07Z</time></trkpt><trkpt lat="43.396149894042274" lon="-4.671735519959011"><ele>41.0</ele><time>2026-05-01T17:29:08Z</time></trkpt><trkpt lat="43.396139506939434" lon="-4.6718844607551215"><ele>41.0</ele><time>2026-05-01T17:29:09Z</time></trkpt><trkpt lat="43.396125914932846" lon="-4.672038715494353"><ele>41.0</ele><time>2026-05-01T17:29:10Z</time></trkpt><trkpt lat="43.39611885089696" lon="-4.672194487549611"><ele>41.0</ele><time>2026-05-01T17:29:11Z</time></trkpt><trkpt lat="43.39611346895915" lon="-4.672350984787913"><ele>41.0</ele><time>2026-05-01T17:29:12Z</time></trkpt><trkpt lat="43.39611782930759" lon="-4.672503496660544"><ele>41.0</ele><time>2026-05-01T17:29:13Z</time></trkpt><trkpt lat="43.39612887810907" lon="-4.672655080491794"><ele>41.0</ele><time>2026-05-01T17:29:14Z</time></trkpt><trkpt lat="43.39614202412021" lon="-4.672812880283849"><ele>41.0</ele><time>2026-05-01T17:29:15Z</time></trkpt><trkpt lat="43.396165256291845" lon="-4.672961519311829"><ele>41.0</ele><time>2026-05-01T17:29:16Z</time></trkpt><trkpt lat="43.396190872724596" lon="-4.673109615798343"><ele>41.0</ele><time>2026-05-01T17:29:17Z</time></trkpt><trkpt lat="43.396215565419936" lon="-4.673257099000766"><ele>41.0</ele><time>2026-05-01T17:29:18Z</time></trkpt><trkpt lat="43.39624231155133" lon="-4.673414452736231"><ele>41.0</ele><time>2026-05-01T17:29:19Z</time></trkpt><trkpt lat="43.396267072410296" lon="-4.67356398278619"><ele>41.0</ele><time>2026-05-01T17:29:20Z</time></trkpt><trkpt lat="43.39629233822455" lon="-4.673714223202034"><ele>41.5</ele><time>2026-05-01T17:29:21Z</time></trkpt><trkpt lat="43.3963172173249" lon="-4.673863951374155"><ele>42.0</ele><time>2026-05-01T17:29:22Z</time></trkpt><trkpt lat="43.3963411204539" lon="-4.674014302377676"><ele>42.5</ele><time>2026-05-01T17:29:23Z</time></trkpt><trkpt lat="43.396359002759944" lon="-4.674165680867702"><ele>43.0</ele><time>2026-05-01T17:29:24Z</time></trkpt><trkpt lat="43.396370800070706" lon="-4.674322804286829"><ele>42.25</ele><time>2026-05-01T17:29:25Z</time></trkpt><trkpt lat="43.39637796861178" lon="-4.674475107440249"><ele>41.5</ele><time>2026-05-01T17:29:26Z</time></trkpt><trkpt lat="43.396374713848445" lon="-4.674631552294221"><ele>40.75</ele><time>2026-05-01T17:29:27Z</time></trkpt><trkpt lat="43.39636622250049" lon="-4.674786465982738"><ele>40.0</ele><time>2026-05-01T17:29:28Z</time></trkpt><trkpt lat="43.39635429842746" lon="-4.6749403746775915"><ele>40.2</ele><time>2026-05-01T17:29:29Z</time></trkpt><trkpt lat="43.39633221138158" lon="-4.675091695797393"><ele>40.4</ele><time>2026-05-01T17:29:30Z</time></trkpt><trkpt lat="43.39630771733293" lon="-4.675244163681689"><ele>40.599999999999994</ele><time>2026-05-01T17:29:31Z</time></trkpt><trkpt lat="43.39628548872105" lon="-4.67539300847528"><ele>40.8</ele><time>2026-05-01T17:29:32Z</time></trkpt><trkpt lat="43.39626151301723" lon="-4.675541929874376"><ele>41.0</ele><time>2026-05-01T17:29:33Z</time></trkpt><trkpt lat="43.39624143150994" lon="-4.675693286045416"><ele>41.0</ele><time>2026-05-01T17:29:34Z</time></trkpt><trkpt lat="43.39621753284471" lon="-4.675839518749171"><ele>41.0</ele><time>2026-05-01T17:29:35Z</time></trkpt><trkpt lat="43.39620269891002" lon="-4.675989056488561"><ele>41.0</ele><time>2026-05-01T17:29:36Z</time></trkpt><trkpt lat="43.39619009236327" lon="-4.6761382909566445"><ele>41.0</ele><time>2026-05-01T17:29:37Z</time></trkpt><trkpt lat="43.39618657911317" lon="-4.676286490815531"><ele>41.0</ele><time>2026-05-01T17:29:38Z</time></trkpt><trkpt lat="43.39619096446781" lon="-4.676437400318265"><ele>40.8</ele><time>2026-05-01T17:29:39Z</time></trkpt><trkpt lat="43.39620785988009" lon="-4.676586343750181"><ele>40.599999999999994</ele><time>2026-05-01T17:29:40Z</time></trkpt><trkpt lat="43.39622846107973" lon="-4.676731826197938"><ele>40.4</ele><time>2026-05-01T17:29:41Z</time></trkpt><trkpt lat="43.39625142651542" lon="-4.676877920368511"><ele>40.2</ele><time>2026-05-01T17:29:42Z</time></trkpt><trkpt lat="43.396272037681165" lon="-4.677027267597199"><ele>40.0</ele><time>2026-05-01T17:29:43Z</time></trkpt><trkpt lat="43.396292213300015" lon="-4.677175281386134"><ele>40.6</ele><time>2026-05-01T17:29:44Z</time></trkpt><trkpt lat="43.396307765522465" lon="-4.677322613171118"><ele>41.2</ele><time>2026-05-01T17:29:45Z</time></trkpt><trkpt lat="43.39632571203691" lon="-4.67747138780853"><ele>41.8</ele><time>2026-05-01T17:29:46Z</time></trkpt><trkpt lat="43.39634466154204" lon="-4.6776202337311945"><ele>42.4</ele><time>2026-05-01T17:29:47Z</time></trkpt><trkpt lat="43.396361561421834" lon="-4.677768082197418"><ele>43.0</ele><time>2026-05-01T17:29:48Z</time></trkpt><trkpt lat="43.396380500778136" lon="-4.67791735413719"><ele>42.0</ele><time>2026-05-01T17:29:49Z</time></trkpt><trkpt lat="43.39639787111928" lon="-4.67806822050019"><ele>41.0</ele><time>2026-05-01T17:29:50Z</time></trkpt><trkpt lat="43.39641350120317" lon="-4.678217740439951"><ele>40.0</ele><time>2026-05-01T17:29:51Z</time></trkpt><trkpt lat="43.39643248857419" lon="-4.678368438225842"><ele>39.0</ele><time>2026-05-01T17:29:52Z</time></trkpt><trkpt lat="43.39644884704771" lon="-4.678515731361047"><ele>38.0</ele><time>2026-05-01T17:29:53Z</time></trkpt><trkpt lat="43.396462207761765" lon="-4.678664033143363"><ele>38.0</ele><time>2026-05-01T17:29:54Z</time></trkpt><trkpt lat="43.396477355381315" lon="-4.6788126907568195"><ele>38.0</ele><time>2026-05-01T17:29:55Z</time></trkpt><trkpt lat="43.3964921011676" lon="-4.678959019314392"><ele>38.0</ele><time>2026-05-01T17:29:56Z</time></trkpt><trkpt lat="43.39651005837427" lon="-4.679108401403393"><ele>38.0</ele><time>2026-05-01T17:29:57Z</time></trkpt><trkpt lat="43.39652656222575" lon="-4.679256294068465"><ele>38.0</ele><time>2026-05-01T17:29:58Z</time></trkpt><trkpt lat="43.39654628889806" lon="-4.679404432047371"><ele>38.0</ele><time>2026-05-01T17:29:59Z</time></trkpt><trkpt lat="43.39656650982748" lon="-4.679550682197627"><ele>38.0</ele><time>2026-05-01T17:30:00Z</time></trkpt><trkpt lat="43.39658461658377" lon="-4.67969847018034"><ele>38.0</ele><time>2026-05-01T17:30:01Z</time></trkpt><trkpt lat="43.39660155406644" lon="-4.679848463143123"><ele>38.0</ele><time>2026-05-01T17:30:02Z</time></trkpt><trkpt lat="43.396618564436004" lon="-4.679999083081224"><ele>38.0</ele><time>2026-05-01T17:30:03Z</time></trkpt><trkpt lat="43.3966329137099" lon="-4.680148729596491"><ele>38.4</ele><time>2026-05-01T17:30:04Z</time></trkpt><trkpt lat="43.39665019156974" lon="-4.680296250054417"><ele>38.8</ele><time>2026-05-01T17:30:05Z</time></trkpt><trkpt lat="43.39667012369569" lon="-4.680446701933669"><ele>39.2</ele><time>2026-05-01T17:30:06Z</time></trkpt><trkpt lat="43.39668805694198" lon="-4.680595012145128"><ele>39.6</ele><time>2026-05-01T17:30:07Z</time></trkpt><trkpt lat="43.39670703245247" lon="-4.680742761621016"><ele>40.0</ele><time>2026-05-01T17:30:08Z</time></trkpt><trkpt lat="43.396725823405674" lon="-4.680890936457852"><ele>40.0</ele><time>2026-05-01T17:30:09Z</time></trkpt><trkpt lat="43.39674492080797" lon="-4.681037850643057"><ele>40.0</ele><time>2026-05-01T17:30:10Z</time></trkpt><trkpt lat="43.39676234409611" lon="-4.6811887108535535"><ele>40.0</ele><time>2026-05-01T17:30:11Z</time></trkpt><trkpt lat="43.39677815278325" lon="-4.681338310723034"><ele>40.0</ele><time>2026-05-01T17:30:12Z</time></trkpt><trkpt lat="43.396799290413284" lon="-4.681488433785299"><ele>40.0</ele><time>2026-05-01T17:30:13Z</time></trkpt><trkpt lat="43.39681783081484" lon="-4.681641453569637"><ele>40.0</ele><time>2026-05-01T17:30:14Z</time></trkpt><trkpt lat="43.39683519723444" lon="-4.681793719152928"><ele>40.0</ele><time>2026-05-01T17:30:15Z</time></trkpt><trkpt lat="43.39685345614952" lon="-4.68194335645298"><ele>40.0</ele><time>2026-05-01T17:30:16Z</time></trkpt><trkpt lat="43.396873938414736" lon="-4.68209510823643"><ele>40.0</ele><time>2026-05-01T17:30:17Z</time></trkpt><trkpt lat="43.39689125133232" lon="-4.682249005896009"><ele>40.0</ele><time>2026-05-01T17:30:18Z</time></trkpt><trkpt lat="43.39690835913312" lon="-4.682398263975995"><ele>40.25</ele><time>2026-05-01T17:30:19Z</time></trkpt><trkpt lat="43.396924478745284" lon="-4.682550834529101"><ele>40.5</ele><time>2026-05-01T17:30:20Z</time></trkpt><trkpt lat="43.396940834715934" lon="-4.682706258018423"><ele>40.75</ele><time>2026-05-01T17:30:21Z</time></trkpt><trkpt lat="43.39695842653199" lon="-4.682855730187976"><ele>41.0</ele><time>2026-05-01T17:30:22Z</time></trkpt><trkpt lat="43.39697577240855" lon="-4.683009908139856"><ele>41.199999999999996</ele><time>2026-05-01T17:30:23Z</time></trkpt><trkpt lat="43.39699518161754" lon="-4.68315975116754"><ele>41.4</ele><time>2026-05-01T17:30:24Z</time></trkpt><trkpt lat="43.397012813197506" lon="-4.6833105176451"><ele>41.6</ele><time>2026-05-01T17:30:25Z</time></trkpt><trkpt lat="43.39703261825817" lon="-4.683462740245059"><ele>41.8</ele><time>2026-05-01T17:30:26Z</time></trkpt><trkpt lat="43.39705005945601" lon="-4.683615313020662"><ele>42.0</ele><time>2026-05-01T17:30:27Z</time></trkpt><trkpt lat="43.397063804247395" lon="-4.683768307036496"><ele>42.0</ele><time>2026-05-01T17:30:28Z</time></trkpt><trkpt lat="43.397080495763426" lon="-4.683921923089487"><ele>42.0</ele><time>2026-05-01T17:30:29Z</time></trkpt><trkpt lat="43.397099103621095" lon="-4.684072446487727"><ele>42.0</ele><time>2026-05-01T17:30:30Z</time></trkpt><trkpt lat="43.39711581860763" lon="-4.684225625929553"><ele>42.0</ele><time>2026-05-01T17:30:31Z</time></trkpt><trkpt lat="43.39713156256183" lon="-4.6843759978742"><ele>42.0</ele><time>2026-05-01T17:30:32Z</time></trkpt><trkpt lat="43.397149545363625" lon="-4.684528819545326"><ele>41.8</ele><time>2026-05-01T17:30:33Z</time></trkpt><trkpt lat="43.39716682938979" lon="-4.684680250463886"><ele>41.6</ele><time>2026-05-01T17:30:34Z</time></trkpt><trkpt lat="43.39718347148566" lon="-4.684833255049881"><ele>41.4</ele><time>2026-05-01T17:30:35Z</time></trkpt><trkpt lat="43.39719674679002" lon="-4.684982510542763"><ele>41.199999999999996</ele><time>2026-05-01T17:30:36Z</time></trkpt><trkpt lat="43.39721713327727" lon="-4.685131794027472"><ele>41.0</ele><time>2026-05-01T17:30:37Z</time></trkpt><trkpt lat="43.39723140787274" lon="-4.685279813259555"><ele>40.8</ele><time>2026-05-01T17:30:38Z</time></trkpt><trkpt lat="43.39724659067049" lon="-4.685430241505575"><ele>40.599999999999994</ele><time>2026-05-01T17:30:39Z</time></trkpt><trkpt lat="43.39726397046434" lon="-4.685576237270959"><ele>40.4</ele><time>2026-05-01T17:30:40Z</time></trkpt><trkpt lat="43.39727611559544" lon="-4.6857306541165205"><ele>40.2</ele><time>2026-05-01T17:30:41Z</time></trkpt><trkpt lat="43.397289777058575" lon="-4.685880861356951"><ele>40.0</ele><time>2026-05-01T17:30:42Z</time></trkpt><trkpt lat="43.397301132684426" lon="-4.6860288892879165"><ele>41.0</ele><time>2026-05-01T17:30:43Z</time></trkpt><trkpt lat="43.39730873151897" lon="-4.686178677787479"><ele>42.0</ele><time>2026-05-01T17:30:44Z</time></trkpt><trkpt lat="43.39731644174641" lon="-4.686330255238116"><ele>43.0</ele><time>2026-05-01T17:30:45Z</time></trkpt><trkpt lat="43.39732032689387" lon="-4.6864784313549945"><ele>44.0</ele><time>2026-05-01T17:30:46Z</time></trkpt><trkpt lat="43.397320965891645" lon="-4.686623311826133"><ele>45.0</ele><time>2026-05-01T17:30:47Z</time></trkpt><trkpt lat="43.397325792927695" lon="-4.686776270715719"><ele>45.0</ele><time>2026-05-01T17:30:48Z</time></trkpt><trkpt lat="43.39732902929399" lon="-4.686922729299486"><ele>45.0</ele><time>2026-05-01T17:30:49Z</time></trkpt><trkpt lat="43.397331885236405" lon="-4.687069867777247"><ele>45.0</ele><time>2026-05-01T17:30:50Z</time></trkpt><trkpt lat="43.39733363820465" lon="-4.687221664547578"><ele>45.0</ele><time>2026-05-01T17:30:51Z</time></trkpt><trkpt lat="43.397340166425785" lon="-4.687373469175474"><ele>45.0</ele><time>2026-05-01T17:30:52Z</time></trkpt><trkpt lat="43.397337457247346" lon="-4.687519249011031"><ele>44.4</ele><time>2026-05-01T17:30:53Z</time></trkpt><trkpt lat="43.3973355656473" lon="-4.687669666474535"><ele>43.8</ele><time>2026-05-01T17:30:54Z</time></trkpt><trkpt lat="43.39732843906035" lon="-4.6878201914027855"><ele>43.2</ele><time>2026-05-01T17:30:55Z</time></trkpt><trkpt lat="43.397322386614526" lon="-4.687967755919428"><ele>42.6</ele><time>2026-05-01T17:30:56Z</time></trkpt><trkpt lat="43.39731679581822" lon="-4.688101048003807"><ele>42.0</ele><time>2026-05-01T17:30:57Z</time></trkpt><trkpt lat="43.397307078878214" lon="-4.688255272340405"><ele>41.2</ele><time>2026-05-01T17:30:58Z</time></trkpt><trkpt lat="43.39729738284632" lon="-4.688399378316197"><ele>40.400000000000006</ele><time>2026-05-01T17:30:59Z</time></trkpt><trkpt lat="43.39728797013133" lon="-4.688537674625286"><ele>39.599999999999994</ele><time>2026-05-01T17:31:00Z</time></trkpt><trkpt lat="43.397270861751934" lon="-4.688698509291533"><ele>38.8</ele><time>2026-05-01T17:31:01Z</time></trkpt><trkpt lat="43.39725927736898" lon="-4.688842269080832"><ele>38.0</ele><time>2026-05-01T17:31:02Z</time></trkpt><trkpt lat="43.397245042319035" lon="-4.688992245047954"><ele>38.0</ele><time>2026-05-01T17:31:03Z</time></trkpt><trkpt lat="43.39723663282443" lon="-4.689135606758123"><ele>38.0</ele><time>2026-05-01T17:31:04Z</time></trkpt><trkpt lat="43.397217311151" lon="-4.689277256856165"><ele>38.0</ele><time>2026-05-01T17:31:05Z</time></trkpt><trkpt lat="43.39719949422196" lon="-4.689428111329017"><ele>38.0</ele><time>2026-05-01T17:31:06Z</time></trkpt><trkpt lat="43.39717601731703" lon="-4.68957582537535"><ele>38.0</ele><time>2026-05-01T17:31:07Z</time></trkpt><trkpt lat="43.39715814304686" lon="-4.689722919813272"><ele>39.599999999999994</ele><time>2026-05-01T17:31:08Z</time></trkpt><trkpt lat="43.397136389055994" lon="-4.689867859478919"><ele>41.199999999999996</ele><time>2026-05-01T17:31:09Z</time></trkpt><trkpt lat="43.3971147837182" lon="-4.690015067327406"><ele>42.8</ele><time>2026-05-01T17:31:10Z</time></trkpt><trkpt lat="43.397090861291176" lon="-4.690166990245608"><ele>44.4</ele><time>2026-05-01T17:31:11Z</time></trkpt><trkpt lat="43.39706973573452" lon="-4.69031911665977"><ele>46.0</ele><time>2026-05-01T17:31:12Z</time></trkpt><trkpt lat="43.39704609920402" lon="-4.690466068394852"><ele>46.0</ele><time>2026-05-01T17:31:13Z</time></trkpt><trkpt lat="43.39702268675818" lon="-4.690618411364167"><ele>46.0</ele><time>2026-05-01T17:31:14Z</time></trkpt><trkpt lat="43.39699960907209" lon="-4.6907714839371755"><ele>46.0</ele><time>2026-05-01T17:31:15Z</time></trkpt><trkpt lat="43.39697815666412" lon="-4.6909242077572815"><ele>46.0</ele><time>2026-05-01T17:31:16Z</time></trkpt><trkpt lat="43.396959372792075" lon="-4.6910800162624"><ele>46.25</ele><time>2026-05-01T17:31:17Z</time></trkpt><trkpt lat="43.39693824780755" lon="-4.691232359109777"><ele>46.5</ele><time>2026-05-01T17:31:18Z</time></trkpt><trkpt lat="43.396912391011924" lon="-4.691386437592632"><ele>46.75</ele><time>2026-05-01T17:31:19Z</time></trkpt><trkpt lat="43.39689934292247" lon="-4.691541359070341"><ele>47.0</ele><time>2026-05-01T17:31:20Z</time></trkpt><trkpt lat="43.39689374115731" lon="-4.691695312483185"><ele>47.0</ele><time>2026-05-01T17:31:21Z</time></trkpt><trkpt lat="43.39689164291425" lon="-4.691856487490927"><ele>47.0</ele><time>2026-05-01T17:31:22Z</time></trkpt><trkpt lat="43.39689039001081" lon="-4.692012471277609"><ele>47.0</ele><time>2026-05-01T17:31:23Z</time></trkpt><trkpt lat="43.39689438563105" lon="-4.6921720084242695"><ele>47.0</ele><time>2026-05-01T17:31:24Z</time></trkpt><trkpt lat="43.39690354566667" lon="-4.6923304119996745"><ele>46.5</ele><time>2026-05-01T17:31:25Z</time></trkpt><trkpt lat="43.39691543908031" lon="-4.692490629208554"><ele>46.0</ele><time>2026-05-01T17:31:26Z</time></trkpt><trkpt lat="43.39693653024802" lon="-4.692648435469783"><ele>45.5</ele><time>2026-05-01T17:31:27Z</time></trkpt><trkpt lat="43.39695882120002" lon="-4.692802362972837"><ele>45.0</ele><time>2026-05-01T17:31:28Z</time></trkpt><trkpt lat="43.39699179715845" lon="-4.692958226711382"><ele>45.0</ele><time>2026-05-01T17:31:29Z</time></trkpt><trkpt lat="43.39702786040044" lon="-4.693104852259771"><ele>45.0</ele><time>2026-05-01T17:31:30Z</time></trkpt><trkpt lat="43.39706802757051" lon="-4.693254804925787"><ele>45.0</ele><time>2026-05-01T17:31:31Z</time></trkpt><trkpt lat="43.39711358723083" lon="-4.693399562906308"><ele>45.0</ele><time>2026-05-01T17:31:32Z</time></trkpt><trkpt lat="43.39716627524976" lon="-4.693540148364543"><ele>42.75</ele><time>2026-05-01T17:31:33Z</time></trkpt><trkpt lat="43.39722146608911" lon="-4.693679080512368"><ele>40.5</ele><time>2026-05-01T17:31:34Z</time></trkpt><trkpt lat="43.39728557435955" lon="-4.693803835370638"><ele>38.25</ele><time>2026-05-01T17:31:35Z</time></trkpt><trkpt lat="43.39735334492202" lon="-4.693936277708747"><ele>36.0</ele><time>2026-05-01T17:31:36Z</time></trkpt><trkpt lat="43.39742319867713" lon="-4.694068545491298"><ele>36.0</ele><time>2026-05-01T17:31:37Z</time></trkpt><trkpt lat="43.39749651737322" lon="-4.6941921703367475"><ele>36.0</ele><time>2026-05-01T17:31:38Z</time></trkpt><trkpt lat="43.39757611182112" lon="-4.694305547446956"><ele>36.0</ele><time>2026-05-01T17:31:39Z</time></trkpt><trkpt lat="43.397656680472736" lon="-4.694419649129138"><ele>36.0</ele><time>2026-05-01T17:31:40Z</time></trkpt><trkpt lat="43.39774004951391" lon="-4.694528125993785"><ele>36.0</ele><time>2026-05-01T17:31:41Z</time></trkpt><trkpt lat="43.397819066642064" lon="-4.694638887453811"><ele>36.0</ele><time>2026-05-01T17:31:42Z</time></trkpt><trkpt lat="43.39789657899811" lon="-4.694752044305102"><ele>36.0</ele><time>2026-05-01T17:31:43Z</time></trkpt><trkpt lat="43.3979721238258" lon="-4.694864885031774"><ele>36.0</ele><time>2026-05-01T17:31:44Z</time></trkpt><trkpt lat="43.39804854274744" lon="-4.694975626197044"><ele>36.0</ele><time>2026-05-01T17:31:45Z</time></trkpt><trkpt lat="43.39812507027344" lon="-4.695088553010797"><ele>34.5</ele><time>2026-05-01T17:31:46Z</time></trkpt><trkpt lat="43.39819820136633" lon="-4.695204642237886"><ele>33.0</ele><time>2026-05-01T17:31:47Z</time></trkpt><trkpt lat="43.39827283538717" lon="-4.695321972429668"><ele>31.5</ele><time>2026-05-01T17:31:48Z</time></trkpt><trkpt lat="43.398342265102876" lon="-4.695441891613429"><ele>30.0</ele><time>2026-05-01T17:31:49Z</time></trkpt><trkpt lat="43.39840493682932" lon="-4.695575627426761"><ele>30.0</ele><time>2026-05-01T17:31:50Z</time></trkpt><trkpt lat="43.39847023541291" lon="-4.695704226796604"><ele>30.0</ele><time>2026-05-01T17:31:51Z</time></trkpt><trkpt lat="43.39853287212564" lon="-4.6958337768355705"><ele>30.0</ele><time>2026-05-01T17:31:52Z</time></trkpt><trkpt lat="43.39857887359079" lon="-4.695975963117721"><ele>30.0</ele><time>2026-05-01T17:31:53Z</time></trkpt><trkpt lat="43.39862858403934" lon="-4.696116849451228"><ele>30.25</ele><time>2026-05-01T17:31:54Z</time></trkpt><trkpt lat="43.39867512387551" lon="-4.696255792918518"><ele>30.5</ele><time>2026-05-01T17:31:55Z</time></trkpt><trkpt lat="43.398712890668875" lon="-4.696403751961204"><ele>30.75</ele><time>2026-05-01T17:31:56Z</time></trkpt><trkpt lat="43.39874926523149" lon="-4.696554538385595"><ele>31.0</ele><time>2026-05-01T17:31:57Z</time></trkpt><trkpt lat="43.398782689106284" lon="-4.696700529060678"><ele>31.0</ele><time>2026-05-01T17:31:58Z</time></trkpt><trkpt lat="43.3988076316624" lon="-4.6968495069247895"><ele>31.0</ele><time>2026-05-01T17:31:59Z</time></trkpt><trkpt lat="43.39883373144253" lon="-4.696999967796996"><ele>31.0</ele><time>2026-05-01T17:32:00Z</time></trkpt><trkpt lat="43.39884880974967" lon="-4.697158620345538"><ele>31.0</ele><time>2026-05-01T17:32:01Z</time></trkpt><trkpt lat="43.39885772332897" lon="-4.697312375194512"><ele>30.75</ele><time>2026-05-01T17:32:02Z</time></trkpt><trkpt lat="43.39886440409342" lon="-4.697470683147428"><ele>30.5</ele><time>2026-05-01T17:32:03Z</time></trkpt><trkpt lat="43.398868255336595" lon="-4.697631609706586"><ele>30.25</ele><time>2026-05-01T17:32:04Z</time></trkpt><trkpt lat="43.398868835489466" lon="-4.697786763270834"><ele>30.0</ele><time>2026-05-01T17:32:05Z</time></trkpt><trkpt lat="43.39885919403401" lon="-4.697940056384285"><ele>28.25</ele><time>2026-05-01T17:32:06Z</time></trkpt><trkpt lat="43.39886187798002" lon="-4.6980903743054885"><ele>26.5</ele><time>2026-05-01T17:32:07Z</time></trkpt><trkpt lat="43.39883174129337" lon="-4.698250760040934"><ele>24.75</ele><time>2026-05-01T17:32:08Z</time></trkpt><trkpt lat="43.39881078667655" lon="-4.698407993570253"><ele>23.0</ele><time>2026-05-01T17:32:09Z</time></trkpt><trkpt lat="43.39878696449533" lon="-4.698562196270565"><ele>19.5</ele><time>2026-05-01T17:32:10Z</time></trkpt><trkpt lat="43.39875874065499" lon="-4.698714582233779"><ele>16.0</ele><time>2026-05-01T17:32:11Z</time></trkpt><trkpt lat="43.398725485445915" lon="-4.698866804072753"><ele>12.5</ele><time>2026-05-01T17:32:12Z</time></trkpt><trkpt lat="43.39869488725466" lon="-4.699020358634453"><ele>9.0</ele><time>2026-05-01T17:32:13Z</time></trkpt><trkpt lat="43.39865551684958" lon="-4.6991725492429115"><ele>9.0</ele><time>2026-05-01T17:32:14Z</time></trkpt><trkpt lat="43.39861745520886" lon="-4.699322714748872"><ele>9.0</ele><time>2026-05-01T17:32:15Z</time></trkpt><trkpt lat="43.398583305163456" lon="-4.699471532597839"><ele>9.0</ele><time>2026-05-01T17:32:16Z</time></trkpt><trkpt lat="43.39854229078914" lon="-4.699612767688696"><ele>9.0</ele><time>2026-05-01T17:32:17Z</time></trkpt><trkpt lat="43.398506625458396" lon="-4.699763306919982"><ele>9.4</ele><time>2026-05-01T17:32:18Z</time></trkpt><trkpt lat="43.39847161029984" lon="-4.699911404602948"><ele>9.8</ele><time>2026-05-01T17:32:19Z</time></trkpt><trkpt lat="43.398440812503395" lon="-4.700058046973671"><ele>10.200000000000001</ele><time>2026-05-01T17:32:20Z</time></trkpt><trkpt lat="43.39841643549591" lon="-4.700203079574022"><ele>10.600000000000001</ele><time>2026-05-01T17:32:21Z</time></trkpt><trkpt lat="43.39839264325403" lon="-4.700353905874324"><ele>11.0</ele><time>2026-05-01T17:32:22Z</time></trkpt><trkpt lat="43.39837802822769" lon="-4.7005057062765525"><ele>12.0</ele><time>2026-05-01T17:32:23Z</time></trkpt><trkpt lat="43.39836616479337" lon="-4.700653613013953"><ele>13.0</ele><time>2026-05-01T17:32:24Z</time></trkpt><trkpt lat="43.39836033368513" lon="-4.700808627742484"><ele>14.000000000000002</ele><time>2026-05-01T17:32:25Z</time></trkpt><trkpt lat="43.39835816134777" lon="-4.700962201767931"><ele>15.0</ele><time>2026-05-01T17:32:26Z</time></trkpt><trkpt lat="43.39835831368207" lon="-4.70111353297538"><ele>16.0</ele><time>2026-05-01T17:32:27Z</time></trkpt><trkpt lat="43.39836472684295" lon="-4.701265349945272"><ele>16.0</ele><time>2026-05-01T17:32:28Z</time></trkpt><trkpt lat="43.39838106483519" lon="-4.70141023020309"><ele>16.0</ele><time>2026-05-01T17:32:29Z</time></trkpt><trkpt lat="43.39840299482477" lon="-4.701561138109901"><ele>16.0</ele><time>2026-05-01T17:32:30Z</time></trkpt><trkpt lat="43.39843366456431" lon="-4.70169925044746"><ele>16.0</ele><time>2026-05-01T17:32:31Z</time></trkpt><trkpt lat="43.398469492573454" lon="-4.701838196854257"><ele>16.0</ele><time>2026-05-01T17:32:32Z</time></trkpt><trkpt lat="43.39850466217203" lon="-4.7019792959958835"><ele>16.0</ele><time>2026-05-01T17:32:33Z</time></trkpt><trkpt lat="43.39854349456872" lon="-4.7021153562514915"><ele>16.0</ele><time>2026-05-01T17:32:34Z</time></trkpt><trkpt lat="43.39858699432962" lon="-4.702250737762979"><ele>16.0</ele><time>2026-05-01T17:32:35Z</time></trkpt><trkpt lat="43.39863371689523" lon="-4.702379100235349"><ele>16.0</ele><time>2026-05-01T17:32:36Z</time></trkpt><trkpt lat="43.398676717939715" lon="-4.7025222605495"><ele>16.0</ele><time>2026-05-01T17:32:37Z</time></trkpt><trkpt lat="43.39872960434614" lon="-4.70267453827638"><ele>16.0</ele><time>2026-05-01T17:32:38Z</time></trkpt><trkpt lat="43.39877150865102" lon="-4.702766934658738"><ele>16.0</ele><time>2026-05-01T17:32:39Z</time></trkpt><trkpt lat="43.398814325926466" lon="-4.702898591719201"><ele>16.0</ele><time>2026-05-01T17:32:40Z</time></trkpt><trkpt lat="43.398859468783755" lon="-4.703021306268079"><ele>16.0</ele><time>2026-05-01T17:32:41Z</time></trkpt><trkpt lat="43.398894245333764" lon="-4.703153400329722"><ele>16.0</ele><time>2026-05-01T17:32:42Z</time></trkpt><trkpt lat="43.39891780913966" lon="-4.703288216210547"><ele>18.8</ele><time>2026-05-01T17:32:43Z</time></trkpt><trkpt lat="43.398938829739194" lon="-4.703428200042277"><ele>21.6</ele><time>2026-05-01T17:32:44Z</time></trkpt><trkpt lat="43.398948919579425" lon="-4.703571101384488"><ele>24.4</ele><time>2026-05-01T17:32:45Z</time></trkpt><trkpt lat="43.39895344211179" lon="-4.703718263356442"><ele>27.2</ele><time>2026-05-01T17:32:46Z</time></trkpt><trkpt lat="43.39895808104988" lon="-4.703862694331075"><ele>30.0</ele><time>2026-05-01T17:32:47Z</time></trkpt><trkpt lat="43.39896408360117" lon="-4.7040135905638"><ele>30.0</ele><time>2026-05-01T17:32:48Z</time></trkpt><trkpt lat="43.39897234263299" lon="-4.704161528847303"><ele>30.0</ele><time>2026-05-01T17:32:49Z</time></trkpt><trkpt lat="43.398974178178314" lon="-4.7043377265533675"><ele>30.0</ele><time>2026-05-01T17:32:50Z</time></trkpt><trkpt lat="43.39898369703948" lon="-4.704467205228977"><ele>30.0</ele><time>2026-05-01T17:32:51Z</time></trkpt><trkpt lat="43.39898533592722" lon="-4.704613799822545"><ele>30.0</ele><time>2026-05-01T17:32:52Z</time></trkpt><trkpt lat="43.39899071072033" lon="-4.704754966093993"><ele>29.4</ele><time>2026-05-01T17:32:53Z</time></trkpt><trkpt lat="43.39899570759374" lon="-4.7049029705298935"><ele>28.8</ele><time>2026-05-01T17:32:54Z</time></trkpt><trkpt lat="43.39900012568845" lon="-4.705049252405162"><ele>28.200000000000003</ele><time>2026-05-01T17:32:55Z</time></trkpt><trkpt lat="43.399005645432474" lon="-4.70520100574692"><ele>27.6</ele><time>2026-05-01T17:32:56Z</time></trkpt><trkpt lat="43.39900861850227" lon="-4.705351080465071"><ele>27.0</ele><time>2026-05-01T17:32:57Z</time></trkpt><trkpt lat="43.399012731795125" lon="-4.705500841966421"><ele>26.0</ele><time>2026-05-01T17:32:58Z</time></trkpt><trkpt lat="43.399018288505566" lon="-4.705652378120214"><ele>25.000000000000004</ele><time>2026-05-01T17:32:59Z</time></trkpt><trkpt lat="43.399021598547414" lon="-4.705801913338234"><ele>24.0</ele><time>2026-05-01T17:33:00Z</time></trkpt><trkpt lat="43.399023797284386" lon="-4.705950001755075"><ele>23.0</ele><time>2026-05-01T17:33:01Z</time></trkpt><trkpt lat="43.399018768113685" lon="-4.70610286727742"><ele>22.0</ele><time>2026-05-01T17:33:02Z</time></trkpt><trkpt lat="43.399025471623936" lon="-4.706259051958754"><ele>22.0</ele><time>2026-05-01T17:33:03Z</time></trkpt><trkpt lat="43.39902983536926" lon="-4.706417310932967"><ele>22.0</ele><time>2026-05-01T17:33:04Z</time></trkpt><trkpt lat="43.399032756047625" lon="-4.706572718163357"><ele>22.0</ele><time>2026-05-01T17:33:05Z</time></trkpt><trkpt lat="43.39904642894494" lon="-4.706729825482321"><ele>22.0</ele><time>2026-05-01T17:33:06Z</time></trkpt><trkpt lat="43.39905433690719" lon="-4.706886086628851"><ele>22.8</ele><time>2026-05-01T17:33:07Z</time></trkpt><trkpt lat="43.3990538626727" lon="-4.707039690643062"><ele>23.6</ele><time>2026-05-01T17:33:08Z</time></trkpt><trkpt lat="43.39904793742693" lon="-4.707193398006004"><ele>24.400000000000002</ele><time>2026-05-01T17:33:09Z</time></trkpt><trkpt lat="43.39903794665397" lon="-4.707346943712448"><ele>25.200000000000003</ele><time>2026-05-01T17:33:10Z</time></trkpt><trkpt lat="43.399024528629376" lon="-4.707502538102393"><ele>26.0</ele><time>2026-05-01T17:33:11Z</time></trkpt><trkpt lat="43.39900195014293" lon="-4.7076713737585845"><ele>26.4</ele><time>2026-05-01T17:33:12Z</time></trkpt><trkpt lat="43.39897881723819" lon="-4.707807957559946"><ele>26.8</ele><time>2026-05-01T17:33:13Z</time></trkpt><trkpt lat="43.398949889119045" lon="-4.707960890103505"><ele>27.199999999999996</ele><time>2026-05-01T17:33:14Z</time></trkpt><trkpt lat="43.39891762900238" lon="-4.70811099458558"><ele>27.599999999999998</ele><time>2026-05-01T17:33:15Z</time></trkpt><trkpt lat="43.39888838682146" lon="-4.708265556227466"><ele>28.0</ele><time>2026-05-01T17:33:16Z</time></trkpt><trkpt lat="43.39884084586595" lon="-4.708403726893157"><ele>26.799999999999997</ele><time>2026-05-01T17:33:17Z</time></trkpt><trkpt lat="43.39880304749658" lon="-4.7085490919522925"><ele>25.599999999999998</ele><time>2026-05-01T17:33:18Z</time></trkpt><trkpt lat="43.39876930200406" lon="-4.708683462380754"><ele>24.4</ele><time>2026-05-01T17:33:19Z</time></trkpt><trkpt lat="43.39872990838823" lon="-4.70884326987923"><ele>23.200000000000003</ele><time>2026-05-01T17:33:20Z</time></trkpt><trkpt lat="43.39869111899518" lon="-4.7089844224278785"><ele>22.0</ele><time>2026-05-01T17:33:21Z</time></trkpt><trkpt lat="43.3986486629354" lon="-4.709127378749227"><ele>22.0</ele><time>2026-05-01T17:33:22Z</time></trkpt><trkpt lat="43.39861105953626" lon="-4.709270298565684"><ele>22.0</ele><time>2026-05-01T17:33:23Z</time></trkpt><trkpt lat="43.39857478022198" lon="-4.709413422904553"><ele>22.0</ele><time>2026-05-01T17:33:24Z</time></trkpt><trkpt lat="43.398533877536686" lon="-4.7095549323066725"><ele>22.0</ele><time>2026-05-01T17:33:25Z</time></trkpt><trkpt lat="43.3984972886466" lon="-4.709700835154139"><ele>22.0</ele><time>2026-05-01T17:33:26Z</time></trkpt><trkpt lat="43.39845844871984" lon="-4.709841363211416"><ele>22.200000000000003</ele><time>2026-05-01T17:33:27Z</time></trkpt><trkpt lat="43.39842140749416" lon="-4.709986615212889"><ele>22.4</ele><time>2026-05-01T17:33:28Z</time></trkpt><trkpt lat="43.39837554186021" lon="-4.710156810572144"><ele>22.6</ele><time>2026-05-01T17:33:29Z</time></trkpt><trkpt lat="43.39834747502938" lon="-4.710276031290501"><ele>22.799999999999997</ele><time>2026-05-01T17:33:30Z</time></trkpt><trkpt lat="43.398309084340944" lon="-4.7104179521346685"><ele>23.0</ele><time>2026-05-01T17:33:31Z</time></trkpt><trkpt lat="43.398273166165154" lon="-4.710557960873669"><ele>23.799999999999997</ele><time>2026-05-01T17:33:32Z</time></trkpt><trkpt lat="43.39823794403173" lon="-4.710702963877559"><ele>24.6</ele><time>2026-05-01T17:33:33Z</time></trkpt><trkpt lat="43.3982062701637" lon="-4.710846854529844"><ele>25.400000000000002</ele><time>2026-05-01T17:33:34Z</time></trkpt><trkpt lat="43.39817116170906" lon="-4.7109888275013585"><ele>26.200000000000003</ele><time>2026-05-01T17:33:35Z</time></trkpt><trkpt lat="43.39814316154493" lon="-4.711133963629221"><ele>27.0</ele><time>2026-05-01T17:33:36Z</time></trkpt><trkpt lat="43.39811278862422" lon="-4.711278478857305"><ele>27.200000000000003</ele><time>2026-05-01T17:33:37Z</time></trkpt><trkpt lat="43.39808723584046" lon="-4.711428614628641"><ele>27.400000000000002</ele><time>2026-05-01T17:33:38Z</time></trkpt><trkpt lat="43.398058526091916" lon="-4.711568199120532"><ele>27.599999999999998</ele><time>2026-05-01T17:33:39Z</time></trkpt><trkpt lat="43.39803431572149" lon="-4.711713527780493"><ele>27.799999999999997</ele><time>2026-05-01T17:33:40Z</time></trkpt><trkpt lat="43.39800567515411" lon="-4.711860893578174"><ele>28.0</ele><time>2026-05-01T17:33:41Z</time></trkpt><trkpt lat="43.39798486720636" lon="-4.7120083832568405"><ele>28.2</ele><time>2026-05-01T17:33:42Z</time></trkpt><trkpt lat="43.39795787338793" lon="-4.712155543012848"><ele>28.4</ele><time>2026-05-01T17:33:43Z</time></trkpt><trkpt lat="43.39793454504425" lon="-4.712303190680305"><ele>28.599999999999998</ele><time>2026-05-01T17:33:44Z</time></trkpt><trkpt lat="43.39791495211618" lon="-4.712450870798247"><ele>28.799999999999997</ele><time>2026-05-01T17:33:45Z</time></trkpt><trkpt lat="43.397897664618924" lon="-4.712596858727363"><ele>29.0</ele><time>2026-05-01T17:33:46Z</time></trkpt><trkpt lat="43.3979004222424" lon="-4.712734066524693"><ele>29.6</ele><time>2026-05-01T17:33:47Z</time></trkpt><trkpt lat="43.39785832088156" lon="-4.712883650052876"><ele>30.2</ele><time>2026-05-01T17:33:48Z</time></trkpt><trkpt lat="43.39784460327678" lon="-4.713032540499692"><ele>30.800000000000004</ele><time>2026-05-01T17:33:49Z</time></trkpt><trkpt lat="43.39781645708286" lon="-4.713170733897642"><ele>31.400000000000002</ele><time>2026-05-01T17:33:50Z</time></trkpt><trkpt lat="43.397794681727845" lon="-4.713314204700788"><ele>32.0</ele><time>2026-05-01T17:33:51Z</time></trkpt><trkpt lat="43.3977733139861" lon="-4.713462294243247"><ele>32.4</ele><time>2026-05-01T17:33:52Z</time></trkpt><trkpt lat="43.39772339150601" lon="-4.713625507128803"><ele>32.800000000000004</ele><time>2026-05-01T17:33:53Z</time></trkpt><trkpt lat="43.3977250178403" lon="-4.713752245213895"><ele>33.2</ele><time>2026-05-01T17:33:54Z</time></trkpt><trkpt lat="43.39770316048651" lon="-4.71389638901651"><ele>33.6</ele><time>2026-05-01T17:33:55Z</time></trkpt><trkpt lat="43.39768111770589" lon="-4.714042574577587"><ele>34.0</ele><time>2026-05-01T17:33:56Z</time></trkpt><trkpt lat="43.39765992764735" lon="-4.714187158034301"><ele>34.0</ele><time>2026-05-01T17:33:57Z</time></trkpt><trkpt lat="43.39764138503144" lon="-4.714335448944763"><ele>34.0</ele><time>2026-05-01T17:33:58Z</time></trkpt><trkpt lat="43.397619732139994" lon="-4.7144746312135055"><ele>34.0</ele><time>2026-05-01T17:33:59Z</time></trkpt><trkpt lat="43.39759385190293" lon="-4.714617490236625"><ele>34.0</ele><time>2026-05-01T17:34:00Z</time></trkpt><trkpt lat="43.39757682904745" lon="-4.714765158921256"><ele>34.0</ele><time>2026-05-01T17:34:01Z</time></trkpt><trkpt lat="43.39755109310681" lon="-4.7149079943678105"><ele>34.0</ele><time>2026-05-01T17:34:02Z</time></trkpt><trkpt lat="43.39752461652974" lon="-4.715050592384271"><ele>34.0</ele><time>2026-05-01T17:34:03Z</time></trkpt><trkpt lat="43.39750449025471" lon="-4.715196899722705"><ele>34.0</ele><time>2026-05-01T17:34:04Z</time></trkpt><trkpt lat="43.39746937415169" lon="-4.715333946814168"><ele>34.0</ele><time>2026-05-01T17:34:05Z</time></trkpt><trkpt lat="43.397446483184055" lon="-4.715481007310978"><ele>34.0</ele><time>2026-05-01T17:34:06Z</time></trkpt><trkpt lat="43.39741986885702" lon="-4.715627739581149"><ele>34.0</ele><time>2026-05-01T17:34:07Z</time></trkpt><trkpt lat="43.39739484021799" lon="-4.715773929857037"><ele>34.0</ele><time>2026-05-01T17:34:08Z</time></trkpt><trkpt lat="43.39736999264795" lon="-4.7159108476262634"><ele>34.0</ele><time>2026-05-01T17:34:09Z</time></trkpt><trkpt lat="43.39735650836366" lon="-4.716039469134424"><ele>34.0</ele><time>2026-05-01T17:34:10Z</time></trkpt><trkpt lat="43.3973141402827" lon="-4.716181527782554"><ele>34.0</ele><time>2026-05-01T17:34:11Z</time></trkpt><trkpt lat="43.39728570955519" lon="-4.71631156224555"><ele>33.833333333333336</ele><time>2026-05-01T17:34:12Z</time></trkpt><trkpt lat="43.397277744709825" lon="-4.716438023103281"><ele>33.66666666666667</ele><time>2026-05-01T17:34:13Z</time></trkpt><trkpt lat="43.39729227567758" lon="-4.716569847593297"><ele>33.5</ele><time>2026-05-01T17:34:14Z</time></trkpt><trkpt lat="43.39733748650243" lon="-4.716675771765037"><ele>33.333333333333336</ele><time>2026-05-01T17:34:15Z</time></trkpt><trkpt lat="43.39735453199847" lon="-4.7167826990265525"><ele>33.166666666666664</ele><time>2026-05-01T17:34:16Z</time></trkpt><trkpt lat="43.39733302426821" lon="-4.71690131525987"><ele>33.0</ele><time>2026-05-01T17:34:17Z</time></trkpt><trkpt lat="43.3972808088618" lon="-4.717013853885938"><ele>32.8</ele><time>2026-05-01T17:34:18Z</time></trkpt><trkpt lat="43.39721263432985" lon="-4.717107745766497"><ele>32.599999999999994</ele><time>2026-05-01T17:34:19Z</time></trkpt><trkpt lat="43.397143426287236" lon="-4.717203890458348"><ele>32.400000000000006</ele><time>2026-05-01T17:34:20Z</time></trkpt><trkpt lat="43.397089469014325" lon="-4.71732021557968"><ele>32.2</ele><time>2026-05-01T17:34:21Z</time></trkpt><trkpt lat="43.39705506733392" lon="-4.717452207466725"><ele>32.0</ele><time>2026-05-01T17:34:22Z</time></trkpt><trkpt lat="43.39703211989357" lon="-4.717589409977186"><ele>33.0</ele><time>2026-05-01T17:34:23Z</time></trkpt><trkpt lat="43.3970114385352" lon="-4.717728405824367"><ele>34.0</ele><time>2026-05-01T17:34:24Z</time></trkpt><trkpt lat="43.39698607431182" lon="-4.717864401549387"><ele>35.0</ele><time>2026-05-01T17:34:25Z</time></trkpt><trkpt lat="43.396961838819514" lon="-4.718002900191988"><ele>36.0</ele><time>2026-05-01T17:34:26Z</time></trkpt><trkpt lat="43.396933057536266" lon="-4.718141535241374"><ele>37.0</ele><time>2026-05-01T17:34:27Z</time></trkpt><trkpt lat="43.39690984849997" lon="-4.718278311321104"><ele>37.4</ele><time>2026-05-01T17:34:28Z</time></trkpt><trkpt lat="43.39688590933817" lon="-4.718427103361261"><ele>37.800000000000004</ele><time>2026-05-01T17:34:29Z</time></trkpt><trkpt lat="43.39685882220768" lon="-4.718550271836489"><ele>38.2</ele><time>2026-05-01T17:34:30Z</time></trkpt><trkpt lat="43.39682603710395" lon="-4.718695471011917"><ele>38.6</ele><time>2026-05-01T17:34:31Z</time></trkpt><trkpt lat="43.39680114750848" lon="-4.718822891142293"><ele>39.0</ele><time>2026-05-01T17:34:32Z</time></trkpt><trkpt lat="43.396773092431886" lon="-4.718982000825976"><ele>39.2</ele><time>2026-05-01T17:34:33Z</time></trkpt><trkpt lat="43.396752305255276" lon="-4.719113331064757"><ele>39.4</ele><time>2026-05-01T17:34:34Z</time></trkpt><trkpt lat="43.39671030845564" lon="-4.719254258702884"><ele>39.6</ele><time>2026-05-01T17:34:35Z</time></trkpt><trkpt lat="43.39668213301574" lon="-4.719391145629384"><ele>39.8</ele><time>2026-05-01T17:34:36Z</time></trkpt><trkpt lat="43.39665500584289" lon="-4.719531515035295"><ele>40.0</ele><time>2026-05-01T17:34:37Z</time></trkpt><trkpt lat="43.396632497361445" lon="-4.719668884317764"><ele>40.0</ele><time>2026-05-01T17:34:38Z</time></trkpt><trkpt lat="43.3966031837646" lon="-4.7198106172684495"><ele>40.0</ele><time>2026-05-01T17:34:39Z</time></trkpt><trkpt lat="43.39657632943373" lon="-4.719954493585583"><ele>40.0</ele><time>2026-05-01T17:34:40Z</time></trkpt><trkpt lat="43.39654928297711" lon="-4.720098560952822"><ele>40.0</ele><time>2026-05-01T17:34:41Z</time></trkpt><trkpt lat="43.396519928126644" lon="-4.720240945582095"><ele>40.0</ele><time>2026-05-01T17:34:42Z</time></trkpt><trkpt lat="43.396493245587386" lon="-4.720382737145166"><ele>40.0</ele><time>2026-05-01T17:34:43Z</time></trkpt><trkpt lat="43.3964693934887" lon="-4.720529420166448"><ele>40.0</ele><time>2026-05-01T17:34:44Z</time></trkpt><trkpt lat="43.39644346833075" lon="-4.720669877535878"><ele>40.0</ele><time>2026-05-01T17:34:45Z</time></trkpt><trkpt lat="43.396414193931555" lon="-4.720814348602668"><ele>40.0</ele><time>2026-05-01T17:34:46Z</time></trkpt><trkpt lat="43.39638442413934" lon="-4.720958936732132"><ele>40.0</ele><time>2026-05-01T17:34:47Z</time></trkpt><trkpt lat="43.396354994623664" lon="-4.721098481568831"><ele>40.75</ele><time>2026-05-01T17:34:48Z</time></trkpt><trkpt lat="43.39632639151258" lon="-4.721241969534227"><ele>41.5</ele><time>2026-05-01T17:34:49Z</time></trkpt><trkpt lat="43.396268707009234" lon="-4.721529810863923"><ele>42.25</ele><time>2026-05-01T17:34:51Z</time></trkpt><trkpt lat="43.396237304513676" lon="-4.72167028646192"><ele>43.0</ele><time>2026-05-01T17:34:52Z</time></trkpt><trkpt lat="43.39621406134341" lon="-4.721812318190585"><ele>43.0</ele><time>2026-05-01T17:34:53Z</time></trkpt><trkpt lat="43.3961887220584" lon="-4.721954772726228"><ele>43.0</ele><time>2026-05-01T17:34:54Z</time></trkpt><trkpt lat="43.39616086186551" lon="-4.722103317634775"><ele>43.0</ele><time>2026-05-01T17:34:55Z</time></trkpt><trkpt lat="43.39613162462785" lon="-4.722251448404079"><ele>43.0</ele><time>2026-05-01T17:34:56Z</time></trkpt><trkpt lat="43.39610136672024" lon="-4.722398418249352"><ele>43.0</ele><time>2026-05-01T17:34:57Z</time></trkpt><trkpt lat="43.39606906918843" lon="-4.722540570189339"><ele>43.0</ele><time>2026-05-01T17:34:58Z</time></trkpt><trkpt lat="43.396041622074826" lon="-4.722685586845128"><ele>43.0</ele><time>2026-05-01T17:34:59Z</time></trkpt><trkpt lat="43.39601734242815" lon="-4.722831532872514"><ele>43.0</ele><time>2026-05-01T17:35:00Z</time></trkpt><trkpt lat="43.39598505363231" lon="-4.722972068103743"><ele>43.0</ele><time>2026-05-01T17:35:01Z</time></trkpt><trkpt lat="43.3959577865133" lon="-4.7231186219291965"><ele>43.0</ele><time>2026-05-01T17:35:02Z</time></trkpt><trkpt lat="43.39592168072416" lon="-4.723256162958846"><ele>43.2</ele><time>2026-05-01T17:35:03Z</time></trkpt><trkpt lat="43.39590333276415" lon="-4.72340629241033"><ele>43.4</ele><time>2026-05-01T17:35:04Z</time></trkpt><trkpt lat="43.395872466008775" lon="-4.723547492347856"><ele>43.6</ele><time>2026-05-01T17:35:05Z</time></trkpt><trkpt lat="43.395841467832916" lon="-4.723691120962647"><ele>43.800000000000004</ele><time>2026-05-01T17:35:06Z</time></trkpt><trkpt lat="43.395817029692495" lon="-4.723837073715617"><ele>44.0</ele><time>2026-05-01T17:35:07Z</time></trkpt><trkpt lat="43.395793993186196" lon="-4.723979174381037"><ele>44.2</ele><time>2026-05-01T17:35:08Z</time></trkpt><trkpt lat="43.395760251973755" lon="-4.724119489222004"><ele>44.400000000000006</ele><time>2026-05-01T17:35:09Z</time></trkpt><trkpt lat="43.39572866430037" lon="-4.724266832645286"><ele>44.6</ele><time>2026-05-01T17:35:10Z</time></trkpt><trkpt lat="43.39570975098491" lon="-4.724404569285357"><ele>44.8</ele><time>2026-05-01T17:35:11Z</time></trkpt><trkpt lat="43.395665848309825" lon="-4.724554201412545"><ele>45.0</ele><time>2026-05-01T17:35:12Z</time></trkpt><trkpt lat="43.3956372822808" lon="-4.724746490963237"><ele>45.4</ele><time>2026-05-01T17:35:13Z</time></trkpt><trkpt lat="43.39562094153952" lon="-4.724898157349761"><ele>45.8</ele><time>2026-05-01T17:35:14Z</time></trkpt><trkpt lat="43.39565031876738" lon="-4.724994547316468"><ele>46.2</ele><time>2026-05-01T17:35:15Z</time></trkpt><trkpt lat="43.395603865613936" lon="-4.725099863085107"><ele>46.6</ele><time>2026-05-01T17:35:16Z</time></trkpt><trkpt lat="43.39553379764458" lon="-4.725275857641694"><ele>47.0</ele><time>2026-05-01T17:35:17Z</time></trkpt><trkpt lat="43.395506716795445" lon="-4.725417463048448"><ele>47.6</ele><time>2026-05-01T17:35:18Z</time></trkpt><trkpt lat="43.39548103639886" lon="-4.725561004430062"><ele>48.2</ele><time>2026-05-01T17:35:19Z</time></trkpt><trkpt lat="43.39545003782652" lon="-4.725700859473184"><ele>48.8</ele><time>2026-05-01T17:35:20Z</time></trkpt><trkpt lat="43.395426095535846" lon="-4.725842979999043"><ele>49.4</ele><time>2026-05-01T17:35:21Z</time></trkpt><trkpt lat="43.395398052286346" lon="-4.725984011373155"><ele>50.0</ele><time>2026-05-01T17:35:22Z</time></trkpt><trkpt lat="43.395368395221325" lon="-4.726124588327873"><ele>50.0</ele><time>2026-05-01T17:35:23Z</time></trkpt><trkpt lat="43.395343349361546" lon="-4.7262668876318825"><ele>50.0</ele><time>2026-05-01T17:35:24Z</time></trkpt><trkpt lat="43.39531935051306" lon="-4.7264118562610165"><ele>50.0</ele><time>2026-05-01T17:35:25Z</time></trkpt><trkpt lat="43.39529136571033" lon="-4.726546495306765"><ele>50.0</ele><time>2026-05-01T17:35:26Z</time></trkpt><trkpt lat="43.395277251070155" lon="-4.726692441404242"><ele>50.0</ele><time>2026-05-01T17:35:27Z</time></trkpt><trkpt lat="43.395256852597235" lon="-4.726838734771354"><ele>50.2</ele><time>2026-05-01T17:35:28Z</time></trkpt><trkpt lat="43.39524082534304" lon="-4.726985983496921"><ele>50.4</ele><time>2026-05-01T17:35:29Z</time></trkpt><trkpt lat="43.395217764901545" lon="-4.727163125791947"><ele>50.599999999999994</ele><time>2026-05-01T17:35:30Z</time></trkpt><trkpt lat="43.39522003518626" lon="-4.727290139894055"><ele>50.8</ele><time>2026-05-01T17:35:31Z</time></trkpt><trkpt lat="43.395225490618635" lon="-4.727436280534868"><ele>51.0</ele><time>2026-05-01T17:35:32Z</time></trkpt><trkpt lat="43.39522658663388" lon="-4.727584564758103"><ele>51.4</ele><time>2026-05-01T17:35:33Z</time></trkpt><trkpt lat="43.395234258555256" lon="-4.7277331540354375"><ele>51.8</ele><time>2026-05-01T17:35:34Z</time></trkpt><trkpt lat="43.395244666515175" lon="-4.727882875650103"><ele>52.199999999999996</ele><time>2026-05-01T17:35:35Z</time></trkpt><trkpt lat="43.39525866970695" lon="-4.728033160330278"><ele>52.599999999999994</ele><time>2026-05-01T17:35:36Z</time></trkpt><trkpt lat="43.39527595481164" lon="-4.72818024394919"><ele>53.0</ele><time>2026-05-01T17:35:37Z</time></trkpt><trkpt lat="43.39530265574481" lon="-4.7283292596545685"><ele>53.0</ele><time>2026-05-01T17:35:38Z</time></trkpt><trkpt lat="43.39533222470653" lon="-4.728475927998649"><ele>53.0</ele><time>2026-05-01T17:35:39Z</time></trkpt><trkpt lat="43.395365344780586" lon="-4.728622485050086"><ele>53.0</ele><time>2026-05-01T17:35:40Z</time></trkpt><trkpt lat="43.395402962057304" lon="-4.728764854688879"><ele>53.0</ele><time>2026-05-01T17:35:41Z</time></trkpt><trkpt lat="43.395448393103045" lon="-4.728899152869906"><ele>53.0</ele><time>2026-05-01T17:35:42Z</time></trkpt><trkpt lat="43.395493416253665" lon="-4.729042617272044"><ele>53.4</ele><time>2026-05-01T17:35:43Z</time></trkpt><trkpt lat="43.39554388537014" lon="-4.729180244401993"><ele>53.8</ele><time>2026-05-01T17:35:44Z</time></trkpt><trkpt lat="43.395598892541166" lon="-4.729310542914967"><ele>54.2</ele><time>2026-05-01T17:35:45Z</time></trkpt><trkpt lat="43.39566159537588" lon="-4.7294386711961645"><ele>54.6</ele><time>2026-05-01T17:35:46Z</time></trkpt><trkpt lat="43.39572632510324" lon="-4.729566233404187"><ele>55.0</ele><time>2026-05-01T17:35:47Z</time></trkpt><trkpt lat="43.395791942166895" lon="-4.729692765798206"><ele>55.0</ele><time>2026-05-01T17:35:48Z</time></trkpt><trkpt lat="43.395859240637186" lon="-4.729816578419111"><ele>55.0</ele><time>2026-05-01T17:35:49Z</time></trkpt><trkpt lat="43.39593172854084" lon="-4.729935695224273"><ele>55.0</ele><time>2026-05-01T17:35:50Z</time></trkpt><trkpt lat="43.39600346875427" lon="-4.7300541234809135"><ele>55.0</ele><time>2026-05-01T17:35:51Z</time></trkpt><trkpt lat="43.39607030331012" lon="-4.730191530989229"><ele>54.4</ele><time>2026-05-01T17:35:52Z</time></trkpt><trkpt lat="43.396144631279405" lon="-4.7303018476488745"><ele>53.8</ele><time>2026-05-01T17:35:53Z</time></trkpt><trkpt lat="43.396217745369164" lon="-4.730421526703641"><ele>53.2</ele><time>2026-05-01T17:35:54Z</time></trkpt><trkpt lat="43.3962873912446" lon="-4.730543109375218"><ele>52.6</ele><time>2026-05-01T17:35:55Z</time></trkpt><trkpt lat="43.396356507194234" lon="-4.730663961597693"><ele>52.0</ele><time>2026-05-01T17:35:56Z</time></trkpt><trkpt lat="43.39642855990851" lon="-4.730782063566034"><ele>52.0</ele><time>2026-05-01T17:35:57Z</time></trkpt><trkpt lat="43.39650086390059" lon="-4.7309011825857725"><ele>52.0</ele><time>2026-05-01T17:35:58Z</time></trkpt><trkpt lat="43.39657234748902" lon="-4.731017554255534"><ele>52.0</ele><time>2026-05-01T17:35:59Z</time></trkpt><trkpt lat="43.396642131763564" lon="-4.731134413739457"><ele>52.0</ele><time>2026-05-01T17:36:00Z</time></trkpt><trkpt lat="43.39671392431836" lon="-4.731250809433349"><ele>52.0</ele><time>2026-05-01T17:36:01Z</time></trkpt><trkpt lat="43.396784375861216" lon="-4.731367968128152"><ele>52.0</ele><time>2026-05-01T17:36:02Z</time></trkpt><trkpt lat="43.39685527467948" lon="-4.731488307156652"><ele>52.0</ele><time>2026-05-01T17:36:03Z</time></trkpt><trkpt lat="43.396920950648585" lon="-4.731602701333219"><ele>52.0</ele><time>2026-05-01T17:36:04Z</time></trkpt><trkpt lat="43.39698920149418" lon="-4.731722512942967"><ele>52.0</ele><time>2026-05-01T17:36:05Z</time></trkpt><trkpt lat="43.39706355233781" lon="-4.731837106756091"><ele>52.0</ele><time>2026-05-01T17:36:06Z</time></trkpt><trkpt lat="43.397133741907346" lon="-4.731953293491039"><ele>51.2</ele><time>2026-05-01T17:36:07Z</time></trkpt><trkpt lat="43.397205052580915" lon="-4.732070081866255"><ele>50.400000000000006</ele><time>2026-05-01T17:36:08Z</time></trkpt><trkpt lat="43.39727974124922" lon="-4.732186248669117"><ele>49.599999999999994</ele><time>2026-05-01T17:36:09Z</time></trkpt><trkpt lat="43.397348524932966" lon="-4.732301786765628"><ele>48.8</ele><time>2026-05-01T17:36:10Z</time></trkpt><trkpt lat="43.39742236641152" lon="-4.73241486563484"><ele>48.0</ele><time>2026-05-01T17:36:11Z</time></trkpt><trkpt lat="43.39749220327067" lon="-4.732538811044024"><ele>48.0</ele><time>2026-05-01T17:36:12Z</time></trkpt><trkpt lat="43.397562218148174" lon="-4.732658819062203"><ele>48.0</ele><time>2026-05-01T17:36:13Z</time></trkpt><trkpt lat="43.39763173164543" lon="-4.732775398775667"><ele>48.0</ele><time>2026-05-01T17:36:14Z</time></trkpt><trkpt lat="43.39770298792615" lon="-4.732894491275446"><ele>48.0</ele><time>2026-05-01T17:36:15Z</time></trkpt><trkpt lat="43.3977765068277" lon="-4.733010270659203"><ele>48.0</ele><time>2026-05-01T17:36:16Z</time></trkpt><trkpt lat="43.39784701463104" lon="-4.733127376032532"><ele>48.0</ele><time>2026-05-01T17:36:17Z</time></trkpt><trkpt lat="43.39791104895692" lon="-4.733252567442308"><ele>48.0</ele><time>2026-05-01T17:36:18Z</time></trkpt><trkpt lat="43.39798175730689" lon="-4.733370068243735"><ele>48.0</ele><time>2026-05-01T17:36:19Z</time></trkpt><trkpt lat="43.398049263081994" lon="-4.733481508762884"><ele>48.0</ele><time>2026-05-01T17:36:20Z</time></trkpt><trkpt lat="43.39812525021903" lon="-4.733581133437792"><ele>48.0</ele><time>2026-05-01T17:36:21Z</time></trkpt><trkpt lat="43.39818892372118" lon="-4.733709670300683"><ele>48.2</ele><time>2026-05-01T17:36:22Z</time></trkpt><trkpt lat="43.398256075527165" lon="-4.733828093295978"><ele>48.4</ele><time>2026-05-01T17:36:23Z</time></trkpt><trkpt lat="43.39832594260899" lon="-4.7339371877780545"><ele>48.6</ele><time>2026-05-01T17:36:24Z</time></trkpt><trkpt lat="43.39839356520272" lon="-4.734047846492668"><ele>48.800000000000004</ele><time>2026-05-01T17:36:25Z</time></trkpt><trkpt lat="43.39845946191027" lon="-4.7341668408781254"><ele>49.0</ele><time>2026-05-01T17:36:26Z</time></trkpt><trkpt lat="43.39852798132183" lon="-4.734284356796009"><ele>49.0</ele><time>2026-05-01T17:36:27Z</time></trkpt><trkpt lat="43.39859480195327" lon="-4.734397377882313"><ele>49.0</ele><time>2026-05-01T17:36:28Z</time></trkpt><trkpt lat="43.39866381022517" lon="-4.734517033859908"><ele>49.0</ele><time>2026-05-01T17:36:29Z</time></trkpt><trkpt lat="43.39873342137199" lon="-4.734618674136437"><ele>49.0</ele><time>2026-05-01T17:36:30Z</time></trkpt><trkpt lat="43.398811834469925" lon="-4.734730470221298"><ele>49.0</ele><time>2026-05-01T17:36:31Z</time></trkpt><trkpt lat="43.39889609037344" lon="-4.7348399949487705"><ele>49.0</ele><time>2026-05-01T17:36:32Z</time></trkpt><trkpt lat="43.398945464398615" lon="-4.73495096546225"><ele>49.0</ele><time>2026-05-01T17:36:33Z</time></trkpt><trkpt lat="43.39901889893823" lon="-4.735070816081158"><ele>49.0</ele><time>2026-05-01T17:36:34Z</time></trkpt><trkpt lat="43.39907882489502" lon="-4.735226794841308"><ele>49.0</ele><time>2026-05-01T17:36:35Z</time></trkpt><trkpt lat="43.39915954409575" lon="-4.7352822928324105"><ele>49.0</ele><time>2026-05-01T17:36:36Z</time></trkpt><trkpt lat="43.39922601594495" lon="-4.735396124483519"><ele>49.400000000000006</ele><time>2026-05-01T17:36:37Z</time></trkpt><trkpt lat="43.3992962587741" lon="-4.735513368416783"><ele>49.8</ele><time>2026-05-01T17:36:38Z</time></trkpt><trkpt lat="43.39936466435685" lon="-4.735623275842578"><ele>50.2</ele><time>2026-05-01T17:36:39Z</time></trkpt><trkpt lat="43.399428567564556" lon="-4.735736348408264"><ele>50.599999999999994</ele><time>2026-05-01T17:36:40Z</time></trkpt><trkpt lat="43.39949651635559" lon="-4.7358504944345565"><ele>51.0</ele><time>2026-05-01T17:36:41Z</time></trkpt><trkpt lat="43.39956147476587" lon="-4.735963300834294"><ele>51.199999999999996</ele><time>2026-05-01T17:36:42Z</time></trkpt><trkpt lat="43.39962845837404" lon="-4.736078643755919"><ele>51.4</ele><time>2026-05-01T17:36:43Z</time></trkpt><trkpt lat="43.39969746430369" lon="-4.73619372065783"><ele>51.6</ele><time>2026-05-01T17:36:44Z</time></trkpt><trkpt lat="43.399767013157536" lon="-4.736311359574448"><ele>51.8</ele><time>2026-05-01T17:36:45Z</time></trkpt><trkpt lat="43.3998375696172" lon="-4.7364231947178865"><ele>52.0</ele><time>2026-05-01T17:36:46Z</time></trkpt><trkpt lat="43.39990680297176" lon="-4.736538347629871"><ele>52.2</ele><time>2026-05-01T17:36:47Z</time></trkpt><trkpt lat="43.39997979476138" lon="-4.736647577580813"><ele>52.400000000000006</ele><time>2026-05-01T17:36:48Z</time></trkpt><trkpt lat="43.400050910378575" lon="-4.736761743298385"><ele>52.599999999999994</ele><time>2026-05-01T17:36:49Z</time></trkpt><trkpt lat="43.400118255220384" lon="-4.736877381357116"><ele>52.8</ele><time>2026-05-01T17:36:50Z</time></trkpt><trkpt lat="43.40018199708833" lon="-4.73700766063262"><ele>53.0</ele><time>2026-05-01T17:36:51Z</time></trkpt><trkpt lat="43.400249339465624" lon="-4.7371171802898155"><ele>53.0</ele><time>2026-05-01T17:36:52Z</time></trkpt><trkpt lat="43.40031649488461" lon="-4.737228659445768"><ele>53.0</ele><time>2026-05-01T17:36:53Z</time></trkpt><trkpt lat="43.400382953186316" lon="-4.737343270130788"><ele>53.0</ele><time>2026-05-01T17:36:54Z</time></trkpt><trkpt lat="43.40045681941469" lon="-4.7374927128579385"><ele>53.0</ele><time>2026-05-01T17:36:55Z</time></trkpt><trkpt lat="43.40051970363129" lon="-4.7375911383052065"><ele>53.0</ele><time>2026-05-01T17:36:56Z</time></trkpt><trkpt lat="43.40058464431288" lon="-4.737706083684618"><ele>52.8</ele><time>2026-05-01T17:36:57Z</time></trkpt><trkpt lat="43.40065610646268" lon="-4.737819545210349"><ele>52.599999999999994</ele><time>2026-05-01T17:36:58Z</time></trkpt><trkpt lat="43.400722821969254" lon="-4.737941919638027"><ele>52.400000000000006</ele><time>2026-05-01T17:36:59Z</time></trkpt><trkpt lat="43.40079511319215" lon="-4.738062031360358"><ele>52.2</ele><time>2026-05-01T17:37:00Z</time></trkpt><trkpt lat="43.40086504421487" lon="-4.738182039899405"><ele>52.0</ele><time>2026-05-01T17:37:01Z</time></trkpt><trkpt lat="43.40093549928417" lon="-4.738298437409418"><ele>52.0</ele><time>2026-05-01T17:37:02Z</time></trkpt><trkpt lat="43.401005533205556" lon="-4.738412105093776"><ele>52.0</ele><time>2026-05-01T17:37:03Z</time></trkpt><trkpt lat="43.401072131999314" lon="-4.73853067882765"><ele>52.0</ele><time>2026-05-01T17:37:04Z</time></trkpt><trkpt lat="43.401139856669175" lon="-4.7386489284051585"><ele>52.0</ele><time>2026-05-01T17:37:05Z</time></trkpt><trkpt lat="43.40121010408331" lon="-4.738764254039826"><ele>52.0</ele><time>2026-05-01T17:37:06Z</time></trkpt><trkpt lat="43.4012788714115" lon="-4.738881915737109"><ele>52.2</ele><time>2026-05-01T17:37:07Z</time></trkpt><trkpt lat="43.40134654952493" lon="-4.7389979002597835"><ele>52.400000000000006</ele><time>2026-05-01T17:37:08Z</time></trkpt><trkpt lat="43.40141803231107" lon="-4.739112556231189"><ele>52.599999999999994</ele><time>2026-05-01T17:37:09Z</time></trkpt><trkpt lat="43.40148825515034" lon="-4.739231808312786"><ele>52.8</ele><time>2026-05-01T17:37:10Z</time></trkpt><trkpt lat="43.401556652192234" lon="-4.7393477965470625"><ele>53.0</ele><time>2026-05-01T17:37:11Z</time></trkpt><trkpt lat="43.40162670728746" lon="-4.739467938033601"><ele>53.0</ele><time>2026-05-01T17:37:12Z</time></trkpt><trkpt lat="43.40169635229017" lon="-4.739586468449099"><ele>53.0</ele><time>2026-05-01T17:37:13Z</time></trkpt><trkpt lat="43.401766129930905" lon="-4.739704963952257"><ele>53.0</ele><time>2026-05-01T17:37:14Z</time></trkpt><trkpt lat="43.401835866767236" lon="-4.739823580340747"><ele>53.0</ele><time>2026-05-01T17:37:15Z</time></trkpt><trkpt lat="43.401906404482325" lon="-4.7399402983821295"><ele>53.0</ele><time>2026-05-01T17:37:16Z</time></trkpt><trkpt lat="43.401976987852755" lon="-4.740059265648289"><ele>53.0</ele><time>2026-05-01T17:37:17Z</time></trkpt><trkpt lat="43.402047726722195" lon="-4.740175332809229"><ele>53.0</ele><time>2026-05-01T17:37:18Z</time></trkpt><trkpt lat="43.40211680825937" lon="-4.740296642069012"><ele>53.0</ele><time>2026-05-01T17:37:19Z</time></trkpt><trkpt lat="43.40218423755123" lon="-4.740419445471026"><ele>53.0</ele><time>2026-05-01T17:37:20Z</time></trkpt><trkpt lat="43.40225058864611" lon="-4.7405395811482265"><ele>53.0</ele><time>2026-05-01T17:37:21Z</time></trkpt><trkpt lat="43.40231543949309" lon="-4.7406596849413685"><ele>53.75</ele><time>2026-05-01T17:37:22Z</time></trkpt><trkpt lat="43.40237859192142" lon="-4.74078025276578"><ele>54.5</ele><time>2026-05-01T17:37:23Z</time></trkpt><trkpt lat="43.402444080111906" lon="-4.740891009655255"><ele>55.25</ele><time>2026-05-01T17:37:24Z</time></trkpt><trkpt lat="43.40252365445511" lon="-4.740989989788181"><ele>56.0</ele><time>2026-05-01T17:37:25Z</time></trkpt><trkpt lat="43.40264106565671" lon="-4.741073825179113"><ele>56.0</ele><time>2026-05-01T17:37:26Z</time></trkpt><trkpt lat="43.40270902329029" lon="-4.741114861121668"><ele>55.99999999999999</ele><time>2026-05-01T17:37:27Z</time></trkpt><trkpt lat="43.40274831381036" lon="-4.741196079237222"><ele>55.99999999999999</ele><time>2026-05-01T17:37:28Z</time></trkpt><trkpt lat="43.402807069734074" lon="-4.741283220898849"><ele>56.0</ele><time>2026-05-01T17:37:29Z</time></trkpt><trkpt lat="43.402829197499216" lon="-4.741478222010995"><ele>56.0</ele><time>2026-05-01T17:37:30Z</time></trkpt><trkpt lat="43.40278959912568" lon="-4.741614652501751"><ele>56.0</ele><time>2026-05-01T17:37:31Z</time></trkpt><trkpt lat="43.40280558345856" lon="-4.741778891697878"><ele>56.0</ele><time>2026-05-01T17:37:32Z</time></trkpt><trkpt lat="43.402838391161076" lon="-4.741934403307812"><ele>56.0</ele><time>2026-05-01T17:37:33Z</time></trkpt><trkpt lat="43.402885792670915" lon="-4.7420801532513295"><ele>56.0</ele><time>2026-05-01T17:37:34Z</time></trkpt><trkpt lat="43.40292817565841" lon="-4.742227308813727"><ele>55.0</ele><time>2026-05-01T17:37:35Z</time></trkpt><trkpt lat="43.402960338801975" lon="-4.742379874289595"><ele>54.0</ele><time>2026-05-01T17:37:36Z</time></trkpt><trkpt lat="43.40299084379386" lon="-4.742526322718544"><ele>53.0</ele><time>2026-05-01T17:37:37Z</time></trkpt><trkpt lat="43.40301426704405" lon="-4.74267971513779"><ele>52.0</ele><time>2026-05-01T17:37:38Z</time></trkpt><trkpt lat="43.403037060902946" lon="-4.742829811514003"><ele>54.2</ele><time>2026-05-01T17:37:39Z</time></trkpt><trkpt lat="43.40305642558579" lon="-4.742983804169783"><ele>56.400000000000006</ele><time>2026-05-01T17:37:40Z</time></trkpt><trkpt lat="43.403072261932394" lon="-4.743135052137024"><ele>58.599999999999994</ele><time>2026-05-01T17:37:41Z</time></trkpt><trkpt lat="43.40308533333457" lon="-4.743286814889437"><ele>60.8</ele><time>2026-05-01T17:37:42Z</time></trkpt><trkpt lat="43.403093381030956" lon="-4.74344018831121"><ele>63.0</ele><time>2026-05-01T17:37:43Z</time></trkpt><trkpt lat="43.40309531183246" lon="-4.743593026424436"><ele>63.0</ele><time>2026-05-01T17:37:44Z</time></trkpt><trkpt lat="43.40309203228366" lon="-4.743747282219899"><ele>63.0</ele><time>2026-05-01T17:37:45Z</time></trkpt><trkpt lat="43.40309636990552" lon="-4.743900736600602"><ele>63.0</ele><time>2026-05-01T17:37:46Z</time></trkpt><trkpt lat="43.403095975894686" lon="-4.744052325530302"><ele>63.0</ele><time>2026-05-01T17:37:47Z</time></trkpt><trkpt lat="43.403093086972305" lon="-4.744209284904991"><ele>63.0</ele><time>2026-05-01T17:37:48Z</time></trkpt><trkpt lat="43.403091455822285" lon="-4.744363296318886"><ele>62.8</ele><time>2026-05-01T17:37:49Z</time></trkpt><trkpt lat="43.403090909438404" lon="-4.74451666680112"><ele>62.599999999999994</ele><time>2026-05-01T17:37:50Z</time></trkpt><trkpt lat="43.40309024623722" lon="-4.74467060772941"><ele>62.400000000000006</ele><time>2026-05-01T17:37:51Z</time></trkpt><trkpt lat="43.40309168035736" lon="-4.744823314978152"><ele>62.2</ele><time>2026-05-01T17:37:52Z</time></trkpt><trkpt lat="43.40309124528959" lon="-4.744977271626419"><ele>62.0</ele><time>2026-05-01T17:37:53Z</time></trkpt><trkpt lat="43.403091072038606" lon="-4.745131464033007"><ele>61.0</ele><time>2026-05-01T17:37:54Z</time></trkpt><trkpt lat="43.403094657869055" lon="-4.7452859693042155"><ele>60.0</ele><time>2026-05-01T17:37:55Z</time></trkpt><trkpt lat="43.40310184898711" lon="-4.745439395248914"><ele>59.0</ele><time>2026-05-01T17:37:56Z</time></trkpt><trkpt lat="43.40311140421705" lon="-4.745597546066111"><ele>58.0</ele><time>2026-05-01T17:37:57Z</time></trkpt><trkpt lat="43.40312744471986" lon="-4.745750914092436"><ele>58.0</ele><time>2026-05-01T17:37:58Z</time></trkpt><trkpt lat="43.4031475113461" lon="-4.7459040728046045"><ele>58.0</ele><time>2026-05-01T17:37:59Z</time></trkpt><trkpt lat="43.403170802215364" lon="-4.74605550987985"><ele>58.0</ele><time>2026-05-01T17:38:00Z</time></trkpt><trkpt lat="43.403198199882496" lon="-4.746203578328433"><ele>58.0</ele><time>2026-05-01T17:38:01Z</time></trkpt><trkpt lat="43.4032308148177" lon="-4.746350583635174"><ele>58.0</ele><time>2026-05-01T17:38:02Z</time></trkpt><trkpt lat="43.40326941726846" lon="-4.74649495271162"><ele>57.2</ele><time>2026-05-01T17:38:03Z</time></trkpt><trkpt lat="43.40331587680165" lon="-4.74663101793929"><ele>56.4</ele><time>2026-05-01T17:38:04Z</time></trkpt><trkpt lat="43.40336217694125" lon="-4.746766254681113"><ele>55.60000000000001</ele><time>2026-05-01T17:38:05Z</time></trkpt><trkpt lat="43.40340717747243" lon="-4.746904253774277"><ele>54.800000000000004</ele><time>2026-05-01T17:38:06Z</time></trkpt><trkpt lat="43.403454740634366" lon="-4.7470370334642675"><ele>54.0</ele><time>2026-05-01T17:38:07Z</time></trkpt><trkpt lat="43.40350365271759" lon="-4.7471754566779545"><ele>52.2</ele><time>2026-05-01T17:38:08Z</time></trkpt><trkpt lat="43.40354651836827" lon="-4.747311380557494"><ele>50.400000000000006</ele><time>2026-05-01T17:38:09Z</time></trkpt><trkpt lat="43.403589725415316" lon="-4.747454524956367"><ele>48.6</ele><time>2026-05-01T17:38:10Z</time></trkpt><trkpt lat="43.40362773416013" lon="-4.747600884847781"><ele>46.8</ele><time>2026-05-01T17:38:11Z</time></trkpt><trkpt lat="43.40367099837747" lon="-4.747728027777637"><ele>45.0</ele><time>2026-05-01T17:38:12Z</time></trkpt><trkpt lat="43.403689671409566" lon="-4.747892467310215"><ele>44.5</ele><time>2026-05-01T17:38:13Z</time></trkpt><trkpt lat="43.403715696121914" lon="-4.748042684681726"><ele>44.0</ele><time>2026-05-01T17:38:14Z</time></trkpt><trkpt lat="43.40373154875576" lon="-4.748203197167232"><ele>43.5</ele><time>2026-05-01T17:38:15Z</time></trkpt><trkpt lat="43.40375542097741" lon="-4.748349935437991"><ele>43.0</ele><time>2026-05-01T17:38:16Z</time></trkpt><trkpt lat="43.40376776598369" lon="-4.748504425480385"><ele>44.25</ele><time>2026-05-01T17:38:17Z</time></trkpt><trkpt lat="43.40377556178537" lon="-4.7486590416475245"><ele>45.5</ele><time>2026-05-01T17:38:18Z</time></trkpt><trkpt lat="43.403781692303426" lon="-4.748818060433181"><ele>46.75</ele><time>2026-05-01T17:38:19Z</time></trkpt><trkpt lat="43.40378612066534" lon="-4.748970423873366"><ele>48.0</ele><time>2026-05-01T17:38:20Z</time></trkpt><trkpt lat="43.4037942394685" lon="-4.749128137390726"><ele>48.0</ele><time>2026-05-01T17:38:21Z</time></trkpt><trkpt lat="43.40380052847421" lon="-4.749282153206023"><ele>48.0</ele><time>2026-05-01T17:38:22Z</time></trkpt><trkpt lat="43.403803925808006" lon="-4.749440938673688"><ele>48.0</ele><time>2026-05-01T17:38:23Z</time></trkpt><trkpt lat="43.40380752673626" lon="-4.749597255405059"><ele>48.0</ele><time>2026-05-01T17:38:24Z</time></trkpt><trkpt lat="43.40381135281714" lon="-4.749753519667408"><ele>49.0</ele><time>2026-05-01T17:38:25Z</time></trkpt><trkpt lat="43.403814561885525" lon="-4.749907566205497"><ele>50.0</ele><time>2026-05-01T17:38:26Z</time></trkpt><trkpt lat="43.4038171022579" lon="-4.7500657908682316"><ele>51.0</ele><time>2026-05-01T17:38:27Z</time></trkpt><trkpt lat="43.40382160454467" lon="-4.750220751986485"><ele>52.0</ele><time>2026-05-01T17:38:28Z</time></trkpt><trkpt lat="43.40382394896626" lon="-4.750374867287437"><ele>52.0</ele><time>2026-05-01T17:38:29Z</time></trkpt><trkpt lat="43.4038273370082" lon="-4.7505308169112"><ele>52.0</ele><time>2026-05-01T17:38:30Z</time></trkpt><trkpt lat="43.40382957821497" lon="-4.750685431373672"><ele>52.0</ele><time>2026-05-01T17:38:31Z</time></trkpt><trkpt lat="43.403836128876065" lon="-4.7508425935914005"><ele>52.0</ele><time>2026-05-01T17:38:32Z</time></trkpt><trkpt lat="43.40383948382316" lon="-4.750994745928445"><ele>54.75</ele><time>2026-05-01T17:38:33Z</time></trkpt><trkpt lat="43.40384113463423" lon="-4.75115213198793"><ele>57.5</ele><time>2026-05-01T17:38:34Z</time></trkpt><trkpt lat="43.403844064113876" lon="-4.7513091820595035"><ele>60.25</ele><time>2026-05-01T17:38:35Z</time></trkpt><trkpt lat="43.40384796114171" lon="-4.751463360276781"><ele>63.0</ele><time>2026-05-01T17:38:36Z</time></trkpt><trkpt lat="43.40385088380487" lon="-4.751618549258747"><ele>63.0</ele><time>2026-05-01T17:38:37Z</time></trkpt><trkpt lat="43.4038605222386" lon="-4.751771743549444"><ele>63.0</ele><time>2026-05-01T17:38:38Z</time></trkpt><trkpt lat="43.40386154358898" lon="-4.751936275903886"><ele>63.0</ele><time>2026-05-01T17:38:39Z</time></trkpt><trkpt lat="43.40386308729858" lon="-4.752095132186307"><ele>63.0</ele><time>2026-05-01T17:38:40Z</time></trkpt><trkpt lat="43.40386702663162" lon="-4.7522504954643905"><ele>62.75</ele><time>2026-05-01T17:38:41Z</time></trkpt><trkpt lat="43.40387505660576" lon="-4.752401746223962"><ele>62.5</ele><time>2026-05-01T17:38:42Z</time></trkpt><trkpt lat="43.40387477820897" lon="-4.75256417877472"><ele>62.25</ele><time>2026-05-01T17:38:43Z</time></trkpt><trkpt lat="43.40387980026353" lon="-4.752718216553536"><ele>62.0</ele><time>2026-05-01T17:38:44Z</time></trkpt><trkpt lat="43.403881427310246" lon="-4.752872389153012"><ele>61.25</ele><time>2026-05-01T17:38:45Z</time></trkpt><trkpt lat="43.403884560800826" lon="-4.7530299849394995"><ele>60.5</ele><time>2026-05-01T17:38:46Z</time></trkpt><trkpt lat="43.40388814309364" lon="-4.753185727414299"><ele>59.75</ele><time>2026-05-01T17:38:47Z</time></trkpt><trkpt lat="43.4038923803255" lon="-4.7533428916790035"><ele>59.0</ele><time>2026-05-01T17:38:48Z</time></trkpt><trkpt lat="43.40389651234344" lon="-4.753499232942654"><ele>57.5</ele><time>2026-05-01T17:38:49Z</time></trkpt><trkpt lat="43.403901269129975" lon="-4.753656187718992"><ele>56.0</ele><time>2026-05-01T17:38:50Z</time></trkpt><trkpt lat="43.40390498369991" lon="-4.753818548262773"><ele>54.5</ele><time>2026-05-01T17:38:51Z</time></trkpt><trkpt lat="43.40391121735236" lon="-4.753974948930593"><ele>53.0</ele><time>2026-05-01T17:38:52Z</time></trkpt><trkpt lat="43.40391678181652" lon="-4.754131514857368"><ele>53.0</ele><time>2026-05-01T17:38:53Z</time></trkpt><trkpt lat="43.403922923181156" lon="-4.754293018464468"><ele>53.0</ele><time>2026-05-01T17:38:54Z</time></trkpt><trkpt lat="43.40392844496917" lon="-4.7544548931404"><ele>53.0</ele><time>2026-05-01T17:38:55Z</time></trkpt><trkpt lat="43.40393543981899" lon="-4.754618365886081"><ele>53.0</ele><time>2026-05-01T17:38:56Z</time></trkpt><trkpt lat="43.40394495858871" lon="-4.754779708960695"><ele>51.5</ele><time>2026-05-01T17:38:57Z</time></trkpt><trkpt lat="43.40395411529075" lon="-4.7549382833526685"><ele>50.0</ele><time>2026-05-01T17:38:58Z</time></trkpt><trkpt lat="43.40396401968552" lon="-4.755095835502813"><ele>48.5</ele><time>2026-05-01T17:38:59Z</time></trkpt><trkpt lat="43.40397465955569" lon="-4.7552586212856935"><ele>47.0</ele><time>2026-05-01T17:39:00Z</time></trkpt><trkpt lat="43.4039857452541" lon="-4.755418749832839"><ele>46.0</ele><time>2026-05-01T17:39:01Z</time></trkpt><trkpt lat="43.40399901109487" lon="-4.755575519628311"><ele>45.0</ele><time>2026-05-01T17:39:02Z</time></trkpt><trkpt lat="43.404007979787394" lon="-4.7557408807390935"><ele>44.0</ele><time>2026-05-01T17:39:03Z</time></trkpt><trkpt lat="43.40402108544018" lon="-4.755895599302595"><ele>43.0</ele><time>2026-05-01T17:39:04Z</time></trkpt><trkpt lat="43.404033369311385" lon="-4.756056807155887"><ele>41.5</ele><time>2026-05-01T17:39:05Z</time></trkpt><trkpt lat="43.404047022860226" lon="-4.756216449515744"><ele>40.0</ele><time>2026-05-01T17:39:06Z</time></trkpt><trkpt lat="43.40406282142836" lon="-4.7563746388620505"><ele>38.5</ele><time>2026-05-01T17:39:07Z</time></trkpt><trkpt lat="43.404077906011715" lon="-4.756538278789033"><ele>37.0</ele><time>2026-05-01T17:39:08Z</time></trkpt><trkpt lat="43.40409297647491" lon="-4.756695234864356"><ele>37.0</ele><time>2026-05-01T17:39:09Z</time></trkpt><trkpt lat="43.40410894732555" lon="-4.756852125908492"><ele>37.0</ele><time>2026-05-01T17:39:10Z</time></trkpt><trkpt lat="43.404122541652626" lon="-4.757010242615371"><ele>37.0</ele><time>2026-05-01T17:39:11Z</time></trkpt><trkpt lat="43.40413514715498" lon="-4.757171385495976"><ele>37.0</ele><time>2026-05-01T17:39:12Z</time></trkpt><trkpt lat="43.4041565139879" lon="-4.757328895648979"><ele>37.2</ele><time>2026-05-01T17:39:13Z</time></trkpt><trkpt lat="43.40417362533344" lon="-4.757483264209723"><ele>37.400000000000006</ele><time>2026-05-01T17:39:14Z</time></trkpt><trkpt lat="43.4041898806232" lon="-4.757634563587247"><ele>37.599999999999994</ele><time>2026-05-01T17:39:15Z</time></trkpt><trkpt lat="43.4042027342026" lon="-4.75778731833808"><ele>37.8</ele><time>2026-05-01T17:39:16Z</time></trkpt><trkpt lat="43.404214175682306" lon="-4.757941995561612"><ele>38.0</ele><time>2026-05-01T17:39:17Z</time></trkpt><trkpt lat="43.40422699609032" lon="-4.758096395074915"><ele>37.8</ele><time>2026-05-01T17:39:18Z</time></trkpt><trkpt lat="43.404237954882014" lon="-4.758247602361102"><ele>37.599999999999994</ele><time>2026-05-01T17:39:19Z</time></trkpt><trkpt lat="43.40424809637564" lon="-4.75839345430103"><ele>37.400000000000006</ele><time>2026-05-01T17:39:20Z</time></trkpt><trkpt lat="43.404251807944924" lon="-4.758532350118885"><ele>37.2</ele><time>2026-05-01T17:39:21Z</time></trkpt><trkpt lat="43.404243213620155" lon="-4.758672019733336"><ele>37.0</ele><time>2026-05-01T17:39:22Z</time></trkpt><trkpt lat="43.40424156371877" lon="-4.758761870218863"><ele>37.0</ele><time>2026-05-01T17:39:24Z</time></trkpt><trkpt lat="43.404248449891476" lon="-4.759104607979581"><ele>37.0</ele><time>2026-05-01T17:39:25Z</time></trkpt><trkpt lat="43.404247815127036" lon="-4.759237048907452"><ele>37.0</ele><time>2026-05-01T17:39:26Z</time></trkpt><trkpt lat="43.404241439442465" lon="-4.7593642388547055"><ele>37.0</ele><time>2026-05-01T17:39:27Z</time></trkpt><trkpt lat="43.40423582470582" lon="-4.7594886204901785"><ele>37.0</ele><time>2026-05-01T17:39:28Z</time></trkpt><trkpt lat="43.404243621084895" lon="-4.759615704952002"><ele>37.0</ele><time>2026-05-01T17:39:29Z</time></trkpt><trkpt lat="43.4042602046204" lon="-4.7597440684916466"><ele>37.0</ele><time>2026-05-01T17:39:30Z</time></trkpt><trkpt lat="43.404319130227776" lon="-4.759844566193358"><ele>37.0</ele><time>2026-05-01T17:39:31Z</time></trkpt><trkpt lat="43.404379380388356" lon="-4.759923940048466"><ele>37.0</ele><time>2026-05-01T17:39:32Z</time></trkpt><trkpt lat="43.404444158173014" lon="-4.759994651064052"><ele>37.0</ele><time>2026-05-01T17:39:33Z</time></trkpt><trkpt lat="43.40453872605286" lon="-4.7600005229076645"><ele>37.0</ele><time>2026-05-01T17:39:34Z</time></trkpt><trkpt lat="43.404637444679366" lon="-4.7599944084572625"><ele>37.0</ele><time>2026-05-01T17:39:35Z</time></trkpt><trkpt lat="43.404740479396395" lon="-4.759994164265592"><ele>37.0</ele><time>2026-05-01T17:39:36Z</time></trkpt><trkpt lat="43.40485175967528" lon="-4.760006011728689"><ele>37.0</ele><time>2026-05-01T17:39:37Z</time></trkpt><trkpt lat="43.404923428473495" lon="-4.760100751310294"><ele>37.0</ele><time>2026-05-01T17:39:38Z</time></trkpt><trkpt lat="43.40507413990947" lon="-4.759952539362952"><ele>37.0</ele><time>2026-05-01T17:39:39Z</time></trkpt><trkpt lat="43.40517482702486" lon="-4.7598773437125725"><ele>37.0</ele><time>2026-05-01T17:39:40Z</time></trkpt><trkpt lat="43.40526262514269" lon="-4.759804794437943"><ele>37.0</ele><time>2026-05-01T17:39:41Z</time></trkpt><trkpt lat="43.405342370331766" lon="-4.759702968953546"><ele>37.0</ele><time>2026-05-01T17:39:42Z</time></trkpt><trkpt lat="43.405419007882145" lon="-4.759602437772227"><ele>37.0</ele><time>2026-05-01T17:39:43Z</time></trkpt><trkpt lat="43.40550833978616" lon="-4.7595256086054825"><ele>37.0</ele><time>2026-05-01T17:39:44Z</time></trkpt><trkpt lat="43.40561188821828" lon="-4.759476989070821"><ele>37.0</ele><time>2026-05-01T17:39:45Z</time></trkpt><trkpt lat="43.40571895108299" lon="-4.759461598915632"><ele>37.0</ele><time>2026-05-01T17:39:46Z</time></trkpt><trkpt lat="43.40582641071496" lon="-4.759443452949502"><ele>37.0</ele><time>2026-05-01T17:39:47Z</time></trkpt><trkpt lat="43.4059354202363" lon="-4.759430852235363"><ele>37.0</ele><time>2026-05-01T17:39:48Z</time></trkpt><trkpt lat="43.4060251797259" lon="-4.759347546687681"><ele>37.0</ele><time>2026-05-01T17:39:49Z</time></trkpt><trkpt lat="43.406117862307084" lon="-4.759304908520754"><ele>37.0</ele><time>2026-05-01T17:39:50Z</time></trkpt><trkpt lat="43.406194343100175" lon="-4.759245211678906"><ele>37.0</ele><time>2026-05-01T17:39:51Z</time></trkpt><trkpt lat="43.40627283104272" lon="-4.759192257359187"><ele>37.0</ele><time>2026-05-01T17:39:52Z</time></trkpt><trkpt lat="43.40635054231499" lon="-4.759141489728651"><ele>37.0</ele><time>2026-05-01T17:39:53Z</time></trkpt><trkpt lat="43.40643043929165" lon="-4.759090465108027"><ele>37.0</ele><time>2026-05-01T17:39:54Z</time></trkpt><trkpt lat="43.406512847104786" lon="-4.7590406710343975"><ele>37.0</ele><time>2026-05-01T17:39:55Z</time></trkpt><trkpt lat="43.406587224118525" lon="-4.758964542099652"><ele>37.0</ele><time>2026-05-01T17:39:56Z</time></trkpt><trkpt lat="43.40666680976939" lon="-4.758906481469418"><ele>37.0</ele><time>2026-05-01T17:39:57Z</time></trkpt><trkpt lat="43.40674758101737" lon="-4.7588488223329914"><ele>37.0</ele><time>2026-05-01T17:39:58Z</time></trkpt><trkpt lat="43.40682470310393" lon="-4.758794944550501"><ele>37.0</ele><time>2026-05-01T17:39:59Z</time></trkpt><trkpt lat="43.40697074301548" lon="-4.7586944810673275"><ele>37.0</ele><time>2026-05-01T17:40:01Z</time></trkpt><trkpt lat="43.40704766859467" lon="-4.758672757584764"><ele>37.0</ele><time>2026-05-01T17:40:02Z</time></trkpt><trkpt lat="43.407113059319606" lon="-4.758628950171947"><ele>37.0</ele><time>2026-05-01T17:40:03Z</time></trkpt><trkpt lat="43.407175953732946" lon="-4.758584457593428"><ele>37.0</ele><time>2026-05-01T17:40:04Z</time></trkpt><trkpt lat="43.407237276993385" lon="-4.758545797463433"><ele>37.0</ele><time>2026-05-01T17:40:05Z</time></trkpt><trkpt lat="43.40735557735806" lon="-4.758464193569986"><ele>37.0</ele><time>2026-05-01T17:40:07Z</time></trkpt><trkpt lat="43.40741147862668" lon="-4.758404882194662"><ele>36.6</ele><time>2026-05-01T17:40:08Z</time></trkpt><trkpt lat="43.407491837831365" lon="-4.758379558057626"><ele>36.2</ele><time>2026-05-01T17:40:10Z</time></trkpt><trkpt lat="43.407549832799816" lon="-4.758327816437061"><ele>35.8</ele><time>2026-05-01T17:40:15Z</time></trkpt><trkpt lat="43.40762321275254" lon="-4.758547881639911"><ele>35.4</ele><time>2026-05-01T17:40:16Z</time></trkpt><trkpt lat="43.40768790567996" lon="-4.758576519574113"><ele>35.0</ele><time>2026-05-01T17:40:17Z</time></trkpt><trkpt lat="43.407741827351074" lon="-4.758621533775982"><ele>34.83333333333333</ele><time>2026-05-01T17:40:18Z</time></trkpt><trkpt lat="43.407831540837265" lon="-4.758701568894176"><ele>34.666666666666664</ele><time>2026-05-01T17:40:20Z</time></trkpt><trkpt lat="43.40781704177578" lon="-4.758891635608353"><ele>34.5</ele><time>2026-05-01T17:40:22Z</time></trkpt><trkpt lat="43.40787397790393" lon="-4.758950902691974"><ele>34.333333333333336</ele><time>2026-05-01T17:40:24Z</time></trkpt><trkpt lat="43.407940384026" lon="-4.758975155691441"><ele>34.16666666666667</ele><time>2026-05-01T17:40:26Z</time></trkpt><trkpt lat="43.4079786233814" lon="-4.758905746652972"><ele>34.0</ele><time>2026-05-01T17:40:29Z</time></trkpt><trkpt lat="43.40800995726245" lon="-4.758740433939364"><ele>33.0</ele><time>2026-05-01T17:40:51Z</time></trkpt><trkpt lat="43.40800995726245" lon="-4.758740433939364"><ele>33.0</ele><time>2026-05-01T17:40:51Z</time></trkpt></trkseg></trk></gpx>